<?xml version="1.0" encoding="UTF-8" standalone="no" ?>
<gpx xmlns="http://www.topografix.com/GPX/1/1" xmlns:xsi="http://www.w3.org/2001/XMLSchema-instance" xsi:schemaLocation="http://www.topografix.com/GPX/1/1 http://www.topografix.com/GPX/1/1/gpx.xsd" version="1.1" creator="VisuGPX - https://www.visugpx.com">
  <metadata>
    <name>Le Salève par la Muraz</name>
  </metadata>
  <trk>
    <name><![CDATA[Le Salève par la Muraz_2]]></name>
    <trkseg>
      <trkpt lat="46.03529" lon="6.11115">
        <ele>799.8</ele>
        <time>2021-04-17T13:49:49Z</time>
      </trkpt>
      <trkpt lat="46.03526" lon="6.11103">
        <ele>799.8</ele>
        <time>2021-04-17T13:49:50Z</time>
      </trkpt>
      <trkpt lat="46.03524" lon="6.11094">
        <ele>799.6</ele>
        <time>2021-04-17T13:49:51Z</time>
      </trkpt>
      <trkpt lat="46.03523" lon="6.11086">
        <ele>799.6</ele>
        <time>2021-04-17T13:49:52Z</time>
      </trkpt>
      <trkpt lat="46.03525" lon="6.11079">
        <ele>799.6</ele>
        <time>2021-04-17T13:49:53Z</time>
      </trkpt>
      <trkpt lat="46.03528" lon="6.11073">
        <ele>799.4</ele>
        <time>2021-04-17T13:49:54Z</time>
      </trkpt>
      <trkpt lat="46.03533" lon="6.11069">
        <ele>799</ele>
        <time>2021-04-17T13:49:55Z</time>
      </trkpt>
      <trkpt lat="46.0354" lon="6.11069">
        <ele>798.8</ele>
        <time>2021-04-17T13:49:56Z</time>
      </trkpt>
      <trkpt lat="46.03545" lon="6.11068">
        <ele>798.4</ele>
        <time>2021-04-17T13:49:57Z</time>
      </trkpt>
      <trkpt lat="46.0355" lon="6.11065">
        <ele>798.4</ele>
        <time>2021-04-17T13:49:58Z</time>
      </trkpt>
      <trkpt lat="46.03555" lon="6.11063">
        <ele>798.2</ele>
        <time>2021-04-17T13:49:59Z</time>
      </trkpt>
      <trkpt lat="46.0356" lon="6.11061">
        <ele>798.4</ele>
        <time>2021-04-17T13:50:00Z</time>
      </trkpt>
      <trkpt lat="46.03564" lon="6.11059">
        <ele>798.2</ele>
        <time>2021-04-17T13:50:01Z</time>
      </trkpt>
      <trkpt lat="46.03567" lon="6.11058">
        <ele>798.2</ele>
        <time>2021-04-17T13:50:02Z</time>
      </trkpt>
      <trkpt lat="46.03569" lon="6.11058">
        <ele>798.4</ele>
        <time>2021-04-17T13:50:03Z</time>
      </trkpt>
      <trkpt lat="46.03571" lon="6.11058">
        <ele>798.2</ele>
        <time>2021-04-17T13:50:04Z</time>
      </trkpt>
      <trkpt lat="46.03571" lon="6.11058">
        <ele>798.4</ele>
        <time>2021-04-17T13:50:05Z</time>
      </trkpt>
      <trkpt lat="46.03571" lon="6.11058">
        <ele>798.4</ele>
        <time>2021-04-17T13:50:06Z</time>
      </trkpt>
      <trkpt lat="46.03571" lon="6.11059">
        <ele>798.6</ele>
        <time>2021-04-17T13:50:07Z</time>
      </trkpt>
      <trkpt lat="46.03571" lon="6.11059">
        <ele>798.6</ele>
        <time>2021-04-17T13:50:08Z</time>
      </trkpt>
      <trkpt lat="46.03571" lon="6.1106">
        <ele>798.6</ele>
        <time>2021-04-17T13:50:09Z</time>
      </trkpt>
      <trkpt lat="46.03572" lon="6.1106">
        <ele>799.2</ele>
        <time>2021-04-17T13:50:10Z</time>
      </trkpt>
      <trkpt lat="46.03572" lon="6.11061">
        <ele>799.8</ele>
        <time>2021-04-17T13:50:11Z</time>
      </trkpt>
      <trkpt lat="46.03572" lon="6.11061">
        <ele>800.4</ele>
        <time>2021-04-17T13:50:12Z</time>
      </trkpt>
      <trkpt lat="46.03572" lon="6.11061">
        <ele>800.4</ele>
        <time>2021-04-17T13:50:13Z</time>
      </trkpt>
      <trkpt lat="46.03572" lon="6.11061">
        <ele>800.8</ele>
        <time>2021-04-17T13:50:14Z</time>
      </trkpt>
      <trkpt lat="46.03572" lon="6.11061">
        <ele>800.8</ele>
        <time>2021-04-17T13:50:15Z</time>
      </trkpt>
      <trkpt lat="46.03572" lon="6.11061">
        <ele>800.8</ele>
        <time>2021-04-17T13:50:16Z</time>
      </trkpt>
      <trkpt lat="46.03572" lon="6.11061">
        <ele>801</ele>
        <time>2021-04-17T13:50:17Z</time>
      </trkpt>
      <trkpt lat="46.03572" lon="6.11061">
        <ele>801</ele>
        <time>2021-04-17T13:50:18Z</time>
      </trkpt>
      <trkpt lat="46.03572" lon="6.11061">
        <ele>800.8</ele>
        <time>2021-04-17T13:50:19Z</time>
      </trkpt>
      <trkpt lat="46.03572" lon="6.11061">
        <ele>800.8</ele>
        <time>2021-04-17T13:50:20Z</time>
      </trkpt>
      <trkpt lat="46.03572" lon="6.11061">
        <ele>801</ele>
        <time>2021-04-17T13:50:21Z</time>
      </trkpt>
      <trkpt lat="46.03572" lon="6.11061">
        <ele>801</ele>
        <time>2021-04-17T13:50:22Z</time>
      </trkpt>
      <trkpt lat="46.03572" lon="6.11061">
        <ele>801.2</ele>
        <time>2021-04-17T13:50:23Z</time>
      </trkpt>
      <trkpt lat="46.03572" lon="6.11061">
        <ele>801.2</ele>
        <time>2021-04-17T13:50:24Z</time>
      </trkpt>
      <trkpt lat="46.03572" lon="6.11061">
        <ele>801</ele>
        <time>2021-04-17T13:50:25Z</time>
      </trkpt>
      <trkpt lat="46.03572" lon="6.11061">
        <ele>801.2</ele>
        <time>2021-04-17T13:50:26Z</time>
      </trkpt>
      <trkpt lat="46.03572" lon="6.11061">
        <ele>801.2</ele>
        <time>2021-04-17T13:50:27Z</time>
      </trkpt>
      <trkpt lat="46.03571" lon="6.11061">
        <ele>801</ele>
        <time>2021-04-17T13:50:28Z</time>
      </trkpt>
      <trkpt lat="46.03571" lon="6.11061">
        <ele>801</ele>
        <time>2021-04-17T13:50:29Z</time>
      </trkpt>
      <trkpt lat="46.03571" lon="6.11061">
        <ele>801.2</ele>
        <time>2021-04-17T13:50:30Z</time>
      </trkpt>
      <trkpt lat="46.03571" lon="6.11061">
        <ele>801</ele>
        <time>2021-04-17T13:50:31Z</time>
      </trkpt>
      <trkpt lat="46.03571" lon="6.11061">
        <ele>801.2</ele>
        <time>2021-04-17T13:50:32Z</time>
      </trkpt>
      <trkpt lat="46.03571" lon="6.11061">
        <ele>801</ele>
        <time>2021-04-17T13:50:33Z</time>
      </trkpt>
      <trkpt lat="46.03571" lon="6.11061">
        <ele>801.2</ele>
        <time>2021-04-17T13:50:34Z</time>
      </trkpt>
      <trkpt lat="46.03571" lon="6.11061">
        <ele>801.2</ele>
        <time>2021-04-17T13:50:35Z</time>
      </trkpt>
      <trkpt lat="46.03571" lon="6.11061">
        <ele>801.2</ele>
        <time>2021-04-17T13:50:36Z</time>
      </trkpt>
      <trkpt lat="46.03571" lon="6.11061">
        <ele>801</ele>
        <time>2021-04-17T13:50:37Z</time>
      </trkpt>
      <trkpt lat="46.03571" lon="6.11061">
        <ele>801.2</ele>
        <time>2021-04-17T13:50:38Z</time>
      </trkpt>
      <trkpt lat="46.03571" lon="6.11061">
        <ele>801.2</ele>
        <time>2021-04-17T13:50:39Z</time>
      </trkpt>
      <trkpt lat="46.03571" lon="6.11061">
        <ele>801.2</ele>
        <time>2021-04-17T13:50:40Z</time>
      </trkpt>
      <trkpt lat="46.03571" lon="6.11061">
        <ele>801.2</ele>
        <time>2021-04-17T13:50:41Z</time>
      </trkpt>
      <trkpt lat="46.03571" lon="6.11061">
        <ele>801</ele>
        <time>2021-04-17T13:50:42Z</time>
      </trkpt>
      <trkpt lat="46.03571" lon="6.11061">
        <ele>801.2</ele>
        <time>2021-04-17T13:50:43Z</time>
      </trkpt>
      <trkpt lat="46.03571" lon="6.11061">
        <ele>801.2</ele>
        <time>2021-04-17T13:50:44Z</time>
      </trkpt>
      <trkpt lat="46.03571" lon="6.11061">
        <ele>801.2</ele>
        <time>2021-04-17T13:50:45Z</time>
      </trkpt>
      <trkpt lat="46.03571" lon="6.11061">
        <ele>801</ele>
        <time>2021-04-17T13:50:46Z</time>
      </trkpt>
      <trkpt lat="46.03571" lon="6.11061">
        <ele>801</ele>
        <time>2021-04-17T13:50:47Z</time>
      </trkpt>
      <trkpt lat="46.03571" lon="6.11061">
        <ele>801.2</ele>
        <time>2021-04-17T13:50:48Z</time>
      </trkpt>
      <trkpt lat="46.03571" lon="6.11061">
        <ele>801</ele>
        <time>2021-04-17T13:50:49Z</time>
      </trkpt>
      <trkpt lat="46.03571" lon="6.11061">
        <ele>801</ele>
        <time>2021-04-17T13:50:50Z</time>
      </trkpt>
      <trkpt lat="46.03571" lon="6.11061">
        <ele>801</ele>
        <time>2021-04-17T13:50:51Z</time>
      </trkpt>
      <trkpt lat="46.03571" lon="6.11061">
        <ele>801</ele>
        <time>2021-04-17T13:50:52Z</time>
      </trkpt>
      <trkpt lat="46.03571" lon="6.11061">
        <ele>801</ele>
        <time>2021-04-17T13:50:53Z</time>
      </trkpt>
      <trkpt lat="46.03571" lon="6.11061">
        <ele>801</ele>
        <time>2021-04-17T13:50:54Z</time>
      </trkpt>
      <trkpt lat="46.03571" lon="6.11061">
        <ele>800.8</ele>
        <time>2021-04-17T13:50:55Z</time>
      </trkpt>
      <trkpt lat="46.03571" lon="6.11061">
        <ele>801</ele>
        <time>2021-04-17T13:50:56Z</time>
      </trkpt>
      <trkpt lat="46.03571" lon="6.11061">
        <ele>800.8</ele>
        <time>2021-04-17T13:50:57Z</time>
      </trkpt>
      <trkpt lat="46.03571" lon="6.11061">
        <ele>800.8</ele>
        <time>2021-04-17T13:50:58Z</time>
      </trkpt>
      <trkpt lat="46.03571" lon="6.11061">
        <ele>800.8</ele>
        <time>2021-04-17T13:50:59Z</time>
      </trkpt>
      <trkpt lat="46.03571" lon="6.11061">
        <ele>801</ele>
        <time>2021-04-17T13:51:00Z</time>
      </trkpt>
      <trkpt lat="46.03571" lon="6.11061">
        <ele>800.8</ele>
        <time>2021-04-17T13:51:01Z</time>
      </trkpt>
      <trkpt lat="46.03571" lon="6.11061">
        <ele>800.8</ele>
        <time>2021-04-17T13:51:02Z</time>
      </trkpt>
      <trkpt lat="46.03571" lon="6.11061">
        <ele>800.8</ele>
        <time>2021-04-17T13:51:03Z</time>
      </trkpt>
      <trkpt lat="46.03571" lon="6.11061">
        <ele>801</ele>
        <time>2021-04-17T13:51:04Z</time>
      </trkpt>
      <trkpt lat="46.03571" lon="6.11061">
        <ele>801</ele>
        <time>2021-04-17T13:51:05Z</time>
      </trkpt>
      <trkpt lat="46.03571" lon="6.11061">
        <ele>800.8</ele>
        <time>2021-04-17T13:51:06Z</time>
      </trkpt>
      <trkpt lat="46.03571" lon="6.11061">
        <ele>800.8</ele>
        <time>2021-04-17T13:51:07Z</time>
      </trkpt>
      <trkpt lat="46.03571" lon="6.11061">
        <ele>800.6</ele>
        <time>2021-04-17T13:51:08Z</time>
      </trkpt>
      <trkpt lat="46.03571" lon="6.11061">
        <ele>800.6</ele>
        <time>2021-04-17T13:51:09Z</time>
      </trkpt>
      <trkpt lat="46.03571" lon="6.11061">
        <ele>800.6</ele>
        <time>2021-04-17T13:51:10Z</time>
      </trkpt>
      <trkpt lat="46.03571" lon="6.11061">
        <ele>800.6</ele>
        <time>2021-04-17T13:51:11Z</time>
      </trkpt>
      <trkpt lat="46.03571" lon="6.11061">
        <ele>800.8</ele>
        <time>2021-04-17T13:51:12Z</time>
      </trkpt>
      <trkpt lat="46.03571" lon="6.11061">
        <ele>800.6</ele>
        <time>2021-04-17T13:51:13Z</time>
      </trkpt>
      <trkpt lat="46.03571" lon="6.11061">
        <ele>800.6</ele>
        <time>2021-04-17T13:51:14Z</time>
      </trkpt>
      <trkpt lat="46.03571" lon="6.11061">
        <ele>800.6</ele>
        <time>2021-04-17T13:51:15Z</time>
      </trkpt>
      <trkpt lat="46.03571" lon="6.11061">
        <ele>800.6</ele>
        <time>2021-04-17T13:51:16Z</time>
      </trkpt>
      <trkpt lat="46.03571" lon="6.11061">
        <ele>800.6</ele>
        <time>2021-04-17T13:51:17Z</time>
      </trkpt>
      <trkpt lat="46.03571" lon="6.11061">
        <ele>800.6</ele>
        <time>2021-04-17T13:51:18Z</time>
      </trkpt>
      <trkpt lat="46.03571" lon="6.11061">
        <ele>800.4</ele>
        <time>2021-04-17T13:51:19Z</time>
      </trkpt>
      <trkpt lat="46.03571" lon="6.11061">
        <ele>800.6</ele>
        <time>2021-04-17T13:51:20Z</time>
      </trkpt>
      <trkpt lat="46.03571" lon="6.11061">
        <ele>800.6</ele>
        <time>2021-04-17T13:51:21Z</time>
      </trkpt>
      <trkpt lat="46.03571" lon="6.11061">
        <ele>800.6</ele>
        <time>2021-04-17T13:51:22Z</time>
      </trkpt>
      <trkpt lat="46.03571" lon="6.11061">
        <ele>800.8</ele>
        <time>2021-04-17T13:51:23Z</time>
      </trkpt>
      <trkpt lat="46.03571" lon="6.11061">
        <ele>800.8</ele>
        <time>2021-04-17T13:51:24Z</time>
      </trkpt>
      <trkpt lat="46.03571" lon="6.11061">
        <ele>801</ele>
        <time>2021-04-17T13:51:25Z</time>
      </trkpt>
      <trkpt lat="46.03571" lon="6.11061">
        <ele>801</ele>
        <time>2021-04-17T13:51:26Z</time>
      </trkpt>
      <trkpt lat="46.03571" lon="6.11061">
        <ele>801</ele>
        <time>2021-04-17T13:51:27Z</time>
      </trkpt>
      <trkpt lat="46.03571" lon="6.11061">
        <ele>801.2</ele>
        <time>2021-04-17T13:51:28Z</time>
      </trkpt>
      <trkpt lat="46.03571" lon="6.11061">
        <ele>801.2</ele>
        <time>2021-04-17T13:51:29Z</time>
      </trkpt>
      <trkpt lat="46.03571" lon="6.11061">
        <ele>801.4</ele>
        <time>2021-04-17T13:51:30Z</time>
      </trkpt>
      <trkpt lat="46.03571" lon="6.11061">
        <ele>801.4</ele>
        <time>2021-04-17T13:51:31Z</time>
      </trkpt>
      <trkpt lat="46.03571" lon="6.11061">
        <ele>801.2</ele>
        <time>2021-04-17T13:51:32Z</time>
      </trkpt>
      <trkpt lat="46.03571" lon="6.11061">
        <ele>801.4</ele>
        <time>2021-04-17T13:51:33Z</time>
      </trkpt>
      <trkpt lat="46.03571" lon="6.11061">
        <ele>801.4</ele>
        <time>2021-04-17T13:51:34Z</time>
      </trkpt>
      <trkpt lat="46.03571" lon="6.11061">
        <ele>801.4</ele>
        <time>2021-04-17T13:51:35Z</time>
      </trkpt>
      <trkpt lat="46.03571" lon="6.11061">
        <ele>801.4</ele>
        <time>2021-04-17T13:51:36Z</time>
      </trkpt>
      <trkpt lat="46.03571" lon="6.11061">
        <ele>801.6</ele>
        <time>2021-04-17T13:51:37Z</time>
      </trkpt>
      <trkpt lat="46.03571" lon="6.11061">
        <ele>801.4</ele>
        <time>2021-04-17T13:51:38Z</time>
      </trkpt>
      <trkpt lat="46.03571" lon="6.11061">
        <ele>801.6</ele>
        <time>2021-04-17T13:51:39Z</time>
      </trkpt>
      <trkpt lat="46.03571" lon="6.11061">
        <ele>801.4</ele>
        <time>2021-04-17T13:51:40Z</time>
      </trkpt>
      <trkpt lat="46.03571" lon="6.11061">
        <ele>801.6</ele>
        <time>2021-04-17T13:51:41Z</time>
      </trkpt>
      <trkpt lat="46.03571" lon="6.11061">
        <ele>801.8</ele>
        <time>2021-04-17T13:51:42Z</time>
      </trkpt>
      <trkpt lat="46.03571" lon="6.11061">
        <ele>801.6</ele>
        <time>2021-04-17T13:51:43Z</time>
      </trkpt>
      <trkpt lat="46.03571" lon="6.11061">
        <ele>801.8</ele>
        <time>2021-04-17T13:51:44Z</time>
      </trkpt>
      <trkpt lat="46.03571" lon="6.11061">
        <ele>802</ele>
        <time>2021-04-17T13:51:45Z</time>
      </trkpt>
      <trkpt lat="46.03571" lon="6.11061">
        <ele>802</ele>
        <time>2021-04-17T13:51:46Z</time>
      </trkpt>
      <trkpt lat="46.03571" lon="6.11061">
        <ele>802</ele>
        <time>2021-04-17T13:51:47Z</time>
      </trkpt>
      <trkpt lat="46.03571" lon="6.11061">
        <ele>802.2</ele>
        <time>2021-04-17T13:51:48Z</time>
      </trkpt>
      <trkpt lat="46.03571" lon="6.11061">
        <ele>802.2</ele>
        <time>2021-04-17T13:51:49Z</time>
      </trkpt>
      <trkpt lat="46.03571" lon="6.11061">
        <ele>802.2</ele>
        <time>2021-04-17T13:51:50Z</time>
      </trkpt>
      <trkpt lat="46.03571" lon="6.11061">
        <ele>802.2</ele>
        <time>2021-04-17T13:51:51Z</time>
      </trkpt>
      <trkpt lat="46.03571" lon="6.11061">
        <ele>802.4</ele>
        <time>2021-04-17T13:51:52Z</time>
      </trkpt>
      <trkpt lat="46.03571" lon="6.11061">
        <ele>802.2</ele>
        <time>2021-04-17T13:51:53Z</time>
      </trkpt>
      <trkpt lat="46.03571" lon="6.11061">
        <ele>802.2</ele>
        <time>2021-04-17T13:51:54Z</time>
      </trkpt>
      <trkpt lat="46.03571" lon="6.11061">
        <ele>802.4</ele>
        <time>2021-04-17T13:51:55Z</time>
      </trkpt>
      <trkpt lat="46.03571" lon="6.11061">
        <ele>802.4</ele>
        <time>2021-04-17T13:51:56Z</time>
      </trkpt>
      <trkpt lat="46.03571" lon="6.11061">
        <ele>802.4</ele>
        <time>2021-04-17T13:51:57Z</time>
      </trkpt>
      <trkpt lat="46.03571" lon="6.1106">
        <ele>802.4</ele>
        <time>2021-04-17T13:51:58Z</time>
      </trkpt>
      <trkpt lat="46.03571" lon="6.11059">
        <ele>802.4</ele>
        <time>2021-04-17T13:51:59Z</time>
      </trkpt>
      <trkpt lat="46.03571" lon="6.11059">
        <ele>802.2</ele>
        <time>2021-04-17T13:52:00Z</time>
      </trkpt>
      <trkpt lat="46.03571" lon="6.11059">
        <ele>802.2</ele>
        <time>2021-04-17T13:52:01Z</time>
      </trkpt>
      <trkpt lat="46.03571" lon="6.11059">
        <ele>802.2</ele>
        <time>2021-04-17T13:52:02Z</time>
      </trkpt>
      <trkpt lat="46.03571" lon="6.11059">
        <ele>802.2</ele>
        <time>2021-04-17T13:52:03Z</time>
      </trkpt>
      <trkpt lat="46.03571" lon="6.11059">
        <ele>802.2</ele>
        <time>2021-04-17T13:52:04Z</time>
      </trkpt>
      <trkpt lat="46.03571" lon="6.11058">
        <ele>802.2</ele>
        <time>2021-04-17T13:52:05Z</time>
      </trkpt>
      <trkpt lat="46.03571" lon="6.11058">
        <ele>802</ele>
        <time>2021-04-17T13:52:06Z</time>
      </trkpt>
      <trkpt lat="46.03571" lon="6.11058">
        <ele>801.8</ele>
        <time>2021-04-17T13:52:07Z</time>
      </trkpt>
      <trkpt lat="46.03571" lon="6.11058">
        <ele>801.6</ele>
        <time>2021-04-17T13:52:08Z</time>
      </trkpt>
      <trkpt lat="46.03571" lon="6.11058">
        <ele>801.6</ele>
        <time>2021-04-17T13:52:09Z</time>
      </trkpt>
      <trkpt lat="46.0357" lon="6.11059">
        <ele>801.6</ele>
        <time>2021-04-17T13:52:10Z</time>
      </trkpt>
      <trkpt lat="46.0357" lon="6.11059">
        <ele>801.6</ele>
        <time>2021-04-17T13:52:11Z</time>
      </trkpt>
      <trkpt lat="46.0357" lon="6.11059">
        <ele>801.6</ele>
        <time>2021-04-17T13:52:12Z</time>
      </trkpt>
      <trkpt lat="46.0357" lon="6.11059">
        <ele>801.6</ele>
        <time>2021-04-17T13:52:13Z</time>
      </trkpt>
      <trkpt lat="46.0357" lon="6.11058">
        <ele>801.6</ele>
        <time>2021-04-17T13:52:14Z</time>
      </trkpt>
      <trkpt lat="46.0357" lon="6.11058">
        <ele>801.4</ele>
        <time>2021-04-17T13:52:15Z</time>
      </trkpt>
      <trkpt lat="46.03571" lon="6.11058">
        <ele>801.4</ele>
        <time>2021-04-17T13:52:16Z</time>
      </trkpt>
      <trkpt lat="46.03571" lon="6.11057">
        <ele>801.4</ele>
        <time>2021-04-17T13:52:17Z</time>
      </trkpt>
      <trkpt lat="46.03572" lon="6.11056">
        <ele>801.4</ele>
        <time>2021-04-17T13:52:18Z</time>
      </trkpt>
      <trkpt lat="46.03572" lon="6.11054">
        <ele>801.2</ele>
        <time>2021-04-17T13:52:19Z</time>
      </trkpt>
      <trkpt lat="46.03573" lon="6.11052">
        <ele>801.4</ele>
        <time>2021-04-17T13:52:20Z</time>
      </trkpt>
      <trkpt lat="46.03575" lon="6.11049">
        <ele>801.4</ele>
        <time>2021-04-17T13:52:21Z</time>
      </trkpt>
      <trkpt lat="46.03577" lon="6.11045">
        <ele>801.4</ele>
        <time>2021-04-17T13:52:22Z</time>
      </trkpt>
      <trkpt lat="46.03578" lon="6.11041">
        <ele>801.6</ele>
        <time>2021-04-17T13:52:23Z</time>
      </trkpt>
      <trkpt lat="46.03579" lon="6.11037">
        <ele>801.6</ele>
        <time>2021-04-17T13:52:24Z</time>
      </trkpt>
      <trkpt lat="46.0358" lon="6.11033">
        <ele>801.8</ele>
        <time>2021-04-17T13:52:25Z</time>
      </trkpt>
      <trkpt lat="46.03581" lon="6.11029">
        <ele>802</ele>
        <time>2021-04-17T13:52:26Z</time>
      </trkpt>
      <trkpt lat="46.03581" lon="6.11024">
        <ele>802</ele>
        <time>2021-04-17T13:52:27Z</time>
      </trkpt>
      <trkpt lat="46.03582" lon="6.11018">
        <ele>802.2</ele>
        <time>2021-04-17T13:52:28Z</time>
      </trkpt>
      <trkpt lat="46.03582" lon="6.11013">
        <ele>802.2</ele>
        <time>2021-04-17T13:52:29Z</time>
      </trkpt>
      <trkpt lat="46.03583" lon="6.11008">
        <ele>802.6</ele>
        <time>2021-04-17T13:52:30Z</time>
      </trkpt>
      <trkpt lat="46.03584" lon="6.11003">
        <ele>803.2</ele>
        <time>2021-04-17T13:52:31Z</time>
      </trkpt>
      <trkpt lat="46.03584" lon="6.10998">
        <ele>803.6</ele>
        <time>2021-04-17T13:52:32Z</time>
      </trkpt>
      <trkpt lat="46.03584" lon="6.10993">
        <ele>803.8</ele>
        <time>2021-04-17T13:52:33Z</time>
      </trkpt>
      <trkpt lat="46.03584" lon="6.10988">
        <ele>804</ele>
        <time>2021-04-17T13:52:34Z</time>
      </trkpt>
      <trkpt lat="46.03585" lon="6.10983">
        <ele>804.2</ele>
        <time>2021-04-17T13:52:35Z</time>
      </trkpt>
      <trkpt lat="46.03585" lon="6.10978">
        <ele>804.4</ele>
        <time>2021-04-17T13:52:36Z</time>
      </trkpt>
      <trkpt lat="46.03585" lon="6.10973">
        <ele>804.4</ele>
        <time>2021-04-17T13:52:37Z</time>
      </trkpt>
      <trkpt lat="46.03586" lon="6.10968">
        <ele>804.6</ele>
        <time>2021-04-17T13:52:38Z</time>
      </trkpt>
      <trkpt lat="46.03587" lon="6.10964">
        <ele>804.6</ele>
        <time>2021-04-17T13:52:39Z</time>
      </trkpt>
      <trkpt lat="46.03588" lon="6.10959">
        <ele>804.6</ele>
        <time>2021-04-17T13:52:40Z</time>
      </trkpt>
      <trkpt lat="46.03589" lon="6.10954">
        <ele>804.6</ele>
        <time>2021-04-17T13:52:41Z</time>
      </trkpt>
      <trkpt lat="46.03591" lon="6.1095">
        <ele>804.8</ele>
        <time>2021-04-17T13:52:42Z</time>
      </trkpt>
      <trkpt lat="46.03592" lon="6.10945">
        <ele>805.2</ele>
        <time>2021-04-17T13:52:43Z</time>
      </trkpt>
      <trkpt lat="46.03594" lon="6.10941">
        <ele>805.4</ele>
        <time>2021-04-17T13:52:44Z</time>
      </trkpt>
      <trkpt lat="46.03595" lon="6.10937">
        <ele>805.6</ele>
        <time>2021-04-17T13:52:45Z</time>
      </trkpt>
      <trkpt lat="46.03597" lon="6.10934">
        <ele>805.8</ele>
        <time>2021-04-17T13:52:46Z</time>
      </trkpt>
      <trkpt lat="46.03599" lon="6.1093">
        <ele>806</ele>
        <time>2021-04-17T13:52:47Z</time>
      </trkpt>
      <trkpt lat="46.03601" lon="6.10927">
        <ele>806</ele>
        <time>2021-04-17T13:52:48Z</time>
      </trkpt>
      <trkpt lat="46.03603" lon="6.10923">
        <ele>806.2</ele>
        <time>2021-04-17T13:52:49Z</time>
      </trkpt>
      <trkpt lat="46.03605" lon="6.10919">
        <ele>806.2</ele>
        <time>2021-04-17T13:52:50Z</time>
      </trkpt>
      <trkpt lat="46.03608" lon="6.10915">
        <ele>806.2</ele>
        <time>2021-04-17T13:52:51Z</time>
      </trkpt>
      <trkpt lat="46.0361" lon="6.10911">
        <ele>806.4</ele>
        <time>2021-04-17T13:52:52Z</time>
      </trkpt>
      <trkpt lat="46.03612" lon="6.10907">
        <ele>807</ele>
        <time>2021-04-17T13:52:53Z</time>
      </trkpt>
      <trkpt lat="46.03615" lon="6.10903">
        <ele>807.6</ele>
        <time>2021-04-17T13:52:54Z</time>
      </trkpt>
      <trkpt lat="46.03617" lon="6.10899">
        <ele>808.4</ele>
        <time>2021-04-17T13:52:55Z</time>
      </trkpt>
      <trkpt lat="46.03619" lon="6.10896">
        <ele>809.2</ele>
        <time>2021-04-17T13:52:56Z</time>
      </trkpt>
      <trkpt lat="46.03621" lon="6.10892">
        <ele>809.6</ele>
        <time>2021-04-17T13:52:57Z</time>
      </trkpt>
      <trkpt lat="46.03623" lon="6.10888">
        <ele>810</ele>
        <time>2021-04-17T13:52:58Z</time>
      </trkpt>
      <trkpt lat="46.03626" lon="6.10884">
        <ele>810.4</ele>
        <time>2021-04-17T13:52:59Z</time>
      </trkpt>
      <trkpt lat="46.03628" lon="6.10881">
        <ele>810.6</ele>
        <time>2021-04-17T13:53:00Z</time>
      </trkpt>
      <trkpt lat="46.03631" lon="6.10877">
        <ele>810.8</ele>
        <time>2021-04-17T13:53:01Z</time>
      </trkpt>
      <trkpt lat="46.03633" lon="6.10873">
        <ele>811</ele>
        <time>2021-04-17T13:53:02Z</time>
      </trkpt>
      <trkpt lat="46.03636" lon="6.10868">
        <ele>811.4</ele>
        <time>2021-04-17T13:53:03Z</time>
      </trkpt>
      <trkpt lat="46.03638" lon="6.10864">
        <ele>811.6</ele>
        <time>2021-04-17T13:53:04Z</time>
      </trkpt>
      <trkpt lat="46.03641" lon="6.10859">
        <ele>811.8</ele>
        <time>2021-04-17T13:53:05Z</time>
      </trkpt>
      <trkpt lat="46.03644" lon="6.10854">
        <ele>811.8</ele>
        <time>2021-04-17T13:53:06Z</time>
      </trkpt>
      <trkpt lat="46.03647" lon="6.10849">
        <ele>812</ele>
        <time>2021-04-17T13:53:07Z</time>
      </trkpt>
      <trkpt lat="46.0365" lon="6.10844">
        <ele>812</ele>
        <time>2021-04-17T13:53:08Z</time>
      </trkpt>
      <trkpt lat="46.03653" lon="6.10839">
        <ele>812</ele>
        <time>2021-04-17T13:53:09Z</time>
      </trkpt>
      <trkpt lat="46.03655" lon="6.10834">
        <ele>812.2</ele>
        <time>2021-04-17T13:53:10Z</time>
      </trkpt>
      <trkpt lat="46.03658" lon="6.10829">
        <ele>812</ele>
        <time>2021-04-17T13:53:11Z</time>
      </trkpt>
      <trkpt lat="46.03661" lon="6.10824">
        <ele>812</ele>
        <time>2021-04-17T13:53:12Z</time>
      </trkpt>
      <trkpt lat="46.03664" lon="6.10819">
        <ele>812</ele>
        <time>2021-04-17T13:53:13Z</time>
      </trkpt>
      <trkpt lat="46.03667" lon="6.10814">
        <ele>812.2</ele>
        <time>2021-04-17T13:53:14Z</time>
      </trkpt>
      <trkpt lat="46.0367" lon="6.10809">
        <ele>812</ele>
        <time>2021-04-17T13:53:15Z</time>
      </trkpt>
      <trkpt lat="46.03673" lon="6.10803">
        <ele>812</ele>
        <time>2021-04-17T13:53:16Z</time>
      </trkpt>
      <trkpt lat="46.03676" lon="6.10798">
        <ele>812</ele>
        <time>2021-04-17T13:53:17Z</time>
      </trkpt>
      <trkpt lat="46.03679" lon="6.10793">
        <ele>812</ele>
        <time>2021-04-17T13:53:18Z</time>
      </trkpt>
      <trkpt lat="46.03682" lon="6.10788">
        <ele>812</ele>
        <time>2021-04-17T13:53:19Z</time>
      </trkpt>
      <trkpt lat="46.03685" lon="6.10783">
        <ele>812</ele>
        <time>2021-04-17T13:53:20Z</time>
      </trkpt>
      <trkpt lat="46.03689" lon="6.10778">
        <ele>812</ele>
        <time>2021-04-17T13:53:21Z</time>
      </trkpt>
      <trkpt lat="46.03692" lon="6.10773">
        <ele>812</ele>
        <time>2021-04-17T13:53:22Z</time>
      </trkpt>
      <trkpt lat="46.03696" lon="6.10768">
        <ele>812</ele>
        <time>2021-04-17T13:53:23Z</time>
      </trkpt>
      <trkpt lat="46.037" lon="6.10763">
        <ele>811.8</ele>
        <time>2021-04-17T13:53:24Z</time>
      </trkpt>
      <trkpt lat="46.03704" lon="6.10759">
        <ele>812</ele>
        <time>2021-04-17T13:53:25Z</time>
      </trkpt>
      <trkpt lat="46.03708" lon="6.10755">
        <ele>812</ele>
        <time>2021-04-17T13:53:26Z</time>
      </trkpt>
      <trkpt lat="46.03713" lon="6.10751">
        <ele>812.2</ele>
        <time>2021-04-17T13:53:27Z</time>
      </trkpt>
      <trkpt lat="46.03717" lon="6.10747">
        <ele>812.2</ele>
        <time>2021-04-17T13:53:28Z</time>
      </trkpt>
      <trkpt lat="46.03721" lon="6.10743">
        <ele>812.4</ele>
        <time>2021-04-17T13:53:29Z</time>
      </trkpt>
      <trkpt lat="46.03726" lon="6.1074">
        <ele>812.4</ele>
        <time>2021-04-17T13:53:30Z</time>
      </trkpt>
      <trkpt lat="46.0373" lon="6.10736">
        <ele>812.4</ele>
        <time>2021-04-17T13:53:31Z</time>
      </trkpt>
      <trkpt lat="46.03734" lon="6.10733">
        <ele>812.6</ele>
        <time>2021-04-17T13:53:32Z</time>
      </trkpt>
      <trkpt lat="46.03738" lon="6.10729">
        <ele>812.6</ele>
        <time>2021-04-17T13:53:33Z</time>
      </trkpt>
      <trkpt lat="46.03742" lon="6.10725">
        <ele>812.6</ele>
        <time>2021-04-17T13:53:34Z</time>
      </trkpt>
      <trkpt lat="46.03746" lon="6.10721">
        <ele>812.6</ele>
        <time>2021-04-17T13:53:35Z</time>
      </trkpt>
      <trkpt lat="46.0375" lon="6.10718">
        <ele>812.8</ele>
        <time>2021-04-17T13:53:36Z</time>
      </trkpt>
      <trkpt lat="46.03754" lon="6.10715">
        <ele>813</ele>
        <time>2021-04-17T13:53:37Z</time>
      </trkpt>
      <trkpt lat="46.03757" lon="6.10711">
        <ele>813</ele>
        <time>2021-04-17T13:53:38Z</time>
      </trkpt>
      <trkpt lat="46.0376" lon="6.10707">
        <ele>813</ele>
        <time>2021-04-17T13:53:39Z</time>
      </trkpt>
      <trkpt lat="46.03764" lon="6.10703">
        <ele>813.2</ele>
        <time>2021-04-17T13:53:40Z</time>
      </trkpt>
      <trkpt lat="46.03766" lon="6.10699">
        <ele>813.6</ele>
        <time>2021-04-17T13:53:41Z</time>
      </trkpt>
      <trkpt lat="46.03769" lon="6.10695">
        <ele>813.6</ele>
        <time>2021-04-17T13:53:42Z</time>
      </trkpt>
      <trkpt lat="46.03772" lon="6.10691">
        <ele>813.6</ele>
        <time>2021-04-17T13:53:43Z</time>
      </trkpt>
      <trkpt lat="46.03775" lon="6.10687">
        <ele>813.8</ele>
        <time>2021-04-17T13:53:44Z</time>
      </trkpt>
      <trkpt lat="46.03777" lon="6.10683">
        <ele>814</ele>
        <time>2021-04-17T13:53:45Z</time>
      </trkpt>
      <trkpt lat="46.0378" lon="6.10679">
        <ele>814.2</ele>
        <time>2021-04-17T13:53:46Z</time>
      </trkpt>
      <trkpt lat="46.03783" lon="6.10675">
        <ele>814.2</ele>
        <time>2021-04-17T13:53:47Z</time>
      </trkpt>
      <trkpt lat="46.03786" lon="6.10671">
        <ele>814.4</ele>
        <time>2021-04-17T13:53:48Z</time>
      </trkpt>
      <trkpt lat="46.03788" lon="6.10668">
        <ele>814.6</ele>
        <time>2021-04-17T13:53:49Z</time>
      </trkpt>
      <trkpt lat="46.03791" lon="6.10664">
        <ele>814.8</ele>
        <time>2021-04-17T13:53:50Z</time>
      </trkpt>
      <trkpt lat="46.03793" lon="6.1066">
        <ele>815.2</ele>
        <time>2021-04-17T13:53:51Z</time>
      </trkpt>
      <trkpt lat="46.03795" lon="6.10657">
        <ele>815.2</ele>
        <time>2021-04-17T13:53:52Z</time>
      </trkpt>
      <trkpt lat="46.03798" lon="6.10653">
        <ele>815.6</ele>
        <time>2021-04-17T13:53:53Z</time>
      </trkpt>
      <trkpt lat="46.038" lon="6.1065">
        <ele>815.6</ele>
        <time>2021-04-17T13:53:54Z</time>
      </trkpt>
      <trkpt lat="46.03802" lon="6.10647">
        <ele>816</ele>
        <time>2021-04-17T13:53:55Z</time>
      </trkpt>
      <trkpt lat="46.03805" lon="6.10643">
        <ele>816.2</ele>
        <time>2021-04-17T13:53:56Z</time>
      </trkpt>
      <trkpt lat="46.03807" lon="6.1064">
        <ele>816.4</ele>
        <time>2021-04-17T13:53:57Z</time>
      </trkpt>
      <trkpt lat="46.0381" lon="6.10637">
        <ele>816.6</ele>
        <time>2021-04-17T13:53:58Z</time>
      </trkpt>
      <trkpt lat="46.03812" lon="6.10634">
        <ele>817</ele>
        <time>2021-04-17T13:53:59Z</time>
      </trkpt>
      <trkpt lat="46.03814" lon="6.10631">
        <ele>816.8</ele>
        <time>2021-04-17T13:54:00Z</time>
      </trkpt>
      <trkpt lat="46.03817" lon="6.10628">
        <ele>817</ele>
        <time>2021-04-17T13:54:01Z</time>
      </trkpt>
      <trkpt lat="46.03819" lon="6.10625">
        <ele>817.4</ele>
        <time>2021-04-17T13:54:02Z</time>
      </trkpt>
      <trkpt lat="46.03822" lon="6.10622">
        <ele>817.8</ele>
        <time>2021-04-17T13:54:03Z</time>
      </trkpt>
      <trkpt lat="46.03824" lon="6.10619">
        <ele>818.2</ele>
        <time>2021-04-17T13:54:04Z</time>
      </trkpt>
      <trkpt lat="46.03826" lon="6.10616">
        <ele>818.4</ele>
        <time>2021-04-17T13:54:05Z</time>
      </trkpt>
      <trkpt lat="46.03828" lon="6.10612">
        <ele>818.8</ele>
        <time>2021-04-17T13:54:06Z</time>
      </trkpt>
      <trkpt lat="46.0383" lon="6.10608">
        <ele>819</ele>
        <time>2021-04-17T13:54:07Z</time>
      </trkpt>
      <trkpt lat="46.03832" lon="6.10605">
        <ele>819.4</ele>
        <time>2021-04-17T13:54:08Z</time>
      </trkpt>
      <trkpt lat="46.03834" lon="6.10601">
        <ele>819.6</ele>
        <time>2021-04-17T13:54:09Z</time>
      </trkpt>
      <trkpt lat="46.03837" lon="6.10598">
        <ele>819.8</ele>
        <time>2021-04-17T13:54:10Z</time>
      </trkpt>
      <trkpt lat="46.03839" lon="6.10594">
        <ele>820</ele>
        <time>2021-04-17T13:54:11Z</time>
      </trkpt>
      <trkpt lat="46.03842" lon="6.10591">
        <ele>820.2</ele>
        <time>2021-04-17T13:54:12Z</time>
      </trkpt>
      <trkpt lat="46.03844" lon="6.10587">
        <ele>820.6</ele>
        <time>2021-04-17T13:54:13Z</time>
      </trkpt>
      <trkpt lat="46.03847" lon="6.10584">
        <ele>821</ele>
        <time>2021-04-17T13:54:14Z</time>
      </trkpt>
      <trkpt lat="46.03849" lon="6.1058">
        <ele>821.2</ele>
        <time>2021-04-17T13:54:15Z</time>
      </trkpt>
      <trkpt lat="46.03852" lon="6.10576">
        <ele>821.4</ele>
        <time>2021-04-17T13:54:16Z</time>
      </trkpt>
      <trkpt lat="46.03854" lon="6.10573">
        <ele>821.8</ele>
        <time>2021-04-17T13:54:17Z</time>
      </trkpt>
      <trkpt lat="46.03857" lon="6.10569">
        <ele>822</ele>
        <time>2021-04-17T13:54:18Z</time>
      </trkpt>
      <trkpt lat="46.03859" lon="6.10566">
        <ele>822.2</ele>
        <time>2021-04-17T13:54:19Z</time>
      </trkpt>
      <trkpt lat="46.03862" lon="6.10562">
        <ele>822.4</ele>
        <time>2021-04-17T13:54:20Z</time>
      </trkpt>
      <trkpt lat="46.03864" lon="6.10557">
        <ele>822.8</ele>
        <time>2021-04-17T13:54:21Z</time>
      </trkpt>
      <trkpt lat="46.03866" lon="6.10551">
        <ele>822.8</ele>
        <time>2021-04-17T13:54:22Z</time>
      </trkpt>
      <trkpt lat="46.03868" lon="6.10547">
        <ele>822.6</ele>
        <time>2021-04-17T13:54:23Z</time>
      </trkpt>
      <trkpt lat="46.03869" lon="6.10543">
        <ele>823</ele>
        <time>2021-04-17T13:54:24Z</time>
      </trkpt>
      <trkpt lat="46.03871" lon="6.10538">
        <ele>823.2</ele>
        <time>2021-04-17T13:54:25Z</time>
      </trkpt>
      <trkpt lat="46.03872" lon="6.10534">
        <ele>823.6</ele>
        <time>2021-04-17T13:54:26Z</time>
      </trkpt>
      <trkpt lat="46.03873" lon="6.10529">
        <ele>823.4</ele>
        <time>2021-04-17T13:54:27Z</time>
      </trkpt>
      <trkpt lat="46.03875" lon="6.10525">
        <ele>823.4</ele>
        <time>2021-04-17T13:54:28Z</time>
      </trkpt>
      <trkpt lat="46.03876" lon="6.1052">
        <ele>823.6</ele>
        <time>2021-04-17T13:54:29Z</time>
      </trkpt>
      <trkpt lat="46.03877" lon="6.10515">
        <ele>824</ele>
        <time>2021-04-17T13:54:30Z</time>
      </trkpt>
      <trkpt lat="46.03878" lon="6.10511">
        <ele>824.2</ele>
        <time>2021-04-17T13:54:31Z</time>
      </trkpt>
      <trkpt lat="46.03878" lon="6.10506">
        <ele>824.6</ele>
        <time>2021-04-17T13:54:32Z</time>
      </trkpt>
      <trkpt lat="46.03879" lon="6.10502">
        <ele>825.2</ele>
        <time>2021-04-17T13:54:33Z</time>
      </trkpt>
      <trkpt lat="46.0388" lon="6.10497">
        <ele>825.6</ele>
        <time>2021-04-17T13:54:34Z</time>
      </trkpt>
      <trkpt lat="46.03881" lon="6.10492">
        <ele>826</ele>
        <time>2021-04-17T13:54:35Z</time>
      </trkpt>
      <trkpt lat="46.03881" lon="6.10488">
        <ele>826.2</ele>
        <time>2021-04-17T13:54:36Z</time>
      </trkpt>
      <trkpt lat="46.03881" lon="6.10483">
        <ele>826.4</ele>
        <time>2021-04-17T13:54:37Z</time>
      </trkpt>
      <trkpt lat="46.03881" lon="6.10478">
        <ele>826.6</ele>
        <time>2021-04-17T13:54:38Z</time>
      </trkpt>
      <trkpt lat="46.03881" lon="6.10474">
        <ele>826.6</ele>
        <time>2021-04-17T13:54:39Z</time>
      </trkpt>
      <trkpt lat="46.03882" lon="6.10469">
        <ele>826.6</ele>
        <time>2021-04-17T13:54:40Z</time>
      </trkpt>
      <trkpt lat="46.03882" lon="6.10464">
        <ele>826.8</ele>
        <time>2021-04-17T13:54:41Z</time>
      </trkpt>
      <trkpt lat="46.03882" lon="6.1046">
        <ele>827</ele>
        <time>2021-04-17T13:54:42Z</time>
      </trkpt>
      <trkpt lat="46.03882" lon="6.10455">
        <ele>827.2</ele>
        <time>2021-04-17T13:54:43Z</time>
      </trkpt>
      <trkpt lat="46.03882" lon="6.1045">
        <ele>827.6</ele>
        <time>2021-04-17T13:54:44Z</time>
      </trkpt>
      <trkpt lat="46.03882" lon="6.10446">
        <ele>827.8</ele>
        <time>2021-04-17T13:54:45Z</time>
      </trkpt>
      <trkpt lat="46.03883" lon="6.10441">
        <ele>828</ele>
        <time>2021-04-17T13:54:46Z</time>
      </trkpt>
      <trkpt lat="46.03883" lon="6.10437">
        <ele>828.4</ele>
        <time>2021-04-17T13:54:47Z</time>
      </trkpt>
      <trkpt lat="46.03884" lon="6.10433">
        <ele>828.4</ele>
        <time>2021-04-17T13:54:48Z</time>
      </trkpt>
      <trkpt lat="46.03885" lon="6.10429">
        <ele>828.6</ele>
        <time>2021-04-17T13:54:49Z</time>
      </trkpt>
      <trkpt lat="46.03887" lon="6.10425">
        <ele>829</ele>
        <time>2021-04-17T13:54:50Z</time>
      </trkpt>
      <trkpt lat="46.03889" lon="6.10422">
        <ele>829</ele>
        <time>2021-04-17T13:54:51Z</time>
      </trkpt>
      <trkpt lat="46.03892" lon="6.10419">
        <ele>829.2</ele>
        <time>2021-04-17T13:54:52Z</time>
      </trkpt>
      <trkpt lat="46.03895" lon="6.10417">
        <ele>829.4</ele>
        <time>2021-04-17T13:54:53Z</time>
      </trkpt>
      <trkpt lat="46.03898" lon="6.10415">
        <ele>829.4</ele>
        <time>2021-04-17T13:54:54Z</time>
      </trkpt>
      <trkpt lat="46.03901" lon="6.10414">
        <ele>829.6</ele>
        <time>2021-04-17T13:54:55Z</time>
      </trkpt>
      <trkpt lat="46.03904" lon="6.10414">
        <ele>829.6</ele>
        <time>2021-04-17T13:54:56Z</time>
      </trkpt>
      <trkpt lat="46.03907" lon="6.10414">
        <ele>829.8</ele>
        <time>2021-04-17T13:54:57Z</time>
      </trkpt>
      <trkpt lat="46.03911" lon="6.10415">
        <ele>829.8</ele>
        <time>2021-04-17T13:54:58Z</time>
      </trkpt>
      <trkpt lat="46.03914" lon="6.10416">
        <ele>829.8</ele>
        <time>2021-04-17T13:54:59Z</time>
      </trkpt>
      <trkpt lat="46.03917" lon="6.10418">
        <ele>830</ele>
        <time>2021-04-17T13:55:00Z</time>
      </trkpt>
      <trkpt lat="46.03919" lon="6.1042">
        <ele>830</ele>
        <time>2021-04-17T13:55:01Z</time>
      </trkpt>
      <trkpt lat="46.03922" lon="6.10422">
        <ele>830.4</ele>
        <time>2021-04-17T13:55:02Z</time>
      </trkpt>
      <trkpt lat="46.03925" lon="6.10425">
        <ele>830.6</ele>
        <time>2021-04-17T13:55:03Z</time>
      </trkpt>
      <trkpt lat="46.03927" lon="6.10428">
        <ele>831</ele>
        <time>2021-04-17T13:55:04Z</time>
      </trkpt>
      <trkpt lat="46.03929" lon="6.1043">
        <ele>831.2</ele>
        <time>2021-04-17T13:55:05Z</time>
      </trkpt>
      <trkpt lat="46.03932" lon="6.10433">
        <ele>831.6</ele>
        <time>2021-04-17T13:55:06Z</time>
      </trkpt>
      <trkpt lat="46.03934" lon="6.10436">
        <ele>831.8</ele>
        <time>2021-04-17T13:55:07Z</time>
      </trkpt>
      <trkpt lat="46.03936" lon="6.10439">
        <ele>832</ele>
        <time>2021-04-17T13:55:08Z</time>
      </trkpt>
      <trkpt lat="46.03939" lon="6.10442">
        <ele>832</ele>
        <time>2021-04-17T13:55:09Z</time>
      </trkpt>
      <trkpt lat="46.03941" lon="6.10444">
        <ele>832.4</ele>
        <time>2021-04-17T13:55:10Z</time>
      </trkpt>
      <trkpt lat="46.03944" lon="6.10447">
        <ele>832.4</ele>
        <time>2021-04-17T13:55:11Z</time>
      </trkpt>
      <trkpt lat="46.03946" lon="6.1045">
        <ele>832.6</ele>
        <time>2021-04-17T13:55:12Z</time>
      </trkpt>
      <trkpt lat="46.03949" lon="6.10452">
        <ele>833</ele>
        <time>2021-04-17T13:55:13Z</time>
      </trkpt>
      <trkpt lat="46.03951" lon="6.10455">
        <ele>833.2</ele>
        <time>2021-04-17T13:55:14Z</time>
      </trkpt>
      <trkpt lat="46.03954" lon="6.10456">
        <ele>833.6</ele>
        <time>2021-04-17T13:55:15Z</time>
      </trkpt>
      <trkpt lat="46.03957" lon="6.10458">
        <ele>833.8</ele>
        <time>2021-04-17T13:55:16Z</time>
      </trkpt>
      <trkpt lat="46.0396" lon="6.10458">
        <ele>834.2</ele>
        <time>2021-04-17T13:55:17Z</time>
      </trkpt>
      <trkpt lat="46.03963" lon="6.10459">
        <ele>834.4</ele>
        <time>2021-04-17T13:55:18Z</time>
      </trkpt>
      <trkpt lat="46.03966" lon="6.10459">
        <ele>834.6</ele>
        <time>2021-04-17T13:55:19Z</time>
      </trkpt>
      <trkpt lat="46.03969" lon="6.10458">
        <ele>834.6</ele>
        <time>2021-04-17T13:55:20Z</time>
      </trkpt>
      <trkpt lat="46.03972" lon="6.10457">
        <ele>835.2</ele>
        <time>2021-04-17T13:55:21Z</time>
      </trkpt>
      <trkpt lat="46.03975" lon="6.10455">
        <ele>835.4</ele>
        <time>2021-04-17T13:55:22Z</time>
      </trkpt>
      <trkpt lat="46.03977" lon="6.10453">
        <ele>835.6</ele>
        <time>2021-04-17T13:55:23Z</time>
      </trkpt>
      <trkpt lat="46.0398" lon="6.10451">
        <ele>835.6</ele>
        <time>2021-04-17T13:55:24Z</time>
      </trkpt>
      <trkpt lat="46.03983" lon="6.10449">
        <ele>836</ele>
        <time>2021-04-17T13:55:25Z</time>
      </trkpt>
      <trkpt lat="46.03985" lon="6.10447">
        <ele>836</ele>
        <time>2021-04-17T13:55:26Z</time>
      </trkpt>
      <trkpt lat="46.03988" lon="6.10445">
        <ele>836</ele>
        <time>2021-04-17T13:55:27Z</time>
      </trkpt>
      <trkpt lat="46.03991" lon="6.10443">
        <ele>836.2</ele>
        <time>2021-04-17T13:55:28Z</time>
      </trkpt>
      <trkpt lat="46.03993" lon="6.10441">
        <ele>836.2</ele>
        <time>2021-04-17T13:55:29Z</time>
      </trkpt>
      <trkpt lat="46.03996" lon="6.10439">
        <ele>836.6</ele>
        <time>2021-04-17T13:55:30Z</time>
      </trkpt>
      <trkpt lat="46.03999" lon="6.10437">
        <ele>837</ele>
        <time>2021-04-17T13:55:31Z</time>
      </trkpt>
      <trkpt lat="46.04001" lon="6.10435">
        <ele>837.4</ele>
        <time>2021-04-17T13:55:32Z</time>
      </trkpt>
      <trkpt lat="46.04004" lon="6.10432">
        <ele>837.6</ele>
        <time>2021-04-17T13:55:33Z</time>
      </trkpt>
      <trkpt lat="46.04006" lon="6.1043">
        <ele>838</ele>
        <time>2021-04-17T13:55:34Z</time>
      </trkpt>
      <trkpt lat="46.04009" lon="6.10428">
        <ele>838.4</ele>
        <time>2021-04-17T13:55:35Z</time>
      </trkpt>
      <trkpt lat="46.04011" lon="6.10426">
        <ele>838.4</ele>
        <time>2021-04-17T13:55:36Z</time>
      </trkpt>
      <trkpt lat="46.04013" lon="6.10424">
        <ele>838.8</ele>
        <time>2021-04-17T13:55:37Z</time>
      </trkpt>
      <trkpt lat="46.04016" lon="6.10422">
        <ele>838.8</ele>
        <time>2021-04-17T13:55:38Z</time>
      </trkpt>
      <trkpt lat="46.04018" lon="6.10419">
        <ele>839</ele>
        <time>2021-04-17T13:55:39Z</time>
      </trkpt>
      <trkpt lat="46.04021" lon="6.10417">
        <ele>839</ele>
        <time>2021-04-17T13:55:40Z</time>
      </trkpt>
      <trkpt lat="46.04024" lon="6.10415">
        <ele>839.2</ele>
        <time>2021-04-17T13:55:41Z</time>
      </trkpt>
      <trkpt lat="46.04026" lon="6.10414">
        <ele>839.4</ele>
        <time>2021-04-17T13:55:42Z</time>
      </trkpt>
      <trkpt lat="46.04029" lon="6.10412">
        <ele>839.4</ele>
        <time>2021-04-17T13:55:43Z</time>
      </trkpt>
      <trkpt lat="46.04031" lon="6.1041">
        <ele>839.4</ele>
        <time>2021-04-17T13:55:44Z</time>
      </trkpt>
      <trkpt lat="46.04034" lon="6.10408">
        <ele>839.8</ele>
        <time>2021-04-17T13:55:45Z</time>
      </trkpt>
      <trkpt lat="46.04036" lon="6.10406">
        <ele>840</ele>
        <time>2021-04-17T13:55:46Z</time>
      </trkpt>
      <trkpt lat="46.04039" lon="6.10404">
        <ele>840.4</ele>
        <time>2021-04-17T13:55:47Z</time>
      </trkpt>
      <trkpt lat="46.04042" lon="6.10403">
        <ele>840.4</ele>
        <time>2021-04-17T13:55:48Z</time>
      </trkpt>
      <trkpt lat="46.04045" lon="6.10402">
        <ele>840.4</ele>
        <time>2021-04-17T13:55:49Z</time>
      </trkpt>
      <trkpt lat="46.04048" lon="6.10401">
        <ele>840.6</ele>
        <time>2021-04-17T13:55:50Z</time>
      </trkpt>
      <trkpt lat="46.04051" lon="6.104">
        <ele>840.6</ele>
        <time>2021-04-17T13:55:51Z</time>
      </trkpt>
      <trkpt lat="46.04053" lon="6.10399">
        <ele>840.8</ele>
        <time>2021-04-17T13:55:52Z</time>
      </trkpt>
      <trkpt lat="46.04056" lon="6.10399">
        <ele>840.8</ele>
        <time>2021-04-17T13:55:53Z</time>
      </trkpt>
      <trkpt lat="46.04059" lon="6.10399">
        <ele>840.8</ele>
        <time>2021-04-17T13:55:54Z</time>
      </trkpt>
      <trkpt lat="46.04062" lon="6.10399">
        <ele>841</ele>
        <time>2021-04-17T13:55:55Z</time>
      </trkpt>
      <trkpt lat="46.04065" lon="6.10399">
        <ele>841.4</ele>
        <time>2021-04-17T13:55:56Z</time>
      </trkpt>
      <trkpt lat="46.04067" lon="6.10399">
        <ele>841.6</ele>
        <time>2021-04-17T13:55:57Z</time>
      </trkpt>
      <trkpt lat="46.0407" lon="6.104">
        <ele>841.6</ele>
        <time>2021-04-17T13:55:58Z</time>
      </trkpt>
      <trkpt lat="46.04072" lon="6.104">
        <ele>841.6</ele>
        <time>2021-04-17T13:55:59Z</time>
      </trkpt>
      <trkpt lat="46.04075" lon="6.104">
        <ele>841.8</ele>
        <time>2021-04-17T13:56:00Z</time>
      </trkpt>
      <trkpt lat="46.04078" lon="6.104">
        <ele>842</ele>
        <time>2021-04-17T13:56:01Z</time>
      </trkpt>
      <trkpt lat="46.0408" lon="6.10401">
        <ele>842.2</ele>
        <time>2021-04-17T13:56:02Z</time>
      </trkpt>
      <trkpt lat="46.04083" lon="6.10401">
        <ele>842.2</ele>
        <time>2021-04-17T13:56:03Z</time>
      </trkpt>
      <trkpt lat="46.04086" lon="6.10402">
        <ele>842.8</ele>
        <time>2021-04-17T13:56:04Z</time>
      </trkpt>
      <trkpt lat="46.04089" lon="6.10402">
        <ele>842.8</ele>
        <time>2021-04-17T13:56:05Z</time>
      </trkpt>
      <trkpt lat="46.04092" lon="6.10402">
        <ele>843.2</ele>
        <time>2021-04-17T13:56:06Z</time>
      </trkpt>
      <trkpt lat="46.04094" lon="6.10403">
        <ele>843.4</ele>
        <time>2021-04-17T13:56:07Z</time>
      </trkpt>
      <trkpt lat="46.04097" lon="6.10403">
        <ele>843.6</ele>
        <time>2021-04-17T13:56:08Z</time>
      </trkpt>
      <trkpt lat="46.041" lon="6.10404">
        <ele>843.6</ele>
        <time>2021-04-17T13:56:09Z</time>
      </trkpt>
      <trkpt lat="46.04103" lon="6.10404">
        <ele>843.8</ele>
        <time>2021-04-17T13:56:10Z</time>
      </trkpt>
      <trkpt lat="46.04106" lon="6.10404">
        <ele>844</ele>
        <time>2021-04-17T13:56:11Z</time>
      </trkpt>
      <trkpt lat="46.04109" lon="6.10405">
        <ele>844</ele>
        <time>2021-04-17T13:56:12Z</time>
      </trkpt>
      <trkpt lat="46.04112" lon="6.10405">
        <ele>844.2</ele>
        <time>2021-04-17T13:56:13Z</time>
      </trkpt>
      <trkpt lat="46.04115" lon="6.10405">
        <ele>844</ele>
        <time>2021-04-17T13:56:14Z</time>
      </trkpt>
      <trkpt lat="46.04118" lon="6.10406">
        <ele>844.6</ele>
        <time>2021-04-17T13:56:15Z</time>
      </trkpt>
      <trkpt lat="46.04121" lon="6.10406">
        <ele>844.8</ele>
        <time>2021-04-17T13:56:16Z</time>
      </trkpt>
      <trkpt lat="46.04124" lon="6.10407">
        <ele>844.8</ele>
        <time>2021-04-17T13:56:17Z</time>
      </trkpt>
      <trkpt lat="46.04127" lon="6.10407">
        <ele>845.2</ele>
        <time>2021-04-17T13:56:18Z</time>
      </trkpt>
      <trkpt lat="46.0413" lon="6.10408">
        <ele>845.4</ele>
        <time>2021-04-17T13:56:19Z</time>
      </trkpt>
      <trkpt lat="46.04133" lon="6.10408">
        <ele>845.8</ele>
        <time>2021-04-17T13:56:20Z</time>
      </trkpt>
      <trkpt lat="46.04137" lon="6.10409">
        <ele>846.2</ele>
        <time>2021-04-17T13:56:21Z</time>
      </trkpt>
      <trkpt lat="46.0414" lon="6.10409">
        <ele>846.6</ele>
        <time>2021-04-17T13:56:22Z</time>
      </trkpt>
      <trkpt lat="46.04143" lon="6.1041">
        <ele>846.8</ele>
        <time>2021-04-17T13:56:23Z</time>
      </trkpt>
      <trkpt lat="46.04146" lon="6.1041">
        <ele>846.8</ele>
        <time>2021-04-17T13:56:24Z</time>
      </trkpt>
      <trkpt lat="46.04149" lon="6.10411">
        <ele>847</ele>
        <time>2021-04-17T13:56:25Z</time>
      </trkpt>
      <trkpt lat="46.04152" lon="6.10411">
        <ele>847.2</ele>
        <time>2021-04-17T13:56:26Z</time>
      </trkpt>
      <trkpt lat="46.04155" lon="6.10412">
        <ele>847.2</ele>
        <time>2021-04-17T13:56:27Z</time>
      </trkpt>
      <trkpt lat="46.04158" lon="6.10412">
        <ele>847.4</ele>
        <time>2021-04-17T13:56:28Z</time>
      </trkpt>
      <trkpt lat="46.04161" lon="6.10413">
        <ele>847.6</ele>
        <time>2021-04-17T13:56:29Z</time>
      </trkpt>
      <trkpt lat="46.04164" lon="6.10413">
        <ele>847.8</ele>
        <time>2021-04-17T13:56:30Z</time>
      </trkpt>
      <trkpt lat="46.04167" lon="6.10414">
        <ele>847.8</ele>
        <time>2021-04-17T13:56:31Z</time>
      </trkpt>
      <trkpt lat="46.0417" lon="6.10414">
        <ele>847.8</ele>
        <time>2021-04-17T13:56:32Z</time>
      </trkpt>
      <trkpt lat="46.04173" lon="6.10415">
        <ele>848</ele>
        <time>2021-04-17T13:56:33Z</time>
      </trkpt>
      <trkpt lat="46.04176" lon="6.10415">
        <ele>848.2</ele>
        <time>2021-04-17T13:56:34Z</time>
      </trkpt>
      <trkpt lat="46.04179" lon="6.10416">
        <ele>848.4</ele>
        <time>2021-04-17T13:56:35Z</time>
      </trkpt>
      <trkpt lat="46.04182" lon="6.10417">
        <ele>848.6</ele>
        <time>2021-04-17T13:56:36Z</time>
      </trkpt>
      <trkpt lat="46.04184" lon="6.10418">
        <ele>848.8</ele>
        <time>2021-04-17T13:56:37Z</time>
      </trkpt>
      <trkpt lat="46.04187" lon="6.10419">
        <ele>848.8</ele>
        <time>2021-04-17T13:56:38Z</time>
      </trkpt>
      <trkpt lat="46.0419" lon="6.1042">
        <ele>849.4</ele>
        <time>2021-04-17T13:56:39Z</time>
      </trkpt>
      <trkpt lat="46.04193" lon="6.1042">
        <ele>849.4</ele>
        <time>2021-04-17T13:56:40Z</time>
      </trkpt>
      <trkpt lat="46.04196" lon="6.10421">
        <ele>849.4</ele>
        <time>2021-04-17T13:56:41Z</time>
      </trkpt>
      <trkpt lat="46.04199" lon="6.10422">
        <ele>849.8</ele>
        <time>2021-04-17T13:56:42Z</time>
      </trkpt>
      <trkpt lat="46.04202" lon="6.10424">
        <ele>850.4</ele>
        <time>2021-04-17T13:56:43Z</time>
      </trkpt>
      <trkpt lat="46.04205" lon="6.10425">
        <ele>851</ele>
        <time>2021-04-17T13:56:44Z</time>
      </trkpt>
      <trkpt lat="46.04208" lon="6.10426">
        <ele>851.4</ele>
        <time>2021-04-17T13:56:45Z</time>
      </trkpt>
      <trkpt lat="46.04211" lon="6.10427">
        <ele>851.8</ele>
        <time>2021-04-17T13:56:46Z</time>
      </trkpt>
      <trkpt lat="46.04214" lon="6.10428">
        <ele>852</ele>
        <time>2021-04-17T13:56:47Z</time>
      </trkpt>
      <trkpt lat="46.04217" lon="6.10429">
        <ele>852.4</ele>
        <time>2021-04-17T13:56:48Z</time>
      </trkpt>
      <trkpt lat="46.0422" lon="6.1043">
        <ele>852.6</ele>
        <time>2021-04-17T13:56:49Z</time>
      </trkpt>
      <trkpt lat="46.04222" lon="6.10431">
        <ele>853</ele>
        <time>2021-04-17T13:56:50Z</time>
      </trkpt>
      <trkpt lat="46.04225" lon="6.10432">
        <ele>853.2</ele>
        <time>2021-04-17T13:56:51Z</time>
      </trkpt>
      <trkpt lat="46.04228" lon="6.10432">
        <ele>853.6</ele>
        <time>2021-04-17T13:56:52Z</time>
      </trkpt>
      <trkpt lat="46.04231" lon="6.10433">
        <ele>853.6</ele>
        <time>2021-04-17T13:56:53Z</time>
      </trkpt>
      <trkpt lat="46.04234" lon="6.10433">
        <ele>854</ele>
        <time>2021-04-17T13:56:54Z</time>
      </trkpt>
      <trkpt lat="46.04236" lon="6.10434">
        <ele>854.2</ele>
        <time>2021-04-17T13:56:55Z</time>
      </trkpt>
      <trkpt lat="46.04239" lon="6.10434">
        <ele>854.4</ele>
        <time>2021-04-17T13:56:56Z</time>
      </trkpt>
      <trkpt lat="46.04242" lon="6.10434">
        <ele>854.6</ele>
        <time>2021-04-17T13:56:57Z</time>
      </trkpt>
      <trkpt lat="46.04244" lon="6.10434">
        <ele>854.6</ele>
        <time>2021-04-17T13:56:58Z</time>
      </trkpt>
      <trkpt lat="46.04247" lon="6.10433">
        <ele>854.6</ele>
        <time>2021-04-17T13:56:59Z</time>
      </trkpt>
      <trkpt lat="46.04249" lon="6.10432">
        <ele>854.8</ele>
        <time>2021-04-17T13:57:00Z</time>
      </trkpt>
      <trkpt lat="46.04252" lon="6.10431">
        <ele>854.8</ele>
        <time>2021-04-17T13:57:01Z</time>
      </trkpt>
      <trkpt lat="46.04254" lon="6.10429">
        <ele>854.8</ele>
        <time>2021-04-17T13:57:02Z</time>
      </trkpt>
      <trkpt lat="46.04256" lon="6.10427">
        <ele>855</ele>
        <time>2021-04-17T13:57:03Z</time>
      </trkpt>
      <trkpt lat="46.04259" lon="6.10425">
        <ele>855.2</ele>
        <time>2021-04-17T13:57:04Z</time>
      </trkpt>
      <trkpt lat="46.04261" lon="6.10423">
        <ele>855.2</ele>
        <time>2021-04-17T13:57:05Z</time>
      </trkpt>
      <trkpt lat="46.04264" lon="6.10421">
        <ele>855.4</ele>
        <time>2021-04-17T13:57:06Z</time>
      </trkpt>
      <trkpt lat="46.04267" lon="6.1042">
        <ele>855.4</ele>
        <time>2021-04-17T13:57:07Z</time>
      </trkpt>
      <trkpt lat="46.0427" lon="6.10418">
        <ele>855.8</ele>
        <time>2021-04-17T13:57:08Z</time>
      </trkpt>
      <trkpt lat="46.04273" lon="6.10417">
        <ele>856</ele>
        <time>2021-04-17T13:57:09Z</time>
      </trkpt>
      <trkpt lat="46.04276" lon="6.10416">
        <ele>856.2</ele>
        <time>2021-04-17T13:57:10Z</time>
      </trkpt>
      <trkpt lat="46.04279" lon="6.10415">
        <ele>856.4</ele>
        <time>2021-04-17T13:57:11Z</time>
      </trkpt>
      <trkpt lat="46.04282" lon="6.10415">
        <ele>856.4</ele>
        <time>2021-04-17T13:57:12Z</time>
      </trkpt>
      <trkpt lat="46.04285" lon="6.10416">
        <ele>856.6</ele>
        <time>2021-04-17T13:57:13Z</time>
      </trkpt>
      <trkpt lat="46.04288" lon="6.10417">
        <ele>856.8</ele>
        <time>2021-04-17T13:57:14Z</time>
      </trkpt>
      <trkpt lat="46.04291" lon="6.1042">
        <ele>856.8</ele>
        <time>2021-04-17T13:57:15Z</time>
      </trkpt>
      <trkpt lat="46.04294" lon="6.10423">
        <ele>856.8</ele>
        <time>2021-04-17T13:57:16Z</time>
      </trkpt>
      <trkpt lat="46.04297" lon="6.10426">
        <ele>857</ele>
        <time>2021-04-17T13:57:17Z</time>
      </trkpt>
      <trkpt lat="46.04299" lon="6.1043">
        <ele>857.2</ele>
        <time>2021-04-17T13:57:18Z</time>
      </trkpt>
      <trkpt lat="46.04301" lon="6.10434">
        <ele>857.4</ele>
        <time>2021-04-17T13:57:19Z</time>
      </trkpt>
      <trkpt lat="46.04302" lon="6.10439">
        <ele>857.6</ele>
        <time>2021-04-17T13:57:20Z</time>
      </trkpt>
      <trkpt lat="46.04303" lon="6.10443">
        <ele>858.2</ele>
        <time>2021-04-17T13:57:21Z</time>
      </trkpt>
      <trkpt lat="46.04303" lon="6.10448">
        <ele>858.4</ele>
        <time>2021-04-17T13:57:22Z</time>
      </trkpt>
      <trkpt lat="46.04303" lon="6.10452">
        <ele>858.6</ele>
        <time>2021-04-17T13:57:23Z</time>
      </trkpt>
      <trkpt lat="46.04302" lon="6.10456">
        <ele>859</ele>
        <time>2021-04-17T13:57:24Z</time>
      </trkpt>
      <trkpt lat="46.04301" lon="6.1046">
        <ele>859.2</ele>
        <time>2021-04-17T13:57:25Z</time>
      </trkpt>
      <trkpt lat="46.04299" lon="6.10464">
        <ele>859.6</ele>
        <time>2021-04-17T13:57:26Z</time>
      </trkpt>
      <trkpt lat="46.04297" lon="6.10467">
        <ele>859.6</ele>
        <time>2021-04-17T13:57:27Z</time>
      </trkpt>
      <trkpt lat="46.04295" lon="6.1047">
        <ele>859.6</ele>
        <time>2021-04-17T13:57:28Z</time>
      </trkpt>
      <trkpt lat="46.04292" lon="6.10472">
        <ele>859.8</ele>
        <time>2021-04-17T13:57:29Z</time>
      </trkpt>
      <trkpt lat="46.04289" lon="6.10474">
        <ele>860</ele>
        <time>2021-04-17T13:57:30Z</time>
      </trkpt>
      <trkpt lat="46.04286" lon="6.10475">
        <ele>860.2</ele>
        <time>2021-04-17T13:57:31Z</time>
      </trkpt>
      <trkpt lat="46.04283" lon="6.10476">
        <ele>860.6</ele>
        <time>2021-04-17T13:57:32Z</time>
      </trkpt>
      <trkpt lat="46.0428" lon="6.10476">
        <ele>860.6</ele>
        <time>2021-04-17T13:57:33Z</time>
      </trkpt>
      <trkpt lat="46.04277" lon="6.10476">
        <ele>860.8</ele>
        <time>2021-04-17T13:57:34Z</time>
      </trkpt>
      <trkpt lat="46.04273" lon="6.10476">
        <ele>861</ele>
        <time>2021-04-17T13:57:35Z</time>
      </trkpt>
      <trkpt lat="46.0427" lon="6.10476">
        <ele>861</ele>
        <time>2021-04-17T13:57:36Z</time>
      </trkpt>
      <trkpt lat="46.04267" lon="6.10477">
        <ele>861.2</ele>
        <time>2021-04-17T13:57:37Z</time>
      </trkpt>
      <trkpt lat="46.04264" lon="6.10476">
        <ele>861.6</ele>
        <time>2021-04-17T13:57:38Z</time>
      </trkpt>
      <trkpt lat="46.04261" lon="6.10476">
        <ele>861.8</ele>
        <time>2021-04-17T13:57:39Z</time>
      </trkpt>
      <trkpt lat="46.04258" lon="6.10476">
        <ele>862</ele>
        <time>2021-04-17T13:57:40Z</time>
      </trkpt>
      <trkpt lat="46.04256" lon="6.10476">
        <ele>862.2</ele>
        <time>2021-04-17T13:57:41Z</time>
      </trkpt>
      <trkpt lat="46.04253" lon="6.10476">
        <ele>862.6</ele>
        <time>2021-04-17T13:57:42Z</time>
      </trkpt>
      <trkpt lat="46.0425" lon="6.10476">
        <ele>863</ele>
        <time>2021-04-17T13:57:43Z</time>
      </trkpt>
      <trkpt lat="46.04247" lon="6.10477">
        <ele>863.2</ele>
        <time>2021-04-17T13:57:44Z</time>
      </trkpt>
      <trkpt lat="46.04244" lon="6.10477">
        <ele>863.6</ele>
        <time>2021-04-17T13:57:45Z</time>
      </trkpt>
      <trkpt lat="46.04241" lon="6.10478">
        <ele>863.8</ele>
        <time>2021-04-17T13:57:46Z</time>
      </trkpt>
      <trkpt lat="46.04238" lon="6.10479">
        <ele>864.2</ele>
        <time>2021-04-17T13:57:47Z</time>
      </trkpt>
      <trkpt lat="46.04235" lon="6.10481">
        <ele>864.4</ele>
        <time>2021-04-17T13:57:48Z</time>
      </trkpt>
      <trkpt lat="46.04232" lon="6.10482">
        <ele>864.6</ele>
        <time>2021-04-17T13:57:49Z</time>
      </trkpt>
      <trkpt lat="46.0423" lon="6.10483">
        <ele>864.8</ele>
        <time>2021-04-17T13:57:50Z</time>
      </trkpt>
      <trkpt lat="46.04227" lon="6.10484">
        <ele>865</ele>
        <time>2021-04-17T13:57:51Z</time>
      </trkpt>
      <trkpt lat="46.04225" lon="6.10485">
        <ele>865.2</ele>
        <time>2021-04-17T13:57:52Z</time>
      </trkpt>
      <trkpt lat="46.04222" lon="6.10487">
        <ele>865.4</ele>
        <time>2021-04-17T13:57:53Z</time>
      </trkpt>
      <trkpt lat="46.0422" lon="6.10489">
        <ele>865.6</ele>
        <time>2021-04-17T13:57:54Z</time>
      </trkpt>
      <trkpt lat="46.04217" lon="6.10492">
        <ele>865.6</ele>
        <time>2021-04-17T13:57:55Z</time>
      </trkpt>
      <trkpt lat="46.04214" lon="6.10494">
        <ele>865.8</ele>
        <time>2021-04-17T13:57:56Z</time>
      </trkpt>
      <trkpt lat="46.04211" lon="6.10497">
        <ele>866</ele>
        <time>2021-04-17T13:57:57Z</time>
      </trkpt>
      <trkpt lat="46.04209" lon="6.105">
        <ele>866</ele>
        <time>2021-04-17T13:57:58Z</time>
      </trkpt>
      <trkpt lat="46.04206" lon="6.10503">
        <ele>866.2</ele>
        <time>2021-04-17T13:57:59Z</time>
      </trkpt>
      <trkpt lat="46.04203" lon="6.10506">
        <ele>866.4</ele>
        <time>2021-04-17T13:58:00Z</time>
      </trkpt>
      <trkpt lat="46.04201" lon="6.10509">
        <ele>866.6</ele>
        <time>2021-04-17T13:58:01Z</time>
      </trkpt>
      <trkpt lat="46.04198" lon="6.10512">
        <ele>866.8</ele>
        <time>2021-04-17T13:58:02Z</time>
      </trkpt>
      <trkpt lat="46.04196" lon="6.10516">
        <ele>866.8</ele>
        <time>2021-04-17T13:58:03Z</time>
      </trkpt>
      <trkpt lat="46.04193" lon="6.10519">
        <ele>867</ele>
        <time>2021-04-17T13:58:04Z</time>
      </trkpt>
      <trkpt lat="46.0419" lon="6.10521">
        <ele>867</ele>
        <time>2021-04-17T13:58:05Z</time>
      </trkpt>
      <trkpt lat="46.04188" lon="6.10524">
        <ele>867</ele>
        <time>2021-04-17T13:58:06Z</time>
      </trkpt>
      <trkpt lat="46.04185" lon="6.10526">
        <ele>867.2</ele>
        <time>2021-04-17T13:58:07Z</time>
      </trkpt>
      <trkpt lat="46.04183" lon="6.10529">
        <ele>867.4</ele>
        <time>2021-04-17T13:58:08Z</time>
      </trkpt>
      <trkpt lat="46.0418" lon="6.10531">
        <ele>867.4</ele>
        <time>2021-04-17T13:58:09Z</time>
      </trkpt>
      <trkpt lat="46.04177" lon="6.10533">
        <ele>867.6</ele>
        <time>2021-04-17T13:58:10Z</time>
      </trkpt>
      <trkpt lat="46.04175" lon="6.10535">
        <ele>867.6</ele>
        <time>2021-04-17T13:58:11Z</time>
      </trkpt>
      <trkpt lat="46.04172" lon="6.10536">
        <ele>867.8</ele>
        <time>2021-04-17T13:58:12Z</time>
      </trkpt>
      <trkpt lat="46.04169" lon="6.10538">
        <ele>867.8</ele>
        <time>2021-04-17T13:58:13Z</time>
      </trkpt>
      <trkpt lat="46.04167" lon="6.1054">
        <ele>868</ele>
        <time>2021-04-17T13:58:14Z</time>
      </trkpt>
      <trkpt lat="46.04164" lon="6.10541">
        <ele>868</ele>
        <time>2021-04-17T13:58:15Z</time>
      </trkpt>
      <trkpt lat="46.04161" lon="6.10543">
        <ele>868.2</ele>
        <time>2021-04-17T13:58:16Z</time>
      </trkpt>
      <trkpt lat="46.04159" lon="6.10544">
        <ele>868.4</ele>
        <time>2021-04-17T13:58:17Z</time>
      </trkpt>
      <trkpt lat="46.04156" lon="6.10545">
        <ele>868.6</ele>
        <time>2021-04-17T13:58:18Z</time>
      </trkpt>
      <trkpt lat="46.04153" lon="6.10546">
        <ele>869.2</ele>
        <time>2021-04-17T13:58:19Z</time>
      </trkpt>
      <trkpt lat="46.04151" lon="6.10548">
        <ele>869.6</ele>
        <time>2021-04-17T13:58:20Z</time>
      </trkpt>
      <trkpt lat="46.04149" lon="6.1055">
        <ele>870</ele>
        <time>2021-04-17T13:58:21Z</time>
      </trkpt>
      <trkpt lat="46.04146" lon="6.10552">
        <ele>870.2</ele>
        <time>2021-04-17T13:58:22Z</time>
      </trkpt>
      <trkpt lat="46.04144" lon="6.10555">
        <ele>870.4</ele>
        <time>2021-04-17T13:58:23Z</time>
      </trkpt>
      <trkpt lat="46.04141" lon="6.10558">
        <ele>870.6</ele>
        <time>2021-04-17T13:58:24Z</time>
      </trkpt>
      <trkpt lat="46.04139" lon="6.10562">
        <ele>871</ele>
        <time>2021-04-17T13:58:25Z</time>
      </trkpt>
      <trkpt lat="46.04137" lon="6.10566">
        <ele>871.4</ele>
        <time>2021-04-17T13:58:26Z</time>
      </trkpt>
      <trkpt lat="46.04136" lon="6.1057">
        <ele>871.6</ele>
        <time>2021-04-17T13:58:27Z</time>
      </trkpt>
      <trkpt lat="46.04135" lon="6.10575">
        <ele>871.8</ele>
        <time>2021-04-17T13:58:28Z</time>
      </trkpt>
      <trkpt lat="46.04134" lon="6.1058">
        <ele>872</ele>
        <time>2021-04-17T13:58:29Z</time>
      </trkpt>
      <trkpt lat="46.04133" lon="6.10584">
        <ele>872</ele>
        <time>2021-04-17T13:58:30Z</time>
      </trkpt>
      <trkpt lat="46.04133" lon="6.10589">
        <ele>872.2</ele>
        <time>2021-04-17T13:58:31Z</time>
      </trkpt>
      <trkpt lat="46.04133" lon="6.10594">
        <ele>872.4</ele>
        <time>2021-04-17T13:58:32Z</time>
      </trkpt>
      <trkpt lat="46.04134" lon="6.10598">
        <ele>872.6</ele>
        <time>2021-04-17T13:58:33Z</time>
      </trkpt>
      <trkpt lat="46.04135" lon="6.10603">
        <ele>872.6</ele>
        <time>2021-04-17T13:58:34Z</time>
      </trkpt>
      <trkpt lat="46.04136" lon="6.10607">
        <ele>872.8</ele>
        <time>2021-04-17T13:58:35Z</time>
      </trkpt>
      <trkpt lat="46.04138" lon="6.10611">
        <ele>872.8</ele>
        <time>2021-04-17T13:58:36Z</time>
      </trkpt>
      <trkpt lat="46.0414" lon="6.10615">
        <ele>873</ele>
        <time>2021-04-17T13:58:37Z</time>
      </trkpt>
      <trkpt lat="46.04142" lon="6.10619">
        <ele>873</ele>
        <time>2021-04-17T13:58:38Z</time>
      </trkpt>
      <trkpt lat="46.04144" lon="6.10624">
        <ele>873.2</ele>
        <time>2021-04-17T13:58:39Z</time>
      </trkpt>
      <trkpt lat="46.04146" lon="6.10628">
        <ele>873.2</ele>
        <time>2021-04-17T13:58:40Z</time>
      </trkpt>
      <trkpt lat="46.04148" lon="6.10631">
        <ele>873.4</ele>
        <time>2021-04-17T13:58:41Z</time>
      </trkpt>
      <trkpt lat="46.04151" lon="6.10635">
        <ele>873.6</ele>
        <time>2021-04-17T13:58:42Z</time>
      </trkpt>
      <trkpt lat="46.04153" lon="6.10639">
        <ele>873.8</ele>
        <time>2021-04-17T13:58:43Z</time>
      </trkpt>
      <trkpt lat="46.04155" lon="6.10642">
        <ele>874</ele>
        <time>2021-04-17T13:58:44Z</time>
      </trkpt>
      <trkpt lat="46.04157" lon="6.10645">
        <ele>874.2</ele>
        <time>2021-04-17T13:58:45Z</time>
      </trkpt>
      <trkpt lat="46.04159" lon="6.10649">
        <ele>874.6</ele>
        <time>2021-04-17T13:58:46Z</time>
      </trkpt>
      <trkpt lat="46.04161" lon="6.10653">
        <ele>874.8</ele>
        <time>2021-04-17T13:58:47Z</time>
      </trkpt>
      <trkpt lat="46.04163" lon="6.10656">
        <ele>875</ele>
        <time>2021-04-17T13:58:48Z</time>
      </trkpt>
      <trkpt lat="46.04165" lon="6.1066">
        <ele>875.2</ele>
        <time>2021-04-17T13:58:49Z</time>
      </trkpt>
      <trkpt lat="46.04167" lon="6.10663">
        <ele>875.2</ele>
        <time>2021-04-17T13:58:50Z</time>
      </trkpt>
      <trkpt lat="46.04169" lon="6.10667">
        <ele>875.4</ele>
        <time>2021-04-17T13:58:51Z</time>
      </trkpt>
      <trkpt lat="46.04171" lon="6.1067">
        <ele>875.6</ele>
        <time>2021-04-17T13:58:52Z</time>
      </trkpt>
      <trkpt lat="46.04173" lon="6.10674">
        <ele>875.6</ele>
        <time>2021-04-17T13:58:53Z</time>
      </trkpt>
      <trkpt lat="46.04174" lon="6.10677">
        <ele>875.8</ele>
        <time>2021-04-17T13:58:54Z</time>
      </trkpt>
      <trkpt lat="46.04176" lon="6.1068">
        <ele>875.8</ele>
        <time>2021-04-17T13:58:55Z</time>
      </trkpt>
      <trkpt lat="46.04178" lon="6.10683">
        <ele>876</ele>
        <time>2021-04-17T13:58:56Z</time>
      </trkpt>
      <trkpt lat="46.04179" lon="6.10686">
        <ele>876.2</ele>
        <time>2021-04-17T13:58:57Z</time>
      </trkpt>
      <trkpt lat="46.04181" lon="6.10689">
        <ele>876.6</ele>
        <time>2021-04-17T13:58:58Z</time>
      </trkpt>
      <trkpt lat="46.04183" lon="6.10692">
        <ele>877</ele>
        <time>2021-04-17T13:58:59Z</time>
      </trkpt>
      <trkpt lat="46.04184" lon="6.10695">
        <ele>877.2</ele>
        <time>2021-04-17T13:59:00Z</time>
      </trkpt>
      <trkpt lat="46.04185" lon="6.10699">
        <ele>877.4</ele>
        <time>2021-04-17T13:59:01Z</time>
      </trkpt>
      <trkpt lat="46.04186" lon="6.10702">
        <ele>877.8</ele>
        <time>2021-04-17T13:59:02Z</time>
      </trkpt>
      <trkpt lat="46.04188" lon="6.10706">
        <ele>877.6</ele>
        <time>2021-04-17T13:59:03Z</time>
      </trkpt>
      <trkpt lat="46.04188" lon="6.10709">
        <ele>878</ele>
        <time>2021-04-17T13:59:04Z</time>
      </trkpt>
      <trkpt lat="46.04189" lon="6.10713">
        <ele>878</ele>
        <time>2021-04-17T13:59:05Z</time>
      </trkpt>
      <trkpt lat="46.04189" lon="6.10717">
        <ele>878.4</ele>
        <time>2021-04-17T13:59:06Z</time>
      </trkpt>
      <trkpt lat="46.0419" lon="6.1072">
        <ele>878.4</ele>
        <time>2021-04-17T13:59:07Z</time>
      </trkpt>
      <trkpt lat="46.0419" lon="6.10724">
        <ele>878.6</ele>
        <time>2021-04-17T13:59:08Z</time>
      </trkpt>
      <trkpt lat="46.0419" lon="6.10728">
        <ele>878.8</ele>
        <time>2021-04-17T13:59:09Z</time>
      </trkpt>
      <trkpt lat="46.0419" lon="6.10732">
        <ele>878.8</ele>
        <time>2021-04-17T13:59:10Z</time>
      </trkpt>
      <trkpt lat="46.04191" lon="6.10737">
        <ele>878.8</ele>
        <time>2021-04-17T13:59:11Z</time>
      </trkpt>
      <trkpt lat="46.04191" lon="6.10741">
        <ele>879</ele>
        <time>2021-04-17T13:59:12Z</time>
      </trkpt>
      <trkpt lat="46.04192" lon="6.10745">
        <ele>879</ele>
        <time>2021-04-17T13:59:13Z</time>
      </trkpt>
      <trkpt lat="46.04192" lon="6.10749">
        <ele>879.4</ele>
        <time>2021-04-17T13:59:14Z</time>
      </trkpt>
      <trkpt lat="46.04192" lon="6.10753">
        <ele>880</ele>
        <time>2021-04-17T13:59:15Z</time>
      </trkpt>
      <trkpt lat="46.04192" lon="6.10757">
        <ele>880.2</ele>
        <time>2021-04-17T13:59:16Z</time>
      </trkpt>
      <trkpt lat="46.04192" lon="6.10761">
        <ele>880.2</ele>
        <time>2021-04-17T13:59:17Z</time>
      </trkpt>
      <trkpt lat="46.04192" lon="6.10765">
        <ele>880.8</ele>
        <time>2021-04-17T13:59:18Z</time>
      </trkpt>
      <trkpt lat="46.04193" lon="6.10768">
        <ele>881</ele>
        <time>2021-04-17T13:59:19Z</time>
      </trkpt>
      <trkpt lat="46.04193" lon="6.10772">
        <ele>881.2</ele>
        <time>2021-04-17T13:59:20Z</time>
      </trkpt>
      <trkpt lat="46.04194" lon="6.10776">
        <ele>881.4</ele>
        <time>2021-04-17T13:59:21Z</time>
      </trkpt>
      <trkpt lat="46.04195" lon="6.1078">
        <ele>881.4</ele>
        <time>2021-04-17T13:59:22Z</time>
      </trkpt>
      <trkpt lat="46.04195" lon="6.10784">
        <ele>881.6</ele>
        <time>2021-04-17T13:59:23Z</time>
      </trkpt>
      <trkpt lat="46.04196" lon="6.10787">
        <ele>881.8</ele>
        <time>2021-04-17T13:59:24Z</time>
      </trkpt>
      <trkpt lat="46.04197" lon="6.10791">
        <ele>882</ele>
        <time>2021-04-17T13:59:25Z</time>
      </trkpt>
      <trkpt lat="46.04199" lon="6.10794">
        <ele>882</ele>
        <time>2021-04-17T13:59:26Z</time>
      </trkpt>
      <trkpt lat="46.042" lon="6.10797">
        <ele>882.2</ele>
        <time>2021-04-17T13:59:27Z</time>
      </trkpt>
      <trkpt lat="46.04202" lon="6.108">
        <ele>882.8</ele>
        <time>2021-04-17T13:59:28Z</time>
      </trkpt>
      <trkpt lat="46.04203" lon="6.10802">
        <ele>883</ele>
        <time>2021-04-17T13:59:29Z</time>
      </trkpt>
      <trkpt lat="46.04206" lon="6.10804">
        <ele>883.4</ele>
        <time>2021-04-17T13:59:30Z</time>
      </trkpt>
      <trkpt lat="46.04208" lon="6.10805">
        <ele>883.4</ele>
        <time>2021-04-17T13:59:31Z</time>
      </trkpt>
      <trkpt lat="46.04211" lon="6.10806">
        <ele>883.4</ele>
        <time>2021-04-17T13:59:32Z</time>
      </trkpt>
      <trkpt lat="46.04214" lon="6.10806">
        <ele>883.6</ele>
        <time>2021-04-17T13:59:33Z</time>
      </trkpt>
      <trkpt lat="46.04217" lon="6.10807">
        <ele>883.8</ele>
        <time>2021-04-17T13:59:34Z</time>
      </trkpt>
      <trkpt lat="46.0422" lon="6.10806">
        <ele>884</ele>
        <time>2021-04-17T13:59:35Z</time>
      </trkpt>
      <trkpt lat="46.04223" lon="6.10805">
        <ele>884.2</ele>
        <time>2021-04-17T13:59:36Z</time>
      </trkpt>
      <trkpt lat="46.04225" lon="6.10803">
        <ele>884.4</ele>
        <time>2021-04-17T13:59:37Z</time>
      </trkpt>
      <trkpt lat="46.04228" lon="6.10802">
        <ele>884.6</ele>
        <time>2021-04-17T13:59:38Z</time>
      </trkpt>
      <trkpt lat="46.0423" lon="6.10799">
        <ele>884.6</ele>
        <time>2021-04-17T13:59:39Z</time>
      </trkpt>
      <trkpt lat="46.04233" lon="6.10797">
        <ele>884.8</ele>
        <time>2021-04-17T13:59:40Z</time>
      </trkpt>
      <trkpt lat="46.04236" lon="6.10795">
        <ele>884.8</ele>
        <time>2021-04-17T13:59:41Z</time>
      </trkpt>
      <trkpt lat="46.04238" lon="6.10792">
        <ele>885</ele>
        <time>2021-04-17T13:59:42Z</time>
      </trkpt>
      <trkpt lat="46.0424" lon="6.10789">
        <ele>885.2</ele>
        <time>2021-04-17T13:59:43Z</time>
      </trkpt>
      <trkpt lat="46.04243" lon="6.10787">
        <ele>885.4</ele>
        <time>2021-04-17T13:59:44Z</time>
      </trkpt>
      <trkpt lat="46.04245" lon="6.10784">
        <ele>886</ele>
        <time>2021-04-17T13:59:45Z</time>
      </trkpt>
      <trkpt lat="46.04248" lon="6.10781">
        <ele>886.2</ele>
        <time>2021-04-17T13:59:46Z</time>
      </trkpt>
      <trkpt lat="46.0425" lon="6.10778">
        <ele>886.4</ele>
        <time>2021-04-17T13:59:47Z</time>
      </trkpt>
      <trkpt lat="46.04253" lon="6.10775">
        <ele>886.8</ele>
        <time>2021-04-17T13:59:48Z</time>
      </trkpt>
      <trkpt lat="46.04255" lon="6.10773">
        <ele>886.8</ele>
        <time>2021-04-17T13:59:49Z</time>
      </trkpt>
      <trkpt lat="46.04258" lon="6.1077">
        <ele>887.2</ele>
        <time>2021-04-17T13:59:50Z</time>
      </trkpt>
      <trkpt lat="46.0426" lon="6.10767">
        <ele>887.4</ele>
        <time>2021-04-17T13:59:51Z</time>
      </trkpt>
      <trkpt lat="46.04262" lon="6.10764">
        <ele>887.4</ele>
        <time>2021-04-17T13:59:52Z</time>
      </trkpt>
      <trkpt lat="46.04265" lon="6.10761">
        <ele>887.8</ele>
        <time>2021-04-17T13:59:53Z</time>
      </trkpt>
      <trkpt lat="46.04267" lon="6.10759">
        <ele>887.8</ele>
        <time>2021-04-17T13:59:54Z</time>
      </trkpt>
      <trkpt lat="46.0427" lon="6.10756">
        <ele>888.2</ele>
        <time>2021-04-17T13:59:55Z</time>
      </trkpt>
      <trkpt lat="46.04272" lon="6.10754">
        <ele>888.2</ele>
        <time>2021-04-17T13:59:56Z</time>
      </trkpt>
      <trkpt lat="46.04275" lon="6.10751">
        <ele>888.4</ele>
        <time>2021-04-17T13:59:57Z</time>
      </trkpt>
      <trkpt lat="46.04277" lon="6.10749">
        <ele>888.6</ele>
        <time>2021-04-17T13:59:58Z</time>
      </trkpt>
      <trkpt lat="46.0428" lon="6.10747">
        <ele>889</ele>
        <time>2021-04-17T13:59:59Z</time>
      </trkpt>
      <trkpt lat="46.04282" lon="6.10745">
        <ele>889</ele>
        <time>2021-04-17T14:00:00Z</time>
      </trkpt>
      <trkpt lat="46.04285" lon="6.10744">
        <ele>889.4</ele>
        <time>2021-04-17T14:00:01Z</time>
      </trkpt>
      <trkpt lat="46.04288" lon="6.10743">
        <ele>889.8</ele>
        <time>2021-04-17T14:00:02Z</time>
      </trkpt>
      <trkpt lat="46.04291" lon="6.10743">
        <ele>890</ele>
        <time>2021-04-17T14:00:03Z</time>
      </trkpt>
      <trkpt lat="46.04293" lon="6.10743">
        <ele>890.2</ele>
        <time>2021-04-17T14:00:04Z</time>
      </trkpt>
      <trkpt lat="46.04296" lon="6.10744">
        <ele>890.2</ele>
        <time>2021-04-17T14:00:05Z</time>
      </trkpt>
      <trkpt lat="46.04298" lon="6.10744">
        <ele>890.4</ele>
        <time>2021-04-17T14:00:06Z</time>
      </trkpt>
      <trkpt lat="46.04301" lon="6.10745">
        <ele>890.4</ele>
        <time>2021-04-17T14:00:07Z</time>
      </trkpt>
      <trkpt lat="46.04303" lon="6.10746">
        <ele>890.4</ele>
        <time>2021-04-17T14:00:08Z</time>
      </trkpt>
      <trkpt lat="46.04306" lon="6.10746">
        <ele>890.4</ele>
        <time>2021-04-17T14:00:09Z</time>
      </trkpt>
      <trkpt lat="46.04309" lon="6.10747">
        <ele>890.4</ele>
        <time>2021-04-17T14:00:10Z</time>
      </trkpt>
      <trkpt lat="46.04311" lon="6.10749">
        <ele>890.6</ele>
        <time>2021-04-17T14:00:11Z</time>
      </trkpt>
      <trkpt lat="46.04314" lon="6.10749">
        <ele>890.6</ele>
        <time>2021-04-17T14:00:12Z</time>
      </trkpt>
      <trkpt lat="46.04316" lon="6.1075">
        <ele>890.6</ele>
        <time>2021-04-17T14:00:13Z</time>
      </trkpt>
      <trkpt lat="46.04319" lon="6.10752">
        <ele>890.8</ele>
        <time>2021-04-17T14:00:14Z</time>
      </trkpt>
      <trkpt lat="46.04322" lon="6.10753">
        <ele>890.8</ele>
        <time>2021-04-17T14:00:15Z</time>
      </trkpt>
      <trkpt lat="46.04325" lon="6.10754">
        <ele>891.2</ele>
        <time>2021-04-17T14:00:16Z</time>
      </trkpt>
      <trkpt lat="46.04327" lon="6.10755">
        <ele>891.6</ele>
        <time>2021-04-17T14:00:17Z</time>
      </trkpt>
      <trkpt lat="46.0433" lon="6.10757">
        <ele>891.8</ele>
        <time>2021-04-17T14:00:18Z</time>
      </trkpt>
      <trkpt lat="46.04333" lon="6.10758">
        <ele>892</ele>
        <time>2021-04-17T14:00:19Z</time>
      </trkpt>
      <trkpt lat="46.04336" lon="6.10759">
        <ele>892.4</ele>
        <time>2021-04-17T14:00:20Z</time>
      </trkpt>
      <trkpt lat="46.04339" lon="6.1076">
        <ele>892.8</ele>
        <time>2021-04-17T14:00:21Z</time>
      </trkpt>
      <trkpt lat="46.04342" lon="6.10761">
        <ele>893.2</ele>
        <time>2021-04-17T14:00:22Z</time>
      </trkpt>
      <trkpt lat="46.04345" lon="6.10762">
        <ele>893.2</ele>
        <time>2021-04-17T14:00:23Z</time>
      </trkpt>
      <trkpt lat="46.04348" lon="6.10763">
        <ele>893.4</ele>
        <time>2021-04-17T14:00:24Z</time>
      </trkpt>
      <trkpt lat="46.0435" lon="6.10764">
        <ele>893.8</ele>
        <time>2021-04-17T14:00:25Z</time>
      </trkpt>
      <trkpt lat="46.04353" lon="6.10766">
        <ele>894</ele>
        <time>2021-04-17T14:00:26Z</time>
      </trkpt>
      <trkpt lat="46.04356" lon="6.10767">
        <ele>894</ele>
        <time>2021-04-17T14:00:27Z</time>
      </trkpt>
      <trkpt lat="46.04359" lon="6.10768">
        <ele>894.4</ele>
        <time>2021-04-17T14:00:28Z</time>
      </trkpt>
      <trkpt lat="46.04363" lon="6.1077">
        <ele>894.6</ele>
        <time>2021-04-17T14:00:29Z</time>
      </trkpt>
      <trkpt lat="46.04366" lon="6.10771">
        <ele>895</ele>
        <time>2021-04-17T14:00:30Z</time>
      </trkpt>
      <trkpt lat="46.04369" lon="6.10773">
        <ele>895.2</ele>
        <time>2021-04-17T14:00:31Z</time>
      </trkpt>
      <trkpt lat="46.04372" lon="6.10774">
        <ele>895.6</ele>
        <time>2021-04-17T14:00:32Z</time>
      </trkpt>
      <trkpt lat="46.04376" lon="6.10775">
        <ele>895.8</ele>
        <time>2021-04-17T14:00:33Z</time>
      </trkpt>
      <trkpt lat="46.04379" lon="6.10777">
        <ele>896.2</ele>
        <time>2021-04-17T14:00:34Z</time>
      </trkpt>
      <trkpt lat="46.04383" lon="6.10778">
        <ele>896.4</ele>
        <time>2021-04-17T14:00:35Z</time>
      </trkpt>
      <trkpt lat="46.04386" lon="6.10779">
        <ele>896.6</ele>
        <time>2021-04-17T14:00:36Z</time>
      </trkpt>
      <trkpt lat="46.0439" lon="6.1078">
        <ele>896.8</ele>
        <time>2021-04-17T14:00:37Z</time>
      </trkpt>
      <trkpt lat="46.04393" lon="6.10781">
        <ele>896.6</ele>
        <time>2021-04-17T14:00:38Z</time>
      </trkpt>
      <trkpt lat="46.04396" lon="6.10781">
        <ele>896.6</ele>
        <time>2021-04-17T14:00:39Z</time>
      </trkpt>
      <trkpt lat="46.04398" lon="6.10782">
        <ele>896.8</ele>
        <time>2021-04-17T14:00:40Z</time>
      </trkpt>
      <trkpt lat="46.04401" lon="6.10782">
        <ele>896.8</ele>
        <time>2021-04-17T14:00:41Z</time>
      </trkpt>
      <trkpt lat="46.04404" lon="6.10782">
        <ele>896.8</ele>
        <time>2021-04-17T14:00:42Z</time>
      </trkpt>
      <trkpt lat="46.04407" lon="6.10782">
        <ele>896.8</ele>
        <time>2021-04-17T14:00:43Z</time>
      </trkpt>
      <trkpt lat="46.04411" lon="6.10782">
        <ele>896.8</ele>
        <time>2021-04-17T14:00:44Z</time>
      </trkpt>
      <trkpt lat="46.04414" lon="6.10783">
        <ele>897</ele>
        <time>2021-04-17T14:00:45Z</time>
      </trkpt>
      <trkpt lat="46.04418" lon="6.10785">
        <ele>896.8</ele>
        <time>2021-04-17T14:00:46Z</time>
      </trkpt>
      <trkpt lat="46.04421" lon="6.10786">
        <ele>896.8</ele>
        <time>2021-04-17T14:00:47Z</time>
      </trkpt>
      <trkpt lat="46.04425" lon="6.10787">
        <ele>896.8</ele>
        <time>2021-04-17T14:00:48Z</time>
      </trkpt>
      <trkpt lat="46.04429" lon="6.10788">
        <ele>896.8</ele>
        <time>2021-04-17T14:00:49Z</time>
      </trkpt>
      <trkpt lat="46.04433" lon="6.10789">
        <ele>897</ele>
        <time>2021-04-17T14:00:50Z</time>
      </trkpt>
      <trkpt lat="46.04436" lon="6.10789">
        <ele>897</ele>
        <time>2021-04-17T14:00:51Z</time>
      </trkpt>
      <trkpt lat="46.04441" lon="6.10791">
        <ele>897</ele>
        <time>2021-04-17T14:00:52Z</time>
      </trkpt>
      <trkpt lat="46.04445" lon="6.10792">
        <ele>897.2</ele>
        <time>2021-04-17T14:00:53Z</time>
      </trkpt>
      <trkpt lat="46.04448" lon="6.10792">
        <ele>897.2</ele>
        <time>2021-04-17T14:00:54Z</time>
      </trkpt>
      <trkpt lat="46.04453" lon="6.10793">
        <ele>897.2</ele>
        <time>2021-04-17T14:00:55Z</time>
      </trkpt>
      <trkpt lat="46.04457" lon="6.10794">
        <ele>897.4</ele>
        <time>2021-04-17T14:00:56Z</time>
      </trkpt>
      <trkpt lat="46.04461" lon="6.10795">
        <ele>897.2</ele>
        <time>2021-04-17T14:00:57Z</time>
      </trkpt>
      <trkpt lat="46.04465" lon="6.10796">
        <ele>897.4</ele>
        <time>2021-04-17T14:00:58Z</time>
      </trkpt>
      <trkpt lat="46.04469" lon="6.10797">
        <ele>897.2</ele>
        <time>2021-04-17T14:00:59Z</time>
      </trkpt>
      <trkpt lat="46.04473" lon="6.10798">
        <ele>897.2</ele>
        <time>2021-04-17T14:01:00Z</time>
      </trkpt>
      <trkpt lat="46.04477" lon="6.108">
        <ele>897.4</ele>
        <time>2021-04-17T14:01:01Z</time>
      </trkpt>
      <trkpt lat="46.04481" lon="6.10801">
        <ele>897.6</ele>
        <time>2021-04-17T14:01:02Z</time>
      </trkpt>
      <trkpt lat="46.04485" lon="6.10803">
        <ele>897.8</ele>
        <time>2021-04-17T14:01:03Z</time>
      </trkpt>
      <trkpt lat="46.04488" lon="6.10804">
        <ele>898.2</ele>
        <time>2021-04-17T14:01:04Z</time>
      </trkpt>
      <trkpt lat="46.04492" lon="6.10806">
        <ele>898.4</ele>
        <time>2021-04-17T14:01:05Z</time>
      </trkpt>
      <trkpt lat="46.04495" lon="6.10808">
        <ele>898.6</ele>
        <time>2021-04-17T14:01:06Z</time>
      </trkpt>
      <trkpt lat="46.04499" lon="6.10811">
        <ele>898.8</ele>
        <time>2021-04-17T14:01:07Z</time>
      </trkpt>
      <trkpt lat="46.04502" lon="6.10813">
        <ele>898.8</ele>
        <time>2021-04-17T14:01:08Z</time>
      </trkpt>
      <trkpt lat="46.04505" lon="6.10817">
        <ele>899</ele>
        <time>2021-04-17T14:01:09Z</time>
      </trkpt>
      <trkpt lat="46.04508" lon="6.10821">
        <ele>898.8</ele>
        <time>2021-04-17T14:01:10Z</time>
      </trkpt>
      <trkpt lat="46.04511" lon="6.10825">
        <ele>899</ele>
        <time>2021-04-17T14:01:11Z</time>
      </trkpt>
      <trkpt lat="46.04513" lon="6.10829">
        <ele>899</ele>
        <time>2021-04-17T14:01:12Z</time>
      </trkpt>
      <trkpt lat="46.04515" lon="6.10834">
        <ele>899</ele>
        <time>2021-04-17T14:01:13Z</time>
      </trkpt>
      <trkpt lat="46.04517" lon="6.10838">
        <ele>899.2</ele>
        <time>2021-04-17T14:01:14Z</time>
      </trkpt>
      <trkpt lat="46.0452" lon="6.10843">
        <ele>899.4</ele>
        <time>2021-04-17T14:01:15Z</time>
      </trkpt>
      <trkpt lat="46.04522" lon="6.10847">
        <ele>899.6</ele>
        <time>2021-04-17T14:01:16Z</time>
      </trkpt>
      <trkpt lat="46.04525" lon="6.10851">
        <ele>900</ele>
        <time>2021-04-17T14:01:17Z</time>
      </trkpt>
      <trkpt lat="46.04527" lon="6.10855">
        <ele>900</ele>
        <time>2021-04-17T14:01:18Z</time>
      </trkpt>
      <trkpt lat="46.0453" lon="6.10859">
        <ele>900</ele>
        <time>2021-04-17T14:01:19Z</time>
      </trkpt>
      <trkpt lat="46.04533" lon="6.10863">
        <ele>900.2</ele>
        <time>2021-04-17T14:01:20Z</time>
      </trkpt>
      <trkpt lat="46.04537" lon="6.10866">
        <ele>900.4</ele>
        <time>2021-04-17T14:01:21Z</time>
      </trkpt>
      <trkpt lat="46.0454" lon="6.10869">
        <ele>900.6</ele>
        <time>2021-04-17T14:01:22Z</time>
      </trkpt>
      <trkpt lat="46.04543" lon="6.10872">
        <ele>900.8</ele>
        <time>2021-04-17T14:01:23Z</time>
      </trkpt>
      <trkpt lat="46.04547" lon="6.10874">
        <ele>901</ele>
        <time>2021-04-17T14:01:24Z</time>
      </trkpt>
      <trkpt lat="46.0455" lon="6.10877">
        <ele>901</ele>
        <time>2021-04-17T14:01:25Z</time>
      </trkpt>
      <trkpt lat="46.04554" lon="6.10878">
        <ele>901</ele>
        <time>2021-04-17T14:01:26Z</time>
      </trkpt>
      <trkpt lat="46.04558" lon="6.1088">
        <ele>901</ele>
        <time>2021-04-17T14:01:27Z</time>
      </trkpt>
      <trkpt lat="46.04562" lon="6.10882">
        <ele>901.2</ele>
        <time>2021-04-17T14:01:28Z</time>
      </trkpt>
      <trkpt lat="46.04566" lon="6.10883">
        <ele>901</ele>
        <time>2021-04-17T14:01:29Z</time>
      </trkpt>
      <trkpt lat="46.0457" lon="6.10884">
        <ele>901.2</ele>
        <time>2021-04-17T14:01:30Z</time>
      </trkpt>
      <trkpt lat="46.04574" lon="6.10884">
        <ele>901.2</ele>
        <time>2021-04-17T14:01:31Z</time>
      </trkpt>
      <trkpt lat="46.04578" lon="6.10885">
        <ele>901.6</ele>
        <time>2021-04-17T14:01:32Z</time>
      </trkpt>
      <trkpt lat="46.04582" lon="6.10886">
        <ele>902</ele>
        <time>2021-04-17T14:01:33Z</time>
      </trkpt>
      <trkpt lat="46.04586" lon="6.10887">
        <ele>902</ele>
        <time>2021-04-17T14:01:34Z</time>
      </trkpt>
      <trkpt lat="46.0459" lon="6.10888">
        <ele>902</ele>
        <time>2021-04-17T14:01:35Z</time>
      </trkpt>
      <trkpt lat="46.04595" lon="6.1089">
        <ele>902.2</ele>
        <time>2021-04-17T14:01:36Z</time>
      </trkpt>
      <trkpt lat="46.04599" lon="6.10891">
        <ele>902.2</ele>
        <time>2021-04-17T14:01:37Z</time>
      </trkpt>
      <trkpt lat="46.04602" lon="6.10895">
        <ele>902.4</ele>
        <time>2021-04-17T14:01:38Z</time>
      </trkpt>
      <trkpt lat="46.04605" lon="6.10899">
        <ele>902.6</ele>
        <time>2021-04-17T14:01:39Z</time>
      </trkpt>
      <trkpt lat="46.04608" lon="6.10903">
        <ele>902.4</ele>
        <time>2021-04-17T14:01:40Z</time>
      </trkpt>
      <trkpt lat="46.04611" lon="6.10908">
        <ele>902.6</ele>
        <time>2021-04-17T14:01:41Z</time>
      </trkpt>
      <trkpt lat="46.04613" lon="6.10913">
        <ele>902.4</ele>
        <time>2021-04-17T14:01:42Z</time>
      </trkpt>
      <trkpt lat="46.04616" lon="6.10918">
        <ele>902.6</ele>
        <time>2021-04-17T14:01:43Z</time>
      </trkpt>
      <trkpt lat="46.04618" lon="6.10923">
        <ele>902.4</ele>
        <time>2021-04-17T14:01:44Z</time>
      </trkpt>
      <trkpt lat="46.04621" lon="6.10928">
        <ele>902.6</ele>
        <time>2021-04-17T14:01:45Z</time>
      </trkpt>
      <trkpt lat="46.04624" lon="6.10932">
        <ele>902.6</ele>
        <time>2021-04-17T14:01:46Z</time>
      </trkpt>
      <trkpt lat="46.04627" lon="6.10938">
        <ele>902.8</ele>
        <time>2021-04-17T14:01:47Z</time>
      </trkpt>
      <trkpt lat="46.04629" lon="6.10943">
        <ele>902.6</ele>
        <time>2021-04-17T14:01:48Z</time>
      </trkpt>
      <trkpt lat="46.04632" lon="6.10948">
        <ele>902.8</ele>
        <time>2021-04-17T14:01:49Z</time>
      </trkpt>
      <trkpt lat="46.04635" lon="6.10953">
        <ele>902.8</ele>
        <time>2021-04-17T14:01:50Z</time>
      </trkpt>
      <trkpt lat="46.04638" lon="6.10958">
        <ele>903</ele>
        <time>2021-04-17T14:01:51Z</time>
      </trkpt>
      <trkpt lat="46.04641" lon="6.10964">
        <ele>903</ele>
        <time>2021-04-17T14:01:52Z</time>
      </trkpt>
      <trkpt lat="46.04644" lon="6.10969">
        <ele>903.2</ele>
        <time>2021-04-17T14:01:53Z</time>
      </trkpt>
      <trkpt lat="46.04647" lon="6.10974">
        <ele>903.4</ele>
        <time>2021-04-17T14:01:54Z</time>
      </trkpt>
      <trkpt lat="46.04649" lon="6.1098">
        <ele>903.6</ele>
        <time>2021-04-17T14:01:55Z</time>
      </trkpt>
      <trkpt lat="46.04652" lon="6.10986">
        <ele>903.6</ele>
        <time>2021-04-17T14:01:56Z</time>
      </trkpt>
      <trkpt lat="46.04654" lon="6.10992">
        <ele>903.6</ele>
        <time>2021-04-17T14:01:57Z</time>
      </trkpt>
      <trkpt lat="46.04655" lon="6.10998">
        <ele>903.8</ele>
        <time>2021-04-17T14:01:58Z</time>
      </trkpt>
      <trkpt lat="46.04656" lon="6.11003">
        <ele>903.8</ele>
        <time>2021-04-17T14:01:59Z</time>
      </trkpt>
      <trkpt lat="46.04656" lon="6.11009">
        <ele>904.2</ele>
        <time>2021-04-17T14:02:00Z</time>
      </trkpt>
      <trkpt lat="46.04656" lon="6.11014">
        <ele>904.2</ele>
        <time>2021-04-17T14:02:01Z</time>
      </trkpt>
      <trkpt lat="46.04656" lon="6.11018">
        <ele>904.6</ele>
        <time>2021-04-17T14:02:02Z</time>
      </trkpt>
      <trkpt lat="46.04655" lon="6.11023">
        <ele>904.8</ele>
        <time>2021-04-17T14:02:03Z</time>
      </trkpt>
      <trkpt lat="46.04654" lon="6.11027">
        <ele>905</ele>
        <time>2021-04-17T14:02:04Z</time>
      </trkpt>
      <trkpt lat="46.04653" lon="6.11031">
        <ele>905.4</ele>
        <time>2021-04-17T14:02:05Z</time>
      </trkpt>
      <trkpt lat="46.04652" lon="6.11036">
        <ele>905.4</ele>
        <time>2021-04-17T14:02:06Z</time>
      </trkpt>
      <trkpt lat="46.04651" lon="6.1104">
        <ele>905.6</ele>
        <time>2021-04-17T14:02:07Z</time>
      </trkpt>
      <trkpt lat="46.0465" lon="6.11045">
        <ele>905.6</ele>
        <time>2021-04-17T14:02:08Z</time>
      </trkpt>
      <trkpt lat="46.04649" lon="6.1105">
        <ele>906</ele>
        <time>2021-04-17T14:02:09Z</time>
      </trkpt>
      <trkpt lat="46.04649" lon="6.11055">
        <ele>906</ele>
        <time>2021-04-17T14:02:10Z</time>
      </trkpt>
      <trkpt lat="46.04649" lon="6.11059">
        <ele>906</ele>
        <time>2021-04-17T14:02:11Z</time>
      </trkpt>
      <trkpt lat="46.04649" lon="6.11064">
        <ele>906.2</ele>
        <time>2021-04-17T14:02:12Z</time>
      </trkpt>
      <trkpt lat="46.04649" lon="6.11069">
        <ele>906.4</ele>
        <time>2021-04-17T14:02:13Z</time>
      </trkpt>
      <trkpt lat="46.0465" lon="6.11074">
        <ele>906.6</ele>
        <time>2021-04-17T14:02:14Z</time>
      </trkpt>
      <trkpt lat="46.04651" lon="6.11078">
        <ele>907</ele>
        <time>2021-04-17T14:02:15Z</time>
      </trkpt>
      <trkpt lat="46.04652" lon="6.11083">
        <ele>907.6</ele>
        <time>2021-04-17T14:02:16Z</time>
      </trkpt>
      <trkpt lat="46.04653" lon="6.11087">
        <ele>907.8</ele>
        <time>2021-04-17T14:02:17Z</time>
      </trkpt>
      <trkpt lat="46.04654" lon="6.11092">
        <ele>908</ele>
        <time>2021-04-17T14:02:18Z</time>
      </trkpt>
      <trkpt lat="46.04656" lon="6.11096">
        <ele>908.2</ele>
        <time>2021-04-17T14:02:19Z</time>
      </trkpt>
      <trkpt lat="46.04657" lon="6.11101">
        <ele>908.4</ele>
        <time>2021-04-17T14:02:20Z</time>
      </trkpt>
      <trkpt lat="46.04657" lon="6.11106">
        <ele>908.6</ele>
        <time>2021-04-17T14:02:21Z</time>
      </trkpt>
      <trkpt lat="46.04658" lon="6.1111">
        <ele>908.8</ele>
        <time>2021-04-17T14:02:22Z</time>
      </trkpt>
      <trkpt lat="46.04658" lon="6.11115">
        <ele>908.8</ele>
        <time>2021-04-17T14:02:23Z</time>
      </trkpt>
      <trkpt lat="46.04658" lon="6.11119">
        <ele>909</ele>
        <time>2021-04-17T14:02:24Z</time>
      </trkpt>
      <trkpt lat="46.04658" lon="6.11123">
        <ele>909.2</ele>
        <time>2021-04-17T14:02:25Z</time>
      </trkpt>
      <trkpt lat="46.04657" lon="6.11128">
        <ele>909.6</ele>
        <time>2021-04-17T14:02:26Z</time>
      </trkpt>
      <trkpt lat="46.04656" lon="6.11132">
        <ele>909.8</ele>
        <time>2021-04-17T14:02:27Z</time>
      </trkpt>
      <trkpt lat="46.04654" lon="6.11136">
        <ele>910.2</ele>
        <time>2021-04-17T14:02:28Z</time>
      </trkpt>
      <trkpt lat="46.04653" lon="6.11139">
        <ele>910.8</ele>
        <time>2021-04-17T14:02:29Z</time>
      </trkpt>
      <trkpt lat="46.04651" lon="6.11141">
        <ele>911</ele>
        <time>2021-04-17T14:02:30Z</time>
      </trkpt>
      <trkpt lat="46.04649" lon="6.11144">
        <ele>911.4</ele>
        <time>2021-04-17T14:02:31Z</time>
      </trkpt>
      <trkpt lat="46.04648" lon="6.11146">
        <ele>911.6</ele>
        <time>2021-04-17T14:02:32Z</time>
      </trkpt>
      <trkpt lat="46.04646" lon="6.11148">
        <ele>911.6</ele>
        <time>2021-04-17T14:02:33Z</time>
      </trkpt>
      <trkpt lat="46.04644" lon="6.1115">
        <ele>912</ele>
        <time>2021-04-17T14:02:34Z</time>
      </trkpt>
      <trkpt lat="46.04642" lon="6.11152">
        <ele>912</ele>
        <time>2021-04-17T14:02:35Z</time>
      </trkpt>
      <trkpt lat="46.0464" lon="6.11154">
        <ele>912</ele>
        <time>2021-04-17T14:02:36Z</time>
      </trkpt>
      <trkpt lat="46.04638" lon="6.11157">
        <ele>912.4</ele>
        <time>2021-04-17T14:02:37Z</time>
      </trkpt>
      <trkpt lat="46.04636" lon="6.1116">
        <ele>912.6</ele>
        <time>2021-04-17T14:02:38Z</time>
      </trkpt>
      <trkpt lat="46.04634" lon="6.11164">
        <ele>912.8</ele>
        <time>2021-04-17T14:02:39Z</time>
      </trkpt>
      <trkpt lat="46.04632" lon="6.11168">
        <ele>912.8</ele>
        <time>2021-04-17T14:02:40Z</time>
      </trkpt>
      <trkpt lat="46.04631" lon="6.11171">
        <ele>913.2</ele>
        <time>2021-04-17T14:02:41Z</time>
      </trkpt>
      <trkpt lat="46.0463" lon="6.11174">
        <ele>913.4</ele>
        <time>2021-04-17T14:02:42Z</time>
      </trkpt>
      <trkpt lat="46.04629" lon="6.11178">
        <ele>913.4</ele>
        <time>2021-04-17T14:02:43Z</time>
      </trkpt>
      <trkpt lat="46.04628" lon="6.11181">
        <ele>913.6</ele>
        <time>2021-04-17T14:02:44Z</time>
      </trkpt>
      <trkpt lat="46.04627" lon="6.11185">
        <ele>913.6</ele>
        <time>2021-04-17T14:02:45Z</time>
      </trkpt>
      <trkpt lat="46.04627" lon="6.11189">
        <ele>913.8</ele>
        <time>2021-04-17T14:02:46Z</time>
      </trkpt>
      <trkpt lat="46.04626" lon="6.11193">
        <ele>913.6</ele>
        <time>2021-04-17T14:02:47Z</time>
      </trkpt>
      <trkpt lat="46.04625" lon="6.11196">
        <ele>913.8</ele>
        <time>2021-04-17T14:02:48Z</time>
      </trkpt>
      <trkpt lat="46.04624" lon="6.112">
        <ele>913.6</ele>
        <time>2021-04-17T14:02:49Z</time>
      </trkpt>
      <trkpt lat="46.04624" lon="6.11204">
        <ele>913.8</ele>
        <time>2021-04-17T14:02:50Z</time>
      </trkpt>
      <trkpt lat="46.04623" lon="6.11208">
        <ele>914</ele>
        <time>2021-04-17T14:02:51Z</time>
      </trkpt>
      <trkpt lat="46.04622" lon="6.11211">
        <ele>914.2</ele>
        <time>2021-04-17T14:02:52Z</time>
      </trkpt>
      <trkpt lat="46.04621" lon="6.11215">
        <ele>914.8</ele>
        <time>2021-04-17T14:02:53Z</time>
      </trkpt>
      <trkpt lat="46.04621" lon="6.11219">
        <ele>915.2</ele>
        <time>2021-04-17T14:02:54Z</time>
      </trkpt>
      <trkpt lat="46.0462" lon="6.11222">
        <ele>915.6</ele>
        <time>2021-04-17T14:02:55Z</time>
      </trkpt>
      <trkpt lat="46.04619" lon="6.11226">
        <ele>916.2</ele>
        <time>2021-04-17T14:02:56Z</time>
      </trkpt>
      <trkpt lat="46.04618" lon="6.11229">
        <ele>916.4</ele>
        <time>2021-04-17T14:02:57Z</time>
      </trkpt>
      <trkpt lat="46.04618" lon="6.11233">
        <ele>916.6</ele>
        <time>2021-04-17T14:02:58Z</time>
      </trkpt>
      <trkpt lat="46.04617" lon="6.11237">
        <ele>917.2</ele>
        <time>2021-04-17T14:02:59Z</time>
      </trkpt>
      <trkpt lat="46.04617" lon="6.11242">
        <ele>917.6</ele>
        <time>2021-04-17T14:03:00Z</time>
      </trkpt>
      <trkpt lat="46.04617" lon="6.11247">
        <ele>918</ele>
        <time>2021-04-17T14:03:01Z</time>
      </trkpt>
      <trkpt lat="46.04617" lon="6.11252">
        <ele>918.4</ele>
        <time>2021-04-17T14:03:02Z</time>
      </trkpt>
      <trkpt lat="46.04618" lon="6.11256">
        <ele>918.6</ele>
        <time>2021-04-17T14:03:03Z</time>
      </trkpt>
      <trkpt lat="46.04619" lon="6.11261">
        <ele>918.6</ele>
        <time>2021-04-17T14:03:04Z</time>
      </trkpt>
      <trkpt lat="46.0462" lon="6.11265">
        <ele>919</ele>
        <time>2021-04-17T14:03:05Z</time>
      </trkpt>
      <trkpt lat="46.04621" lon="6.1127">
        <ele>919.2</ele>
        <time>2021-04-17T14:03:06Z</time>
      </trkpt>
      <trkpt lat="46.04622" lon="6.11274">
        <ele>919.4</ele>
        <time>2021-04-17T14:03:07Z</time>
      </trkpt>
      <trkpt lat="46.04624" lon="6.11278">
        <ele>919.6</ele>
        <time>2021-04-17T14:03:08Z</time>
      </trkpt>
      <trkpt lat="46.04625" lon="6.11282">
        <ele>920</ele>
        <time>2021-04-17T14:03:09Z</time>
      </trkpt>
      <trkpt lat="46.04627" lon="6.11286">
        <ele>920.2</ele>
        <time>2021-04-17T14:03:10Z</time>
      </trkpt>
      <trkpt lat="46.04628" lon="6.1129">
        <ele>920.2</ele>
        <time>2021-04-17T14:03:11Z</time>
      </trkpt>
      <trkpt lat="46.0463" lon="6.11293">
        <ele>920.4</ele>
        <time>2021-04-17T14:03:12Z</time>
      </trkpt>
      <trkpt lat="46.04631" lon="6.11297">
        <ele>920.6</ele>
        <time>2021-04-17T14:03:13Z</time>
      </trkpt>
      <trkpt lat="46.04632" lon="6.11301">
        <ele>920.8</ele>
        <time>2021-04-17T14:03:14Z</time>
      </trkpt>
      <trkpt lat="46.04634" lon="6.11305">
        <ele>921.2</ele>
        <time>2021-04-17T14:03:15Z</time>
      </trkpt>
      <trkpt lat="46.04635" lon="6.11309">
        <ele>921.2</ele>
        <time>2021-04-17T14:03:16Z</time>
      </trkpt>
      <trkpt lat="46.04636" lon="6.11313">
        <ele>921.4</ele>
        <time>2021-04-17T14:03:17Z</time>
      </trkpt>
      <trkpt lat="46.04636" lon="6.11318">
        <ele>921.4</ele>
        <time>2021-04-17T14:03:18Z</time>
      </trkpt>
      <trkpt lat="46.04637" lon="6.11322">
        <ele>921.6</ele>
        <time>2021-04-17T14:03:19Z</time>
      </trkpt>
      <trkpt lat="46.04638" lon="6.11326">
        <ele>921.8</ele>
        <time>2021-04-17T14:03:20Z</time>
      </trkpt>
      <trkpt lat="46.04639" lon="6.11331">
        <ele>921.8</ele>
        <time>2021-04-17T14:03:21Z</time>
      </trkpt>
      <trkpt lat="46.04639" lon="6.11335">
        <ele>922</ele>
        <time>2021-04-17T14:03:22Z</time>
      </trkpt>
      <trkpt lat="46.0464" lon="6.11339">
        <ele>922</ele>
        <time>2021-04-17T14:03:23Z</time>
      </trkpt>
      <trkpt lat="46.0464" lon="6.11343">
        <ele>922.2</ele>
        <time>2021-04-17T14:03:24Z</time>
      </trkpt>
      <trkpt lat="46.0464" lon="6.11348">
        <ele>922.4</ele>
        <time>2021-04-17T14:03:25Z</time>
      </trkpt>
      <trkpt lat="46.04641" lon="6.11353">
        <ele>922.2</ele>
        <time>2021-04-17T14:03:26Z</time>
      </trkpt>
      <trkpt lat="46.04641" lon="6.11358">
        <ele>922.2</ele>
        <time>2021-04-17T14:03:27Z</time>
      </trkpt>
      <trkpt lat="46.04641" lon="6.11363">
        <ele>922.4</ele>
        <time>2021-04-17T14:03:28Z</time>
      </trkpt>
      <trkpt lat="46.04641" lon="6.11368">
        <ele>922.4</ele>
        <time>2021-04-17T14:03:29Z</time>
      </trkpt>
      <trkpt lat="46.0464" lon="6.11373">
        <ele>922.6</ele>
        <time>2021-04-17T14:03:30Z</time>
      </trkpt>
      <trkpt lat="46.04639" lon="6.11378">
        <ele>922.8</ele>
        <time>2021-04-17T14:03:31Z</time>
      </trkpt>
      <trkpt lat="46.04639" lon="6.11382">
        <ele>923.2</ele>
        <time>2021-04-17T14:03:32Z</time>
      </trkpt>
      <trkpt lat="46.04638" lon="6.11387">
        <ele>923.6</ele>
        <time>2021-04-17T14:03:33Z</time>
      </trkpt>
      <trkpt lat="46.04637" lon="6.11392">
        <ele>923.8</ele>
        <time>2021-04-17T14:03:34Z</time>
      </trkpt>
      <trkpt lat="46.04636" lon="6.11397">
        <ele>924.2</ele>
        <time>2021-04-17T14:03:35Z</time>
      </trkpt>
      <trkpt lat="46.04635" lon="6.11402">
        <ele>924.4</ele>
        <time>2021-04-17T14:03:36Z</time>
      </trkpt>
      <trkpt lat="46.04634" lon="6.11407">
        <ele>924.6</ele>
        <time>2021-04-17T14:03:37Z</time>
      </trkpt>
      <trkpt lat="46.04634" lon="6.11412">
        <ele>924.8</ele>
        <time>2021-04-17T14:03:38Z</time>
      </trkpt>
      <trkpt lat="46.04633" lon="6.11416">
        <ele>925.2</ele>
        <time>2021-04-17T14:03:39Z</time>
      </trkpt>
      <trkpt lat="46.04633" lon="6.11421">
        <ele>925.2</ele>
        <time>2021-04-17T14:03:40Z</time>
      </trkpt>
      <trkpt lat="46.04633" lon="6.11426">
        <ele>925.6</ele>
        <time>2021-04-17T14:03:41Z</time>
      </trkpt>
      <trkpt lat="46.04633" lon="6.11431">
        <ele>925.8</ele>
        <time>2021-04-17T14:03:42Z</time>
      </trkpt>
      <trkpt lat="46.04634" lon="6.11435">
        <ele>925.8</ele>
        <time>2021-04-17T14:03:43Z</time>
      </trkpt>
      <trkpt lat="46.04635" lon="6.11439">
        <ele>926</ele>
        <time>2021-04-17T14:03:44Z</time>
      </trkpt>
      <trkpt lat="46.04637" lon="6.11443">
        <ele>926.4</ele>
        <time>2021-04-17T14:03:45Z</time>
      </trkpt>
      <trkpt lat="46.04638" lon="6.11447">
        <ele>926.8</ele>
        <time>2021-04-17T14:03:46Z</time>
      </trkpt>
      <trkpt lat="46.0464" lon="6.1145">
        <ele>927.2</ele>
        <time>2021-04-17T14:03:47Z</time>
      </trkpt>
      <trkpt lat="46.04643" lon="6.11452">
        <ele>927.2</ele>
        <time>2021-04-17T14:03:48Z</time>
      </trkpt>
      <trkpt lat="46.04645" lon="6.11454">
        <ele>927.4</ele>
        <time>2021-04-17T14:03:49Z</time>
      </trkpt>
      <trkpt lat="46.04648" lon="6.11455">
        <ele>928</ele>
        <time>2021-04-17T14:03:50Z</time>
      </trkpt>
      <trkpt lat="46.0465" lon="6.11456">
        <ele>928.2</ele>
        <time>2021-04-17T14:03:51Z</time>
      </trkpt>
      <trkpt lat="46.04653" lon="6.11456">
        <ele>928.4</ele>
        <time>2021-04-17T14:03:52Z</time>
      </trkpt>
      <trkpt lat="46.04656" lon="6.11456">
        <ele>928.6</ele>
        <time>2021-04-17T14:03:53Z</time>
      </trkpt>
      <trkpt lat="46.04659" lon="6.11455">
        <ele>928.8</ele>
        <time>2021-04-17T14:03:54Z</time>
      </trkpt>
      <trkpt lat="46.04662" lon="6.11454">
        <ele>928.8</ele>
        <time>2021-04-17T14:03:55Z</time>
      </trkpt>
      <trkpt lat="46.04665" lon="6.11452">
        <ele>929</ele>
        <time>2021-04-17T14:03:56Z</time>
      </trkpt>
      <trkpt lat="46.04668" lon="6.11449">
        <ele>929.2</ele>
        <time>2021-04-17T14:03:57Z</time>
      </trkpt>
      <trkpt lat="46.04671" lon="6.11446">
        <ele>929.4</ele>
        <time>2021-04-17T14:03:58Z</time>
      </trkpt>
      <trkpt lat="46.04673" lon="6.11442">
        <ele>929.4</ele>
        <time>2021-04-17T14:03:59Z</time>
      </trkpt>
      <trkpt lat="46.04674" lon="6.11438">
        <ele>929.6</ele>
        <time>2021-04-17T14:04:00Z</time>
      </trkpt>
      <trkpt lat="46.04675" lon="6.11433">
        <ele>929.6</ele>
        <time>2021-04-17T14:04:01Z</time>
      </trkpt>
      <trkpt lat="46.04677" lon="6.11428">
        <ele>929.6</ele>
        <time>2021-04-17T14:04:02Z</time>
      </trkpt>
      <trkpt lat="46.04677" lon="6.11423">
        <ele>929.8</ele>
        <time>2021-04-17T14:04:03Z</time>
      </trkpt>
      <trkpt lat="46.04677" lon="6.11418">
        <ele>929.8</ele>
        <time>2021-04-17T14:04:04Z</time>
      </trkpt>
      <trkpt lat="46.04677" lon="6.11412">
        <ele>930</ele>
        <time>2021-04-17T14:04:05Z</time>
      </trkpt>
      <trkpt lat="46.04676" lon="6.11407">
        <ele>929.8</ele>
        <time>2021-04-17T14:04:06Z</time>
      </trkpt>
      <trkpt lat="46.04675" lon="6.11401">
        <ele>930</ele>
        <time>2021-04-17T14:04:07Z</time>
      </trkpt>
      <trkpt lat="46.04674" lon="6.11396">
        <ele>930.2</ele>
        <time>2021-04-17T14:04:08Z</time>
      </trkpt>
      <trkpt lat="46.04673" lon="6.11391">
        <ele>930.4</ele>
        <time>2021-04-17T14:04:09Z</time>
      </trkpt>
      <trkpt lat="46.04672" lon="6.11386">
        <ele>930.4</ele>
        <time>2021-04-17T14:04:10Z</time>
      </trkpt>
      <trkpt lat="46.04671" lon="6.11381">
        <ele>930.4</ele>
        <time>2021-04-17T14:04:11Z</time>
      </trkpt>
      <trkpt lat="46.04669" lon="6.11376">
        <ele>930.6</ele>
        <time>2021-04-17T14:04:12Z</time>
      </trkpt>
      <trkpt lat="46.04668" lon="6.11371">
        <ele>930.8</ele>
        <time>2021-04-17T14:04:13Z</time>
      </trkpt>
      <trkpt lat="46.04666" lon="6.11366">
        <ele>930.8</ele>
        <time>2021-04-17T14:04:14Z</time>
      </trkpt>
      <trkpt lat="46.04665" lon="6.11362">
        <ele>930.8</ele>
        <time>2021-04-17T14:04:15Z</time>
      </trkpt>
      <trkpt lat="46.04664" lon="6.11357">
        <ele>931</ele>
        <time>2021-04-17T14:04:16Z</time>
      </trkpt>
      <trkpt lat="46.04663" lon="6.11352">
        <ele>931</ele>
        <time>2021-04-17T14:04:17Z</time>
      </trkpt>
      <trkpt lat="46.04662" lon="6.11347">
        <ele>931</ele>
        <time>2021-04-17T14:04:18Z</time>
      </trkpt>
      <trkpt lat="46.04661" lon="6.11342">
        <ele>931.2</ele>
        <time>2021-04-17T14:04:19Z</time>
      </trkpt>
      <trkpt lat="46.04661" lon="6.11337">
        <ele>931.4</ele>
        <time>2021-04-17T14:04:20Z</time>
      </trkpt>
      <trkpt lat="46.0466" lon="6.11332">
        <ele>931.8</ele>
        <time>2021-04-17T14:04:21Z</time>
      </trkpt>
      <trkpt lat="46.04659" lon="6.11328">
        <ele>931.6</ele>
        <time>2021-04-17T14:04:22Z</time>
      </trkpt>
      <trkpt lat="46.04658" lon="6.11323">
        <ele>931.8</ele>
        <time>2021-04-17T14:04:23Z</time>
      </trkpt>
      <trkpt lat="46.04657" lon="6.11317">
        <ele>931.8</ele>
        <time>2021-04-17T14:04:24Z</time>
      </trkpt>
      <trkpt lat="46.04657" lon="6.11311">
        <ele>931.8</ele>
        <time>2021-04-17T14:04:25Z</time>
      </trkpt>
      <trkpt lat="46.04656" lon="6.11306">
        <ele>932</ele>
        <time>2021-04-17T14:04:26Z</time>
      </trkpt>
      <trkpt lat="46.04656" lon="6.113">
        <ele>932</ele>
        <time>2021-04-17T14:04:27Z</time>
      </trkpt>
      <trkpt lat="46.04656" lon="6.11295">
        <ele>932</ele>
        <time>2021-04-17T14:04:28Z</time>
      </trkpt>
      <trkpt lat="46.04656" lon="6.11289">
        <ele>932</ele>
        <time>2021-04-17T14:04:29Z</time>
      </trkpt>
      <trkpt lat="46.04657" lon="6.11284">
        <ele>932</ele>
        <time>2021-04-17T14:04:30Z</time>
      </trkpt>
      <trkpt lat="46.04657" lon="6.11278">
        <ele>932.2</ele>
        <time>2021-04-17T14:04:31Z</time>
      </trkpt>
      <trkpt lat="46.04659" lon="6.11273">
        <ele>932.2</ele>
        <time>2021-04-17T14:04:32Z</time>
      </trkpt>
      <trkpt lat="46.0466" lon="6.11268">
        <ele>932.4</ele>
        <time>2021-04-17T14:04:33Z</time>
      </trkpt>
      <trkpt lat="46.04662" lon="6.11264">
        <ele>932.4</ele>
        <time>2021-04-17T14:04:34Z</time>
      </trkpt>
      <trkpt lat="46.04665" lon="6.1126">
        <ele>932.4</ele>
        <time>2021-04-17T14:04:35Z</time>
      </trkpt>
      <trkpt lat="46.04668" lon="6.11257">
        <ele>932.6</ele>
        <time>2021-04-17T14:04:36Z</time>
      </trkpt>
      <trkpt lat="46.0467" lon="6.11253">
        <ele>932.8</ele>
        <time>2021-04-17T14:04:37Z</time>
      </trkpt>
      <trkpt lat="46.04673" lon="6.1125">
        <ele>933.2</ele>
        <time>2021-04-17T14:04:38Z</time>
      </trkpt>
      <trkpt lat="46.04676" lon="6.11246">
        <ele>933</ele>
        <time>2021-04-17T14:04:39Z</time>
      </trkpt>
      <trkpt lat="46.04679" lon="6.11244">
        <ele>933.2</ele>
        <time>2021-04-17T14:04:40Z</time>
      </trkpt>
      <trkpt lat="46.04683" lon="6.11241">
        <ele>933.4</ele>
        <time>2021-04-17T14:04:41Z</time>
      </trkpt>
      <trkpt lat="46.04686" lon="6.11239">
        <ele>933.6</ele>
        <time>2021-04-17T14:04:42Z</time>
      </trkpt>
      <trkpt lat="46.0469" lon="6.11236">
        <ele>933.8</ele>
        <time>2021-04-17T14:04:43Z</time>
      </trkpt>
      <trkpt lat="46.04693" lon="6.11234">
        <ele>933.8</ele>
        <time>2021-04-17T14:04:44Z</time>
      </trkpt>
      <trkpt lat="46.04696" lon="6.11231">
        <ele>934</ele>
        <time>2021-04-17T14:04:45Z</time>
      </trkpt>
      <trkpt lat="46.04698" lon="6.11228">
        <ele>934.4</ele>
        <time>2021-04-17T14:04:46Z</time>
      </trkpt>
      <trkpt lat="46.04701" lon="6.11225">
        <ele>935</ele>
        <time>2021-04-17T14:04:47Z</time>
      </trkpt>
      <trkpt lat="46.04704" lon="6.11221">
        <ele>935.4</ele>
        <time>2021-04-17T14:04:48Z</time>
      </trkpt>
      <trkpt lat="46.04707" lon="6.11218">
        <ele>935.8</ele>
        <time>2021-04-17T14:04:49Z</time>
      </trkpt>
      <trkpt lat="46.0471" lon="6.11214">
        <ele>936</ele>
        <time>2021-04-17T14:04:50Z</time>
      </trkpt>
      <trkpt lat="46.04712" lon="6.11209">
        <ele>936.2</ele>
        <time>2021-04-17T14:04:51Z</time>
      </trkpt>
      <trkpt lat="46.04714" lon="6.11204">
        <ele>936.2</ele>
        <time>2021-04-17T14:04:52Z</time>
      </trkpt>
      <trkpt lat="46.04716" lon="6.112">
        <ele>936.4</ele>
        <time>2021-04-17T14:04:53Z</time>
      </trkpt>
      <trkpt lat="46.04718" lon="6.11195">
        <ele>936.6</ele>
        <time>2021-04-17T14:04:54Z</time>
      </trkpt>
      <trkpt lat="46.04719" lon="6.1119">
        <ele>936.6</ele>
        <time>2021-04-17T14:04:55Z</time>
      </trkpt>
      <trkpt lat="46.0472" lon="6.11186">
        <ele>936.6</ele>
        <time>2021-04-17T14:04:56Z</time>
      </trkpt>
      <trkpt lat="46.04721" lon="6.11181">
        <ele>936.6</ele>
        <time>2021-04-17T14:04:57Z</time>
      </trkpt>
      <trkpt lat="46.04723" lon="6.11176">
        <ele>936.8</ele>
        <time>2021-04-17T14:04:58Z</time>
      </trkpt>
      <trkpt lat="46.04725" lon="6.11172">
        <ele>937</ele>
        <time>2021-04-17T14:04:59Z</time>
      </trkpt>
      <trkpt lat="46.04727" lon="6.11167">
        <ele>937.2</ele>
        <time>2021-04-17T14:05:00Z</time>
      </trkpt>
      <trkpt lat="46.04729" lon="6.11164">
        <ele>937.6</ele>
        <time>2021-04-17T14:05:01Z</time>
      </trkpt>
      <trkpt lat="46.04731" lon="6.11162">
        <ele>938</ele>
        <time>2021-04-17T14:05:02Z</time>
      </trkpt>
      <trkpt lat="46.04734" lon="6.11159">
        <ele>938.2</ele>
        <time>2021-04-17T14:05:03Z</time>
      </trkpt>
      <trkpt lat="46.04736" lon="6.11156">
        <ele>938.4</ele>
        <time>2021-04-17T14:05:04Z</time>
      </trkpt>
      <trkpt lat="46.04739" lon="6.11153">
        <ele>938.6</ele>
        <time>2021-04-17T14:05:05Z</time>
      </trkpt>
      <trkpt lat="46.04742" lon="6.11151">
        <ele>938.8</ele>
        <time>2021-04-17T14:05:06Z</time>
      </trkpt>
      <trkpt lat="46.04744" lon="6.11149">
        <ele>938.8</ele>
        <time>2021-04-17T14:05:07Z</time>
      </trkpt>
      <trkpt lat="46.04747" lon="6.11146">
        <ele>939</ele>
        <time>2021-04-17T14:05:08Z</time>
      </trkpt>
      <trkpt lat="46.0475" lon="6.11144">
        <ele>939</ele>
        <time>2021-04-17T14:05:09Z</time>
      </trkpt>
      <trkpt lat="46.04753" lon="6.11142">
        <ele>939.2</ele>
        <time>2021-04-17T14:05:10Z</time>
      </trkpt>
      <trkpt lat="46.04755" lon="6.1114">
        <ele>939.4</ele>
        <time>2021-04-17T14:05:11Z</time>
      </trkpt>
      <trkpt lat="46.04758" lon="6.11139">
        <ele>939.6</ele>
        <time>2021-04-17T14:05:12Z</time>
      </trkpt>
      <trkpt lat="46.04761" lon="6.11137">
        <ele>940</ele>
        <time>2021-04-17T14:05:13Z</time>
      </trkpt>
      <trkpt lat="46.04763" lon="6.11135">
        <ele>940.2</ele>
        <time>2021-04-17T14:05:14Z</time>
      </trkpt>
      <trkpt lat="46.04766" lon="6.11132">
        <ele>940.4</ele>
        <time>2021-04-17T14:05:15Z</time>
      </trkpt>
      <trkpt lat="46.04769" lon="6.1113">
        <ele>940.4</ele>
        <time>2021-04-17T14:05:16Z</time>
      </trkpt>
      <trkpt lat="46.04771" lon="6.11128">
        <ele>940.6</ele>
        <time>2021-04-17T14:05:17Z</time>
      </trkpt>
      <trkpt lat="46.04774" lon="6.11125">
        <ele>940.8</ele>
        <time>2021-04-17T14:05:18Z</time>
      </trkpt>
      <trkpt lat="46.04777" lon="6.11123">
        <ele>940.8</ele>
        <time>2021-04-17T14:05:19Z</time>
      </trkpt>
      <trkpt lat="46.04779" lon="6.1112">
        <ele>941</ele>
        <time>2021-04-17T14:05:20Z</time>
      </trkpt>
      <trkpt lat="46.04781" lon="6.11117">
        <ele>941.2</ele>
        <time>2021-04-17T14:05:21Z</time>
      </trkpt>
      <trkpt lat="46.04784" lon="6.11114">
        <ele>941.2</ele>
        <time>2021-04-17T14:05:22Z</time>
      </trkpt>
      <trkpt lat="46.04786" lon="6.11111">
        <ele>941.4</ele>
        <time>2021-04-17T14:05:23Z</time>
      </trkpt>
      <trkpt lat="46.04789" lon="6.11108">
        <ele>941.8</ele>
        <time>2021-04-17T14:05:24Z</time>
      </trkpt>
      <trkpt lat="46.04791" lon="6.11104">
        <ele>942.2</ele>
        <time>2021-04-17T14:05:25Z</time>
      </trkpt>
      <trkpt lat="46.04793" lon="6.11101">
        <ele>942.6</ele>
        <time>2021-04-17T14:05:26Z</time>
      </trkpt>
      <trkpt lat="46.04796" lon="6.11098">
        <ele>942.8</ele>
        <time>2021-04-17T14:05:27Z</time>
      </trkpt>
      <trkpt lat="46.04798" lon="6.11094">
        <ele>943.2</ele>
        <time>2021-04-17T14:05:28Z</time>
      </trkpt>
      <trkpt lat="46.04801" lon="6.11091">
        <ele>943.6</ele>
        <time>2021-04-17T14:05:29Z</time>
      </trkpt>
      <trkpt lat="46.04803" lon="6.11087">
        <ele>943.6</ele>
        <time>2021-04-17T14:05:30Z</time>
      </trkpt>
      <trkpt lat="46.04805" lon="6.11083">
        <ele>944</ele>
        <time>2021-04-17T14:05:31Z</time>
      </trkpt>
      <trkpt lat="46.04807" lon="6.1108">
        <ele>944</ele>
        <time>2021-04-17T14:05:32Z</time>
      </trkpt>
      <trkpt lat="46.04809" lon="6.11075">
        <ele>944.2</ele>
        <time>2021-04-17T14:05:33Z</time>
      </trkpt>
      <trkpt lat="46.04811" lon="6.11072">
        <ele>944.6</ele>
        <time>2021-04-17T14:05:34Z</time>
      </trkpt>
      <trkpt lat="46.04812" lon="6.11068">
        <ele>944.8</ele>
        <time>2021-04-17T14:05:35Z</time>
      </trkpt>
      <trkpt lat="46.04814" lon="6.11065">
        <ele>945</ele>
        <time>2021-04-17T14:05:36Z</time>
      </trkpt>
      <trkpt lat="46.04817" lon="6.11062">
        <ele>945.2</ele>
        <time>2021-04-17T14:05:37Z</time>
      </trkpt>
      <trkpt lat="46.04819" lon="6.11059">
        <ele>945.4</ele>
        <time>2021-04-17T14:05:38Z</time>
      </trkpt>
      <trkpt lat="46.04821" lon="6.11055">
        <ele>945.8</ele>
        <time>2021-04-17T14:05:39Z</time>
      </trkpt>
      <trkpt lat="46.04824" lon="6.11053">
        <ele>945.8</ele>
        <time>2021-04-17T14:05:40Z</time>
      </trkpt>
      <trkpt lat="46.04827" lon="6.1105">
        <ele>946</ele>
        <time>2021-04-17T14:05:41Z</time>
      </trkpt>
      <trkpt lat="46.04829" lon="6.11046">
        <ele>946.4</ele>
        <time>2021-04-17T14:05:42Z</time>
      </trkpt>
      <trkpt lat="46.04832" lon="6.11043">
        <ele>947</ele>
        <time>2021-04-17T14:05:43Z</time>
      </trkpt>
      <trkpt lat="46.04834" lon="6.11041">
        <ele>947.6</ele>
        <time>2021-04-17T14:05:44Z</time>
      </trkpt>
      <trkpt lat="46.04837" lon="6.11038">
        <ele>947.8</ele>
        <time>2021-04-17T14:05:45Z</time>
      </trkpt>
      <trkpt lat="46.04839" lon="6.11035">
        <ele>948</ele>
        <time>2021-04-17T14:05:46Z</time>
      </trkpt>
      <trkpt lat="46.04842" lon="6.11033">
        <ele>948.2</ele>
        <time>2021-04-17T14:05:47Z</time>
      </trkpt>
      <trkpt lat="46.04844" lon="6.1103">
        <ele>948.2</ele>
        <time>2021-04-17T14:05:48Z</time>
      </trkpt>
      <trkpt lat="46.04847" lon="6.11028">
        <ele>948.4</ele>
        <time>2021-04-17T14:05:49Z</time>
      </trkpt>
      <trkpt lat="46.04849" lon="6.11025">
        <ele>948.4</ele>
        <time>2021-04-17T14:05:50Z</time>
      </trkpt>
      <trkpt lat="46.04852" lon="6.11022">
        <ele>948.8</ele>
        <time>2021-04-17T14:05:51Z</time>
      </trkpt>
      <trkpt lat="46.04854" lon="6.11019">
        <ele>949</ele>
        <time>2021-04-17T14:05:52Z</time>
      </trkpt>
      <trkpt lat="46.04856" lon="6.11016">
        <ele>949</ele>
        <time>2021-04-17T14:05:53Z</time>
      </trkpt>
      <trkpt lat="46.04859" lon="6.11014">
        <ele>949.4</ele>
        <time>2021-04-17T14:05:54Z</time>
      </trkpt>
      <trkpt lat="46.04861" lon="6.11011">
        <ele>949.4</ele>
        <time>2021-04-17T14:05:55Z</time>
      </trkpt>
      <trkpt lat="46.04864" lon="6.11009">
        <ele>949.4</ele>
        <time>2021-04-17T14:05:56Z</time>
      </trkpt>
      <trkpt lat="46.04866" lon="6.11006">
        <ele>949.8</ele>
        <time>2021-04-17T14:05:57Z</time>
      </trkpt>
      <trkpt lat="46.04869" lon="6.11004">
        <ele>950.2</ele>
        <time>2021-04-17T14:05:58Z</time>
      </trkpt>
      <trkpt lat="46.04871" lon="6.11001">
        <ele>950.6</ele>
        <time>2021-04-17T14:05:59Z</time>
      </trkpt>
      <trkpt lat="46.04873" lon="6.10998">
        <ele>950.8</ele>
        <time>2021-04-17T14:06:00Z</time>
      </trkpt>
      <trkpt lat="46.04876" lon="6.10995">
        <ele>951</ele>
        <time>2021-04-17T14:06:01Z</time>
      </trkpt>
      <trkpt lat="46.04878" lon="6.10991">
        <ele>951.4</ele>
        <time>2021-04-17T14:06:02Z</time>
      </trkpt>
      <trkpt lat="46.0488" lon="6.10988">
        <ele>951.8</ele>
        <time>2021-04-17T14:06:03Z</time>
      </trkpt>
      <trkpt lat="46.04883" lon="6.10984">
        <ele>952.2</ele>
        <time>2021-04-17T14:06:04Z</time>
      </trkpt>
      <trkpt lat="46.04885" lon="6.10981">
        <ele>952.4</ele>
        <time>2021-04-17T14:06:05Z</time>
      </trkpt>
      <trkpt lat="46.04887" lon="6.10977">
        <ele>952.8</ele>
        <time>2021-04-17T14:06:06Z</time>
      </trkpt>
      <trkpt lat="46.04889" lon="6.10973">
        <ele>953</ele>
        <time>2021-04-17T14:06:07Z</time>
      </trkpt>
      <trkpt lat="46.04892" lon="6.10969">
        <ele>953.2</ele>
        <time>2021-04-17T14:06:08Z</time>
      </trkpt>
      <trkpt lat="46.04894" lon="6.10966">
        <ele>953.4</ele>
        <time>2021-04-17T14:06:09Z</time>
      </trkpt>
      <trkpt lat="46.04896" lon="6.10963">
        <ele>953.4</ele>
        <time>2021-04-17T14:06:10Z</time>
      </trkpt>
      <trkpt lat="46.04899" lon="6.10959">
        <ele>953.4</ele>
        <time>2021-04-17T14:06:11Z</time>
      </trkpt>
      <trkpt lat="46.04901" lon="6.10956">
        <ele>953.6</ele>
        <time>2021-04-17T14:06:12Z</time>
      </trkpt>
      <trkpt lat="46.04904" lon="6.10955">
        <ele>953.6</ele>
        <time>2021-04-17T14:06:13Z</time>
      </trkpt>
      <trkpt lat="46.04906" lon="6.10952">
        <ele>953.8</ele>
        <time>2021-04-17T14:06:14Z</time>
      </trkpt>
      <trkpt lat="46.04909" lon="6.1095">
        <ele>954</ele>
        <time>2021-04-17T14:06:15Z</time>
      </trkpt>
      <trkpt lat="46.04911" lon="6.10948">
        <ele>954.2</ele>
        <time>2021-04-17T14:06:16Z</time>
      </trkpt>
      <trkpt lat="46.04914" lon="6.10946">
        <ele>954.4</ele>
        <time>2021-04-17T14:06:17Z</time>
      </trkpt>
      <trkpt lat="46.04917" lon="6.10944">
        <ele>954.4</ele>
        <time>2021-04-17T14:06:18Z</time>
      </trkpt>
      <trkpt lat="46.0492" lon="6.10943">
        <ele>954.8</ele>
        <time>2021-04-17T14:06:19Z</time>
      </trkpt>
      <trkpt lat="46.04922" lon="6.10943">
        <ele>955</ele>
        <time>2021-04-17T14:06:20Z</time>
      </trkpt>
      <trkpt lat="46.04925" lon="6.10942">
        <ele>955.2</ele>
        <time>2021-04-17T14:06:21Z</time>
      </trkpt>
      <trkpt lat="46.04928" lon="6.10942">
        <ele>955.4</ele>
        <time>2021-04-17T14:06:22Z</time>
      </trkpt>
      <trkpt lat="46.04931" lon="6.10942">
        <ele>955.8</ele>
        <time>2021-04-17T14:06:23Z</time>
      </trkpt>
      <trkpt lat="46.04933" lon="6.10943">
        <ele>956</ele>
        <time>2021-04-17T14:06:24Z</time>
      </trkpt>
      <trkpt lat="46.04935" lon="6.10943">
        <ele>956.2</ele>
        <time>2021-04-17T14:06:25Z</time>
      </trkpt>
      <trkpt lat="46.04937" lon="6.10943">
        <ele>956.2</ele>
        <time>2021-04-17T14:06:26Z</time>
      </trkpt>
      <trkpt lat="46.04939" lon="6.10944">
        <ele>956.2</ele>
        <time>2021-04-17T14:06:27Z</time>
      </trkpt>
      <trkpt lat="46.0494" lon="6.10944">
        <ele>956.4</ele>
        <time>2021-04-17T14:06:28Z</time>
      </trkpt>
      <trkpt lat="46.04942" lon="6.10945">
        <ele>956.6</ele>
        <time>2021-04-17T14:06:29Z</time>
      </trkpt>
      <trkpt lat="46.04944" lon="6.10946">
        <ele>956.8</ele>
        <time>2021-04-17T14:06:30Z</time>
      </trkpt>
      <trkpt lat="46.04946" lon="6.10948">
        <ele>957</ele>
        <time>2021-04-17T14:06:31Z</time>
      </trkpt>
      <trkpt lat="46.04948" lon="6.10949">
        <ele>957</ele>
        <time>2021-04-17T14:06:32Z</time>
      </trkpt>
      <trkpt lat="46.0495" lon="6.1095">
        <ele>957.2</ele>
        <time>2021-04-17T14:06:33Z</time>
      </trkpt>
      <trkpt lat="46.04953" lon="6.10951">
        <ele>957.4</ele>
        <time>2021-04-17T14:06:34Z</time>
      </trkpt>
      <trkpt lat="46.04954" lon="6.10952">
        <ele>957.6</ele>
        <time>2021-04-17T14:06:35Z</time>
      </trkpt>
      <trkpt lat="46.04956" lon="6.10954">
        <ele>957.6</ele>
        <time>2021-04-17T14:06:36Z</time>
      </trkpt>
      <trkpt lat="46.04957" lon="6.10955">
        <ele>957.8</ele>
        <time>2021-04-17T14:06:37Z</time>
      </trkpt>
      <trkpt lat="46.04959" lon="6.10956">
        <ele>957.8</ele>
        <time>2021-04-17T14:06:38Z</time>
      </trkpt>
      <trkpt lat="46.04961" lon="6.10958">
        <ele>958.2</ele>
        <time>2021-04-17T14:06:39Z</time>
      </trkpt>
      <trkpt lat="46.04963" lon="6.10959">
        <ele>958.4</ele>
        <time>2021-04-17T14:06:40Z</time>
      </trkpt>
      <trkpt lat="46.04966" lon="6.10961">
        <ele>958.8</ele>
        <time>2021-04-17T14:06:41Z</time>
      </trkpt>
      <trkpt lat="46.04968" lon="6.10962">
        <ele>959</ele>
        <time>2021-04-17T14:06:42Z</time>
      </trkpt>
      <trkpt lat="46.0497" lon="6.10963">
        <ele>959.2</ele>
        <time>2021-04-17T14:06:43Z</time>
      </trkpt>
      <trkpt lat="46.04972" lon="6.10964">
        <ele>959.2</ele>
        <time>2021-04-17T14:06:44Z</time>
      </trkpt>
      <trkpt lat="46.04973" lon="6.10965">
        <ele>959.6</ele>
        <time>2021-04-17T14:06:45Z</time>
      </trkpt>
      <trkpt lat="46.04976" lon="6.10967">
        <ele>959.6</ele>
        <time>2021-04-17T14:06:46Z</time>
      </trkpt>
      <trkpt lat="46.04978" lon="6.10968">
        <ele>959.8</ele>
        <time>2021-04-17T14:06:47Z</time>
      </trkpt>
      <trkpt lat="46.04981" lon="6.1097">
        <ele>960</ele>
        <time>2021-04-17T14:06:48Z</time>
      </trkpt>
      <trkpt lat="46.04983" lon="6.10971">
        <ele>960</ele>
        <time>2021-04-17T14:06:49Z</time>
      </trkpt>
      <trkpt lat="46.04985" lon="6.10973">
        <ele>960</ele>
        <time>2021-04-17T14:06:50Z</time>
      </trkpt>
      <trkpt lat="46.04987" lon="6.10975">
        <ele>960.2</ele>
        <time>2021-04-17T14:06:51Z</time>
      </trkpt>
      <trkpt lat="46.0499" lon="6.10976">
        <ele>960.2</ele>
        <time>2021-04-17T14:06:52Z</time>
      </trkpt>
      <trkpt lat="46.04992" lon="6.10977">
        <ele>960.2</ele>
        <time>2021-04-17T14:06:53Z</time>
      </trkpt>
      <trkpt lat="46.04994" lon="6.10978">
        <ele>960.4</ele>
        <time>2021-04-17T14:06:54Z</time>
      </trkpt>
      <trkpt lat="46.04996" lon="6.10979">
        <ele>960.6</ele>
        <time>2021-04-17T14:06:55Z</time>
      </trkpt>
      <trkpt lat="46.04999" lon="6.10981">
        <ele>961</ele>
        <time>2021-04-17T14:06:56Z</time>
      </trkpt>
      <trkpt lat="46.05001" lon="6.10982">
        <ele>961.4</ele>
        <time>2021-04-17T14:06:57Z</time>
      </trkpt>
      <trkpt lat="46.05004" lon="6.10984">
        <ele>961.8</ele>
        <time>2021-04-17T14:06:58Z</time>
      </trkpt>
      <trkpt lat="46.05007" lon="6.10985">
        <ele>962.2</ele>
        <time>2021-04-17T14:06:59Z</time>
      </trkpt>
      <trkpt lat="46.0501" lon="6.10987">
        <ele>962.8</ele>
        <time>2021-04-17T14:07:00Z</time>
      </trkpt>
      <trkpt lat="46.05012" lon="6.10988">
        <ele>963.2</ele>
        <time>2021-04-17T14:07:01Z</time>
      </trkpt>
      <trkpt lat="46.05015" lon="6.1099">
        <ele>963.6</ele>
        <time>2021-04-17T14:07:02Z</time>
      </trkpt>
      <trkpt lat="46.05018" lon="6.10991">
        <ele>963.8</ele>
        <time>2021-04-17T14:07:03Z</time>
      </trkpt>
      <trkpt lat="46.05021" lon="6.10991">
        <ele>964.2</ele>
        <time>2021-04-17T14:07:04Z</time>
      </trkpt>
      <trkpt lat="46.05023" lon="6.10991">
        <ele>964.4</ele>
        <time>2021-04-17T14:07:05Z</time>
      </trkpt>
      <trkpt lat="46.05026" lon="6.1099">
        <ele>964.8</ele>
        <time>2021-04-17T14:07:06Z</time>
      </trkpt>
      <trkpt lat="46.05029" lon="6.10988">
        <ele>965.2</ele>
        <time>2021-04-17T14:07:07Z</time>
      </trkpt>
      <trkpt lat="46.05032" lon="6.10985">
        <ele>965.2</ele>
        <time>2021-04-17T14:07:08Z</time>
      </trkpt>
      <trkpt lat="46.05034" lon="6.10983">
        <ele>965.4</ele>
        <time>2021-04-17T14:07:09Z</time>
      </trkpt>
      <trkpt lat="46.05036" lon="6.10981">
        <ele>965.6</ele>
        <time>2021-04-17T14:07:10Z</time>
      </trkpt>
      <trkpt lat="46.05038" lon="6.10979">
        <ele>965.8</ele>
        <time>2021-04-17T14:07:11Z</time>
      </trkpt>
      <trkpt lat="46.0504" lon="6.10978">
        <ele>965.8</ele>
        <time>2021-04-17T14:07:12Z</time>
      </trkpt>
      <trkpt lat="46.05041" lon="6.10975">
        <ele>965.8</ele>
        <time>2021-04-17T14:07:13Z</time>
      </trkpt>
      <trkpt lat="46.05043" lon="6.10973">
        <ele>966</ele>
        <time>2021-04-17T14:07:14Z</time>
      </trkpt>
      <trkpt lat="46.05044" lon="6.1097">
        <ele>966</ele>
        <time>2021-04-17T14:07:15Z</time>
      </trkpt>
      <trkpt lat="46.05044" lon="6.10968">
        <ele>966.2</ele>
        <time>2021-04-17T14:07:16Z</time>
      </trkpt>
      <trkpt lat="46.05045" lon="6.10965">
        <ele>966.4</ele>
        <time>2021-04-17T14:07:17Z</time>
      </trkpt>
      <trkpt lat="46.05046" lon="6.10962">
        <ele>966.4</ele>
        <time>2021-04-17T14:07:18Z</time>
      </trkpt>
      <trkpt lat="46.05046" lon="6.10959">
        <ele>966.6</ele>
        <time>2021-04-17T14:07:19Z</time>
      </trkpt>
      <trkpt lat="46.05046" lon="6.10955">
        <ele>967</ele>
        <time>2021-04-17T14:07:20Z</time>
      </trkpt>
      <trkpt lat="46.05045" lon="6.10952">
        <ele>967</ele>
        <time>2021-04-17T14:07:21Z</time>
      </trkpt>
      <trkpt lat="46.05043" lon="6.10948">
        <ele>967.4</ele>
        <time>2021-04-17T14:07:22Z</time>
      </trkpt>
      <trkpt lat="46.05041" lon="6.10945">
        <ele>967.6</ele>
        <time>2021-04-17T14:07:23Z</time>
      </trkpt>
      <trkpt lat="46.05039" lon="6.10942">
        <ele>967.6</ele>
        <time>2021-04-17T14:07:24Z</time>
      </trkpt>
      <trkpt lat="46.05037" lon="6.10939">
        <ele>967.8</ele>
        <time>2021-04-17T14:07:25Z</time>
      </trkpt>
      <trkpt lat="46.05034" lon="6.10936">
        <ele>968</ele>
        <time>2021-04-17T14:07:26Z</time>
      </trkpt>
      <trkpt lat="46.05032" lon="6.10934">
        <ele>967.8</ele>
        <time>2021-04-17T14:07:27Z</time>
      </trkpt>
      <trkpt lat="46.05029" lon="6.1093">
        <ele>968</ele>
        <time>2021-04-17T14:07:28Z</time>
      </trkpt>
      <trkpt lat="46.05027" lon="6.10927">
        <ele>968.2</ele>
        <time>2021-04-17T14:07:29Z</time>
      </trkpt>
      <trkpt lat="46.05025" lon="6.10924">
        <ele>968.4</ele>
        <time>2021-04-17T14:07:30Z</time>
      </trkpt>
      <trkpt lat="46.05023" lon="6.10921">
        <ele>968.6</ele>
        <time>2021-04-17T14:07:31Z</time>
      </trkpt>
      <trkpt lat="46.05022" lon="6.10917">
        <ele>968.6</ele>
        <time>2021-04-17T14:07:32Z</time>
      </trkpt>
      <trkpt lat="46.0502" lon="6.10912">
        <ele>969</ele>
        <time>2021-04-17T14:07:33Z</time>
      </trkpt>
      <trkpt lat="46.05019" lon="6.10908">
        <ele>969.2</ele>
        <time>2021-04-17T14:07:34Z</time>
      </trkpt>
      <trkpt lat="46.05018" lon="6.10903">
        <ele>969.4</ele>
        <time>2021-04-17T14:07:35Z</time>
      </trkpt>
      <trkpt lat="46.05018" lon="6.10898">
        <ele>969.4</ele>
        <time>2021-04-17T14:07:36Z</time>
      </trkpt>
      <trkpt lat="46.05018" lon="6.10893">
        <ele>969.6</ele>
        <time>2021-04-17T14:07:37Z</time>
      </trkpt>
      <trkpt lat="46.05018" lon="6.10888">
        <ele>969.6</ele>
        <time>2021-04-17T14:07:38Z</time>
      </trkpt>
      <trkpt lat="46.05019" lon="6.10883">
        <ele>969.8</ele>
        <time>2021-04-17T14:07:39Z</time>
      </trkpt>
      <trkpt lat="46.05019" lon="6.10878">
        <ele>969.8</ele>
        <time>2021-04-17T14:07:40Z</time>
      </trkpt>
      <trkpt lat="46.0502" lon="6.10873">
        <ele>970.2</ele>
        <time>2021-04-17T14:07:41Z</time>
      </trkpt>
      <trkpt lat="46.05021" lon="6.10868">
        <ele>970.2</ele>
        <time>2021-04-17T14:07:42Z</time>
      </trkpt>
      <trkpt lat="46.05021" lon="6.10863">
        <ele>970.4</ele>
        <time>2021-04-17T14:07:43Z</time>
      </trkpt>
      <trkpt lat="46.05022" lon="6.10858">
        <ele>970.6</ele>
        <time>2021-04-17T14:07:44Z</time>
      </trkpt>
      <trkpt lat="46.05023" lon="6.10854">
        <ele>970.6</ele>
        <time>2021-04-17T14:07:45Z</time>
      </trkpt>
      <trkpt lat="46.05024" lon="6.10849">
        <ele>970.8</ele>
        <time>2021-04-17T14:07:46Z</time>
      </trkpt>
      <trkpt lat="46.05025" lon="6.10844">
        <ele>970.8</ele>
        <time>2021-04-17T14:07:47Z</time>
      </trkpt>
      <trkpt lat="46.05026" lon="6.1084">
        <ele>971.2</ele>
        <time>2021-04-17T14:07:48Z</time>
      </trkpt>
      <trkpt lat="46.05028" lon="6.10836">
        <ele>971.2</ele>
        <time>2021-04-17T14:07:49Z</time>
      </trkpt>
      <trkpt lat="46.05029" lon="6.10832">
        <ele>971.4</ele>
        <time>2021-04-17T14:07:50Z</time>
      </trkpt>
      <trkpt lat="46.05031" lon="6.10828">
        <ele>971.4</ele>
        <time>2021-04-17T14:07:51Z</time>
      </trkpt>
      <trkpt lat="46.05034" lon="6.10826">
        <ele>971.4</ele>
        <time>2021-04-17T14:07:52Z</time>
      </trkpt>
      <trkpt lat="46.05036" lon="6.10823">
        <ele>971.8</ele>
        <time>2021-04-17T14:07:53Z</time>
      </trkpt>
      <trkpt lat="46.05039" lon="6.10821">
        <ele>972.2</ele>
        <time>2021-04-17T14:07:54Z</time>
      </trkpt>
      <trkpt lat="46.05041" lon="6.10819">
        <ele>972.4</ele>
        <time>2021-04-17T14:07:55Z</time>
      </trkpt>
      <trkpt lat="46.05044" lon="6.10817">
        <ele>972.6</ele>
        <time>2021-04-17T14:07:56Z</time>
      </trkpt>
      <trkpt lat="46.05047" lon="6.10816">
        <ele>972.6</ele>
        <time>2021-04-17T14:07:57Z</time>
      </trkpt>
      <trkpt lat="46.0505" lon="6.10815">
        <ele>972.6</ele>
        <time>2021-04-17T14:07:58Z</time>
      </trkpt>
      <trkpt lat="46.05052" lon="6.10814">
        <ele>972.8</ele>
        <time>2021-04-17T14:07:59Z</time>
      </trkpt>
      <trkpt lat="46.05055" lon="6.10813">
        <ele>972.8</ele>
        <time>2021-04-17T14:08:00Z</time>
      </trkpt>
      <trkpt lat="46.05058" lon="6.10811">
        <ele>973</ele>
        <time>2021-04-17T14:08:01Z</time>
      </trkpt>
      <trkpt lat="46.05061" lon="6.1081">
        <ele>973</ele>
        <time>2021-04-17T14:08:02Z</time>
      </trkpt>
      <trkpt lat="46.05064" lon="6.1081">
        <ele>973.2</ele>
        <time>2021-04-17T14:08:03Z</time>
      </trkpt>
      <trkpt lat="46.05067" lon="6.10809">
        <ele>973.2</ele>
        <time>2021-04-17T14:08:04Z</time>
      </trkpt>
      <trkpt lat="46.05069" lon="6.10809">
        <ele>973.4</ele>
        <time>2021-04-17T14:08:05Z</time>
      </trkpt>
      <trkpt lat="46.05072" lon="6.10808">
        <ele>973.6</ele>
        <time>2021-04-17T14:08:06Z</time>
      </trkpt>
      <trkpt lat="46.05075" lon="6.10808">
        <ele>973.8</ele>
        <time>2021-04-17T14:08:07Z</time>
      </trkpt>
      <trkpt lat="46.05078" lon="6.10807">
        <ele>974</ele>
        <time>2021-04-17T14:08:08Z</time>
      </trkpt>
      <trkpt lat="46.0508" lon="6.10806">
        <ele>974.4</ele>
        <time>2021-04-17T14:08:09Z</time>
      </trkpt>
      <trkpt lat="46.05083" lon="6.10805">
        <ele>974.6</ele>
        <time>2021-04-17T14:08:10Z</time>
      </trkpt>
      <trkpt lat="46.05086" lon="6.10804">
        <ele>975</ele>
        <time>2021-04-17T14:08:11Z</time>
      </trkpt>
      <trkpt lat="46.05089" lon="6.10803">
        <ele>975.4</ele>
        <time>2021-04-17T14:08:12Z</time>
      </trkpt>
      <trkpt lat="46.05091" lon="6.10802">
        <ele>975.6</ele>
        <time>2021-04-17T14:08:13Z</time>
      </trkpt>
      <trkpt lat="46.05094" lon="6.10801">
        <ele>976</ele>
        <time>2021-04-17T14:08:14Z</time>
      </trkpt>
      <trkpt lat="46.05096" lon="6.108">
        <ele>976</ele>
        <time>2021-04-17T14:08:15Z</time>
      </trkpt>
      <trkpt lat="46.05099" lon="6.10798">
        <ele>976.2</ele>
        <time>2021-04-17T14:08:16Z</time>
      </trkpt>
      <trkpt lat="46.05101" lon="6.10797">
        <ele>976.2</ele>
        <time>2021-04-17T14:08:17Z</time>
      </trkpt>
      <trkpt lat="46.05103" lon="6.10795">
        <ele>976.4</ele>
        <time>2021-04-17T14:08:18Z</time>
      </trkpt>
      <trkpt lat="46.05105" lon="6.10792">
        <ele>976.6</ele>
        <time>2021-04-17T14:08:19Z</time>
      </trkpt>
      <trkpt lat="46.05107" lon="6.1079">
        <ele>976.8</ele>
        <time>2021-04-17T14:08:20Z</time>
      </trkpt>
      <trkpt lat="46.05109" lon="6.10787">
        <ele>977</ele>
        <time>2021-04-17T14:08:21Z</time>
      </trkpt>
      <trkpt lat="46.05111" lon="6.10784">
        <ele>977.2</ele>
        <time>2021-04-17T14:08:22Z</time>
      </trkpt>
      <trkpt lat="46.05113" lon="6.1078">
        <ele>977.4</ele>
        <time>2021-04-17T14:08:23Z</time>
      </trkpt>
      <trkpt lat="46.05114" lon="6.10776">
        <ele>977.4</ele>
        <time>2021-04-17T14:08:24Z</time>
      </trkpt>
      <trkpt lat="46.05115" lon="6.10772">
        <ele>977.6</ele>
        <time>2021-04-17T14:08:25Z</time>
      </trkpt>
      <trkpt lat="46.05116" lon="6.10768">
        <ele>977.8</ele>
        <time>2021-04-17T14:08:26Z</time>
      </trkpt>
      <trkpt lat="46.05117" lon="6.10763">
        <ele>978</ele>
        <time>2021-04-17T14:08:27Z</time>
      </trkpt>
      <trkpt lat="46.05117" lon="6.10759">
        <ele>978.2</ele>
        <time>2021-04-17T14:08:28Z</time>
      </trkpt>
      <trkpt lat="46.05117" lon="6.10754">
        <ele>978.4</ele>
        <time>2021-04-17T14:08:29Z</time>
      </trkpt>
      <trkpt lat="46.05117" lon="6.1075">
        <ele>978.4</ele>
        <time>2021-04-17T14:08:30Z</time>
      </trkpt>
      <trkpt lat="46.05117" lon="6.10745">
        <ele>978.6</ele>
        <time>2021-04-17T14:08:31Z</time>
      </trkpt>
      <trkpt lat="46.05116" lon="6.1074">
        <ele>978.6</ele>
        <time>2021-04-17T14:08:32Z</time>
      </trkpt>
      <trkpt lat="46.05116" lon="6.10736">
        <ele>978.8</ele>
        <time>2021-04-17T14:08:33Z</time>
      </trkpt>
      <trkpt lat="46.05116" lon="6.10731">
        <ele>978.8</ele>
        <time>2021-04-17T14:08:34Z</time>
      </trkpt>
      <trkpt lat="46.05116" lon="6.10726">
        <ele>979</ele>
        <time>2021-04-17T14:08:35Z</time>
      </trkpt>
      <trkpt lat="46.05115" lon="6.10722">
        <ele>979.2</ele>
        <time>2021-04-17T14:08:36Z</time>
      </trkpt>
      <trkpt lat="46.05115" lon="6.10717">
        <ele>979.2</ele>
        <time>2021-04-17T14:08:37Z</time>
      </trkpt>
      <trkpt lat="46.05115" lon="6.10713">
        <ele>979.2</ele>
        <time>2021-04-17T14:08:38Z</time>
      </trkpt>
      <trkpt lat="46.05114" lon="6.10708">
        <ele>979.4</ele>
        <time>2021-04-17T14:08:39Z</time>
      </trkpt>
      <trkpt lat="46.05114" lon="6.10703">
        <ele>979.4</ele>
        <time>2021-04-17T14:08:40Z</time>
      </trkpt>
      <trkpt lat="46.05114" lon="6.10699">
        <ele>979.6</ele>
        <time>2021-04-17T14:08:41Z</time>
      </trkpt>
      <trkpt lat="46.05114" lon="6.10695">
        <ele>980.2</ele>
        <time>2021-04-17T14:08:42Z</time>
      </trkpt>
      <trkpt lat="46.05113" lon="6.1069">
        <ele>980.6</ele>
        <time>2021-04-17T14:08:43Z</time>
      </trkpt>
      <trkpt lat="46.05113" lon="6.10686">
        <ele>980.6</ele>
        <time>2021-04-17T14:08:44Z</time>
      </trkpt>
      <trkpt lat="46.05113" lon="6.10682">
        <ele>980.8</ele>
        <time>2021-04-17T14:08:45Z</time>
      </trkpt>
      <trkpt lat="46.05113" lon="6.10678">
        <ele>981</ele>
        <time>2021-04-17T14:08:46Z</time>
      </trkpt>
      <trkpt lat="46.05113" lon="6.10674">
        <ele>981.2</ele>
        <time>2021-04-17T14:08:47Z</time>
      </trkpt>
      <trkpt lat="46.05114" lon="6.10669">
        <ele>981.6</ele>
        <time>2021-04-17T14:08:48Z</time>
      </trkpt>
      <trkpt lat="46.05115" lon="6.10665">
        <ele>981.8</ele>
        <time>2021-04-17T14:08:49Z</time>
      </trkpt>
      <trkpt lat="46.05116" lon="6.10661">
        <ele>982.2</ele>
        <time>2021-04-17T14:08:50Z</time>
      </trkpt>
      <trkpt lat="46.05117" lon="6.10657">
        <ele>982.4</ele>
        <time>2021-04-17T14:08:51Z</time>
      </trkpt>
      <trkpt lat="46.05119" lon="6.10653">
        <ele>982.6</ele>
        <time>2021-04-17T14:08:52Z</time>
      </trkpt>
      <trkpt lat="46.05121" lon="6.10649">
        <ele>982.6</ele>
        <time>2021-04-17T14:08:53Z</time>
      </trkpt>
      <trkpt lat="46.05123" lon="6.10646">
        <ele>982.8</ele>
        <time>2021-04-17T14:08:54Z</time>
      </trkpt>
      <trkpt lat="46.05125" lon="6.10642">
        <ele>983.2</ele>
        <time>2021-04-17T14:08:55Z</time>
      </trkpt>
      <trkpt lat="46.05127" lon="6.10638">
        <ele>983.8</ele>
        <time>2021-04-17T14:08:56Z</time>
      </trkpt>
      <trkpt lat="46.0513" lon="6.10634">
        <ele>984</ele>
        <time>2021-04-17T14:08:57Z</time>
      </trkpt>
      <trkpt lat="46.05132" lon="6.10631">
        <ele>984.4</ele>
        <time>2021-04-17T14:08:58Z</time>
      </trkpt>
      <trkpt lat="46.05134" lon="6.10627">
        <ele>984.4</ele>
        <time>2021-04-17T14:08:59Z</time>
      </trkpt>
      <trkpt lat="46.05136" lon="6.10623">
        <ele>984.6</ele>
        <time>2021-04-17T14:09:00Z</time>
      </trkpt>
      <trkpt lat="46.05138" lon="6.1062">
        <ele>984.6</ele>
        <time>2021-04-17T14:09:01Z</time>
      </trkpt>
      <trkpt lat="46.05139" lon="6.10615">
        <ele>984.8</ele>
        <time>2021-04-17T14:09:02Z</time>
      </trkpt>
      <trkpt lat="46.0514" lon="6.10611">
        <ele>985.2</ele>
        <time>2021-04-17T14:09:03Z</time>
      </trkpt>
      <trkpt lat="46.05141" lon="6.10607">
        <ele>985.4</ele>
        <time>2021-04-17T14:09:04Z</time>
      </trkpt>
      <trkpt lat="46.05142" lon="6.10602">
        <ele>985.8</ele>
        <time>2021-04-17T14:09:05Z</time>
      </trkpt>
      <trkpt lat="46.05143" lon="6.10598">
        <ele>986</ele>
        <time>2021-04-17T14:09:06Z</time>
      </trkpt>
      <trkpt lat="46.05143" lon="6.10593">
        <ele>986.2</ele>
        <time>2021-04-17T14:09:07Z</time>
      </trkpt>
      <trkpt lat="46.05143" lon="6.10588">
        <ele>986.2</ele>
        <time>2021-04-17T14:09:08Z</time>
      </trkpt>
      <trkpt lat="46.05143" lon="6.10584">
        <ele>986.6</ele>
        <time>2021-04-17T14:09:09Z</time>
      </trkpt>
      <trkpt lat="46.05143" lon="6.10579">
        <ele>986.8</ele>
        <time>2021-04-17T14:09:10Z</time>
      </trkpt>
      <trkpt lat="46.05143" lon="6.10574">
        <ele>986.8</ele>
        <time>2021-04-17T14:09:11Z</time>
      </trkpt>
      <trkpt lat="46.05142" lon="6.1057">
        <ele>986.8</ele>
        <time>2021-04-17T14:09:12Z</time>
      </trkpt>
      <trkpt lat="46.05141" lon="6.10565">
        <ele>987</ele>
        <time>2021-04-17T14:09:13Z</time>
      </trkpt>
      <trkpt lat="46.05141" lon="6.10561">
        <ele>987.2</ele>
        <time>2021-04-17T14:09:14Z</time>
      </trkpt>
      <trkpt lat="46.0514" lon="6.10556">
        <ele>987.4</ele>
        <time>2021-04-17T14:09:15Z</time>
      </trkpt>
      <trkpt lat="46.05139" lon="6.10552">
        <ele>987.8</ele>
        <time>2021-04-17T14:09:16Z</time>
      </trkpt>
      <trkpt lat="46.05139" lon="6.10547">
        <ele>988</ele>
        <time>2021-04-17T14:09:17Z</time>
      </trkpt>
      <trkpt lat="46.05139" lon="6.10542">
        <ele>988</ele>
        <time>2021-04-17T14:09:18Z</time>
      </trkpt>
      <trkpt lat="46.05138" lon="6.10538">
        <ele>988.2</ele>
        <time>2021-04-17T14:09:19Z</time>
      </trkpt>
      <trkpt lat="46.05138" lon="6.10533">
        <ele>988.2</ele>
        <time>2021-04-17T14:09:20Z</time>
      </trkpt>
      <trkpt lat="46.05138" lon="6.10529">
        <ele>988.4</ele>
        <time>2021-04-17T14:09:21Z</time>
      </trkpt>
      <trkpt lat="46.05137" lon="6.10524">
        <ele>988.4</ele>
        <time>2021-04-17T14:09:22Z</time>
      </trkpt>
      <trkpt lat="46.05137" lon="6.1052">
        <ele>988.6</ele>
        <time>2021-04-17T14:09:23Z</time>
      </trkpt>
      <trkpt lat="46.05136" lon="6.10515">
        <ele>988.6</ele>
        <time>2021-04-17T14:09:24Z</time>
      </trkpt>
      <trkpt lat="46.05136" lon="6.10511">
        <ele>988.8</ele>
        <time>2021-04-17T14:09:25Z</time>
      </trkpt>
      <trkpt lat="46.05135" lon="6.10506">
        <ele>988.8</ele>
        <time>2021-04-17T14:09:26Z</time>
      </trkpt>
      <trkpt lat="46.05134" lon="6.10502">
        <ele>988.8</ele>
        <time>2021-04-17T14:09:27Z</time>
      </trkpt>
      <trkpt lat="46.05133" lon="6.10498">
        <ele>989</ele>
        <time>2021-04-17T14:09:28Z</time>
      </trkpt>
      <trkpt lat="46.05132" lon="6.10493">
        <ele>989.2</ele>
        <time>2021-04-17T14:09:29Z</time>
      </trkpt>
      <trkpt lat="46.05132" lon="6.10489">
        <ele>989.4</ele>
        <time>2021-04-17T14:09:30Z</time>
      </trkpt>
      <trkpt lat="46.05131" lon="6.10485">
        <ele>989.6</ele>
        <time>2021-04-17T14:09:31Z</time>
      </trkpt>
      <trkpt lat="46.0513" lon="6.10481">
        <ele>989.8</ele>
        <time>2021-04-17T14:09:32Z</time>
      </trkpt>
      <trkpt lat="46.05129" lon="6.10477">
        <ele>990.2</ele>
        <time>2021-04-17T14:09:33Z</time>
      </trkpt>
      <trkpt lat="46.05128" lon="6.10473">
        <ele>990.2</ele>
        <time>2021-04-17T14:09:34Z</time>
      </trkpt>
      <trkpt lat="46.05127" lon="6.10469">
        <ele>990.4</ele>
        <time>2021-04-17T14:09:35Z</time>
      </trkpt>
      <trkpt lat="46.05126" lon="6.10465">
        <ele>990.6</ele>
        <time>2021-04-17T14:09:36Z</time>
      </trkpt>
      <trkpt lat="46.05125" lon="6.10461">
        <ele>990.8</ele>
        <time>2021-04-17T14:09:37Z</time>
      </trkpt>
      <trkpt lat="46.05124" lon="6.10457">
        <ele>991</ele>
        <time>2021-04-17T14:09:38Z</time>
      </trkpt>
      <trkpt lat="46.05123" lon="6.10453">
        <ele>991.2</ele>
        <time>2021-04-17T14:09:39Z</time>
      </trkpt>
      <trkpt lat="46.05123" lon="6.10449">
        <ele>991.2</ele>
        <time>2021-04-17T14:09:40Z</time>
      </trkpt>
      <trkpt lat="46.05122" lon="6.10444">
        <ele>991.4</ele>
        <time>2021-04-17T14:09:41Z</time>
      </trkpt>
      <trkpt lat="46.05122" lon="6.1044">
        <ele>991.6</ele>
        <time>2021-04-17T14:09:42Z</time>
      </trkpt>
      <trkpt lat="46.05123" lon="6.10436">
        <ele>991.6</ele>
        <time>2021-04-17T14:09:43Z</time>
      </trkpt>
      <trkpt lat="46.05123" lon="6.10431">
        <ele>991.6</ele>
        <time>2021-04-17T14:09:44Z</time>
      </trkpt>
      <trkpt lat="46.05124" lon="6.10427">
        <ele>992</ele>
        <time>2021-04-17T14:09:45Z</time>
      </trkpt>
      <trkpt lat="46.05125" lon="6.10423">
        <ele>992.2</ele>
        <time>2021-04-17T14:09:46Z</time>
      </trkpt>
      <trkpt lat="46.05126" lon="6.10418">
        <ele>992.6</ele>
        <time>2021-04-17T14:09:47Z</time>
      </trkpt>
      <trkpt lat="46.05128" lon="6.10414">
        <ele>992.6</ele>
        <time>2021-04-17T14:09:48Z</time>
      </trkpt>
      <trkpt lat="46.0513" lon="6.10411">
        <ele>992.6</ele>
        <time>2021-04-17T14:09:49Z</time>
      </trkpt>
      <trkpt lat="46.05132" lon="6.10408">
        <ele>992.8</ele>
        <time>2021-04-17T14:09:50Z</time>
      </trkpt>
      <trkpt lat="46.05134" lon="6.10406">
        <ele>992.8</ele>
        <time>2021-04-17T14:09:51Z</time>
      </trkpt>
      <trkpt lat="46.05137" lon="6.10404">
        <ele>993</ele>
        <time>2021-04-17T14:09:52Z</time>
      </trkpt>
      <trkpt lat="46.05139" lon="6.10402">
        <ele>993</ele>
        <time>2021-04-17T14:09:53Z</time>
      </trkpt>
      <trkpt lat="46.05142" lon="6.10401">
        <ele>993</ele>
        <time>2021-04-17T14:09:54Z</time>
      </trkpt>
      <trkpt lat="46.05144" lon="6.10401">
        <ele>993.2</ele>
        <time>2021-04-17T14:09:55Z</time>
      </trkpt>
      <trkpt lat="46.05147" lon="6.10401">
        <ele>993.2</ele>
        <time>2021-04-17T14:09:56Z</time>
      </trkpt>
      <trkpt lat="46.0515" lon="6.10402">
        <ele>993.4</ele>
        <time>2021-04-17T14:09:57Z</time>
      </trkpt>
      <trkpt lat="46.05152" lon="6.10403">
        <ele>993.4</ele>
        <time>2021-04-17T14:09:58Z</time>
      </trkpt>
      <trkpt lat="46.05155" lon="6.10405">
        <ele>993.6</ele>
        <time>2021-04-17T14:09:59Z</time>
      </trkpt>
      <trkpt lat="46.05157" lon="6.10407">
        <ele>993.6</ele>
        <time>2021-04-17T14:10:00Z</time>
      </trkpt>
      <trkpt lat="46.05159" lon="6.10409">
        <ele>994</ele>
        <time>2021-04-17T14:10:01Z</time>
      </trkpt>
      <trkpt lat="46.05161" lon="6.10412">
        <ele>994.6</ele>
        <time>2021-04-17T14:10:02Z</time>
      </trkpt>
      <trkpt lat="46.05163" lon="6.10415">
        <ele>995.4</ele>
        <time>2021-04-17T14:10:03Z</time>
      </trkpt>
      <trkpt lat="46.05164" lon="6.10418">
        <ele>995.8</ele>
        <time>2021-04-17T14:10:04Z</time>
      </trkpt>
      <trkpt lat="46.05165" lon="6.10421">
        <ele>996.2</ele>
        <time>2021-04-17T14:10:05Z</time>
      </trkpt>
      <trkpt lat="46.05166" lon="6.10423">
        <ele>996.6</ele>
        <time>2021-04-17T14:10:06Z</time>
      </trkpt>
      <trkpt lat="46.05166" lon="6.10426">
        <ele>996.8</ele>
        <time>2021-04-17T14:10:07Z</time>
      </trkpt>
      <trkpt lat="46.05167" lon="6.10429">
        <ele>997</ele>
        <time>2021-04-17T14:10:08Z</time>
      </trkpt>
      <trkpt lat="46.05167" lon="6.10433">
        <ele>997.4</ele>
        <time>2021-04-17T14:10:09Z</time>
      </trkpt>
      <trkpt lat="46.05167" lon="6.10436">
        <ele>997.8</ele>
        <time>2021-04-17T14:10:10Z</time>
      </trkpt>
      <trkpt lat="46.05167" lon="6.1044">
        <ele>998.4</ele>
        <time>2021-04-17T14:10:11Z</time>
      </trkpt>
      <trkpt lat="46.05167" lon="6.10444">
        <ele>998.6</ele>
        <time>2021-04-17T14:10:12Z</time>
      </trkpt>
      <trkpt lat="46.05167" lon="6.10448">
        <ele>999</ele>
        <time>2021-04-17T14:10:13Z</time>
      </trkpt>
      <trkpt lat="46.05167" lon="6.10451">
        <ele>999.2</ele>
        <time>2021-04-17T14:10:14Z</time>
      </trkpt>
      <trkpt lat="46.05167" lon="6.10455">
        <ele>999.2</ele>
        <time>2021-04-17T14:10:15Z</time>
      </trkpt>
      <trkpt lat="46.05168" lon="6.10459">
        <ele>999.4</ele>
        <time>2021-04-17T14:10:16Z</time>
      </trkpt>
      <trkpt lat="46.05168" lon="6.10463">
        <ele>999.4</ele>
        <time>2021-04-17T14:10:17Z</time>
      </trkpt>
      <trkpt lat="46.05169" lon="6.10467">
        <ele>999.4</ele>
        <time>2021-04-17T14:10:18Z</time>
      </trkpt>
      <trkpt lat="46.05169" lon="6.10471">
        <ele>999.6</ele>
        <time>2021-04-17T14:10:19Z</time>
      </trkpt>
      <trkpt lat="46.0517" lon="6.10475">
        <ele>999.4</ele>
        <time>2021-04-17T14:10:20Z</time>
      </trkpt>
      <trkpt lat="46.05171" lon="6.10479">
        <ele>999.6</ele>
        <time>2021-04-17T14:10:21Z</time>
      </trkpt>
      <trkpt lat="46.05172" lon="6.10483">
        <ele>999.6</ele>
        <time>2021-04-17T14:10:22Z</time>
      </trkpt>
      <trkpt lat="46.05174" lon="6.10486">
        <ele>999.6</ele>
        <time>2021-04-17T14:10:23Z</time>
      </trkpt>
      <trkpt lat="46.05176" lon="6.1049">
        <ele>999.8</ele>
        <time>2021-04-17T14:10:24Z</time>
      </trkpt>
      <trkpt lat="46.05177" lon="6.10494">
        <ele>1000</ele>
        <time>2021-04-17T14:10:25Z</time>
      </trkpt>
      <trkpt lat="46.05179" lon="6.10497">
        <ele>1000.2</ele>
        <time>2021-04-17T14:10:26Z</time>
      </trkpt>
      <trkpt lat="46.0518" lon="6.10501">
        <ele>1000.4</ele>
        <time>2021-04-17T14:10:27Z</time>
      </trkpt>
      <trkpt lat="46.05182" lon="6.10504">
        <ele>1000.8</ele>
        <time>2021-04-17T14:10:28Z</time>
      </trkpt>
      <trkpt lat="46.05183" lon="6.10508">
        <ele>1001</ele>
        <time>2021-04-17T14:10:29Z</time>
      </trkpt>
      <trkpt lat="46.05185" lon="6.10512">
        <ele>1001.2</ele>
        <time>2021-04-17T14:10:30Z</time>
      </trkpt>
      <trkpt lat="46.05186" lon="6.10515">
        <ele>1001.6</ele>
        <time>2021-04-17T14:10:31Z</time>
      </trkpt>
      <trkpt lat="46.05187" lon="6.10519">
        <ele>1001.8</ele>
        <time>2021-04-17T14:10:32Z</time>
      </trkpt>
      <trkpt lat="46.05188" lon="6.10522">
        <ele>1002</ele>
        <time>2021-04-17T14:10:33Z</time>
      </trkpt>
      <trkpt lat="46.0519" lon="6.10526">
        <ele>1002</ele>
        <time>2021-04-17T14:10:34Z</time>
      </trkpt>
      <trkpt lat="46.05191" lon="6.10529">
        <ele>1002.4</ele>
        <time>2021-04-17T14:10:35Z</time>
      </trkpt>
      <trkpt lat="46.05192" lon="6.10533">
        <ele>1002.4</ele>
        <time>2021-04-17T14:10:36Z</time>
      </trkpt>
      <trkpt lat="46.05194" lon="6.10537">
        <ele>1002.6</ele>
        <time>2021-04-17T14:10:37Z</time>
      </trkpt>
      <trkpt lat="46.05195" lon="6.10541">
        <ele>1002.6</ele>
        <time>2021-04-17T14:10:38Z</time>
      </trkpt>
      <trkpt lat="46.05197" lon="6.10544">
        <ele>1002.6</ele>
        <time>2021-04-17T14:10:39Z</time>
      </trkpt>
      <trkpt lat="46.05198" lon="6.10548">
        <ele>1002.6</ele>
        <time>2021-04-17T14:10:40Z</time>
      </trkpt>
      <trkpt lat="46.052" lon="6.10552">
        <ele>1002.6</ele>
        <time>2021-04-17T14:10:41Z</time>
      </trkpt>
      <trkpt lat="46.05202" lon="6.10555">
        <ele>1003</ele>
        <time>2021-04-17T14:10:42Z</time>
      </trkpt>
      <trkpt lat="46.05203" lon="6.10559">
        <ele>1003.2</ele>
        <time>2021-04-17T14:10:43Z</time>
      </trkpt>
      <trkpt lat="46.05205" lon="6.10562">
        <ele>1003.2</ele>
        <time>2021-04-17T14:10:44Z</time>
      </trkpt>
      <trkpt lat="46.05207" lon="6.10566">
        <ele>1003.8</ele>
        <time>2021-04-17T14:10:45Z</time>
      </trkpt>
      <trkpt lat="46.05208" lon="6.10569">
        <ele>1004</ele>
        <time>2021-04-17T14:10:46Z</time>
      </trkpt>
      <trkpt lat="46.0521" lon="6.10573">
        <ele>1004.2</ele>
        <time>2021-04-17T14:10:47Z</time>
      </trkpt>
      <trkpt lat="46.05212" lon="6.10576">
        <ele>1004.4</ele>
        <time>2021-04-17T14:10:48Z</time>
      </trkpt>
      <trkpt lat="46.05214" lon="6.10579">
        <ele>1004.6</ele>
        <time>2021-04-17T14:10:49Z</time>
      </trkpt>
      <trkpt lat="46.05216" lon="6.10582">
        <ele>1004.6</ele>
        <time>2021-04-17T14:10:50Z</time>
      </trkpt>
      <trkpt lat="46.05218" lon="6.10585">
        <ele>1004.8</ele>
        <time>2021-04-17T14:10:51Z</time>
      </trkpt>
      <trkpt lat="46.0522" lon="6.10588">
        <ele>1005.2</ele>
        <time>2021-04-17T14:10:52Z</time>
      </trkpt>
      <trkpt lat="46.05222" lon="6.1059">
        <ele>1005.6</ele>
        <time>2021-04-17T14:10:53Z</time>
      </trkpt>
      <trkpt lat="46.05225" lon="6.10593">
        <ele>1005.8</ele>
        <time>2021-04-17T14:10:54Z</time>
      </trkpt>
      <trkpt lat="46.05227" lon="6.10595">
        <ele>1005.8</ele>
        <time>2021-04-17T14:10:55Z</time>
      </trkpt>
      <trkpt lat="46.0523" lon="6.10598">
        <ele>1005.8</ele>
        <time>2021-04-17T14:10:56Z</time>
      </trkpt>
      <trkpt lat="46.05232" lon="6.106">
        <ele>1006.2</ele>
        <time>2021-04-17T14:10:57Z</time>
      </trkpt>
      <trkpt lat="46.05235" lon="6.10602">
        <ele>1006.2</ele>
        <time>2021-04-17T14:10:58Z</time>
      </trkpt>
      <trkpt lat="46.05237" lon="6.10604">
        <ele>1006.4</ele>
        <time>2021-04-17T14:10:59Z</time>
      </trkpt>
      <trkpt lat="46.0524" lon="6.10606">
        <ele>1006.6</ele>
        <time>2021-04-17T14:11:00Z</time>
      </trkpt>
      <trkpt lat="46.05242" lon="6.10608">
        <ele>1007</ele>
        <time>2021-04-17T14:11:01Z</time>
      </trkpt>
      <trkpt lat="46.05245" lon="6.1061">
        <ele>1007</ele>
        <time>2021-04-17T14:11:02Z</time>
      </trkpt>
      <trkpt lat="46.05247" lon="6.10612">
        <ele>1007.2</ele>
        <time>2021-04-17T14:11:03Z</time>
      </trkpt>
      <trkpt lat="46.0525" lon="6.10614">
        <ele>1007.4</ele>
        <time>2021-04-17T14:11:04Z</time>
      </trkpt>
      <trkpt lat="46.05252" lon="6.10616">
        <ele>1007.4</ele>
        <time>2021-04-17T14:11:05Z</time>
      </trkpt>
      <trkpt lat="46.05255" lon="6.10618">
        <ele>1007.4</ele>
        <time>2021-04-17T14:11:06Z</time>
      </trkpt>
      <trkpt lat="46.05258" lon="6.1062">
        <ele>1007.4</ele>
        <time>2021-04-17T14:11:07Z</time>
      </trkpt>
      <trkpt lat="46.0526" lon="6.10622">
        <ele>1007.6</ele>
        <time>2021-04-17T14:11:08Z</time>
      </trkpt>
      <trkpt lat="46.05262" lon="6.10623">
        <ele>1007.6</ele>
        <time>2021-04-17T14:11:09Z</time>
      </trkpt>
      <trkpt lat="46.05263" lon="6.10625">
        <ele>1007.8</ele>
        <time>2021-04-17T14:11:10Z</time>
      </trkpt>
      <trkpt lat="46.05265" lon="6.10626">
        <ele>1008</ele>
        <time>2021-04-17T14:11:11Z</time>
      </trkpt>
      <trkpt lat="46.05268" lon="6.10628">
        <ele>1008</ele>
        <time>2021-04-17T14:11:12Z</time>
      </trkpt>
      <trkpt lat="46.0527" lon="6.1063">
        <ele>1008.2</ele>
        <time>2021-04-17T14:11:13Z</time>
      </trkpt>
      <trkpt lat="46.05272" lon="6.10632">
        <ele>1008.4</ele>
        <time>2021-04-17T14:11:14Z</time>
      </trkpt>
      <trkpt lat="46.05274" lon="6.10633">
        <ele>1008.8</ele>
        <time>2021-04-17T14:11:15Z</time>
      </trkpt>
      <trkpt lat="46.05276" lon="6.10635">
        <ele>1009.2</ele>
        <time>2021-04-17T14:11:16Z</time>
      </trkpt>
      <trkpt lat="46.05277" lon="6.10636">
        <ele>1009.6</ele>
        <time>2021-04-17T14:11:17Z</time>
      </trkpt>
      <trkpt lat="46.05279" lon="6.10638">
        <ele>1010</ele>
        <time>2021-04-17T14:11:18Z</time>
      </trkpt>
      <trkpt lat="46.05281" lon="6.1064">
        <ele>1010.2</ele>
        <time>2021-04-17T14:11:19Z</time>
      </trkpt>
      <trkpt lat="46.05283" lon="6.10641">
        <ele>1010.4</ele>
        <time>2021-04-17T14:11:20Z</time>
      </trkpt>
      <trkpt lat="46.05286" lon="6.10643">
        <ele>1010.6</ele>
        <time>2021-04-17T14:11:21Z</time>
      </trkpt>
      <trkpt lat="46.05288" lon="6.10645">
        <ele>1010.6</ele>
        <time>2021-04-17T14:11:22Z</time>
      </trkpt>
      <trkpt lat="46.05291" lon="6.10647">
        <ele>1010.8</ele>
        <time>2021-04-17T14:11:23Z</time>
      </trkpt>
      <trkpt lat="46.05293" lon="6.10649">
        <ele>1010.8</ele>
        <time>2021-04-17T14:11:24Z</time>
      </trkpt>
      <trkpt lat="46.05296" lon="6.10651">
        <ele>1011</ele>
        <time>2021-04-17T14:11:25Z</time>
      </trkpt>
      <trkpt lat="46.05297" lon="6.10653">
        <ele>1011.2</ele>
        <time>2021-04-17T14:11:26Z</time>
      </trkpt>
      <trkpt lat="46.053" lon="6.10655">
        <ele>1011.2</ele>
        <time>2021-04-17T14:11:27Z</time>
      </trkpt>
      <trkpt lat="46.05302" lon="6.10657">
        <ele>1011.6</ele>
        <time>2021-04-17T14:11:28Z</time>
      </trkpt>
      <trkpt lat="46.05304" lon="6.10659">
        <ele>1012.2</ele>
        <time>2021-04-17T14:11:29Z</time>
      </trkpt>
      <trkpt lat="46.05307" lon="6.10662">
        <ele>1012.4</ele>
        <time>2021-04-17T14:11:30Z</time>
      </trkpt>
      <trkpt lat="46.0531" lon="6.10665">
        <ele>1012.4</ele>
        <time>2021-04-17T14:11:31Z</time>
      </trkpt>
      <trkpt lat="46.05313" lon="6.10668">
        <ele>1012.6</ele>
        <time>2021-04-17T14:11:32Z</time>
      </trkpt>
      <trkpt lat="46.05316" lon="6.10672">
        <ele>1013</ele>
        <time>2021-04-17T14:11:33Z</time>
      </trkpt>
      <trkpt lat="46.05318" lon="6.10676">
        <ele>1013.4</ele>
        <time>2021-04-17T14:11:34Z</time>
      </trkpt>
      <trkpt lat="46.05321" lon="6.1068">
        <ele>1013.4</ele>
        <time>2021-04-17T14:11:35Z</time>
      </trkpt>
      <trkpt lat="46.05323" lon="6.10684">
        <ele>1013.6</ele>
        <time>2021-04-17T14:11:36Z</time>
      </trkpt>
      <trkpt lat="46.05324" lon="6.10688">
        <ele>1013.8</ele>
        <time>2021-04-17T14:11:37Z</time>
      </trkpt>
      <trkpt lat="46.05326" lon="6.10692">
        <ele>1014</ele>
        <time>2021-04-17T14:11:38Z</time>
      </trkpt>
      <trkpt lat="46.05326" lon="6.10696">
        <ele>1014.2</ele>
        <time>2021-04-17T14:11:39Z</time>
      </trkpt>
      <trkpt lat="46.05327" lon="6.107">
        <ele>1014.6</ele>
        <time>2021-04-17T14:11:40Z</time>
      </trkpt>
      <trkpt lat="46.05327" lon="6.10704">
        <ele>1014.8</ele>
        <time>2021-04-17T14:11:41Z</time>
      </trkpt>
      <trkpt lat="46.05328" lon="6.10708">
        <ele>1015.2</ele>
        <time>2021-04-17T14:11:42Z</time>
      </trkpt>
      <trkpt lat="46.05327" lon="6.10711">
        <ele>1015.4</ele>
        <time>2021-04-17T14:11:43Z</time>
      </trkpt>
      <trkpt lat="46.05327" lon="6.10715">
        <ele>1015.6</ele>
        <time>2021-04-17T14:11:44Z</time>
      </trkpt>
      <trkpt lat="46.05327" lon="6.10719">
        <ele>1015.8</ele>
        <time>2021-04-17T14:11:45Z</time>
      </trkpt>
      <trkpt lat="46.05326" lon="6.10723">
        <ele>1016</ele>
        <time>2021-04-17T14:11:46Z</time>
      </trkpt>
      <trkpt lat="46.05326" lon="6.10726">
        <ele>1016.4</ele>
        <time>2021-04-17T14:11:47Z</time>
      </trkpt>
      <trkpt lat="46.05325" lon="6.1073">
        <ele>1016.6</ele>
        <time>2021-04-17T14:11:48Z</time>
      </trkpt>
      <trkpt lat="46.05325" lon="6.10733">
        <ele>1017</ele>
        <time>2021-04-17T14:11:49Z</time>
      </trkpt>
      <trkpt lat="46.05325" lon="6.10737">
        <ele>1017.2</ele>
        <time>2021-04-17T14:11:50Z</time>
      </trkpt>
      <trkpt lat="46.05324" lon="6.10741">
        <ele>1017.4</ele>
        <time>2021-04-17T14:11:51Z</time>
      </trkpt>
      <trkpt lat="46.05324" lon="6.10744">
        <ele>1017.6</ele>
        <time>2021-04-17T14:11:52Z</time>
      </trkpt>
      <trkpt lat="46.05324" lon="6.10748">
        <ele>1017.8</ele>
        <time>2021-04-17T14:11:53Z</time>
      </trkpt>
      <trkpt lat="46.05323" lon="6.10752">
        <ele>1018.2</ele>
        <time>2021-04-17T14:11:54Z</time>
      </trkpt>
      <trkpt lat="46.05323" lon="6.10755">
        <ele>1018.2</ele>
        <time>2021-04-17T14:11:55Z</time>
      </trkpt>
      <trkpt lat="46.05323" lon="6.10759">
        <ele>1018.6</ele>
        <time>2021-04-17T14:11:56Z</time>
      </trkpt>
      <trkpt lat="46.05323" lon="6.10762">
        <ele>1018.8</ele>
        <time>2021-04-17T14:11:57Z</time>
      </trkpt>
      <trkpt lat="46.05323" lon="6.10766">
        <ele>1018.8</ele>
        <time>2021-04-17T14:11:58Z</time>
      </trkpt>
      <trkpt lat="46.05323" lon="6.1077">
        <ele>1019</ele>
        <time>2021-04-17T14:11:59Z</time>
      </trkpt>
      <trkpt lat="46.05324" lon="6.10774">
        <ele>1019</ele>
        <time>2021-04-17T14:12:00Z</time>
      </trkpt>
      <trkpt lat="46.05325" lon="6.10778">
        <ele>1019</ele>
        <time>2021-04-17T14:12:01Z</time>
      </trkpt>
      <trkpt lat="46.05325" lon="6.10782">
        <ele>1019.2</ele>
        <time>2021-04-17T14:12:02Z</time>
      </trkpt>
      <trkpt lat="46.05327" lon="6.10786">
        <ele>1019.4</ele>
        <time>2021-04-17T14:12:03Z</time>
      </trkpt>
      <trkpt lat="46.05327" lon="6.1079">
        <ele>1019.6</ele>
        <time>2021-04-17T14:12:04Z</time>
      </trkpt>
      <trkpt lat="46.05328" lon="6.10795">
        <ele>1019.8</ele>
        <time>2021-04-17T14:12:05Z</time>
      </trkpt>
      <trkpt lat="46.05328" lon="6.10799">
        <ele>1019.8</ele>
        <time>2021-04-17T14:12:06Z</time>
      </trkpt>
      <trkpt lat="46.05329" lon="6.10803">
        <ele>1020.2</ele>
        <time>2021-04-17T14:12:07Z</time>
      </trkpt>
      <trkpt lat="46.0533" lon="6.10807">
        <ele>1020.2</ele>
        <time>2021-04-17T14:12:08Z</time>
      </trkpt>
      <trkpt lat="46.05331" lon="6.10811">
        <ele>1020.4</ele>
        <time>2021-04-17T14:12:09Z</time>
      </trkpt>
      <trkpt lat="46.05331" lon="6.10815">
        <ele>1020.8</ele>
        <time>2021-04-17T14:12:10Z</time>
      </trkpt>
      <trkpt lat="46.05332" lon="6.10819">
        <ele>1020.8</ele>
        <time>2021-04-17T14:12:11Z</time>
      </trkpt>
      <trkpt lat="46.05332" lon="6.10823">
        <ele>1021</ele>
        <time>2021-04-17T14:12:12Z</time>
      </trkpt>
      <trkpt lat="46.05333" lon="6.10827">
        <ele>1021</ele>
        <time>2021-04-17T14:12:13Z</time>
      </trkpt>
      <trkpt lat="46.05334" lon="6.10831">
        <ele>1021</ele>
        <time>2021-04-17T14:12:14Z</time>
      </trkpt>
      <trkpt lat="46.05336" lon="6.10835">
        <ele>1021.2</ele>
        <time>2021-04-17T14:12:15Z</time>
      </trkpt>
      <trkpt lat="46.05337" lon="6.10838">
        <ele>1021.4</ele>
        <time>2021-04-17T14:12:16Z</time>
      </trkpt>
      <trkpt lat="46.05339" lon="6.10842">
        <ele>1021.6</ele>
        <time>2021-04-17T14:12:17Z</time>
      </trkpt>
      <trkpt lat="46.05341" lon="6.10845">
        <ele>1021.8</ele>
        <time>2021-04-17T14:12:18Z</time>
      </trkpt>
      <trkpt lat="46.05343" lon="6.10848">
        <ele>1021.8</ele>
        <time>2021-04-17T14:12:19Z</time>
      </trkpt>
      <trkpt lat="46.05344" lon="6.1085">
        <ele>1022</ele>
        <time>2021-04-17T14:12:20Z</time>
      </trkpt>
      <trkpt lat="46.05347" lon="6.10852">
        <ele>1022</ele>
        <time>2021-04-17T14:12:21Z</time>
      </trkpt>
      <trkpt lat="46.05349" lon="6.10854">
        <ele>1022.2</ele>
        <time>2021-04-17T14:12:22Z</time>
      </trkpt>
      <trkpt lat="46.05351" lon="6.10855">
        <ele>1022.4</ele>
        <time>2021-04-17T14:12:23Z</time>
      </trkpt>
      <trkpt lat="46.05354" lon="6.10855">
        <ele>1022.6</ele>
        <time>2021-04-17T14:12:24Z</time>
      </trkpt>
      <trkpt lat="46.05356" lon="6.10855">
        <ele>1022.8</ele>
        <time>2021-04-17T14:12:25Z</time>
      </trkpt>
      <trkpt lat="46.05359" lon="6.10854">
        <ele>1022.8</ele>
        <time>2021-04-17T14:12:26Z</time>
      </trkpt>
      <trkpt lat="46.05361" lon="6.10853">
        <ele>1023</ele>
        <time>2021-04-17T14:12:27Z</time>
      </trkpt>
      <trkpt lat="46.05364" lon="6.10852">
        <ele>1023</ele>
        <time>2021-04-17T14:12:28Z</time>
      </trkpt>
      <trkpt lat="46.05366" lon="6.10851">
        <ele>1023.2</ele>
        <time>2021-04-17T14:12:29Z</time>
      </trkpt>
      <trkpt lat="46.05368" lon="6.1085">
        <ele>1023.2</ele>
        <time>2021-04-17T14:12:30Z</time>
      </trkpt>
      <trkpt lat="46.0537" lon="6.10848">
        <ele>1023.4</ele>
        <time>2021-04-17T14:12:31Z</time>
      </trkpt>
      <trkpt lat="46.05372" lon="6.10847">
        <ele>1023.4</ele>
        <time>2021-04-17T14:12:32Z</time>
      </trkpt>
      <trkpt lat="46.05374" lon="6.10846">
        <ele>1023.6</ele>
        <time>2021-04-17T14:12:33Z</time>
      </trkpt>
      <trkpt lat="46.05376" lon="6.10845">
        <ele>1023.6</ele>
        <time>2021-04-17T14:12:34Z</time>
      </trkpt>
      <trkpt lat="46.05378" lon="6.10844">
        <ele>1023.6</ele>
        <time>2021-04-17T14:12:35Z</time>
      </trkpt>
      <trkpt lat="46.05381" lon="6.10843">
        <ele>1023.6</ele>
        <time>2021-04-17T14:12:36Z</time>
      </trkpt>
      <trkpt lat="46.05383" lon="6.10842">
        <ele>1023.8</ele>
        <time>2021-04-17T14:12:37Z</time>
      </trkpt>
      <trkpt lat="46.05385" lon="6.10841">
        <ele>1023.8</ele>
        <time>2021-04-17T14:12:38Z</time>
      </trkpt>
      <trkpt lat="46.05388" lon="6.10839">
        <ele>1023.6</ele>
        <time>2021-04-17T14:12:39Z</time>
      </trkpt>
      <trkpt lat="46.0539" lon="6.10838">
        <ele>1023.8</ele>
        <time>2021-04-17T14:12:40Z</time>
      </trkpt>
      <trkpt lat="46.05393" lon="6.10837">
        <ele>1024.2</ele>
        <time>2021-04-17T14:12:41Z</time>
      </trkpt>
      <trkpt lat="46.05395" lon="6.10836">
        <ele>1024.4</ele>
        <time>2021-04-17T14:12:42Z</time>
      </trkpt>
      <trkpt lat="46.05398" lon="6.10835">
        <ele>1024.6</ele>
        <time>2021-04-17T14:12:43Z</time>
      </trkpt>
      <trkpt lat="46.054" lon="6.10834">
        <ele>1024.6</ele>
        <time>2021-04-17T14:12:44Z</time>
      </trkpt>
      <trkpt lat="46.05402" lon="6.10832">
        <ele>1024.6</ele>
        <time>2021-04-17T14:12:45Z</time>
      </trkpt>
      <trkpt lat="46.05405" lon="6.1083">
        <ele>1024.8</ele>
        <time>2021-04-17T14:12:46Z</time>
      </trkpt>
      <trkpt lat="46.05407" lon="6.10828">
        <ele>1024.8</ele>
        <time>2021-04-17T14:12:47Z</time>
      </trkpt>
      <trkpt lat="46.05409" lon="6.10827">
        <ele>1024.8</ele>
        <time>2021-04-17T14:12:48Z</time>
      </trkpt>
      <trkpt lat="46.05412" lon="6.10826">
        <ele>1025</ele>
        <time>2021-04-17T14:12:49Z</time>
      </trkpt>
      <trkpt lat="46.05415" lon="6.10825">
        <ele>1024.8</ele>
        <time>2021-04-17T14:12:50Z</time>
      </trkpt>
      <trkpt lat="46.05418" lon="6.10825">
        <ele>1025</ele>
        <time>2021-04-17T14:12:51Z</time>
      </trkpt>
      <trkpt lat="46.05421" lon="6.10823">
        <ele>1025.2</ele>
        <time>2021-04-17T14:12:52Z</time>
      </trkpt>
      <trkpt lat="46.05423" lon="6.10822">
        <ele>1025.4</ele>
        <time>2021-04-17T14:12:53Z</time>
      </trkpt>
      <trkpt lat="46.05426" lon="6.10821">
        <ele>1025.6</ele>
        <time>2021-04-17T14:12:54Z</time>
      </trkpt>
      <trkpt lat="46.05429" lon="6.1082">
        <ele>1026</ele>
        <time>2021-04-17T14:12:55Z</time>
      </trkpt>
      <trkpt lat="46.05432" lon="6.10819">
        <ele>1026.2</ele>
        <time>2021-04-17T14:12:56Z</time>
      </trkpt>
      <trkpt lat="46.05435" lon="6.10818">
        <ele>1026.2</ele>
        <time>2021-04-17T14:12:57Z</time>
      </trkpt>
      <trkpt lat="46.05438" lon="6.10817">
        <ele>1026.4</ele>
        <time>2021-04-17T14:12:58Z</time>
      </trkpt>
      <trkpt lat="46.05441" lon="6.10815">
        <ele>1026.8</ele>
        <time>2021-04-17T14:12:59Z</time>
      </trkpt>
      <trkpt lat="46.05445" lon="6.10814">
        <ele>1026.8</ele>
        <time>2021-04-17T14:13:00Z</time>
      </trkpt>
      <trkpt lat="46.05448" lon="6.10813">
        <ele>1027.8</ele>
        <time>2021-04-17T14:13:01Z</time>
      </trkpt>
      <trkpt lat="46.05451" lon="6.10813">
        <ele>1028.2</ele>
        <time>2021-04-17T14:13:02Z</time>
      </trkpt>
      <trkpt lat="46.05454" lon="6.10813">
        <ele>1028.4</ele>
        <time>2021-04-17T14:13:03Z</time>
      </trkpt>
      <trkpt lat="46.05457" lon="6.10813">
        <ele>1028.6</ele>
        <time>2021-04-17T14:13:04Z</time>
      </trkpt>
      <trkpt lat="46.05459" lon="6.10814">
        <ele>1028.8</ele>
        <time>2021-04-17T14:13:05Z</time>
      </trkpt>
      <trkpt lat="46.05462" lon="6.10814">
        <ele>1029</ele>
        <time>2021-04-17T14:13:06Z</time>
      </trkpt>
      <trkpt lat="46.05464" lon="6.10815">
        <ele>1029</ele>
        <time>2021-04-17T14:13:07Z</time>
      </trkpt>
      <trkpt lat="46.05467" lon="6.10817">
        <ele>1029</ele>
        <time>2021-04-17T14:13:08Z</time>
      </trkpt>
      <trkpt lat="46.0547" lon="6.10819">
        <ele>1029</ele>
        <time>2021-04-17T14:13:09Z</time>
      </trkpt>
      <trkpt lat="46.05472" lon="6.10821">
        <ele>1029.2</ele>
        <time>2021-04-17T14:13:10Z</time>
      </trkpt>
      <trkpt lat="46.05474" lon="6.10822">
        <ele>1029.2</ele>
        <time>2021-04-17T14:13:11Z</time>
      </trkpt>
      <trkpt lat="46.05477" lon="6.10824">
        <ele>1029.6</ele>
        <time>2021-04-17T14:13:12Z</time>
      </trkpt>
      <trkpt lat="46.05479" lon="6.10825">
        <ele>1029.8</ele>
        <time>2021-04-17T14:13:13Z</time>
      </trkpt>
      <trkpt lat="46.05482" lon="6.10828">
        <ele>1030</ele>
        <time>2021-04-17T14:13:14Z</time>
      </trkpt>
      <trkpt lat="46.05484" lon="6.10831">
        <ele>1030</ele>
        <time>2021-04-17T14:13:15Z</time>
      </trkpt>
      <trkpt lat="46.05487" lon="6.10834">
        <ele>1030.4</ele>
        <time>2021-04-17T14:13:16Z</time>
      </trkpt>
      <trkpt lat="46.05489" lon="6.10836">
        <ele>1030.4</ele>
        <time>2021-04-17T14:13:17Z</time>
      </trkpt>
      <trkpt lat="46.05491" lon="6.10839">
        <ele>1030.8</ele>
        <time>2021-04-17T14:13:18Z</time>
      </trkpt>
      <trkpt lat="46.05493" lon="6.10842">
        <ele>1031</ele>
        <time>2021-04-17T14:13:19Z</time>
      </trkpt>
      <trkpt lat="46.05497" lon="6.10845">
        <ele>1031.2</ele>
        <time>2021-04-17T14:13:20Z</time>
      </trkpt>
      <trkpt lat="46.055" lon="6.10848">
        <ele>1031.4</ele>
        <time>2021-04-17T14:13:21Z</time>
      </trkpt>
      <trkpt lat="46.05503" lon="6.10851">
        <ele>1031.4</ele>
        <time>2021-04-17T14:13:22Z</time>
      </trkpt>
      <trkpt lat="46.05505" lon="6.10854">
        <ele>1031.4</ele>
        <time>2021-04-17T14:13:23Z</time>
      </trkpt>
      <trkpt lat="46.05506" lon="6.10857">
        <ele>1031.6</ele>
        <time>2021-04-17T14:13:24Z</time>
      </trkpt>
      <trkpt lat="46.05508" lon="6.10861">
        <ele>1031.8</ele>
        <time>2021-04-17T14:13:25Z</time>
      </trkpt>
      <trkpt lat="46.05509" lon="6.10864">
        <ele>1032.2</ele>
        <time>2021-04-17T14:13:26Z</time>
      </trkpt>
      <trkpt lat="46.0551" lon="6.10868">
        <ele>1032.2</ele>
        <time>2021-04-17T14:13:27Z</time>
      </trkpt>
      <trkpt lat="46.05511" lon="6.10872">
        <ele>1032.6</ele>
        <time>2021-04-17T14:13:28Z</time>
      </trkpt>
      <trkpt lat="46.05512" lon="6.10876">
        <ele>1032.8</ele>
        <time>2021-04-17T14:13:29Z</time>
      </trkpt>
      <trkpt lat="46.05514" lon="6.1088">
        <ele>1033.2</ele>
        <time>2021-04-17T14:13:30Z</time>
      </trkpt>
      <trkpt lat="46.05515" lon="6.10885">
        <ele>1033.6</ele>
        <time>2021-04-17T14:13:31Z</time>
      </trkpt>
      <trkpt lat="46.05517" lon="6.1089">
        <ele>1034</ele>
        <time>2021-04-17T14:13:32Z</time>
      </trkpt>
      <trkpt lat="46.05518" lon="6.10894">
        <ele>1034.4</ele>
        <time>2021-04-17T14:13:33Z</time>
      </trkpt>
      <trkpt lat="46.0552" lon="6.10899">
        <ele>1034.6</ele>
        <time>2021-04-17T14:13:34Z</time>
      </trkpt>
      <trkpt lat="46.05521" lon="6.10903">
        <ele>1035</ele>
        <time>2021-04-17T14:13:35Z</time>
      </trkpt>
      <trkpt lat="46.05522" lon="6.10907">
        <ele>1035</ele>
        <time>2021-04-17T14:13:36Z</time>
      </trkpt>
      <trkpt lat="46.05522" lon="6.10911">
        <ele>1035</ele>
        <time>2021-04-17T14:13:37Z</time>
      </trkpt>
      <trkpt lat="46.05523" lon="6.10915">
        <ele>1035.4</ele>
        <time>2021-04-17T14:13:38Z</time>
      </trkpt>
      <trkpt lat="46.05524" lon="6.10919">
        <ele>1035.4</ele>
        <time>2021-04-17T14:13:39Z</time>
      </trkpt>
      <trkpt lat="46.05525" lon="6.10923">
        <ele>1035.6</ele>
        <time>2021-04-17T14:13:40Z</time>
      </trkpt>
      <trkpt lat="46.05526" lon="6.10927">
        <ele>1036</ele>
        <time>2021-04-17T14:13:41Z</time>
      </trkpt>
      <trkpt lat="46.05527" lon="6.1093">
        <ele>1036.2</ele>
        <time>2021-04-17T14:13:42Z</time>
      </trkpt>
      <trkpt lat="46.05528" lon="6.10934">
        <ele>1036.2</ele>
        <time>2021-04-17T14:13:43Z</time>
      </trkpt>
      <trkpt lat="46.05529" lon="6.10937">
        <ele>1036.4</ele>
        <time>2021-04-17T14:13:44Z</time>
      </trkpt>
      <trkpt lat="46.05529" lon="6.1094">
        <ele>1036.4</ele>
        <time>2021-04-17T14:13:45Z</time>
      </trkpt>
      <trkpt lat="46.0553" lon="6.10943">
        <ele>1037</ele>
        <time>2021-04-17T14:13:46Z</time>
      </trkpt>
      <trkpt lat="46.0553" lon="6.10946">
        <ele>1037.2</ele>
        <time>2021-04-17T14:13:47Z</time>
      </trkpt>
      <trkpt lat="46.05531" lon="6.1095">
        <ele>1037.6</ele>
        <time>2021-04-17T14:13:48Z</time>
      </trkpt>
      <trkpt lat="46.05533" lon="6.10955">
        <ele>1037.8</ele>
        <time>2021-04-17T14:13:49Z</time>
      </trkpt>
      <trkpt lat="46.05534" lon="6.10959">
        <ele>1038.2</ele>
        <time>2021-04-17T14:13:50Z</time>
      </trkpt>
      <trkpt lat="46.05535" lon="6.10963">
        <ele>1038.2</ele>
        <time>2021-04-17T14:13:51Z</time>
      </trkpt>
      <trkpt lat="46.05536" lon="6.10967">
        <ele>1038.4</ele>
        <time>2021-04-17T14:13:52Z</time>
      </trkpt>
      <trkpt lat="46.05538" lon="6.1097">
        <ele>1038.4</ele>
        <time>2021-04-17T14:13:53Z</time>
      </trkpt>
      <trkpt lat="46.0554" lon="6.10974">
        <ele>1038.6</ele>
        <time>2021-04-17T14:13:54Z</time>
      </trkpt>
      <trkpt lat="46.05542" lon="6.10977">
        <ele>1038.8</ele>
        <time>2021-04-17T14:13:55Z</time>
      </trkpt>
      <trkpt lat="46.05544" lon="6.10979">
        <ele>1038.8</ele>
        <time>2021-04-17T14:13:56Z</time>
      </trkpt>
      <trkpt lat="46.05546" lon="6.10981">
        <ele>1039</ele>
        <time>2021-04-17T14:13:57Z</time>
      </trkpt>
      <trkpt lat="46.05548" lon="6.10983">
        <ele>1039</ele>
        <time>2021-04-17T14:13:58Z</time>
      </trkpt>
      <trkpt lat="46.0555" lon="6.10984">
        <ele>1039.2</ele>
        <time>2021-04-17T14:13:59Z</time>
      </trkpt>
      <trkpt lat="46.05552" lon="6.10984">
        <ele>1039.6</ele>
        <time>2021-04-17T14:14:00Z</time>
      </trkpt>
      <trkpt lat="46.05555" lon="6.10984">
        <ele>1040.2</ele>
        <time>2021-04-17T14:14:01Z</time>
      </trkpt>
      <trkpt lat="46.05557" lon="6.10984">
        <ele>1040.2</ele>
        <time>2021-04-17T14:14:02Z</time>
      </trkpt>
      <trkpt lat="46.0556" lon="6.10983">
        <ele>1040.4</ele>
        <time>2021-04-17T14:14:03Z</time>
      </trkpt>
      <trkpt lat="46.05562" lon="6.10982">
        <ele>1040.8</ele>
        <time>2021-04-17T14:14:04Z</time>
      </trkpt>
      <trkpt lat="46.05565" lon="6.1098">
        <ele>1041</ele>
        <time>2021-04-17T14:14:05Z</time>
      </trkpt>
      <trkpt lat="46.05567" lon="6.10978">
        <ele>1041.2</ele>
        <time>2021-04-17T14:14:06Z</time>
      </trkpt>
      <trkpt lat="46.05569" lon="6.10976">
        <ele>1041.2</ele>
        <time>2021-04-17T14:14:07Z</time>
      </trkpt>
      <trkpt lat="46.05571" lon="6.10974">
        <ele>1041.4</ele>
        <time>2021-04-17T14:14:08Z</time>
      </trkpt>
      <trkpt lat="46.05573" lon="6.10971">
        <ele>1041.4</ele>
        <time>2021-04-17T14:14:09Z</time>
      </trkpt>
      <trkpt lat="46.05574" lon="6.10969">
        <ele>1041.6</ele>
        <time>2021-04-17T14:14:10Z</time>
      </trkpt>
      <trkpt lat="46.05575" lon="6.10966">
        <ele>1041.6</ele>
        <time>2021-04-17T14:14:11Z</time>
      </trkpt>
      <trkpt lat="46.05576" lon="6.10964">
        <ele>1042</ele>
        <time>2021-04-17T14:14:12Z</time>
      </trkpt>
      <trkpt lat="46.05577" lon="6.10961">
        <ele>1042</ele>
        <time>2021-04-17T14:14:13Z</time>
      </trkpt>
      <trkpt lat="46.05578" lon="6.10957">
        <ele>1042</ele>
        <time>2021-04-17T14:14:14Z</time>
      </trkpt>
      <trkpt lat="46.05579" lon="6.10954">
        <ele>1042.2</ele>
        <time>2021-04-17T14:14:15Z</time>
      </trkpt>
      <trkpt lat="46.0558" lon="6.10951">
        <ele>1042.2</ele>
        <time>2021-04-17T14:14:16Z</time>
      </trkpt>
      <trkpt lat="46.0558" lon="6.10947">
        <ele>1042.2</ele>
        <time>2021-04-17T14:14:17Z</time>
      </trkpt>
      <trkpt lat="46.05581" lon="6.10944">
        <ele>1042.2</ele>
        <time>2021-04-17T14:14:18Z</time>
      </trkpt>
      <trkpt lat="46.05582" lon="6.10941">
        <ele>1042.2</ele>
        <time>2021-04-17T14:14:19Z</time>
      </trkpt>
      <trkpt lat="46.05583" lon="6.10938">
        <ele>1042.4</ele>
        <time>2021-04-17T14:14:20Z</time>
      </trkpt>
      <trkpt lat="46.05584" lon="6.10934">
        <ele>1042.4</ele>
        <time>2021-04-17T14:14:21Z</time>
      </trkpt>
      <trkpt lat="46.05584" lon="6.1093">
        <ele>1042.4</ele>
        <time>2021-04-17T14:14:22Z</time>
      </trkpt>
      <trkpt lat="46.05586" lon="6.10927">
        <ele>1042.4</ele>
        <time>2021-04-17T14:14:23Z</time>
      </trkpt>
      <trkpt lat="46.05587" lon="6.10923">
        <ele>1042.4</ele>
        <time>2021-04-17T14:14:24Z</time>
      </trkpt>
      <trkpt lat="46.05588" lon="6.10919">
        <ele>1042.6</ele>
        <time>2021-04-17T14:14:25Z</time>
      </trkpt>
      <trkpt lat="46.0559" lon="6.10916">
        <ele>1042.8</ele>
        <time>2021-04-17T14:14:26Z</time>
      </trkpt>
      <trkpt lat="46.05592" lon="6.10913">
        <ele>1043.2</ele>
        <time>2021-04-17T14:14:27Z</time>
      </trkpt>
      <trkpt lat="46.05594" lon="6.1091">
        <ele>1043.8</ele>
        <time>2021-04-17T14:14:28Z</time>
      </trkpt>
      <trkpt lat="46.05596" lon="6.10909">
        <ele>1044.2</ele>
        <time>2021-04-17T14:14:29Z</time>
      </trkpt>
      <trkpt lat="46.05598" lon="6.10908">
        <ele>1044.6</ele>
        <time>2021-04-17T14:14:30Z</time>
      </trkpt>
      <trkpt lat="46.056" lon="6.10907">
        <ele>1045</ele>
        <time>2021-04-17T14:14:31Z</time>
      </trkpt>
      <trkpt lat="46.05602" lon="6.10907">
        <ele>1045.4</ele>
        <time>2021-04-17T14:14:32Z</time>
      </trkpt>
      <trkpt lat="46.05604" lon="6.10906">
        <ele>1045.8</ele>
        <time>2021-04-17T14:14:33Z</time>
      </trkpt>
      <trkpt lat="46.05605" lon="6.10906">
        <ele>1046</ele>
        <time>2021-04-17T14:14:34Z</time>
      </trkpt>
      <trkpt lat="46.05607" lon="6.10907">
        <ele>1046</ele>
        <time>2021-04-17T14:14:35Z</time>
      </trkpt>
      <trkpt lat="46.05609" lon="6.10908">
        <ele>1046.4</ele>
        <time>2021-04-17T14:14:36Z</time>
      </trkpt>
      <trkpt lat="46.05611" lon="6.10909">
        <ele>1046.4</ele>
        <time>2021-04-17T14:14:37Z</time>
      </trkpt>
      <trkpt lat="46.05612" lon="6.1091">
        <ele>1046.4</ele>
        <time>2021-04-17T14:14:38Z</time>
      </trkpt>
      <trkpt lat="46.05614" lon="6.10911">
        <ele>1046.6</ele>
        <time>2021-04-17T14:14:39Z</time>
      </trkpt>
      <trkpt lat="46.05616" lon="6.10912">
        <ele>1046.6</ele>
        <time>2021-04-17T14:14:40Z</time>
      </trkpt>
      <trkpt lat="46.05617" lon="6.10913">
        <ele>1046.6</ele>
        <time>2021-04-17T14:14:41Z</time>
      </trkpt>
      <trkpt lat="46.05619" lon="6.10914">
        <ele>1046.8</ele>
        <time>2021-04-17T14:14:42Z</time>
      </trkpt>
      <trkpt lat="46.05621" lon="6.10914">
        <ele>1046.8</ele>
        <time>2021-04-17T14:14:43Z</time>
      </trkpt>
      <trkpt lat="46.05624" lon="6.10916">
        <ele>1047</ele>
        <time>2021-04-17T14:14:44Z</time>
      </trkpt>
      <trkpt lat="46.05626" lon="6.10917">
        <ele>1047</ele>
        <time>2021-04-17T14:14:45Z</time>
      </trkpt>
      <trkpt lat="46.05629" lon="6.10918">
        <ele>1047.2</ele>
        <time>2021-04-17T14:14:46Z</time>
      </trkpt>
      <trkpt lat="46.05631" lon="6.10919">
        <ele>1047.4</ele>
        <time>2021-04-17T14:14:47Z</time>
      </trkpt>
      <trkpt lat="46.05634" lon="6.10919">
        <ele>1047.8</ele>
        <time>2021-04-17T14:14:48Z</time>
      </trkpt>
      <trkpt lat="46.05637" lon="6.10919">
        <ele>1048.2</ele>
        <time>2021-04-17T14:14:49Z</time>
      </trkpt>
      <trkpt lat="46.0564" lon="6.10918">
        <ele>1048.6</ele>
        <time>2021-04-17T14:14:50Z</time>
      </trkpt>
      <trkpt lat="46.05643" lon="6.10918">
        <ele>1048.8</ele>
        <time>2021-04-17T14:14:51Z</time>
      </trkpt>
      <trkpt lat="46.05646" lon="6.10917">
        <ele>1049</ele>
        <time>2021-04-17T14:14:52Z</time>
      </trkpt>
      <trkpt lat="46.05649" lon="6.10916">
        <ele>1049.2</ele>
        <time>2021-04-17T14:14:53Z</time>
      </trkpt>
      <trkpt lat="46.05652" lon="6.10914">
        <ele>1049.6</ele>
        <time>2021-04-17T14:14:54Z</time>
      </trkpt>
      <trkpt lat="46.05655" lon="6.10912">
        <ele>1049.8</ele>
        <time>2021-04-17T14:14:55Z</time>
      </trkpt>
      <trkpt lat="46.05657" lon="6.1091">
        <ele>1050</ele>
        <time>2021-04-17T14:14:56Z</time>
      </trkpt>
      <trkpt lat="46.05659" lon="6.10907">
        <ele>1050.4</ele>
        <time>2021-04-17T14:14:57Z</time>
      </trkpt>
      <trkpt lat="46.05661" lon="6.10904">
        <ele>1050.8</ele>
        <time>2021-04-17T14:14:58Z</time>
      </trkpt>
      <trkpt lat="46.05663" lon="6.10901">
        <ele>1051</ele>
        <time>2021-04-17T14:14:59Z</time>
      </trkpt>
      <trkpt lat="46.05665" lon="6.10898">
        <ele>1051.6</ele>
        <time>2021-04-17T14:15:00Z</time>
      </trkpt>
      <trkpt lat="46.05666" lon="6.10895">
        <ele>1051.8</ele>
        <time>2021-04-17T14:15:01Z</time>
      </trkpt>
      <trkpt lat="46.05667" lon="6.10892">
        <ele>1052.2</ele>
        <time>2021-04-17T14:15:02Z</time>
      </trkpt>
      <trkpt lat="46.05668" lon="6.10888">
        <ele>1052.6</ele>
        <time>2021-04-17T14:15:03Z</time>
      </trkpt>
      <trkpt lat="46.05669" lon="6.10884">
        <ele>1052.8</ele>
        <time>2021-04-17T14:15:04Z</time>
      </trkpt>
      <trkpt lat="46.0567" lon="6.1088">
        <ele>1053.2</ele>
        <time>2021-04-17T14:15:05Z</time>
      </trkpt>
      <trkpt lat="46.0567" lon="6.10876">
        <ele>1053.4</ele>
        <time>2021-04-17T14:15:06Z</time>
      </trkpt>
      <trkpt lat="46.05671" lon="6.10873">
        <ele>1053.6</ele>
        <time>2021-04-17T14:15:07Z</time>
      </trkpt>
      <trkpt lat="46.05672" lon="6.10869">
        <ele>1053.8</ele>
        <time>2021-04-17T14:15:08Z</time>
      </trkpt>
      <trkpt lat="46.05673" lon="6.10865">
        <ele>1053.8</ele>
        <time>2021-04-17T14:15:09Z</time>
      </trkpt>
      <trkpt lat="46.05674" lon="6.10861">
        <ele>1054</ele>
        <time>2021-04-17T14:15:10Z</time>
      </trkpt>
      <trkpt lat="46.05675" lon="6.10857">
        <ele>1054</ele>
        <time>2021-04-17T14:15:11Z</time>
      </trkpt>
      <trkpt lat="46.05676" lon="6.10854">
        <ele>1054</ele>
        <time>2021-04-17T14:15:12Z</time>
      </trkpt>
      <trkpt lat="46.05678" lon="6.10851">
        <ele>1054.2</ele>
        <time>2021-04-17T14:15:13Z</time>
      </trkpt>
      <trkpt lat="46.05679" lon="6.10848">
        <ele>1054.4</ele>
        <time>2021-04-17T14:15:14Z</time>
      </trkpt>
      <trkpt lat="46.05681" lon="6.10846">
        <ele>1054.6</ele>
        <time>2021-04-17T14:15:15Z</time>
      </trkpt>
      <trkpt lat="46.05683" lon="6.10845">
        <ele>1055</ele>
        <time>2021-04-17T14:15:16Z</time>
      </trkpt>
      <trkpt lat="46.05685" lon="6.10843">
        <ele>1055</ele>
        <time>2021-04-17T14:15:17Z</time>
      </trkpt>
      <trkpt lat="46.05687" lon="6.10843">
        <ele>1055.2</ele>
        <time>2021-04-17T14:15:18Z</time>
      </trkpt>
      <trkpt lat="46.05689" lon="6.10842">
        <ele>1055.4</ele>
        <time>2021-04-17T14:15:19Z</time>
      </trkpt>
      <trkpt lat="46.05691" lon="6.10842">
        <ele>1055.6</ele>
        <time>2021-04-17T14:15:20Z</time>
      </trkpt>
      <trkpt lat="46.05693" lon="6.10843">
        <ele>1055.6</ele>
        <time>2021-04-17T14:15:21Z</time>
      </trkpt>
      <trkpt lat="46.05695" lon="6.10844">
        <ele>1055.6</ele>
        <time>2021-04-17T14:15:22Z</time>
      </trkpt>
      <trkpt lat="46.05697" lon="6.10845">
        <ele>1056.2</ele>
        <time>2021-04-17T14:15:23Z</time>
      </trkpt>
      <trkpt lat="46.05699" lon="6.10847">
        <ele>1056.2</ele>
        <time>2021-04-17T14:15:24Z</time>
      </trkpt>
      <trkpt lat="46.05702" lon="6.10849">
        <ele>1056.4</ele>
        <time>2021-04-17T14:15:25Z</time>
      </trkpt>
      <trkpt lat="46.05705" lon="6.10851">
        <ele>1056.6</ele>
        <time>2021-04-17T14:15:26Z</time>
      </trkpt>
      <trkpt lat="46.05706" lon="6.10854">
        <ele>1056.8</ele>
        <time>2021-04-17T14:15:27Z</time>
      </trkpt>
      <trkpt lat="46.05708" lon="6.10856">
        <ele>1057</ele>
        <time>2021-04-17T14:15:28Z</time>
      </trkpt>
      <trkpt lat="46.05709" lon="6.10859">
        <ele>1057</ele>
        <time>2021-04-17T14:15:29Z</time>
      </trkpt>
      <trkpt lat="46.0571" lon="6.10863">
        <ele>1057</ele>
        <time>2021-04-17T14:15:30Z</time>
      </trkpt>
      <trkpt lat="46.05712" lon="6.10866">
        <ele>1057.2</ele>
        <time>2021-04-17T14:15:31Z</time>
      </trkpt>
      <trkpt lat="46.05713" lon="6.10869">
        <ele>1057.2</ele>
        <time>2021-04-17T14:15:32Z</time>
      </trkpt>
      <trkpt lat="46.05714" lon="6.10873">
        <ele>1057.6</ele>
        <time>2021-04-17T14:15:33Z</time>
      </trkpt>
      <trkpt lat="46.05715" lon="6.10876">
        <ele>1058</ele>
        <time>2021-04-17T14:15:34Z</time>
      </trkpt>
      <trkpt lat="46.05715" lon="6.10879">
        <ele>1058.2</ele>
        <time>2021-04-17T14:15:35Z</time>
      </trkpt>
      <trkpt lat="46.05716" lon="6.10882">
        <ele>1058.4</ele>
        <time>2021-04-17T14:15:36Z</time>
      </trkpt>
      <trkpt lat="46.05716" lon="6.10886">
        <ele>1058.6</ele>
        <time>2021-04-17T14:15:37Z</time>
      </trkpt>
      <trkpt lat="46.05716" lon="6.1089">
        <ele>1058.8</ele>
        <time>2021-04-17T14:15:38Z</time>
      </trkpt>
      <trkpt lat="46.05716" lon="6.10894">
        <ele>1059</ele>
        <time>2021-04-17T14:15:39Z</time>
      </trkpt>
      <trkpt lat="46.05716" lon="6.10898">
        <ele>1059.2</ele>
        <time>2021-04-17T14:15:40Z</time>
      </trkpt>
      <trkpt lat="46.05716" lon="6.10901">
        <ele>1059.2</ele>
        <time>2021-04-17T14:15:41Z</time>
      </trkpt>
      <trkpt lat="46.05716" lon="6.10905">
        <ele>1059.6</ele>
        <time>2021-04-17T14:15:42Z</time>
      </trkpt>
      <trkpt lat="46.05716" lon="6.10909">
        <ele>1059.8</ele>
        <time>2021-04-17T14:15:43Z</time>
      </trkpt>
      <trkpt lat="46.05716" lon="6.10913">
        <ele>1060</ele>
        <time>2021-04-17T14:15:44Z</time>
      </trkpt>
      <trkpt lat="46.05715" lon="6.10918">
        <ele>1060.2</ele>
        <time>2021-04-17T14:15:45Z</time>
      </trkpt>
      <trkpt lat="46.05715" lon="6.10922">
        <ele>1060.6</ele>
        <time>2021-04-17T14:15:46Z</time>
      </trkpt>
      <trkpt lat="46.05714" lon="6.10926">
        <ele>1060.8</ele>
        <time>2021-04-17T14:15:47Z</time>
      </trkpt>
      <trkpt lat="46.05714" lon="6.1093">
        <ele>1060.8</ele>
        <time>2021-04-17T14:15:48Z</time>
      </trkpt>
      <trkpt lat="46.05714" lon="6.10934">
        <ele>1061.2</ele>
        <time>2021-04-17T14:15:49Z</time>
      </trkpt>
      <trkpt lat="46.05714" lon="6.10938">
        <ele>1061.6</ele>
        <time>2021-04-17T14:15:50Z</time>
      </trkpt>
      <trkpt lat="46.05714" lon="6.10942">
        <ele>1061.8</ele>
        <time>2021-04-17T14:15:51Z</time>
      </trkpt>
      <trkpt lat="46.05715" lon="6.10946">
        <ele>1062</ele>
        <time>2021-04-17T14:15:52Z</time>
      </trkpt>
      <trkpt lat="46.05715" lon="6.1095">
        <ele>1062</ele>
        <time>2021-04-17T14:15:53Z</time>
      </trkpt>
      <trkpt lat="46.05716" lon="6.10954">
        <ele>1062.2</ele>
        <time>2021-04-17T14:15:54Z</time>
      </trkpt>
      <trkpt lat="46.05717" lon="6.10957">
        <ele>1062.2</ele>
        <time>2021-04-17T14:15:55Z</time>
      </trkpt>
      <trkpt lat="46.05718" lon="6.1096">
        <ele>1062.4</ele>
        <time>2021-04-17T14:15:56Z</time>
      </trkpt>
      <trkpt lat="46.05719" lon="6.10963">
        <ele>1062.6</ele>
        <time>2021-04-17T14:15:57Z</time>
      </trkpt>
      <trkpt lat="46.0572" lon="6.10965">
        <ele>1062.6</ele>
        <time>2021-04-17T14:15:58Z</time>
      </trkpt>
      <trkpt lat="46.05721" lon="6.10967">
        <ele>1062.6</ele>
        <time>2021-04-17T14:15:59Z</time>
      </trkpt>
      <trkpt lat="46.05722" lon="6.10969">
        <ele>1063</ele>
        <time>2021-04-17T14:16:00Z</time>
      </trkpt>
      <trkpt lat="46.05724" lon="6.1097">
        <ele>1063.2</ele>
        <time>2021-04-17T14:16:01Z</time>
      </trkpt>
      <trkpt lat="46.05725" lon="6.10971">
        <ele>1063.4</ele>
        <time>2021-04-17T14:16:02Z</time>
      </trkpt>
      <trkpt lat="46.05727" lon="6.10972">
        <ele>1063.6</ele>
        <time>2021-04-17T14:16:03Z</time>
      </trkpt>
      <trkpt lat="46.05729" lon="6.10973">
        <ele>1063.6</ele>
        <time>2021-04-17T14:16:04Z</time>
      </trkpt>
      <trkpt lat="46.05732" lon="6.10974">
        <ele>1063.8</ele>
        <time>2021-04-17T14:16:05Z</time>
      </trkpt>
      <trkpt lat="46.05735" lon="6.10975">
        <ele>1064</ele>
        <time>2021-04-17T14:16:06Z</time>
      </trkpt>
      <trkpt lat="46.05738" lon="6.10975">
        <ele>1064.2</ele>
        <time>2021-04-17T14:16:07Z</time>
      </trkpt>
      <trkpt lat="46.05741" lon="6.10974">
        <ele>1064.6</ele>
        <time>2021-04-17T14:16:08Z</time>
      </trkpt>
      <trkpt lat="46.05743" lon="6.10973">
        <ele>1065.4</ele>
        <time>2021-04-17T14:16:09Z</time>
      </trkpt>
      <trkpt lat="46.05746" lon="6.10972">
        <ele>1065.8</ele>
        <time>2021-04-17T14:16:10Z</time>
      </trkpt>
      <trkpt lat="46.05748" lon="6.10971">
        <ele>1066</ele>
        <time>2021-04-17T14:16:11Z</time>
      </trkpt>
      <trkpt lat="46.05749" lon="6.10969">
        <ele>1066.4</ele>
        <time>2021-04-17T14:16:12Z</time>
      </trkpt>
      <trkpt lat="46.05751" lon="6.10968">
        <ele>1066.6</ele>
        <time>2021-04-17T14:16:13Z</time>
      </trkpt>
      <trkpt lat="46.05752" lon="6.10966">
        <ele>1066.8</ele>
        <time>2021-04-17T14:16:14Z</time>
      </trkpt>
      <trkpt lat="46.05754" lon="6.10964">
        <ele>1066.8</ele>
        <time>2021-04-17T14:16:15Z</time>
      </trkpt>
      <trkpt lat="46.05755" lon="6.10961">
        <ele>1067</ele>
        <time>2021-04-17T14:16:16Z</time>
      </trkpt>
      <trkpt lat="46.05756" lon="6.10958">
        <ele>1067</ele>
        <time>2021-04-17T14:16:17Z</time>
      </trkpt>
      <trkpt lat="46.05758" lon="6.10956">
        <ele>1067.2</ele>
        <time>2021-04-17T14:16:18Z</time>
      </trkpt>
      <trkpt lat="46.05759" lon="6.10953">
        <ele>1067.2</ele>
        <time>2021-04-17T14:16:19Z</time>
      </trkpt>
      <trkpt lat="46.0576" lon="6.10951">
        <ele>1067.4</ele>
        <time>2021-04-17T14:16:20Z</time>
      </trkpt>
      <trkpt lat="46.05761" lon="6.10949">
        <ele>1067.4</ele>
        <time>2021-04-17T14:16:21Z</time>
      </trkpt>
      <trkpt lat="46.05762" lon="6.10946">
        <ele>1067.6</ele>
        <time>2021-04-17T14:16:22Z</time>
      </trkpt>
      <trkpt lat="46.05763" lon="6.10944">
        <ele>1068</ele>
        <time>2021-04-17T14:16:23Z</time>
      </trkpt>
      <trkpt lat="46.05763" lon="6.10941">
        <ele>1068.4</ele>
        <time>2021-04-17T14:16:24Z</time>
      </trkpt>
      <trkpt lat="46.05763" lon="6.10939">
        <ele>1068.8</ele>
        <time>2021-04-17T14:16:25Z</time>
      </trkpt>
      <trkpt lat="46.05763" lon="6.10936">
        <ele>1068.8</ele>
        <time>2021-04-17T14:16:26Z</time>
      </trkpt>
      <trkpt lat="46.05763" lon="6.10934">
        <ele>1069</ele>
        <time>2021-04-17T14:16:27Z</time>
      </trkpt>
      <trkpt lat="46.05764" lon="6.10931">
        <ele>1069.2</ele>
        <time>2021-04-17T14:16:28Z</time>
      </trkpt>
      <trkpt lat="46.05764" lon="6.10927">
        <ele>1069.4</ele>
        <time>2021-04-17T14:16:29Z</time>
      </trkpt>
      <trkpt lat="46.05765" lon="6.10924">
        <ele>1069.4</ele>
        <time>2021-04-17T14:16:30Z</time>
      </trkpt>
      <trkpt lat="46.05765" lon="6.10921">
        <ele>1069.6</ele>
        <time>2021-04-17T14:16:31Z</time>
      </trkpt>
      <trkpt lat="46.05766" lon="6.10918">
        <ele>1069.8</ele>
        <time>2021-04-17T14:16:32Z</time>
      </trkpt>
      <trkpt lat="46.05766" lon="6.10916">
        <ele>1069.8</ele>
        <time>2021-04-17T14:16:33Z</time>
      </trkpt>
      <trkpt lat="46.05766" lon="6.10912">
        <ele>1070</ele>
        <time>2021-04-17T14:16:34Z</time>
      </trkpt>
      <trkpt lat="46.05767" lon="6.10909">
        <ele>1070.2</ele>
        <time>2021-04-17T14:16:35Z</time>
      </trkpt>
      <trkpt lat="46.05767" lon="6.10906">
        <ele>1070.4</ele>
        <time>2021-04-17T14:16:36Z</time>
      </trkpt>
      <trkpt lat="46.05767" lon="6.10901">
        <ele>1070.6</ele>
        <time>2021-04-17T14:16:37Z</time>
      </trkpt>
      <trkpt lat="46.05766" lon="6.10896">
        <ele>1070.8</ele>
        <time>2021-04-17T14:16:38Z</time>
      </trkpt>
      <trkpt lat="46.05766" lon="6.10892">
        <ele>1071.2</ele>
        <time>2021-04-17T14:16:39Z</time>
      </trkpt>
      <trkpt lat="46.05767" lon="6.10888">
        <ele>1071.2</ele>
        <time>2021-04-17T14:16:40Z</time>
      </trkpt>
      <trkpt lat="46.05768" lon="6.10885">
        <ele>1071.4</ele>
        <time>2021-04-17T14:16:41Z</time>
      </trkpt>
      <trkpt lat="46.05768" lon="6.10881">
        <ele>1071.4</ele>
        <time>2021-04-17T14:16:42Z</time>
      </trkpt>
      <trkpt lat="46.05768" lon="6.10878">
        <ele>1071.6</ele>
        <time>2021-04-17T14:16:43Z</time>
      </trkpt>
      <trkpt lat="46.05769" lon="6.10875">
        <ele>1071.8</ele>
        <time>2021-04-17T14:16:44Z</time>
      </trkpt>
      <trkpt lat="46.05769" lon="6.10872">
        <ele>1072</ele>
        <time>2021-04-17T14:16:45Z</time>
      </trkpt>
      <trkpt lat="46.05769" lon="6.10869">
        <ele>1072</ele>
        <time>2021-04-17T14:16:46Z</time>
      </trkpt>
      <trkpt lat="46.05768" lon="6.10866">
        <ele>1072.2</ele>
        <time>2021-04-17T14:16:47Z</time>
      </trkpt>
      <trkpt lat="46.05768" lon="6.10862">
        <ele>1072.4</ele>
        <time>2021-04-17T14:16:48Z</time>
      </trkpt>
      <trkpt lat="46.05768" lon="6.10859">
        <ele>1072.6</ele>
        <time>2021-04-17T14:16:49Z</time>
      </trkpt>
      <trkpt lat="46.05767" lon="6.10856">
        <ele>1072.6</ele>
        <time>2021-04-17T14:16:50Z</time>
      </trkpt>
      <trkpt lat="46.05767" lon="6.10852">
        <ele>1072.8</ele>
        <time>2021-04-17T14:16:51Z</time>
      </trkpt>
      <trkpt lat="46.05765" lon="6.10848">
        <ele>1073</ele>
        <time>2021-04-17T14:16:52Z</time>
      </trkpt>
      <trkpt lat="46.05764" lon="6.10844">
        <ele>1073</ele>
        <time>2021-04-17T14:16:53Z</time>
      </trkpt>
      <trkpt lat="46.05763" lon="6.10841">
        <ele>1073</ele>
        <time>2021-04-17T14:16:54Z</time>
      </trkpt>
      <trkpt lat="46.05761" lon="6.10837">
        <ele>1073.4</ele>
        <time>2021-04-17T14:16:55Z</time>
      </trkpt>
      <trkpt lat="46.05759" lon="6.10833">
        <ele>1073.8</ele>
        <time>2021-04-17T14:16:56Z</time>
      </trkpt>
      <trkpt lat="46.05757" lon="6.1083">
        <ele>1073.8</ele>
        <time>2021-04-17T14:16:57Z</time>
      </trkpt>
      <trkpt lat="46.05755" lon="6.10827">
        <ele>1074.2</ele>
        <time>2021-04-17T14:16:58Z</time>
      </trkpt>
      <trkpt lat="46.05754" lon="6.10823">
        <ele>1074.4</ele>
        <time>2021-04-17T14:16:59Z</time>
      </trkpt>
      <trkpt lat="46.05753" lon="6.1082">
        <ele>1074.6</ele>
        <time>2021-04-17T14:17:00Z</time>
      </trkpt>
      <trkpt lat="46.05752" lon="6.10816">
        <ele>1074.8</ele>
        <time>2021-04-17T14:17:01Z</time>
      </trkpt>
      <trkpt lat="46.05751" lon="6.10812">
        <ele>1074.8</ele>
        <time>2021-04-17T14:17:02Z</time>
      </trkpt>
      <trkpt lat="46.0575" lon="6.10808">
        <ele>1075</ele>
        <time>2021-04-17T14:17:03Z</time>
      </trkpt>
      <trkpt lat="46.05748" lon="6.10803">
        <ele>1075</ele>
        <time>2021-04-17T14:17:04Z</time>
      </trkpt>
      <trkpt lat="46.05747" lon="6.10799">
        <ele>1075.2</ele>
        <time>2021-04-17T14:17:05Z</time>
      </trkpt>
      <trkpt lat="46.05747" lon="6.10795">
        <ele>1075.4</ele>
        <time>2021-04-17T14:17:06Z</time>
      </trkpt>
      <trkpt lat="46.05747" lon="6.10791">
        <ele>1075.6</ele>
        <time>2021-04-17T14:17:07Z</time>
      </trkpt>
      <trkpt lat="46.05748" lon="6.10787">
        <ele>1075.8</ele>
        <time>2021-04-17T14:17:08Z</time>
      </trkpt>
      <trkpt lat="46.05748" lon="6.10784">
        <ele>1076</ele>
        <time>2021-04-17T14:17:09Z</time>
      </trkpt>
      <trkpt lat="46.05749" lon="6.1078">
        <ele>1076.2</ele>
        <time>2021-04-17T14:17:10Z</time>
      </trkpt>
      <trkpt lat="46.05748" lon="6.10775">
        <ele>1076.2</ele>
        <time>2021-04-17T14:17:11Z</time>
      </trkpt>
      <trkpt lat="46.05748" lon="6.10771">
        <ele>1076.6</ele>
        <time>2021-04-17T14:17:12Z</time>
      </trkpt>
      <trkpt lat="46.05748" lon="6.10767">
        <ele>1076.8</ele>
        <time>2021-04-17T14:17:13Z</time>
      </trkpt>
      <trkpt lat="46.05749" lon="6.10763">
        <ele>1077</ele>
        <time>2021-04-17T14:17:14Z</time>
      </trkpt>
      <trkpt lat="46.05748" lon="6.10759">
        <ele>1077.2</ele>
        <time>2021-04-17T14:17:15Z</time>
      </trkpt>
      <trkpt lat="46.05748" lon="6.10755">
        <ele>1077</ele>
        <time>2021-04-17T14:17:16Z</time>
      </trkpt>
      <trkpt lat="46.05749" lon="6.10751">
        <ele>1077.6</ele>
        <time>2021-04-17T14:17:17Z</time>
      </trkpt>
      <trkpt lat="46.05749" lon="6.10747">
        <ele>1077.8</ele>
        <time>2021-04-17T14:17:18Z</time>
      </trkpt>
      <trkpt lat="46.05749" lon="6.10743">
        <ele>1078</ele>
        <time>2021-04-17T14:17:19Z</time>
      </trkpt>
      <trkpt lat="46.05749" lon="6.10739">
        <ele>1078.2</ele>
        <time>2021-04-17T14:17:20Z</time>
      </trkpt>
      <trkpt lat="46.05748" lon="6.10735">
        <ele>1078.6</ele>
        <time>2021-04-17T14:17:21Z</time>
      </trkpt>
      <trkpt lat="46.05748" lon="6.10732">
        <ele>1079</ele>
        <time>2021-04-17T14:17:22Z</time>
      </trkpt>
      <trkpt lat="46.05748" lon="6.10728">
        <ele>1079.2</ele>
        <time>2021-04-17T14:17:23Z</time>
      </trkpt>
      <trkpt lat="46.05747" lon="6.10724">
        <ele>1079.4</ele>
        <time>2021-04-17T14:17:24Z</time>
      </trkpt>
      <trkpt lat="46.05746" lon="6.1072">
        <ele>1079.6</ele>
        <time>2021-04-17T14:17:25Z</time>
      </trkpt>
      <trkpt lat="46.05746" lon="6.10716">
        <ele>1079.8</ele>
        <time>2021-04-17T14:17:26Z</time>
      </trkpt>
      <trkpt lat="46.05745" lon="6.10712">
        <ele>1079.8</ele>
        <time>2021-04-17T14:17:27Z</time>
      </trkpt>
      <trkpt lat="46.05745" lon="6.10709">
        <ele>1080.2</ele>
        <time>2021-04-17T14:17:28Z</time>
      </trkpt>
      <trkpt lat="46.05744" lon="6.10705">
        <ele>1080.4</ele>
        <time>2021-04-17T14:17:29Z</time>
      </trkpt>
      <trkpt lat="46.05743" lon="6.10701">
        <ele>1080.4</ele>
        <time>2021-04-17T14:17:30Z</time>
      </trkpt>
      <trkpt lat="46.05742" lon="6.10698">
        <ele>1080.4</ele>
        <time>2021-04-17T14:17:31Z</time>
      </trkpt>
      <trkpt lat="46.0574" lon="6.10694">
        <ele>1080.8</ele>
        <time>2021-04-17T14:17:32Z</time>
      </trkpt>
      <trkpt lat="46.05739" lon="6.1069">
        <ele>1080.8</ele>
        <time>2021-04-17T14:17:33Z</time>
      </trkpt>
      <trkpt lat="46.05738" lon="6.10686">
        <ele>1080.8</ele>
        <time>2021-04-17T14:17:34Z</time>
      </trkpt>
      <trkpt lat="46.05736" lon="6.10683">
        <ele>1081</ele>
        <time>2021-04-17T14:17:35Z</time>
      </trkpt>
      <trkpt lat="46.05734" lon="6.1068">
        <ele>1081</ele>
        <time>2021-04-17T14:17:36Z</time>
      </trkpt>
      <trkpt lat="46.05733" lon="6.10676">
        <ele>1081</ele>
        <time>2021-04-17T14:17:37Z</time>
      </trkpt>
      <trkpt lat="46.05731" lon="6.10673">
        <ele>1081.4</ele>
        <time>2021-04-17T14:17:38Z</time>
      </trkpt>
      <trkpt lat="46.05729" lon="6.10668">
        <ele>1081.6</ele>
        <time>2021-04-17T14:17:39Z</time>
      </trkpt>
      <trkpt lat="46.05727" lon="6.10665">
        <ele>1081.8</ele>
        <time>2021-04-17T14:17:40Z</time>
      </trkpt>
      <trkpt lat="46.05726" lon="6.10661">
        <ele>1081.8</ele>
        <time>2021-04-17T14:17:41Z</time>
      </trkpt>
      <trkpt lat="46.05724" lon="6.10658">
        <ele>1082</ele>
        <time>2021-04-17T14:17:42Z</time>
      </trkpt>
      <trkpt lat="46.05723" lon="6.10654">
        <ele>1082</ele>
        <time>2021-04-17T14:17:43Z</time>
      </trkpt>
      <trkpt lat="46.05721" lon="6.1065">
        <ele>1082</ele>
        <time>2021-04-17T14:17:44Z</time>
      </trkpt>
      <trkpt lat="46.0572" lon="6.10646">
        <ele>1082.2</ele>
        <time>2021-04-17T14:17:45Z</time>
      </trkpt>
      <trkpt lat="46.0572" lon="6.10642">
        <ele>1082.2</ele>
        <time>2021-04-17T14:17:46Z</time>
      </trkpt>
      <trkpt lat="46.05721" lon="6.10638">
        <ele>1082.4</ele>
        <time>2021-04-17T14:17:47Z</time>
      </trkpt>
      <trkpt lat="46.05721" lon="6.10633">
        <ele>1082.6</ele>
        <time>2021-04-17T14:17:48Z</time>
      </trkpt>
      <trkpt lat="46.05722" lon="6.10629">
        <ele>1082.6</ele>
        <time>2021-04-17T14:17:49Z</time>
      </trkpt>
      <trkpt lat="46.05722" lon="6.10624">
        <ele>1082.8</ele>
        <time>2021-04-17T14:17:50Z</time>
      </trkpt>
      <trkpt lat="46.05723" lon="6.10621">
        <ele>1083</ele>
        <time>2021-04-17T14:17:51Z</time>
      </trkpt>
      <trkpt lat="46.05724" lon="6.10617">
        <ele>1083.4</ele>
        <time>2021-04-17T14:17:52Z</time>
      </trkpt>
      <trkpt lat="46.05725" lon="6.10613">
        <ele>1083.6</ele>
        <time>2021-04-17T14:17:53Z</time>
      </trkpt>
      <trkpt lat="46.05727" lon="6.10611">
        <ele>1083.8</ele>
        <time>2021-04-17T14:17:54Z</time>
      </trkpt>
      <trkpt lat="46.05729" lon="6.10609">
        <ele>1084.2</ele>
        <time>2021-04-17T14:17:55Z</time>
      </trkpt>
      <trkpt lat="46.05731" lon="6.10607">
        <ele>1084.8</ele>
        <time>2021-04-17T14:17:56Z</time>
      </trkpt>
      <trkpt lat="46.05733" lon="6.10607">
        <ele>1085.2</ele>
        <time>2021-04-17T14:17:57Z</time>
      </trkpt>
      <trkpt lat="46.05734" lon="6.10606">
        <ele>1085.8</ele>
        <time>2021-04-17T14:17:58Z</time>
      </trkpt>
      <trkpt lat="46.05736" lon="6.10606">
        <ele>1086.2</ele>
        <time>2021-04-17T14:17:59Z</time>
      </trkpt>
      <trkpt lat="46.05737" lon="6.10606">
        <ele>1086.6</ele>
        <time>2021-04-17T14:18:00Z</time>
      </trkpt>
      <trkpt lat="46.05739" lon="6.10606">
        <ele>1087</ele>
        <time>2021-04-17T14:18:01Z</time>
      </trkpt>
      <trkpt lat="46.0574" lon="6.10607">
        <ele>1087</ele>
        <time>2021-04-17T14:18:02Z</time>
      </trkpt>
      <trkpt lat="46.05741" lon="6.10608">
        <ele>1087</ele>
        <time>2021-04-17T14:18:03Z</time>
      </trkpt>
      <trkpt lat="46.05743" lon="6.10609">
        <ele>1087.2</ele>
        <time>2021-04-17T14:18:04Z</time>
      </trkpt>
      <trkpt lat="46.05745" lon="6.10611">
        <ele>1087.2</ele>
        <time>2021-04-17T14:18:05Z</time>
      </trkpt>
      <trkpt lat="46.05747" lon="6.10613">
        <ele>1087.2</ele>
        <time>2021-04-17T14:18:06Z</time>
      </trkpt>
      <trkpt lat="46.05748" lon="6.10615">
        <ele>1087.2</ele>
        <time>2021-04-17T14:18:07Z</time>
      </trkpt>
      <trkpt lat="46.0575" lon="6.10617">
        <ele>1087.4</ele>
        <time>2021-04-17T14:18:08Z</time>
      </trkpt>
      <trkpt lat="46.05752" lon="6.10619">
        <ele>1087.4</ele>
        <time>2021-04-17T14:18:09Z</time>
      </trkpt>
      <trkpt lat="46.05754" lon="6.10621">
        <ele>1087.6</ele>
        <time>2021-04-17T14:18:10Z</time>
      </trkpt>
      <trkpt lat="46.05756" lon="6.10623">
        <ele>1087.6</ele>
        <time>2021-04-17T14:18:11Z</time>
      </trkpt>
      <trkpt lat="46.05758" lon="6.10625">
        <ele>1087.6</ele>
        <time>2021-04-17T14:18:12Z</time>
      </trkpt>
      <trkpt lat="46.0576" lon="6.10628">
        <ele>1087.6</ele>
        <time>2021-04-17T14:18:13Z</time>
      </trkpt>
      <trkpt lat="46.05763" lon="6.1063">
        <ele>1087.6</ele>
        <time>2021-04-17T14:18:14Z</time>
      </trkpt>
      <trkpt lat="46.05765" lon="6.10633">
        <ele>1088</ele>
        <time>2021-04-17T14:18:15Z</time>
      </trkpt>
      <trkpt lat="46.05767" lon="6.10635">
        <ele>1088.2</ele>
        <time>2021-04-17T14:18:16Z</time>
      </trkpt>
      <trkpt lat="46.05768" lon="6.10637">
        <ele>1088.2</ele>
        <time>2021-04-17T14:18:17Z</time>
      </trkpt>
      <trkpt lat="46.0577" lon="6.10639">
        <ele>1088.4</ele>
        <time>2021-04-17T14:18:18Z</time>
      </trkpt>
      <trkpt lat="46.05772" lon="6.10641">
        <ele>1088.2</ele>
        <time>2021-04-17T14:18:19Z</time>
      </trkpt>
      <trkpt lat="46.05773" lon="6.10642">
        <ele>1088.8</ele>
        <time>2021-04-17T14:18:20Z</time>
      </trkpt>
      <trkpt lat="46.05774" lon="6.10644">
        <ele>1089.2</ele>
        <time>2021-04-17T14:18:21Z</time>
      </trkpt>
      <trkpt lat="46.05776" lon="6.10647">
        <ele>1089.4</ele>
        <time>2021-04-17T14:18:22Z</time>
      </trkpt>
      <trkpt lat="46.05777" lon="6.10649">
        <ele>1089.4</ele>
        <time>2021-04-17T14:18:23Z</time>
      </trkpt>
      <trkpt lat="46.05779" lon="6.10652">
        <ele>1089.8</ele>
        <time>2021-04-17T14:18:24Z</time>
      </trkpt>
      <trkpt lat="46.0578" lon="6.10655">
        <ele>1089.8</ele>
        <time>2021-04-17T14:18:25Z</time>
      </trkpt>
      <trkpt lat="46.05781" lon="6.10658">
        <ele>1089.8</ele>
        <time>2021-04-17T14:18:26Z</time>
      </trkpt>
      <trkpt lat="46.05782" lon="6.1066">
        <ele>1090.2</ele>
        <time>2021-04-17T14:18:27Z</time>
      </trkpt>
      <trkpt lat="46.05785" lon="6.10663">
        <ele>1090.4</ele>
        <time>2021-04-17T14:18:28Z</time>
      </trkpt>
      <trkpt lat="46.05787" lon="6.10666">
        <ele>1090.6</ele>
        <time>2021-04-17T14:18:29Z</time>
      </trkpt>
      <trkpt lat="46.0579" lon="6.10669">
        <ele>1091.2</ele>
        <time>2021-04-17T14:18:30Z</time>
      </trkpt>
      <trkpt lat="46.05792" lon="6.10673">
        <ele>1091.2</ele>
        <time>2021-04-17T14:18:31Z</time>
      </trkpt>
      <trkpt lat="46.05795" lon="6.10676">
        <ele>1091.6</ele>
        <time>2021-04-17T14:18:32Z</time>
      </trkpt>
      <trkpt lat="46.05797" lon="6.10679">
        <ele>1091.6</ele>
        <time>2021-04-17T14:18:33Z</time>
      </trkpt>
      <trkpt lat="46.05798" lon="6.10682">
        <ele>1091.8</ele>
        <time>2021-04-17T14:18:34Z</time>
      </trkpt>
      <trkpt lat="46.058" lon="6.10685">
        <ele>1092</ele>
        <time>2021-04-17T14:18:35Z</time>
      </trkpt>
      <trkpt lat="46.05801" lon="6.10689">
        <ele>1092</ele>
        <time>2021-04-17T14:18:36Z</time>
      </trkpt>
      <trkpt lat="46.05802" lon="6.10693">
        <ele>1092.2</ele>
        <time>2021-04-17T14:18:37Z</time>
      </trkpt>
      <trkpt lat="46.05803" lon="6.10697">
        <ele>1092.4</ele>
        <time>2021-04-17T14:18:38Z</time>
      </trkpt>
      <trkpt lat="46.05804" lon="6.10701">
        <ele>1092.8</ele>
        <time>2021-04-17T14:18:39Z</time>
      </trkpt>
      <trkpt lat="46.05805" lon="6.10705">
        <ele>1092.8</ele>
        <time>2021-04-17T14:18:40Z</time>
      </trkpt>
      <trkpt lat="46.05805" lon="6.10708">
        <ele>1093.2</ele>
        <time>2021-04-17T14:18:41Z</time>
      </trkpt>
      <trkpt lat="46.05806" lon="6.10711">
        <ele>1093.4</ele>
        <time>2021-04-17T14:18:42Z</time>
      </trkpt>
      <trkpt lat="46.05806" lon="6.10715">
        <ele>1093.8</ele>
        <time>2021-04-17T14:18:43Z</time>
      </trkpt>
      <trkpt lat="46.05806" lon="6.10719">
        <ele>1094.2</ele>
        <time>2021-04-17T14:18:44Z</time>
      </trkpt>
      <trkpt lat="46.05807" lon="6.10722">
        <ele>1094.6</ele>
        <time>2021-04-17T14:18:45Z</time>
      </trkpt>
      <trkpt lat="46.05808" lon="6.10726">
        <ele>1095</ele>
        <time>2021-04-17T14:18:46Z</time>
      </trkpt>
      <trkpt lat="46.05808" lon="6.1073">
        <ele>1095.2</ele>
        <time>2021-04-17T14:18:47Z</time>
      </trkpt>
      <trkpt lat="46.05809" lon="6.10734">
        <ele>1095.2</ele>
        <time>2021-04-17T14:18:48Z</time>
      </trkpt>
      <trkpt lat="46.05809" lon="6.10738">
        <ele>1095.4</ele>
        <time>2021-04-17T14:18:49Z</time>
      </trkpt>
      <trkpt lat="46.05809" lon="6.10742">
        <ele>1095.4</ele>
        <time>2021-04-17T14:18:50Z</time>
      </trkpt>
      <trkpt lat="46.05809" lon="6.10746">
        <ele>1095.4</ele>
        <time>2021-04-17T14:18:51Z</time>
      </trkpt>
      <trkpt lat="46.0581" lon="6.1075">
        <ele>1095.6</ele>
        <time>2021-04-17T14:18:52Z</time>
      </trkpt>
      <trkpt lat="46.05811" lon="6.10754">
        <ele>1095.8</ele>
        <time>2021-04-17T14:18:53Z</time>
      </trkpt>
      <trkpt lat="46.05811" lon="6.10758">
        <ele>1095.8</ele>
        <time>2021-04-17T14:18:54Z</time>
      </trkpt>
      <trkpt lat="46.05813" lon="6.10761">
        <ele>1096</ele>
        <time>2021-04-17T14:18:55Z</time>
      </trkpt>
      <trkpt lat="46.05814" lon="6.10765">
        <ele>1096.2</ele>
        <time>2021-04-17T14:18:56Z</time>
      </trkpt>
      <trkpt lat="46.05816" lon="6.10769">
        <ele>1096.6</ele>
        <time>2021-04-17T14:18:57Z</time>
      </trkpt>
      <trkpt lat="46.05817" lon="6.10773">
        <ele>1097</ele>
        <time>2021-04-17T14:18:58Z</time>
      </trkpt>
      <trkpt lat="46.05819" lon="6.10776">
        <ele>1097.4</ele>
        <time>2021-04-17T14:18:59Z</time>
      </trkpt>
      <trkpt lat="46.0582" lon="6.1078">
        <ele>1097.8</ele>
        <time>2021-04-17T14:19:00Z</time>
      </trkpt>
      <trkpt lat="46.05822" lon="6.10783">
        <ele>1097.8</ele>
        <time>2021-04-17T14:19:01Z</time>
      </trkpt>
      <trkpt lat="46.05824" lon="6.10786">
        <ele>1098</ele>
        <time>2021-04-17T14:19:02Z</time>
      </trkpt>
      <trkpt lat="46.05826" lon="6.1079">
        <ele>1098.2</ele>
        <time>2021-04-17T14:19:03Z</time>
      </trkpt>
      <trkpt lat="46.05827" lon="6.10793">
        <ele>1098.4</ele>
        <time>2021-04-17T14:19:04Z</time>
      </trkpt>
      <trkpt lat="46.05829" lon="6.10797">
        <ele>1098.4</ele>
        <time>2021-04-17T14:19:05Z</time>
      </trkpt>
      <trkpt lat="46.0583" lon="6.108">
        <ele>1098.4</ele>
        <time>2021-04-17T14:19:06Z</time>
      </trkpt>
      <trkpt lat="46.05832" lon="6.10803">
        <ele>1098.6</ele>
        <time>2021-04-17T14:19:07Z</time>
      </trkpt>
      <trkpt lat="46.05833" lon="6.10806">
        <ele>1098.8</ele>
        <time>2021-04-17T14:19:08Z</time>
      </trkpt>
      <trkpt lat="46.05834" lon="6.10809">
        <ele>1099</ele>
        <time>2021-04-17T14:19:09Z</time>
      </trkpt>
      <trkpt lat="46.05836" lon="6.10813">
        <ele>1099.2</ele>
        <time>2021-04-17T14:19:10Z</time>
      </trkpt>
      <trkpt lat="46.05837" lon="6.10816">
        <ele>1099.2</ele>
        <time>2021-04-17T14:19:11Z</time>
      </trkpt>
      <trkpt lat="46.05839" lon="6.1082">
        <ele>1099.4</ele>
        <time>2021-04-17T14:19:12Z</time>
      </trkpt>
      <trkpt lat="46.05841" lon="6.10823">
        <ele>1099.4</ele>
        <time>2021-04-17T14:19:13Z</time>
      </trkpt>
      <trkpt lat="46.05842" lon="6.10825">
        <ele>1099.4</ele>
        <time>2021-04-17T14:19:14Z</time>
      </trkpt>
      <trkpt lat="46.05844" lon="6.10828">
        <ele>1099.6</ele>
        <time>2021-04-17T14:19:15Z</time>
      </trkpt>
      <trkpt lat="46.05845" lon="6.10831">
        <ele>1099.6</ele>
        <time>2021-04-17T14:19:16Z</time>
      </trkpt>
      <trkpt lat="46.05847" lon="6.10834">
        <ele>1099.8</ele>
        <time>2021-04-17T14:19:17Z</time>
      </trkpt>
      <trkpt lat="46.05848" lon="6.10837">
        <ele>1100.2</ele>
        <time>2021-04-17T14:19:18Z</time>
      </trkpt>
      <trkpt lat="46.05849" lon="6.1084">
        <ele>1100.4</ele>
        <time>2021-04-17T14:19:19Z</time>
      </trkpt>
      <trkpt lat="46.0585" lon="6.10843">
        <ele>1100.6</ele>
        <time>2021-04-17T14:19:20Z</time>
      </trkpt>
      <trkpt lat="46.05851" lon="6.10847">
        <ele>1100.4</ele>
        <time>2021-04-17T14:19:21Z</time>
      </trkpt>
      <trkpt lat="46.05852" lon="6.10851">
        <ele>1101</ele>
        <time>2021-04-17T14:19:22Z</time>
      </trkpt>
      <trkpt lat="46.05854" lon="6.10856">
        <ele>1101</ele>
        <time>2021-04-17T14:19:23Z</time>
      </trkpt>
      <trkpt lat="46.05855" lon="6.1086">
        <ele>1101.2</ele>
        <time>2021-04-17T14:19:24Z</time>
      </trkpt>
      <trkpt lat="46.05857" lon="6.10864">
        <ele>1101.4</ele>
        <time>2021-04-17T14:19:25Z</time>
      </trkpt>
      <trkpt lat="46.05859" lon="6.10868">
        <ele>1102</ele>
        <time>2021-04-17T14:19:26Z</time>
      </trkpt>
      <trkpt lat="46.0586" lon="6.10873">
        <ele>1102.2</ele>
        <time>2021-04-17T14:19:27Z</time>
      </trkpt>
      <trkpt lat="46.05862" lon="6.10877">
        <ele>1102.6</ele>
        <time>2021-04-17T14:19:28Z</time>
      </trkpt>
      <trkpt lat="46.05863" lon="6.1088">
        <ele>1102.8</ele>
        <time>2021-04-17T14:19:29Z</time>
      </trkpt>
      <trkpt lat="46.05864" lon="6.10884">
        <ele>1102.8</ele>
        <time>2021-04-17T14:19:30Z</time>
      </trkpt>
      <trkpt lat="46.05865" lon="6.10888">
        <ele>1103</ele>
        <time>2021-04-17T14:19:31Z</time>
      </trkpt>
      <trkpt lat="46.05866" lon="6.10891">
        <ele>1103.2</ele>
        <time>2021-04-17T14:19:32Z</time>
      </trkpt>
      <trkpt lat="46.05867" lon="6.10895">
        <ele>1103.2</ele>
        <time>2021-04-17T14:19:33Z</time>
      </trkpt>
      <trkpt lat="46.05868" lon="6.10899">
        <ele>1103.4</ele>
        <time>2021-04-17T14:19:34Z</time>
      </trkpt>
      <trkpt lat="46.05869" lon="6.10903">
        <ele>1103.2</ele>
        <time>2021-04-17T14:19:35Z</time>
      </trkpt>
      <trkpt lat="46.0587" lon="6.10907">
        <ele>1103.8</ele>
        <time>2021-04-17T14:19:36Z</time>
      </trkpt>
      <trkpt lat="46.05871" lon="6.10911">
        <ele>1104.2</ele>
        <time>2021-04-17T14:19:37Z</time>
      </trkpt>
      <trkpt lat="46.05872" lon="6.10915">
        <ele>1104.6</ele>
        <time>2021-04-17T14:19:38Z</time>
      </trkpt>
      <trkpt lat="46.05873" lon="6.10919">
        <ele>1104.8</ele>
        <time>2021-04-17T14:19:39Z</time>
      </trkpt>
      <trkpt lat="46.05874" lon="6.10922">
        <ele>1105</ele>
        <time>2021-04-17T14:19:40Z</time>
      </trkpt>
      <trkpt lat="46.05875" lon="6.10925">
        <ele>1105.2</ele>
        <time>2021-04-17T14:19:41Z</time>
      </trkpt>
      <trkpt lat="46.05876" lon="6.10929">
        <ele>1105.2</ele>
        <time>2021-04-17T14:19:42Z</time>
      </trkpt>
      <trkpt lat="46.05877" lon="6.10932">
        <ele>1105.2</ele>
        <time>2021-04-17T14:19:43Z</time>
      </trkpt>
      <trkpt lat="46.05878" lon="6.10936">
        <ele>1105.4</ele>
        <time>2021-04-17T14:19:44Z</time>
      </trkpt>
      <trkpt lat="46.0588" lon="6.10939">
        <ele>1105.6</ele>
        <time>2021-04-17T14:19:45Z</time>
      </trkpt>
      <trkpt lat="46.05882" lon="6.10942">
        <ele>1105.8</ele>
        <time>2021-04-17T14:19:46Z</time>
      </trkpt>
      <trkpt lat="46.05884" lon="6.10945">
        <ele>1106.2</ele>
        <time>2021-04-17T14:19:47Z</time>
      </trkpt>
      <trkpt lat="46.05886" lon="6.10948">
        <ele>1106.4</ele>
        <time>2021-04-17T14:19:48Z</time>
      </trkpt>
      <trkpt lat="46.05888" lon="6.1095">
        <ele>1106.6</ele>
        <time>2021-04-17T14:19:49Z</time>
      </trkpt>
      <trkpt lat="46.0589" lon="6.10951">
        <ele>1106.6</ele>
        <time>2021-04-17T14:19:50Z</time>
      </trkpt>
      <trkpt lat="46.05892" lon="6.10952">
        <ele>1106.8</ele>
        <time>2021-04-17T14:19:51Z</time>
      </trkpt>
      <trkpt lat="46.05895" lon="6.10952">
        <ele>1107</ele>
        <time>2021-04-17T14:19:52Z</time>
      </trkpt>
      <trkpt lat="46.05897" lon="6.10953">
        <ele>1107</ele>
        <time>2021-04-17T14:19:53Z</time>
      </trkpt>
      <trkpt lat="46.059" lon="6.10953">
        <ele>1107.2</ele>
        <time>2021-04-17T14:19:54Z</time>
      </trkpt>
      <trkpt lat="46.05903" lon="6.10953">
        <ele>1107.4</ele>
        <time>2021-04-17T14:19:55Z</time>
      </trkpt>
      <trkpt lat="46.05906" lon="6.10952">
        <ele>1107.6</ele>
        <time>2021-04-17T14:19:56Z</time>
      </trkpt>
      <trkpt lat="46.05909" lon="6.10951">
        <ele>1107.8</ele>
        <time>2021-04-17T14:19:57Z</time>
      </trkpt>
      <trkpt lat="46.05912" lon="6.10949">
        <ele>1108</ele>
        <time>2021-04-17T14:19:58Z</time>
      </trkpt>
      <trkpt lat="46.05915" lon="6.10947">
        <ele>1107.8</ele>
        <time>2021-04-17T14:19:59Z</time>
      </trkpt>
      <trkpt lat="46.05917" lon="6.10945">
        <ele>1108.2</ele>
        <time>2021-04-17T14:20:00Z</time>
      </trkpt>
      <trkpt lat="46.05918" lon="6.10942">
        <ele>1108</ele>
        <time>2021-04-17T14:20:01Z</time>
      </trkpt>
      <trkpt lat="46.0592" lon="6.10939">
        <ele>1108.2</ele>
        <time>2021-04-17T14:20:02Z</time>
      </trkpt>
      <trkpt lat="46.05921" lon="6.10935">
        <ele>1108.6</ele>
        <time>2021-04-17T14:20:03Z</time>
      </trkpt>
      <trkpt lat="46.05922" lon="6.10932">
        <ele>1108.8</ele>
        <time>2021-04-17T14:20:04Z</time>
      </trkpt>
      <trkpt lat="46.05923" lon="6.10928">
        <ele>1109</ele>
        <time>2021-04-17T14:20:05Z</time>
      </trkpt>
      <trkpt lat="46.05924" lon="6.10925">
        <ele>1109.2</ele>
        <time>2021-04-17T14:20:06Z</time>
      </trkpt>
      <trkpt lat="46.05924" lon="6.10922">
        <ele>1109.2</ele>
        <time>2021-04-17T14:20:07Z</time>
      </trkpt>
      <trkpt lat="46.05925" lon="6.10919">
        <ele>1109.4</ele>
        <time>2021-04-17T14:20:08Z</time>
      </trkpt>
      <trkpt lat="46.05925" lon="6.10916">
        <ele>1109.6</ele>
        <time>2021-04-17T14:20:09Z</time>
      </trkpt>
      <trkpt lat="46.05925" lon="6.10912">
        <ele>1109.8</ele>
        <time>2021-04-17T14:20:10Z</time>
      </trkpt>
      <trkpt lat="46.05925" lon="6.10908">
        <ele>1110.2</ele>
        <time>2021-04-17T14:20:11Z</time>
      </trkpt>
      <trkpt lat="46.05924" lon="6.10905">
        <ele>1110.4</ele>
        <time>2021-04-17T14:20:12Z</time>
      </trkpt>
      <trkpt lat="46.05923" lon="6.10901">
        <ele>1110.6</ele>
        <time>2021-04-17T14:20:13Z</time>
      </trkpt>
      <trkpt lat="46.05923" lon="6.10898">
        <ele>1110.8</ele>
        <time>2021-04-17T14:20:14Z</time>
      </trkpt>
      <trkpt lat="46.05922" lon="6.10895">
        <ele>1111</ele>
        <time>2021-04-17T14:20:15Z</time>
      </trkpt>
      <trkpt lat="46.05922" lon="6.10892">
        <ele>1111</ele>
        <time>2021-04-17T14:20:16Z</time>
      </trkpt>
      <trkpt lat="46.05921" lon="6.10889">
        <ele>1111</ele>
        <time>2021-04-17T14:20:17Z</time>
      </trkpt>
      <trkpt lat="46.05921" lon="6.10885">
        <ele>1111</ele>
        <time>2021-04-17T14:20:18Z</time>
      </trkpt>
      <trkpt lat="46.0592" lon="6.10882">
        <ele>1111</ele>
        <time>2021-04-17T14:20:19Z</time>
      </trkpt>
      <trkpt lat="46.05919" lon="6.10878">
        <ele>1111.2</ele>
        <time>2021-04-17T14:20:20Z</time>
      </trkpt>
      <trkpt lat="46.05919" lon="6.10875">
        <ele>1111.4</ele>
        <time>2021-04-17T14:20:21Z</time>
      </trkpt>
      <trkpt lat="46.05918" lon="6.1087">
        <ele>1111.4</ele>
        <time>2021-04-17T14:20:22Z</time>
      </trkpt>
      <trkpt lat="46.05916" lon="6.10866">
        <ele>1111.6</ele>
        <time>2021-04-17T14:20:23Z</time>
      </trkpt>
      <trkpt lat="46.05916" lon="6.10861">
        <ele>1111.6</ele>
        <time>2021-04-17T14:20:24Z</time>
      </trkpt>
      <trkpt lat="46.05915" lon="6.10856">
        <ele>1111.8</ele>
        <time>2021-04-17T14:20:25Z</time>
      </trkpt>
      <trkpt lat="46.05915" lon="6.10851">
        <ele>1112</ele>
        <time>2021-04-17T14:20:26Z</time>
      </trkpt>
      <trkpt lat="46.05914" lon="6.10847">
        <ele>1112.2</ele>
        <time>2021-04-17T14:20:27Z</time>
      </trkpt>
      <trkpt lat="46.05914" lon="6.10842">
        <ele>1112.4</ele>
        <time>2021-04-17T14:20:28Z</time>
      </trkpt>
      <trkpt lat="46.05914" lon="6.10837">
        <ele>1112.4</ele>
        <time>2021-04-17T14:20:29Z</time>
      </trkpt>
      <trkpt lat="46.05914" lon="6.10832">
        <ele>1112.4</ele>
        <time>2021-04-17T14:20:30Z</time>
      </trkpt>
      <trkpt lat="46.05915" lon="6.10828">
        <ele>1112.6</ele>
        <time>2021-04-17T14:20:31Z</time>
      </trkpt>
      <trkpt lat="46.05915" lon="6.10823">
        <ele>1113</ele>
        <time>2021-04-17T14:20:32Z</time>
      </trkpt>
      <trkpt lat="46.05915" lon="6.10819">
        <ele>1113</ele>
        <time>2021-04-17T14:20:33Z</time>
      </trkpt>
      <trkpt lat="46.05916" lon="6.10815">
        <ele>1113.2</ele>
        <time>2021-04-17T14:20:34Z</time>
      </trkpt>
      <trkpt lat="46.05916" lon="6.10811">
        <ele>1113.2</ele>
        <time>2021-04-17T14:20:35Z</time>
      </trkpt>
      <trkpt lat="46.05917" lon="6.10806">
        <ele>1113.4</ele>
        <time>2021-04-17T14:20:36Z</time>
      </trkpt>
      <trkpt lat="46.05918" lon="6.10802">
        <ele>1113.4</ele>
        <time>2021-04-17T14:20:37Z</time>
      </trkpt>
      <trkpt lat="46.05919" lon="6.10798">
        <ele>1113.4</ele>
        <time>2021-04-17T14:20:38Z</time>
      </trkpt>
      <trkpt lat="46.05919" lon="6.10793">
        <ele>1113.6</ele>
        <time>2021-04-17T14:20:39Z</time>
      </trkpt>
      <trkpt lat="46.0592" lon="6.10789">
        <ele>1113.6</ele>
        <time>2021-04-17T14:20:40Z</time>
      </trkpt>
      <trkpt lat="46.0592" lon="6.10784">
        <ele>1114.2</ele>
        <time>2021-04-17T14:20:41Z</time>
      </trkpt>
      <trkpt lat="46.05921" lon="6.1078">
        <ele>1114.4</ele>
        <time>2021-04-17T14:20:42Z</time>
      </trkpt>
      <trkpt lat="46.05921" lon="6.10775">
        <ele>1114.6</ele>
        <time>2021-04-17T14:20:43Z</time>
      </trkpt>
      <trkpt lat="46.05922" lon="6.1077">
        <ele>1115</ele>
        <time>2021-04-17T14:20:44Z</time>
      </trkpt>
      <trkpt lat="46.05923" lon="6.10765">
        <ele>1115.2</ele>
        <time>2021-04-17T14:20:45Z</time>
      </trkpt>
      <trkpt lat="46.05924" lon="6.10761">
        <ele>1115.6</ele>
        <time>2021-04-17T14:20:46Z</time>
      </trkpt>
      <trkpt lat="46.05924" lon="6.10756">
        <ele>1115.8</ele>
        <time>2021-04-17T14:20:47Z</time>
      </trkpt>
      <trkpt lat="46.05925" lon="6.10752">
        <ele>1116.2</ele>
        <time>2021-04-17T14:20:48Z</time>
      </trkpt>
      <trkpt lat="46.05925" lon="6.10748">
        <ele>1116.2</ele>
        <time>2021-04-17T14:20:49Z</time>
      </trkpt>
      <trkpt lat="46.05925" lon="6.10743">
        <ele>1116.4</ele>
        <time>2021-04-17T14:20:50Z</time>
      </trkpt>
      <trkpt lat="46.05925" lon="6.10739">
        <ele>1116.6</ele>
        <time>2021-04-17T14:20:51Z</time>
      </trkpt>
      <trkpt lat="46.05925" lon="6.10735">
        <ele>1116.6</ele>
        <time>2021-04-17T14:20:52Z</time>
      </trkpt>
      <trkpt lat="46.05925" lon="6.10731">
        <ele>1116.6</ele>
        <time>2021-04-17T14:20:53Z</time>
      </trkpt>
      <trkpt lat="46.05925" lon="6.10727">
        <ele>1116.6</ele>
        <time>2021-04-17T14:20:54Z</time>
      </trkpt>
      <trkpt lat="46.05925" lon="6.10723">
        <ele>1117</ele>
        <time>2021-04-17T14:20:55Z</time>
      </trkpt>
      <trkpt lat="46.05925" lon="6.10719">
        <ele>1117.2</ele>
        <time>2021-04-17T14:20:56Z</time>
      </trkpt>
      <trkpt lat="46.05925" lon="6.10715">
        <ele>1117.2</ele>
        <time>2021-04-17T14:20:57Z</time>
      </trkpt>
      <trkpt lat="46.05925" lon="6.10711">
        <ele>1117.2</ele>
        <time>2021-04-17T14:20:58Z</time>
      </trkpt>
      <trkpt lat="46.05925" lon="6.10707">
        <ele>1117.4</ele>
        <time>2021-04-17T14:20:59Z</time>
      </trkpt>
      <trkpt lat="46.05925" lon="6.10704">
        <ele>1117.4</ele>
        <time>2021-04-17T14:21:00Z</time>
      </trkpt>
      <trkpt lat="46.05925" lon="6.10701">
        <ele>1117.4</ele>
        <time>2021-04-17T14:21:01Z</time>
      </trkpt>
      <trkpt lat="46.05925" lon="6.10697">
        <ele>1117.6</ele>
        <time>2021-04-17T14:21:02Z</time>
      </trkpt>
      <trkpt lat="46.05924" lon="6.10693">
        <ele>1117.4</ele>
        <time>2021-04-17T14:21:03Z</time>
      </trkpt>
      <trkpt lat="46.05924" lon="6.10689">
        <ele>1118</ele>
        <time>2021-04-17T14:21:04Z</time>
      </trkpt>
      <trkpt lat="46.05924" lon="6.10685">
        <ele>1118.4</ele>
        <time>2021-04-17T14:21:05Z</time>
      </trkpt>
      <trkpt lat="46.05924" lon="6.10682">
        <ele>1118.6</ele>
        <time>2021-04-17T14:21:06Z</time>
      </trkpt>
      <trkpt lat="46.05923" lon="6.10677">
        <ele>1119</ele>
        <time>2021-04-17T14:21:07Z</time>
      </trkpt>
      <trkpt lat="46.05923" lon="6.10674">
        <ele>1119.2</ele>
        <time>2021-04-17T14:21:08Z</time>
      </trkpt>
      <trkpt lat="46.05922" lon="6.10669">
        <ele>1119.4</ele>
        <time>2021-04-17T14:21:09Z</time>
      </trkpt>
      <trkpt lat="46.05922" lon="6.10665">
        <ele>1119.6</ele>
        <time>2021-04-17T14:21:10Z</time>
      </trkpt>
      <trkpt lat="46.05921" lon="6.10661">
        <ele>1119.8</ele>
        <time>2021-04-17T14:21:11Z</time>
      </trkpt>
      <trkpt lat="46.05921" lon="6.10657">
        <ele>1120</ele>
        <time>2021-04-17T14:21:12Z</time>
      </trkpt>
      <trkpt lat="46.0592" lon="6.10652">
        <ele>1120</ele>
        <time>2021-04-17T14:21:13Z</time>
      </trkpt>
      <trkpt lat="46.05919" lon="6.10647">
        <ele>1120.2</ele>
        <time>2021-04-17T14:21:14Z</time>
      </trkpt>
      <trkpt lat="46.05918" lon="6.10643">
        <ele>1120.6</ele>
        <time>2021-04-17T14:21:15Z</time>
      </trkpt>
      <trkpt lat="46.05916" lon="6.10638">
        <ele>1120.8</ele>
        <time>2021-04-17T14:21:16Z</time>
      </trkpt>
      <trkpt lat="46.05915" lon="6.10634">
        <ele>1121</ele>
        <time>2021-04-17T14:21:17Z</time>
      </trkpt>
      <trkpt lat="46.05914" lon="6.1063">
        <ele>1121.2</ele>
        <time>2021-04-17T14:21:18Z</time>
      </trkpt>
      <trkpt lat="46.05913" lon="6.10627">
        <ele>1121.4</ele>
        <time>2021-04-17T14:21:19Z</time>
      </trkpt>
      <trkpt lat="46.05911" lon="6.10623">
        <ele>1121.4</ele>
        <time>2021-04-17T14:21:20Z</time>
      </trkpt>
      <trkpt lat="46.0591" lon="6.10619">
        <ele>1121.6</ele>
        <time>2021-04-17T14:21:21Z</time>
      </trkpt>
      <trkpt lat="46.05909" lon="6.10616">
        <ele>1121.6</ele>
        <time>2021-04-17T14:21:22Z</time>
      </trkpt>
      <trkpt lat="46.05907" lon="6.10612">
        <ele>1122</ele>
        <time>2021-04-17T14:21:23Z</time>
      </trkpt>
      <trkpt lat="46.05906" lon="6.10608">
        <ele>1121.8</ele>
        <time>2021-04-17T14:21:24Z</time>
      </trkpt>
      <trkpt lat="46.05906" lon="6.10604">
        <ele>1122</ele>
        <time>2021-04-17T14:21:25Z</time>
      </trkpt>
      <trkpt lat="46.05906" lon="6.10601">
        <ele>1122</ele>
        <time>2021-04-17T14:21:26Z</time>
      </trkpt>
      <trkpt lat="46.05906" lon="6.10596">
        <ele>1122</ele>
        <time>2021-04-17T14:21:27Z</time>
      </trkpt>
      <trkpt lat="46.05906" lon="6.10591">
        <ele>1122.2</ele>
        <time>2021-04-17T14:21:28Z</time>
      </trkpt>
      <trkpt lat="46.05906" lon="6.10587">
        <ele>1122.2</ele>
        <time>2021-04-17T14:21:29Z</time>
      </trkpt>
      <trkpt lat="46.05907" lon="6.10582">
        <ele>1122.4</ele>
        <time>2021-04-17T14:21:30Z</time>
      </trkpt>
      <trkpt lat="46.05908" lon="6.10579">
        <ele>1122.2</ele>
        <time>2021-04-17T14:21:31Z</time>
      </trkpt>
      <trkpt lat="46.05909" lon="6.10576">
        <ele>1122.4</ele>
        <time>2021-04-17T14:21:32Z</time>
      </trkpt>
      <trkpt lat="46.0591" lon="6.10574">
        <ele>1122.4</ele>
        <time>2021-04-17T14:21:33Z</time>
      </trkpt>
      <trkpt lat="46.05911" lon="6.10572">
        <ele>1122.4</ele>
        <time>2021-04-17T14:21:34Z</time>
      </trkpt>
      <trkpt lat="46.05913" lon="6.1057">
        <ele>1122.4</ele>
        <time>2021-04-17T14:21:35Z</time>
      </trkpt>
      <trkpt lat="46.05915" lon="6.10569">
        <ele>1122.4</ele>
        <time>2021-04-17T14:21:36Z</time>
      </trkpt>
      <trkpt lat="46.05917" lon="6.10568">
        <ele>1122.6</ele>
        <time>2021-04-17T14:21:37Z</time>
      </trkpt>
      <trkpt lat="46.05919" lon="6.10567">
        <ele>1123</ele>
        <time>2021-04-17T14:21:38Z</time>
      </trkpt>
      <trkpt lat="46.05922" lon="6.10568">
        <ele>1123.6</ele>
        <time>2021-04-17T14:21:39Z</time>
      </trkpt>
      <trkpt lat="46.05924" lon="6.10569">
        <ele>1123.8</ele>
        <time>2021-04-17T14:21:40Z</time>
      </trkpt>
      <trkpt lat="46.05926" lon="6.1057">
        <ele>1124</ele>
        <time>2021-04-17T14:21:41Z</time>
      </trkpt>
      <trkpt lat="46.05928" lon="6.10572">
        <ele>1124.4</ele>
        <time>2021-04-17T14:21:42Z</time>
      </trkpt>
      <trkpt lat="46.0593" lon="6.10575">
        <ele>1124.8</ele>
        <time>2021-04-17T14:21:43Z</time>
      </trkpt>
      <trkpt lat="46.05931" lon="6.10577">
        <ele>1125.2</ele>
        <time>2021-04-17T14:21:44Z</time>
      </trkpt>
      <trkpt lat="46.05933" lon="6.10579">
        <ele>1125.8</ele>
        <time>2021-04-17T14:21:45Z</time>
      </trkpt>
      <trkpt lat="46.05934" lon="6.10582">
        <ele>1126.2</ele>
        <time>2021-04-17T14:21:46Z</time>
      </trkpt>
      <trkpt lat="46.05935" lon="6.10585">
        <ele>1126.6</ele>
        <time>2021-04-17T14:21:47Z</time>
      </trkpt>
      <trkpt lat="46.05937" lon="6.10588">
        <ele>1126.8</ele>
        <time>2021-04-17T14:21:48Z</time>
      </trkpt>
      <trkpt lat="46.05938" lon="6.10591">
        <ele>1126.6</ele>
        <time>2021-04-17T14:21:49Z</time>
      </trkpt>
      <trkpt lat="46.05939" lon="6.10595">
        <ele>1126.8</ele>
        <time>2021-04-17T14:21:50Z</time>
      </trkpt>
      <trkpt lat="46.0594" lon="6.10598">
        <ele>1127</ele>
        <time>2021-04-17T14:21:51Z</time>
      </trkpt>
      <trkpt lat="46.05941" lon="6.10602">
        <ele>1127.4</ele>
        <time>2021-04-17T14:21:52Z</time>
      </trkpt>
      <trkpt lat="46.05942" lon="6.10605">
        <ele>1127.6</ele>
        <time>2021-04-17T14:21:53Z</time>
      </trkpt>
      <trkpt lat="46.05943" lon="6.10609">
        <ele>1128</ele>
        <time>2021-04-17T14:21:54Z</time>
      </trkpt>
      <trkpt lat="46.05944" lon="6.10612">
        <ele>1128.6</ele>
        <time>2021-04-17T14:21:55Z</time>
      </trkpt>
      <trkpt lat="46.05945" lon="6.10616">
        <ele>1129</ele>
        <time>2021-04-17T14:21:56Z</time>
      </trkpt>
      <trkpt lat="46.05946" lon="6.10619">
        <ele>1129.4</ele>
        <time>2021-04-17T14:21:57Z</time>
      </trkpt>
      <trkpt lat="46.05948" lon="6.10622">
        <ele>1129.6</ele>
        <time>2021-04-17T14:21:58Z</time>
      </trkpt>
      <trkpt lat="46.0595" lon="6.10625">
        <ele>1129.6</ele>
        <time>2021-04-17T14:21:59Z</time>
      </trkpt>
      <trkpt lat="46.05951" lon="6.10628">
        <ele>1129.6</ele>
        <time>2021-04-17T14:22:00Z</time>
      </trkpt>
      <trkpt lat="46.05952" lon="6.10631">
        <ele>1129.8</ele>
        <time>2021-04-17T14:22:01Z</time>
      </trkpt>
      <trkpt lat="46.05954" lon="6.10633">
        <ele>1129.6</ele>
        <time>2021-04-17T14:22:02Z</time>
      </trkpt>
      <trkpt lat="46.05955" lon="6.10636">
        <ele>1129.8</ele>
        <time>2021-04-17T14:22:03Z</time>
      </trkpt>
      <trkpt lat="46.05956" lon="6.10639">
        <ele>1130</ele>
        <time>2021-04-17T14:22:04Z</time>
      </trkpt>
      <trkpt lat="46.05957" lon="6.10641">
        <ele>1130.4</ele>
        <time>2021-04-17T14:22:05Z</time>
      </trkpt>
      <trkpt lat="46.05958" lon="6.10644">
        <ele>1130.4</ele>
        <time>2021-04-17T14:22:06Z</time>
      </trkpt>
      <trkpt lat="46.05959" lon="6.10646">
        <ele>1130.4</ele>
        <time>2021-04-17T14:22:07Z</time>
      </trkpt>
      <trkpt lat="46.05961" lon="6.10648">
        <ele>1130.6</ele>
        <time>2021-04-17T14:22:08Z</time>
      </trkpt>
      <trkpt lat="46.05963" lon="6.10651">
        <ele>1130.8</ele>
        <time>2021-04-17T14:22:09Z</time>
      </trkpt>
      <trkpt lat="46.05964" lon="6.10654">
        <ele>1131</ele>
        <time>2021-04-17T14:22:10Z</time>
      </trkpt>
      <trkpt lat="46.05965" lon="6.10656">
        <ele>1131</ele>
        <time>2021-04-17T14:22:11Z</time>
      </trkpt>
      <trkpt lat="46.05967" lon="6.10658">
        <ele>1131.2</ele>
        <time>2021-04-17T14:22:12Z</time>
      </trkpt>
      <trkpt lat="46.05969" lon="6.10661">
        <ele>1131.4</ele>
        <time>2021-04-17T14:22:13Z</time>
      </trkpt>
      <trkpt lat="46.05971" lon="6.10664">
        <ele>1131.6</ele>
        <time>2021-04-17T14:22:14Z</time>
      </trkpt>
      <trkpt lat="46.05973" lon="6.10667">
        <ele>1131.8</ele>
        <time>2021-04-17T14:22:15Z</time>
      </trkpt>
      <trkpt lat="46.05975" lon="6.1067">
        <ele>1131.8</ele>
        <time>2021-04-17T14:22:16Z</time>
      </trkpt>
      <trkpt lat="46.05977" lon="6.10672">
        <ele>1132</ele>
        <time>2021-04-17T14:22:17Z</time>
      </trkpt>
      <trkpt lat="46.05979" lon="6.10675">
        <ele>1132.2</ele>
        <time>2021-04-17T14:22:18Z</time>
      </trkpt>
      <trkpt lat="46.05981" lon="6.10677">
        <ele>1132.2</ele>
        <time>2021-04-17T14:22:19Z</time>
      </trkpt>
      <trkpt lat="46.05983" lon="6.10679">
        <ele>1132.6</ele>
        <time>2021-04-17T14:22:20Z</time>
      </trkpt>
      <trkpt lat="46.05985" lon="6.10682">
        <ele>1132.8</ele>
        <time>2021-04-17T14:22:21Z</time>
      </trkpt>
      <trkpt lat="46.05988" lon="6.10684">
        <ele>1132.8</ele>
        <time>2021-04-17T14:22:22Z</time>
      </trkpt>
      <trkpt lat="46.05991" lon="6.10686">
        <ele>1133</ele>
        <time>2021-04-17T14:22:23Z</time>
      </trkpt>
      <trkpt lat="46.05993" lon="6.10688">
        <ele>1133.2</ele>
        <time>2021-04-17T14:22:24Z</time>
      </trkpt>
      <trkpt lat="46.05995" lon="6.1069">
        <ele>1133.2</ele>
        <time>2021-04-17T14:22:25Z</time>
      </trkpt>
      <trkpt lat="46.05998" lon="6.10692">
        <ele>1133.4</ele>
        <time>2021-04-17T14:22:26Z</time>
      </trkpt>
      <trkpt lat="46.06" lon="6.10695">
        <ele>1133.6</ele>
        <time>2021-04-17T14:22:27Z</time>
      </trkpt>
      <trkpt lat="46.06003" lon="6.10697">
        <ele>1133.6</ele>
        <time>2021-04-17T14:22:28Z</time>
      </trkpt>
      <trkpt lat="46.06005" lon="6.10699">
        <ele>1133.8</ele>
        <time>2021-04-17T14:22:29Z</time>
      </trkpt>
      <trkpt lat="46.06008" lon="6.10701">
        <ele>1133.8</ele>
        <time>2021-04-17T14:22:30Z</time>
      </trkpt>
      <trkpt lat="46.06011" lon="6.10703">
        <ele>1134</ele>
        <time>2021-04-17T14:22:31Z</time>
      </trkpt>
      <trkpt lat="46.06013" lon="6.10705">
        <ele>1134.2</ele>
        <time>2021-04-17T14:22:32Z</time>
      </trkpt>
      <trkpt lat="46.06016" lon="6.10706">
        <ele>1134.2</ele>
        <time>2021-04-17T14:22:33Z</time>
      </trkpt>
      <trkpt lat="46.06018" lon="6.10709">
        <ele>1134.4</ele>
        <time>2021-04-17T14:22:34Z</time>
      </trkpt>
      <trkpt lat="46.0602" lon="6.10711">
        <ele>1134.6</ele>
        <time>2021-04-17T14:22:35Z</time>
      </trkpt>
      <trkpt lat="46.06023" lon="6.10713">
        <ele>1134.8</ele>
        <time>2021-04-17T14:22:36Z</time>
      </trkpt>
      <trkpt lat="46.06025" lon="6.10714">
        <ele>1134.8</ele>
        <time>2021-04-17T14:22:37Z</time>
      </trkpt>
      <trkpt lat="46.06027" lon="6.10716">
        <ele>1135</ele>
        <time>2021-04-17T14:22:38Z</time>
      </trkpt>
      <trkpt lat="46.0603" lon="6.10719">
        <ele>1135</ele>
        <time>2021-04-17T14:22:39Z</time>
      </trkpt>
      <trkpt lat="46.06032" lon="6.10721">
        <ele>1135</ele>
        <time>2021-04-17T14:22:40Z</time>
      </trkpt>
      <trkpt lat="46.06034" lon="6.10723">
        <ele>1135.2</ele>
        <time>2021-04-17T14:22:41Z</time>
      </trkpt>
      <trkpt lat="46.06036" lon="6.10725">
        <ele>1135.2</ele>
        <time>2021-04-17T14:22:42Z</time>
      </trkpt>
      <trkpt lat="46.06038" lon="6.10727">
        <ele>1135.2</ele>
        <time>2021-04-17T14:22:43Z</time>
      </trkpt>
      <trkpt lat="46.06041" lon="6.10729">
        <ele>1135.4</ele>
        <time>2021-04-17T14:22:44Z</time>
      </trkpt>
      <trkpt lat="46.06044" lon="6.10731">
        <ele>1135.6</ele>
        <time>2021-04-17T14:22:45Z</time>
      </trkpt>
      <trkpt lat="46.06046" lon="6.10733">
        <ele>1135.6</ele>
        <time>2021-04-17T14:22:46Z</time>
      </trkpt>
      <trkpt lat="46.06048" lon="6.10735">
        <ele>1135.8</ele>
        <time>2021-04-17T14:22:47Z</time>
      </trkpt>
      <trkpt lat="46.06051" lon="6.10737">
        <ele>1136</ele>
        <time>2021-04-17T14:22:48Z</time>
      </trkpt>
      <trkpt lat="46.06054" lon="6.10739">
        <ele>1136.2</ele>
        <time>2021-04-17T14:22:49Z</time>
      </trkpt>
      <trkpt lat="46.06056" lon="6.10742">
        <ele>1136.4</ele>
        <time>2021-04-17T14:22:50Z</time>
      </trkpt>
      <trkpt lat="46.06059" lon="6.10744">
        <ele>1136.8</ele>
        <time>2021-04-17T14:22:51Z</time>
      </trkpt>
      <trkpt lat="46.06062" lon="6.10746">
        <ele>1137</ele>
        <time>2021-04-17T14:22:52Z</time>
      </trkpt>
      <trkpt lat="46.06064" lon="6.10748">
        <ele>1137.2</ele>
        <time>2021-04-17T14:22:53Z</time>
      </trkpt>
      <trkpt lat="46.06067" lon="6.1075">
        <ele>1137.4</ele>
        <time>2021-04-17T14:22:54Z</time>
      </trkpt>
      <trkpt lat="46.06069" lon="6.10752">
        <ele>1137.6</ele>
        <time>2021-04-17T14:22:55Z</time>
      </trkpt>
      <trkpt lat="46.06072" lon="6.10754">
        <ele>1137.8</ele>
        <time>2021-04-17T14:22:56Z</time>
      </trkpt>
      <trkpt lat="46.06074" lon="6.10756">
        <ele>1138</ele>
        <time>2021-04-17T14:22:57Z</time>
      </trkpt>
      <trkpt lat="46.06077" lon="6.10758">
        <ele>1138.4</ele>
        <time>2021-04-17T14:22:58Z</time>
      </trkpt>
      <trkpt lat="46.06079" lon="6.1076">
        <ele>1139</ele>
        <time>2021-04-17T14:22:59Z</time>
      </trkpt>
      <trkpt lat="46.06082" lon="6.10762">
        <ele>1139.2</ele>
        <time>2021-04-17T14:23:00Z</time>
      </trkpt>
      <trkpt lat="46.06084" lon="6.10765">
        <ele>1139.8</ele>
        <time>2021-04-17T14:23:01Z</time>
      </trkpt>
      <trkpt lat="46.06087" lon="6.10767">
        <ele>1140.2</ele>
        <time>2021-04-17T14:23:02Z</time>
      </trkpt>
      <trkpt lat="46.06089" lon="6.10769">
        <ele>1140.2</ele>
        <time>2021-04-17T14:23:03Z</time>
      </trkpt>
      <trkpt lat="46.06091" lon="6.10771">
        <ele>1140.4</ele>
        <time>2021-04-17T14:23:04Z</time>
      </trkpt>
      <trkpt lat="46.06093" lon="6.10772">
        <ele>1140.4</ele>
        <time>2021-04-17T14:23:05Z</time>
      </trkpt>
      <trkpt lat="46.06096" lon="6.10774">
        <ele>1140.6</ele>
        <time>2021-04-17T14:23:06Z</time>
      </trkpt>
      <trkpt lat="46.06097" lon="6.10776">
        <ele>1140.6</ele>
        <time>2021-04-17T14:23:07Z</time>
      </trkpt>
      <trkpt lat="46.061" lon="6.10777">
        <ele>1140.8</ele>
        <time>2021-04-17T14:23:08Z</time>
      </trkpt>
      <trkpt lat="46.06103" lon="6.10779">
        <ele>1140.8</ele>
        <time>2021-04-17T14:23:09Z</time>
      </trkpt>
      <trkpt lat="46.06105" lon="6.1078">
        <ele>1141</ele>
        <time>2021-04-17T14:23:10Z</time>
      </trkpt>
      <trkpt lat="46.06107" lon="6.10782">
        <ele>1141.2</ele>
        <time>2021-04-17T14:23:11Z</time>
      </trkpt>
      <trkpt lat="46.0611" lon="6.10783">
        <ele>1141</ele>
        <time>2021-04-17T14:23:12Z</time>
      </trkpt>
      <trkpt lat="46.06113" lon="6.10784">
        <ele>1141.2</ele>
        <time>2021-04-17T14:23:13Z</time>
      </trkpt>
      <trkpt lat="46.06115" lon="6.10785">
        <ele>1141.4</ele>
        <time>2021-04-17T14:23:14Z</time>
      </trkpt>
      <trkpt lat="46.06118" lon="6.10786">
        <ele>1141.4</ele>
        <time>2021-04-17T14:23:15Z</time>
      </trkpt>
      <trkpt lat="46.06121" lon="6.10787">
        <ele>1141.6</ele>
        <time>2021-04-17T14:23:16Z</time>
      </trkpt>
      <trkpt lat="46.06123" lon="6.10788">
        <ele>1141.6</ele>
        <time>2021-04-17T14:23:17Z</time>
      </trkpt>
      <trkpt lat="46.06125" lon="6.10789">
        <ele>1141.8</ele>
        <time>2021-04-17T14:23:18Z</time>
      </trkpt>
      <trkpt lat="46.06127" lon="6.10791">
        <ele>1142</ele>
        <time>2021-04-17T14:23:19Z</time>
      </trkpt>
      <trkpt lat="46.06129" lon="6.10792">
        <ele>1142</ele>
        <time>2021-04-17T14:23:20Z</time>
      </trkpt>
      <trkpt lat="46.06131" lon="6.10793">
        <ele>1142.2</ele>
        <time>2021-04-17T14:23:21Z</time>
      </trkpt>
      <trkpt lat="46.06134" lon="6.10794">
        <ele>1142.4</ele>
        <time>2021-04-17T14:23:22Z</time>
      </trkpt>
      <trkpt lat="46.06136" lon="6.10795">
        <ele>1142.4</ele>
        <time>2021-04-17T14:23:23Z</time>
      </trkpt>
      <trkpt lat="46.06138" lon="6.10796">
        <ele>1142.6</ele>
        <time>2021-04-17T14:23:24Z</time>
      </trkpt>
      <trkpt lat="46.0614" lon="6.10798">
        <ele>1142.8</ele>
        <time>2021-04-17T14:23:25Z</time>
      </trkpt>
      <trkpt lat="46.06143" lon="6.108">
        <ele>1143</ele>
        <time>2021-04-17T14:23:26Z</time>
      </trkpt>
      <trkpt lat="46.06145" lon="6.10803">
        <ele>1143.8</ele>
        <time>2021-04-17T14:23:27Z</time>
      </trkpt>
      <trkpt lat="46.06147" lon="6.10805">
        <ele>1144.4</ele>
        <time>2021-04-17T14:23:28Z</time>
      </trkpt>
      <trkpt lat="46.0615" lon="6.10808">
        <ele>1144.6</ele>
        <time>2021-04-17T14:23:29Z</time>
      </trkpt>
      <trkpt lat="46.06152" lon="6.10811">
        <ele>1145</ele>
        <time>2021-04-17T14:23:30Z</time>
      </trkpt>
      <trkpt lat="46.06154" lon="6.10814">
        <ele>1145.4</ele>
        <time>2021-04-17T14:23:31Z</time>
      </trkpt>
      <trkpt lat="46.06156" lon="6.10817">
        <ele>1145.8</ele>
        <time>2021-04-17T14:23:32Z</time>
      </trkpt>
      <trkpt lat="46.06157" lon="6.1082">
        <ele>1146</ele>
        <time>2021-04-17T14:23:33Z</time>
      </trkpt>
      <trkpt lat="46.06159" lon="6.10824">
        <ele>1146.2</ele>
        <time>2021-04-17T14:23:34Z</time>
      </trkpt>
      <trkpt lat="46.0616" lon="6.10827">
        <ele>1146.2</ele>
        <time>2021-04-17T14:23:35Z</time>
      </trkpt>
      <trkpt lat="46.06161" lon="6.10831">
        <ele>1146.4</ele>
        <time>2021-04-17T14:23:36Z</time>
      </trkpt>
      <trkpt lat="46.06162" lon="6.10834">
        <ele>1146.6</ele>
        <time>2021-04-17T14:23:37Z</time>
      </trkpt>
      <trkpt lat="46.06163" lon="6.10837">
        <ele>1146.6</ele>
        <time>2021-04-17T14:23:38Z</time>
      </trkpt>
      <trkpt lat="46.06164" lon="6.10841">
        <ele>1146.4</ele>
        <time>2021-04-17T14:23:39Z</time>
      </trkpt>
      <trkpt lat="46.06166" lon="6.10844">
        <ele>1146.6</ele>
        <time>2021-04-17T14:23:40Z</time>
      </trkpt>
      <trkpt lat="46.06168" lon="6.10848">
        <ele>1146.6</ele>
        <time>2021-04-17T14:23:41Z</time>
      </trkpt>
      <trkpt lat="46.0617" lon="6.10852">
        <ele>1146.8</ele>
        <time>2021-04-17T14:23:42Z</time>
      </trkpt>
      <trkpt lat="46.06171" lon="6.10855">
        <ele>1146.8</ele>
        <time>2021-04-17T14:23:43Z</time>
      </trkpt>
      <trkpt lat="46.06173" lon="6.10858">
        <ele>1147.2</ele>
        <time>2021-04-17T14:23:44Z</time>
      </trkpt>
      <trkpt lat="46.06174" lon="6.10861">
        <ele>1147.8</ele>
        <time>2021-04-17T14:23:45Z</time>
      </trkpt>
      <trkpt lat="46.06176" lon="6.10863">
        <ele>1147.8</ele>
        <time>2021-04-17T14:23:46Z</time>
      </trkpt>
      <trkpt lat="46.06178" lon="6.10866">
        <ele>1148.2</ele>
        <time>2021-04-17T14:23:47Z</time>
      </trkpt>
      <trkpt lat="46.0618" lon="6.1087">
        <ele>1148.8</ele>
        <time>2021-04-17T14:23:48Z</time>
      </trkpt>
      <trkpt lat="46.06183" lon="6.10873">
        <ele>1148.8</ele>
        <time>2021-04-17T14:23:49Z</time>
      </trkpt>
      <trkpt lat="46.06184" lon="6.10877">
        <ele>1149.2</ele>
        <time>2021-04-17T14:23:50Z</time>
      </trkpt>
      <trkpt lat="46.06186" lon="6.1088">
        <ele>1149.4</ele>
        <time>2021-04-17T14:23:51Z</time>
      </trkpt>
      <trkpt lat="46.06189" lon="6.10884">
        <ele>1149.2</ele>
        <time>2021-04-17T14:23:52Z</time>
      </trkpt>
      <trkpt lat="46.06191" lon="6.10888">
        <ele>1149.4</ele>
        <time>2021-04-17T14:23:53Z</time>
      </trkpt>
      <trkpt lat="46.06194" lon="6.10891">
        <ele>1149.4</ele>
        <time>2021-04-17T14:23:54Z</time>
      </trkpt>
      <trkpt lat="46.06196" lon="6.10895">
        <ele>1149.6</ele>
        <time>2021-04-17T14:23:55Z</time>
      </trkpt>
      <trkpt lat="46.06199" lon="6.10898">
        <ele>1150</ele>
        <time>2021-04-17T14:23:56Z</time>
      </trkpt>
      <trkpt lat="46.06201" lon="6.10901">
        <ele>1150.2</ele>
        <time>2021-04-17T14:23:57Z</time>
      </trkpt>
      <trkpt lat="46.06203" lon="6.10904">
        <ele>1150.4</ele>
        <time>2021-04-17T14:23:58Z</time>
      </trkpt>
      <trkpt lat="46.06205" lon="6.10907">
        <ele>1150.6</ele>
        <time>2021-04-17T14:23:59Z</time>
      </trkpt>
      <trkpt lat="46.06207" lon="6.10909">
        <ele>1151</ele>
        <time>2021-04-17T14:24:00Z</time>
      </trkpt>
      <trkpt lat="46.0621" lon="6.10912">
        <ele>1151.4</ele>
        <time>2021-04-17T14:24:01Z</time>
      </trkpt>
      <trkpt lat="46.06212" lon="6.10914">
        <ele>1151.8</ele>
        <time>2021-04-17T14:24:02Z</time>
      </trkpt>
      <trkpt lat="46.06214" lon="6.10917">
        <ele>1152.2</ele>
        <time>2021-04-17T14:24:03Z</time>
      </trkpt>
      <trkpt lat="46.06217" lon="6.10919">
        <ele>1152.2</ele>
        <time>2021-04-17T14:24:04Z</time>
      </trkpt>
      <trkpt lat="46.06219" lon="6.10921">
        <ele>1152.2</ele>
        <time>2021-04-17T14:24:05Z</time>
      </trkpt>
      <trkpt lat="46.06221" lon="6.10924">
        <ele>1152.2</ele>
        <time>2021-04-17T14:24:06Z</time>
      </trkpt>
      <trkpt lat="46.06223" lon="6.10926">
        <ele>1152.4</ele>
        <time>2021-04-17T14:24:07Z</time>
      </trkpt>
      <trkpt lat="46.06226" lon="6.10928">
        <ele>1152.4</ele>
        <time>2021-04-17T14:24:08Z</time>
      </trkpt>
      <trkpt lat="46.06228" lon="6.1093">
        <ele>1152.6</ele>
        <time>2021-04-17T14:24:09Z</time>
      </trkpt>
      <trkpt lat="46.06231" lon="6.10933">
        <ele>1152.6</ele>
        <time>2021-04-17T14:24:10Z</time>
      </trkpt>
      <trkpt lat="46.06233" lon="6.10936">
        <ele>1152.6</ele>
        <time>2021-04-17T14:24:11Z</time>
      </trkpt>
      <trkpt lat="46.06236" lon="6.10938">
        <ele>1153</ele>
        <time>2021-04-17T14:24:12Z</time>
      </trkpt>
      <trkpt lat="46.06238" lon="6.1094">
        <ele>1153.2</ele>
        <time>2021-04-17T14:24:13Z</time>
      </trkpt>
      <trkpt lat="46.0624" lon="6.10943">
        <ele>1153.4</ele>
        <time>2021-04-17T14:24:14Z</time>
      </trkpt>
      <trkpt lat="46.06242" lon="6.10946">
        <ele>1153.8</ele>
        <time>2021-04-17T14:24:15Z</time>
      </trkpt>
      <trkpt lat="46.06244" lon="6.10949">
        <ele>1154.2</ele>
        <time>2021-04-17T14:24:16Z</time>
      </trkpt>
      <trkpt lat="46.06246" lon="6.10953">
        <ele>1154.6</ele>
        <time>2021-04-17T14:24:17Z</time>
      </trkpt>
      <trkpt lat="46.06248" lon="6.10956">
        <ele>1155</ele>
        <time>2021-04-17T14:24:18Z</time>
      </trkpt>
      <trkpt lat="46.0625" lon="6.1096">
        <ele>1155.2</ele>
        <time>2021-04-17T14:24:19Z</time>
      </trkpt>
      <trkpt lat="46.06252" lon="6.10963">
        <ele>1155.4</ele>
        <time>2021-04-17T14:24:20Z</time>
      </trkpt>
      <trkpt lat="46.06253" lon="6.10966">
        <ele>1155.6</ele>
        <time>2021-04-17T14:24:21Z</time>
      </trkpt>
      <trkpt lat="46.06254" lon="6.10968">
        <ele>1155.6</ele>
        <time>2021-04-17T14:24:22Z</time>
      </trkpt>
      <trkpt lat="46.06255" lon="6.1097">
        <ele>1155.4</ele>
        <time>2021-04-17T14:24:23Z</time>
      </trkpt>
      <trkpt lat="46.06256" lon="6.10973">
        <ele>1155.8</ele>
        <time>2021-04-17T14:24:24Z</time>
      </trkpt>
      <trkpt lat="46.06257" lon="6.10975">
        <ele>1155.8</ele>
        <time>2021-04-17T14:24:25Z</time>
      </trkpt>
      <trkpt lat="46.06258" lon="6.10978">
        <ele>1156.2</ele>
        <time>2021-04-17T14:24:26Z</time>
      </trkpt>
      <trkpt lat="46.06259" lon="6.1098">
        <ele>1156.4</ele>
        <time>2021-04-17T14:24:27Z</time>
      </trkpt>
      <trkpt lat="46.0626" lon="6.10983">
        <ele>1156.6</ele>
        <time>2021-04-17T14:24:28Z</time>
      </trkpt>
      <trkpt lat="46.06261" lon="6.10986">
        <ele>1156.8</ele>
        <time>2021-04-17T14:24:29Z</time>
      </trkpt>
      <trkpt lat="46.06262" lon="6.10989">
        <ele>1157.2</ele>
        <time>2021-04-17T14:24:30Z</time>
      </trkpt>
      <trkpt lat="46.06263" lon="6.10993">
        <ele>1157.2</ele>
        <time>2021-04-17T14:24:31Z</time>
      </trkpt>
      <trkpt lat="46.06265" lon="6.10997">
        <ele>1157.4</ele>
        <time>2021-04-17T14:24:32Z</time>
      </trkpt>
      <trkpt lat="46.06266" lon="6.11001">
        <ele>1157.4</ele>
        <time>2021-04-17T14:24:33Z</time>
      </trkpt>
      <trkpt lat="46.06268" lon="6.11004">
        <ele>1157.6</ele>
        <time>2021-04-17T14:24:34Z</time>
      </trkpt>
      <trkpt lat="46.0627" lon="6.11008">
        <ele>1157.6</ele>
        <time>2021-04-17T14:24:35Z</time>
      </trkpt>
      <trkpt lat="46.06271" lon="6.11011">
        <ele>1157.6</ele>
        <time>2021-04-17T14:24:36Z</time>
      </trkpt>
      <trkpt lat="46.06272" lon="6.11014">
        <ele>1157.8</ele>
        <time>2021-04-17T14:24:37Z</time>
      </trkpt>
      <trkpt lat="46.06273" lon="6.11017">
        <ele>1157.8</ele>
        <time>2021-04-17T14:24:38Z</time>
      </trkpt>
      <trkpt lat="46.06274" lon="6.11021">
        <ele>1158</ele>
        <time>2021-04-17T14:24:39Z</time>
      </trkpt>
      <trkpt lat="46.06276" lon="6.11024">
        <ele>1158</ele>
        <time>2021-04-17T14:24:40Z</time>
      </trkpt>
      <trkpt lat="46.06277" lon="6.11027">
        <ele>1158</ele>
        <time>2021-04-17T14:24:41Z</time>
      </trkpt>
      <trkpt lat="46.06279" lon="6.11031">
        <ele>1158</ele>
        <time>2021-04-17T14:24:42Z</time>
      </trkpt>
      <trkpt lat="46.0628" lon="6.11035">
        <ele>1158.2</ele>
        <time>2021-04-17T14:24:43Z</time>
      </trkpt>
      <trkpt lat="46.06282" lon="6.11039">
        <ele>1158.4</ele>
        <time>2021-04-17T14:24:44Z</time>
      </trkpt>
      <trkpt lat="46.06284" lon="6.11043">
        <ele>1158.6</ele>
        <time>2021-04-17T14:24:45Z</time>
      </trkpt>
      <trkpt lat="46.06286" lon="6.11047">
        <ele>1159</ele>
        <time>2021-04-17T14:24:46Z</time>
      </trkpt>
      <trkpt lat="46.06288" lon="6.11051">
        <ele>1159.6</ele>
        <time>2021-04-17T14:24:47Z</time>
      </trkpt>
      <trkpt lat="46.0629" lon="6.11054">
        <ele>1159.8</ele>
        <time>2021-04-17T14:24:48Z</time>
      </trkpt>
      <trkpt lat="46.06292" lon="6.11058">
        <ele>1160.2</ele>
        <time>2021-04-17T14:24:49Z</time>
      </trkpt>
      <trkpt lat="46.06294" lon="6.11061">
        <ele>1160.4</ele>
        <time>2021-04-17T14:24:50Z</time>
      </trkpt>
      <trkpt lat="46.06297" lon="6.11065">
        <ele>1160.4</ele>
        <time>2021-04-17T14:24:51Z</time>
      </trkpt>
      <trkpt lat="46.06299" lon="6.11068">
        <ele>1160.6</ele>
        <time>2021-04-17T14:24:52Z</time>
      </trkpt>
      <trkpt lat="46.06301" lon="6.1107">
        <ele>1160.8</ele>
        <time>2021-04-17T14:24:53Z</time>
      </trkpt>
      <trkpt lat="46.06303" lon="6.11072">
        <ele>1161.2</ele>
        <time>2021-04-17T14:24:54Z</time>
      </trkpt>
      <trkpt lat="46.06305" lon="6.11074">
        <ele>1161.6</ele>
        <time>2021-04-17T14:24:55Z</time>
      </trkpt>
      <trkpt lat="46.06307" lon="6.11077">
        <ele>1161.8</ele>
        <time>2021-04-17T14:24:56Z</time>
      </trkpt>
      <trkpt lat="46.06309" lon="6.11078">
        <ele>1162</ele>
        <time>2021-04-17T14:24:57Z</time>
      </trkpt>
      <trkpt lat="46.06311" lon="6.1108">
        <ele>1162.2</ele>
        <time>2021-04-17T14:24:58Z</time>
      </trkpt>
      <trkpt lat="46.06314" lon="6.11082">
        <ele>1162.2</ele>
        <time>2021-04-17T14:24:59Z</time>
      </trkpt>
      <trkpt lat="46.06316" lon="6.11085">
        <ele>1162.2</ele>
        <time>2021-04-17T14:25:00Z</time>
      </trkpt>
      <trkpt lat="46.06319" lon="6.11087">
        <ele>1162.6</ele>
        <time>2021-04-17T14:25:01Z</time>
      </trkpt>
      <trkpt lat="46.06321" lon="6.11088">
        <ele>1162.6</ele>
        <time>2021-04-17T14:25:02Z</time>
      </trkpt>
      <trkpt lat="46.06323" lon="6.1109">
        <ele>1162.6</ele>
        <time>2021-04-17T14:25:03Z</time>
      </trkpt>
      <trkpt lat="46.06325" lon="6.11091">
        <ele>1162.6</ele>
        <time>2021-04-17T14:25:04Z</time>
      </trkpt>
      <trkpt lat="46.06327" lon="6.11093">
        <ele>1162.6</ele>
        <time>2021-04-17T14:25:05Z</time>
      </trkpt>
      <trkpt lat="46.0633" lon="6.11094">
        <ele>1162.8</ele>
        <time>2021-04-17T14:25:06Z</time>
      </trkpt>
      <trkpt lat="46.06332" lon="6.11096">
        <ele>1163</ele>
        <time>2021-04-17T14:25:07Z</time>
      </trkpt>
      <trkpt lat="46.06334" lon="6.11097">
        <ele>1163.2</ele>
        <time>2021-04-17T14:25:08Z</time>
      </trkpt>
      <trkpt lat="46.06337" lon="6.11099">
        <ele>1163.6</ele>
        <time>2021-04-17T14:25:09Z</time>
      </trkpt>
      <trkpt lat="46.06339" lon="6.111">
        <ele>1163.8</ele>
        <time>2021-04-17T14:25:10Z</time>
      </trkpt>
      <trkpt lat="46.06341" lon="6.11102">
        <ele>1164.2</ele>
        <time>2021-04-17T14:25:11Z</time>
      </trkpt>
      <trkpt lat="46.06344" lon="6.11103">
        <ele>1164.6</ele>
        <time>2021-04-17T14:25:12Z</time>
      </trkpt>
      <trkpt lat="46.06347" lon="6.11105">
        <ele>1165</ele>
        <time>2021-04-17T14:25:13Z</time>
      </trkpt>
      <trkpt lat="46.06349" lon="6.11107">
        <ele>1165</ele>
        <time>2021-04-17T14:25:14Z</time>
      </trkpt>
      <trkpt lat="46.06352" lon="6.11109">
        <ele>1165.4</ele>
        <time>2021-04-17T14:25:15Z</time>
      </trkpt>
      <trkpt lat="46.06355" lon="6.11111">
        <ele>1165.8</ele>
        <time>2021-04-17T14:25:16Z</time>
      </trkpt>
      <trkpt lat="46.06357" lon="6.11113">
        <ele>1166</ele>
        <time>2021-04-17T14:25:17Z</time>
      </trkpt>
      <trkpt lat="46.06359" lon="6.11114">
        <ele>1166.4</ele>
        <time>2021-04-17T14:25:18Z</time>
      </trkpt>
      <trkpt lat="46.06361" lon="6.11116">
        <ele>1166.6</ele>
        <time>2021-04-17T14:25:19Z</time>
      </trkpt>
      <trkpt lat="46.06363" lon="6.11117">
        <ele>1166.8</ele>
        <time>2021-04-17T14:25:20Z</time>
      </trkpt>
      <trkpt lat="46.06365" lon="6.11119">
        <ele>1167</ele>
        <time>2021-04-17T14:25:21Z</time>
      </trkpt>
      <trkpt lat="46.06367" lon="6.11121">
        <ele>1167.2</ele>
        <time>2021-04-17T14:25:22Z</time>
      </trkpt>
      <trkpt lat="46.06369" lon="6.11122">
        <ele>1167.2</ele>
        <time>2021-04-17T14:25:23Z</time>
      </trkpt>
      <trkpt lat="46.06371" lon="6.11124">
        <ele>1167.6</ele>
        <time>2021-04-17T14:25:24Z</time>
      </trkpt>
      <trkpt lat="46.06373" lon="6.11125">
        <ele>1167.6</ele>
        <time>2021-04-17T14:25:25Z</time>
      </trkpt>
      <trkpt lat="46.06375" lon="6.11126">
        <ele>1168</ele>
        <time>2021-04-17T14:25:26Z</time>
      </trkpt>
      <trkpt lat="46.06377" lon="6.11127">
        <ele>1168</ele>
        <time>2021-04-17T14:25:27Z</time>
      </trkpt>
      <trkpt lat="46.06379" lon="6.11128">
        <ele>1168.2</ele>
        <time>2021-04-17T14:25:28Z</time>
      </trkpt>
      <trkpt lat="46.06381" lon="6.1113">
        <ele>1168.4</ele>
        <time>2021-04-17T14:25:29Z</time>
      </trkpt>
      <trkpt lat="46.06383" lon="6.11132">
        <ele>1168.8</ele>
        <time>2021-04-17T14:25:30Z</time>
      </trkpt>
      <trkpt lat="46.06385" lon="6.11134">
        <ele>1169</ele>
        <time>2021-04-17T14:25:31Z</time>
      </trkpt>
      <trkpt lat="46.06387" lon="6.11135">
        <ele>1169.4</ele>
        <time>2021-04-17T14:25:32Z</time>
      </trkpt>
      <trkpt lat="46.06389" lon="6.11137">
        <ele>1169.6</ele>
        <time>2021-04-17T14:25:33Z</time>
      </trkpt>
      <trkpt lat="46.06391" lon="6.11139">
        <ele>1169.8</ele>
        <time>2021-04-17T14:25:34Z</time>
      </trkpt>
      <trkpt lat="46.06394" lon="6.11142">
        <ele>1170.4</ele>
        <time>2021-04-17T14:25:35Z</time>
      </trkpt>
      <trkpt lat="46.06397" lon="6.11145">
        <ele>1170.4</ele>
        <time>2021-04-17T14:25:36Z</time>
      </trkpt>
      <trkpt lat="46.064" lon="6.11148">
        <ele>1170.6</ele>
        <time>2021-04-17T14:25:37Z</time>
      </trkpt>
      <trkpt lat="46.06403" lon="6.11152">
        <ele>1170.8</ele>
        <time>2021-04-17T14:25:38Z</time>
      </trkpt>
      <trkpt lat="46.06406" lon="6.11157">
        <ele>1170.8</ele>
        <time>2021-04-17T14:25:39Z</time>
      </trkpt>
      <trkpt lat="46.06408" lon="6.1116">
        <ele>1170.8</ele>
        <time>2021-04-17T14:25:40Z</time>
      </trkpt>
      <trkpt lat="46.0641" lon="6.11163">
        <ele>1170.8</ele>
        <time>2021-04-17T14:25:41Z</time>
      </trkpt>
      <trkpt lat="46.0641" lon="6.11166">
        <ele>1171</ele>
        <time>2021-04-17T14:25:42Z</time>
      </trkpt>
      <trkpt lat="46.06411" lon="6.11169">
        <ele>1171.2</ele>
        <time>2021-04-17T14:25:43Z</time>
      </trkpt>
      <trkpt lat="46.06411" lon="6.11172">
        <ele>1171.2</ele>
        <time>2021-04-17T14:25:44Z</time>
      </trkpt>
      <trkpt lat="46.06411" lon="6.11175">
        <ele>1171.4</ele>
        <time>2021-04-17T14:25:45Z</time>
      </trkpt>
      <trkpt lat="46.0641" lon="6.11178">
        <ele>1171.4</ele>
        <time>2021-04-17T14:25:46Z</time>
      </trkpt>
      <trkpt lat="46.0641" lon="6.11181">
        <ele>1171.6</ele>
        <time>2021-04-17T14:25:47Z</time>
      </trkpt>
      <trkpt lat="46.0641" lon="6.11184">
        <ele>1171.8</ele>
        <time>2021-04-17T14:25:48Z</time>
      </trkpt>
      <trkpt lat="46.06409" lon="6.11188">
        <ele>1171.8</ele>
        <time>2021-04-17T14:25:49Z</time>
      </trkpt>
      <trkpt lat="46.06409" lon="6.11191">
        <ele>1172</ele>
        <time>2021-04-17T14:25:50Z</time>
      </trkpt>
      <trkpt lat="46.06409" lon="6.11195">
        <ele>1172</ele>
        <time>2021-04-17T14:25:51Z</time>
      </trkpt>
      <trkpt lat="46.06409" lon="6.11199">
        <ele>1172.2</ele>
        <time>2021-04-17T14:25:52Z</time>
      </trkpt>
      <trkpt lat="46.0641" lon="6.11204">
        <ele>1172.6</ele>
        <time>2021-04-17T14:25:53Z</time>
      </trkpt>
      <trkpt lat="46.0641" lon="6.11208">
        <ele>1172.8</ele>
        <time>2021-04-17T14:25:54Z</time>
      </trkpt>
      <trkpt lat="46.0641" lon="6.11213">
        <ele>1172.8</ele>
        <time>2021-04-17T14:25:55Z</time>
      </trkpt>
      <trkpt lat="46.06411" lon="6.11217">
        <ele>1172.8</ele>
        <time>2021-04-17T14:25:56Z</time>
      </trkpt>
      <trkpt lat="46.06412" lon="6.11221">
        <ele>1173</ele>
        <time>2021-04-17T14:25:57Z</time>
      </trkpt>
      <trkpt lat="46.06412" lon="6.11224">
        <ele>1173</ele>
        <time>2021-04-17T14:25:58Z</time>
      </trkpt>
      <trkpt lat="46.06412" lon="6.11228">
        <ele>1173</ele>
        <time>2021-04-17T14:25:59Z</time>
      </trkpt>
      <trkpt lat="46.06413" lon="6.11231">
        <ele>1173.2</ele>
        <time>2021-04-17T14:26:00Z</time>
      </trkpt>
      <trkpt lat="46.06414" lon="6.11235">
        <ele>1173.2</ele>
        <time>2021-04-17T14:26:01Z</time>
      </trkpt>
      <trkpt lat="46.06414" lon="6.11239">
        <ele>1173.6</ele>
        <time>2021-04-17T14:26:02Z</time>
      </trkpt>
      <trkpt lat="46.06415" lon="6.11242">
        <ele>1173.8</ele>
        <time>2021-04-17T14:26:03Z</time>
      </trkpt>
      <trkpt lat="46.06416" lon="6.11246">
        <ele>1174.2</ele>
        <time>2021-04-17T14:26:04Z</time>
      </trkpt>
      <trkpt lat="46.06416" lon="6.11249">
        <ele>1174.4</ele>
        <time>2021-04-17T14:26:05Z</time>
      </trkpt>
      <trkpt lat="46.06418" lon="6.11252">
        <ele>1174.8</ele>
        <time>2021-04-17T14:26:06Z</time>
      </trkpt>
      <trkpt lat="46.06419" lon="6.11256">
        <ele>1175</ele>
        <time>2021-04-17T14:26:07Z</time>
      </trkpt>
      <trkpt lat="46.0642" lon="6.11259">
        <ele>1175.4</ele>
        <time>2021-04-17T14:26:08Z</time>
      </trkpt>
      <trkpt lat="46.06422" lon="6.11262">
        <ele>1176</ele>
        <time>2021-04-17T14:26:09Z</time>
      </trkpt>
      <trkpt lat="46.06423" lon="6.11266">
        <ele>1176.4</ele>
        <time>2021-04-17T14:26:10Z</time>
      </trkpt>
      <trkpt lat="46.06425" lon="6.11269">
        <ele>1176.6</ele>
        <time>2021-04-17T14:26:11Z</time>
      </trkpt>
      <trkpt lat="46.06427" lon="6.11273">
        <ele>1176.8</ele>
        <time>2021-04-17T14:26:12Z</time>
      </trkpt>
      <trkpt lat="46.0643" lon="6.11277">
        <ele>1177</ele>
        <time>2021-04-17T14:26:13Z</time>
      </trkpt>
      <trkpt lat="46.06432" lon="6.1128">
        <ele>1177</ele>
        <time>2021-04-17T14:26:14Z</time>
      </trkpt>
      <trkpt lat="46.06434" lon="6.11284">
        <ele>1177</ele>
        <time>2021-04-17T14:26:15Z</time>
      </trkpt>
      <trkpt lat="46.06436" lon="6.11288">
        <ele>1177.2</ele>
        <time>2021-04-17T14:26:16Z</time>
      </trkpt>
      <trkpt lat="46.06438" lon="6.11292">
        <ele>1177.4</ele>
        <time>2021-04-17T14:26:17Z</time>
      </trkpt>
      <trkpt lat="46.0644" lon="6.11296">
        <ele>1177.4</ele>
        <time>2021-04-17T14:26:18Z</time>
      </trkpt>
      <trkpt lat="46.06441" lon="6.113">
        <ele>1177.8</ele>
        <time>2021-04-17T14:26:19Z</time>
      </trkpt>
      <trkpt lat="46.06442" lon="6.11304">
        <ele>1177.8</ele>
        <time>2021-04-17T14:26:20Z</time>
      </trkpt>
      <trkpt lat="46.06444" lon="6.11308">
        <ele>1178.2</ele>
        <time>2021-04-17T14:26:21Z</time>
      </trkpt>
      <trkpt lat="46.06445" lon="6.11312">
        <ele>1178.4</ele>
        <time>2021-04-17T14:26:22Z</time>
      </trkpt>
      <trkpt lat="46.06446" lon="6.11316">
        <ele>1178.4</ele>
        <time>2021-04-17T14:26:23Z</time>
      </trkpt>
      <trkpt lat="46.06446" lon="6.11321">
        <ele>1178.6</ele>
        <time>2021-04-17T14:26:24Z</time>
      </trkpt>
      <trkpt lat="46.06447" lon="6.11325">
        <ele>1178.6</ele>
        <time>2021-04-17T14:26:25Z</time>
      </trkpt>
      <trkpt lat="46.06448" lon="6.1133">
        <ele>1179</ele>
        <time>2021-04-17T14:26:26Z</time>
      </trkpt>
      <trkpt lat="46.06449" lon="6.11334">
        <ele>1179.4</ele>
        <time>2021-04-17T14:26:27Z</time>
      </trkpt>
      <trkpt lat="46.06449" lon="6.11338">
        <ele>1179.4</ele>
        <time>2021-04-17T14:26:28Z</time>
      </trkpt>
      <trkpt lat="46.0645" lon="6.11342">
        <ele>1179.8</ele>
        <time>2021-04-17T14:26:29Z</time>
      </trkpt>
      <trkpt lat="46.06451" lon="6.11346">
        <ele>1180</ele>
        <time>2021-04-17T14:26:30Z</time>
      </trkpt>
      <trkpt lat="46.06452" lon="6.11351">
        <ele>1180</ele>
        <time>2021-04-17T14:26:31Z</time>
      </trkpt>
      <trkpt lat="46.06452" lon="6.11355">
        <ele>1180.2</ele>
        <time>2021-04-17T14:26:32Z</time>
      </trkpt>
      <trkpt lat="46.06452" lon="6.11359">
        <ele>1180.6</ele>
        <time>2021-04-17T14:26:33Z</time>
      </trkpt>
      <trkpt lat="46.06453" lon="6.11363">
        <ele>1180.6</ele>
        <time>2021-04-17T14:26:34Z</time>
      </trkpt>
      <trkpt lat="46.06454" lon="6.11367">
        <ele>1180.6</ele>
        <time>2021-04-17T14:26:35Z</time>
      </trkpt>
      <trkpt lat="46.06455" lon="6.11372">
        <ele>1180.8</ele>
        <time>2021-04-17T14:26:36Z</time>
      </trkpt>
      <trkpt lat="46.06455" lon="6.11376">
        <ele>1180.8</ele>
        <time>2021-04-17T14:26:37Z</time>
      </trkpt>
      <trkpt lat="46.06456" lon="6.1138">
        <ele>1180.8</ele>
        <time>2021-04-17T14:26:38Z</time>
      </trkpt>
      <trkpt lat="46.06457" lon="6.11384">
        <ele>1181</ele>
        <time>2021-04-17T14:26:39Z</time>
      </trkpt>
      <trkpt lat="46.06457" lon="6.11388">
        <ele>1181</ele>
        <time>2021-04-17T14:26:40Z</time>
      </trkpt>
      <trkpt lat="46.06458" lon="6.11391">
        <ele>1181</ele>
        <time>2021-04-17T14:26:41Z</time>
      </trkpt>
      <trkpt lat="46.06459" lon="6.11395">
        <ele>1181.4</ele>
        <time>2021-04-17T14:26:42Z</time>
      </trkpt>
      <trkpt lat="46.0646" lon="6.11399">
        <ele>1181.8</ele>
        <time>2021-04-17T14:26:43Z</time>
      </trkpt>
      <trkpt lat="46.06461" lon="6.11403">
        <ele>1182</ele>
        <time>2021-04-17T14:26:44Z</time>
      </trkpt>
      <trkpt lat="46.06462" lon="6.11407">
        <ele>1182</ele>
        <time>2021-04-17T14:26:45Z</time>
      </trkpt>
      <trkpt lat="46.06464" lon="6.1141">
        <ele>1182.6</ele>
        <time>2021-04-17T14:26:46Z</time>
      </trkpt>
      <trkpt lat="46.06465" lon="6.11413">
        <ele>1182.8</ele>
        <time>2021-04-17T14:26:47Z</time>
      </trkpt>
      <trkpt lat="46.06467" lon="6.11417">
        <ele>1183</ele>
        <time>2021-04-17T14:26:48Z</time>
      </trkpt>
      <trkpt lat="46.06469" lon="6.11421">
        <ele>1183.2</ele>
        <time>2021-04-17T14:26:49Z</time>
      </trkpt>
      <trkpt lat="46.0647" lon="6.11424">
        <ele>1183.4</ele>
        <time>2021-04-17T14:26:50Z</time>
      </trkpt>
      <trkpt lat="46.06472" lon="6.11428">
        <ele>1183.6</ele>
        <time>2021-04-17T14:26:51Z</time>
      </trkpt>
      <trkpt lat="46.06473" lon="6.11431">
        <ele>1184.2</ele>
        <time>2021-04-17T14:26:52Z</time>
      </trkpt>
      <trkpt lat="46.06475" lon="6.11435">
        <ele>1184.8</ele>
        <time>2021-04-17T14:26:53Z</time>
      </trkpt>
      <trkpt lat="46.06476" lon="6.11439">
        <ele>1185.2</ele>
        <time>2021-04-17T14:26:54Z</time>
      </trkpt>
      <trkpt lat="46.06477" lon="6.11442">
        <ele>1185.4</ele>
        <time>2021-04-17T14:26:55Z</time>
      </trkpt>
      <trkpt lat="46.06478" lon="6.11446">
        <ele>1185.8</ele>
        <time>2021-04-17T14:26:56Z</time>
      </trkpt>
      <trkpt lat="46.0648" lon="6.1145">
        <ele>1186</ele>
        <time>2021-04-17T14:26:57Z</time>
      </trkpt>
      <trkpt lat="46.06481" lon="6.11454">
        <ele>1186.2</ele>
        <time>2021-04-17T14:26:58Z</time>
      </trkpt>
      <trkpt lat="46.06482" lon="6.11458">
        <ele>1186.2</ele>
        <time>2021-04-17T14:26:59Z</time>
      </trkpt>
      <trkpt lat="46.06482" lon="6.11462">
        <ele>1186.4</ele>
        <time>2021-04-17T14:27:00Z</time>
      </trkpt>
      <trkpt lat="46.06483" lon="6.11466">
        <ele>1186.8</ele>
        <time>2021-04-17T14:27:01Z</time>
      </trkpt>
      <trkpt lat="46.06485" lon="6.11473">
        <ele>1187</ele>
        <time>2021-04-17T14:27:02Z</time>
      </trkpt>
      <trkpt lat="46.06485" lon="6.11473">
        <ele>1187</ele>
        <time>2021-04-17T14:27:03Z</time>
      </trkpt>
      <trkpt lat="46.06486" lon="6.11477">
        <ele>1187.2</ele>
        <time>2021-04-17T14:27:04Z</time>
      </trkpt>
      <trkpt lat="46.06487" lon="6.11481">
        <ele>1187.2</ele>
        <time>2021-04-17T14:27:05Z</time>
      </trkpt>
      <trkpt lat="46.06487" lon="6.11485">
        <ele>1187.2</ele>
        <time>2021-04-17T14:27:06Z</time>
      </trkpt>
      <trkpt lat="46.06488" lon="6.11489">
        <ele>1187.4</ele>
        <time>2021-04-17T14:27:07Z</time>
      </trkpt>
      <trkpt lat="46.06489" lon="6.11493">
        <ele>1187.4</ele>
        <time>2021-04-17T14:27:08Z</time>
      </trkpt>
      <trkpt lat="46.06489" lon="6.11497">
        <ele>1187.4</ele>
        <time>2021-04-17T14:27:09Z</time>
      </trkpt>
      <trkpt lat="46.0649" lon="6.11501">
        <ele>1187.4</ele>
        <time>2021-04-17T14:27:10Z</time>
      </trkpt>
      <trkpt lat="46.06491" lon="6.11505">
        <ele>1187.6</ele>
        <time>2021-04-17T14:27:11Z</time>
      </trkpt>
      <trkpt lat="46.06492" lon="6.11509">
        <ele>1187.6</ele>
        <time>2021-04-17T14:27:12Z</time>
      </trkpt>
      <trkpt lat="46.06493" lon="6.11513">
        <ele>1187.8</ele>
        <time>2021-04-17T14:27:13Z</time>
      </trkpt>
      <trkpt lat="46.06493" lon="6.11517">
        <ele>1188.2</ele>
        <time>2021-04-17T14:27:14Z</time>
      </trkpt>
      <trkpt lat="46.06494" lon="6.11521">
        <ele>1188.4</ele>
        <time>2021-04-17T14:27:15Z</time>
      </trkpt>
      <trkpt lat="46.06495" lon="6.11525">
        <ele>1188.4</ele>
        <time>2021-04-17T14:27:16Z</time>
      </trkpt>
      <trkpt lat="46.06495" lon="6.11529">
        <ele>1188.6</ele>
        <time>2021-04-17T14:27:17Z</time>
      </trkpt>
      <trkpt lat="46.06496" lon="6.11533">
        <ele>1189</ele>
        <time>2021-04-17T14:27:18Z</time>
      </trkpt>
      <trkpt lat="46.06497" lon="6.11536">
        <ele>1189.6</ele>
        <time>2021-04-17T14:27:19Z</time>
      </trkpt>
      <trkpt lat="46.06498" lon="6.1154">
        <ele>1190.2</ele>
        <time>2021-04-17T14:27:20Z</time>
      </trkpt>
      <trkpt lat="46.06499" lon="6.11544">
        <ele>1190.4</ele>
        <time>2021-04-17T14:27:21Z</time>
      </trkpt>
      <trkpt lat="46.065" lon="6.11548">
        <ele>1190.6</ele>
        <time>2021-04-17T14:27:22Z</time>
      </trkpt>
      <trkpt lat="46.06501" lon="6.11552">
        <ele>1191</ele>
        <time>2021-04-17T14:27:23Z</time>
      </trkpt>
      <trkpt lat="46.06501" lon="6.11555">
        <ele>1191.4</ele>
        <time>2021-04-17T14:27:24Z</time>
      </trkpt>
      <trkpt lat="46.06502" lon="6.11559">
        <ele>1191.6</ele>
        <time>2021-04-17T14:27:25Z</time>
      </trkpt>
      <trkpt lat="46.06502" lon="6.11562">
        <ele>1191.6</ele>
        <time>2021-04-17T14:27:26Z</time>
      </trkpt>
      <trkpt lat="46.06503" lon="6.11565">
        <ele>1191.8</ele>
        <time>2021-04-17T14:27:27Z</time>
      </trkpt>
      <trkpt lat="46.06504" lon="6.11568">
        <ele>1192</ele>
        <time>2021-04-17T14:27:28Z</time>
      </trkpt>
      <trkpt lat="46.06505" lon="6.11571">
        <ele>1192.2</ele>
        <time>2021-04-17T14:27:29Z</time>
      </trkpt>
      <trkpt lat="46.06506" lon="6.11574">
        <ele>1192.6</ele>
        <time>2021-04-17T14:27:30Z</time>
      </trkpt>
      <trkpt lat="46.06507" lon="6.11577">
        <ele>1192.6</ele>
        <time>2021-04-17T14:27:31Z</time>
      </trkpt>
      <trkpt lat="46.06508" lon="6.1158">
        <ele>1192.8</ele>
        <time>2021-04-17T14:27:32Z</time>
      </trkpt>
      <trkpt lat="46.06509" lon="6.11583">
        <ele>1193</ele>
        <time>2021-04-17T14:27:33Z</time>
      </trkpt>
      <trkpt lat="46.06511" lon="6.11587">
        <ele>1193</ele>
        <time>2021-04-17T14:27:34Z</time>
      </trkpt>
      <trkpt lat="46.06512" lon="6.11591">
        <ele>1193</ele>
        <time>2021-04-17T14:27:35Z</time>
      </trkpt>
      <trkpt lat="46.06514" lon="6.11594">
        <ele>1193</ele>
        <time>2021-04-17T14:27:36Z</time>
      </trkpt>
      <trkpt lat="46.06515" lon="6.11598">
        <ele>1193.4</ele>
        <time>2021-04-17T14:27:37Z</time>
      </trkpt>
      <trkpt lat="46.06517" lon="6.11601">
        <ele>1193.2</ele>
        <time>2021-04-17T14:27:38Z</time>
      </trkpt>
      <trkpt lat="46.06518" lon="6.11605">
        <ele>1193.4</ele>
        <time>2021-04-17T14:27:39Z</time>
      </trkpt>
      <trkpt lat="46.0652" lon="6.11609">
        <ele>1193.6</ele>
        <time>2021-04-17T14:27:40Z</time>
      </trkpt>
      <trkpt lat="46.06522" lon="6.11612">
        <ele>1193.8</ele>
        <time>2021-04-17T14:27:41Z</time>
      </trkpt>
      <trkpt lat="46.06524" lon="6.11616">
        <ele>1194</ele>
        <time>2021-04-17T14:27:42Z</time>
      </trkpt>
      <trkpt lat="46.06526" lon="6.1162">
        <ele>1194</ele>
        <time>2021-04-17T14:27:43Z</time>
      </trkpt>
      <trkpt lat="46.06528" lon="6.11624">
        <ele>1194.4</ele>
        <time>2021-04-17T14:27:44Z</time>
      </trkpt>
      <trkpt lat="46.0653" lon="6.11627">
        <ele>1194.4</ele>
        <time>2021-04-17T14:27:45Z</time>
      </trkpt>
      <trkpt lat="46.06531" lon="6.11631">
        <ele>1194.8</ele>
        <time>2021-04-17T14:27:46Z</time>
      </trkpt>
      <trkpt lat="46.06533" lon="6.11635">
        <ele>1195</ele>
        <time>2021-04-17T14:27:47Z</time>
      </trkpt>
      <trkpt lat="46.06535" lon="6.11638">
        <ele>1195.4</ele>
        <time>2021-04-17T14:27:48Z</time>
      </trkpt>
      <trkpt lat="46.06536" lon="6.11642">
        <ele>1195.8</ele>
        <time>2021-04-17T14:27:49Z</time>
      </trkpt>
      <trkpt lat="46.06537" lon="6.11645">
        <ele>1196.2</ele>
        <time>2021-04-17T14:27:50Z</time>
      </trkpt>
      <trkpt lat="46.06539" lon="6.11649">
        <ele>1196.6</ele>
        <time>2021-04-17T14:27:51Z</time>
      </trkpt>
      <trkpt lat="46.0654" lon="6.11653">
        <ele>1196.8</ele>
        <time>2021-04-17T14:27:52Z</time>
      </trkpt>
      <trkpt lat="46.06541" lon="6.11656">
        <ele>1197</ele>
        <time>2021-04-17T14:27:53Z</time>
      </trkpt>
      <trkpt lat="46.06543" lon="6.1166">
        <ele>1197</ele>
        <time>2021-04-17T14:27:54Z</time>
      </trkpt>
      <trkpt lat="46.06545" lon="6.11663">
        <ele>1197</ele>
        <time>2021-04-17T14:27:55Z</time>
      </trkpt>
      <trkpt lat="46.06546" lon="6.11666">
        <ele>1197.2</ele>
        <time>2021-04-17T14:27:56Z</time>
      </trkpt>
      <trkpt lat="46.06548" lon="6.1167">
        <ele>1197.2</ele>
        <time>2021-04-17T14:27:57Z</time>
      </trkpt>
      <trkpt lat="46.0655" lon="6.11673">
        <ele>1197.2</ele>
        <time>2021-04-17T14:27:58Z</time>
      </trkpt>
      <trkpt lat="46.06551" lon="6.11677">
        <ele>1197.2</ele>
        <time>2021-04-17T14:27:59Z</time>
      </trkpt>
      <trkpt lat="46.06552" lon="6.1168">
        <ele>1197.2</ele>
        <time>2021-04-17T14:28:00Z</time>
      </trkpt>
      <trkpt lat="46.06554" lon="6.11683">
        <ele>1197.4</ele>
        <time>2021-04-17T14:28:01Z</time>
      </trkpt>
      <trkpt lat="46.06555" lon="6.11687">
        <ele>1197.4</ele>
        <time>2021-04-17T14:28:02Z</time>
      </trkpt>
      <trkpt lat="46.06556" lon="6.1169">
        <ele>1197.4</ele>
        <time>2021-04-17T14:28:03Z</time>
      </trkpt>
      <trkpt lat="46.06558" lon="6.11693">
        <ele>1197.6</ele>
        <time>2021-04-17T14:28:04Z</time>
      </trkpt>
      <trkpt lat="46.06559" lon="6.11696">
        <ele>1197.8</ele>
        <time>2021-04-17T14:28:05Z</time>
      </trkpt>
      <trkpt lat="46.0656" lon="6.11699">
        <ele>1197.8</ele>
        <time>2021-04-17T14:28:06Z</time>
      </trkpt>
      <trkpt lat="46.06562" lon="6.11702">
        <ele>1198</ele>
        <time>2021-04-17T14:28:07Z</time>
      </trkpt>
      <trkpt lat="46.06563" lon="6.11705">
        <ele>1198</ele>
        <time>2021-04-17T14:28:08Z</time>
      </trkpt>
      <trkpt lat="46.06564" lon="6.11709">
        <ele>1198.2</ele>
        <time>2021-04-17T14:28:09Z</time>
      </trkpt>
      <trkpt lat="46.06565" lon="6.11712">
        <ele>1198.4</ele>
        <time>2021-04-17T14:28:10Z</time>
      </trkpt>
      <trkpt lat="46.06567" lon="6.11716">
        <ele>1198.8</ele>
        <time>2021-04-17T14:28:11Z</time>
      </trkpt>
      <trkpt lat="46.06568" lon="6.1172">
        <ele>1199.2</ele>
        <time>2021-04-17T14:28:12Z</time>
      </trkpt>
      <trkpt lat="46.0657" lon="6.11723">
        <ele>1199.6</ele>
        <time>2021-04-17T14:28:13Z</time>
      </trkpt>
      <trkpt lat="46.06571" lon="6.11727">
        <ele>1199.8</ele>
        <time>2021-04-17T14:28:14Z</time>
      </trkpt>
      <trkpt lat="46.06572" lon="6.11731">
        <ele>1200</ele>
        <time>2021-04-17T14:28:15Z</time>
      </trkpt>
      <trkpt lat="46.06574" lon="6.11734">
        <ele>1200.2</ele>
        <time>2021-04-17T14:28:16Z</time>
      </trkpt>
      <trkpt lat="46.06575" lon="6.11738">
        <ele>1200.6</ele>
        <time>2021-04-17T14:28:17Z</time>
      </trkpt>
      <trkpt lat="46.06577" lon="6.11741">
        <ele>1201</ele>
        <time>2021-04-17T14:28:18Z</time>
      </trkpt>
      <trkpt lat="46.06579" lon="6.11745">
        <ele>1201.4</ele>
        <time>2021-04-17T14:28:19Z</time>
      </trkpt>
      <trkpt lat="46.0658" lon="6.11748">
        <ele>1201.8</ele>
        <time>2021-04-17T14:28:20Z</time>
      </trkpt>
      <trkpt lat="46.06582" lon="6.11752">
        <ele>1202</ele>
        <time>2021-04-17T14:28:21Z</time>
      </trkpt>
      <trkpt lat="46.06584" lon="6.11755">
        <ele>1202.2</ele>
        <time>2021-04-17T14:28:22Z</time>
      </trkpt>
      <trkpt lat="46.06586" lon="6.11758">
        <ele>1202.2</ele>
        <time>2021-04-17T14:28:23Z</time>
      </trkpt>
      <trkpt lat="46.06588" lon="6.11761">
        <ele>1202.4</ele>
        <time>2021-04-17T14:28:24Z</time>
      </trkpt>
      <trkpt lat="46.06591" lon="6.11763">
        <ele>1202.8</ele>
        <time>2021-04-17T14:28:25Z</time>
      </trkpt>
      <trkpt lat="46.06594" lon="6.11765">
        <ele>1202.8</ele>
        <time>2021-04-17T14:28:26Z</time>
      </trkpt>
      <trkpt lat="46.06596" lon="6.11767">
        <ele>1202.8</ele>
        <time>2021-04-17T14:28:27Z</time>
      </trkpt>
      <trkpt lat="46.06599" lon="6.11767">
        <ele>1203</ele>
        <time>2021-04-17T14:28:28Z</time>
      </trkpt>
      <trkpt lat="46.06601" lon="6.11768">
        <ele>1203.2</ele>
        <time>2021-04-17T14:28:29Z</time>
      </trkpt>
      <trkpt lat="46.06604" lon="6.11768">
        <ele>1203.4</ele>
        <time>2021-04-17T14:28:30Z</time>
      </trkpt>
      <trkpt lat="46.06607" lon="6.11768">
        <ele>1203.4</ele>
        <time>2021-04-17T14:28:31Z</time>
      </trkpt>
      <trkpt lat="46.06609" lon="6.11767">
        <ele>1203.6</ele>
        <time>2021-04-17T14:28:32Z</time>
      </trkpt>
      <trkpt lat="46.06612" lon="6.11766">
        <ele>1204</ele>
        <time>2021-04-17T14:28:33Z</time>
      </trkpt>
      <trkpt lat="46.06615" lon="6.11764">
        <ele>1204</ele>
        <time>2021-04-17T14:28:34Z</time>
      </trkpt>
      <trkpt lat="46.06618" lon="6.11763">
        <ele>1204</ele>
        <time>2021-04-17T14:28:35Z</time>
      </trkpt>
      <trkpt lat="46.0662" lon="6.11761">
        <ele>1204.2</ele>
        <time>2021-04-17T14:28:36Z</time>
      </trkpt>
      <trkpt lat="46.06623" lon="6.11759">
        <ele>1204.2</ele>
        <time>2021-04-17T14:28:37Z</time>
      </trkpt>
      <trkpt lat="46.06625" lon="6.11758">
        <ele>1204.2</ele>
        <time>2021-04-17T14:28:38Z</time>
      </trkpt>
      <trkpt lat="46.06628" lon="6.11756">
        <ele>1204.2</ele>
        <time>2021-04-17T14:28:39Z</time>
      </trkpt>
      <trkpt lat="46.06631" lon="6.11754">
        <ele>1204.4</ele>
        <time>2021-04-17T14:28:40Z</time>
      </trkpt>
      <trkpt lat="46.06633" lon="6.11752">
        <ele>1204.4</ele>
        <time>2021-04-17T14:28:41Z</time>
      </trkpt>
      <trkpt lat="46.06636" lon="6.1175">
        <ele>1204.6</ele>
        <time>2021-04-17T14:28:42Z</time>
      </trkpt>
      <trkpt lat="46.06638" lon="6.11748">
        <ele>1204.6</ele>
        <time>2021-04-17T14:28:43Z</time>
      </trkpt>
      <trkpt lat="46.06641" lon="6.11747">
        <ele>1204.8</ele>
        <time>2021-04-17T14:28:44Z</time>
      </trkpt>
      <trkpt lat="46.06643" lon="6.11745">
        <ele>1204.8</ele>
        <time>2021-04-17T14:28:45Z</time>
      </trkpt>
      <trkpt lat="46.06646" lon="6.11744">
        <ele>1205</ele>
        <time>2021-04-17T14:28:46Z</time>
      </trkpt>
      <trkpt lat="46.06649" lon="6.11743">
        <ele>1205</ele>
        <time>2021-04-17T14:28:47Z</time>
      </trkpt>
      <trkpt lat="46.06652" lon="6.11742">
        <ele>1205</ele>
        <time>2021-04-17T14:28:48Z</time>
      </trkpt>
      <trkpt lat="46.06654" lon="6.11741">
        <ele>1205.6</ele>
        <time>2021-04-17T14:28:49Z</time>
      </trkpt>
      <trkpt lat="46.06657" lon="6.1174">
        <ele>1206.4</ele>
        <time>2021-04-17T14:28:50Z</time>
      </trkpt>
      <trkpt lat="46.06659" lon="6.11739">
        <ele>1207.2</ele>
        <time>2021-04-17T14:28:51Z</time>
      </trkpt>
      <trkpt lat="46.06661" lon="6.11738">
        <ele>1207.4</ele>
        <time>2021-04-17T14:28:52Z</time>
      </trkpt>
      <trkpt lat="46.06663" lon="6.11737">
        <ele>1207.8</ele>
        <time>2021-04-17T14:28:53Z</time>
      </trkpt>
      <trkpt lat="46.06666" lon="6.11736">
        <ele>1208</ele>
        <time>2021-04-17T14:28:54Z</time>
      </trkpt>
      <trkpt lat="46.06668" lon="6.11735">
        <ele>1208</ele>
        <time>2021-04-17T14:28:55Z</time>
      </trkpt>
      <trkpt lat="46.0667" lon="6.11734">
        <ele>1208.2</ele>
        <time>2021-04-17T14:28:56Z</time>
      </trkpt>
      <trkpt lat="46.06672" lon="6.11734">
        <ele>1208.2</ele>
        <time>2021-04-17T14:28:57Z</time>
      </trkpt>
      <trkpt lat="46.06674" lon="6.11733">
        <ele>1208.4</ele>
        <time>2021-04-17T14:28:58Z</time>
      </trkpt>
      <trkpt lat="46.06677" lon="6.11733">
        <ele>1208.6</ele>
        <time>2021-04-17T14:28:59Z</time>
      </trkpt>
      <trkpt lat="46.06679" lon="6.11732">
        <ele>1208.8</ele>
        <time>2021-04-17T14:29:00Z</time>
      </trkpt>
      <trkpt lat="46.06681" lon="6.11732">
        <ele>1209</ele>
        <time>2021-04-17T14:29:01Z</time>
      </trkpt>
      <trkpt lat="46.06683" lon="6.11731">
        <ele>1209</ele>
        <time>2021-04-17T14:29:02Z</time>
      </trkpt>
      <trkpt lat="46.06686" lon="6.11731">
        <ele>1209.4</ele>
        <time>2021-04-17T14:29:03Z</time>
      </trkpt>
      <trkpt lat="46.06688" lon="6.1173">
        <ele>1209.6</ele>
        <time>2021-04-17T14:29:04Z</time>
      </trkpt>
      <trkpt lat="46.0669" lon="6.1173">
        <ele>1210</ele>
        <time>2021-04-17T14:29:05Z</time>
      </trkpt>
      <trkpt lat="46.06692" lon="6.11729">
        <ele>1210</ele>
        <time>2021-04-17T14:29:06Z</time>
      </trkpt>
      <trkpt lat="46.06694" lon="6.11728">
        <ele>1210</ele>
        <time>2021-04-17T14:29:07Z</time>
      </trkpt>
      <trkpt lat="46.06696" lon="6.11727">
        <ele>1210</ele>
        <time>2021-04-17T14:29:08Z</time>
      </trkpt>
      <trkpt lat="46.06699" lon="6.11726">
        <ele>1210.2</ele>
        <time>2021-04-17T14:29:09Z</time>
      </trkpt>
      <trkpt lat="46.06701" lon="6.11725">
        <ele>1210.6</ele>
        <time>2021-04-17T14:29:10Z</time>
      </trkpt>
      <trkpt lat="46.06704" lon="6.11724">
        <ele>1211.2</ele>
        <time>2021-04-17T14:29:11Z</time>
      </trkpt>
      <trkpt lat="46.06707" lon="6.11724">
        <ele>1211.4</ele>
        <time>2021-04-17T14:29:12Z</time>
      </trkpt>
      <trkpt lat="46.06709" lon="6.11723">
        <ele>1211.8</ele>
        <time>2021-04-17T14:29:13Z</time>
      </trkpt>
      <trkpt lat="46.06712" lon="6.11723">
        <ele>1212.2</ele>
        <time>2021-04-17T14:29:14Z</time>
      </trkpt>
      <trkpt lat="46.06714" lon="6.11722">
        <ele>1212.2</ele>
        <time>2021-04-17T14:29:15Z</time>
      </trkpt>
      <trkpt lat="46.06716" lon="6.11721">
        <ele>1212.2</ele>
        <time>2021-04-17T14:29:16Z</time>
      </trkpt>
      <trkpt lat="46.06719" lon="6.1172">
        <ele>1212.2</ele>
        <time>2021-04-17T14:29:17Z</time>
      </trkpt>
      <trkpt lat="46.06722" lon="6.11719">
        <ele>1212.4</ele>
        <time>2021-04-17T14:29:18Z</time>
      </trkpt>
      <trkpt lat="46.06724" lon="6.11719">
        <ele>1212.4</ele>
        <time>2021-04-17T14:29:19Z</time>
      </trkpt>
      <trkpt lat="46.06727" lon="6.11718">
        <ele>1212.6</ele>
        <time>2021-04-17T14:29:20Z</time>
      </trkpt>
      <trkpt lat="46.0673" lon="6.11717">
        <ele>1212.6</ele>
        <time>2021-04-17T14:29:21Z</time>
      </trkpt>
      <trkpt lat="46.06733" lon="6.11717">
        <ele>1212.8</ele>
        <time>2021-04-17T14:29:22Z</time>
      </trkpt>
      <trkpt lat="46.06736" lon="6.11716">
        <ele>1213</ele>
        <time>2021-04-17T14:29:23Z</time>
      </trkpt>
      <trkpt lat="46.06738" lon="6.11716">
        <ele>1213</ele>
        <time>2021-04-17T14:29:24Z</time>
      </trkpt>
      <trkpt lat="46.06741" lon="6.11715">
        <ele>1213.2</ele>
        <time>2021-04-17T14:29:25Z</time>
      </trkpt>
      <trkpt lat="46.06743" lon="6.11714">
        <ele>1213.4</ele>
        <time>2021-04-17T14:29:26Z</time>
      </trkpt>
      <trkpt lat="46.06745" lon="6.11713">
        <ele>1213.6</ele>
        <time>2021-04-17T14:29:27Z</time>
      </trkpt>
      <trkpt lat="46.06748" lon="6.11712">
        <ele>1213.8</ele>
        <time>2021-04-17T14:29:28Z</time>
      </trkpt>
      <trkpt lat="46.06752" lon="6.11712">
        <ele>1214</ele>
        <time>2021-04-17T14:29:29Z</time>
      </trkpt>
      <trkpt lat="46.06755" lon="6.11712">
        <ele>1214.6</ele>
        <time>2021-04-17T14:29:30Z</time>
      </trkpt>
      <trkpt lat="46.06758" lon="6.11711">
        <ele>1214.8</ele>
        <time>2021-04-17T14:29:31Z</time>
      </trkpt>
      <trkpt lat="46.06761" lon="6.11711">
        <ele>1215</ele>
        <time>2021-04-17T14:29:32Z</time>
      </trkpt>
      <trkpt lat="46.06764" lon="6.1171">
        <ele>1215</ele>
        <time>2021-04-17T14:29:33Z</time>
      </trkpt>
      <trkpt lat="46.06767" lon="6.1171">
        <ele>1215</ele>
        <time>2021-04-17T14:29:34Z</time>
      </trkpt>
      <trkpt lat="46.0677" lon="6.11709">
        <ele>1215.2</ele>
        <time>2021-04-17T14:29:35Z</time>
      </trkpt>
      <trkpt lat="46.06772" lon="6.11708">
        <ele>1215.2</ele>
        <time>2021-04-17T14:29:36Z</time>
      </trkpt>
      <trkpt lat="46.06775" lon="6.11707">
        <ele>1215.2</ele>
        <time>2021-04-17T14:29:37Z</time>
      </trkpt>
      <trkpt lat="46.06777" lon="6.11706">
        <ele>1215.2</ele>
        <time>2021-04-17T14:29:38Z</time>
      </trkpt>
      <trkpt lat="46.0678" lon="6.11706">
        <ele>1215.6</ele>
        <time>2021-04-17T14:29:39Z</time>
      </trkpt>
      <trkpt lat="46.06782" lon="6.11705">
        <ele>1216</ele>
        <time>2021-04-17T14:29:40Z</time>
      </trkpt>
      <trkpt lat="46.06784" lon="6.11703">
        <ele>1216.4</ele>
        <time>2021-04-17T14:29:41Z</time>
      </trkpt>
      <trkpt lat="46.06786" lon="6.11702">
        <ele>1216.6</ele>
        <time>2021-04-17T14:29:42Z</time>
      </trkpt>
      <trkpt lat="46.06789" lon="6.117">
        <ele>1216.8</ele>
        <time>2021-04-17T14:29:43Z</time>
      </trkpt>
      <trkpt lat="46.06791" lon="6.11698">
        <ele>1216.6</ele>
        <time>2021-04-17T14:29:44Z</time>
      </trkpt>
      <trkpt lat="46.06794" lon="6.11696">
        <ele>1216.8</ele>
        <time>2021-04-17T14:29:45Z</time>
      </trkpt>
      <trkpt lat="46.06797" lon="6.11694">
        <ele>1217</ele>
        <time>2021-04-17T14:29:46Z</time>
      </trkpt>
      <trkpt lat="46.068" lon="6.11692">
        <ele>1217</ele>
        <time>2021-04-17T14:29:47Z</time>
      </trkpt>
      <trkpt lat="46.06803" lon="6.1169">
        <ele>1217.2</ele>
        <time>2021-04-17T14:29:48Z</time>
      </trkpt>
      <trkpt lat="46.06806" lon="6.11689">
        <ele>1217.2</ele>
        <time>2021-04-17T14:29:49Z</time>
      </trkpt>
      <trkpt lat="46.06809" lon="6.11687">
        <ele>1217.2</ele>
        <time>2021-04-17T14:29:50Z</time>
      </trkpt>
      <trkpt lat="46.06812" lon="6.11685">
        <ele>1217.6</ele>
        <time>2021-04-17T14:29:51Z</time>
      </trkpt>
      <trkpt lat="46.06815" lon="6.11683">
        <ele>1218.2</ele>
        <time>2021-04-17T14:29:52Z</time>
      </trkpt>
      <trkpt lat="46.06818" lon="6.11682">
        <ele>1218.6</ele>
        <time>2021-04-17T14:29:53Z</time>
      </trkpt>
      <trkpt lat="46.06821" lon="6.11681">
        <ele>1219</ele>
        <time>2021-04-17T14:29:54Z</time>
      </trkpt>
      <trkpt lat="46.06824" lon="6.1168">
        <ele>1219.6</ele>
        <time>2021-04-17T14:29:55Z</time>
      </trkpt>
      <trkpt lat="46.06827" lon="6.1168">
        <ele>1219.8</ele>
        <time>2021-04-17T14:29:56Z</time>
      </trkpt>
      <trkpt lat="46.0683" lon="6.1168">
        <ele>1219.8</ele>
        <time>2021-04-17T14:29:57Z</time>
      </trkpt>
      <trkpt lat="46.06834" lon="6.1168">
        <ele>1220</ele>
        <time>2021-04-17T14:29:58Z</time>
      </trkpt>
      <trkpt lat="46.06836" lon="6.1168">
        <ele>1220.2</ele>
        <time>2021-04-17T14:29:59Z</time>
      </trkpt>
      <trkpt lat="46.0684" lon="6.1168">
        <ele>1220.4</ele>
        <time>2021-04-17T14:30:00Z</time>
      </trkpt>
      <trkpt lat="46.06843" lon="6.1168">
        <ele>1220.4</ele>
        <time>2021-04-17T14:30:01Z</time>
      </trkpt>
      <trkpt lat="46.06846" lon="6.1168">
        <ele>1220.4</ele>
        <time>2021-04-17T14:30:02Z</time>
      </trkpt>
      <trkpt lat="46.06849" lon="6.1168">
        <ele>1220.4</ele>
        <time>2021-04-17T14:30:03Z</time>
      </trkpt>
      <trkpt lat="46.06852" lon="6.11681">
        <ele>1220.4</ele>
        <time>2021-04-17T14:30:04Z</time>
      </trkpt>
      <trkpt lat="46.06855" lon="6.11681">
        <ele>1220.4</ele>
        <time>2021-04-17T14:30:05Z</time>
      </trkpt>
      <trkpt lat="46.06857" lon="6.11681">
        <ele>1220.4</ele>
        <time>2021-04-17T14:30:06Z</time>
      </trkpt>
      <trkpt lat="46.0686" lon="6.11681">
        <ele>1220.8</ele>
        <time>2021-04-17T14:30:07Z</time>
      </trkpt>
      <trkpt lat="46.06863" lon="6.11681">
        <ele>1221</ele>
        <time>2021-04-17T14:30:08Z</time>
      </trkpt>
      <trkpt lat="46.06866" lon="6.11682">
        <ele>1221</ele>
        <time>2021-04-17T14:30:09Z</time>
      </trkpt>
      <trkpt lat="46.06869" lon="6.11682">
        <ele>1221.2</ele>
        <time>2021-04-17T14:30:10Z</time>
      </trkpt>
      <trkpt lat="46.06872" lon="6.11682">
        <ele>1221.2</ele>
        <time>2021-04-17T14:30:11Z</time>
      </trkpt>
      <trkpt lat="46.06875" lon="6.11682">
        <ele>1221.6</ele>
        <time>2021-04-17T14:30:12Z</time>
      </trkpt>
      <trkpt lat="46.06878" lon="6.11682">
        <ele>1221.8</ele>
        <time>2021-04-17T14:30:13Z</time>
      </trkpt>
      <trkpt lat="46.06881" lon="6.11682">
        <ele>1221.8</ele>
        <time>2021-04-17T14:30:14Z</time>
      </trkpt>
      <trkpt lat="46.06884" lon="6.11682">
        <ele>1222</ele>
        <time>2021-04-17T14:30:15Z</time>
      </trkpt>
      <trkpt lat="46.06887" lon="6.11682">
        <ele>1222.4</ele>
        <time>2021-04-17T14:30:16Z</time>
      </trkpt>
      <trkpt lat="46.0689" lon="6.11683">
        <ele>1223</ele>
        <time>2021-04-17T14:30:17Z</time>
      </trkpt>
      <trkpt lat="46.06892" lon="6.11683">
        <ele>1223</ele>
        <time>2021-04-17T14:30:18Z</time>
      </trkpt>
      <trkpt lat="46.06895" lon="6.11683">
        <ele>1223.4</ele>
        <time>2021-04-17T14:30:19Z</time>
      </trkpt>
      <trkpt lat="46.06897" lon="6.11684">
        <ele>1223.4</ele>
        <time>2021-04-17T14:30:20Z</time>
      </trkpt>
      <trkpt lat="46.069" lon="6.11684">
        <ele>1224</ele>
        <time>2021-04-17T14:30:21Z</time>
      </trkpt>
      <trkpt lat="46.06902" lon="6.11685">
        <ele>1224.2</ele>
        <time>2021-04-17T14:30:22Z</time>
      </trkpt>
      <trkpt lat="46.06904" lon="6.11686">
        <ele>1224.2</ele>
        <time>2021-04-17T14:30:23Z</time>
      </trkpt>
      <trkpt lat="46.06907" lon="6.11688">
        <ele>1224.4</ele>
        <time>2021-04-17T14:30:24Z</time>
      </trkpt>
      <trkpt lat="46.06909" lon="6.1169">
        <ele>1224.6</ele>
        <time>2021-04-17T14:30:25Z</time>
      </trkpt>
      <trkpt lat="46.06911" lon="6.11693">
        <ele>1224.6</ele>
        <time>2021-04-17T14:30:26Z</time>
      </trkpt>
      <trkpt lat="46.06914" lon="6.11697">
        <ele>1225</ele>
        <time>2021-04-17T14:30:27Z</time>
      </trkpt>
      <trkpt lat="46.06916" lon="6.117">
        <ele>1224.8</ele>
        <time>2021-04-17T14:30:28Z</time>
      </trkpt>
      <trkpt lat="46.06918" lon="6.11703">
        <ele>1225</ele>
        <time>2021-04-17T14:30:29Z</time>
      </trkpt>
      <trkpt lat="46.0692" lon="6.11706">
        <ele>1225</ele>
        <time>2021-04-17T14:30:30Z</time>
      </trkpt>
      <trkpt lat="46.06921" lon="6.1171">
        <ele>1225</ele>
        <time>2021-04-17T14:30:31Z</time>
      </trkpt>
      <trkpt lat="46.06923" lon="6.11713">
        <ele>1225.2</ele>
        <time>2021-04-17T14:30:32Z</time>
      </trkpt>
      <trkpt lat="46.06924" lon="6.11717">
        <ele>1225.4</ele>
        <time>2021-04-17T14:30:33Z</time>
      </trkpt>
      <trkpt lat="46.06925" lon="6.1172">
        <ele>1225.6</ele>
        <time>2021-04-17T14:30:34Z</time>
      </trkpt>
      <trkpt lat="46.06926" lon="6.11724">
        <ele>1225.8</ele>
        <time>2021-04-17T14:30:35Z</time>
      </trkpt>
      <trkpt lat="46.06927" lon="6.11728">
        <ele>1226</ele>
        <time>2021-04-17T14:30:36Z</time>
      </trkpt>
      <trkpt lat="46.06928" lon="6.11732">
        <ele>1226.4</ele>
        <time>2021-04-17T14:30:37Z</time>
      </trkpt>
      <trkpt lat="46.06929" lon="6.11736">
        <ele>1227</ele>
        <time>2021-04-17T14:30:38Z</time>
      </trkpt>
      <trkpt lat="46.0693" lon="6.1174">
        <ele>1227.2</ele>
        <time>2021-04-17T14:30:39Z</time>
      </trkpt>
      <trkpt lat="46.06932" lon="6.11744">
        <ele>1227.4</ele>
        <time>2021-04-17T14:30:40Z</time>
      </trkpt>
      <trkpt lat="46.06933" lon="6.11748">
        <ele>1227.8</ele>
        <time>2021-04-17T14:30:41Z</time>
      </trkpt>
      <trkpt lat="46.06933" lon="6.11751">
        <ele>1228</ele>
        <time>2021-04-17T14:30:42Z</time>
      </trkpt>
      <trkpt lat="46.06934" lon="6.11755">
        <ele>1228.2</ele>
        <time>2021-04-17T14:30:43Z</time>
      </trkpt>
      <trkpt lat="46.06934" lon="6.11759">
        <ele>1228.6</ele>
        <time>2021-04-17T14:30:44Z</time>
      </trkpt>
      <trkpt lat="46.06935" lon="6.11763">
        <ele>1228.8</ele>
        <time>2021-04-17T14:30:45Z</time>
      </trkpt>
      <trkpt lat="46.06935" lon="6.11768">
        <ele>1229</ele>
        <time>2021-04-17T14:30:46Z</time>
      </trkpt>
      <trkpt lat="46.06934" lon="6.11772">
        <ele>1229.2</ele>
        <time>2021-04-17T14:30:47Z</time>
      </trkpt>
      <trkpt lat="46.06934" lon="6.11776">
        <ele>1229.6</ele>
        <time>2021-04-17T14:30:48Z</time>
      </trkpt>
      <trkpt lat="46.06933" lon="6.11779">
        <ele>1229.8</ele>
        <time>2021-04-17T14:30:49Z</time>
      </trkpt>
      <trkpt lat="46.06931" lon="6.11782">
        <ele>1230</ele>
        <time>2021-04-17T14:30:50Z</time>
      </trkpt>
      <trkpt lat="46.0693" lon="6.11785">
        <ele>1230.4</ele>
        <time>2021-04-17T14:30:51Z</time>
      </trkpt>
      <trkpt lat="46.06928" lon="6.11788">
        <ele>1230.4</ele>
        <time>2021-04-17T14:30:52Z</time>
      </trkpt>
      <trkpt lat="46.06926" lon="6.1179">
        <ele>1230.4</ele>
        <time>2021-04-17T14:30:53Z</time>
      </trkpt>
      <trkpt lat="46.06925" lon="6.11793">
        <ele>1230.6</ele>
        <time>2021-04-17T14:30:54Z</time>
      </trkpt>
      <trkpt lat="46.06923" lon="6.11795">
        <ele>1230.6</ele>
        <time>2021-04-17T14:30:55Z</time>
      </trkpt>
      <trkpt lat="46.06921" lon="6.11797">
        <ele>1230.8</ele>
        <time>2021-04-17T14:30:56Z</time>
      </trkpt>
      <trkpt lat="46.06919" lon="6.11799">
        <ele>1231</ele>
        <time>2021-04-17T14:30:57Z</time>
      </trkpt>
      <trkpt lat="46.06917" lon="6.11801">
        <ele>1231</ele>
        <time>2021-04-17T14:30:58Z</time>
      </trkpt>
      <trkpt lat="46.06915" lon="6.11803">
        <ele>1231.2</ele>
        <time>2021-04-17T14:30:59Z</time>
      </trkpt>
      <trkpt lat="46.06912" lon="6.11806">
        <ele>1231.6</ele>
        <time>2021-04-17T14:31:00Z</time>
      </trkpt>
      <trkpt lat="46.0691" lon="6.11808">
        <ele>1231.8</ele>
        <time>2021-04-17T14:31:01Z</time>
      </trkpt>
      <trkpt lat="46.06907" lon="6.11811">
        <ele>1231.8</ele>
        <time>2021-04-17T14:31:02Z</time>
      </trkpt>
      <trkpt lat="46.06904" lon="6.11813">
        <ele>1232.2</ele>
        <time>2021-04-17T14:31:03Z</time>
      </trkpt>
      <trkpt lat="46.06902" lon="6.11816">
        <ele>1232.6</ele>
        <time>2021-04-17T14:31:04Z</time>
      </trkpt>
      <trkpt lat="46.06899" lon="6.11818">
        <ele>1232.6</ele>
        <time>2021-04-17T14:31:05Z</time>
      </trkpt>
      <trkpt lat="46.06897" lon="6.1182">
        <ele>1233</ele>
        <time>2021-04-17T14:31:06Z</time>
      </trkpt>
      <trkpt lat="46.06895" lon="6.11822">
        <ele>1233.4</ele>
        <time>2021-04-17T14:31:07Z</time>
      </trkpt>
      <trkpt lat="46.06893" lon="6.11825">
        <ele>1233.4</ele>
        <time>2021-04-17T14:31:08Z</time>
      </trkpt>
      <trkpt lat="46.06892" lon="6.11828">
        <ele>1233.8</ele>
        <time>2021-04-17T14:31:09Z</time>
      </trkpt>
      <trkpt lat="46.0689" lon="6.11831">
        <ele>1234</ele>
        <time>2021-04-17T14:31:10Z</time>
      </trkpt>
      <trkpt lat="46.06888" lon="6.11834">
        <ele>1234.2</ele>
        <time>2021-04-17T14:31:11Z</time>
      </trkpt>
      <trkpt lat="46.06886" lon="6.11837">
        <ele>1234.4</ele>
        <time>2021-04-17T14:31:12Z</time>
      </trkpt>
      <trkpt lat="46.06884" lon="6.11839">
        <ele>1234.6</ele>
        <time>2021-04-17T14:31:13Z</time>
      </trkpt>
      <trkpt lat="46.06882" lon="6.11842">
        <ele>1235</ele>
        <time>2021-04-17T14:31:14Z</time>
      </trkpt>
      <trkpt lat="46.06882" lon="6.11846">
        <ele>1235.4</ele>
        <time>2021-04-17T14:31:15Z</time>
      </trkpt>
      <trkpt lat="46.0688" lon="6.11849">
        <ele>1235.6</ele>
        <time>2021-04-17T14:31:16Z</time>
      </trkpt>
      <trkpt lat="46.06879" lon="6.11853">
        <ele>1235.8</ele>
        <time>2021-04-17T14:31:17Z</time>
      </trkpt>
      <trkpt lat="46.06877" lon="6.11856">
        <ele>1236</ele>
        <time>2021-04-17T14:31:18Z</time>
      </trkpt>
      <trkpt lat="46.06876" lon="6.1186">
        <ele>1236.2</ele>
        <time>2021-04-17T14:31:19Z</time>
      </trkpt>
      <trkpt lat="46.06874" lon="6.11864">
        <ele>1236.2</ele>
        <time>2021-04-17T14:31:20Z</time>
      </trkpt>
      <trkpt lat="46.06873" lon="6.11868">
        <ele>1236.4</ele>
        <time>2021-04-17T14:31:21Z</time>
      </trkpt>
      <trkpt lat="46.06872" lon="6.11872">
        <ele>1236.6</ele>
        <time>2021-04-17T14:31:22Z</time>
      </trkpt>
      <trkpt lat="46.0687" lon="6.11877">
        <ele>1237</ele>
        <time>2021-04-17T14:31:23Z</time>
      </trkpt>
      <trkpt lat="46.06869" lon="6.11881">
        <ele>1237</ele>
        <time>2021-04-17T14:31:24Z</time>
      </trkpt>
      <trkpt lat="46.06869" lon="6.11885">
        <ele>1237.2</ele>
        <time>2021-04-17T14:31:25Z</time>
      </trkpt>
      <trkpt lat="46.06869" lon="6.11889">
        <ele>1237.4</ele>
        <time>2021-04-17T14:31:26Z</time>
      </trkpt>
      <trkpt lat="46.06869" lon="6.11893">
        <ele>1237.4</ele>
        <time>2021-04-17T14:31:27Z</time>
      </trkpt>
      <trkpt lat="46.06869" lon="6.11897">
        <ele>1237.4</ele>
        <time>2021-04-17T14:31:28Z</time>
      </trkpt>
      <trkpt lat="46.06869" lon="6.11902">
        <ele>1237.6</ele>
        <time>2021-04-17T14:31:29Z</time>
      </trkpt>
      <trkpt lat="46.06869" lon="6.11906">
        <ele>1238</ele>
        <time>2021-04-17T14:31:30Z</time>
      </trkpt>
      <trkpt lat="46.06869" lon="6.1191">
        <ele>1238.2</ele>
        <time>2021-04-17T14:31:31Z</time>
      </trkpt>
      <trkpt lat="46.0687" lon="6.11914">
        <ele>1238.4</ele>
        <time>2021-04-17T14:31:32Z</time>
      </trkpt>
      <trkpt lat="46.0687" lon="6.11918">
        <ele>1238.6</ele>
        <time>2021-04-17T14:31:33Z</time>
      </trkpt>
      <trkpt lat="46.0687" lon="6.11922">
        <ele>1238.6</ele>
        <time>2021-04-17T14:31:34Z</time>
      </trkpt>
      <trkpt lat="46.0687" lon="6.11926">
        <ele>1238.8</ele>
        <time>2021-04-17T14:31:35Z</time>
      </trkpt>
      <trkpt lat="46.0687" lon="6.1193">
        <ele>1239.2</ele>
        <time>2021-04-17T14:31:36Z</time>
      </trkpt>
      <trkpt lat="46.0687" lon="6.11934">
        <ele>1239.2</ele>
        <time>2021-04-17T14:31:37Z</time>
      </trkpt>
      <trkpt lat="46.0687" lon="6.11939">
        <ele>1239.2</ele>
        <time>2021-04-17T14:31:38Z</time>
      </trkpt>
      <trkpt lat="46.0687" lon="6.11943">
        <ele>1239.6</ele>
        <time>2021-04-17T14:31:39Z</time>
      </trkpt>
      <trkpt lat="46.0687" lon="6.11948">
        <ele>1239.6</ele>
        <time>2021-04-17T14:31:40Z</time>
      </trkpt>
      <trkpt lat="46.0687" lon="6.11952">
        <ele>1239.8</ele>
        <time>2021-04-17T14:31:41Z</time>
      </trkpt>
      <trkpt lat="46.0687" lon="6.11957">
        <ele>1240</ele>
        <time>2021-04-17T14:31:42Z</time>
      </trkpt>
      <trkpt lat="46.0687" lon="6.11962">
        <ele>1240.2</ele>
        <time>2021-04-17T14:31:43Z</time>
      </trkpt>
      <trkpt lat="46.0687" lon="6.11966">
        <ele>1240.2</ele>
        <time>2021-04-17T14:31:44Z</time>
      </trkpt>
      <trkpt lat="46.0687" lon="6.11971">
        <ele>1240.6</ele>
        <time>2021-04-17T14:31:45Z</time>
      </trkpt>
      <trkpt lat="46.06869" lon="6.11976">
        <ele>1240.8</ele>
        <time>2021-04-17T14:31:46Z</time>
      </trkpt>
      <trkpt lat="46.06869" lon="6.11981">
        <ele>1240.8</ele>
        <time>2021-04-17T14:31:47Z</time>
      </trkpt>
      <trkpt lat="46.06868" lon="6.11986">
        <ele>1241</ele>
        <time>2021-04-17T14:31:48Z</time>
      </trkpt>
      <trkpt lat="46.06867" lon="6.11991">
        <ele>1241</ele>
        <time>2021-04-17T14:31:49Z</time>
      </trkpt>
      <trkpt lat="46.06867" lon="6.11996">
        <ele>1241</ele>
        <time>2021-04-17T14:31:50Z</time>
      </trkpt>
      <trkpt lat="46.06866" lon="6.12001">
        <ele>1241.2</ele>
        <time>2021-04-17T14:31:51Z</time>
      </trkpt>
      <trkpt lat="46.06865" lon="6.12005">
        <ele>1241.4</ele>
        <time>2021-04-17T14:31:52Z</time>
      </trkpt>
      <trkpt lat="46.06864" lon="6.12009">
        <ele>1241.4</ele>
        <time>2021-04-17T14:31:53Z</time>
      </trkpt>
      <trkpt lat="46.06863" lon="6.12013">
        <ele>1241.8</ele>
        <time>2021-04-17T14:31:54Z</time>
      </trkpt>
      <trkpt lat="46.06862" lon="6.12017">
        <ele>1242</ele>
        <time>2021-04-17T14:31:55Z</time>
      </trkpt>
      <trkpt lat="46.06861" lon="6.12021">
        <ele>1242</ele>
        <time>2021-04-17T14:31:56Z</time>
      </trkpt>
      <trkpt lat="46.0686" lon="6.12025">
        <ele>1242</ele>
        <time>2021-04-17T14:31:57Z</time>
      </trkpt>
      <trkpt lat="46.06859" lon="6.12029">
        <ele>1242.2</ele>
        <time>2021-04-17T14:31:58Z</time>
      </trkpt>
      <trkpt lat="46.06858" lon="6.12033">
        <ele>1242.4</ele>
        <time>2021-04-17T14:31:59Z</time>
      </trkpt>
      <trkpt lat="46.06856" lon="6.12037">
        <ele>1242.6</ele>
        <time>2021-04-17T14:32:00Z</time>
      </trkpt>
      <trkpt lat="46.06855" lon="6.12041">
        <ele>1242.8</ele>
        <time>2021-04-17T14:32:01Z</time>
      </trkpt>
      <trkpt lat="46.06854" lon="6.12045">
        <ele>1243.2</ele>
        <time>2021-04-17T14:32:02Z</time>
      </trkpt>
      <trkpt lat="46.06853" lon="6.12049">
        <ele>1243.4</ele>
        <time>2021-04-17T14:32:03Z</time>
      </trkpt>
      <trkpt lat="46.06851" lon="6.12053">
        <ele>1243.6</ele>
        <time>2021-04-17T14:32:04Z</time>
      </trkpt>
      <trkpt lat="46.0685" lon="6.12056">
        <ele>1243.8</ele>
        <time>2021-04-17T14:32:05Z</time>
      </trkpt>
      <trkpt lat="46.06849" lon="6.1206">
        <ele>1244</ele>
        <time>2021-04-17T14:32:06Z</time>
      </trkpt>
      <trkpt lat="46.06848" lon="6.12063">
        <ele>1244.2</ele>
        <time>2021-04-17T14:32:07Z</time>
      </trkpt>
      <trkpt lat="46.06846" lon="6.12066">
        <ele>1244.4</ele>
        <time>2021-04-17T14:32:08Z</time>
      </trkpt>
      <trkpt lat="46.06845" lon="6.1207">
        <ele>1244.8</ele>
        <time>2021-04-17T14:32:09Z</time>
      </trkpt>
      <trkpt lat="46.06844" lon="6.12074">
        <ele>1244.8</ele>
        <time>2021-04-17T14:32:10Z</time>
      </trkpt>
      <trkpt lat="46.06843" lon="6.12077">
        <ele>1245</ele>
        <time>2021-04-17T14:32:11Z</time>
      </trkpt>
      <trkpt lat="46.06842" lon="6.12081">
        <ele>1245</ele>
        <time>2021-04-17T14:32:12Z</time>
      </trkpt>
      <trkpt lat="46.0684" lon="6.12085">
        <ele>1245.2</ele>
        <time>2021-04-17T14:32:13Z</time>
      </trkpt>
      <trkpt lat="46.0684" lon="6.12089">
        <ele>1245.4</ele>
        <time>2021-04-17T14:32:14Z</time>
      </trkpt>
      <trkpt lat="46.06839" lon="6.12093">
        <ele>1245.4</ele>
        <time>2021-04-17T14:32:15Z</time>
      </trkpt>
      <trkpt lat="46.06837" lon="6.12097">
        <ele>1245.6</ele>
        <time>2021-04-17T14:32:16Z</time>
      </trkpt>
      <trkpt lat="46.06836" lon="6.121">
        <ele>1245.8</ele>
        <time>2021-04-17T14:32:17Z</time>
      </trkpt>
      <trkpt lat="46.06835" lon="6.12104">
        <ele>1246</ele>
        <time>2021-04-17T14:32:18Z</time>
      </trkpt>
      <trkpt lat="46.06834" lon="6.12108">
        <ele>1246</ele>
        <time>2021-04-17T14:32:19Z</time>
      </trkpt>
      <trkpt lat="46.06833" lon="6.12112">
        <ele>1246.2</ele>
        <time>2021-04-17T14:32:20Z</time>
      </trkpt>
      <trkpt lat="46.06832" lon="6.12116">
        <ele>1246.4</ele>
        <time>2021-04-17T14:32:21Z</time>
      </trkpt>
      <trkpt lat="46.06831" lon="6.1212">
        <ele>1246.6</ele>
        <time>2021-04-17T14:32:22Z</time>
      </trkpt>
      <trkpt lat="46.06829" lon="6.12124">
        <ele>1246.8</ele>
        <time>2021-04-17T14:32:23Z</time>
      </trkpt>
      <trkpt lat="46.06828" lon="6.12128">
        <ele>1247</ele>
        <time>2021-04-17T14:32:24Z</time>
      </trkpt>
      <trkpt lat="46.06827" lon="6.12132">
        <ele>1247.2</ele>
        <time>2021-04-17T14:32:25Z</time>
      </trkpt>
      <trkpt lat="46.06826" lon="6.12135">
        <ele>1247.4</ele>
        <time>2021-04-17T14:32:26Z</time>
      </trkpt>
      <trkpt lat="46.06824" lon="6.12139">
        <ele>1247.6</ele>
        <time>2021-04-17T14:32:27Z</time>
      </trkpt>
      <trkpt lat="46.06823" lon="6.12143">
        <ele>1247.8</ele>
        <time>2021-04-17T14:32:28Z</time>
      </trkpt>
      <trkpt lat="46.06822" lon="6.12146">
        <ele>1248.2</ele>
        <time>2021-04-17T14:32:29Z</time>
      </trkpt>
      <trkpt lat="46.06821" lon="6.12149">
        <ele>1248.4</ele>
        <time>2021-04-17T14:32:30Z</time>
      </trkpt>
      <trkpt lat="46.06819" lon="6.12153">
        <ele>1248.8</ele>
        <time>2021-04-17T14:32:31Z</time>
      </trkpt>
      <trkpt lat="46.06819" lon="6.12157">
        <ele>1249</ele>
        <time>2021-04-17T14:32:32Z</time>
      </trkpt>
      <trkpt lat="46.06817" lon="6.1216">
        <ele>1249.4</ele>
        <time>2021-04-17T14:32:33Z</time>
      </trkpt>
      <trkpt lat="46.06817" lon="6.12164">
        <ele>1249.6</ele>
        <time>2021-04-17T14:32:34Z</time>
      </trkpt>
      <trkpt lat="46.06816" lon="6.12168">
        <ele>1249.8</ele>
        <time>2021-04-17T14:32:35Z</time>
      </trkpt>
      <trkpt lat="46.06814" lon="6.12171">
        <ele>1249.8</ele>
        <time>2021-04-17T14:32:36Z</time>
      </trkpt>
      <trkpt lat="46.06813" lon="6.12174">
        <ele>1249.8</ele>
        <time>2021-04-17T14:32:37Z</time>
      </trkpt>
      <trkpt lat="46.06812" lon="6.12178">
        <ele>1250</ele>
        <time>2021-04-17T14:32:38Z</time>
      </trkpt>
      <trkpt lat="46.06811" lon="6.12182">
        <ele>1250.2</ele>
        <time>2021-04-17T14:32:39Z</time>
      </trkpt>
      <trkpt lat="46.0681" lon="6.12185">
        <ele>1250.4</ele>
        <time>2021-04-17T14:32:40Z</time>
      </trkpt>
      <trkpt lat="46.06809" lon="6.12189">
        <ele>1250.8</ele>
        <time>2021-04-17T14:32:41Z</time>
      </trkpt>
      <trkpt lat="46.06808" lon="6.12193">
        <ele>1251</ele>
        <time>2021-04-17T14:32:42Z</time>
      </trkpt>
      <trkpt lat="46.06808" lon="6.12197">
        <ele>1251.2</ele>
        <time>2021-04-17T14:32:43Z</time>
      </trkpt>
      <trkpt lat="46.06808" lon="6.12201">
        <ele>1251.6</ele>
        <time>2021-04-17T14:32:44Z</time>
      </trkpt>
      <trkpt lat="46.06808" lon="6.12206">
        <ele>1251.8</ele>
        <time>2021-04-17T14:32:45Z</time>
      </trkpt>
      <trkpt lat="46.06809" lon="6.1221">
        <ele>1252</ele>
        <time>2021-04-17T14:32:46Z</time>
      </trkpt>
      <trkpt lat="46.0681" lon="6.12214">
        <ele>1252.4</ele>
        <time>2021-04-17T14:32:47Z</time>
      </trkpt>
      <trkpt lat="46.0681" lon="6.12219">
        <ele>1252.6</ele>
        <time>2021-04-17T14:32:48Z</time>
      </trkpt>
      <trkpt lat="46.06811" lon="6.12223">
        <ele>1252.8</ele>
        <time>2021-04-17T14:32:49Z</time>
      </trkpt>
      <trkpt lat="46.06812" lon="6.12227">
        <ele>1252.8</ele>
        <time>2021-04-17T14:32:50Z</time>
      </trkpt>
      <trkpt lat="46.06813" lon="6.12232">
        <ele>1252.8</ele>
        <time>2021-04-17T14:32:51Z</time>
      </trkpt>
      <trkpt lat="46.06814" lon="6.12236">
        <ele>1253</ele>
        <time>2021-04-17T14:32:52Z</time>
      </trkpt>
      <trkpt lat="46.06816" lon="6.1224">
        <ele>1253</ele>
        <time>2021-04-17T14:32:53Z</time>
      </trkpt>
      <trkpt lat="46.06817" lon="6.12243">
        <ele>1253</ele>
        <time>2021-04-17T14:32:54Z</time>
      </trkpt>
      <trkpt lat="46.06818" lon="6.12247">
        <ele>1253</ele>
        <time>2021-04-17T14:32:55Z</time>
      </trkpt>
      <trkpt lat="46.0682" lon="6.1225">
        <ele>1253.2</ele>
        <time>2021-04-17T14:32:56Z</time>
      </trkpt>
      <trkpt lat="46.06822" lon="6.12254">
        <ele>1253.2</ele>
        <time>2021-04-17T14:32:57Z</time>
      </trkpt>
      <trkpt lat="46.06823" lon="6.12257">
        <ele>1253.6</ele>
        <time>2021-04-17T14:32:58Z</time>
      </trkpt>
      <trkpt lat="46.06825" lon="6.12259">
        <ele>1253.8</ele>
        <time>2021-04-17T14:32:59Z</time>
      </trkpt>
      <trkpt lat="46.06826" lon="6.12261">
        <ele>1253.8</ele>
        <time>2021-04-17T14:33:00Z</time>
      </trkpt>
      <trkpt lat="46.06828" lon="6.12263">
        <ele>1254.2</ele>
        <time>2021-04-17T14:33:01Z</time>
      </trkpt>
      <trkpt lat="46.0683" lon="6.12265">
        <ele>1254.4</ele>
        <time>2021-04-17T14:33:02Z</time>
      </trkpt>
      <trkpt lat="46.06833" lon="6.12266">
        <ele>1254.8</ele>
        <time>2021-04-17T14:33:03Z</time>
      </trkpt>
      <trkpt lat="46.06836" lon="6.12266">
        <ele>1255</ele>
        <time>2021-04-17T14:33:04Z</time>
      </trkpt>
      <trkpt lat="46.06838" lon="6.12266">
        <ele>1255.2</ele>
        <time>2021-04-17T14:33:05Z</time>
      </trkpt>
      <trkpt lat="46.06841" lon="6.12266">
        <ele>1255.4</ele>
        <time>2021-04-17T14:33:06Z</time>
      </trkpt>
      <trkpt lat="46.06844" lon="6.12265">
        <ele>1255.4</ele>
        <time>2021-04-17T14:33:07Z</time>
      </trkpt>
      <trkpt lat="46.06846" lon="6.12264">
        <ele>1255.6</ele>
        <time>2021-04-17T14:33:08Z</time>
      </trkpt>
      <trkpt lat="46.06849" lon="6.12264">
        <ele>1255.4</ele>
        <time>2021-04-17T14:33:09Z</time>
      </trkpt>
      <trkpt lat="46.06851" lon="6.12263">
        <ele>1255.6</ele>
        <time>2021-04-17T14:33:10Z</time>
      </trkpt>
      <trkpt lat="46.06854" lon="6.12262">
        <ele>1255.4</ele>
        <time>2021-04-17T14:33:11Z</time>
      </trkpt>
      <trkpt lat="46.06856" lon="6.12261">
        <ele>1255.6</ele>
        <time>2021-04-17T14:33:12Z</time>
      </trkpt>
      <trkpt lat="46.06859" lon="6.12259">
        <ele>1256</ele>
        <time>2021-04-17T14:33:13Z</time>
      </trkpt>
      <trkpt lat="46.06862" lon="6.12258">
        <ele>1256.2</ele>
        <time>2021-04-17T14:33:14Z</time>
      </trkpt>
      <trkpt lat="46.06865" lon="6.12257">
        <ele>1256.4</ele>
        <time>2021-04-17T14:33:15Z</time>
      </trkpt>
      <trkpt lat="46.06868" lon="6.12256">
        <ele>1256.4</ele>
        <time>2021-04-17T14:33:16Z</time>
      </trkpt>
      <trkpt lat="46.06871" lon="6.12254">
        <ele>1256.6</ele>
        <time>2021-04-17T14:33:17Z</time>
      </trkpt>
      <trkpt lat="46.06873" lon="6.12253">
        <ele>1256.4</ele>
        <time>2021-04-17T14:33:18Z</time>
      </trkpt>
      <trkpt lat="46.06876" lon="6.12252">
        <ele>1257</ele>
        <time>2021-04-17T14:33:19Z</time>
      </trkpt>
      <trkpt lat="46.06878" lon="6.12251">
        <ele>1257</ele>
        <time>2021-04-17T14:33:20Z</time>
      </trkpt>
      <trkpt lat="46.0688" lon="6.1225">
        <ele>1257.4</ele>
        <time>2021-04-17T14:33:21Z</time>
      </trkpt>
      <trkpt lat="46.06882" lon="6.12249">
        <ele>1257.6</ele>
        <time>2021-04-17T14:33:22Z</time>
      </trkpt>
      <trkpt lat="46.06884" lon="6.12248">
        <ele>1257.4</ele>
        <time>2021-04-17T14:33:23Z</time>
      </trkpt>
      <trkpt lat="46.06887" lon="6.12247">
        <ele>1257.6</ele>
        <time>2021-04-17T14:33:24Z</time>
      </trkpt>
      <trkpt lat="46.0689" lon="6.12246">
        <ele>1258</ele>
        <time>2021-04-17T14:33:25Z</time>
      </trkpt>
      <trkpt lat="46.06893" lon="6.12245">
        <ele>1258.2</ele>
        <time>2021-04-17T14:33:26Z</time>
      </trkpt>
      <trkpt lat="46.06895" lon="6.12244">
        <ele>1258.4</ele>
        <time>2021-04-17T14:33:27Z</time>
      </trkpt>
      <trkpt lat="46.06898" lon="6.12243">
        <ele>1258.8</ele>
        <time>2021-04-17T14:33:28Z</time>
      </trkpt>
      <trkpt lat="46.06901" lon="6.12242">
        <ele>1259</ele>
        <time>2021-04-17T14:33:29Z</time>
      </trkpt>
      <trkpt lat="46.06903" lon="6.12242">
        <ele>1259.2</ele>
        <time>2021-04-17T14:33:30Z</time>
      </trkpt>
      <trkpt lat="46.06906" lon="6.12241">
        <ele>1259.4</ele>
        <time>2021-04-17T14:33:31Z</time>
      </trkpt>
      <trkpt lat="46.06908" lon="6.1224">
        <ele>1260</ele>
        <time>2021-04-17T14:33:32Z</time>
      </trkpt>
      <trkpt lat="46.06911" lon="6.1224">
        <ele>1260.4</ele>
        <time>2021-04-17T14:33:33Z</time>
      </trkpt>
      <trkpt lat="46.06914" lon="6.1224">
        <ele>1260.6</ele>
        <time>2021-04-17T14:33:34Z</time>
      </trkpt>
      <trkpt lat="46.06917" lon="6.12239">
        <ele>1260.6</ele>
        <time>2021-04-17T14:33:35Z</time>
      </trkpt>
      <trkpt lat="46.0692" lon="6.12239">
        <ele>1260.8</ele>
        <time>2021-04-17T14:33:36Z</time>
      </trkpt>
      <trkpt lat="46.06922" lon="6.12238">
        <ele>1260.8</ele>
        <time>2021-04-17T14:33:37Z</time>
      </trkpt>
      <trkpt lat="46.06924" lon="6.12238">
        <ele>1261</ele>
        <time>2021-04-17T14:33:38Z</time>
      </trkpt>
      <trkpt lat="46.06926" lon="6.12237">
        <ele>1261.2</ele>
        <time>2021-04-17T14:33:39Z</time>
      </trkpt>
      <trkpt lat="46.06928" lon="6.12237">
        <ele>1261.2</ele>
        <time>2021-04-17T14:33:40Z</time>
      </trkpt>
      <trkpt lat="46.06929" lon="6.12236">
        <ele>1261.6</ele>
        <time>2021-04-17T14:33:41Z</time>
      </trkpt>
      <trkpt lat="46.06931" lon="6.12236">
        <ele>1261.8</ele>
        <time>2021-04-17T14:33:42Z</time>
      </trkpt>
      <trkpt lat="46.06934" lon="6.12236">
        <ele>1262</ele>
        <time>2021-04-17T14:33:43Z</time>
      </trkpt>
      <trkpt lat="46.06937" lon="6.12235">
        <ele>1262.2</ele>
        <time>2021-04-17T14:33:44Z</time>
      </trkpt>
      <trkpt lat="46.0694" lon="6.12234">
        <ele>1262.4</ele>
        <time>2021-04-17T14:33:45Z</time>
      </trkpt>
      <trkpt lat="46.06943" lon="6.12233">
        <ele>1262.6</ele>
        <time>2021-04-17T14:33:46Z</time>
      </trkpt>
      <trkpt lat="46.06946" lon="6.12232">
        <ele>1262.6</ele>
        <time>2021-04-17T14:33:47Z</time>
      </trkpt>
      <trkpt lat="46.06949" lon="6.12231">
        <ele>1262.8</ele>
        <time>2021-04-17T14:33:48Z</time>
      </trkpt>
      <trkpt lat="46.06952" lon="6.1223">
        <ele>1262.8</ele>
        <time>2021-04-17T14:33:49Z</time>
      </trkpt>
      <trkpt lat="46.06956" lon="6.12228">
        <ele>1262.8</ele>
        <time>2021-04-17T14:33:50Z</time>
      </trkpt>
      <trkpt lat="46.06959" lon="6.12228">
        <ele>1263</ele>
        <time>2021-04-17T14:33:51Z</time>
      </trkpt>
      <trkpt lat="46.06962" lon="6.12227">
        <ele>1263</ele>
        <time>2021-04-17T14:33:52Z</time>
      </trkpt>
      <trkpt lat="46.06966" lon="6.12226">
        <ele>1263.2</ele>
        <time>2021-04-17T14:33:53Z</time>
      </trkpt>
      <trkpt lat="46.06969" lon="6.12226">
        <ele>1263.2</ele>
        <time>2021-04-17T14:33:54Z</time>
      </trkpt>
      <trkpt lat="46.06971" lon="6.12225">
        <ele>1263.2</ele>
        <time>2021-04-17T14:33:55Z</time>
      </trkpt>
      <trkpt lat="46.06974" lon="6.12225">
        <ele>1263.2</ele>
        <time>2021-04-17T14:33:56Z</time>
      </trkpt>
      <trkpt lat="46.06977" lon="6.12224">
        <ele>1263.4</ele>
        <time>2021-04-17T14:33:57Z</time>
      </trkpt>
      <trkpt lat="46.0698" lon="6.12224">
        <ele>1263.4</ele>
        <time>2021-04-17T14:33:58Z</time>
      </trkpt>
      <trkpt lat="46.06984" lon="6.12224">
        <ele>1263.4</ele>
        <time>2021-04-17T14:33:59Z</time>
      </trkpt>
      <trkpt lat="46.06987" lon="6.12222">
        <ele>1263.4</ele>
        <time>2021-04-17T14:34:00Z</time>
      </trkpt>
      <trkpt lat="46.06991" lon="6.12221">
        <ele>1263.4</ele>
        <time>2021-04-17T14:34:01Z</time>
      </trkpt>
      <trkpt lat="46.06995" lon="6.1222">
        <ele>1263.4</ele>
        <time>2021-04-17T14:34:02Z</time>
      </trkpt>
      <trkpt lat="46.06999" lon="6.12219">
        <ele>1263.4</ele>
        <time>2021-04-17T14:34:03Z</time>
      </trkpt>
      <trkpt lat="46.07003" lon="6.12218">
        <ele>1263.4</ele>
        <time>2021-04-17T14:34:04Z</time>
      </trkpt>
      <trkpt lat="46.07006" lon="6.12217">
        <ele>1263.6</ele>
        <time>2021-04-17T14:34:05Z</time>
      </trkpt>
      <trkpt lat="46.07009" lon="6.12217">
        <ele>1263.6</ele>
        <time>2021-04-17T14:34:06Z</time>
      </trkpt>
      <trkpt lat="46.07013" lon="6.12216">
        <ele>1263.6</ele>
        <time>2021-04-17T14:34:07Z</time>
      </trkpt>
      <trkpt lat="46.07017" lon="6.12215">
        <ele>1263.4</ele>
        <time>2021-04-17T14:34:08Z</time>
      </trkpt>
      <trkpt lat="46.0702" lon="6.12215">
        <ele>1263.6</ele>
        <time>2021-04-17T14:34:09Z</time>
      </trkpt>
      <trkpt lat="46.07023" lon="6.12215">
        <ele>1263.6</ele>
        <time>2021-04-17T14:34:10Z</time>
      </trkpt>
      <trkpt lat="46.07026" lon="6.12215">
        <ele>1263.6</ele>
        <time>2021-04-17T14:34:11Z</time>
      </trkpt>
      <trkpt lat="46.07028" lon="6.12215">
        <ele>1263.6</ele>
        <time>2021-04-17T14:34:12Z</time>
      </trkpt>
      <trkpt lat="46.07031" lon="6.12216">
        <ele>1263.6</ele>
        <time>2021-04-17T14:34:13Z</time>
      </trkpt>
      <trkpt lat="46.07035" lon="6.12218">
        <ele>1263.6</ele>
        <time>2021-04-17T14:34:14Z</time>
      </trkpt>
      <trkpt lat="46.07039" lon="6.12219">
        <ele>1263.6</ele>
        <time>2021-04-17T14:34:15Z</time>
      </trkpt>
      <trkpt lat="46.07044" lon="6.12222">
        <ele>1263.8</ele>
        <time>2021-04-17T14:34:16Z</time>
      </trkpt>
      <trkpt lat="46.07049" lon="6.12225">
        <ele>1263.8</ele>
        <time>2021-04-17T14:34:17Z</time>
      </trkpt>
      <trkpt lat="46.07053" lon="6.12227">
        <ele>1263.8</ele>
        <time>2021-04-17T14:34:18Z</time>
      </trkpt>
      <trkpt lat="46.07058" lon="6.12229">
        <ele>1264</ele>
        <time>2021-04-17T14:34:19Z</time>
      </trkpt>
      <trkpt lat="46.07062" lon="6.12231">
        <ele>1264.2</ele>
        <time>2021-04-17T14:34:20Z</time>
      </trkpt>
      <trkpt lat="46.07066" lon="6.12233">
        <ele>1264.4</ele>
        <time>2021-04-17T14:34:21Z</time>
      </trkpt>
      <trkpt lat="46.0707" lon="6.12236">
        <ele>1264.6</ele>
        <time>2021-04-17T14:34:22Z</time>
      </trkpt>
      <trkpt lat="46.07073" lon="6.12239">
        <ele>1264.8</ele>
        <time>2021-04-17T14:34:23Z</time>
      </trkpt>
      <trkpt lat="46.07076" lon="6.12242">
        <ele>1265</ele>
        <time>2021-04-17T14:34:24Z</time>
      </trkpt>
      <trkpt lat="46.0708" lon="6.12245">
        <ele>1265.2</ele>
        <time>2021-04-17T14:34:25Z</time>
      </trkpt>
      <trkpt lat="46.07083" lon="6.12248">
        <ele>1265.4</ele>
        <time>2021-04-17T14:34:26Z</time>
      </trkpt>
      <trkpt lat="46.07086" lon="6.12251">
        <ele>1265.8</ele>
        <time>2021-04-17T14:34:27Z</time>
      </trkpt>
      <trkpt lat="46.07089" lon="6.12254">
        <ele>1266.2</ele>
        <time>2021-04-17T14:34:28Z</time>
      </trkpt>
      <trkpt lat="46.07092" lon="6.12256">
        <ele>1266.4</ele>
        <time>2021-04-17T14:34:29Z</time>
      </trkpt>
      <trkpt lat="46.07095" lon="6.12259">
        <ele>1266.6</ele>
        <time>2021-04-17T14:34:30Z</time>
      </trkpt>
      <trkpt lat="46.07098" lon="6.12262">
        <ele>1266.8</ele>
        <time>2021-04-17T14:34:31Z</time>
      </trkpt>
      <trkpt lat="46.07101" lon="6.12265">
        <ele>1267.2</ele>
        <time>2021-04-17T14:34:32Z</time>
      </trkpt>
      <trkpt lat="46.07104" lon="6.12268">
        <ele>1267.8</ele>
        <time>2021-04-17T14:34:33Z</time>
      </trkpt>
      <trkpt lat="46.07107" lon="6.12271">
        <ele>1268.6</ele>
        <time>2021-04-17T14:34:34Z</time>
      </trkpt>
      <trkpt lat="46.07109" lon="6.12274">
        <ele>1269</ele>
        <time>2021-04-17T14:34:35Z</time>
      </trkpt>
      <trkpt lat="46.07112" lon="6.12276">
        <ele>1269.4</ele>
        <time>2021-04-17T14:34:36Z</time>
      </trkpt>
      <trkpt lat="46.07115" lon="6.12278">
        <ele>1269.6</ele>
        <time>2021-04-17T14:34:37Z</time>
      </trkpt>
      <trkpt lat="46.07118" lon="6.1228">
        <ele>1270</ele>
        <time>2021-04-17T14:34:38Z</time>
      </trkpt>
      <trkpt lat="46.07121" lon="6.12281">
        <ele>1270</ele>
        <time>2021-04-17T14:34:39Z</time>
      </trkpt>
      <trkpt lat="46.07124" lon="6.12283">
        <ele>1270.4</ele>
        <time>2021-04-17T14:34:40Z</time>
      </trkpt>
      <trkpt lat="46.07127" lon="6.12284">
        <ele>1270.8</ele>
        <time>2021-04-17T14:34:41Z</time>
      </trkpt>
      <trkpt lat="46.0713" lon="6.12285">
        <ele>1271</ele>
        <time>2021-04-17T14:34:42Z</time>
      </trkpt>
      <trkpt lat="46.07133" lon="6.12287">
        <ele>1271.2</ele>
        <time>2021-04-17T14:34:43Z</time>
      </trkpt>
      <trkpt lat="46.07136" lon="6.12288">
        <ele>1271.4</ele>
        <time>2021-04-17T14:34:44Z</time>
      </trkpt>
      <trkpt lat="46.07139" lon="6.1229">
        <ele>1271.4</ele>
        <time>2021-04-17T14:34:45Z</time>
      </trkpt>
      <trkpt lat="46.07142" lon="6.12292">
        <ele>1271.4</ele>
        <time>2021-04-17T14:34:46Z</time>
      </trkpt>
      <trkpt lat="46.07145" lon="6.12294">
        <ele>1271.4</ele>
        <time>2021-04-17T14:34:47Z</time>
      </trkpt>
      <trkpt lat="46.07147" lon="6.12296">
        <ele>1271.4</ele>
        <time>2021-04-17T14:34:48Z</time>
      </trkpt>
      <trkpt lat="46.0715" lon="6.12299">
        <ele>1271.6</ele>
        <time>2021-04-17T14:34:49Z</time>
      </trkpt>
      <trkpt lat="46.07152" lon="6.12301">
        <ele>1271.6</ele>
        <time>2021-04-17T14:34:50Z</time>
      </trkpt>
      <trkpt lat="46.07154" lon="6.12304">
        <ele>1271.8</ele>
        <time>2021-04-17T14:34:51Z</time>
      </trkpt>
      <trkpt lat="46.07157" lon="6.12307">
        <ele>1272</ele>
        <time>2021-04-17T14:34:52Z</time>
      </trkpt>
      <trkpt lat="46.07159" lon="6.1231">
        <ele>1272</ele>
        <time>2021-04-17T14:34:53Z</time>
      </trkpt>
      <trkpt lat="46.07161" lon="6.12313">
        <ele>1272.2</ele>
        <time>2021-04-17T14:34:54Z</time>
      </trkpt>
      <trkpt lat="46.07163" lon="6.12316">
        <ele>1272.4</ele>
        <time>2021-04-17T14:34:55Z</time>
      </trkpt>
      <trkpt lat="46.07165" lon="6.12319">
        <ele>1272.8</ele>
        <time>2021-04-17T14:34:56Z</time>
      </trkpt>
      <trkpt lat="46.07167" lon="6.12322">
        <ele>1272.8</ele>
        <time>2021-04-17T14:34:57Z</time>
      </trkpt>
      <trkpt lat="46.07169" lon="6.12326">
        <ele>1273.4</ele>
        <time>2021-04-17T14:34:58Z</time>
      </trkpt>
      <trkpt lat="46.07171" lon="6.12329">
        <ele>1273.6</ele>
        <time>2021-04-17T14:34:59Z</time>
      </trkpt>
      <trkpt lat="46.07173" lon="6.12331">
        <ele>1274</ele>
        <time>2021-04-17T14:35:00Z</time>
      </trkpt>
      <trkpt lat="46.07175" lon="6.12334">
        <ele>1274.4</ele>
        <time>2021-04-17T14:35:01Z</time>
      </trkpt>
      <trkpt lat="46.07177" lon="6.12337">
        <ele>1274.6</ele>
        <time>2021-04-17T14:35:02Z</time>
      </trkpt>
      <trkpt lat="46.0718" lon="6.12339">
        <ele>1275</ele>
        <time>2021-04-17T14:35:03Z</time>
      </trkpt>
      <trkpt lat="46.07182" lon="6.12342">
        <ele>1275</ele>
        <time>2021-04-17T14:35:04Z</time>
      </trkpt>
      <trkpt lat="46.07184" lon="6.12344">
        <ele>1275.2</ele>
        <time>2021-04-17T14:35:05Z</time>
      </trkpt>
      <trkpt lat="46.07187" lon="6.12346">
        <ele>1275.4</ele>
        <time>2021-04-17T14:35:06Z</time>
      </trkpt>
      <trkpt lat="46.07189" lon="6.12348">
        <ele>1275.6</ele>
        <time>2021-04-17T14:35:07Z</time>
      </trkpt>
      <trkpt lat="46.07192" lon="6.1235">
        <ele>1275.8</ele>
        <time>2021-04-17T14:35:08Z</time>
      </trkpt>
      <trkpt lat="46.07194" lon="6.12352">
        <ele>1276</ele>
        <time>2021-04-17T14:35:09Z</time>
      </trkpt>
      <trkpt lat="46.07197" lon="6.12354">
        <ele>1276</ele>
        <time>2021-04-17T14:35:10Z</time>
      </trkpt>
      <trkpt lat="46.07199" lon="6.12355">
        <ele>1276</ele>
        <time>2021-04-17T14:35:11Z</time>
      </trkpt>
      <trkpt lat="46.07202" lon="6.12357">
        <ele>1276.2</ele>
        <time>2021-04-17T14:35:12Z</time>
      </trkpt>
      <trkpt lat="46.07205" lon="6.12359">
        <ele>1276.4</ele>
        <time>2021-04-17T14:35:13Z</time>
      </trkpt>
      <trkpt lat="46.07208" lon="6.1236">
        <ele>1276.4</ele>
        <time>2021-04-17T14:35:14Z</time>
      </trkpt>
      <trkpt lat="46.0721" lon="6.12361">
        <ele>1276.8</ele>
        <time>2021-04-17T14:35:15Z</time>
      </trkpt>
      <trkpt lat="46.07212" lon="6.12362">
        <ele>1277.2</ele>
        <time>2021-04-17T14:35:16Z</time>
      </trkpt>
      <trkpt lat="46.07214" lon="6.12364">
        <ele>1277.2</ele>
        <time>2021-04-17T14:35:17Z</time>
      </trkpt>
      <trkpt lat="46.07217" lon="6.12365">
        <ele>1277.6</ele>
        <time>2021-04-17T14:35:18Z</time>
      </trkpt>
      <trkpt lat="46.07219" lon="6.12365">
        <ele>1278</ele>
        <time>2021-04-17T14:35:19Z</time>
      </trkpt>
      <trkpt lat="46.0722" lon="6.12366">
        <ele>1278.2</ele>
        <time>2021-04-17T14:35:20Z</time>
      </trkpt>
      <trkpt lat="46.07222" lon="6.12367">
        <ele>1278.4</ele>
        <time>2021-04-17T14:35:21Z</time>
      </trkpt>
      <trkpt lat="46.07224" lon="6.12367">
        <ele>1278.4</ele>
        <time>2021-04-17T14:35:22Z</time>
      </trkpt>
      <trkpt lat="46.07226" lon="6.12368">
        <ele>1278.4</ele>
        <time>2021-04-17T14:35:23Z</time>
      </trkpt>
      <trkpt lat="46.07227" lon="6.12369">
        <ele>1278.6</ele>
        <time>2021-04-17T14:35:24Z</time>
      </trkpt>
      <trkpt lat="46.0723" lon="6.12369">
        <ele>1278.6</ele>
        <time>2021-04-17T14:35:25Z</time>
      </trkpt>
      <trkpt lat="46.07232" lon="6.1237">
        <ele>1278.6</ele>
        <time>2021-04-17T14:35:26Z</time>
      </trkpt>
      <trkpt lat="46.07234" lon="6.1237">
        <ele>1278.8</ele>
        <time>2021-04-17T14:35:27Z</time>
      </trkpt>
      <trkpt lat="46.07237" lon="6.12371">
        <ele>1279</ele>
        <time>2021-04-17T14:35:28Z</time>
      </trkpt>
      <trkpt lat="46.07238" lon="6.12371">
        <ele>1279.2</ele>
        <time>2021-04-17T14:35:29Z</time>
      </trkpt>
      <trkpt lat="46.0724" lon="6.12371">
        <ele>1279.4</ele>
        <time>2021-04-17T14:35:30Z</time>
      </trkpt>
      <trkpt lat="46.07242" lon="6.12371">
        <ele>1279.6</ele>
        <time>2021-04-17T14:35:31Z</time>
      </trkpt>
      <trkpt lat="46.07245" lon="6.12372">
        <ele>1279.8</ele>
        <time>2021-04-17T14:35:32Z</time>
      </trkpt>
      <trkpt lat="46.07247" lon="6.12372">
        <ele>1280</ele>
        <time>2021-04-17T14:35:33Z</time>
      </trkpt>
      <trkpt lat="46.0725" lon="6.12371">
        <ele>1280</ele>
        <time>2021-04-17T14:35:34Z</time>
      </trkpt>
      <trkpt lat="46.07253" lon="6.12372">
        <ele>1280.4</ele>
        <time>2021-04-17T14:35:35Z</time>
      </trkpt>
      <trkpt lat="46.07255" lon="6.12372">
        <ele>1280.8</ele>
        <time>2021-04-17T14:35:36Z</time>
      </trkpt>
      <trkpt lat="46.07257" lon="6.12373">
        <ele>1281</ele>
        <time>2021-04-17T14:35:37Z</time>
      </trkpt>
      <trkpt lat="46.0726" lon="6.12373">
        <ele>1281.2</ele>
        <time>2021-04-17T14:35:38Z</time>
      </trkpt>
      <trkpt lat="46.07262" lon="6.12374">
        <ele>1281.4</ele>
        <time>2021-04-17T14:35:39Z</time>
      </trkpt>
      <trkpt lat="46.07265" lon="6.12376">
        <ele>1281.8</ele>
        <time>2021-04-17T14:35:40Z</time>
      </trkpt>
      <trkpt lat="46.07267" lon="6.12376">
        <ele>1282.2</ele>
        <time>2021-04-17T14:35:41Z</time>
      </trkpt>
      <trkpt lat="46.0727" lon="6.12377">
        <ele>1282.8</ele>
        <time>2021-04-17T14:35:42Z</time>
      </trkpt>
      <trkpt lat="46.07273" lon="6.12378">
        <ele>1283</ele>
        <time>2021-04-17T14:35:43Z</time>
      </trkpt>
      <trkpt lat="46.07275" lon="6.12379">
        <ele>1283.2</ele>
        <time>2021-04-17T14:35:44Z</time>
      </trkpt>
      <trkpt lat="46.07277" lon="6.12379">
        <ele>1283.6</ele>
        <time>2021-04-17T14:35:45Z</time>
      </trkpt>
      <trkpt lat="46.0728" lon="6.12379">
        <ele>1283.8</ele>
        <time>2021-04-17T14:35:46Z</time>
      </trkpt>
      <trkpt lat="46.07282" lon="6.1238">
        <ele>1284</ele>
        <time>2021-04-17T14:35:47Z</time>
      </trkpt>
      <trkpt lat="46.07284" lon="6.12381">
        <ele>1284</ele>
        <time>2021-04-17T14:35:48Z</time>
      </trkpt>
      <trkpt lat="46.07287" lon="6.12381">
        <ele>1284.4</ele>
        <time>2021-04-17T14:35:49Z</time>
      </trkpt>
      <trkpt lat="46.07291" lon="6.12383">
        <ele>1284.4</ele>
        <time>2021-04-17T14:35:50Z</time>
      </trkpt>
      <trkpt lat="46.07295" lon="6.12384">
        <ele>1284.4</ele>
        <time>2021-04-17T14:35:51Z</time>
      </trkpt>
      <trkpt lat="46.07299" lon="6.12385">
        <ele>1284.8</ele>
        <time>2021-04-17T14:35:52Z</time>
      </trkpt>
      <trkpt lat="46.07303" lon="6.12386">
        <ele>1285</ele>
        <time>2021-04-17T14:35:53Z</time>
      </trkpt>
      <trkpt lat="46.07306" lon="6.12388">
        <ele>1285</ele>
        <time>2021-04-17T14:35:54Z</time>
      </trkpt>
      <trkpt lat="46.07309" lon="6.12389">
        <ele>1285</ele>
        <time>2021-04-17T14:35:55Z</time>
      </trkpt>
      <trkpt lat="46.07312" lon="6.1239">
        <ele>1285.2</ele>
        <time>2021-04-17T14:35:56Z</time>
      </trkpt>
      <trkpt lat="46.07315" lon="6.12392">
        <ele>1285.2</ele>
        <time>2021-04-17T14:35:57Z</time>
      </trkpt>
      <trkpt lat="46.07317" lon="6.12395">
        <ele>1285.2</ele>
        <time>2021-04-17T14:35:58Z</time>
      </trkpt>
      <trkpt lat="46.0732" lon="6.12398">
        <ele>1285.4</ele>
        <time>2021-04-17T14:35:59Z</time>
      </trkpt>
      <trkpt lat="46.07322" lon="6.12401">
        <ele>1285.4</ele>
        <time>2021-04-17T14:36:00Z</time>
      </trkpt>
      <trkpt lat="46.07325" lon="6.12403">
        <ele>1285.8</ele>
        <time>2021-04-17T14:36:01Z</time>
      </trkpt>
      <trkpt lat="46.07327" lon="6.12406">
        <ele>1286</ele>
        <time>2021-04-17T14:36:02Z</time>
      </trkpt>
      <trkpt lat="46.07329" lon="6.12409">
        <ele>1286.4</ele>
        <time>2021-04-17T14:36:03Z</time>
      </trkpt>
      <trkpt lat="46.07331" lon="6.12411">
        <ele>1286.8</ele>
        <time>2021-04-17T14:36:04Z</time>
      </trkpt>
      <trkpt lat="46.07334" lon="6.12414">
        <ele>1287.2</ele>
        <time>2021-04-17T14:36:05Z</time>
      </trkpt>
      <trkpt lat="46.07336" lon="6.12417">
        <ele>1287.6</ele>
        <time>2021-04-17T14:36:06Z</time>
      </trkpt>
      <trkpt lat="46.07339" lon="6.1242">
        <ele>1288</ele>
        <time>2021-04-17T14:36:07Z</time>
      </trkpt>
      <trkpt lat="46.07341" lon="6.12423">
        <ele>1288.2</ele>
        <time>2021-04-17T14:36:08Z</time>
      </trkpt>
      <trkpt lat="46.07343" lon="6.12426">
        <ele>1288.4</ele>
        <time>2021-04-17T14:36:09Z</time>
      </trkpt>
      <trkpt lat="46.07346" lon="6.12429">
        <ele>1288.4</ele>
        <time>2021-04-17T14:36:10Z</time>
      </trkpt>
      <trkpt lat="46.07349" lon="6.12432">
        <ele>1288.4</ele>
        <time>2021-04-17T14:36:11Z</time>
      </trkpt>
      <trkpt lat="46.07352" lon="6.12435">
        <ele>1288.6</ele>
        <time>2021-04-17T14:36:12Z</time>
      </trkpt>
      <trkpt lat="46.07355" lon="6.12438">
        <ele>1288.8</ele>
        <time>2021-04-17T14:36:13Z</time>
      </trkpt>
      <trkpt lat="46.07358" lon="6.1244">
        <ele>1288.8</ele>
        <time>2021-04-17T14:36:14Z</time>
      </trkpt>
      <trkpt lat="46.07361" lon="6.12443">
        <ele>1289</ele>
        <time>2021-04-17T14:36:15Z</time>
      </trkpt>
      <trkpt lat="46.07364" lon="6.12446">
        <ele>1289.2</ele>
        <time>2021-04-17T14:36:16Z</time>
      </trkpt>
      <trkpt lat="46.07367" lon="6.12449">
        <ele>1289</ele>
        <time>2021-04-17T14:36:17Z</time>
      </trkpt>
      <trkpt lat="46.07369" lon="6.12452">
        <ele>1289</ele>
        <time>2021-04-17T14:36:18Z</time>
      </trkpt>
      <trkpt lat="46.07372" lon="6.12455">
        <ele>1289.2</ele>
        <time>2021-04-17T14:36:19Z</time>
      </trkpt>
      <trkpt lat="46.07375" lon="6.12458">
        <ele>1289.4</ele>
        <time>2021-04-17T14:36:20Z</time>
      </trkpt>
      <trkpt lat="46.07378" lon="6.12461">
        <ele>1289.4</ele>
        <time>2021-04-17T14:36:21Z</time>
      </trkpt>
      <trkpt lat="46.07381" lon="6.12464">
        <ele>1289.4</ele>
        <time>2021-04-17T14:36:22Z</time>
      </trkpt>
      <trkpt lat="46.07384" lon="6.12467">
        <ele>1289.6</ele>
        <time>2021-04-17T14:36:23Z</time>
      </trkpt>
      <trkpt lat="46.07386" lon="6.1247">
        <ele>1289.8</ele>
        <time>2021-04-17T14:36:24Z</time>
      </trkpt>
      <trkpt lat="46.07388" lon="6.12473">
        <ele>1290</ele>
        <time>2021-04-17T14:36:25Z</time>
      </trkpt>
      <trkpt lat="46.07389" lon="6.12477">
        <ele>1290.2</ele>
        <time>2021-04-17T14:36:26Z</time>
      </trkpt>
      <trkpt lat="46.0739" lon="6.12481">
        <ele>1290.8</ele>
        <time>2021-04-17T14:36:27Z</time>
      </trkpt>
      <trkpt lat="46.07391" lon="6.12486">
        <ele>1291</ele>
        <time>2021-04-17T14:36:28Z</time>
      </trkpt>
      <trkpt lat="46.07392" lon="6.1249">
        <ele>1291.2</ele>
        <time>2021-04-17T14:36:29Z</time>
      </trkpt>
      <trkpt lat="46.07392" lon="6.12494">
        <ele>1291.6</ele>
        <time>2021-04-17T14:36:30Z</time>
      </trkpt>
      <trkpt lat="46.07393" lon="6.12499">
        <ele>1291.8</ele>
        <time>2021-04-17T14:36:31Z</time>
      </trkpt>
      <trkpt lat="46.07393" lon="6.12503">
        <ele>1291.6</ele>
        <time>2021-04-17T14:36:32Z</time>
      </trkpt>
      <trkpt lat="46.07392" lon="6.12507">
        <ele>1292</ele>
        <time>2021-04-17T14:36:33Z</time>
      </trkpt>
      <trkpt lat="46.07392" lon="6.12511">
        <ele>1292</ele>
        <time>2021-04-17T14:36:34Z</time>
      </trkpt>
      <trkpt lat="46.07391" lon="6.12516">
        <ele>1292.4</ele>
        <time>2021-04-17T14:36:35Z</time>
      </trkpt>
      <trkpt lat="46.07391" lon="6.1252">
        <ele>1292.4</ele>
        <time>2021-04-17T14:36:36Z</time>
      </trkpt>
      <trkpt lat="46.0739" lon="6.12524">
        <ele>1292.6</ele>
        <time>2021-04-17T14:36:37Z</time>
      </trkpt>
      <trkpt lat="46.07389" lon="6.12529">
        <ele>1293</ele>
        <time>2021-04-17T14:36:38Z</time>
      </trkpt>
      <trkpt lat="46.07388" lon="6.12533">
        <ele>1293</ele>
        <time>2021-04-17T14:36:39Z</time>
      </trkpt>
      <trkpt lat="46.07387" lon="6.12538">
        <ele>1293.4</ele>
        <time>2021-04-17T14:36:40Z</time>
      </trkpt>
      <trkpt lat="46.07386" lon="6.12542">
        <ele>1294</ele>
        <time>2021-04-17T14:36:41Z</time>
      </trkpt>
      <trkpt lat="46.07384" lon="6.12546">
        <ele>1294.2</ele>
        <time>2021-04-17T14:36:42Z</time>
      </trkpt>
      <trkpt lat="46.07383" lon="6.12551">
        <ele>1294.6</ele>
        <time>2021-04-17T14:36:43Z</time>
      </trkpt>
      <trkpt lat="46.07383" lon="6.12555">
        <ele>1294.8</ele>
        <time>2021-04-17T14:36:44Z</time>
      </trkpt>
      <trkpt lat="46.07382" lon="6.1256">
        <ele>1294.8</ele>
        <time>2021-04-17T14:36:45Z</time>
      </trkpt>
      <trkpt lat="46.07381" lon="6.12564">
        <ele>1295</ele>
        <time>2021-04-17T14:36:46Z</time>
      </trkpt>
      <trkpt lat="46.0738" lon="6.12569">
        <ele>1295.2</ele>
        <time>2021-04-17T14:36:47Z</time>
      </trkpt>
      <trkpt lat="46.0738" lon="6.12574">
        <ele>1295.2</ele>
        <time>2021-04-17T14:36:48Z</time>
      </trkpt>
      <trkpt lat="46.0738" lon="6.12578">
        <ele>1295.6</ele>
        <time>2021-04-17T14:36:49Z</time>
      </trkpt>
      <trkpt lat="46.0738" lon="6.12583">
        <ele>1295.4</ele>
        <time>2021-04-17T14:36:50Z</time>
      </trkpt>
      <trkpt lat="46.0738" lon="6.12588">
        <ele>1295.6</ele>
        <time>2021-04-17T14:36:51Z</time>
      </trkpt>
      <trkpt lat="46.07381" lon="6.12592">
        <ele>1295.8</ele>
        <time>2021-04-17T14:36:52Z</time>
      </trkpt>
      <trkpt lat="46.07382" lon="6.12596">
        <ele>1296</ele>
        <time>2021-04-17T14:36:53Z</time>
      </trkpt>
      <trkpt lat="46.07383" lon="6.126">
        <ele>1295.8</ele>
        <time>2021-04-17T14:36:54Z</time>
      </trkpt>
      <trkpt lat="46.07384" lon="6.12604">
        <ele>1296</ele>
        <time>2021-04-17T14:36:55Z</time>
      </trkpt>
      <trkpt lat="46.07386" lon="6.12608">
        <ele>1296</ele>
        <time>2021-04-17T14:36:56Z</time>
      </trkpt>
      <trkpt lat="46.07388" lon="6.12611">
        <ele>1296</ele>
        <time>2021-04-17T14:36:57Z</time>
      </trkpt>
      <trkpt lat="46.0739" lon="6.12614">
        <ele>1296.2</ele>
        <time>2021-04-17T14:36:58Z</time>
      </trkpt>
      <trkpt lat="46.07392" lon="6.12616">
        <ele>1296.4</ele>
        <time>2021-04-17T14:36:59Z</time>
      </trkpt>
      <trkpt lat="46.07394" lon="6.12619">
        <ele>1296.6</ele>
        <time>2021-04-17T14:37:00Z</time>
      </trkpt>
      <trkpt lat="46.07397" lon="6.12621">
        <ele>1296.6</ele>
        <time>2021-04-17T14:37:01Z</time>
      </trkpt>
      <trkpt lat="46.07399" lon="6.12623">
        <ele>1296.8</ele>
        <time>2021-04-17T14:37:02Z</time>
      </trkpt>
      <trkpt lat="46.07402" lon="6.12625">
        <ele>1297</ele>
        <time>2021-04-17T14:37:03Z</time>
      </trkpt>
      <trkpt lat="46.07404" lon="6.12626">
        <ele>1297.4</ele>
        <time>2021-04-17T14:37:04Z</time>
      </trkpt>
      <trkpt lat="46.07407" lon="6.12627">
        <ele>1297.6</ele>
        <time>2021-04-17T14:37:05Z</time>
      </trkpt>
      <trkpt lat="46.0741" lon="6.12628">
        <ele>1297.8</ele>
        <time>2021-04-17T14:37:06Z</time>
      </trkpt>
      <trkpt lat="46.07412" lon="6.12628">
        <ele>1298</ele>
        <time>2021-04-17T14:37:07Z</time>
      </trkpt>
      <trkpt lat="46.07415" lon="6.12628">
        <ele>1298.2</ele>
        <time>2021-04-17T14:37:08Z</time>
      </trkpt>
      <trkpt lat="46.07418" lon="6.12627">
        <ele>1298.2</ele>
        <time>2021-04-17T14:37:09Z</time>
      </trkpt>
      <trkpt lat="46.07421" lon="6.12626">
        <ele>1298.2</ele>
        <time>2021-04-17T14:37:10Z</time>
      </trkpt>
      <trkpt lat="46.07423" lon="6.12625">
        <ele>1298.4</ele>
        <time>2021-04-17T14:37:11Z</time>
      </trkpt>
      <trkpt lat="46.07426" lon="6.12624">
        <ele>1298.2</ele>
        <time>2021-04-17T14:37:12Z</time>
      </trkpt>
      <trkpt lat="46.07429" lon="6.12623">
        <ele>1298.4</ele>
        <time>2021-04-17T14:37:13Z</time>
      </trkpt>
      <trkpt lat="46.07431" lon="6.12622">
        <ele>1298.6</ele>
        <time>2021-04-17T14:37:14Z</time>
      </trkpt>
      <trkpt lat="46.07434" lon="6.12621">
        <ele>1298.6</ele>
        <time>2021-04-17T14:37:15Z</time>
      </trkpt>
      <trkpt lat="46.07436" lon="6.12621">
        <ele>1298.4</ele>
        <time>2021-04-17T14:37:16Z</time>
      </trkpt>
      <trkpt lat="46.07439" lon="6.1262">
        <ele>1298.6</ele>
        <time>2021-04-17T14:37:17Z</time>
      </trkpt>
      <trkpt lat="46.07442" lon="6.1262">
        <ele>1298.8</ele>
        <time>2021-04-17T14:37:18Z</time>
      </trkpt>
      <trkpt lat="46.07445" lon="6.1262">
        <ele>1298.6</ele>
        <time>2021-04-17T14:37:19Z</time>
      </trkpt>
      <trkpt lat="46.07447" lon="6.1262">
        <ele>1298.8</ele>
        <time>2021-04-17T14:37:20Z</time>
      </trkpt>
      <trkpt lat="46.0745" lon="6.1262">
        <ele>1298.8</ele>
        <time>2021-04-17T14:37:21Z</time>
      </trkpt>
      <trkpt lat="46.07453" lon="6.1262">
        <ele>1299</ele>
        <time>2021-04-17T14:37:22Z</time>
      </trkpt>
      <trkpt lat="46.07456" lon="6.1262">
        <ele>1299.2</ele>
        <time>2021-04-17T14:37:23Z</time>
      </trkpt>
      <trkpt lat="46.07459" lon="6.12621">
        <ele>1299.4</ele>
        <time>2021-04-17T14:37:24Z</time>
      </trkpt>
      <trkpt lat="46.07461" lon="6.12621">
        <ele>1299.8</ele>
        <time>2021-04-17T14:37:25Z</time>
      </trkpt>
      <trkpt lat="46.07464" lon="6.12622">
        <ele>1300.2</ele>
        <time>2021-04-17T14:37:26Z</time>
      </trkpt>
      <trkpt lat="46.07467" lon="6.12622">
        <ele>1300.4</ele>
        <time>2021-04-17T14:37:27Z</time>
      </trkpt>
      <trkpt lat="46.0747" lon="6.12622">
        <ele>1301</ele>
        <time>2021-04-17T14:37:28Z</time>
      </trkpt>
      <trkpt lat="46.07472" lon="6.12623">
        <ele>1301.8</ele>
        <time>2021-04-17T14:37:29Z</time>
      </trkpt>
      <trkpt lat="46.07475" lon="6.12623">
        <ele>1302.4</ele>
        <time>2021-04-17T14:37:30Z</time>
      </trkpt>
      <trkpt lat="46.07478" lon="6.12623">
        <ele>1302.6</ele>
        <time>2021-04-17T14:37:31Z</time>
      </trkpt>
      <trkpt lat="46.07481" lon="6.12624">
        <ele>1302.8</ele>
        <time>2021-04-17T14:37:32Z</time>
      </trkpt>
      <trkpt lat="46.07484" lon="6.12625">
        <ele>1303</ele>
        <time>2021-04-17T14:37:33Z</time>
      </trkpt>
      <trkpt lat="46.07486" lon="6.12625">
        <ele>1303.2</ele>
        <time>2021-04-17T14:37:34Z</time>
      </trkpt>
      <trkpt lat="46.07489" lon="6.12625">
        <ele>1303.4</ele>
        <time>2021-04-17T14:37:35Z</time>
      </trkpt>
      <trkpt lat="46.07492" lon="6.12626">
        <ele>1303.4</ele>
        <time>2021-04-17T14:37:36Z</time>
      </trkpt>
      <trkpt lat="46.07495" lon="6.12626">
        <ele>1303.6</ele>
        <time>2021-04-17T14:37:37Z</time>
      </trkpt>
      <trkpt lat="46.07497" lon="6.12627">
        <ele>1303.8</ele>
        <time>2021-04-17T14:37:38Z</time>
      </trkpt>
      <trkpt lat="46.075" lon="6.12628">
        <ele>1303.8</ele>
        <time>2021-04-17T14:37:39Z</time>
      </trkpt>
      <trkpt lat="46.07503" lon="6.12628">
        <ele>1303.8</ele>
        <time>2021-04-17T14:37:40Z</time>
      </trkpt>
      <trkpt lat="46.07505" lon="6.12629">
        <ele>1304.2</ele>
        <time>2021-04-17T14:37:41Z</time>
      </trkpt>
      <trkpt lat="46.07508" lon="6.12631">
        <ele>1304.2</ele>
        <time>2021-04-17T14:37:42Z</time>
      </trkpt>
      <trkpt lat="46.07511" lon="6.12632">
        <ele>1304.4</ele>
        <time>2021-04-17T14:37:43Z</time>
      </trkpt>
      <trkpt lat="46.07513" lon="6.12633">
        <ele>1304.4</ele>
        <time>2021-04-17T14:37:44Z</time>
      </trkpt>
      <trkpt lat="46.07516" lon="6.12635">
        <ele>1304.8</ele>
        <time>2021-04-17T14:37:45Z</time>
      </trkpt>
      <trkpt lat="46.07518" lon="6.12637">
        <ele>1305.2</ele>
        <time>2021-04-17T14:37:46Z</time>
      </trkpt>
      <trkpt lat="46.07521" lon="6.12639">
        <ele>1306</ele>
        <time>2021-04-17T14:37:47Z</time>
      </trkpt>
      <trkpt lat="46.07523" lon="6.12641">
        <ele>1306.4</ele>
        <time>2021-04-17T14:37:48Z</time>
      </trkpt>
      <trkpt lat="46.07526" lon="6.12644">
        <ele>1306.6</ele>
        <time>2021-04-17T14:37:49Z</time>
      </trkpt>
      <trkpt lat="46.07528" lon="6.12646">
        <ele>1306.8</ele>
        <time>2021-04-17T14:37:50Z</time>
      </trkpt>
      <trkpt lat="46.0753" lon="6.12649">
        <ele>1306.6</ele>
        <time>2021-04-17T14:37:51Z</time>
      </trkpt>
      <trkpt lat="46.07532" lon="6.12652">
        <ele>1307.2</ele>
        <time>2021-04-17T14:37:52Z</time>
      </trkpt>
      <trkpt lat="46.07534" lon="6.12655">
        <ele>1307.4</ele>
        <time>2021-04-17T14:37:53Z</time>
      </trkpt>
      <trkpt lat="46.07536" lon="6.12659">
        <ele>1307.6</ele>
        <time>2021-04-17T14:37:54Z</time>
      </trkpt>
      <trkpt lat="46.07538" lon="6.12662">
        <ele>1307.8</ele>
        <time>2021-04-17T14:37:55Z</time>
      </trkpt>
      <trkpt lat="46.0754" lon="6.12666">
        <ele>1308.2</ele>
        <time>2021-04-17T14:37:56Z</time>
      </trkpt>
      <trkpt lat="46.07542" lon="6.1267">
        <ele>1308.4</ele>
        <time>2021-04-17T14:37:57Z</time>
      </trkpt>
      <trkpt lat="46.07543" lon="6.12673">
        <ele>1308.8</ele>
        <time>2021-04-17T14:37:58Z</time>
      </trkpt>
      <trkpt lat="46.07544" lon="6.12677">
        <ele>1308.8</ele>
        <time>2021-04-17T14:37:59Z</time>
      </trkpt>
      <trkpt lat="46.07546" lon="6.12681">
        <ele>1309.2</ele>
        <time>2021-04-17T14:38:00Z</time>
      </trkpt>
      <trkpt lat="46.07547" lon="6.12685">
        <ele>1309.4</ele>
        <time>2021-04-17T14:38:01Z</time>
      </trkpt>
      <trkpt lat="46.07548" lon="6.12689">
        <ele>1309.6</ele>
        <time>2021-04-17T14:38:02Z</time>
      </trkpt>
      <trkpt lat="46.07549" lon="6.12692">
        <ele>1309.6</ele>
        <time>2021-04-17T14:38:03Z</time>
      </trkpt>
      <trkpt lat="46.07549" lon="6.12697">
        <ele>1309.8</ele>
        <time>2021-04-17T14:38:04Z</time>
      </trkpt>
      <trkpt lat="46.0755" lon="6.12701">
        <ele>1309.8</ele>
        <time>2021-04-17T14:38:05Z</time>
      </trkpt>
      <trkpt lat="46.07551" lon="6.12705">
        <ele>1309.8</ele>
        <time>2021-04-17T14:38:06Z</time>
      </trkpt>
      <trkpt lat="46.07552" lon="6.12709">
        <ele>1310</ele>
        <time>2021-04-17T14:38:07Z</time>
      </trkpt>
      <trkpt lat="46.07553" lon="6.12713">
        <ele>1310</ele>
        <time>2021-04-17T14:38:08Z</time>
      </trkpt>
      <trkpt lat="46.07554" lon="6.12717">
        <ele>1310</ele>
        <time>2021-04-17T14:38:09Z</time>
      </trkpt>
      <trkpt lat="46.07555" lon="6.12721">
        <ele>1310.2</ele>
        <time>2021-04-17T14:38:10Z</time>
      </trkpt>
      <trkpt lat="46.07556" lon="6.12725">
        <ele>1310.4</ele>
        <time>2021-04-17T14:38:11Z</time>
      </trkpt>
      <trkpt lat="46.07557" lon="6.12729">
        <ele>1310.6</ele>
        <time>2021-04-17T14:38:12Z</time>
      </trkpt>
      <trkpt lat="46.07558" lon="6.12733">
        <ele>1310.8</ele>
        <time>2021-04-17T14:38:13Z</time>
      </trkpt>
      <trkpt lat="46.0756" lon="6.12737">
        <ele>1311.2</ele>
        <time>2021-04-17T14:38:14Z</time>
      </trkpt>
      <trkpt lat="46.07561" lon="6.12741">
        <ele>1311.4</ele>
        <time>2021-04-17T14:38:15Z</time>
      </trkpt>
      <trkpt lat="46.07563" lon="6.12745">
        <ele>1311.8</ele>
        <time>2021-04-17T14:38:16Z</time>
      </trkpt>
      <trkpt lat="46.07564" lon="6.12749">
        <ele>1312</ele>
        <time>2021-04-17T14:38:17Z</time>
      </trkpt>
      <trkpt lat="46.07566" lon="6.12753">
        <ele>1312.4</ele>
        <time>2021-04-17T14:38:18Z</time>
      </trkpt>
      <trkpt lat="46.07568" lon="6.12756">
        <ele>1312.6</ele>
        <time>2021-04-17T14:38:19Z</time>
      </trkpt>
      <trkpt lat="46.07569" lon="6.1276">
        <ele>1312.8</ele>
        <time>2021-04-17T14:38:20Z</time>
      </trkpt>
      <trkpt lat="46.07571" lon="6.12763">
        <ele>1313</ele>
        <time>2021-04-17T14:38:21Z</time>
      </trkpt>
      <trkpt lat="46.07573" lon="6.12767">
        <ele>1313.2</ele>
        <time>2021-04-17T14:38:22Z</time>
      </trkpt>
      <trkpt lat="46.07575" lon="6.1277">
        <ele>1313.4</ele>
        <time>2021-04-17T14:38:23Z</time>
      </trkpt>
      <trkpt lat="46.07577" lon="6.12774">
        <ele>1313.4</ele>
        <time>2021-04-17T14:38:24Z</time>
      </trkpt>
      <trkpt lat="46.07579" lon="6.12777">
        <ele>1313.4</ele>
        <time>2021-04-17T14:38:25Z</time>
      </trkpt>
      <trkpt lat="46.0758" lon="6.12781">
        <ele>1313.6</ele>
        <time>2021-04-17T14:38:26Z</time>
      </trkpt>
      <trkpt lat="46.07582" lon="6.12784">
        <ele>1313.6</ele>
        <time>2021-04-17T14:38:27Z</time>
      </trkpt>
      <trkpt lat="46.07584" lon="6.12788">
        <ele>1313.6</ele>
        <time>2021-04-17T14:38:28Z</time>
      </trkpt>
      <trkpt lat="46.07586" lon="6.12792">
        <ele>1313.8</ele>
        <time>2021-04-17T14:38:29Z</time>
      </trkpt>
      <trkpt lat="46.07588" lon="6.12795">
        <ele>1314</ele>
        <time>2021-04-17T14:38:30Z</time>
      </trkpt>
      <trkpt lat="46.0759" lon="6.12798">
        <ele>1314.2</ele>
        <time>2021-04-17T14:38:31Z</time>
      </trkpt>
      <trkpt lat="46.07592" lon="6.12802">
        <ele>1314.4</ele>
        <time>2021-04-17T14:38:32Z</time>
      </trkpt>
      <trkpt lat="46.07594" lon="6.12805">
        <ele>1314.4</ele>
        <time>2021-04-17T14:38:33Z</time>
      </trkpt>
      <trkpt lat="46.07596" lon="6.12808">
        <ele>1314.6</ele>
        <time>2021-04-17T14:38:34Z</time>
      </trkpt>
      <trkpt lat="46.07599" lon="6.12811">
        <ele>1315</ele>
        <time>2021-04-17T14:38:35Z</time>
      </trkpt>
      <trkpt lat="46.07601" lon="6.12814">
        <ele>1315</ele>
        <time>2021-04-17T14:38:36Z</time>
      </trkpt>
      <trkpt lat="46.07603" lon="6.12817">
        <ele>1315.2</ele>
        <time>2021-04-17T14:38:37Z</time>
      </trkpt>
      <trkpt lat="46.07605" lon="6.1282">
        <ele>1315.4</ele>
        <time>2021-04-17T14:38:38Z</time>
      </trkpt>
      <trkpt lat="46.07608" lon="6.12823">
        <ele>1315.6</ele>
        <time>2021-04-17T14:38:39Z</time>
      </trkpt>
      <trkpt lat="46.0761" lon="6.12826">
        <ele>1315.8</ele>
        <time>2021-04-17T14:38:40Z</time>
      </trkpt>
      <trkpt lat="46.07613" lon="6.12829">
        <ele>1315.8</ele>
        <time>2021-04-17T14:38:41Z</time>
      </trkpt>
      <trkpt lat="46.07615" lon="6.12831">
        <ele>1316</ele>
        <time>2021-04-17T14:38:42Z</time>
      </trkpt>
      <trkpt lat="46.07617" lon="6.12834">
        <ele>1316.4</ele>
        <time>2021-04-17T14:38:43Z</time>
      </trkpt>
      <trkpt lat="46.0762" lon="6.12837">
        <ele>1316.6</ele>
        <time>2021-04-17T14:38:44Z</time>
      </trkpt>
      <trkpt lat="46.07622" lon="6.1284">
        <ele>1317</ele>
        <time>2021-04-17T14:38:45Z</time>
      </trkpt>
      <trkpt lat="46.07624" lon="6.12843">
        <ele>1317.4</ele>
        <time>2021-04-17T14:38:46Z</time>
      </trkpt>
      <trkpt lat="46.07627" lon="6.12846">
        <ele>1317.6</ele>
        <time>2021-04-17T14:38:47Z</time>
      </trkpt>
      <trkpt lat="46.07629" lon="6.12848">
        <ele>1317.8</ele>
        <time>2021-04-17T14:38:48Z</time>
      </trkpt>
      <trkpt lat="46.07632" lon="6.12851">
        <ele>1317.8</ele>
        <time>2021-04-17T14:38:49Z</time>
      </trkpt>
      <trkpt lat="46.07634" lon="6.12853">
        <ele>1318</ele>
        <time>2021-04-17T14:38:50Z</time>
      </trkpt>
      <trkpt lat="46.07637" lon="6.12856">
        <ele>1318.2</ele>
        <time>2021-04-17T14:38:51Z</time>
      </trkpt>
      <trkpt lat="46.07639" lon="6.12858">
        <ele>1318.4</ele>
        <time>2021-04-17T14:38:52Z</time>
      </trkpt>
      <trkpt lat="46.07642" lon="6.1286">
        <ele>1318.4</ele>
        <time>2021-04-17T14:38:53Z</time>
      </trkpt>
      <trkpt lat="46.07644" lon="6.12862">
        <ele>1318.8</ele>
        <time>2021-04-17T14:38:54Z</time>
      </trkpt>
      <trkpt lat="46.07647" lon="6.12864">
        <ele>1319</ele>
        <time>2021-04-17T14:38:55Z</time>
      </trkpt>
      <trkpt lat="46.0765" lon="6.12866">
        <ele>1319.4</ele>
        <time>2021-04-17T14:38:56Z</time>
      </trkpt>
      <trkpt lat="46.07652" lon="6.12868">
        <ele>1319.6</ele>
        <time>2021-04-17T14:38:57Z</time>
      </trkpt>
      <trkpt lat="46.07655" lon="6.1287">
        <ele>1319.8</ele>
        <time>2021-04-17T14:38:58Z</time>
      </trkpt>
      <trkpt lat="46.07658" lon="6.12871">
        <ele>1320</ele>
        <time>2021-04-17T14:38:59Z</time>
      </trkpt>
      <trkpt lat="46.0766" lon="6.12873">
        <ele>1320.2</ele>
        <time>2021-04-17T14:39:00Z</time>
      </trkpt>
      <trkpt lat="46.07663" lon="6.12874">
        <ele>1320.4</ele>
        <time>2021-04-17T14:39:01Z</time>
      </trkpt>
      <trkpt lat="46.07666" lon="6.12876">
        <ele>1320.2</ele>
        <time>2021-04-17T14:39:02Z</time>
      </trkpt>
      <trkpt lat="46.07668" lon="6.12878">
        <ele>1320.4</ele>
        <time>2021-04-17T14:39:03Z</time>
      </trkpt>
      <trkpt lat="46.07671" lon="6.12879">
        <ele>1320.4</ele>
        <time>2021-04-17T14:39:04Z</time>
      </trkpt>
      <trkpt lat="46.07673" lon="6.12881">
        <ele>1320.6</ele>
        <time>2021-04-17T14:39:05Z</time>
      </trkpt>
      <trkpt lat="46.07676" lon="6.12882">
        <ele>1320.6</ele>
        <time>2021-04-17T14:39:06Z</time>
      </trkpt>
      <trkpt lat="46.07679" lon="6.12884">
        <ele>1321</ele>
        <time>2021-04-17T14:39:07Z</time>
      </trkpt>
      <trkpt lat="46.07681" lon="6.12885">
        <ele>1321.2</ele>
        <time>2021-04-17T14:39:08Z</time>
      </trkpt>
      <trkpt lat="46.07684" lon="6.12886">
        <ele>1321.2</ele>
        <time>2021-04-17T14:39:09Z</time>
      </trkpt>
      <trkpt lat="46.07687" lon="6.12887">
        <ele>1321.6</ele>
        <time>2021-04-17T14:39:10Z</time>
      </trkpt>
      <trkpt lat="46.07689" lon="6.12889">
        <ele>1321.6</ele>
        <time>2021-04-17T14:39:11Z</time>
      </trkpt>
      <trkpt lat="46.07692" lon="6.1289">
        <ele>1321.6</ele>
        <time>2021-04-17T14:39:12Z</time>
      </trkpt>
      <trkpt lat="46.07695" lon="6.1289">
        <ele>1321.8</ele>
        <time>2021-04-17T14:39:13Z</time>
      </trkpt>
      <trkpt lat="46.07698" lon="6.12891">
        <ele>1321.8</ele>
        <time>2021-04-17T14:39:14Z</time>
      </trkpt>
      <trkpt lat="46.07701" lon="6.12892">
        <ele>1322.2</ele>
        <time>2021-04-17T14:39:15Z</time>
      </trkpt>
      <trkpt lat="46.07703" lon="6.12892">
        <ele>1322.2</ele>
        <time>2021-04-17T14:39:16Z</time>
      </trkpt>
      <trkpt lat="46.07706" lon="6.12893">
        <ele>1322.6</ele>
        <time>2021-04-17T14:39:17Z</time>
      </trkpt>
      <trkpt lat="46.07709" lon="6.12893">
        <ele>1322.6</ele>
        <time>2021-04-17T14:39:18Z</time>
      </trkpt>
      <trkpt lat="46.07712" lon="6.12893">
        <ele>1322.8</ele>
        <time>2021-04-17T14:39:19Z</time>
      </trkpt>
      <trkpt lat="46.07715" lon="6.12893">
        <ele>1323.4</ele>
        <time>2021-04-17T14:39:20Z</time>
      </trkpt>
      <trkpt lat="46.07717" lon="6.12892">
        <ele>1323.8</ele>
        <time>2021-04-17T14:39:21Z</time>
      </trkpt>
      <trkpt lat="46.0772" lon="6.12891">
        <ele>1324.2</ele>
        <time>2021-04-17T14:39:22Z</time>
      </trkpt>
      <trkpt lat="46.07723" lon="6.1289">
        <ele>1324.6</ele>
        <time>2021-04-17T14:39:23Z</time>
      </trkpt>
      <trkpt lat="46.07726" lon="6.12889">
        <ele>1324.8</ele>
        <time>2021-04-17T14:39:24Z</time>
      </trkpt>
      <trkpt lat="46.07729" lon="6.12887">
        <ele>1325.2</ele>
        <time>2021-04-17T14:39:25Z</time>
      </trkpt>
      <trkpt lat="46.07731" lon="6.12886">
        <ele>1325.4</ele>
        <time>2021-04-17T14:39:26Z</time>
      </trkpt>
      <trkpt lat="46.07734" lon="6.12884">
        <ele>1325.6</ele>
        <time>2021-04-17T14:39:27Z</time>
      </trkpt>
      <trkpt lat="46.07736" lon="6.12882">
        <ele>1325.6</ele>
        <time>2021-04-17T14:39:28Z</time>
      </trkpt>
      <trkpt lat="46.07739" lon="6.1288">
        <ele>1325.6</ele>
        <time>2021-04-17T14:39:29Z</time>
      </trkpt>
      <trkpt lat="46.07742" lon="6.12877">
        <ele>1325.8</ele>
        <time>2021-04-17T14:39:30Z</time>
      </trkpt>
      <trkpt lat="46.07745" lon="6.12874">
        <ele>1325.8</ele>
        <time>2021-04-17T14:39:31Z</time>
      </trkpt>
      <trkpt lat="46.07747" lon="6.12872">
        <ele>1325.8</ele>
        <time>2021-04-17T14:39:32Z</time>
      </trkpt>
      <trkpt lat="46.0775" lon="6.12869">
        <ele>1326</ele>
        <time>2021-04-17T14:39:33Z</time>
      </trkpt>
      <trkpt lat="46.07752" lon="6.12866">
        <ele>1326.2</ele>
        <time>2021-04-17T14:39:34Z</time>
      </trkpt>
      <trkpt lat="46.07755" lon="6.12864">
        <ele>1326.4</ele>
        <time>2021-04-17T14:39:35Z</time>
      </trkpt>
      <trkpt lat="46.07757" lon="6.12861">
        <ele>1326</ele>
        <time>2021-04-17T14:39:36Z</time>
      </trkpt>
      <trkpt lat="46.07759" lon="6.12858">
        <ele>1326.2</ele>
        <time>2021-04-17T14:39:37Z</time>
      </trkpt>
      <trkpt lat="46.07761" lon="6.12855">
        <ele>1326.4</ele>
        <time>2021-04-17T14:39:38Z</time>
      </trkpt>
      <trkpt lat="46.07764" lon="6.12853">
        <ele>1326.4</ele>
        <time>2021-04-17T14:39:39Z</time>
      </trkpt>
      <trkpt lat="46.07766" lon="6.1285">
        <ele>1326.4</ele>
        <time>2021-04-17T14:39:40Z</time>
      </trkpt>
      <trkpt lat="46.07768" lon="6.12847">
        <ele>1326.8</ele>
        <time>2021-04-17T14:39:41Z</time>
      </trkpt>
      <trkpt lat="46.0777" lon="6.12844">
        <ele>1327</ele>
        <time>2021-04-17T14:39:42Z</time>
      </trkpt>
      <trkpt lat="46.07772" lon="6.12842">
        <ele>1327.2</ele>
        <time>2021-04-17T14:39:43Z</time>
      </trkpt>
      <trkpt lat="46.07775" lon="6.12839">
        <ele>1327.6</ele>
        <time>2021-04-17T14:39:44Z</time>
      </trkpt>
      <trkpt lat="46.07777" lon="6.12836">
        <ele>1328</ele>
        <time>2021-04-17T14:39:45Z</time>
      </trkpt>
      <trkpt lat="46.07779" lon="6.12833">
        <ele>1328.4</ele>
        <time>2021-04-17T14:39:46Z</time>
      </trkpt>
      <trkpt lat="46.07781" lon="6.1283">
        <ele>1328.6</ele>
        <time>2021-04-17T14:39:47Z</time>
      </trkpt>
      <trkpt lat="46.07784" lon="6.12828">
        <ele>1329</ele>
        <time>2021-04-17T14:39:48Z</time>
      </trkpt>
      <trkpt lat="46.07786" lon="6.12825">
        <ele>1329.2</ele>
        <time>2021-04-17T14:39:49Z</time>
      </trkpt>
      <trkpt lat="46.07788" lon="6.12822">
        <ele>1329.4</ele>
        <time>2021-04-17T14:39:50Z</time>
      </trkpt>
      <trkpt lat="46.0779" lon="6.12819">
        <ele>1329.6</ele>
        <time>2021-04-17T14:39:51Z</time>
      </trkpt>
      <trkpt lat="46.07793" lon="6.12816">
        <ele>1329.8</ele>
        <time>2021-04-17T14:39:52Z</time>
      </trkpt>
      <trkpt lat="46.07795" lon="6.12813">
        <ele>1329.8</ele>
        <time>2021-04-17T14:39:53Z</time>
      </trkpt>
      <trkpt lat="46.07797" lon="6.12811">
        <ele>1330</ele>
        <time>2021-04-17T14:39:54Z</time>
      </trkpt>
      <trkpt lat="46.07799" lon="6.12808">
        <ele>1330.2</ele>
        <time>2021-04-17T14:39:55Z</time>
      </trkpt>
      <trkpt lat="46.07801" lon="6.12805">
        <ele>1330.2</ele>
        <time>2021-04-17T14:39:56Z</time>
      </trkpt>
      <trkpt lat="46.07803" lon="6.12802">
        <ele>1330.4</ele>
        <time>2021-04-17T14:39:57Z</time>
      </trkpt>
      <trkpt lat="46.07805" lon="6.128">
        <ele>1330.6</ele>
        <time>2021-04-17T14:39:58Z</time>
      </trkpt>
      <trkpt lat="46.07807" lon="6.12797">
        <ele>1330.8</ele>
        <time>2021-04-17T14:39:59Z</time>
      </trkpt>
      <trkpt lat="46.07809" lon="6.12794">
        <ele>1331</ele>
        <time>2021-04-17T14:40:00Z</time>
      </trkpt>
      <trkpt lat="46.07811" lon="6.12791">
        <ele>1331.2</ele>
        <time>2021-04-17T14:40:01Z</time>
      </trkpt>
      <trkpt lat="46.07813" lon="6.12788">
        <ele>1331.2</ele>
        <time>2021-04-17T14:40:02Z</time>
      </trkpt>
      <trkpt lat="46.07814" lon="6.12785">
        <ele>1331.2</ele>
        <time>2021-04-17T14:40:03Z</time>
      </trkpt>
      <trkpt lat="46.07816" lon="6.12781">
        <ele>1331.4</ele>
        <time>2021-04-17T14:40:04Z</time>
      </trkpt>
      <trkpt lat="46.07818" lon="6.12778">
        <ele>1331.6</ele>
        <time>2021-04-17T14:40:05Z</time>
      </trkpt>
      <trkpt lat="46.07819" lon="6.12774">
        <ele>1331.8</ele>
        <time>2021-04-17T14:40:06Z</time>
      </trkpt>
      <trkpt lat="46.07821" lon="6.12771">
        <ele>1332</ele>
        <time>2021-04-17T14:40:07Z</time>
      </trkpt>
      <trkpt lat="46.07822" lon="6.12767">
        <ele>1332.4</ele>
        <time>2021-04-17T14:40:08Z</time>
      </trkpt>
      <trkpt lat="46.07824" lon="6.12764">
        <ele>1332.6</ele>
        <time>2021-04-17T14:40:09Z</time>
      </trkpt>
      <trkpt lat="46.07826" lon="6.1276">
        <ele>1332.8</ele>
        <time>2021-04-17T14:40:10Z</time>
      </trkpt>
      <trkpt lat="46.07828" lon="6.12756">
        <ele>1333</ele>
        <time>2021-04-17T14:40:11Z</time>
      </trkpt>
      <trkpt lat="46.07831" lon="6.12752">
        <ele>1333.2</ele>
        <time>2021-04-17T14:40:12Z</time>
      </trkpt>
      <trkpt lat="46.07832" lon="6.12749">
        <ele>1333.4</ele>
        <time>2021-04-17T14:40:13Z</time>
      </trkpt>
      <trkpt lat="46.07834" lon="6.12745">
        <ele>1333.6</ele>
        <time>2021-04-17T14:40:14Z</time>
      </trkpt>
      <trkpt lat="46.07836" lon="6.12741">
        <ele>1333.8</ele>
        <time>2021-04-17T14:40:15Z</time>
      </trkpt>
      <trkpt lat="46.07838" lon="6.12737">
        <ele>1333.8</ele>
        <time>2021-04-17T14:40:16Z</time>
      </trkpt>
      <trkpt lat="46.07841" lon="6.12732">
        <ele>1334</ele>
        <time>2021-04-17T14:40:17Z</time>
      </trkpt>
      <trkpt lat="46.07843" lon="6.12727">
        <ele>1334.2</ele>
        <time>2021-04-17T14:40:18Z</time>
      </trkpt>
      <trkpt lat="46.07846" lon="6.12722">
        <ele>1334.4</ele>
        <time>2021-04-17T14:40:19Z</time>
      </trkpt>
      <trkpt lat="46.07849" lon="6.12717">
        <ele>1334.4</ele>
        <time>2021-04-17T14:40:20Z</time>
      </trkpt>
      <trkpt lat="46.07852" lon="6.12712">
        <ele>1334.6</ele>
        <time>2021-04-17T14:40:21Z</time>
      </trkpt>
      <trkpt lat="46.07855" lon="6.12708">
        <ele>1334.6</ele>
        <time>2021-04-17T14:40:22Z</time>
      </trkpt>
      <trkpt lat="46.07858" lon="6.12703">
        <ele>1334.8</ele>
        <time>2021-04-17T14:40:23Z</time>
      </trkpt>
      <trkpt lat="46.07861" lon="6.12699">
        <ele>1334.8</ele>
        <time>2021-04-17T14:40:24Z</time>
      </trkpt>
      <trkpt lat="46.07864" lon="6.12695">
        <ele>1334.8</ele>
        <time>2021-04-17T14:40:25Z</time>
      </trkpt>
      <trkpt lat="46.07867" lon="6.12691">
        <ele>1334.8</ele>
        <time>2021-04-17T14:40:26Z</time>
      </trkpt>
      <trkpt lat="46.0787" lon="6.12688">
        <ele>1334.8</ele>
        <time>2021-04-17T14:40:27Z</time>
      </trkpt>
      <trkpt lat="46.07873" lon="6.12684">
        <ele>1334.8</ele>
        <time>2021-04-17T14:40:28Z</time>
      </trkpt>
      <trkpt lat="46.07877" lon="6.12681">
        <ele>1335</ele>
        <time>2021-04-17T14:40:29Z</time>
      </trkpt>
      <trkpt lat="46.0788" lon="6.12678">
        <ele>1335</ele>
        <time>2021-04-17T14:40:30Z</time>
      </trkpt>
      <trkpt lat="46.07884" lon="6.12675">
        <ele>1335.2</ele>
        <time>2021-04-17T14:40:31Z</time>
      </trkpt>
      <trkpt lat="46.07888" lon="6.12672">
        <ele>1335.2</ele>
        <time>2021-04-17T14:40:32Z</time>
      </trkpt>
      <trkpt lat="46.07891" lon="6.12669">
        <ele>1335.4</ele>
        <time>2021-04-17T14:40:33Z</time>
      </trkpt>
      <trkpt lat="46.07895" lon="6.12667">
        <ele>1335.2</ele>
        <time>2021-04-17T14:40:34Z</time>
      </trkpt>
      <trkpt lat="46.07899" lon="6.12664">
        <ele>1335.4</ele>
        <time>2021-04-17T14:40:35Z</time>
      </trkpt>
      <trkpt lat="46.07903" lon="6.12662">
        <ele>1335.4</ele>
        <time>2021-04-17T14:40:36Z</time>
      </trkpt>
      <trkpt lat="46.07907" lon="6.12659">
        <ele>1335.4</ele>
        <time>2021-04-17T14:40:37Z</time>
      </trkpt>
      <trkpt lat="46.07911" lon="6.12656">
        <ele>1335.4</ele>
        <time>2021-04-17T14:40:38Z</time>
      </trkpt>
      <trkpt lat="46.07915" lon="6.12653">
        <ele>1335.6</ele>
        <time>2021-04-17T14:40:39Z</time>
      </trkpt>
      <trkpt lat="46.07918" lon="6.12651">
        <ele>1335.8</ele>
        <time>2021-04-17T14:40:40Z</time>
      </trkpt>
      <trkpt lat="46.07922" lon="6.12649">
        <ele>1335.8</ele>
        <time>2021-04-17T14:40:41Z</time>
      </trkpt>
      <trkpt lat="46.07925" lon="6.12646">
        <ele>1336</ele>
        <time>2021-04-17T14:40:42Z</time>
      </trkpt>
      <trkpt lat="46.07928" lon="6.12644">
        <ele>1336</ele>
        <time>2021-04-17T14:40:43Z</time>
      </trkpt>
      <trkpt lat="46.07931" lon="6.12643">
        <ele>1336.2</ele>
        <time>2021-04-17T14:40:44Z</time>
      </trkpt>
      <trkpt lat="46.07932" lon="6.12642">
        <ele>1336</ele>
        <time>2021-04-17T14:40:45Z</time>
      </trkpt>
      <trkpt lat="46.07934" lon="6.12642">
        <ele>1336.2</ele>
        <time>2021-04-17T14:40:46Z</time>
      </trkpt>
      <trkpt lat="46.07934" lon="6.12641">
        <ele>1336.4</ele>
        <time>2021-04-17T14:40:47Z</time>
      </trkpt>
      <trkpt lat="46.07934" lon="6.12641">
        <ele>1336.4</ele>
        <time>2021-04-17T14:40:48Z</time>
      </trkpt>
      <trkpt lat="46.07934" lon="6.12642">
        <ele>1336.6</ele>
        <time>2021-04-17T14:40:49Z</time>
      </trkpt>
      <trkpt lat="46.07935" lon="6.12642">
        <ele>1336.8</ele>
        <time>2021-04-17T14:40:50Z</time>
      </trkpt>
      <trkpt lat="46.07936" lon="6.12642">
        <ele>1337</ele>
        <time>2021-04-17T14:40:51Z</time>
      </trkpt>
      <trkpt lat="46.07936" lon="6.12641">
        <ele>1337</ele>
        <time>2021-04-17T14:40:52Z</time>
      </trkpt>
      <trkpt lat="46.07937" lon="6.12641">
        <ele>1337.2</ele>
        <time>2021-04-17T14:40:53Z</time>
      </trkpt>
      <trkpt lat="46.07937" lon="6.12641">
        <ele>1337.2</ele>
        <time>2021-04-17T14:40:54Z</time>
      </trkpt>
      <trkpt lat="46.07937" lon="6.1264">
        <ele>1337.2</ele>
        <time>2021-04-17T14:40:55Z</time>
      </trkpt>
      <trkpt lat="46.07937" lon="6.1264">
        <ele>1337.4</ele>
        <time>2021-04-17T14:40:56Z</time>
      </trkpt>
      <trkpt lat="46.07937" lon="6.1264">
        <ele>1337.2</ele>
        <time>2021-04-17T14:40:57Z</time>
      </trkpt>
      <trkpt lat="46.07937" lon="6.1264">
        <ele>1337.4</ele>
        <time>2021-04-17T14:40:58Z</time>
      </trkpt>
      <trkpt lat="46.07937" lon="6.1264">
        <ele>1337.4</ele>
        <time>2021-04-17T14:40:59Z</time>
      </trkpt>
      <trkpt lat="46.07937" lon="6.1264">
        <ele>1337.4</ele>
        <time>2021-04-17T14:41:00Z</time>
      </trkpt>
      <trkpt lat="46.07937" lon="6.1264">
        <ele>1337.4</ele>
        <time>2021-04-17T14:41:01Z</time>
      </trkpt>
      <trkpt lat="46.07937" lon="6.1264">
        <ele>1337.4</ele>
        <time>2021-04-17T14:41:02Z</time>
      </trkpt>
      <trkpt lat="46.07937" lon="6.1264">
        <ele>1337.4</ele>
        <time>2021-04-17T14:41:03Z</time>
      </trkpt>
      <trkpt lat="46.07937" lon="6.1264">
        <ele>1337.6</ele>
        <time>2021-04-17T14:41:04Z</time>
      </trkpt>
      <trkpt lat="46.07937" lon="6.1264">
        <ele>1337.4</ele>
        <time>2021-04-17T14:41:05Z</time>
      </trkpt>
      <trkpt lat="46.07937" lon="6.1264">
        <ele>1337.4</ele>
        <time>2021-04-17T14:41:06Z</time>
      </trkpt>
      <trkpt lat="46.07937" lon="6.1264">
        <ele>1337.4</ele>
        <time>2021-04-17T14:41:07Z</time>
      </trkpt>
      <trkpt lat="46.07937" lon="6.1264">
        <ele>1337.4</ele>
        <time>2021-04-17T14:41:08Z</time>
      </trkpt>
      <trkpt lat="46.07937" lon="6.1264">
        <ele>1337.6</ele>
        <time>2021-04-17T14:41:09Z</time>
      </trkpt>
      <trkpt lat="46.07937" lon="6.1264">
        <ele>1337.4</ele>
        <time>2021-04-17T14:41:10Z</time>
      </trkpt>
      <trkpt lat="46.07936" lon="6.1264">
        <ele>1337.4</ele>
        <time>2021-04-17T14:41:11Z</time>
      </trkpt>
      <trkpt lat="46.07936" lon="6.1264">
        <ele>1337.4</ele>
        <time>2021-04-17T14:41:12Z</time>
      </trkpt>
      <trkpt lat="46.07936" lon="6.1264">
        <ele>1337.4</ele>
        <time>2021-04-17T14:41:13Z</time>
      </trkpt>
      <trkpt lat="46.07936" lon="6.1264">
        <ele>1337.4</ele>
        <time>2021-04-17T14:41:14Z</time>
      </trkpt>
      <trkpt lat="46.07936" lon="6.1264">
        <ele>1337.4</ele>
        <time>2021-04-17T14:41:15Z</time>
      </trkpt>
      <trkpt lat="46.07936" lon="6.1264">
        <ele>1337.4</ele>
        <time>2021-04-17T14:41:16Z</time>
      </trkpt>
      <trkpt lat="46.07936" lon="6.1264">
        <ele>1337.4</ele>
        <time>2021-04-17T14:41:17Z</time>
      </trkpt>
      <trkpt lat="46.07936" lon="6.1264">
        <ele>1337.4</ele>
        <time>2021-04-17T14:41:18Z</time>
      </trkpt>
      <trkpt lat="46.07936" lon="6.1264">
        <ele>1337.4</ele>
        <time>2021-04-17T14:41:19Z</time>
      </trkpt>
      <trkpt lat="46.07936" lon="6.1264">
        <ele>1337.4</ele>
        <time>2021-04-17T14:41:20Z</time>
      </trkpt>
      <trkpt lat="46.07936" lon="6.1264">
        <ele>1337.4</ele>
        <time>2021-04-17T14:41:21Z</time>
      </trkpt>
      <trkpt lat="46.07936" lon="6.1264">
        <ele>1337.4</ele>
        <time>2021-04-17T14:41:22Z</time>
      </trkpt>
      <trkpt lat="46.07936" lon="6.1264">
        <ele>1337.2</ele>
        <time>2021-04-17T14:41:23Z</time>
      </trkpt>
      <trkpt lat="46.07936" lon="6.1264">
        <ele>1337.2</ele>
        <time>2021-04-17T14:41:24Z</time>
      </trkpt>
      <trkpt lat="46.07936" lon="6.1264">
        <ele>1337.2</ele>
        <time>2021-04-17T14:41:25Z</time>
      </trkpt>
      <trkpt lat="46.07936" lon="6.12641">
        <ele>1337.2</ele>
        <time>2021-04-17T14:41:26Z</time>
      </trkpt>
      <trkpt lat="46.07936" lon="6.12641">
        <ele>1337.2</ele>
        <time>2021-04-17T14:41:27Z</time>
      </trkpt>
      <trkpt lat="46.07936" lon="6.12641">
        <ele>1337.2</ele>
        <time>2021-04-17T14:41:28Z</time>
      </trkpt>
      <trkpt lat="46.07936" lon="6.12641">
        <ele>1337.2</ele>
        <time>2021-04-17T14:41:29Z</time>
      </trkpt>
      <trkpt lat="46.07936" lon="6.12641">
        <ele>1337</ele>
        <time>2021-04-17T14:41:30Z</time>
      </trkpt>
      <trkpt lat="46.07936" lon="6.12641">
        <ele>1337</ele>
        <time>2021-04-17T14:41:31Z</time>
      </trkpt>
      <trkpt lat="46.07936" lon="6.12641">
        <ele>1337.2</ele>
        <time>2021-04-17T14:41:32Z</time>
      </trkpt>
      <trkpt lat="46.07936" lon="6.12641">
        <ele>1337.2</ele>
        <time>2021-04-17T14:41:33Z</time>
      </trkpt>
      <trkpt lat="46.07936" lon="6.12641">
        <ele>1337.2</ele>
        <time>2021-04-17T14:41:34Z</time>
      </trkpt>
      <trkpt lat="46.07936" lon="6.12641">
        <ele>1337</ele>
        <time>2021-04-17T14:41:35Z</time>
      </trkpt>
      <trkpt lat="46.07936" lon="6.12641">
        <ele>1337.2</ele>
        <time>2021-04-17T14:41:36Z</time>
      </trkpt>
      <trkpt lat="46.07936" lon="6.12641">
        <ele>1337.2</ele>
        <time>2021-04-17T14:41:37Z</time>
      </trkpt>
      <trkpt lat="46.07936" lon="6.12641">
        <ele>1337.2</ele>
        <time>2021-04-17T14:41:38Z</time>
      </trkpt>
      <trkpt lat="46.07936" lon="6.12641">
        <ele>1337.2</ele>
        <time>2021-04-17T14:41:39Z</time>
      </trkpt>
      <trkpt lat="46.07936" lon="6.12641">
        <ele>1337.2</ele>
        <time>2021-04-17T14:41:40Z</time>
      </trkpt>
      <trkpt lat="46.07936" lon="6.12641">
        <ele>1337.2</ele>
        <time>2021-04-17T14:41:41Z</time>
      </trkpt>
      <trkpt lat="46.07936" lon="6.12641">
        <ele>1337.4</ele>
        <time>2021-04-17T14:41:42Z</time>
      </trkpt>
      <trkpt lat="46.07936" lon="6.12641">
        <ele>1337.2</ele>
        <time>2021-04-17T14:41:43Z</time>
      </trkpt>
      <trkpt lat="46.07936" lon="6.1264">
        <ele>1337.2</ele>
        <time>2021-04-17T14:41:44Z</time>
      </trkpt>
      <trkpt lat="46.07936" lon="6.1264">
        <ele>1337.2</ele>
        <time>2021-04-17T14:41:45Z</time>
      </trkpt>
      <trkpt lat="46.07936" lon="6.1264">
        <ele>1337.2</ele>
        <time>2021-04-17T14:41:46Z</time>
      </trkpt>
      <trkpt lat="46.07936" lon="6.1264">
        <ele>1337.2</ele>
        <time>2021-04-17T14:41:47Z</time>
      </trkpt>
      <trkpt lat="46.07936" lon="6.1264">
        <ele>1337.2</ele>
        <time>2021-04-17T14:41:48Z</time>
      </trkpt>
      <trkpt lat="46.07935" lon="6.1264">
        <ele>1337.2</ele>
        <time>2021-04-17T14:41:49Z</time>
      </trkpt>
      <trkpt lat="46.07935" lon="6.1264">
        <ele>1337.2</ele>
        <time>2021-04-17T14:41:50Z</time>
      </trkpt>
      <trkpt lat="46.07935" lon="6.1264">
        <ele>1337.2</ele>
        <time>2021-04-17T14:41:51Z</time>
      </trkpt>
      <trkpt lat="46.07935" lon="6.1264">
        <ele>1337.2</ele>
        <time>2021-04-17T14:41:52Z</time>
      </trkpt>
      <trkpt lat="46.07935" lon="6.1264">
        <ele>1337</ele>
        <time>2021-04-17T14:41:53Z</time>
      </trkpt>
      <trkpt lat="46.07934" lon="6.1264">
        <ele>1337</ele>
        <time>2021-04-17T14:41:54Z</time>
      </trkpt>
      <trkpt lat="46.07934" lon="6.1264">
        <ele>1337.2</ele>
        <time>2021-04-17T14:41:55Z</time>
      </trkpt>
      <trkpt lat="46.07934" lon="6.1264">
        <ele>1337.2</ele>
        <time>2021-04-17T14:41:56Z</time>
      </trkpt>
      <trkpt lat="46.07934" lon="6.1264">
        <ele>1337.2</ele>
        <time>2021-04-17T14:41:57Z</time>
      </trkpt>
      <trkpt lat="46.07933" lon="6.1264">
        <ele>1337.2</ele>
        <time>2021-04-17T14:41:58Z</time>
      </trkpt>
      <trkpt lat="46.07933" lon="6.1264">
        <ele>1337</ele>
        <time>2021-04-17T14:41:59Z</time>
      </trkpt>
      <trkpt lat="46.07933" lon="6.12639">
        <ele>1337.2</ele>
        <time>2021-04-17T14:42:00Z</time>
      </trkpt>
      <trkpt lat="46.07933" lon="6.12639">
        <ele>1337.2</ele>
        <time>2021-04-17T14:42:01Z</time>
      </trkpt>
      <trkpt lat="46.07933" lon="6.12639">
        <ele>1337.2</ele>
        <time>2021-04-17T14:42:02Z</time>
      </trkpt>
      <trkpt lat="46.07933" lon="6.12639">
        <ele>1337.2</ele>
        <time>2021-04-17T14:42:03Z</time>
      </trkpt>
      <trkpt lat="46.07933" lon="6.12639">
        <ele>1337.2</ele>
        <time>2021-04-17T14:42:04Z</time>
      </trkpt>
      <trkpt lat="46.07933" lon="6.12639">
        <ele>1337.2</ele>
        <time>2021-04-17T14:42:05Z</time>
      </trkpt>
      <trkpt lat="46.07933" lon="6.12639">
        <ele>1337.2</ele>
        <time>2021-04-17T14:42:06Z</time>
      </trkpt>
      <trkpt lat="46.07933" lon="6.12639">
        <ele>1337</ele>
        <time>2021-04-17T14:42:07Z</time>
      </trkpt>
      <trkpt lat="46.07933" lon="6.1264">
        <ele>1337</ele>
        <time>2021-04-17T14:42:08Z</time>
      </trkpt>
      <trkpt lat="46.07933" lon="6.1264">
        <ele>1337.2</ele>
        <time>2021-04-17T14:42:09Z</time>
      </trkpt>
      <trkpt lat="46.07933" lon="6.1264">
        <ele>1337</ele>
        <time>2021-04-17T14:42:10Z</time>
      </trkpt>
      <trkpt lat="46.07933" lon="6.1264">
        <ele>1337.2</ele>
        <time>2021-04-17T14:42:11Z</time>
      </trkpt>
      <trkpt lat="46.07933" lon="6.1264">
        <ele>1337.2</ele>
        <time>2021-04-17T14:42:12Z</time>
      </trkpt>
      <trkpt lat="46.07933" lon="6.1264">
        <ele>1337</ele>
        <time>2021-04-17T14:42:13Z</time>
      </trkpt>
      <trkpt lat="46.07933" lon="6.1264">
        <ele>1337</ele>
        <time>2021-04-17T14:42:14Z</time>
      </trkpt>
      <trkpt lat="46.07933" lon="6.1264">
        <ele>1337.2</ele>
        <time>2021-04-17T14:42:15Z</time>
      </trkpt>
      <trkpt lat="46.07933" lon="6.1264">
        <ele>1337</ele>
        <time>2021-04-17T14:42:16Z</time>
      </trkpt>
      <trkpt lat="46.07933" lon="6.1264">
        <ele>1337</ele>
        <time>2021-04-17T14:42:17Z</time>
      </trkpt>
      <trkpt lat="46.07933" lon="6.1264">
        <ele>1337</ele>
        <time>2021-04-17T14:42:18Z</time>
      </trkpt>
      <trkpt lat="46.07933" lon="6.1264">
        <ele>1337.2</ele>
        <time>2021-04-17T14:42:19Z</time>
      </trkpt>
      <trkpt lat="46.07933" lon="6.1264">
        <ele>1337</ele>
        <time>2021-04-17T14:42:20Z</time>
      </trkpt>
      <trkpt lat="46.07933" lon="6.1264">
        <ele>1337.2</ele>
        <time>2021-04-17T14:42:21Z</time>
      </trkpt>
      <trkpt lat="46.07933" lon="6.1264">
        <ele>1337.2</ele>
        <time>2021-04-17T14:42:22Z</time>
      </trkpt>
      <trkpt lat="46.07933" lon="6.12641">
        <ele>1337</ele>
        <time>2021-04-17T14:42:23Z</time>
      </trkpt>
      <trkpt lat="46.07933" lon="6.12641">
        <ele>1337</ele>
        <time>2021-04-17T14:42:24Z</time>
      </trkpt>
      <trkpt lat="46.07933" lon="6.12641">
        <ele>1337</ele>
        <time>2021-04-17T14:42:25Z</time>
      </trkpt>
      <trkpt lat="46.07933" lon="6.12641">
        <ele>1337.2</ele>
        <time>2021-04-17T14:42:26Z</time>
      </trkpt>
      <trkpt lat="46.07933" lon="6.12641">
        <ele>1337</ele>
        <time>2021-04-17T14:42:27Z</time>
      </trkpt>
      <trkpt lat="46.07933" lon="6.1264">
        <ele>1337</ele>
        <time>2021-04-17T14:42:28Z</time>
      </trkpt>
      <trkpt lat="46.07932" lon="6.1264">
        <ele>1337.2</ele>
        <time>2021-04-17T14:42:29Z</time>
      </trkpt>
      <trkpt lat="46.07933" lon="6.12639">
        <ele>1337.2</ele>
        <time>2021-04-17T14:42:30Z</time>
      </trkpt>
      <trkpt lat="46.07933" lon="6.12639">
        <ele>1337.2</ele>
        <time>2021-04-17T14:42:31Z</time>
      </trkpt>
      <trkpt lat="46.07933" lon="6.12638">
        <ele>1337.4</ele>
        <time>2021-04-17T14:42:32Z</time>
      </trkpt>
      <trkpt lat="46.07933" lon="6.12638">
        <ele>1337.2</ele>
        <time>2021-04-17T14:42:33Z</time>
      </trkpt>
      <trkpt lat="46.07933" lon="6.12638">
        <ele>1337.4</ele>
        <time>2021-04-17T14:42:34Z</time>
      </trkpt>
      <trkpt lat="46.07934" lon="6.12638">
        <ele>1337.4</ele>
        <time>2021-04-17T14:42:35Z</time>
      </trkpt>
      <trkpt lat="46.07935" lon="6.12637">
        <ele>1337.6</ele>
        <time>2021-04-17T14:42:36Z</time>
      </trkpt>
      <trkpt lat="46.07936" lon="6.12636">
        <ele>1337.4</ele>
        <time>2021-04-17T14:42:37Z</time>
      </trkpt>
      <trkpt lat="46.07938" lon="6.12635">
        <ele>1337.8</ele>
        <time>2021-04-17T14:42:38Z</time>
      </trkpt>
      <trkpt lat="46.0794" lon="6.12633">
        <ele>1337.6</ele>
        <time>2021-04-17T14:42:39Z</time>
      </trkpt>
      <trkpt lat="46.07942" lon="6.12632">
        <ele>1337.6</ele>
        <time>2021-04-17T14:42:40Z</time>
      </trkpt>
      <trkpt lat="46.07945" lon="6.12631">
        <ele>1337.8</ele>
        <time>2021-04-17T14:42:41Z</time>
      </trkpt>
      <trkpt lat="46.07948" lon="6.12629">
        <ele>1337.6</ele>
        <time>2021-04-17T14:42:42Z</time>
      </trkpt>
      <trkpt lat="46.07951" lon="6.12627">
        <ele>1337.8</ele>
        <time>2021-04-17T14:42:43Z</time>
      </trkpt>
      <trkpt lat="46.07955" lon="6.12625">
        <ele>1337.6</ele>
        <time>2021-04-17T14:42:44Z</time>
      </trkpt>
      <trkpt lat="46.07959" lon="6.12623">
        <ele>1337.6</ele>
        <time>2021-04-17T14:42:45Z</time>
      </trkpt>
      <trkpt lat="46.07962" lon="6.1262">
        <ele>1337.8</ele>
        <time>2021-04-17T14:42:46Z</time>
      </trkpt>
      <trkpt lat="46.07966" lon="6.12618">
        <ele>1337.8</ele>
        <time>2021-04-17T14:42:47Z</time>
      </trkpt>
      <trkpt lat="46.07971" lon="6.12616">
        <ele>1337.6</ele>
        <time>2021-04-17T14:42:48Z</time>
      </trkpt>
      <trkpt lat="46.07975" lon="6.12613">
        <ele>1337.4</ele>
        <time>2021-04-17T14:42:49Z</time>
      </trkpt>
      <trkpt lat="46.0798" lon="6.12611">
        <ele>1337.2</ele>
        <time>2021-04-17T14:42:50Z</time>
      </trkpt>
      <trkpt lat="46.07984" lon="6.12608">
        <ele>1337.2</ele>
        <time>2021-04-17T14:42:51Z</time>
      </trkpt>
      <trkpt lat="46.07989" lon="6.12606">
        <ele>1337.2</ele>
        <time>2021-04-17T14:42:52Z</time>
      </trkpt>
      <trkpt lat="46.07994" lon="6.12603">
        <ele>1337</ele>
        <time>2021-04-17T14:42:53Z</time>
      </trkpt>
      <trkpt lat="46.07999" lon="6.12601">
        <ele>1337</ele>
        <time>2021-04-17T14:42:54Z</time>
      </trkpt>
      <trkpt lat="46.08004" lon="6.12598">
        <ele>1337.2</ele>
        <time>2021-04-17T14:42:55Z</time>
      </trkpt>
      <trkpt lat="46.08009" lon="6.12595">
        <ele>1337</ele>
        <time>2021-04-17T14:42:56Z</time>
      </trkpt>
      <trkpt lat="46.08013" lon="6.1259">
        <ele>1336.8</ele>
        <time>2021-04-17T14:42:57Z</time>
      </trkpt>
      <trkpt lat="46.08017" lon="6.12585">
        <ele>1336.8</ele>
        <time>2021-04-17T14:42:58Z</time>
      </trkpt>
      <trkpt lat="46.08021" lon="6.12579">
        <ele>1336.8</ele>
        <time>2021-04-17T14:42:59Z</time>
      </trkpt>
      <trkpt lat="46.08026" lon="6.12573">
        <ele>1336.8</ele>
        <time>2021-04-17T14:43:00Z</time>
      </trkpt>
      <trkpt lat="46.0803" lon="6.12568">
        <ele>1336.6</ele>
        <time>2021-04-17T14:43:01Z</time>
      </trkpt>
      <trkpt lat="46.08034" lon="6.12562">
        <ele>1336.6</ele>
        <time>2021-04-17T14:43:02Z</time>
      </trkpt>
      <trkpt lat="46.08039" lon="6.12556">
        <ele>1336.4</ele>
        <time>2021-04-17T14:43:03Z</time>
      </trkpt>
      <trkpt lat="46.08043" lon="6.12549">
        <ele>1336.2</ele>
        <time>2021-04-17T14:43:04Z</time>
      </trkpt>
      <trkpt lat="46.08047" lon="6.12541">
        <ele>1336.4</ele>
        <time>2021-04-17T14:43:05Z</time>
      </trkpt>
      <trkpt lat="46.08051" lon="6.12531">
        <ele>1336.4</ele>
        <time>2021-04-17T14:43:06Z</time>
      </trkpt>
      <trkpt lat="46.08054" lon="6.1252">
        <ele>1336.2</ele>
        <time>2021-04-17T14:43:07Z</time>
      </trkpt>
      <trkpt lat="46.08057" lon="6.1251">
        <ele>1336.2</ele>
        <time>2021-04-17T14:43:08Z</time>
      </trkpt>
      <trkpt lat="46.08062" lon="6.125">
        <ele>1336.2</ele>
        <time>2021-04-17T14:43:09Z</time>
      </trkpt>
      <trkpt lat="46.08068" lon="6.12493">
        <ele>1336.2</ele>
        <time>2021-04-17T14:43:10Z</time>
      </trkpt>
      <trkpt lat="46.08076" lon="6.1249">
        <ele>1336</ele>
        <time>2021-04-17T14:43:11Z</time>
      </trkpt>
      <trkpt lat="46.08084" lon="6.12491">
        <ele>1336</ele>
        <time>2021-04-17T14:43:12Z</time>
      </trkpt>
      <trkpt lat="46.08091" lon="6.12493">
        <ele>1335.4</ele>
        <time>2021-04-17T14:43:13Z</time>
      </trkpt>
      <trkpt lat="46.08099" lon="6.12498">
        <ele>1335</ele>
        <time>2021-04-17T14:43:14Z</time>
      </trkpt>
      <trkpt lat="46.08106" lon="6.12503">
        <ele>1334.6</ele>
        <time>2021-04-17T14:43:15Z</time>
      </trkpt>
      <trkpt lat="46.08113" lon="6.12509">
        <ele>1334.2</ele>
        <time>2021-04-17T14:43:16Z</time>
      </trkpt>
      <trkpt lat="46.0812" lon="6.12514">
        <ele>1333.6</ele>
        <time>2021-04-17T14:43:17Z</time>
      </trkpt>
      <trkpt lat="46.08126" lon="6.12519">
        <ele>1332.8</ele>
        <time>2021-04-17T14:43:18Z</time>
      </trkpt>
      <trkpt lat="46.08133" lon="6.12523">
        <ele>1331.4</ele>
        <time>2021-04-17T14:43:19Z</time>
      </trkpt>
      <trkpt lat="46.08139" lon="6.12528">
        <ele>1330.4</ele>
        <time>2021-04-17T14:43:20Z</time>
      </trkpt>
      <trkpt lat="46.08144" lon="6.12532">
        <ele>1329.8</ele>
        <time>2021-04-17T14:43:21Z</time>
      </trkpt>
      <trkpt lat="46.08149" lon="6.12537">
        <ele>1329.4</ele>
        <time>2021-04-17T14:43:22Z</time>
      </trkpt>
      <trkpt lat="46.08154" lon="6.12543">
        <ele>1329.2</ele>
        <time>2021-04-17T14:43:23Z</time>
      </trkpt>
      <trkpt lat="46.08158" lon="6.12551">
        <ele>1328.8</ele>
        <time>2021-04-17T14:43:24Z</time>
      </trkpt>
      <trkpt lat="46.08162" lon="6.1256">
        <ele>1328.6</ele>
        <time>2021-04-17T14:43:25Z</time>
      </trkpt>
      <trkpt lat="46.08165" lon="6.12568">
        <ele>1328.4</ele>
        <time>2021-04-17T14:43:26Z</time>
      </trkpt>
      <trkpt lat="46.08169" lon="6.12577">
        <ele>1328.4</ele>
        <time>2021-04-17T14:43:27Z</time>
      </trkpt>
      <trkpt lat="46.08173" lon="6.12586">
        <ele>1328.4</ele>
        <time>2021-04-17T14:43:28Z</time>
      </trkpt>
      <trkpt lat="46.08176" lon="6.12595">
        <ele>1328.4</ele>
        <time>2021-04-17T14:43:29Z</time>
      </trkpt>
      <trkpt lat="46.08179" lon="6.12603">
        <ele>1328.4</ele>
        <time>2021-04-17T14:43:30Z</time>
      </trkpt>
      <trkpt lat="46.08181" lon="6.12611">
        <ele>1328.4</ele>
        <time>2021-04-17T14:43:31Z</time>
      </trkpt>
      <trkpt lat="46.08184" lon="6.12619">
        <ele>1328.4</ele>
        <time>2021-04-17T14:43:32Z</time>
      </trkpt>
      <trkpt lat="46.08187" lon="6.12627">
        <ele>1328.6</ele>
        <time>2021-04-17T14:43:33Z</time>
      </trkpt>
      <trkpt lat="46.08189" lon="6.12634">
        <ele>1328.8</ele>
        <time>2021-04-17T14:43:34Z</time>
      </trkpt>
      <trkpt lat="46.08191" lon="6.1264">
        <ele>1329</ele>
        <time>2021-04-17T14:43:35Z</time>
      </trkpt>
      <trkpt lat="46.08192" lon="6.12646">
        <ele>1329</ele>
        <time>2021-04-17T14:43:36Z</time>
      </trkpt>
      <trkpt lat="46.08193" lon="6.12652">
        <ele>1329.4</ele>
        <time>2021-04-17T14:43:37Z</time>
      </trkpt>
      <trkpt lat="46.08194" lon="6.12658">
        <ele>1329.6</ele>
        <time>2021-04-17T14:43:38Z</time>
      </trkpt>
      <trkpt lat="46.08196" lon="6.12663">
        <ele>1330</ele>
        <time>2021-04-17T14:43:39Z</time>
      </trkpt>
      <trkpt lat="46.08199" lon="6.12667">
        <ele>1330.2</ele>
        <time>2021-04-17T14:43:40Z</time>
      </trkpt>
      <trkpt lat="46.08202" lon="6.1267">
        <ele>1330.4</ele>
        <time>2021-04-17T14:43:41Z</time>
      </trkpt>
      <trkpt lat="46.08206" lon="6.12673">
        <ele>1330.8</ele>
        <time>2021-04-17T14:43:42Z</time>
      </trkpt>
      <trkpt lat="46.0821" lon="6.12676">
        <ele>1331.2</ele>
        <time>2021-04-17T14:43:43Z</time>
      </trkpt>
      <trkpt lat="46.08215" lon="6.12678">
        <ele>1331.6</ele>
        <time>2021-04-17T14:43:44Z</time>
      </trkpt>
      <trkpt lat="46.08219" lon="6.12681">
        <ele>1332.4</ele>
        <time>2021-04-17T14:43:45Z</time>
      </trkpt>
      <trkpt lat="46.08224" lon="6.12683">
        <ele>1333.2</ele>
        <time>2021-04-17T14:43:46Z</time>
      </trkpt>
      <trkpt lat="46.08228" lon="6.12685">
        <ele>1333.6</ele>
        <time>2021-04-17T14:43:47Z</time>
      </trkpt>
      <trkpt lat="46.08231" lon="6.12687">
        <ele>1334</ele>
        <time>2021-04-17T14:43:48Z</time>
      </trkpt>
      <trkpt lat="46.08235" lon="6.1269">
        <ele>1334.2</ele>
        <time>2021-04-17T14:43:49Z</time>
      </trkpt>
      <trkpt lat="46.08238" lon="6.12693">
        <ele>1334.4</ele>
        <time>2021-04-17T14:43:50Z</time>
      </trkpt>
      <trkpt lat="46.08241" lon="6.12696">
        <ele>1334.4</ele>
        <time>2021-04-17T14:43:51Z</time>
      </trkpt>
      <trkpt lat="46.08244" lon="6.12699">
        <ele>1334.4</ele>
        <time>2021-04-17T14:43:52Z</time>
      </trkpt>
      <trkpt lat="46.08248" lon="6.12702">
        <ele>1334.6</ele>
        <time>2021-04-17T14:43:53Z</time>
      </trkpt>
      <trkpt lat="46.08251" lon="6.12705">
        <ele>1334.8</ele>
        <time>2021-04-17T14:43:54Z</time>
      </trkpt>
      <trkpt lat="46.08254" lon="6.12708">
        <ele>1334.8</ele>
        <time>2021-04-17T14:43:55Z</time>
      </trkpt>
      <trkpt lat="46.08256" lon="6.12711">
        <ele>1335.2</ele>
        <time>2021-04-17T14:43:56Z</time>
      </trkpt>
      <trkpt lat="46.08258" lon="6.12713">
        <ele>1335.4</ele>
        <time>2021-04-17T14:43:57Z</time>
      </trkpt>
      <trkpt lat="46.0826" lon="6.12715">
        <ele>1335.6</ele>
        <time>2021-04-17T14:43:58Z</time>
      </trkpt>
      <trkpt lat="46.08263" lon="6.12719">
        <ele>1336</ele>
        <time>2021-04-17T14:43:59Z</time>
      </trkpt>
      <trkpt lat="46.08266" lon="6.12722">
        <ele>1336</ele>
        <time>2021-04-17T14:44:00Z</time>
      </trkpt>
      <trkpt lat="46.08268" lon="6.12725">
        <ele>1336.2</ele>
        <time>2021-04-17T14:44:01Z</time>
      </trkpt>
      <trkpt lat="46.0827" lon="6.12727">
        <ele>1336.4</ele>
        <time>2021-04-17T14:44:02Z</time>
      </trkpt>
      <trkpt lat="46.08273" lon="6.1273">
        <ele>1336.6</ele>
        <time>2021-04-17T14:44:03Z</time>
      </trkpt>
      <trkpt lat="46.08276" lon="6.12733">
        <ele>1337.2</ele>
        <time>2021-04-17T14:44:04Z</time>
      </trkpt>
      <trkpt lat="46.08278" lon="6.12735">
        <ele>1337.4</ele>
        <time>2021-04-17T14:44:05Z</time>
      </trkpt>
      <trkpt lat="46.0828" lon="6.12738">
        <ele>1337.8</ele>
        <time>2021-04-17T14:44:06Z</time>
      </trkpt>
      <trkpt lat="46.08282" lon="6.1274">
        <ele>1337.8</ele>
        <time>2021-04-17T14:44:07Z</time>
      </trkpt>
      <trkpt lat="46.08285" lon="6.12743">
        <ele>1338</ele>
        <time>2021-04-17T14:44:08Z</time>
      </trkpt>
      <trkpt lat="46.08287" lon="6.12746">
        <ele>1338</ele>
        <time>2021-04-17T14:44:09Z</time>
      </trkpt>
      <trkpt lat="46.0829" lon="6.12748">
        <ele>1338.2</ele>
        <time>2021-04-17T14:44:10Z</time>
      </trkpt>
      <trkpt lat="46.08292" lon="6.1275">
        <ele>1338.2</ele>
        <time>2021-04-17T14:44:11Z</time>
      </trkpt>
      <trkpt lat="46.08294" lon="6.12752">
        <ele>1338.2</ele>
        <time>2021-04-17T14:44:12Z</time>
      </trkpt>
      <trkpt lat="46.08296" lon="6.12753">
        <ele>1338.4</ele>
        <time>2021-04-17T14:44:13Z</time>
      </trkpt>
      <trkpt lat="46.08299" lon="6.12755">
        <ele>1339</ele>
        <time>2021-04-17T14:44:14Z</time>
      </trkpt>
      <trkpt lat="46.08301" lon="6.12757">
        <ele>1339.4</ele>
        <time>2021-04-17T14:44:15Z</time>
      </trkpt>
      <trkpt lat="46.08304" lon="6.12759">
        <ele>1339.8</ele>
        <time>2021-04-17T14:44:16Z</time>
      </trkpt>
      <trkpt lat="46.08306" lon="6.12761">
        <ele>1340.4</ele>
        <time>2021-04-17T14:44:17Z</time>
      </trkpt>
      <trkpt lat="46.08308" lon="6.12763">
        <ele>1341</ele>
        <time>2021-04-17T14:44:18Z</time>
      </trkpt>
      <trkpt lat="46.0831" lon="6.12764">
        <ele>1341</ele>
        <time>2021-04-17T14:44:19Z</time>
      </trkpt>
      <trkpt lat="46.08313" lon="6.12766">
        <ele>1341</ele>
        <time>2021-04-17T14:44:20Z</time>
      </trkpt>
      <trkpt lat="46.08316" lon="6.12768">
        <ele>1341.2</ele>
        <time>2021-04-17T14:44:21Z</time>
      </trkpt>
      <trkpt lat="46.08319" lon="6.12771">
        <ele>1341.4</ele>
        <time>2021-04-17T14:44:22Z</time>
      </trkpt>
      <trkpt lat="46.08322" lon="6.12773">
        <ele>1341.6</ele>
        <time>2021-04-17T14:44:23Z</time>
      </trkpt>
      <trkpt lat="46.08324" lon="6.12776">
        <ele>1341.8</ele>
        <time>2021-04-17T14:44:24Z</time>
      </trkpt>
      <trkpt lat="46.08327" lon="6.12779">
        <ele>1342</ele>
        <time>2021-04-17T14:44:25Z</time>
      </trkpt>
      <trkpt lat="46.0833" lon="6.12781">
        <ele>1342</ele>
        <time>2021-04-17T14:44:26Z</time>
      </trkpt>
      <trkpt lat="46.08332" lon="6.12784">
        <ele>1342.2</ele>
        <time>2021-04-17T14:44:27Z</time>
      </trkpt>
      <trkpt lat="46.08335" lon="6.12787">
        <ele>1342.4</ele>
        <time>2021-04-17T14:44:28Z</time>
      </trkpt>
      <trkpt lat="46.08338" lon="6.1279">
        <ele>1342.4</ele>
        <time>2021-04-17T14:44:29Z</time>
      </trkpt>
      <trkpt lat="46.0834" lon="6.12793">
        <ele>1342.6</ele>
        <time>2021-04-17T14:44:30Z</time>
      </trkpt>
      <trkpt lat="46.08342" lon="6.12795">
        <ele>1342.6</ele>
        <time>2021-04-17T14:44:31Z</time>
      </trkpt>
      <trkpt lat="46.08344" lon="6.12798">
        <ele>1342.8</ele>
        <time>2021-04-17T14:44:32Z</time>
      </trkpt>
      <trkpt lat="46.08347" lon="6.12801">
        <ele>1343</ele>
        <time>2021-04-17T14:44:33Z</time>
      </trkpt>
      <trkpt lat="46.08349" lon="6.12803">
        <ele>1343.2</ele>
        <time>2021-04-17T14:44:34Z</time>
      </trkpt>
      <trkpt lat="46.08352" lon="6.12806">
        <ele>1343.4</ele>
        <time>2021-04-17T14:44:35Z</time>
      </trkpt>
      <trkpt lat="46.08355" lon="6.12809">
        <ele>1343.8</ele>
        <time>2021-04-17T14:44:36Z</time>
      </trkpt>
      <trkpt lat="46.08358" lon="6.12813">
        <ele>1344.4</ele>
        <time>2021-04-17T14:44:37Z</time>
      </trkpt>
      <trkpt lat="46.08361" lon="6.12816">
        <ele>1344.4</ele>
        <time>2021-04-17T14:44:38Z</time>
      </trkpt>
      <trkpt lat="46.08364" lon="6.1282">
        <ele>1344.6</ele>
        <time>2021-04-17T14:44:39Z</time>
      </trkpt>
      <trkpt lat="46.08367" lon="6.12823">
        <ele>1344.8</ele>
        <time>2021-04-17T14:44:40Z</time>
      </trkpt>
      <trkpt lat="46.08371" lon="6.12827">
        <ele>1345.2</ele>
        <time>2021-04-17T14:44:41Z</time>
      </trkpt>
      <trkpt lat="46.08374" lon="6.12831">
        <ele>1345.4</ele>
        <time>2021-04-17T14:44:42Z</time>
      </trkpt>
      <trkpt lat="46.08378" lon="6.12836">
        <ele>1345.4</ele>
        <time>2021-04-17T14:44:43Z</time>
      </trkpt>
      <trkpt lat="46.08381" lon="6.12841">
        <ele>1345.4</ele>
        <time>2021-04-17T14:44:44Z</time>
      </trkpt>
      <trkpt lat="46.08384" lon="6.12846">
        <ele>1345.6</ele>
        <time>2021-04-17T14:44:45Z</time>
      </trkpt>
      <trkpt lat="46.08387" lon="6.1285">
        <ele>1345.6</ele>
        <time>2021-04-17T14:44:46Z</time>
      </trkpt>
      <trkpt lat="46.0839" lon="6.12855">
        <ele>1345.8</ele>
        <time>2021-04-17T14:44:47Z</time>
      </trkpt>
      <trkpt lat="46.08393" lon="6.1286">
        <ele>1345.8</ele>
        <time>2021-04-17T14:44:48Z</time>
      </trkpt>
      <trkpt lat="46.08397" lon="6.12865">
        <ele>1345.8</ele>
        <time>2021-04-17T14:44:49Z</time>
      </trkpt>
      <trkpt lat="46.08401" lon="6.1287">
        <ele>1345.8</ele>
        <time>2021-04-17T14:44:50Z</time>
      </trkpt>
      <trkpt lat="46.08404" lon="6.12875">
        <ele>1345.8</ele>
        <time>2021-04-17T14:44:51Z</time>
      </trkpt>
      <trkpt lat="46.08409" lon="6.12881">
        <ele>1345.8</ele>
        <time>2021-04-17T14:44:52Z</time>
      </trkpt>
      <trkpt lat="46.08413" lon="6.12886">
        <ele>1345.8</ele>
        <time>2021-04-17T14:44:53Z</time>
      </trkpt>
      <trkpt lat="46.08416" lon="6.12891">
        <ele>1345.8</ele>
        <time>2021-04-17T14:44:54Z</time>
      </trkpt>
      <trkpt lat="46.08419" lon="6.12896">
        <ele>1345.6</ele>
        <time>2021-04-17T14:44:55Z</time>
      </trkpt>
      <trkpt lat="46.08422" lon="6.12902">
        <ele>1345.8</ele>
        <time>2021-04-17T14:44:56Z</time>
      </trkpt>
      <trkpt lat="46.08426" lon="6.12908">
        <ele>1345.6</ele>
        <time>2021-04-17T14:44:57Z</time>
      </trkpt>
      <trkpt lat="46.08428" lon="6.12914">
        <ele>1345.8</ele>
        <time>2021-04-17T14:44:58Z</time>
      </trkpt>
      <trkpt lat="46.08431" lon="6.12921">
        <ele>1345.8</ele>
        <time>2021-04-17T14:44:59Z</time>
      </trkpt>
      <trkpt lat="46.08434" lon="6.12928">
        <ele>1345.6</ele>
        <time>2021-04-17T14:45:00Z</time>
      </trkpt>
      <trkpt lat="46.08436" lon="6.12934">
        <ele>1345.6</ele>
        <time>2021-04-17T14:45:01Z</time>
      </trkpt>
      <trkpt lat="46.08439" lon="6.12941">
        <ele>1345.6</ele>
        <time>2021-04-17T14:45:02Z</time>
      </trkpt>
      <trkpt lat="46.08442" lon="6.12948">
        <ele>1345.4</ele>
        <time>2021-04-17T14:45:03Z</time>
      </trkpt>
      <trkpt lat="46.08445" lon="6.12955">
        <ele>1345.4</ele>
        <time>2021-04-17T14:45:04Z</time>
      </trkpt>
      <trkpt lat="46.08448" lon="6.12962">
        <ele>1345.4</ele>
        <time>2021-04-17T14:45:05Z</time>
      </trkpt>
      <trkpt lat="46.08451" lon="6.12969">
        <ele>1345.4</ele>
        <time>2021-04-17T14:45:06Z</time>
      </trkpt>
      <trkpt lat="46.08454" lon="6.12975">
        <ele>1345.2</ele>
        <time>2021-04-17T14:45:07Z</time>
      </trkpt>
      <trkpt lat="46.08456" lon="6.12982">
        <ele>1345.2</ele>
        <time>2021-04-17T14:45:08Z</time>
      </trkpt>
      <trkpt lat="46.08458" lon="6.12988">
        <ele>1345.2</ele>
        <time>2021-04-17T14:45:09Z</time>
      </trkpt>
      <trkpt lat="46.08461" lon="6.12993">
        <ele>1345.2</ele>
        <time>2021-04-17T14:45:10Z</time>
      </trkpt>
      <trkpt lat="46.08463" lon="6.12999">
        <ele>1345.2</ele>
        <time>2021-04-17T14:45:11Z</time>
      </trkpt>
      <trkpt lat="46.08466" lon="6.13004">
        <ele>1345.4</ele>
        <time>2021-04-17T14:45:12Z</time>
      </trkpt>
      <trkpt lat="46.08469" lon="6.1301">
        <ele>1345.4</ele>
        <time>2021-04-17T14:45:13Z</time>
      </trkpt>
      <trkpt lat="46.08472" lon="6.13015">
        <ele>1345.4</ele>
        <time>2021-04-17T14:45:14Z</time>
      </trkpt>
      <trkpt lat="46.08475" lon="6.13021">
        <ele>1345.4</ele>
        <time>2021-04-17T14:45:15Z</time>
      </trkpt>
      <trkpt lat="46.08478" lon="6.13028">
        <ele>1345.6</ele>
        <time>2021-04-17T14:45:16Z</time>
      </trkpt>
      <trkpt lat="46.08481" lon="6.13034">
        <ele>1345.4</ele>
        <time>2021-04-17T14:45:17Z</time>
      </trkpt>
      <trkpt lat="46.08485" lon="6.13041">
        <ele>1345.6</ele>
        <time>2021-04-17T14:45:18Z</time>
      </trkpt>
      <trkpt lat="46.08488" lon="6.13047">
        <ele>1345.8</ele>
        <time>2021-04-17T14:45:19Z</time>
      </trkpt>
      <trkpt lat="46.0849" lon="6.13053">
        <ele>1346.2</ele>
        <time>2021-04-17T14:45:20Z</time>
      </trkpt>
      <trkpt lat="46.08494" lon="6.13059">
        <ele>1347</ele>
        <time>2021-04-17T14:45:21Z</time>
      </trkpt>
      <trkpt lat="46.08498" lon="6.13065">
        <ele>1347.2</ele>
        <time>2021-04-17T14:45:22Z</time>
      </trkpt>
      <trkpt lat="46.08502" lon="6.13071">
        <ele>1347.8</ele>
        <time>2021-04-17T14:45:23Z</time>
      </trkpt>
      <trkpt lat="46.08505" lon="6.13076">
        <ele>1348.2</ele>
        <time>2021-04-17T14:45:24Z</time>
      </trkpt>
      <trkpt lat="46.08507" lon="6.1308">
        <ele>1348.2</ele>
        <time>2021-04-17T14:45:25Z</time>
      </trkpt>
      <trkpt lat="46.0851" lon="6.13085">
        <ele>1348.4</ele>
        <time>2021-04-17T14:45:26Z</time>
      </trkpt>
      <trkpt lat="46.08513" lon="6.1309">
        <ele>1348.6</ele>
        <time>2021-04-17T14:45:27Z</time>
      </trkpt>
      <trkpt lat="46.08516" lon="6.13095">
        <ele>1348.6</ele>
        <time>2021-04-17T14:45:28Z</time>
      </trkpt>
      <trkpt lat="46.08519" lon="6.131">
        <ele>1348.6</ele>
        <time>2021-04-17T14:45:29Z</time>
      </trkpt>
      <trkpt lat="46.08522" lon="6.13105">
        <ele>1348.6</ele>
        <time>2021-04-17T14:45:30Z</time>
      </trkpt>
      <trkpt lat="46.08525" lon="6.1311">
        <ele>1348.8</ele>
        <time>2021-04-17T14:45:31Z</time>
      </trkpt>
      <trkpt lat="46.08528" lon="6.13114">
        <ele>1348.8</ele>
        <time>2021-04-17T14:45:32Z</time>
      </trkpt>
      <trkpt lat="46.08531" lon="6.13118">
        <ele>1348.8</ele>
        <time>2021-04-17T14:45:33Z</time>
      </trkpt>
      <trkpt lat="46.08534" lon="6.13122">
        <ele>1348.8</ele>
        <time>2021-04-17T14:45:34Z</time>
      </trkpt>
      <trkpt lat="46.08536" lon="6.13125">
        <ele>1349</ele>
        <time>2021-04-17T14:45:35Z</time>
      </trkpt>
      <trkpt lat="46.08538" lon="6.13129">
        <ele>1349</ele>
        <time>2021-04-17T14:45:36Z</time>
      </trkpt>
      <trkpt lat="46.08541" lon="6.13132">
        <ele>1349.2</ele>
        <time>2021-04-17T14:45:37Z</time>
      </trkpt>
      <trkpt lat="46.08544" lon="6.13135">
        <ele>1349.2</ele>
        <time>2021-04-17T14:45:38Z</time>
      </trkpt>
      <trkpt lat="46.08548" lon="6.13139">
        <ele>1349.4</ele>
        <time>2021-04-17T14:45:39Z</time>
      </trkpt>
      <trkpt lat="46.08551" lon="6.13142">
        <ele>1349.6</ele>
        <time>2021-04-17T14:45:40Z</time>
      </trkpt>
      <trkpt lat="46.08555" lon="6.13144">
        <ele>1350</ele>
        <time>2021-04-17T14:45:41Z</time>
      </trkpt>
      <trkpt lat="46.08558" lon="6.13146">
        <ele>1350</ele>
        <time>2021-04-17T14:45:42Z</time>
      </trkpt>
      <trkpt lat="46.08562" lon="6.13147">
        <ele>1350.4</ele>
        <time>2021-04-17T14:45:43Z</time>
      </trkpt>
      <trkpt lat="46.08566" lon="6.13147">
        <ele>1350.2</ele>
        <time>2021-04-17T14:45:44Z</time>
      </trkpt>
      <trkpt lat="46.0857" lon="6.13148">
        <ele>1350.4</ele>
        <time>2021-04-17T14:45:45Z</time>
      </trkpt>
      <trkpt lat="46.08575" lon="6.13149">
        <ele>1350.4</ele>
        <time>2021-04-17T14:45:46Z</time>
      </trkpt>
      <trkpt lat="46.08579" lon="6.1315">
        <ele>1350.4</ele>
        <time>2021-04-17T14:45:47Z</time>
      </trkpt>
      <trkpt lat="46.08583" lon="6.13152">
        <ele>1350.4</ele>
        <time>2021-04-17T14:45:48Z</time>
      </trkpt>
      <trkpt lat="46.08588" lon="6.13153">
        <ele>1350.6</ele>
        <time>2021-04-17T14:45:49Z</time>
      </trkpt>
      <trkpt lat="46.08592" lon="6.13155">
        <ele>1350.4</ele>
        <time>2021-04-17T14:45:50Z</time>
      </trkpt>
      <trkpt lat="46.08597" lon="6.13157">
        <ele>1350.4</ele>
        <time>2021-04-17T14:45:51Z</time>
      </trkpt>
      <trkpt lat="46.08602" lon="6.1316">
        <ele>1350.6</ele>
        <time>2021-04-17T14:45:52Z</time>
      </trkpt>
      <trkpt lat="46.08607" lon="6.13163">
        <ele>1350.4</ele>
        <time>2021-04-17T14:45:53Z</time>
      </trkpt>
      <trkpt lat="46.08612" lon="6.13166">
        <ele>1350.2</ele>
        <time>2021-04-17T14:45:54Z</time>
      </trkpt>
      <trkpt lat="46.08618" lon="6.13169">
        <ele>1350.4</ele>
        <time>2021-04-17T14:45:55Z</time>
      </trkpt>
      <trkpt lat="46.08624" lon="6.13172">
        <ele>1350.4</ele>
        <time>2021-04-17T14:45:56Z</time>
      </trkpt>
      <trkpt lat="46.0863" lon="6.13176">
        <ele>1350</ele>
        <time>2021-04-17T14:45:57Z</time>
      </trkpt>
      <trkpt lat="46.08637" lon="6.1318">
        <ele>1349.6</ele>
        <time>2021-04-17T14:45:58Z</time>
      </trkpt>
      <trkpt lat="46.08644" lon="6.13184">
        <ele>1349.4</ele>
        <time>2021-04-17T14:45:59Z</time>
      </trkpt>
      <trkpt lat="46.08651" lon="6.13189">
        <ele>1349.2</ele>
        <time>2021-04-17T14:46:00Z</time>
      </trkpt>
      <trkpt lat="46.08658" lon="6.13194">
        <ele>1349</ele>
        <time>2021-04-17T14:46:01Z</time>
      </trkpt>
      <trkpt lat="46.08665" lon="6.13198">
        <ele>1348.6</ele>
        <time>2021-04-17T14:46:02Z</time>
      </trkpt>
      <trkpt lat="46.08672" lon="6.13203">
        <ele>1348.6</ele>
        <time>2021-04-17T14:46:03Z</time>
      </trkpt>
      <trkpt lat="46.08679" lon="6.13208">
        <ele>1348.2</ele>
        <time>2021-04-17T14:46:04Z</time>
      </trkpt>
      <trkpt lat="46.08685" lon="6.13212">
        <ele>1348</ele>
        <time>2021-04-17T14:46:05Z</time>
      </trkpt>
      <trkpt lat="46.08692" lon="6.13216">
        <ele>1347.8</ele>
        <time>2021-04-17T14:46:06Z</time>
      </trkpt>
      <trkpt lat="46.08697" lon="6.13219">
        <ele>1347.8</ele>
        <time>2021-04-17T14:46:07Z</time>
      </trkpt>
      <trkpt lat="46.08703" lon="6.13223">
        <ele>1347.8</ele>
        <time>2021-04-17T14:46:08Z</time>
      </trkpt>
      <trkpt lat="46.08708" lon="6.13226">
        <ele>1347.6</ele>
        <time>2021-04-17T14:46:09Z</time>
      </trkpt>
      <trkpt lat="46.08713" lon="6.13229">
        <ele>1347.8</ele>
        <time>2021-04-17T14:46:10Z</time>
      </trkpt>
      <trkpt lat="46.08717" lon="6.13232">
        <ele>1347.8</ele>
        <time>2021-04-17T14:46:11Z</time>
      </trkpt>
      <trkpt lat="46.08721" lon="6.13235">
        <ele>1347.6</ele>
        <time>2021-04-17T14:46:12Z</time>
      </trkpt>
      <trkpt lat="46.08725" lon="6.13237">
        <ele>1347.6</ele>
        <time>2021-04-17T14:46:13Z</time>
      </trkpt>
      <trkpt lat="46.08729" lon="6.1324">
        <ele>1347.6</ele>
        <time>2021-04-17T14:46:14Z</time>
      </trkpt>
      <trkpt lat="46.08732" lon="6.13242">
        <ele>1347.6</ele>
        <time>2021-04-17T14:46:15Z</time>
      </trkpt>
      <trkpt lat="46.08735" lon="6.13245">
        <ele>1348</ele>
        <time>2021-04-17T14:46:16Z</time>
      </trkpt>
      <trkpt lat="46.08739" lon="6.13247">
        <ele>1348.4</ele>
        <time>2021-04-17T14:46:17Z</time>
      </trkpt>
      <trkpt lat="46.08742" lon="6.1325">
        <ele>1349</ele>
        <time>2021-04-17T14:46:18Z</time>
      </trkpt>
      <trkpt lat="46.08746" lon="6.13253">
        <ele>1349.4</ele>
        <time>2021-04-17T14:46:19Z</time>
      </trkpt>
      <trkpt lat="46.08749" lon="6.13255">
        <ele>1349.8</ele>
        <time>2021-04-17T14:46:20Z</time>
      </trkpt>
      <trkpt lat="46.08752" lon="6.13258">
        <ele>1350</ele>
        <time>2021-04-17T14:46:21Z</time>
      </trkpt>
      <trkpt lat="46.08756" lon="6.1326">
        <ele>1350.4</ele>
        <time>2021-04-17T14:46:22Z</time>
      </trkpt>
      <trkpt lat="46.08759" lon="6.13262">
        <ele>1350.6</ele>
        <time>2021-04-17T14:46:23Z</time>
      </trkpt>
      <trkpt lat="46.08763" lon="6.13265">
        <ele>1351</ele>
        <time>2021-04-17T14:46:24Z</time>
      </trkpt>
      <trkpt lat="46.08766" lon="6.13267">
        <ele>1351.4</ele>
        <time>2021-04-17T14:46:25Z</time>
      </trkpt>
      <trkpt lat="46.08769" lon="6.1327">
        <ele>1351.6</ele>
        <time>2021-04-17T14:46:26Z</time>
      </trkpt>
      <trkpt lat="46.08771" lon="6.13272">
        <ele>1351.8</ele>
        <time>2021-04-17T14:46:27Z</time>
      </trkpt>
      <trkpt lat="46.08774" lon="6.13274">
        <ele>1351.8</ele>
        <time>2021-04-17T14:46:28Z</time>
      </trkpt>
      <trkpt lat="46.08777" lon="6.13276">
        <ele>1352.2</ele>
        <time>2021-04-17T14:46:29Z</time>
      </trkpt>
      <trkpt lat="46.08781" lon="6.13279">
        <ele>1352.6</ele>
        <time>2021-04-17T14:46:30Z</time>
      </trkpt>
      <trkpt lat="46.08785" lon="6.13282">
        <ele>1352.8</ele>
        <time>2021-04-17T14:46:31Z</time>
      </trkpt>
      <trkpt lat="46.08789" lon="6.13284">
        <ele>1353</ele>
        <time>2021-04-17T14:46:32Z</time>
      </trkpt>
      <trkpt lat="46.08792" lon="6.13287">
        <ele>1353</ele>
        <time>2021-04-17T14:46:33Z</time>
      </trkpt>
      <trkpt lat="46.08796" lon="6.1329">
        <ele>1353.2</ele>
        <time>2021-04-17T14:46:34Z</time>
      </trkpt>
      <trkpt lat="46.088" lon="6.13293">
        <ele>1353.4</ele>
        <time>2021-04-17T14:46:35Z</time>
      </trkpt>
      <trkpt lat="46.08803" lon="6.13297">
        <ele>1353.4</ele>
        <time>2021-04-17T14:46:36Z</time>
      </trkpt>
      <trkpt lat="46.08807" lon="6.133">
        <ele>1353.4</ele>
        <time>2021-04-17T14:46:37Z</time>
      </trkpt>
      <trkpt lat="46.08809" lon="6.13304">
        <ele>1353.4</ele>
        <time>2021-04-17T14:46:38Z</time>
      </trkpt>
      <trkpt lat="46.08811" lon="6.13308">
        <ele>1353.6</ele>
        <time>2021-04-17T14:46:39Z</time>
      </trkpt>
      <trkpt lat="46.08813" lon="6.13313">
        <ele>1353.6</ele>
        <time>2021-04-17T14:46:40Z</time>
      </trkpt>
      <trkpt lat="46.08814" lon="6.13317">
        <ele>1353.8</ele>
        <time>2021-04-17T14:46:41Z</time>
      </trkpt>
      <trkpt lat="46.08816" lon="6.13322">
        <ele>1353.8</ele>
        <time>2021-04-17T14:46:42Z</time>
      </trkpt>
      <trkpt lat="46.08818" lon="6.13326">
        <ele>1353.8</ele>
        <time>2021-04-17T14:46:43Z</time>
      </trkpt>
      <trkpt lat="46.0882" lon="6.13332">
        <ele>1354.2</ele>
        <time>2021-04-17T14:46:44Z</time>
      </trkpt>
      <trkpt lat="46.08821" lon="6.13336">
        <ele>1354.4</ele>
        <time>2021-04-17T14:46:45Z</time>
      </trkpt>
      <trkpt lat="46.08823" lon="6.13341">
        <ele>1354.6</ele>
        <time>2021-04-17T14:46:46Z</time>
      </trkpt>
      <trkpt lat="46.08826" lon="6.13347">
        <ele>1355</ele>
        <time>2021-04-17T14:46:47Z</time>
      </trkpt>
      <trkpt lat="46.08829" lon="6.13352">
        <ele>1355.2</ele>
        <time>2021-04-17T14:46:48Z</time>
      </trkpt>
      <trkpt lat="46.08831" lon="6.13356">
        <ele>1355.4</ele>
        <time>2021-04-17T14:46:49Z</time>
      </trkpt>
      <trkpt lat="46.08833" lon="6.13361">
        <ele>1355.6</ele>
        <time>2021-04-17T14:46:50Z</time>
      </trkpt>
      <trkpt lat="46.08834" lon="6.13366">
        <ele>1356</ele>
        <time>2021-04-17T14:46:51Z</time>
      </trkpt>
      <trkpt lat="46.08836" lon="6.13371">
        <ele>1356.2</ele>
        <time>2021-04-17T14:46:52Z</time>
      </trkpt>
      <trkpt lat="46.08838" lon="6.13376">
        <ele>1356.4</ele>
        <time>2021-04-17T14:46:53Z</time>
      </trkpt>
      <trkpt lat="46.08839" lon="6.1338">
        <ele>1356.6</ele>
        <time>2021-04-17T14:46:54Z</time>
      </trkpt>
      <trkpt lat="46.08841" lon="6.13384">
        <ele>1356.8</ele>
        <time>2021-04-17T14:46:55Z</time>
      </trkpt>
      <trkpt lat="46.08844" lon="6.13388">
        <ele>1357</ele>
        <time>2021-04-17T14:46:56Z</time>
      </trkpt>
      <trkpt lat="46.08847" lon="6.13393">
        <ele>1357.2</ele>
        <time>2021-04-17T14:46:57Z</time>
      </trkpt>
      <trkpt lat="46.0885" lon="6.13396">
        <ele>1357.4</ele>
        <time>2021-04-17T14:46:58Z</time>
      </trkpt>
      <trkpt lat="46.08853" lon="6.134">
        <ele>1357.6</ele>
        <time>2021-04-17T14:46:59Z</time>
      </trkpt>
      <trkpt lat="46.08856" lon="6.13403">
        <ele>1357.6</ele>
        <time>2021-04-17T14:47:00Z</time>
      </trkpt>
      <trkpt lat="46.08859" lon="6.13406">
        <ele>1358</ele>
        <time>2021-04-17T14:47:01Z</time>
      </trkpt>
      <trkpt lat="46.08862" lon="6.1341">
        <ele>1358.2</ele>
        <time>2021-04-17T14:47:02Z</time>
      </trkpt>
      <trkpt lat="46.08865" lon="6.13413">
        <ele>1358.6</ele>
        <time>2021-04-17T14:47:03Z</time>
      </trkpt>
      <trkpt lat="46.08868" lon="6.13417">
        <ele>1358.8</ele>
        <time>2021-04-17T14:47:04Z</time>
      </trkpt>
      <trkpt lat="46.08871" lon="6.13422">
        <ele>1359</ele>
        <time>2021-04-17T14:47:05Z</time>
      </trkpt>
      <trkpt lat="46.08874" lon="6.13426">
        <ele>1359.2</ele>
        <time>2021-04-17T14:47:06Z</time>
      </trkpt>
      <trkpt lat="46.08877" lon="6.13431">
        <ele>1359.4</ele>
        <time>2021-04-17T14:47:07Z</time>
      </trkpt>
      <trkpt lat="46.0888" lon="6.13437">
        <ele>1359.4</ele>
        <time>2021-04-17T14:47:08Z</time>
      </trkpt>
      <trkpt lat="46.08882" lon="6.13442">
        <ele>1359.6</ele>
        <time>2021-04-17T14:47:09Z</time>
      </trkpt>
      <trkpt lat="46.08885" lon="6.13448">
        <ele>1359.8</ele>
        <time>2021-04-17T14:47:10Z</time>
      </trkpt>
      <trkpt lat="46.08887" lon="6.13455">
        <ele>1359.8</ele>
        <time>2021-04-17T14:47:11Z</time>
      </trkpt>
      <trkpt lat="46.08889" lon="6.13461">
        <ele>1360</ele>
        <time>2021-04-17T14:47:12Z</time>
      </trkpt>
      <trkpt lat="46.08892" lon="6.13467">
        <ele>1360.2</ele>
        <time>2021-04-17T14:47:13Z</time>
      </trkpt>
      <trkpt lat="46.08894" lon="6.13472">
        <ele>1360.4</ele>
        <time>2021-04-17T14:47:14Z</time>
      </trkpt>
      <trkpt lat="46.08896" lon="6.13477">
        <ele>1360.6</ele>
        <time>2021-04-17T14:47:15Z</time>
      </trkpt>
      <trkpt lat="46.08898" lon="6.13482">
        <ele>1361</ele>
        <time>2021-04-17T14:47:16Z</time>
      </trkpt>
      <trkpt lat="46.08899" lon="6.13487">
        <ele>1361.4</ele>
        <time>2021-04-17T14:47:17Z</time>
      </trkpt>
      <trkpt lat="46.089" lon="6.13492">
        <ele>1361.8</ele>
        <time>2021-04-17T14:47:18Z</time>
      </trkpt>
      <trkpt lat="46.08901" lon="6.13497">
        <ele>1361.6</ele>
        <time>2021-04-17T14:47:19Z</time>
      </trkpt>
      <trkpt lat="46.08902" lon="6.13502">
        <ele>1362</ele>
        <time>2021-04-17T14:47:20Z</time>
      </trkpt>
      <trkpt lat="46.08903" lon="6.13506">
        <ele>1362.2</ele>
        <time>2021-04-17T14:47:21Z</time>
      </trkpt>
      <trkpt lat="46.08904" lon="6.13511">
        <ele>1362.6</ele>
        <time>2021-04-17T14:47:22Z</time>
      </trkpt>
      <trkpt lat="46.08905" lon="6.13515">
        <ele>1362.8</ele>
        <time>2021-04-17T14:47:23Z</time>
      </trkpt>
      <trkpt lat="46.08906" lon="6.1352">
        <ele>1363</ele>
        <time>2021-04-17T14:47:24Z</time>
      </trkpt>
      <trkpt lat="46.08908" lon="6.13524">
        <ele>1363.2</ele>
        <time>2021-04-17T14:47:25Z</time>
      </trkpt>
      <trkpt lat="46.08909" lon="6.13528">
        <ele>1363.2</ele>
        <time>2021-04-17T14:47:26Z</time>
      </trkpt>
      <trkpt lat="46.0891" lon="6.13532">
        <ele>1363.4</ele>
        <time>2021-04-17T14:47:27Z</time>
      </trkpt>
      <trkpt lat="46.08911" lon="6.13536">
        <ele>1363.8</ele>
        <time>2021-04-17T14:47:28Z</time>
      </trkpt>
      <trkpt lat="46.08912" lon="6.1354">
        <ele>1364</ele>
        <time>2021-04-17T14:47:29Z</time>
      </trkpt>
      <trkpt lat="46.08914" lon="6.13544">
        <ele>1364.2</ele>
        <time>2021-04-17T14:47:30Z</time>
      </trkpt>
      <trkpt lat="46.08915" lon="6.13547">
        <ele>1364.2</ele>
        <time>2021-04-17T14:47:31Z</time>
      </trkpt>
      <trkpt lat="46.08916" lon="6.13551">
        <ele>1364.6</ele>
        <time>2021-04-17T14:47:32Z</time>
      </trkpt>
      <trkpt lat="46.08917" lon="6.13555">
        <ele>1364.8</ele>
        <time>2021-04-17T14:47:33Z</time>
      </trkpt>
      <trkpt lat="46.08918" lon="6.13558">
        <ele>1365.2</ele>
        <time>2021-04-17T14:47:34Z</time>
      </trkpt>
      <trkpt lat="46.08919" lon="6.13562">
        <ele>1365.4</ele>
        <time>2021-04-17T14:47:35Z</time>
      </trkpt>
      <trkpt lat="46.0892" lon="6.13566">
        <ele>1365.6</ele>
        <time>2021-04-17T14:47:36Z</time>
      </trkpt>
      <trkpt lat="46.08922" lon="6.1357">
        <ele>1366</ele>
        <time>2021-04-17T14:47:37Z</time>
      </trkpt>
      <trkpt lat="46.08923" lon="6.13573">
        <ele>1366</ele>
        <time>2021-04-17T14:47:38Z</time>
      </trkpt>
      <trkpt lat="46.08924" lon="6.13577">
        <ele>1366.2</ele>
        <time>2021-04-17T14:47:39Z</time>
      </trkpt>
      <trkpt lat="46.08925" lon="6.13581">
        <ele>1366.6</ele>
        <time>2021-04-17T14:47:40Z</time>
      </trkpt>
      <trkpt lat="46.08926" lon="6.13585">
        <ele>1366.8</ele>
        <time>2021-04-17T14:47:41Z</time>
      </trkpt>
      <trkpt lat="46.08926" lon="6.13588">
        <ele>1366.8</ele>
        <time>2021-04-17T14:47:42Z</time>
      </trkpt>
      <trkpt lat="46.08927" lon="6.13592">
        <ele>1367.2</ele>
        <time>2021-04-17T14:47:43Z</time>
      </trkpt>
      <trkpt lat="46.08928" lon="6.13595">
        <ele>1367.2</ele>
        <time>2021-04-17T14:47:44Z</time>
      </trkpt>
      <trkpt lat="46.0893" lon="6.13598">
        <ele>1367.6</ele>
        <time>2021-04-17T14:47:45Z</time>
      </trkpt>
      <trkpt lat="46.08931" lon="6.13602">
        <ele>1367.8</ele>
        <time>2021-04-17T14:47:46Z</time>
      </trkpt>
      <trkpt lat="46.08933" lon="6.13607">
        <ele>1368.2</ele>
        <time>2021-04-17T14:47:47Z</time>
      </trkpt>
      <trkpt lat="46.08935" lon="6.13611">
        <ele>1368.4</ele>
        <time>2021-04-17T14:47:48Z</time>
      </trkpt>
      <trkpt lat="46.08936" lon="6.13615">
        <ele>1368.8</ele>
        <time>2021-04-17T14:47:49Z</time>
      </trkpt>
      <trkpt lat="46.08937" lon="6.1362">
        <ele>1369</ele>
        <time>2021-04-17T14:47:50Z</time>
      </trkpt>
      <trkpt lat="46.08937" lon="6.13624">
        <ele>1369.2</ele>
        <time>2021-04-17T14:47:51Z</time>
      </trkpt>
      <trkpt lat="46.08938" lon="6.13628">
        <ele>1369.2</ele>
        <time>2021-04-17T14:47:52Z</time>
      </trkpt>
      <trkpt lat="46.08939" lon="6.13632">
        <ele>1369.6</ele>
        <time>2021-04-17T14:47:53Z</time>
      </trkpt>
      <trkpt lat="46.0894" lon="6.13637">
        <ele>1370</ele>
        <time>2021-04-17T14:47:54Z</time>
      </trkpt>
      <trkpt lat="46.08941" lon="6.13641">
        <ele>1370.4</ele>
        <time>2021-04-17T14:47:55Z</time>
      </trkpt>
      <trkpt lat="46.08943" lon="6.13646">
        <ele>1370.4</ele>
        <time>2021-04-17T14:47:56Z</time>
      </trkpt>
      <trkpt lat="46.08945" lon="6.13651">
        <ele>1370.6</ele>
        <time>2021-04-17T14:47:57Z</time>
      </trkpt>
      <trkpt lat="46.08946" lon="6.13656">
        <ele>1371.2</ele>
        <time>2021-04-17T14:47:58Z</time>
      </trkpt>
      <trkpt lat="46.08949" lon="6.13661">
        <ele>1371.2</ele>
        <time>2021-04-17T14:47:59Z</time>
      </trkpt>
      <trkpt lat="46.0895" lon="6.13666">
        <ele>1371.6</ele>
        <time>2021-04-17T14:48:00Z</time>
      </trkpt>
      <trkpt lat="46.0895" lon="6.13671">
        <ele>1371.6</ele>
        <time>2021-04-17T14:48:01Z</time>
      </trkpt>
      <trkpt lat="46.0895" lon="6.13675">
        <ele>1372</ele>
        <time>2021-04-17T14:48:02Z</time>
      </trkpt>
      <trkpt lat="46.08951" lon="6.1368">
        <ele>1372.2</ele>
        <time>2021-04-17T14:48:03Z</time>
      </trkpt>
      <trkpt lat="46.08951" lon="6.13685">
        <ele>1372.2</ele>
        <time>2021-04-17T14:48:04Z</time>
      </trkpt>
      <trkpt lat="46.08952" lon="6.1369">
        <ele>1372.6</ele>
        <time>2021-04-17T14:48:05Z</time>
      </trkpt>
      <trkpt lat="46.08953" lon="6.13695">
        <ele>1372.8</ele>
        <time>2021-04-17T14:48:06Z</time>
      </trkpt>
      <trkpt lat="46.08954" lon="6.137">
        <ele>1372.8</ele>
        <time>2021-04-17T14:48:07Z</time>
      </trkpt>
      <trkpt lat="46.08956" lon="6.13705">
        <ele>1372.8</ele>
        <time>2021-04-17T14:48:08Z</time>
      </trkpt>
      <trkpt lat="46.08958" lon="6.1371">
        <ele>1372.8</ele>
        <time>2021-04-17T14:48:09Z</time>
      </trkpt>
      <trkpt lat="46.08961" lon="6.13714">
        <ele>1373</ele>
        <time>2021-04-17T14:48:10Z</time>
      </trkpt>
      <trkpt lat="46.08964" lon="6.1372">
        <ele>1373</ele>
        <time>2021-04-17T14:48:11Z</time>
      </trkpt>
      <trkpt lat="46.08968" lon="6.13724">
        <ele>1372.8</ele>
        <time>2021-04-17T14:48:12Z</time>
      </trkpt>
      <trkpt lat="46.08972" lon="6.13729">
        <ele>1372.8</ele>
        <time>2021-04-17T14:48:13Z</time>
      </trkpt>
      <trkpt lat="46.08976" lon="6.13734">
        <ele>1372.8</ele>
        <time>2021-04-17T14:48:14Z</time>
      </trkpt>
      <trkpt lat="46.0898" lon="6.13739">
        <ele>1373</ele>
        <time>2021-04-17T14:48:15Z</time>
      </trkpt>
      <trkpt lat="46.08984" lon="6.13743">
        <ele>1372.8</ele>
        <time>2021-04-17T14:48:16Z</time>
      </trkpt>
      <trkpt lat="46.08989" lon="6.13748">
        <ele>1372.8</ele>
        <time>2021-04-17T14:48:17Z</time>
      </trkpt>
      <trkpt lat="46.08993" lon="6.13752">
        <ele>1372.8</ele>
        <time>2021-04-17T14:48:18Z</time>
      </trkpt>
      <trkpt lat="46.08996" lon="6.13756">
        <ele>1372.6</ele>
        <time>2021-04-17T14:48:19Z</time>
      </trkpt>
      <trkpt lat="46.09" lon="6.13761">
        <ele>1372.4</ele>
        <time>2021-04-17T14:48:20Z</time>
      </trkpt>
      <trkpt lat="46.09005" lon="6.13765">
        <ele>1372.2</ele>
        <time>2021-04-17T14:48:21Z</time>
      </trkpt>
      <trkpt lat="46.09009" lon="6.13769">
        <ele>1372</ele>
        <time>2021-04-17T14:48:22Z</time>
      </trkpt>
      <trkpt lat="46.09014" lon="6.13773">
        <ele>1372</ele>
        <time>2021-04-17T14:48:23Z</time>
      </trkpt>
      <trkpt lat="46.09019" lon="6.13777">
        <ele>1372.2</ele>
        <time>2021-04-17T14:48:24Z</time>
      </trkpt>
      <trkpt lat="46.09024" lon="6.1378">
        <ele>1372.2</ele>
        <time>2021-04-17T14:48:25Z</time>
      </trkpt>
      <trkpt lat="46.09028" lon="6.13784">
        <ele>1371.6</ele>
        <time>2021-04-17T14:48:26Z</time>
      </trkpt>
      <trkpt lat="46.09032" lon="6.13788">
        <ele>1371</ele>
        <time>2021-04-17T14:48:27Z</time>
      </trkpt>
      <trkpt lat="46.09036" lon="6.13793">
        <ele>1370.8</ele>
        <time>2021-04-17T14:48:28Z</time>
      </trkpt>
      <trkpt lat="46.09039" lon="6.13798">
        <ele>1370.8</ele>
        <time>2021-04-17T14:48:29Z</time>
      </trkpt>
      <trkpt lat="46.09042" lon="6.13804">
        <ele>1370.8</ele>
        <time>2021-04-17T14:48:30Z</time>
      </trkpt>
      <trkpt lat="46.09044" lon="6.1381">
        <ele>1370.8</ele>
        <time>2021-04-17T14:48:31Z</time>
      </trkpt>
      <trkpt lat="46.09046" lon="6.13816">
        <ele>1370.8</ele>
        <time>2021-04-17T14:48:32Z</time>
      </trkpt>
      <trkpt lat="46.09048" lon="6.13823">
        <ele>1370.8</ele>
        <time>2021-04-17T14:48:33Z</time>
      </trkpt>
      <trkpt lat="46.09051" lon="6.1383">
        <ele>1370.8</ele>
        <time>2021-04-17T14:48:34Z</time>
      </trkpt>
      <trkpt lat="46.09053" lon="6.13837">
        <ele>1370.8</ele>
        <time>2021-04-17T14:48:35Z</time>
      </trkpt>
      <trkpt lat="46.09055" lon="6.13844">
        <ele>1370.8</ele>
        <time>2021-04-17T14:48:36Z</time>
      </trkpt>
      <trkpt lat="46.09057" lon="6.13851">
        <ele>1370.8</ele>
        <time>2021-04-17T14:48:37Z</time>
      </trkpt>
      <trkpt lat="46.09059" lon="6.13858">
        <ele>1370.8</ele>
        <time>2021-04-17T14:48:38Z</time>
      </trkpt>
      <trkpt lat="46.0906" lon="6.13865">
        <ele>1370.8</ele>
        <time>2021-04-17T14:48:39Z</time>
      </trkpt>
      <trkpt lat="46.09062" lon="6.13873">
        <ele>1371</ele>
        <time>2021-04-17T14:48:40Z</time>
      </trkpt>
      <trkpt lat="46.09064" lon="6.1388">
        <ele>1371</ele>
        <time>2021-04-17T14:48:41Z</time>
      </trkpt>
      <trkpt lat="46.09066" lon="6.13888">
        <ele>1371</ele>
        <time>2021-04-17T14:48:42Z</time>
      </trkpt>
      <trkpt lat="46.09068" lon="6.13897">
        <ele>1371</ele>
        <time>2021-04-17T14:48:43Z</time>
      </trkpt>
      <trkpt lat="46.09071" lon="6.13905">
        <ele>1371</ele>
        <time>2021-04-17T14:48:44Z</time>
      </trkpt>
      <trkpt lat="46.09074" lon="6.13912">
        <ele>1371</ele>
        <time>2021-04-17T14:48:45Z</time>
      </trkpt>
      <trkpt lat="46.09078" lon="6.1392">
        <ele>1371</ele>
        <time>2021-04-17T14:48:46Z</time>
      </trkpt>
      <trkpt lat="46.09082" lon="6.13927">
        <ele>1371</ele>
        <time>2021-04-17T14:48:47Z</time>
      </trkpt>
      <trkpt lat="46.09086" lon="6.13934">
        <ele>1370.8</ele>
        <time>2021-04-17T14:48:48Z</time>
      </trkpt>
      <trkpt lat="46.0909" lon="6.1394">
        <ele>1371</ele>
        <time>2021-04-17T14:48:49Z</time>
      </trkpt>
      <trkpt lat="46.09095" lon="6.13945">
        <ele>1370.8</ele>
        <time>2021-04-17T14:48:50Z</time>
      </trkpt>
      <trkpt lat="46.091" lon="6.13948">
        <ele>1370.8</ele>
        <time>2021-04-17T14:48:51Z</time>
      </trkpt>
      <trkpt lat="46.09105" lon="6.1395">
        <ele>1370.4</ele>
        <time>2021-04-17T14:48:52Z</time>
      </trkpt>
      <trkpt lat="46.09111" lon="6.1395">
        <ele>1370.2</ele>
        <time>2021-04-17T14:48:53Z</time>
      </trkpt>
      <trkpt lat="46.09116" lon="6.13951">
        <ele>1370</ele>
        <time>2021-04-17T14:48:54Z</time>
      </trkpt>
      <trkpt lat="46.09122" lon="6.13951">
        <ele>1370</ele>
        <time>2021-04-17T14:48:55Z</time>
      </trkpt>
      <trkpt lat="46.09128" lon="6.13951">
        <ele>1369.8</ele>
        <time>2021-04-17T14:48:56Z</time>
      </trkpt>
      <trkpt lat="46.09135" lon="6.13951">
        <ele>1369.8</ele>
        <time>2021-04-17T14:48:57Z</time>
      </trkpt>
      <trkpt lat="46.0914" lon="6.13951">
        <ele>1369.6</ele>
        <time>2021-04-17T14:48:58Z</time>
      </trkpt>
      <trkpt lat="46.09146" lon="6.13951">
        <ele>1369.6</ele>
        <time>2021-04-17T14:48:59Z</time>
      </trkpt>
      <trkpt lat="46.09152" lon="6.13953">
        <ele>1369.6</ele>
        <time>2021-04-17T14:49:00Z</time>
      </trkpt>
      <trkpt lat="46.09157" lon="6.13954">
        <ele>1369.6</ele>
        <time>2021-04-17T14:49:01Z</time>
      </trkpt>
      <trkpt lat="46.09163" lon="6.13957">
        <ele>1369</ele>
        <time>2021-04-17T14:49:02Z</time>
      </trkpt>
      <trkpt lat="46.09169" lon="6.1396">
        <ele>1368.8</ele>
        <time>2021-04-17T14:49:03Z</time>
      </trkpt>
      <trkpt lat="46.09175" lon="6.13965">
        <ele>1368.6</ele>
        <time>2021-04-17T14:49:04Z</time>
      </trkpt>
      <trkpt lat="46.09182" lon="6.1397">
        <ele>1368.6</ele>
        <time>2021-04-17T14:49:05Z</time>
      </trkpt>
      <trkpt lat="46.09188" lon="6.13977">
        <ele>1368.6</ele>
        <time>2021-04-17T14:49:06Z</time>
      </trkpt>
      <trkpt lat="46.09194" lon="6.13985">
        <ele>1368.6</ele>
        <time>2021-04-17T14:49:07Z</time>
      </trkpt>
      <trkpt lat="46.092" lon="6.13994">
        <ele>1368.6</ele>
        <time>2021-04-17T14:49:08Z</time>
      </trkpt>
      <trkpt lat="46.09204" lon="6.14003">
        <ele>1368.4</ele>
        <time>2021-04-17T14:49:09Z</time>
      </trkpt>
      <trkpt lat="46.09208" lon="6.14013">
        <ele>1368.4</ele>
        <time>2021-04-17T14:49:10Z</time>
      </trkpt>
      <trkpt lat="46.09211" lon="6.14023">
        <ele>1368.2</ele>
        <time>2021-04-17T14:49:11Z</time>
      </trkpt>
      <trkpt lat="46.09215" lon="6.14032">
        <ele>1368.2</ele>
        <time>2021-04-17T14:49:12Z</time>
      </trkpt>
      <trkpt lat="46.09218" lon="6.14042">
        <ele>1368.2</ele>
        <time>2021-04-17T14:49:13Z</time>
      </trkpt>
      <trkpt lat="46.09221" lon="6.14051">
        <ele>1368</ele>
        <time>2021-04-17T14:49:14Z</time>
      </trkpt>
      <trkpt lat="46.09224" lon="6.1406">
        <ele>1367.8</ele>
        <time>2021-04-17T14:49:15Z</time>
      </trkpt>
      <trkpt lat="46.09226" lon="6.14069">
        <ele>1368</ele>
        <time>2021-04-17T14:49:16Z</time>
      </trkpt>
      <trkpt lat="46.09229" lon="6.14079">
        <ele>1368</ele>
        <time>2021-04-17T14:49:17Z</time>
      </trkpt>
      <trkpt lat="46.09232" lon="6.14088">
        <ele>1368</ele>
        <time>2021-04-17T14:49:18Z</time>
      </trkpt>
      <trkpt lat="46.09235" lon="6.14096">
        <ele>1368</ele>
        <time>2021-04-17T14:49:19Z</time>
      </trkpt>
      <trkpt lat="46.09238" lon="6.14105">
        <ele>1367.8</ele>
        <time>2021-04-17T14:49:20Z</time>
      </trkpt>
      <trkpt lat="46.0924" lon="6.14112">
        <ele>1367.8</ele>
        <time>2021-04-17T14:49:21Z</time>
      </trkpt>
      <trkpt lat="46.09243" lon="6.1412">
        <ele>1368</ele>
        <time>2021-04-17T14:49:22Z</time>
      </trkpt>
      <trkpt lat="46.09246" lon="6.14127">
        <ele>1368</ele>
        <time>2021-04-17T14:49:23Z</time>
      </trkpt>
      <trkpt lat="46.09249" lon="6.14135">
        <ele>1368</ele>
        <time>2021-04-17T14:49:24Z</time>
      </trkpt>
      <trkpt lat="46.09252" lon="6.14141">
        <ele>1368</ele>
        <time>2021-04-17T14:49:25Z</time>
      </trkpt>
      <trkpt lat="46.09255" lon="6.14148">
        <ele>1368</ele>
        <time>2021-04-17T14:49:26Z</time>
      </trkpt>
      <trkpt lat="46.09257" lon="6.14154">
        <ele>1368.2</ele>
        <time>2021-04-17T14:49:27Z</time>
      </trkpt>
      <trkpt lat="46.09259" lon="6.1416">
        <ele>1368.2</ele>
        <time>2021-04-17T14:49:28Z</time>
      </trkpt>
      <trkpt lat="46.0926" lon="6.14166">
        <ele>1368.4</ele>
        <time>2021-04-17T14:49:29Z</time>
      </trkpt>
      <trkpt lat="46.09259" lon="6.14171">
        <ele>1368.6</ele>
        <time>2021-04-17T14:49:30Z</time>
      </trkpt>
      <trkpt lat="46.09259" lon="6.14176">
        <ele>1369</ele>
        <time>2021-04-17T14:49:31Z</time>
      </trkpt>
      <trkpt lat="46.09261" lon="6.14182">
        <ele>1369.4</ele>
        <time>2021-04-17T14:49:32Z</time>
      </trkpt>
      <trkpt lat="46.09263" lon="6.14188">
        <ele>1369.6</ele>
        <time>2021-04-17T14:49:33Z</time>
      </trkpt>
      <trkpt lat="46.09265" lon="6.14194">
        <ele>1369.8</ele>
        <time>2021-04-17T14:49:34Z</time>
      </trkpt>
      <trkpt lat="46.09266" lon="6.142">
        <ele>1370</ele>
        <time>2021-04-17T14:49:35Z</time>
      </trkpt>
      <trkpt lat="46.09267" lon="6.14205">
        <ele>1370</ele>
        <time>2021-04-17T14:49:36Z</time>
      </trkpt>
      <trkpt lat="46.09269" lon="6.1421">
        <ele>1370.4</ele>
        <time>2021-04-17T14:49:37Z</time>
      </trkpt>
      <trkpt lat="46.0927" lon="6.14215">
        <ele>1371</ele>
        <time>2021-04-17T14:49:38Z</time>
      </trkpt>
      <trkpt lat="46.09272" lon="6.14221">
        <ele>1371.2</ele>
        <time>2021-04-17T14:49:39Z</time>
      </trkpt>
      <trkpt lat="46.09274" lon="6.14226">
        <ele>1371.6</ele>
        <time>2021-04-17T14:49:40Z</time>
      </trkpt>
      <trkpt lat="46.09277" lon="6.14231">
        <ele>1371.8</ele>
        <time>2021-04-17T14:49:41Z</time>
      </trkpt>
      <trkpt lat="46.0928" lon="6.14236">
        <ele>1371.8</ele>
        <time>2021-04-17T14:49:42Z</time>
      </trkpt>
      <trkpt lat="46.09283" lon="6.14241">
        <ele>1372</ele>
        <time>2021-04-17T14:49:43Z</time>
      </trkpt>
      <trkpt lat="46.09286" lon="6.14246">
        <ele>1372</ele>
        <time>2021-04-17T14:49:44Z</time>
      </trkpt>
      <trkpt lat="46.0929" lon="6.14251">
        <ele>1372</ele>
        <time>2021-04-17T14:49:45Z</time>
      </trkpt>
      <trkpt lat="46.09293" lon="6.14257">
        <ele>1372</ele>
        <time>2021-04-17T14:49:46Z</time>
      </trkpt>
      <trkpt lat="46.09297" lon="6.14262">
        <ele>1372</ele>
        <time>2021-04-17T14:49:47Z</time>
      </trkpt>
      <trkpt lat="46.09301" lon="6.14268">
        <ele>1372</ele>
        <time>2021-04-17T14:49:48Z</time>
      </trkpt>
      <trkpt lat="46.09306" lon="6.14273">
        <ele>1372</ele>
        <time>2021-04-17T14:49:49Z</time>
      </trkpt>
      <trkpt lat="46.0931" lon="6.14278">
        <ele>1371.8</ele>
        <time>2021-04-17T14:49:50Z</time>
      </trkpt>
      <trkpt lat="46.09315" lon="6.14283">
        <ele>1371.6</ele>
        <time>2021-04-17T14:49:51Z</time>
      </trkpt>
      <trkpt lat="46.0932" lon="6.14288">
        <ele>1371.2</ele>
        <time>2021-04-17T14:49:52Z</time>
      </trkpt>
      <trkpt lat="46.09325" lon="6.14293">
        <ele>1371.2</ele>
        <time>2021-04-17T14:49:53Z</time>
      </trkpt>
      <trkpt lat="46.0933" lon="6.14299">
        <ele>1371</ele>
        <time>2021-04-17T14:49:54Z</time>
      </trkpt>
      <trkpt lat="46.09335" lon="6.14304">
        <ele>1370.8</ele>
        <time>2021-04-17T14:49:55Z</time>
      </trkpt>
      <trkpt lat="46.09339" lon="6.1431">
        <ele>1370.8</ele>
        <time>2021-04-17T14:49:56Z</time>
      </trkpt>
      <trkpt lat="46.09343" lon="6.14317">
        <ele>1370.6</ele>
        <time>2021-04-17T14:49:57Z</time>
      </trkpt>
      <trkpt lat="46.09347" lon="6.14324">
        <ele>1370.4</ele>
        <time>2021-04-17T14:49:58Z</time>
      </trkpt>
      <trkpt lat="46.09351" lon="6.14332">
        <ele>1370.2</ele>
        <time>2021-04-17T14:49:59Z</time>
      </trkpt>
      <trkpt lat="46.09354" lon="6.14339">
        <ele>1370</ele>
        <time>2021-04-17T14:50:00Z</time>
      </trkpt>
      <trkpt lat="46.09358" lon="6.14346">
        <ele>1369.8</ele>
        <time>2021-04-17T14:50:01Z</time>
      </trkpt>
      <trkpt lat="46.09363" lon="6.14353">
        <ele>1369.8</ele>
        <time>2021-04-17T14:50:02Z</time>
      </trkpt>
      <trkpt lat="46.09367" lon="6.14359">
        <ele>1369.6</ele>
        <time>2021-04-17T14:50:03Z</time>
      </trkpt>
      <trkpt lat="46.09372" lon="6.14365">
        <ele>1369.6</ele>
        <time>2021-04-17T14:50:04Z</time>
      </trkpt>
      <trkpt lat="46.09378" lon="6.1437">
        <ele>1369.2</ele>
        <time>2021-04-17T14:50:05Z</time>
      </trkpt>
      <trkpt lat="46.09383" lon="6.14375">
        <ele>1369</ele>
        <time>2021-04-17T14:50:06Z</time>
      </trkpt>
      <trkpt lat="46.09389" lon="6.14379">
        <ele>1368.8</ele>
        <time>2021-04-17T14:50:07Z</time>
      </trkpt>
      <trkpt lat="46.09395" lon="6.14383">
        <ele>1368.8</ele>
        <time>2021-04-17T14:50:08Z</time>
      </trkpt>
      <trkpt lat="46.09402" lon="6.14387">
        <ele>1368.6</ele>
        <time>2021-04-17T14:50:09Z</time>
      </trkpt>
      <trkpt lat="46.09408" lon="6.1439">
        <ele>1368.4</ele>
        <time>2021-04-17T14:50:10Z</time>
      </trkpt>
      <trkpt lat="46.09415" lon="6.14393">
        <ele>1368.4</ele>
        <time>2021-04-17T14:50:11Z</time>
      </trkpt>
      <trkpt lat="46.09421" lon="6.14396">
        <ele>1368</ele>
        <time>2021-04-17T14:50:12Z</time>
      </trkpt>
      <trkpt lat="46.09428" lon="6.14398">
        <ele>1368</ele>
        <time>2021-04-17T14:50:13Z</time>
      </trkpt>
      <trkpt lat="46.09434" lon="6.14401">
        <ele>1367.6</ele>
        <time>2021-04-17T14:50:14Z</time>
      </trkpt>
      <trkpt lat="46.09441" lon="6.14406">
        <ele>1366.6</ele>
        <time>2021-04-17T14:50:15Z</time>
      </trkpt>
      <trkpt lat="46.09447" lon="6.14411">
        <ele>1366</ele>
        <time>2021-04-17T14:50:16Z</time>
      </trkpt>
      <trkpt lat="46.09453" lon="6.14418">
        <ele>1365.6</ele>
        <time>2021-04-17T14:50:17Z</time>
      </trkpt>
      <trkpt lat="46.09458" lon="6.14426">
        <ele>1365.4</ele>
        <time>2021-04-17T14:50:18Z</time>
      </trkpt>
      <trkpt lat="46.09462" lon="6.14435">
        <ele>1365.2</ele>
        <time>2021-04-17T14:50:19Z</time>
      </trkpt>
      <trkpt lat="46.09466" lon="6.14444">
        <ele>1365</ele>
        <time>2021-04-17T14:50:20Z</time>
      </trkpt>
      <trkpt lat="46.0947" lon="6.14453">
        <ele>1364.6</ele>
        <time>2021-04-17T14:50:21Z</time>
      </trkpt>
      <trkpt lat="46.09473" lon="6.14462">
        <ele>1364.2</ele>
        <time>2021-04-17T14:50:22Z</time>
      </trkpt>
      <trkpt lat="46.09477" lon="6.14472">
        <ele>1364</ele>
        <time>2021-04-17T14:50:23Z</time>
      </trkpt>
      <trkpt lat="46.0948" lon="6.14481">
        <ele>1364</ele>
        <time>2021-04-17T14:50:24Z</time>
      </trkpt>
      <trkpt lat="46.09484" lon="6.14491">
        <ele>1363.8</ele>
        <time>2021-04-17T14:50:25Z</time>
      </trkpt>
      <trkpt lat="46.09487" lon="6.145">
        <ele>1363.8</ele>
        <time>2021-04-17T14:50:26Z</time>
      </trkpt>
      <trkpt lat="46.09491" lon="6.1451">
        <ele>1363.8</ele>
        <time>2021-04-17T14:50:27Z</time>
      </trkpt>
      <trkpt lat="46.09495" lon="6.1452">
        <ele>1363.4</ele>
        <time>2021-04-17T14:50:28Z</time>
      </trkpt>
      <trkpt lat="46.09499" lon="6.1453">
        <ele>1363.2</ele>
        <time>2021-04-17T14:50:29Z</time>
      </trkpt>
      <trkpt lat="46.09503" lon="6.1454">
        <ele>1363</ele>
        <time>2021-04-17T14:50:30Z</time>
      </trkpt>
      <trkpt lat="46.09506" lon="6.14551">
        <ele>1362.8</ele>
        <time>2021-04-17T14:50:31Z</time>
      </trkpt>
      <trkpt lat="46.0951" lon="6.14561">
        <ele>1362.6</ele>
        <time>2021-04-17T14:50:32Z</time>
      </trkpt>
      <trkpt lat="46.09514" lon="6.14571">
        <ele>1362.6</ele>
        <time>2021-04-17T14:50:33Z</time>
      </trkpt>
      <trkpt lat="46.09518" lon="6.14581">
        <ele>1362.6</ele>
        <time>2021-04-17T14:50:34Z</time>
      </trkpt>
      <trkpt lat="46.09521" lon="6.14591">
        <ele>1362.2</ele>
        <time>2021-04-17T14:50:35Z</time>
      </trkpt>
      <trkpt lat="46.09524" lon="6.14601">
        <ele>1362.2</ele>
        <time>2021-04-17T14:50:36Z</time>
      </trkpt>
      <trkpt lat="46.09527" lon="6.14611">
        <ele>1361.8</ele>
        <time>2021-04-17T14:50:37Z</time>
      </trkpt>
      <trkpt lat="46.09528" lon="6.14622">
        <ele>1361.4</ele>
        <time>2021-04-17T14:50:38Z</time>
      </trkpt>
      <trkpt lat="46.0953" lon="6.14632">
        <ele>1361.2</ele>
        <time>2021-04-17T14:50:39Z</time>
      </trkpt>
      <trkpt lat="46.09532" lon="6.14643">
        <ele>1360.8</ele>
        <time>2021-04-17T14:50:40Z</time>
      </trkpt>
      <trkpt lat="46.09534" lon="6.14653">
        <ele>1360.6</ele>
        <time>2021-04-17T14:50:41Z</time>
      </trkpt>
      <trkpt lat="46.09536" lon="6.14662">
        <ele>1360.2</ele>
        <time>2021-04-17T14:50:42Z</time>
      </trkpt>
      <trkpt lat="46.0954" lon="6.14671">
        <ele>1359.8</ele>
        <time>2021-04-17T14:50:43Z</time>
      </trkpt>
      <trkpt lat="46.09544" lon="6.14678">
        <ele>1359.6</ele>
        <time>2021-04-17T14:50:44Z</time>
      </trkpt>
      <trkpt lat="46.09549" lon="6.14684">
        <ele>1359.4</ele>
        <time>2021-04-17T14:50:45Z</time>
      </trkpt>
      <trkpt lat="46.09554" lon="6.1469">
        <ele>1359.4</ele>
        <time>2021-04-17T14:50:46Z</time>
      </trkpt>
      <trkpt lat="46.09559" lon="6.14694">
        <ele>1359.4</ele>
        <time>2021-04-17T14:50:47Z</time>
      </trkpt>
      <trkpt lat="46.09563" lon="6.14698">
        <ele>1359.2</ele>
        <time>2021-04-17T14:50:48Z</time>
      </trkpt>
      <trkpt lat="46.09568" lon="6.14702">
        <ele>1359.2</ele>
        <time>2021-04-17T14:50:49Z</time>
      </trkpt>
      <trkpt lat="46.09573" lon="6.14704">
        <ele>1359</ele>
        <time>2021-04-17T14:50:50Z</time>
      </trkpt>
      <trkpt lat="46.09577" lon="6.14706">
        <ele>1358.8</ele>
        <time>2021-04-17T14:50:51Z</time>
      </trkpt>
      <trkpt lat="46.09581" lon="6.14707">
        <ele>1358.8</ele>
        <time>2021-04-17T14:50:52Z</time>
      </trkpt>
      <trkpt lat="46.09586" lon="6.14706">
        <ele>1358.8</ele>
        <time>2021-04-17T14:50:53Z</time>
      </trkpt>
      <trkpt lat="46.0959" lon="6.14705">
        <ele>1358.8</ele>
        <time>2021-04-17T14:50:54Z</time>
      </trkpt>
      <trkpt lat="46.09595" lon="6.14704">
        <ele>1358.6</ele>
        <time>2021-04-17T14:50:55Z</time>
      </trkpt>
      <trkpt lat="46.09599" lon="6.14702">
        <ele>1358.4</ele>
        <time>2021-04-17T14:50:56Z</time>
      </trkpt>
      <trkpt lat="46.09604" lon="6.147">
        <ele>1358.4</ele>
        <time>2021-04-17T14:50:57Z</time>
      </trkpt>
      <trkpt lat="46.09609" lon="6.14699">
        <ele>1358.4</ele>
        <time>2021-04-17T14:50:58Z</time>
      </trkpt>
      <trkpt lat="46.09613" lon="6.14698">
        <ele>1358.2</ele>
        <time>2021-04-17T14:50:59Z</time>
      </trkpt>
      <trkpt lat="46.09618" lon="6.14696">
        <ele>1358.2</ele>
        <time>2021-04-17T14:51:00Z</time>
      </trkpt>
      <trkpt lat="46.09623" lon="6.14696">
        <ele>1358</ele>
        <time>2021-04-17T14:51:01Z</time>
      </trkpt>
      <trkpt lat="46.09628" lon="6.14695">
        <ele>1358</ele>
        <time>2021-04-17T14:51:02Z</time>
      </trkpt>
      <trkpt lat="46.09633" lon="6.14695">
        <ele>1357.8</ele>
        <time>2021-04-17T14:51:03Z</time>
      </trkpt>
      <trkpt lat="46.09638" lon="6.14694">
        <ele>1357.8</ele>
        <time>2021-04-17T14:51:04Z</time>
      </trkpt>
      <trkpt lat="46.09643" lon="6.14693">
        <ele>1357.8</ele>
        <time>2021-04-17T14:51:05Z</time>
      </trkpt>
      <trkpt lat="46.09648" lon="6.14693">
        <ele>1357.8</ele>
        <time>2021-04-17T14:51:06Z</time>
      </trkpt>
      <trkpt lat="46.09653" lon="6.14692">
        <ele>1357.8</ele>
        <time>2021-04-17T14:51:07Z</time>
      </trkpt>
      <trkpt lat="46.09658" lon="6.14691">
        <ele>1357.8</ele>
        <time>2021-04-17T14:51:08Z</time>
      </trkpt>
      <trkpt lat="46.09662" lon="6.14689">
        <ele>1357.6</ele>
        <time>2021-04-17T14:51:09Z</time>
      </trkpt>
      <trkpt lat="46.09667" lon="6.14687">
        <ele>1357.4</ele>
        <time>2021-04-17T14:51:10Z</time>
      </trkpt>
      <trkpt lat="46.09672" lon="6.14684">
        <ele>1357.4</ele>
        <time>2021-04-17T14:51:11Z</time>
      </trkpt>
      <trkpt lat="46.09677" lon="6.1468">
        <ele>1357</ele>
        <time>2021-04-17T14:51:12Z</time>
      </trkpt>
      <trkpt lat="46.09682" lon="6.14676">
        <ele>1357.2</ele>
        <time>2021-04-17T14:51:13Z</time>
      </trkpt>
      <trkpt lat="46.09686" lon="6.14672">
        <ele>1357</ele>
        <time>2021-04-17T14:51:14Z</time>
      </trkpt>
      <trkpt lat="46.09691" lon="6.14668">
        <ele>1357</ele>
        <time>2021-04-17T14:51:15Z</time>
      </trkpt>
      <trkpt lat="46.09696" lon="6.14664">
        <ele>1357</ele>
        <time>2021-04-17T14:51:16Z</time>
      </trkpt>
      <trkpt lat="46.09701" lon="6.14659">
        <ele>1357</ele>
        <time>2021-04-17T14:51:17Z</time>
      </trkpt>
      <trkpt lat="46.09706" lon="6.14655">
        <ele>1357</ele>
        <time>2021-04-17T14:51:18Z</time>
      </trkpt>
      <trkpt lat="46.09712" lon="6.14651">
        <ele>1356.8</ele>
        <time>2021-04-17T14:51:19Z</time>
      </trkpt>
      <trkpt lat="46.09717" lon="6.14646">
        <ele>1356.4</ele>
        <time>2021-04-17T14:51:20Z</time>
      </trkpt>
      <trkpt lat="46.09722" lon="6.14642">
        <ele>1356.2</ele>
        <time>2021-04-17T14:51:21Z</time>
      </trkpt>
      <trkpt lat="46.09727" lon="6.14637">
        <ele>1354.8</ele>
        <time>2021-04-17T14:51:22Z</time>
      </trkpt>
      <trkpt lat="46.09732" lon="6.14633">
        <ele>1353.4</ele>
        <time>2021-04-17T14:51:23Z</time>
      </trkpt>
      <trkpt lat="46.09738" lon="6.14628">
        <ele>1353</ele>
        <time>2021-04-17T14:51:24Z</time>
      </trkpt>
      <trkpt lat="46.09744" lon="6.14624">
        <ele>1352.4</ele>
        <time>2021-04-17T14:51:25Z</time>
      </trkpt>
      <trkpt lat="46.0975" lon="6.14621">
        <ele>1352.4</ele>
        <time>2021-04-17T14:51:26Z</time>
      </trkpt>
      <trkpt lat="46.09757" lon="6.14621">
        <ele>1352.2</ele>
        <time>2021-04-17T14:51:27Z</time>
      </trkpt>
      <trkpt lat="46.09763" lon="6.14622">
        <ele>1352.2</ele>
        <time>2021-04-17T14:51:28Z</time>
      </trkpt>
      <trkpt lat="46.0977" lon="6.14624">
        <ele>1352.2</ele>
        <time>2021-04-17T14:51:29Z</time>
      </trkpt>
      <trkpt lat="46.09776" lon="6.14628">
        <ele>1352.2</ele>
        <time>2021-04-17T14:51:30Z</time>
      </trkpt>
      <trkpt lat="46.09782" lon="6.14632">
        <ele>1352</ele>
        <time>2021-04-17T14:51:31Z</time>
      </trkpt>
      <trkpt lat="46.09789" lon="6.14637">
        <ele>1352</ele>
        <time>2021-04-17T14:51:32Z</time>
      </trkpt>
      <trkpt lat="46.09795" lon="6.14643">
        <ele>1352</ele>
        <time>2021-04-17T14:51:33Z</time>
      </trkpt>
      <trkpt lat="46.09801" lon="6.14649">
        <ele>1352</ele>
        <time>2021-04-17T14:51:34Z</time>
      </trkpt>
      <trkpt lat="46.09806" lon="6.14657">
        <ele>1352.2</ele>
        <time>2021-04-17T14:51:35Z</time>
      </trkpt>
      <trkpt lat="46.09812" lon="6.14664">
        <ele>1352.2</ele>
        <time>2021-04-17T14:51:36Z</time>
      </trkpt>
      <trkpt lat="46.09818" lon="6.14672">
        <ele>1352.2</ele>
        <time>2021-04-17T14:51:37Z</time>
      </trkpt>
      <trkpt lat="46.09823" lon="6.14679">
        <ele>1352.2</ele>
        <time>2021-04-17T14:51:38Z</time>
      </trkpt>
      <trkpt lat="46.09829" lon="6.14687">
        <ele>1352.2</ele>
        <time>2021-04-17T14:51:39Z</time>
      </trkpt>
      <trkpt lat="46.09835" lon="6.14695">
        <ele>1352.4</ele>
        <time>2021-04-17T14:51:40Z</time>
      </trkpt>
      <trkpt lat="46.09841" lon="6.14703">
        <ele>1352.2</ele>
        <time>2021-04-17T14:51:41Z</time>
      </trkpt>
      <trkpt lat="46.09847" lon="6.14712">
        <ele>1352.2</ele>
        <time>2021-04-17T14:51:42Z</time>
      </trkpt>
      <trkpt lat="46.09852" lon="6.14721">
        <ele>1352</ele>
        <time>2021-04-17T14:51:43Z</time>
      </trkpt>
      <trkpt lat="46.09858" lon="6.14731">
        <ele>1352</ele>
        <time>2021-04-17T14:51:44Z</time>
      </trkpt>
      <trkpt lat="46.09863" lon="6.14741">
        <ele>1352.2</ele>
        <time>2021-04-17T14:51:45Z</time>
      </trkpt>
      <trkpt lat="46.09868" lon="6.14752">
        <ele>1352</ele>
        <time>2021-04-17T14:51:46Z</time>
      </trkpt>
      <trkpt lat="46.09873" lon="6.14763">
        <ele>1352</ele>
        <time>2021-04-17T14:51:47Z</time>
      </trkpt>
      <trkpt lat="46.09878" lon="6.14774">
        <ele>1351.8</ele>
        <time>2021-04-17T14:51:48Z</time>
      </trkpt>
      <trkpt lat="46.09883" lon="6.14785">
        <ele>1351.2</ele>
        <time>2021-04-17T14:51:49Z</time>
      </trkpt>
      <trkpt lat="46.09888" lon="6.14795">
        <ele>1349.8</ele>
        <time>2021-04-17T14:51:50Z</time>
      </trkpt>
      <trkpt lat="46.09893" lon="6.14805">
        <ele>1349</ele>
        <time>2021-04-17T14:51:51Z</time>
      </trkpt>
      <trkpt lat="46.09899" lon="6.14813">
        <ele>1348.4</ele>
        <time>2021-04-17T14:51:52Z</time>
      </trkpt>
      <trkpt lat="46.09905" lon="6.14821">
        <ele>1348</ele>
        <time>2021-04-17T14:51:53Z</time>
      </trkpt>
      <trkpt lat="46.09912" lon="6.14828">
        <ele>1347.6</ele>
        <time>2021-04-17T14:51:54Z</time>
      </trkpt>
      <trkpt lat="46.09919" lon="6.14834">
        <ele>1347.2</ele>
        <time>2021-04-17T14:51:55Z</time>
      </trkpt>
      <trkpt lat="46.09927" lon="6.14839">
        <ele>1347</ele>
        <time>2021-04-17T14:51:56Z</time>
      </trkpt>
      <trkpt lat="46.09934" lon="6.14845">
        <ele>1346</ele>
        <time>2021-04-17T14:51:57Z</time>
      </trkpt>
      <trkpt lat="46.09942" lon="6.14851">
        <ele>1345.6</ele>
        <time>2021-04-17T14:51:58Z</time>
      </trkpt>
      <trkpt lat="46.0995" lon="6.14857">
        <ele>1345.4</ele>
        <time>2021-04-17T14:51:59Z</time>
      </trkpt>
      <trkpt lat="46.09957" lon="6.14862">
        <ele>1345.2</ele>
        <time>2021-04-17T14:52:00Z</time>
      </trkpt>
      <trkpt lat="46.09965" lon="6.14868">
        <ele>1345</ele>
        <time>2021-04-17T14:52:01Z</time>
      </trkpt>
      <trkpt lat="46.09972" lon="6.14873">
        <ele>1344.8</ele>
        <time>2021-04-17T14:52:02Z</time>
      </trkpt>
      <trkpt lat="46.0998" lon="6.14878">
        <ele>1344.8</ele>
        <time>2021-04-17T14:52:03Z</time>
      </trkpt>
      <trkpt lat="46.09987" lon="6.14882">
        <ele>1344.2</ele>
        <time>2021-04-17T14:52:04Z</time>
      </trkpt>
      <trkpt lat="46.09995" lon="6.14885">
        <ele>1343.8</ele>
        <time>2021-04-17T14:52:05Z</time>
      </trkpt>
      <trkpt lat="46.10002" lon="6.14885">
        <ele>1343</ele>
        <time>2021-04-17T14:52:06Z</time>
      </trkpt>
      <trkpt lat="46.10009" lon="6.14883">
        <ele>1342</ele>
        <time>2021-04-17T14:52:07Z</time>
      </trkpt>
      <trkpt lat="46.10016" lon="6.1488">
        <ele>1341.6</ele>
        <time>2021-04-17T14:52:08Z</time>
      </trkpt>
      <trkpt lat="46.10022" lon="6.14877">
        <ele>1341.4</ele>
        <time>2021-04-17T14:52:09Z</time>
      </trkpt>
      <trkpt lat="46.10029" lon="6.14873">
        <ele>1341.2</ele>
        <time>2021-04-17T14:52:10Z</time>
      </trkpt>
      <trkpt lat="46.10035" lon="6.1487">
        <ele>1341</ele>
        <time>2021-04-17T14:52:11Z</time>
      </trkpt>
      <trkpt lat="46.10042" lon="6.14868">
        <ele>1340.6</ele>
        <time>2021-04-17T14:52:12Z</time>
      </trkpt>
      <trkpt lat="46.10049" lon="6.14868">
        <ele>1340.4</ele>
        <time>2021-04-17T14:52:13Z</time>
      </trkpt>
      <trkpt lat="46.10055" lon="6.1487">
        <ele>1340</ele>
        <time>2021-04-17T14:52:14Z</time>
      </trkpt>
      <trkpt lat="46.10062" lon="6.14874">
        <ele>1339.8</ele>
        <time>2021-04-17T14:52:15Z</time>
      </trkpt>
      <trkpt lat="46.10067" lon="6.14879">
        <ele>1339.6</ele>
        <time>2021-04-17T14:52:16Z</time>
      </trkpt>
      <trkpt lat="46.10073" lon="6.14886">
        <ele>1339.4</ele>
        <time>2021-04-17T14:52:17Z</time>
      </trkpt>
      <trkpt lat="46.10078" lon="6.14893">
        <ele>1339.4</ele>
        <time>2021-04-17T14:52:18Z</time>
      </trkpt>
      <trkpt lat="46.10083" lon="6.14901">
        <ele>1339.2</ele>
        <time>2021-04-17T14:52:19Z</time>
      </trkpt>
      <trkpt lat="46.10088" lon="6.14908">
        <ele>1338.8</ele>
        <time>2021-04-17T14:52:20Z</time>
      </trkpt>
      <trkpt lat="46.10093" lon="6.14916">
        <ele>1338.8</ele>
        <time>2021-04-17T14:52:21Z</time>
      </trkpt>
      <trkpt lat="46.10098" lon="6.14923">
        <ele>1338.6</ele>
        <time>2021-04-17T14:52:22Z</time>
      </trkpt>
      <trkpt lat="46.10104" lon="6.1493">
        <ele>1338.4</ele>
        <time>2021-04-17T14:52:23Z</time>
      </trkpt>
      <trkpt lat="46.10109" lon="6.14938">
        <ele>1338.2</ele>
        <time>2021-04-17T14:52:24Z</time>
      </trkpt>
      <trkpt lat="46.10114" lon="6.14945">
        <ele>1338.2</ele>
        <time>2021-04-17T14:52:25Z</time>
      </trkpt>
      <trkpt lat="46.10119" lon="6.14953">
        <ele>1338.2</ele>
        <time>2021-04-17T14:52:26Z</time>
      </trkpt>
      <trkpt lat="46.10124" lon="6.14961">
        <ele>1338</ele>
        <time>2021-04-17T14:52:27Z</time>
      </trkpt>
      <trkpt lat="46.10129" lon="6.1497">
        <ele>1338</ele>
        <time>2021-04-17T14:52:28Z</time>
      </trkpt>
      <trkpt lat="46.10134" lon="6.14978">
        <ele>1337.8</ele>
        <time>2021-04-17T14:52:29Z</time>
      </trkpt>
      <trkpt lat="46.10139" lon="6.14987">
        <ele>1337.8</ele>
        <time>2021-04-17T14:52:30Z</time>
      </trkpt>
      <trkpt lat="46.10144" lon="6.14996">
        <ele>1337.6</ele>
        <time>2021-04-17T14:52:31Z</time>
      </trkpt>
      <trkpt lat="46.1015" lon="6.15005">
        <ele>1337.6</ele>
        <time>2021-04-17T14:52:32Z</time>
      </trkpt>
      <trkpt lat="46.10155" lon="6.15014">
        <ele>1337.4</ele>
        <time>2021-04-17T14:52:33Z</time>
      </trkpt>
      <trkpt lat="46.1016" lon="6.15023">
        <ele>1337</ele>
        <time>2021-04-17T14:52:34Z</time>
      </trkpt>
      <trkpt lat="46.10165" lon="6.15032">
        <ele>1336.4</ele>
        <time>2021-04-17T14:52:35Z</time>
      </trkpt>
      <trkpt lat="46.1017" lon="6.15041">
        <ele>1336.2</ele>
        <time>2021-04-17T14:52:36Z</time>
      </trkpt>
      <trkpt lat="46.10175" lon="6.1505">
        <ele>1335.8</ele>
        <time>2021-04-17T14:52:37Z</time>
      </trkpt>
      <trkpt lat="46.10181" lon="6.15058">
        <ele>1335.6</ele>
        <time>2021-04-17T14:52:38Z</time>
      </trkpt>
      <trkpt lat="46.10187" lon="6.15067">
        <ele>1335.2</ele>
        <time>2021-04-17T14:52:39Z</time>
      </trkpt>
      <trkpt lat="46.10193" lon="6.15075">
        <ele>1335</ele>
        <time>2021-04-17T14:52:40Z</time>
      </trkpt>
      <trkpt lat="46.10199" lon="6.15083">
        <ele>1334.6</ele>
        <time>2021-04-17T14:52:41Z</time>
      </trkpt>
      <trkpt lat="46.10205" lon="6.15091">
        <ele>1334.4</ele>
        <time>2021-04-17T14:52:42Z</time>
      </trkpt>
      <trkpt lat="46.10211" lon="6.15099">
        <ele>1333.6</ele>
        <time>2021-04-17T14:52:43Z</time>
      </trkpt>
      <trkpt lat="46.10218" lon="6.15107">
        <ele>1332.8</ele>
        <time>2021-04-17T14:52:44Z</time>
      </trkpt>
      <trkpt lat="46.10224" lon="6.15115">
        <ele>1332.4</ele>
        <time>2021-04-17T14:52:45Z</time>
      </trkpt>
      <trkpt lat="46.10231" lon="6.15124">
        <ele>1332</ele>
        <time>2021-04-17T14:52:46Z</time>
      </trkpt>
      <trkpt lat="46.10238" lon="6.15132">
        <ele>1331.8</ele>
        <time>2021-04-17T14:52:47Z</time>
      </trkpt>
      <trkpt lat="46.10246" lon="6.1514">
        <ele>1331.6</ele>
        <time>2021-04-17T14:52:48Z</time>
      </trkpt>
      <trkpt lat="46.10253" lon="6.15149">
        <ele>1331.6</ele>
        <time>2021-04-17T14:52:49Z</time>
      </trkpt>
      <trkpt lat="46.1026" lon="6.15158">
        <ele>1331</ele>
        <time>2021-04-17T14:52:50Z</time>
      </trkpt>
      <trkpt lat="46.10268" lon="6.15166">
        <ele>1330.2</ele>
        <time>2021-04-17T14:52:51Z</time>
      </trkpt>
      <trkpt lat="46.10275" lon="6.15174">
        <ele>1329.2</ele>
        <time>2021-04-17T14:52:52Z</time>
      </trkpt>
      <trkpt lat="46.10283" lon="6.15181">
        <ele>1328.8</ele>
        <time>2021-04-17T14:52:53Z</time>
      </trkpt>
      <trkpt lat="46.1029" lon="6.15189">
        <ele>1328.4</ele>
        <time>2021-04-17T14:52:54Z</time>
      </trkpt>
      <trkpt lat="46.10298" lon="6.15196">
        <ele>1328.2</ele>
        <time>2021-04-17T14:52:55Z</time>
      </trkpt>
      <trkpt lat="46.10307" lon="6.15203">
        <ele>1328</ele>
        <time>2021-04-17T14:52:56Z</time>
      </trkpt>
      <trkpt lat="46.10315" lon="6.15209">
        <ele>1328</ele>
        <time>2021-04-17T14:52:57Z</time>
      </trkpt>
      <trkpt lat="46.10323" lon="6.15216">
        <ele>1327.6</ele>
        <time>2021-04-17T14:52:58Z</time>
      </trkpt>
      <trkpt lat="46.10331" lon="6.15223">
        <ele>1327.4</ele>
        <time>2021-04-17T14:52:59Z</time>
      </trkpt>
      <trkpt lat="46.10339" lon="6.15229">
        <ele>1326.8</ele>
        <time>2021-04-17T14:53:00Z</time>
      </trkpt>
      <trkpt lat="46.10347" lon="6.15236">
        <ele>1326</ele>
        <time>2021-04-17T14:53:01Z</time>
      </trkpt>
      <trkpt lat="46.10355" lon="6.15243">
        <ele>1325.4</ele>
        <time>2021-04-17T14:53:02Z</time>
      </trkpt>
      <trkpt lat="46.10363" lon="6.15249">
        <ele>1324.8</ele>
        <time>2021-04-17T14:53:03Z</time>
      </trkpt>
      <trkpt lat="46.10371" lon="6.15256">
        <ele>1324.2</ele>
        <time>2021-04-17T14:53:04Z</time>
      </trkpt>
      <trkpt lat="46.10378" lon="6.15263">
        <ele>1323.4</ele>
        <time>2021-04-17T14:53:05Z</time>
      </trkpt>
      <trkpt lat="46.10386" lon="6.1527">
        <ele>1322.6</ele>
        <time>2021-04-17T14:53:06Z</time>
      </trkpt>
      <trkpt lat="46.10393" lon="6.15277">
        <ele>1322.4</ele>
        <time>2021-04-17T14:53:07Z</time>
      </trkpt>
      <trkpt lat="46.104" lon="6.15283">
        <ele>1322</ele>
        <time>2021-04-17T14:53:08Z</time>
      </trkpt>
      <trkpt lat="46.10408" lon="6.15289">
        <ele>1322</ele>
        <time>2021-04-17T14:53:09Z</time>
      </trkpt>
      <trkpt lat="46.10416" lon="6.15294">
        <ele>1321.6</ele>
        <time>2021-04-17T14:53:10Z</time>
      </trkpt>
      <trkpt lat="46.10424" lon="6.153">
        <ele>1321.6</ele>
        <time>2021-04-17T14:53:11Z</time>
      </trkpt>
      <trkpt lat="46.10432" lon="6.15304">
        <ele>1321.4</ele>
        <time>2021-04-17T14:53:12Z</time>
      </trkpt>
      <trkpt lat="46.1044" lon="6.15309">
        <ele>1321.4</ele>
        <time>2021-04-17T14:53:13Z</time>
      </trkpt>
      <trkpt lat="46.10448" lon="6.15313">
        <ele>1321.2</ele>
        <time>2021-04-17T14:53:14Z</time>
      </trkpt>
      <trkpt lat="46.10456" lon="6.15317">
        <ele>1321.2</ele>
        <time>2021-04-17T14:53:15Z</time>
      </trkpt>
      <trkpt lat="46.10464" lon="6.15321">
        <ele>1320.8</ele>
        <time>2021-04-17T14:53:16Z</time>
      </trkpt>
      <trkpt lat="46.10472" lon="6.15324">
        <ele>1320.8</ele>
        <time>2021-04-17T14:53:17Z</time>
      </trkpt>
      <trkpt lat="46.10481" lon="6.15328">
        <ele>1320.6</ele>
        <time>2021-04-17T14:53:18Z</time>
      </trkpt>
      <trkpt lat="46.10489" lon="6.15331">
        <ele>1320.6</ele>
        <time>2021-04-17T14:53:19Z</time>
      </trkpt>
      <trkpt lat="46.10497" lon="6.15334">
        <ele>1320.4</ele>
        <time>2021-04-17T14:53:20Z</time>
      </trkpt>
      <trkpt lat="46.10505" lon="6.15336">
        <ele>1320.4</ele>
        <time>2021-04-17T14:53:21Z</time>
      </trkpt>
      <trkpt lat="46.10514" lon="6.15337">
        <ele>1320</ele>
        <time>2021-04-17T14:53:22Z</time>
      </trkpt>
      <trkpt lat="46.10522" lon="6.15336">
        <ele>1319.8</ele>
        <time>2021-04-17T14:53:23Z</time>
      </trkpt>
      <trkpt lat="46.10531" lon="6.15333">
        <ele>1319.6</ele>
        <time>2021-04-17T14:53:24Z</time>
      </trkpt>
      <trkpt lat="46.10539" lon="6.1533">
        <ele>1319.4</ele>
        <time>2021-04-17T14:53:25Z</time>
      </trkpt>
      <trkpt lat="46.10548" lon="6.15328">
        <ele>1319.4</ele>
        <time>2021-04-17T14:53:26Z</time>
      </trkpt>
      <trkpt lat="46.10556" lon="6.15326">
        <ele>1319.2</ele>
        <time>2021-04-17T14:53:27Z</time>
      </trkpt>
      <trkpt lat="46.10565" lon="6.15326">
        <ele>1318.6</ele>
        <time>2021-04-17T14:53:28Z</time>
      </trkpt>
      <trkpt lat="46.10573" lon="6.15326">
        <ele>1318.4</ele>
        <time>2021-04-17T14:53:29Z</time>
      </trkpt>
      <trkpt lat="46.10581" lon="6.15328">
        <ele>1318.2</ele>
        <time>2021-04-17T14:53:30Z</time>
      </trkpt>
      <trkpt lat="46.1059" lon="6.15329">
        <ele>1318</ele>
        <time>2021-04-17T14:53:31Z</time>
      </trkpt>
      <trkpt lat="46.10598" lon="6.15331">
        <ele>1317.8</ele>
        <time>2021-04-17T14:53:32Z</time>
      </trkpt>
      <trkpt lat="46.10607" lon="6.15332">
        <ele>1317.8</ele>
        <time>2021-04-17T14:53:33Z</time>
      </trkpt>
      <trkpt lat="46.10615" lon="6.15334">
        <ele>1317.8</ele>
        <time>2021-04-17T14:53:34Z</time>
      </trkpt>
      <trkpt lat="46.10624" lon="6.15335">
        <ele>1317.6</ele>
        <time>2021-04-17T14:53:35Z</time>
      </trkpt>
      <trkpt lat="46.10632" lon="6.15337">
        <ele>1317.6</ele>
        <time>2021-04-17T14:53:36Z</time>
      </trkpt>
      <trkpt lat="46.1064" lon="6.1534">
        <ele>1317.6</ele>
        <time>2021-04-17T14:53:37Z</time>
      </trkpt>
      <trkpt lat="46.10649" lon="6.15342">
        <ele>1317.6</ele>
        <time>2021-04-17T14:53:38Z</time>
      </trkpt>
      <trkpt lat="46.10656" lon="6.15345">
        <ele>1317.4</ele>
        <time>2021-04-17T14:53:39Z</time>
      </trkpt>
      <trkpt lat="46.10664" lon="6.15349">
        <ele>1317.2</ele>
        <time>2021-04-17T14:53:40Z</time>
      </trkpt>
      <trkpt lat="46.10672" lon="6.15354">
        <ele>1317.2</ele>
        <time>2021-04-17T14:53:41Z</time>
      </trkpt>
      <trkpt lat="46.1068" lon="6.15358">
        <ele>1316.8</ele>
        <time>2021-04-17T14:53:42Z</time>
      </trkpt>
      <trkpt lat="46.10687" lon="6.15362">
        <ele>1316.6</ele>
        <time>2021-04-17T14:53:43Z</time>
      </trkpt>
      <trkpt lat="46.10695" lon="6.15366">
        <ele>1316.6</ele>
        <time>2021-04-17T14:53:44Z</time>
      </trkpt>
      <trkpt lat="46.10703" lon="6.1537">
        <ele>1316.2</ele>
        <time>2021-04-17T14:53:45Z</time>
      </trkpt>
      <trkpt lat="46.10711" lon="6.15374">
        <ele>1316</ele>
        <time>2021-04-17T14:53:46Z</time>
      </trkpt>
      <trkpt lat="46.10719" lon="6.15378">
        <ele>1316</ele>
        <time>2021-04-17T14:53:47Z</time>
      </trkpt>
      <trkpt lat="46.10727" lon="6.15382">
        <ele>1316</ele>
        <time>2021-04-17T14:53:48Z</time>
      </trkpt>
      <trkpt lat="46.10735" lon="6.15386">
        <ele>1315.8</ele>
        <time>2021-04-17T14:53:49Z</time>
      </trkpt>
      <trkpt lat="46.10743" lon="6.15391">
        <ele>1315.6</ele>
        <time>2021-04-17T14:53:50Z</time>
      </trkpt>
      <trkpt lat="46.10751" lon="6.15395">
        <ele>1315.2</ele>
        <time>2021-04-17T14:53:51Z</time>
      </trkpt>
      <trkpt lat="46.1076" lon="6.154">
        <ele>1315.4</ele>
        <time>2021-04-17T14:53:52Z</time>
      </trkpt>
      <trkpt lat="46.10768" lon="6.15404">
        <ele>1315</ele>
        <time>2021-04-17T14:53:53Z</time>
      </trkpt>
      <trkpt lat="46.10777" lon="6.15409">
        <ele>1314.6</ele>
        <time>2021-04-17T14:53:54Z</time>
      </trkpt>
      <trkpt lat="46.10785" lon="6.15415">
        <ele>1314.2</ele>
        <time>2021-04-17T14:53:55Z</time>
      </trkpt>
      <trkpt lat="46.10794" lon="6.15421">
        <ele>1314.2</ele>
        <time>2021-04-17T14:53:56Z</time>
      </trkpt>
      <trkpt lat="46.10802" lon="6.15427">
        <ele>1313.6</ele>
        <time>2021-04-17T14:53:57Z</time>
      </trkpt>
      <trkpt lat="46.1081" lon="6.15433">
        <ele>1312.8</ele>
        <time>2021-04-17T14:53:58Z</time>
      </trkpt>
      <trkpt lat="46.10819" lon="6.15439">
        <ele>1312.2</ele>
        <time>2021-04-17T14:53:59Z</time>
      </trkpt>
      <trkpt lat="46.10826" lon="6.15445">
        <ele>1311.6</ele>
        <time>2021-04-17T14:54:00Z</time>
      </trkpt>
      <trkpt lat="46.10834" lon="6.15451">
        <ele>1311</ele>
        <time>2021-04-17T14:54:01Z</time>
      </trkpt>
      <trkpt lat="46.10842" lon="6.15457">
        <ele>1310.6</ele>
        <time>2021-04-17T14:54:02Z</time>
      </trkpt>
      <trkpt lat="46.10849" lon="6.15463">
        <ele>1309.8</ele>
        <time>2021-04-17T14:54:03Z</time>
      </trkpt>
      <trkpt lat="46.10857" lon="6.15468">
        <ele>1309</ele>
        <time>2021-04-17T14:54:04Z</time>
      </trkpt>
      <trkpt lat="46.10865" lon="6.15474">
        <ele>1308.2</ele>
        <time>2021-04-17T14:54:05Z</time>
      </trkpt>
      <trkpt lat="46.10873" lon="6.1548">
        <ele>1307.4</ele>
        <time>2021-04-17T14:54:06Z</time>
      </trkpt>
      <trkpt lat="46.10881" lon="6.15485">
        <ele>1307</ele>
        <time>2021-04-17T14:54:07Z</time>
      </trkpt>
      <trkpt lat="46.10889" lon="6.15491">
        <ele>1306.4</ele>
        <time>2021-04-17T14:54:08Z</time>
      </trkpt>
      <trkpt lat="46.10898" lon="6.15496">
        <ele>1306</ele>
        <time>2021-04-17T14:54:09Z</time>
      </trkpt>
      <trkpt lat="46.10906" lon="6.15502">
        <ele>1304.8</ele>
        <time>2021-04-17T14:54:10Z</time>
      </trkpt>
      <trkpt lat="46.10914" lon="6.15507">
        <ele>1304</ele>
        <time>2021-04-17T14:54:11Z</time>
      </trkpt>
      <trkpt lat="46.10923" lon="6.15513">
        <ele>1303.6</ele>
        <time>2021-04-17T14:54:12Z</time>
      </trkpt>
      <trkpt lat="46.10931" lon="6.15519">
        <ele>1303.2</ele>
        <time>2021-04-17T14:54:13Z</time>
      </trkpt>
      <trkpt lat="46.10939" lon="6.15525">
        <ele>1302.8</ele>
        <time>2021-04-17T14:54:14Z</time>
      </trkpt>
      <trkpt lat="46.10947" lon="6.15531">
        <ele>1302.4</ele>
        <time>2021-04-17T14:54:15Z</time>
      </trkpt>
      <trkpt lat="46.10956" lon="6.15537">
        <ele>1302.4</ele>
        <time>2021-04-17T14:54:16Z</time>
      </trkpt>
      <trkpt lat="46.10964" lon="6.15543">
        <ele>1302.2</ele>
        <time>2021-04-17T14:54:17Z</time>
      </trkpt>
      <trkpt lat="46.10972" lon="6.1555">
        <ele>1302</ele>
        <time>2021-04-17T14:54:18Z</time>
      </trkpt>
      <trkpt lat="46.1098" lon="6.15556">
        <ele>1301.6</ele>
        <time>2021-04-17T14:54:19Z</time>
      </trkpt>
      <trkpt lat="46.10988" lon="6.15562">
        <ele>1301.2</ele>
        <time>2021-04-17T14:54:20Z</time>
      </trkpt>
      <trkpt lat="46.10996" lon="6.15569">
        <ele>1300.8</ele>
        <time>2021-04-17T14:54:21Z</time>
      </trkpt>
      <trkpt lat="46.11004" lon="6.15575">
        <ele>1300.4</ele>
        <time>2021-04-17T14:54:22Z</time>
      </trkpt>
      <trkpt lat="46.11012" lon="6.15582">
        <ele>1299.8</ele>
        <time>2021-04-17T14:54:23Z</time>
      </trkpt>
      <trkpt lat="46.1102" lon="6.15589">
        <ele>1299</ele>
        <time>2021-04-17T14:54:24Z</time>
      </trkpt>
      <trkpt lat="46.11029" lon="6.15595">
        <ele>1298.2</ele>
        <time>2021-04-17T14:54:25Z</time>
      </trkpt>
      <trkpt lat="46.11037" lon="6.15602">
        <ele>1297.8</ele>
        <time>2021-04-17T14:54:26Z</time>
      </trkpt>
      <trkpt lat="46.11046" lon="6.15608">
        <ele>1297.2</ele>
        <time>2021-04-17T14:54:27Z</time>
      </trkpt>
      <trkpt lat="46.11054" lon="6.15614">
        <ele>1297</ele>
        <time>2021-04-17T14:54:28Z</time>
      </trkpt>
      <trkpt lat="46.11063" lon="6.15621">
        <ele>1296.4</ele>
        <time>2021-04-17T14:54:29Z</time>
      </trkpt>
      <trkpt lat="46.11072" lon="6.15628">
        <ele>1296.2</ele>
        <time>2021-04-17T14:54:30Z</time>
      </trkpt>
      <trkpt lat="46.11081" lon="6.15635">
        <ele>1295.8</ele>
        <time>2021-04-17T14:54:31Z</time>
      </trkpt>
      <trkpt lat="46.11089" lon="6.15642">
        <ele>1295.6</ele>
        <time>2021-04-17T14:54:32Z</time>
      </trkpt>
      <trkpt lat="46.11098" lon="6.1565">
        <ele>1295.6</ele>
        <time>2021-04-17T14:54:33Z</time>
      </trkpt>
      <trkpt lat="46.11107" lon="6.15657">
        <ele>1295.4</ele>
        <time>2021-04-17T14:54:34Z</time>
      </trkpt>
      <trkpt lat="46.11115" lon="6.15665">
        <ele>1295.4</ele>
        <time>2021-04-17T14:54:35Z</time>
      </trkpt>
      <trkpt lat="46.11124" lon="6.15673">
        <ele>1295.2</ele>
        <time>2021-04-17T14:54:36Z</time>
      </trkpt>
      <trkpt lat="46.11133" lon="6.15681">
        <ele>1294.8</ele>
        <time>2021-04-17T14:54:37Z</time>
      </trkpt>
      <trkpt lat="46.11142" lon="6.1569">
        <ele>1294.4</ele>
        <time>2021-04-17T14:54:38Z</time>
      </trkpt>
      <trkpt lat="46.11151" lon="6.15698">
        <ele>1293.4</ele>
        <time>2021-04-17T14:54:39Z</time>
      </trkpt>
      <trkpt lat="46.1116" lon="6.15706">
        <ele>1292.8</ele>
        <time>2021-04-17T14:54:40Z</time>
      </trkpt>
      <trkpt lat="46.11169" lon="6.15714">
        <ele>1292.4</ele>
        <time>2021-04-17T14:54:41Z</time>
      </trkpt>
      <trkpt lat="46.11178" lon="6.15722">
        <ele>1292.2</ele>
        <time>2021-04-17T14:54:42Z</time>
      </trkpt>
      <trkpt lat="46.11186" lon="6.15731">
        <ele>1291.8</ele>
        <time>2021-04-17T14:54:43Z</time>
      </trkpt>
      <trkpt lat="46.11195" lon="6.1574">
        <ele>1291.2</ele>
        <time>2021-04-17T14:54:44Z</time>
      </trkpt>
      <trkpt lat="46.11203" lon="6.15749">
        <ele>1290.6</ele>
        <time>2021-04-17T14:54:45Z</time>
      </trkpt>
      <trkpt lat="46.11211" lon="6.15758">
        <ele>1290</ele>
        <time>2021-04-17T14:54:46Z</time>
      </trkpt>
      <trkpt lat="46.1122" lon="6.15767">
        <ele>1289.4</ele>
        <time>2021-04-17T14:54:47Z</time>
      </trkpt>
      <trkpt lat="46.11228" lon="6.15776">
        <ele>1288.8</ele>
        <time>2021-04-17T14:54:48Z</time>
      </trkpt>
      <trkpt lat="46.11236" lon="6.15785">
        <ele>1287.6</ele>
        <time>2021-04-17T14:54:49Z</time>
      </trkpt>
      <trkpt lat="46.11245" lon="6.15794">
        <ele>1286.8</ele>
        <time>2021-04-17T14:54:50Z</time>
      </trkpt>
      <trkpt lat="46.11253" lon="6.15803">
        <ele>1286</ele>
        <time>2021-04-17T14:54:51Z</time>
      </trkpt>
      <trkpt lat="46.11262" lon="6.15811">
        <ele>1285.2</ele>
        <time>2021-04-17T14:54:52Z</time>
      </trkpt>
      <trkpt lat="46.1127" lon="6.15819">
        <ele>1284.6</ele>
        <time>2021-04-17T14:54:53Z</time>
      </trkpt>
      <trkpt lat="46.11279" lon="6.15827">
        <ele>1284.2</ele>
        <time>2021-04-17T14:54:54Z</time>
      </trkpt>
      <trkpt lat="46.11288" lon="6.15835">
        <ele>1283.6</ele>
        <time>2021-04-17T14:54:55Z</time>
      </trkpt>
      <trkpt lat="46.11297" lon="6.15844">
        <ele>1283</ele>
        <time>2021-04-17T14:54:56Z</time>
      </trkpt>
      <trkpt lat="46.11306" lon="6.15852">
        <ele>1282.6</ele>
        <time>2021-04-17T14:54:57Z</time>
      </trkpt>
      <trkpt lat="46.11315" lon="6.15861">
        <ele>1282</ele>
        <time>2021-04-17T14:54:58Z</time>
      </trkpt>
      <trkpt lat="46.11323" lon="6.1587">
        <ele>1281.2</ele>
        <time>2021-04-17T14:54:59Z</time>
      </trkpt>
      <trkpt lat="46.11332" lon="6.15879">
        <ele>1280.8</ele>
        <time>2021-04-17T14:55:00Z</time>
      </trkpt>
      <trkpt lat="46.11341" lon="6.15888">
        <ele>1280.4</ele>
        <time>2021-04-17T14:55:01Z</time>
      </trkpt>
      <trkpt lat="46.11351" lon="6.15896">
        <ele>1280.2</ele>
        <time>2021-04-17T14:55:02Z</time>
      </trkpt>
      <trkpt lat="46.1136" lon="6.15904">
        <ele>1279.4</ele>
        <time>2021-04-17T14:55:03Z</time>
      </trkpt>
      <trkpt lat="46.1137" lon="6.15912">
        <ele>1278.4</ele>
        <time>2021-04-17T14:55:04Z</time>
      </trkpt>
      <trkpt lat="46.1138" lon="6.15919">
        <ele>1277.6</ele>
        <time>2021-04-17T14:55:05Z</time>
      </trkpt>
      <trkpt lat="46.1139" lon="6.15926">
        <ele>1277.4</ele>
        <time>2021-04-17T14:55:06Z</time>
      </trkpt>
      <trkpt lat="46.114" lon="6.15933">
        <ele>1277</ele>
        <time>2021-04-17T14:55:07Z</time>
      </trkpt>
      <trkpt lat="46.11409" lon="6.15942">
        <ele>1276.8</ele>
        <time>2021-04-17T14:55:08Z</time>
      </trkpt>
      <trkpt lat="46.11419" lon="6.1595">
        <ele>1276.6</ele>
        <time>2021-04-17T14:55:09Z</time>
      </trkpt>
      <trkpt lat="46.11428" lon="6.15959">
        <ele>1276.4</ele>
        <time>2021-04-17T14:55:10Z</time>
      </trkpt>
      <trkpt lat="46.11437" lon="6.15969">
        <ele>1276.2</ele>
        <time>2021-04-17T14:55:11Z</time>
      </trkpt>
      <trkpt lat="46.11447" lon="6.15978">
        <ele>1275.6</ele>
        <time>2021-04-17T14:55:12Z</time>
      </trkpt>
      <trkpt lat="46.11456" lon="6.15988">
        <ele>1275</ele>
        <time>2021-04-17T14:55:13Z</time>
      </trkpt>
      <trkpt lat="46.11465" lon="6.15998">
        <ele>1273.8</ele>
        <time>2021-04-17T14:55:14Z</time>
      </trkpt>
      <trkpt lat="46.11474" lon="6.16009">
        <ele>1273.2</ele>
        <time>2021-04-17T14:55:15Z</time>
      </trkpt>
      <trkpt lat="46.11483" lon="6.16021">
        <ele>1272.8</ele>
        <time>2021-04-17T14:55:16Z</time>
      </trkpt>
      <trkpt lat="46.1149" lon="6.16035">
        <ele>1272.8</ele>
        <time>2021-04-17T14:55:17Z</time>
      </trkpt>
      <trkpt lat="46.11497" lon="6.16049">
        <ele>1272.6</ele>
        <time>2021-04-17T14:55:18Z</time>
      </trkpt>
      <trkpt lat="46.11504" lon="6.16064">
        <ele>1272</ele>
        <time>2021-04-17T14:55:19Z</time>
      </trkpt>
      <trkpt lat="46.11511" lon="6.16078">
        <ele>1271.6</ele>
        <time>2021-04-17T14:55:20Z</time>
      </trkpt>
      <trkpt lat="46.11518" lon="6.16093">
        <ele>1271.4</ele>
        <time>2021-04-17T14:55:21Z</time>
      </trkpt>
      <trkpt lat="46.11524" lon="6.16108">
        <ele>1270.8</ele>
        <time>2021-04-17T14:55:22Z</time>
      </trkpt>
      <trkpt lat="46.11529" lon="6.16124">
        <ele>1270.2</ele>
        <time>2021-04-17T14:55:23Z</time>
      </trkpt>
      <trkpt lat="46.11535" lon="6.16139">
        <ele>1269</ele>
        <time>2021-04-17T14:55:24Z</time>
      </trkpt>
      <trkpt lat="46.1154" lon="6.16155">
        <ele>1268</ele>
        <time>2021-04-17T14:55:25Z</time>
      </trkpt>
      <trkpt lat="46.11546" lon="6.16169">
        <ele>1267.2</ele>
        <time>2021-04-17T14:55:26Z</time>
      </trkpt>
      <trkpt lat="46.11553" lon="6.16183">
        <ele>1266.4</ele>
        <time>2021-04-17T14:55:27Z</time>
      </trkpt>
      <trkpt lat="46.11562" lon="6.16194">
        <ele>1265.6</ele>
        <time>2021-04-17T14:55:28Z</time>
      </trkpt>
      <trkpt lat="46.11572" lon="6.16204">
        <ele>1264.6</ele>
        <time>2021-04-17T14:55:29Z</time>
      </trkpt>
      <trkpt lat="46.11582" lon="6.16212">
        <ele>1264.6</ele>
        <time>2021-04-17T14:55:30Z</time>
      </trkpt>
      <trkpt lat="46.11592" lon="6.16219">
        <ele>1263.8</ele>
        <time>2021-04-17T14:55:31Z</time>
      </trkpt>
      <trkpt lat="46.11604" lon="6.16224">
        <ele>1263</ele>
        <time>2021-04-17T14:55:32Z</time>
      </trkpt>
      <trkpt lat="46.11615" lon="6.16229">
        <ele>1262.4</ele>
        <time>2021-04-17T14:55:33Z</time>
      </trkpt>
      <trkpt lat="46.11627" lon="6.16233">
        <ele>1262</ele>
        <time>2021-04-17T14:55:34Z</time>
      </trkpt>
      <trkpt lat="46.11639" lon="6.16237">
        <ele>1261.2</ele>
        <time>2021-04-17T14:55:35Z</time>
      </trkpt>
      <trkpt lat="46.1165" lon="6.16241">
        <ele>1260.8</ele>
        <time>2021-04-17T14:55:36Z</time>
      </trkpt>
      <trkpt lat="46.11662" lon="6.16246">
        <ele>1260.4</ele>
        <time>2021-04-17T14:55:37Z</time>
      </trkpt>
      <trkpt lat="46.11673" lon="6.16251">
        <ele>1259.8</ele>
        <time>2021-04-17T14:55:38Z</time>
      </trkpt>
      <trkpt lat="46.11684" lon="6.16258">
        <ele>1259</ele>
        <time>2021-04-17T14:55:39Z</time>
      </trkpt>
      <trkpt lat="46.11695" lon="6.16264">
        <ele>1258.2</ele>
        <time>2021-04-17T14:55:40Z</time>
      </trkpt>
      <trkpt lat="46.11706" lon="6.16271">
        <ele>1257.4</ele>
        <time>2021-04-17T14:55:41Z</time>
      </trkpt>
      <trkpt lat="46.11718" lon="6.16278">
        <ele>1256</ele>
        <time>2021-04-17T14:55:42Z</time>
      </trkpt>
      <trkpt lat="46.1173" lon="6.16284">
        <ele>1254.4</ele>
        <time>2021-04-17T14:55:43Z</time>
      </trkpt>
      <trkpt lat="46.11741" lon="6.16291">
        <ele>1253</ele>
        <time>2021-04-17T14:55:44Z</time>
      </trkpt>
      <trkpt lat="46.11752" lon="6.16297">
        <ele>1252.2</ele>
        <time>2021-04-17T14:55:45Z</time>
      </trkpt>
      <trkpt lat="46.11763" lon="6.16304">
        <ele>1251.6</ele>
        <time>2021-04-17T14:55:46Z</time>
      </trkpt>
      <trkpt lat="46.11773" lon="6.16311">
        <ele>1251.2</ele>
        <time>2021-04-17T14:55:47Z</time>
      </trkpt>
      <trkpt lat="46.11784" lon="6.16318">
        <ele>1250.2</ele>
        <time>2021-04-17T14:55:48Z</time>
      </trkpt>
      <trkpt lat="46.11794" lon="6.16326">
        <ele>1249.6</ele>
        <time>2021-04-17T14:55:49Z</time>
      </trkpt>
      <trkpt lat="46.11805" lon="6.16335">
        <ele>1248.6</ele>
        <time>2021-04-17T14:55:50Z</time>
      </trkpt>
      <trkpt lat="46.11815" lon="6.16345">
        <ele>1248</ele>
        <time>2021-04-17T14:55:51Z</time>
      </trkpt>
      <trkpt lat="46.11824" lon="6.16356">
        <ele>1246.8</ele>
        <time>2021-04-17T14:55:52Z</time>
      </trkpt>
      <trkpt lat="46.11833" lon="6.16367">
        <ele>1246</ele>
        <time>2021-04-17T14:55:53Z</time>
      </trkpt>
      <trkpt lat="46.11841" lon="6.16379">
        <ele>1245</ele>
        <time>2021-04-17T14:55:54Z</time>
      </trkpt>
      <trkpt lat="46.11849" lon="6.16392">
        <ele>1244.6</ele>
        <time>2021-04-17T14:55:55Z</time>
      </trkpt>
      <trkpt lat="46.11857" lon="6.16405">
        <ele>1244.2</ele>
        <time>2021-04-17T14:55:56Z</time>
      </trkpt>
      <trkpt lat="46.11865" lon="6.16419">
        <ele>1244</ele>
        <time>2021-04-17T14:55:57Z</time>
      </trkpt>
      <trkpt lat="46.11872" lon="6.16432">
        <ele>1243.2</ele>
        <time>2021-04-17T14:55:58Z</time>
      </trkpt>
      <trkpt lat="46.11879" lon="6.16445">
        <ele>1242.4</ele>
        <time>2021-04-17T14:55:59Z</time>
      </trkpt>
      <trkpt lat="46.11886" lon="6.16459">
        <ele>1241.4</ele>
        <time>2021-04-17T14:56:00Z</time>
      </trkpt>
      <trkpt lat="46.11893" lon="6.16473">
        <ele>1240.4</ele>
        <time>2021-04-17T14:56:01Z</time>
      </trkpt>
      <trkpt lat="46.11899" lon="6.16488">
        <ele>1240</ele>
        <time>2021-04-17T14:56:02Z</time>
      </trkpt>
      <trkpt lat="46.11905" lon="6.16503">
        <ele>1239.2</ele>
        <time>2021-04-17T14:56:03Z</time>
      </trkpt>
      <trkpt lat="46.11911" lon="6.16517">
        <ele>1238.6</ele>
        <time>2021-04-17T14:56:04Z</time>
      </trkpt>
      <trkpt lat="46.11917" lon="6.16533">
        <ele>1237.6</ele>
        <time>2021-04-17T14:56:05Z</time>
      </trkpt>
      <trkpt lat="46.11923" lon="6.16548">
        <ele>1236</ele>
        <time>2021-04-17T14:56:06Z</time>
      </trkpt>
      <trkpt lat="46.11928" lon="6.16564">
        <ele>1235</ele>
        <time>2021-04-17T14:56:07Z</time>
      </trkpt>
      <trkpt lat="46.11932" lon="6.16581">
        <ele>1234.4</ele>
        <time>2021-04-17T14:56:08Z</time>
      </trkpt>
      <trkpt lat="46.11935" lon="6.16598">
        <ele>1234</ele>
        <time>2021-04-17T14:56:09Z</time>
      </trkpt>
      <trkpt lat="46.11937" lon="6.16615">
        <ele>1233.8</ele>
        <time>2021-04-17T14:56:10Z</time>
      </trkpt>
      <trkpt lat="46.11938" lon="6.16633">
        <ele>1233.6</ele>
        <time>2021-04-17T14:56:11Z</time>
      </trkpt>
      <trkpt lat="46.11938" lon="6.16651">
        <ele>1232.6</ele>
        <time>2021-04-17T14:56:12Z</time>
      </trkpt>
      <trkpt lat="46.11939" lon="6.16669">
        <ele>1232</ele>
        <time>2021-04-17T14:56:13Z</time>
      </trkpt>
      <trkpt lat="46.1194" lon="6.16687">
        <ele>1231.2</ele>
        <time>2021-04-17T14:56:14Z</time>
      </trkpt>
      <trkpt lat="46.11941" lon="6.16705">
        <ele>1230.4</ele>
        <time>2021-04-17T14:56:15Z</time>
      </trkpt>
      <trkpt lat="46.1194" lon="6.16722">
        <ele>1229.4</ele>
        <time>2021-04-17T14:56:16Z</time>
      </trkpt>
      <trkpt lat="46.11939" lon="6.16739">
        <ele>1228.8</ele>
        <time>2021-04-17T14:56:17Z</time>
      </trkpt>
      <trkpt lat="46.11937" lon="6.16756">
        <ele>1227.6</ele>
        <time>2021-04-17T14:56:18Z</time>
      </trkpt>
      <trkpt lat="46.11934" lon="6.16773">
        <ele>1226.6</ele>
        <time>2021-04-17T14:56:19Z</time>
      </trkpt>
      <trkpt lat="46.11931" lon="6.16789">
        <ele>1225.4</ele>
        <time>2021-04-17T14:56:20Z</time>
      </trkpt>
      <trkpt lat="46.11928" lon="6.16805">
        <ele>1224.4</ele>
        <time>2021-04-17T14:56:21Z</time>
      </trkpt>
      <trkpt lat="46.11927" lon="6.16821">
        <ele>1223.4</ele>
        <time>2021-04-17T14:56:22Z</time>
      </trkpt>
      <trkpt lat="46.11926" lon="6.16837">
        <ele>1222.4</ele>
        <time>2021-04-17T14:56:23Z</time>
      </trkpt>
      <trkpt lat="46.11926" lon="6.16852">
        <ele>1221.6</ele>
        <time>2021-04-17T14:56:24Z</time>
      </trkpt>
      <trkpt lat="46.11926" lon="6.16868">
        <ele>1220.8</ele>
        <time>2021-04-17T14:56:25Z</time>
      </trkpt>
      <trkpt lat="46.11927" lon="6.16883">
        <ele>1220</ele>
        <time>2021-04-17T14:56:26Z</time>
      </trkpt>
      <trkpt lat="46.11928" lon="6.16899">
        <ele>1219.4</ele>
        <time>2021-04-17T14:56:27Z</time>
      </trkpt>
      <trkpt lat="46.11929" lon="6.16914">
        <ele>1218</ele>
        <time>2021-04-17T14:56:28Z</time>
      </trkpt>
      <trkpt lat="46.11931" lon="6.16929">
        <ele>1217</ele>
        <time>2021-04-17T14:56:29Z</time>
      </trkpt>
      <trkpt lat="46.11934" lon="6.16944">
        <ele>1215.6</ele>
        <time>2021-04-17T14:56:30Z</time>
      </trkpt>
      <trkpt lat="46.11936" lon="6.16959">
        <ele>1214.8</ele>
        <time>2021-04-17T14:56:31Z</time>
      </trkpt>
      <trkpt lat="46.11938" lon="6.16975">
        <ele>1214.4</ele>
        <time>2021-04-17T14:56:32Z</time>
      </trkpt>
      <trkpt lat="46.11937" lon="6.1699">
        <ele>1214</ele>
        <time>2021-04-17T14:56:33Z</time>
      </trkpt>
      <trkpt lat="46.11936" lon="6.17006">
        <ele>1213.4</ele>
        <time>2021-04-17T14:56:34Z</time>
      </trkpt>
      <trkpt lat="46.11935" lon="6.17022">
        <ele>1212.6</ele>
        <time>2021-04-17T14:56:35Z</time>
      </trkpt>
      <trkpt lat="46.11935" lon="6.17037">
        <ele>1212.2</ele>
        <time>2021-04-17T14:56:36Z</time>
      </trkpt>
      <trkpt lat="46.11938" lon="6.17052">
        <ele>1211.2</ele>
        <time>2021-04-17T14:56:37Z</time>
      </trkpt>
      <trkpt lat="46.11941" lon="6.17066">
        <ele>1211</ele>
        <time>2021-04-17T14:56:38Z</time>
      </trkpt>
      <trkpt lat="46.11944" lon="6.17078">
        <ele>1210.2</ele>
        <time>2021-04-17T14:56:39Z</time>
      </trkpt>
      <trkpt lat="46.11946" lon="6.1709">
        <ele>1209.4</ele>
        <time>2021-04-17T14:56:40Z</time>
      </trkpt>
      <trkpt lat="46.11947" lon="6.17103">
        <ele>1208.8</ele>
        <time>2021-04-17T14:56:41Z</time>
      </trkpt>
      <trkpt lat="46.11947" lon="6.17115">
        <ele>1208.6</ele>
        <time>2021-04-17T14:56:42Z</time>
      </trkpt>
      <trkpt lat="46.11947" lon="6.17137">
        <ele>1207.6</ele>
        <time>2021-04-17T14:56:44Z</time>
      </trkpt>
      <trkpt lat="46.11948" lon="6.17147">
        <ele>1206.4</ele>
        <time>2021-04-17T14:56:45Z</time>
      </trkpt>
      <trkpt lat="46.11951" lon="6.17167">
        <ele>1205</ele>
        <time>2021-04-17T14:56:47Z</time>
      </trkpt>
      <trkpt lat="46.11953" lon="6.17174">
        <ele>1204.6</ele>
        <time>2021-04-17T14:56:48Z</time>
      </trkpt>
      <trkpt lat="46.11955" lon="6.17181">
        <ele>1204</ele>
        <time>2021-04-17T14:56:49Z</time>
      </trkpt>
      <trkpt lat="46.11958" lon="6.17186">
        <ele>1203.8</ele>
        <time>2021-04-17T14:56:50Z</time>
      </trkpt>
      <trkpt lat="46.1196" lon="6.17191">
        <ele>1203.4</ele>
        <time>2021-04-17T14:56:51Z</time>
      </trkpt>
      <trkpt lat="46.11961" lon="6.17195">
        <ele>1203.2</ele>
        <time>2021-04-17T14:56:52Z</time>
      </trkpt>
      <trkpt lat="46.11962" lon="6.17199">
        <ele>1203.2</ele>
        <time>2021-04-17T14:56:53Z</time>
      </trkpt>
      <trkpt lat="46.11963" lon="6.17201">
        <ele>1203.2</ele>
        <time>2021-04-17T14:56:54Z</time>
      </trkpt>
      <trkpt lat="46.11963" lon="6.17203">
        <ele>1203.2</ele>
        <time>2021-04-17T14:56:55Z</time>
      </trkpt>
      <trkpt lat="46.11963" lon="6.17202">
        <ele>1203.2</ele>
        <time>2021-04-17T14:56:56Z</time>
      </trkpt>
      <trkpt lat="46.11963" lon="6.17202">
        <ele>1203.2</ele>
        <time>2021-04-17T14:56:57Z</time>
      </trkpt>
      <trkpt lat="46.11963" lon="6.17202">
        <ele>1203.2</ele>
        <time>2021-04-17T14:56:58Z</time>
      </trkpt>
      <trkpt lat="46.11963" lon="6.17202">
        <ele>1203.2</ele>
        <time>2021-04-17T14:56:59Z</time>
      </trkpt>
      <trkpt lat="46.11963" lon="6.17201">
        <ele>1203.6</ele>
        <time>2021-04-17T14:57:00Z</time>
      </trkpt>
      <trkpt lat="46.11963" lon="6.17201">
        <ele>1203.8</ele>
        <time>2021-04-17T14:57:01Z</time>
      </trkpt>
      <trkpt lat="46.11963" lon="6.17201">
        <ele>1203.8</ele>
        <time>2021-04-17T14:57:02Z</time>
      </trkpt>
      <trkpt lat="46.11962" lon="6.17201">
        <ele>1203.8</ele>
        <time>2021-04-17T14:57:03Z</time>
      </trkpt>
      <trkpt lat="46.11962" lon="6.17201">
        <ele>1203.8</ele>
        <time>2021-04-17T14:57:04Z</time>
      </trkpt>
      <trkpt lat="46.11962" lon="6.17201">
        <ele>1204</ele>
        <time>2021-04-17T14:57:05Z</time>
      </trkpt>
      <trkpt lat="46.11961" lon="6.17201">
        <ele>1204</ele>
        <time>2021-04-17T14:57:06Z</time>
      </trkpt>
      <trkpt lat="46.11961" lon="6.17201">
        <ele>1204</ele>
        <time>2021-04-17T14:57:07Z</time>
      </trkpt>
      <trkpt lat="46.11961" lon="6.17201">
        <ele>1204</ele>
        <time>2021-04-17T14:57:08Z</time>
      </trkpt>
      <trkpt lat="46.11961" lon="6.17201">
        <ele>1204</ele>
        <time>2021-04-17T14:57:09Z</time>
      </trkpt>
      <trkpt lat="46.11962" lon="6.17201">
        <ele>1204</ele>
        <time>2021-04-17T14:57:10Z</time>
      </trkpt>
      <trkpt lat="46.11962" lon="6.17201">
        <ele>1204</ele>
        <time>2021-04-17T14:57:11Z</time>
      </trkpt>
      <trkpt lat="46.11962" lon="6.17201">
        <ele>1204</ele>
        <time>2021-04-17T14:57:12Z</time>
      </trkpt>
      <trkpt lat="46.11962" lon="6.17201">
        <ele>1204.2</ele>
        <time>2021-04-17T14:57:13Z</time>
      </trkpt>
      <trkpt lat="46.11962" lon="6.17201">
        <ele>1204.2</ele>
        <time>2021-04-17T14:57:14Z</time>
      </trkpt>
      <trkpt lat="46.11962" lon="6.17201">
        <ele>1204.2</ele>
        <time>2021-04-17T14:57:15Z</time>
      </trkpt>
      <trkpt lat="46.11962" lon="6.17201">
        <ele>1204</ele>
        <time>2021-04-17T14:57:16Z</time>
      </trkpt>
      <trkpt lat="46.11962" lon="6.17201">
        <ele>1203.8</ele>
        <time>2021-04-17T14:57:17Z</time>
      </trkpt>
      <trkpt lat="46.11962" lon="6.17201">
        <ele>1204</ele>
        <time>2021-04-17T14:57:18Z</time>
      </trkpt>
      <trkpt lat="46.11962" lon="6.17201">
        <ele>1204</ele>
        <time>2021-04-17T14:57:19Z</time>
      </trkpt>
      <trkpt lat="46.11962" lon="6.17201">
        <ele>1204</ele>
        <time>2021-04-17T14:57:20Z</time>
      </trkpt>
      <trkpt lat="46.11962" lon="6.17201">
        <ele>1203.8</ele>
        <time>2021-04-17T14:57:21Z</time>
      </trkpt>
      <trkpt lat="46.11962" lon="6.17201">
        <ele>1203.8</ele>
        <time>2021-04-17T14:57:22Z</time>
      </trkpt>
      <trkpt lat="46.11962" lon="6.17201">
        <ele>1203.8</ele>
        <time>2021-04-17T14:57:23Z</time>
      </trkpt>
      <trkpt lat="46.11962" lon="6.17201">
        <ele>1203.8</ele>
        <time>2021-04-17T14:57:24Z</time>
      </trkpt>
      <trkpt lat="46.11962" lon="6.17201">
        <ele>1203.8</ele>
        <time>2021-04-17T14:57:25Z</time>
      </trkpt>
      <trkpt lat="46.11962" lon="6.17201">
        <ele>1203.8</ele>
        <time>2021-04-17T14:57:26Z</time>
      </trkpt>
      <trkpt lat="46.11962" lon="6.17201">
        <ele>1203.6</ele>
        <time>2021-04-17T14:57:27Z</time>
      </trkpt>
      <trkpt lat="46.11962" lon="6.17201">
        <ele>1203.6</ele>
        <time>2021-04-17T14:57:28Z</time>
      </trkpt>
      <trkpt lat="46.11962" lon="6.17201">
        <ele>1203.6</ele>
        <time>2021-04-17T14:57:29Z</time>
      </trkpt>
      <trkpt lat="46.11962" lon="6.17201">
        <ele>1203.6</ele>
        <time>2021-04-17T14:57:30Z</time>
      </trkpt>
      <trkpt lat="46.11962" lon="6.17201">
        <ele>1203.4</ele>
        <time>2021-04-17T14:57:31Z</time>
      </trkpt>
      <trkpt lat="46.11962" lon="6.17201">
        <ele>1203.4</ele>
        <time>2021-04-17T14:57:32Z</time>
      </trkpt>
      <trkpt lat="46.11962" lon="6.17201">
        <ele>1203.4</ele>
        <time>2021-04-17T14:57:33Z</time>
      </trkpt>
      <trkpt lat="46.11961" lon="6.17201">
        <ele>1203.4</ele>
        <time>2021-04-17T14:57:34Z</time>
      </trkpt>
      <trkpt lat="46.11961" lon="6.17201">
        <ele>1203.4</ele>
        <time>2021-04-17T14:57:35Z</time>
      </trkpt>
      <trkpt lat="46.11962" lon="6.17201">
        <ele>1203.4</ele>
        <time>2021-04-17T14:57:36Z</time>
      </trkpt>
      <trkpt lat="46.11962" lon="6.17201">
        <ele>1203.4</ele>
        <time>2021-04-17T14:57:37Z</time>
      </trkpt>
      <trkpt lat="46.11962" lon="6.17201">
        <ele>1203.4</ele>
        <time>2021-04-17T14:57:38Z</time>
      </trkpt>
      <trkpt lat="46.11961" lon="6.17201">
        <ele>1203.4</ele>
        <time>2021-04-17T14:57:39Z</time>
      </trkpt>
      <trkpt lat="46.11961" lon="6.17201">
        <ele>1203.4</ele>
        <time>2021-04-17T14:57:40Z</time>
      </trkpt>
      <trkpt lat="46.11961" lon="6.17201">
        <ele>1203.6</ele>
        <time>2021-04-17T14:57:41Z</time>
      </trkpt>
      <trkpt lat="46.11961" lon="6.17201">
        <ele>1203.6</ele>
        <time>2021-04-17T14:57:42Z</time>
      </trkpt>
      <trkpt lat="46.11961" lon="6.17201">
        <ele>1203.6</ele>
        <time>2021-04-17T14:57:43Z</time>
      </trkpt>
      <trkpt lat="46.11961" lon="6.17201">
        <ele>1203.6</ele>
        <time>2021-04-17T14:57:44Z</time>
      </trkpt>
      <trkpt lat="46.11961" lon="6.17201">
        <ele>1203.8</ele>
        <time>2021-04-17T14:57:45Z</time>
      </trkpt>
      <trkpt lat="46.11961" lon="6.17201">
        <ele>1203.8</ele>
        <time>2021-04-17T14:57:46Z</time>
      </trkpt>
      <trkpt lat="46.11961" lon="6.17201">
        <ele>1203.6</ele>
        <time>2021-04-17T14:57:47Z</time>
      </trkpt>
      <trkpt lat="46.11961" lon="6.17201">
        <ele>1203.8</ele>
        <time>2021-04-17T14:57:48Z</time>
      </trkpt>
      <trkpt lat="46.11961" lon="6.17201">
        <ele>1203.8</ele>
        <time>2021-04-17T14:57:49Z</time>
      </trkpt>
      <trkpt lat="46.11961" lon="6.17201">
        <ele>1204</ele>
        <time>2021-04-17T14:57:50Z</time>
      </trkpt>
      <trkpt lat="46.11961" lon="6.17201">
        <ele>1204</ele>
        <time>2021-04-17T14:57:51Z</time>
      </trkpt>
      <trkpt lat="46.11961" lon="6.17201">
        <ele>1204</ele>
        <time>2021-04-17T14:57:52Z</time>
      </trkpt>
      <trkpt lat="46.11961" lon="6.17201">
        <ele>1204</ele>
        <time>2021-04-17T14:57:53Z</time>
      </trkpt>
      <trkpt lat="46.11961" lon="6.17201">
        <ele>1204</ele>
        <time>2021-04-17T14:57:54Z</time>
      </trkpt>
      <trkpt lat="46.11961" lon="6.17201">
        <ele>1204</ele>
        <time>2021-04-17T14:57:55Z</time>
      </trkpt>
      <trkpt lat="46.11961" lon="6.172">
        <ele>1204</ele>
        <time>2021-04-17T14:57:56Z</time>
      </trkpt>
      <trkpt lat="46.11961" lon="6.172">
        <ele>1204</ele>
        <time>2021-04-17T14:57:57Z</time>
      </trkpt>
      <trkpt lat="46.11961" lon="6.172">
        <ele>1204</ele>
        <time>2021-04-17T14:57:58Z</time>
      </trkpt>
      <trkpt lat="46.11961" lon="6.172">
        <ele>1204.2</ele>
        <time>2021-04-17T14:57:59Z</time>
      </trkpt>
      <trkpt lat="46.11961" lon="6.172">
        <ele>1204.2</ele>
        <time>2021-04-17T14:58:00Z</time>
      </trkpt>
      <trkpt lat="46.11961" lon="6.172">
        <ele>1204.2</ele>
        <time>2021-04-17T14:58:01Z</time>
      </trkpt>
      <trkpt lat="46.11961" lon="6.172">
        <ele>1204.2</ele>
        <time>2021-04-17T14:58:02Z</time>
      </trkpt>
      <trkpt lat="46.11961" lon="6.172">
        <ele>1204.2</ele>
        <time>2021-04-17T14:58:03Z</time>
      </trkpt>
      <trkpt lat="46.11961" lon="6.172">
        <ele>1204.2</ele>
        <time>2021-04-17T14:58:04Z</time>
      </trkpt>
      <trkpt lat="46.11961" lon="6.172">
        <ele>1204.2</ele>
        <time>2021-04-17T14:58:05Z</time>
      </trkpt>
      <trkpt lat="46.11961" lon="6.172">
        <ele>1204.4</ele>
        <time>2021-04-17T14:58:06Z</time>
      </trkpt>
      <trkpt lat="46.11961" lon="6.172">
        <ele>1204.2</ele>
        <time>2021-04-17T14:58:07Z</time>
      </trkpt>
      <trkpt lat="46.11961" lon="6.172">
        <ele>1204.4</ele>
        <time>2021-04-17T14:58:08Z</time>
      </trkpt>
      <trkpt lat="46.11961" lon="6.172">
        <ele>1204.4</ele>
        <time>2021-04-17T14:58:09Z</time>
      </trkpt>
      <trkpt lat="46.11961" lon="6.172">
        <ele>1204.4</ele>
        <time>2021-04-17T14:58:10Z</time>
      </trkpt>
      <trkpt lat="46.11961" lon="6.172">
        <ele>1204.4</ele>
        <time>2021-04-17T14:58:11Z</time>
      </trkpt>
      <trkpt lat="46.11961" lon="6.172">
        <ele>1204.4</ele>
        <time>2021-04-17T14:58:12Z</time>
      </trkpt>
      <trkpt lat="46.11961" lon="6.172">
        <ele>1204.4</ele>
        <time>2021-04-17T14:58:13Z</time>
      </trkpt>
      <trkpt lat="46.11961" lon="6.172">
        <ele>1204.4</ele>
        <time>2021-04-17T14:58:14Z</time>
      </trkpt>
      <trkpt lat="46.11961" lon="6.172">
        <ele>1204.4</ele>
        <time>2021-04-17T14:58:15Z</time>
      </trkpt>
      <trkpt lat="46.11961" lon="6.172">
        <ele>1204.6</ele>
        <time>2021-04-17T14:58:16Z</time>
      </trkpt>
      <trkpt lat="46.11961" lon="6.172">
        <ele>1204.4</ele>
        <time>2021-04-17T14:58:17Z</time>
      </trkpt>
      <trkpt lat="46.11961" lon="6.172">
        <ele>1204.6</ele>
        <time>2021-04-17T14:58:18Z</time>
      </trkpt>
      <trkpt lat="46.11961" lon="6.172">
        <ele>1204.4</ele>
        <time>2021-04-17T14:58:19Z</time>
      </trkpt>
      <trkpt lat="46.11961" lon="6.17201">
        <ele>1204.4</ele>
        <time>2021-04-17T14:58:20Z</time>
      </trkpt>
      <trkpt lat="46.11961" lon="6.17201">
        <ele>1204.4</ele>
        <time>2021-04-17T14:58:21Z</time>
      </trkpt>
      <trkpt lat="46.11961" lon="6.17201">
        <ele>1204.4</ele>
        <time>2021-04-17T14:58:22Z</time>
      </trkpt>
      <trkpt lat="46.11961" lon="6.17201">
        <ele>1204.4</ele>
        <time>2021-04-17T14:58:23Z</time>
      </trkpt>
      <trkpt lat="46.11961" lon="6.17201">
        <ele>1204.4</ele>
        <time>2021-04-17T14:58:24Z</time>
      </trkpt>
      <trkpt lat="46.11961" lon="6.17201">
        <ele>1204.4</ele>
        <time>2021-04-17T14:58:25Z</time>
      </trkpt>
      <trkpt lat="46.11961" lon="6.17201">
        <ele>1204.4</ele>
        <time>2021-04-17T14:58:26Z</time>
      </trkpt>
      <trkpt lat="46.11961" lon="6.17201">
        <ele>1204.4</ele>
        <time>2021-04-17T14:58:27Z</time>
      </trkpt>
      <trkpt lat="46.11961" lon="6.17201">
        <ele>1204.4</ele>
        <time>2021-04-17T14:58:28Z</time>
      </trkpt>
      <trkpt lat="46.11961" lon="6.17201">
        <ele>1204.4</ele>
        <time>2021-04-17T14:58:29Z</time>
      </trkpt>
      <trkpt lat="46.11961" lon="6.17201">
        <ele>1204.4</ele>
        <time>2021-04-17T14:58:30Z</time>
      </trkpt>
      <trkpt lat="46.11961" lon="6.17201">
        <ele>1204.2</ele>
        <time>2021-04-17T14:58:31Z</time>
      </trkpt>
      <trkpt lat="46.11961" lon="6.17201">
        <ele>1204.2</ele>
        <time>2021-04-17T14:58:32Z</time>
      </trkpt>
      <trkpt lat="46.11961" lon="6.17201">
        <ele>1204.2</ele>
        <time>2021-04-17T14:58:33Z</time>
      </trkpt>
      <trkpt lat="46.11961" lon="6.17201">
        <ele>1204</ele>
        <time>2021-04-17T14:58:34Z</time>
      </trkpt>
      <trkpt lat="46.11961" lon="6.17201">
        <ele>1203.8</ele>
        <time>2021-04-17T14:58:35Z</time>
      </trkpt>
      <trkpt lat="46.11961" lon="6.17201">
        <ele>1203.8</ele>
        <time>2021-04-17T14:58:36Z</time>
      </trkpt>
      <trkpt lat="46.11961" lon="6.17201">
        <ele>1203.8</ele>
        <time>2021-04-17T14:58:37Z</time>
      </trkpt>
      <trkpt lat="46.11961" lon="6.172">
        <ele>1204</ele>
        <time>2021-04-17T14:58:38Z</time>
      </trkpt>
      <trkpt lat="46.11961" lon="6.172">
        <ele>1203.8</ele>
        <time>2021-04-17T14:58:39Z</time>
      </trkpt>
      <trkpt lat="46.11961" lon="6.172">
        <ele>1203.6</ele>
        <time>2021-04-17T14:58:40Z</time>
      </trkpt>
      <trkpt lat="46.11961" lon="6.172">
        <ele>1203.8</ele>
        <time>2021-04-17T14:58:41Z</time>
      </trkpt>
      <trkpt lat="46.11961" lon="6.172">
        <ele>1203.8</ele>
        <time>2021-04-17T14:58:42Z</time>
      </trkpt>
      <trkpt lat="46.11961" lon="6.172">
        <ele>1203.8</ele>
        <time>2021-04-17T14:58:43Z</time>
      </trkpt>
      <trkpt lat="46.11961" lon="6.172">
        <ele>1203.8</ele>
        <time>2021-04-17T14:58:44Z</time>
      </trkpt>
      <trkpt lat="46.11961" lon="6.172">
        <ele>1203.6</ele>
        <time>2021-04-17T14:58:45Z</time>
      </trkpt>
      <trkpt lat="46.11961" lon="6.172">
        <ele>1203.8</ele>
        <time>2021-04-17T14:58:46Z</time>
      </trkpt>
      <trkpt lat="46.11961" lon="6.172">
        <ele>1203.6</ele>
        <time>2021-04-17T14:58:47Z</time>
      </trkpt>
      <trkpt lat="46.11961" lon="6.172">
        <ele>1203.6</ele>
        <time>2021-04-17T14:58:48Z</time>
      </trkpt>
      <trkpt lat="46.11961" lon="6.172">
        <ele>1203.6</ele>
        <time>2021-04-17T14:58:49Z</time>
      </trkpt>
      <trkpt lat="46.11961" lon="6.172">
        <ele>1203.8</ele>
        <time>2021-04-17T14:58:50Z</time>
      </trkpt>
      <trkpt lat="46.11961" lon="6.172">
        <ele>1203.8</ele>
        <time>2021-04-17T14:58:51Z</time>
      </trkpt>
      <trkpt lat="46.11961" lon="6.172">
        <ele>1203.6</ele>
        <time>2021-04-17T14:58:52Z</time>
      </trkpt>
      <trkpt lat="46.11961" lon="6.172">
        <ele>1203.6</ele>
        <time>2021-04-17T14:58:53Z</time>
      </trkpt>
      <trkpt lat="46.11961" lon="6.172">
        <ele>1203.6</ele>
        <time>2021-04-17T14:58:54Z</time>
      </trkpt>
      <trkpt lat="46.11961" lon="6.172">
        <ele>1203.6</ele>
        <time>2021-04-17T14:58:55Z</time>
      </trkpt>
      <trkpt lat="46.11961" lon="6.172">
        <ele>1203.6</ele>
        <time>2021-04-17T14:58:56Z</time>
      </trkpt>
      <trkpt lat="46.11961" lon="6.172">
        <ele>1203.6</ele>
        <time>2021-04-17T14:58:57Z</time>
      </trkpt>
      <trkpt lat="46.11961" lon="6.172">
        <ele>1203.6</ele>
        <time>2021-04-17T14:58:58Z</time>
      </trkpt>
      <trkpt lat="46.11961" lon="6.172">
        <ele>1203.4</ele>
        <time>2021-04-17T14:58:59Z</time>
      </trkpt>
      <trkpt lat="46.11961" lon="6.172">
        <ele>1203.6</ele>
        <time>2021-04-17T14:59:00Z</time>
      </trkpt>
      <trkpt lat="46.11961" lon="6.172">
        <ele>1203.4</ele>
        <time>2021-04-17T14:59:01Z</time>
      </trkpt>
      <trkpt lat="46.11961" lon="6.172">
        <ele>1203.6</ele>
        <time>2021-04-17T14:59:02Z</time>
      </trkpt>
      <trkpt lat="46.11961" lon="6.172">
        <ele>1203.6</ele>
        <time>2021-04-17T14:59:03Z</time>
      </trkpt>
      <trkpt lat="46.11961" lon="6.172">
        <ele>1203.6</ele>
        <time>2021-04-17T14:59:04Z</time>
      </trkpt>
      <trkpt lat="46.11961" lon="6.172">
        <ele>1203.4</ele>
        <time>2021-04-17T14:59:05Z</time>
      </trkpt>
      <trkpt lat="46.11961" lon="6.172">
        <ele>1203.4</ele>
        <time>2021-04-17T14:59:06Z</time>
      </trkpt>
      <trkpt lat="46.11961" lon="6.172">
        <ele>1203.6</ele>
        <time>2021-04-17T14:59:07Z</time>
      </trkpt>
      <trkpt lat="46.11961" lon="6.172">
        <ele>1203.6</ele>
        <time>2021-04-17T14:59:08Z</time>
      </trkpt>
      <trkpt lat="46.11961" lon="6.172">
        <ele>1203.6</ele>
        <time>2021-04-17T14:59:09Z</time>
      </trkpt>
      <trkpt lat="46.11961" lon="6.172">
        <ele>1203.6</ele>
        <time>2021-04-17T14:59:10Z</time>
      </trkpt>
      <trkpt lat="46.11961" lon="6.172">
        <ele>1203.6</ele>
        <time>2021-04-17T14:59:11Z</time>
      </trkpt>
      <trkpt lat="46.11961" lon="6.172">
        <ele>1203.4</ele>
        <time>2021-04-17T14:59:12Z</time>
      </trkpt>
      <trkpt lat="46.11961" lon="6.172">
        <ele>1203.6</ele>
        <time>2021-04-17T14:59:13Z</time>
      </trkpt>
      <trkpt lat="46.11961" lon="6.172">
        <ele>1203.4</ele>
        <time>2021-04-17T14:59:14Z</time>
      </trkpt>
      <trkpt lat="46.11961" lon="6.172">
        <ele>1203.6</ele>
        <time>2021-04-17T14:59:15Z</time>
      </trkpt>
      <trkpt lat="46.11961" lon="6.172">
        <ele>1203.6</ele>
        <time>2021-04-17T14:59:16Z</time>
      </trkpt>
      <trkpt lat="46.11961" lon="6.172">
        <ele>1203.4</ele>
        <time>2021-04-17T14:59:17Z</time>
      </trkpt>
      <trkpt lat="46.11961" lon="6.172">
        <ele>1203.6</ele>
        <time>2021-04-17T14:59:18Z</time>
      </trkpt>
      <trkpt lat="46.11961" lon="6.172">
        <ele>1203.4</ele>
        <time>2021-04-17T14:59:19Z</time>
      </trkpt>
      <trkpt lat="46.11961" lon="6.172">
        <ele>1203.6</ele>
        <time>2021-04-17T14:59:20Z</time>
      </trkpt>
      <trkpt lat="46.11961" lon="6.172">
        <ele>1203.6</ele>
        <time>2021-04-17T14:59:21Z</time>
      </trkpt>
      <trkpt lat="46.11961" lon="6.172">
        <ele>1203.6</ele>
        <time>2021-04-17T14:59:22Z</time>
      </trkpt>
      <trkpt lat="46.11961" lon="6.172">
        <ele>1203.6</ele>
        <time>2021-04-17T14:59:23Z</time>
      </trkpt>
      <trkpt lat="46.11961" lon="6.172">
        <ele>1203.4</ele>
        <time>2021-04-17T14:59:24Z</time>
      </trkpt>
      <trkpt lat="46.11961" lon="6.172">
        <ele>1203.6</ele>
        <time>2021-04-17T14:59:25Z</time>
      </trkpt>
      <trkpt lat="46.11961" lon="6.172">
        <ele>1203.6</ele>
        <time>2021-04-17T14:59:26Z</time>
      </trkpt>
      <trkpt lat="46.11961" lon="6.172">
        <ele>1203.6</ele>
        <time>2021-04-17T14:59:27Z</time>
      </trkpt>
      <trkpt lat="46.11961" lon="6.172">
        <ele>1203.8</ele>
        <time>2021-04-17T14:59:28Z</time>
      </trkpt>
      <trkpt lat="46.11961" lon="6.172">
        <ele>1203.6</ele>
        <time>2021-04-17T14:59:29Z</time>
      </trkpt>
      <trkpt lat="46.11961" lon="6.172">
        <ele>1203.8</ele>
        <time>2021-04-17T14:59:30Z</time>
      </trkpt>
      <trkpt lat="46.11961" lon="6.172">
        <ele>1203.6</ele>
        <time>2021-04-17T14:59:31Z</time>
      </trkpt>
      <trkpt lat="46.11961" lon="6.172">
        <ele>1203.8</ele>
        <time>2021-04-17T14:59:32Z</time>
      </trkpt>
      <trkpt lat="46.11961" lon="6.172">
        <ele>1203.6</ele>
        <time>2021-04-17T14:59:33Z</time>
      </trkpt>
      <trkpt lat="46.11961" lon="6.172">
        <ele>1203.6</ele>
        <time>2021-04-17T14:59:34Z</time>
      </trkpt>
      <trkpt lat="46.11961" lon="6.172">
        <ele>1203.8</ele>
        <time>2021-04-17T14:59:35Z</time>
      </trkpt>
      <trkpt lat="46.11961" lon="6.172">
        <ele>1203.6</ele>
        <time>2021-04-17T14:59:36Z</time>
      </trkpt>
      <trkpt lat="46.11961" lon="6.172">
        <ele>1203.8</ele>
        <time>2021-04-17T14:59:37Z</time>
      </trkpt>
      <trkpt lat="46.11961" lon="6.172">
        <ele>1203.6</ele>
        <time>2021-04-17T14:59:38Z</time>
      </trkpt>
      <trkpt lat="46.11961" lon="6.172">
        <ele>1203.6</ele>
        <time>2021-04-17T14:59:39Z</time>
      </trkpt>
      <trkpt lat="46.11961" lon="6.172">
        <ele>1203.8</ele>
        <time>2021-04-17T14:59:40Z</time>
      </trkpt>
      <trkpt lat="46.11961" lon="6.172">
        <ele>1203.6</ele>
        <time>2021-04-17T14:59:41Z</time>
      </trkpt>
      <trkpt lat="46.11961" lon="6.172">
        <ele>1203.6</ele>
        <time>2021-04-17T14:59:42Z</time>
      </trkpt>
      <trkpt lat="46.11961" lon="6.172">
        <ele>1203.8</ele>
        <time>2021-04-17T14:59:43Z</time>
      </trkpt>
      <trkpt lat="46.11961" lon="6.172">
        <ele>1203.8</ele>
        <time>2021-04-17T14:59:44Z</time>
      </trkpt>
      <trkpt lat="46.11961" lon="6.172">
        <ele>1203.6</ele>
        <time>2021-04-17T14:59:45Z</time>
      </trkpt>
      <trkpt lat="46.11961" lon="6.172">
        <ele>1203.8</ele>
        <time>2021-04-17T14:59:46Z</time>
      </trkpt>
      <trkpt lat="46.11961" lon="6.172">
        <ele>1203.6</ele>
        <time>2021-04-17T14:59:47Z</time>
      </trkpt>
      <trkpt lat="46.11961" lon="6.172">
        <ele>1203.6</ele>
        <time>2021-04-17T14:59:48Z</time>
      </trkpt>
      <trkpt lat="46.11961" lon="6.172">
        <ele>1203.8</ele>
        <time>2021-04-17T14:59:49Z</time>
      </trkpt>
      <trkpt lat="46.11961" lon="6.172">
        <ele>1203.8</ele>
        <time>2021-04-17T14:59:50Z</time>
      </trkpt>
      <trkpt lat="46.11961" lon="6.172">
        <ele>1203.8</ele>
        <time>2021-04-17T14:59:51Z</time>
      </trkpt>
      <trkpt lat="46.11961" lon="6.172">
        <ele>1203.8</ele>
        <time>2021-04-17T14:59:52Z</time>
      </trkpt>
      <trkpt lat="46.11961" lon="6.172">
        <ele>1203.8</ele>
        <time>2021-04-17T14:59:53Z</time>
      </trkpt>
      <trkpt lat="46.11961" lon="6.172">
        <ele>1203.6</ele>
        <time>2021-04-17T14:59:54Z</time>
      </trkpt>
      <trkpt lat="46.11961" lon="6.172">
        <ele>1203.8</ele>
        <time>2021-04-17T14:59:55Z</time>
      </trkpt>
      <trkpt lat="46.11961" lon="6.172">
        <ele>1203.8</ele>
        <time>2021-04-17T14:59:56Z</time>
      </trkpt>
      <trkpt lat="46.11961" lon="6.172">
        <ele>1203.8</ele>
        <time>2021-04-17T14:59:57Z</time>
      </trkpt>
      <trkpt lat="46.11961" lon="6.172">
        <ele>1204</ele>
        <time>2021-04-17T14:59:58Z</time>
      </trkpt>
      <trkpt lat="46.11961" lon="6.172">
        <ele>1204</ele>
        <time>2021-04-17T14:59:59Z</time>
      </trkpt>
      <trkpt lat="46.11961" lon="6.172">
        <ele>1204</ele>
        <time>2021-04-17T15:00:00Z</time>
      </trkpt>
      <trkpt lat="46.11961" lon="6.172">
        <ele>1204</ele>
        <time>2021-04-17T15:00:01Z</time>
      </trkpt>
      <trkpt lat="46.11961" lon="6.172">
        <ele>1204</ele>
        <time>2021-04-17T15:00:02Z</time>
      </trkpt>
      <trkpt lat="46.11961" lon="6.172">
        <ele>1204.2</ele>
        <time>2021-04-17T15:00:03Z</time>
      </trkpt>
      <trkpt lat="46.11961" lon="6.172">
        <ele>1204.2</ele>
        <time>2021-04-17T15:00:04Z</time>
      </trkpt>
      <trkpt lat="46.11961" lon="6.172">
        <ele>1204.4</ele>
        <time>2021-04-17T15:00:05Z</time>
      </trkpt>
      <trkpt lat="46.11961" lon="6.172">
        <ele>1204.4</ele>
        <time>2021-04-17T15:00:06Z</time>
      </trkpt>
      <trkpt lat="46.11961" lon="6.172">
        <ele>1204.4</ele>
        <time>2021-04-17T15:00:07Z</time>
      </trkpt>
      <trkpt lat="46.11961" lon="6.172">
        <ele>1204.4</ele>
        <time>2021-04-17T15:00:08Z</time>
      </trkpt>
      <trkpt lat="46.11961" lon="6.172">
        <ele>1204.4</ele>
        <time>2021-04-17T15:00:09Z</time>
      </trkpt>
      <trkpt lat="46.11961" lon="6.172">
        <ele>1204.2</ele>
        <time>2021-04-17T15:00:10Z</time>
      </trkpt>
      <trkpt lat="46.11961" lon="6.172">
        <ele>1204.2</ele>
        <time>2021-04-17T15:00:11Z</time>
      </trkpt>
      <trkpt lat="46.11961" lon="6.172">
        <ele>1204.4</ele>
        <time>2021-04-17T15:00:12Z</time>
      </trkpt>
      <trkpt lat="46.11961" lon="6.172">
        <ele>1204.4</ele>
        <time>2021-04-17T15:00:13Z</time>
      </trkpt>
      <trkpt lat="46.11961" lon="6.172">
        <ele>1204.4</ele>
        <time>2021-04-17T15:00:14Z</time>
      </trkpt>
      <trkpt lat="46.11961" lon="6.172">
        <ele>1204.4</ele>
        <time>2021-04-17T15:00:15Z</time>
      </trkpt>
      <trkpt lat="46.11961" lon="6.172">
        <ele>1204.4</ele>
        <time>2021-04-17T15:00:16Z</time>
      </trkpt>
      <trkpt lat="46.11961" lon="6.172">
        <ele>1204.4</ele>
        <time>2021-04-17T15:00:17Z</time>
      </trkpt>
      <trkpt lat="46.11961" lon="6.172">
        <ele>1204.4</ele>
        <time>2021-04-17T15:00:18Z</time>
      </trkpt>
      <trkpt lat="46.11961" lon="6.172">
        <ele>1204.4</ele>
        <time>2021-04-17T15:00:19Z</time>
      </trkpt>
      <trkpt lat="46.11961" lon="6.172">
        <ele>1204.4</ele>
        <time>2021-04-17T15:00:20Z</time>
      </trkpt>
      <trkpt lat="46.11961" lon="6.172">
        <ele>1204.6</ele>
        <time>2021-04-17T15:00:21Z</time>
      </trkpt>
      <trkpt lat="46.11961" lon="6.172">
        <ele>1204.4</ele>
        <time>2021-04-17T15:00:22Z</time>
      </trkpt>
      <trkpt lat="46.11961" lon="6.172">
        <ele>1204.4</ele>
        <time>2021-04-17T15:00:23Z</time>
      </trkpt>
      <trkpt lat="46.11961" lon="6.172">
        <ele>1204.4</ele>
        <time>2021-04-17T15:00:24Z</time>
      </trkpt>
      <trkpt lat="46.11961" lon="6.172">
        <ele>1204.4</ele>
        <time>2021-04-17T15:00:25Z</time>
      </trkpt>
      <trkpt lat="46.11961" lon="6.172">
        <ele>1204.4</ele>
        <time>2021-04-17T15:00:26Z</time>
      </trkpt>
      <trkpt lat="46.11961" lon="6.172">
        <ele>1204.4</ele>
        <time>2021-04-17T15:00:27Z</time>
      </trkpt>
      <trkpt lat="46.11961" lon="6.172">
        <ele>1204.2</ele>
        <time>2021-04-17T15:00:28Z</time>
      </trkpt>
      <trkpt lat="46.11961" lon="6.172">
        <ele>1204.2</ele>
        <time>2021-04-17T15:00:29Z</time>
      </trkpt>
      <trkpt lat="46.11961" lon="6.172">
        <ele>1204.2</ele>
        <time>2021-04-17T15:00:30Z</time>
      </trkpt>
      <trkpt lat="46.11961" lon="6.172">
        <ele>1204.2</ele>
        <time>2021-04-17T15:00:31Z</time>
      </trkpt>
      <trkpt lat="46.11961" lon="6.172">
        <ele>1204.2</ele>
        <time>2021-04-17T15:00:32Z</time>
      </trkpt>
      <trkpt lat="46.11961" lon="6.172">
        <ele>1204.2</ele>
        <time>2021-04-17T15:00:33Z</time>
      </trkpt>
      <trkpt lat="46.11961" lon="6.172">
        <ele>1204.2</ele>
        <time>2021-04-17T15:00:34Z</time>
      </trkpt>
      <trkpt lat="46.11961" lon="6.172">
        <ele>1204.2</ele>
        <time>2021-04-17T15:00:35Z</time>
      </trkpt>
      <trkpt lat="46.11961" lon="6.172">
        <ele>1204.2</ele>
        <time>2021-04-17T15:00:36Z</time>
      </trkpt>
      <trkpt lat="46.11961" lon="6.172">
        <ele>1204</ele>
        <time>2021-04-17T15:00:37Z</time>
      </trkpt>
      <trkpt lat="46.11961" lon="6.172">
        <ele>1204</ele>
        <time>2021-04-17T15:00:38Z</time>
      </trkpt>
      <trkpt lat="46.11961" lon="6.172">
        <ele>1204</ele>
        <time>2021-04-17T15:00:39Z</time>
      </trkpt>
      <trkpt lat="46.11961" lon="6.172">
        <ele>1204</ele>
        <time>2021-04-17T15:00:40Z</time>
      </trkpt>
      <trkpt lat="46.11961" lon="6.172">
        <ele>1204</ele>
        <time>2021-04-17T15:00:41Z</time>
      </trkpt>
      <trkpt lat="46.11961" lon="6.172">
        <ele>1204</ele>
        <time>2021-04-17T15:00:42Z</time>
      </trkpt>
      <trkpt lat="46.11961" lon="6.172">
        <ele>1204</ele>
        <time>2021-04-17T15:00:43Z</time>
      </trkpt>
      <trkpt lat="46.11961" lon="6.172">
        <ele>1204</ele>
        <time>2021-04-17T15:00:44Z</time>
      </trkpt>
      <trkpt lat="46.11961" lon="6.172">
        <ele>1204</ele>
        <time>2021-04-17T15:00:45Z</time>
      </trkpt>
      <trkpt lat="46.11961" lon="6.172">
        <ele>1204</ele>
        <time>2021-04-17T15:00:46Z</time>
      </trkpt>
      <trkpt lat="46.11961" lon="6.172">
        <ele>1204</ele>
        <time>2021-04-17T15:00:47Z</time>
      </trkpt>
      <trkpt lat="46.11961" lon="6.172">
        <ele>1204</ele>
        <time>2021-04-17T15:00:48Z</time>
      </trkpt>
      <trkpt lat="46.11961" lon="6.172">
        <ele>1204</ele>
        <time>2021-04-17T15:00:49Z</time>
      </trkpt>
      <trkpt lat="46.11961" lon="6.172">
        <ele>1204</ele>
        <time>2021-04-17T15:00:50Z</time>
      </trkpt>
      <trkpt lat="46.11961" lon="6.172">
        <ele>1204</ele>
        <time>2021-04-17T15:00:51Z</time>
      </trkpt>
      <trkpt lat="46.11961" lon="6.172">
        <ele>1204</ele>
        <time>2021-04-17T15:00:52Z</time>
      </trkpt>
      <trkpt lat="46.11961" lon="6.172">
        <ele>1204</ele>
        <time>2021-04-17T15:00:53Z</time>
      </trkpt>
      <trkpt lat="46.11961" lon="6.172">
        <ele>1204</ele>
        <time>2021-04-17T15:00:54Z</time>
      </trkpt>
      <trkpt lat="46.11961" lon="6.172">
        <ele>1204</ele>
        <time>2021-04-17T15:00:55Z</time>
      </trkpt>
      <trkpt lat="46.11961" lon="6.172">
        <ele>1204</ele>
        <time>2021-04-17T15:00:56Z</time>
      </trkpt>
      <trkpt lat="46.11961" lon="6.172">
        <ele>1204</ele>
        <time>2021-04-17T15:00:57Z</time>
      </trkpt>
      <trkpt lat="46.11961" lon="6.172">
        <ele>1204</ele>
        <time>2021-04-17T15:00:58Z</time>
      </trkpt>
      <trkpt lat="46.11961" lon="6.172">
        <ele>1204</ele>
        <time>2021-04-17T15:00:59Z</time>
      </trkpt>
      <trkpt lat="46.11961" lon="6.172">
        <ele>1204</ele>
        <time>2021-04-17T15:01:00Z</time>
      </trkpt>
      <trkpt lat="46.11961" lon="6.172">
        <ele>1203.8</ele>
        <time>2021-04-17T15:01:01Z</time>
      </trkpt>
      <trkpt lat="46.11961" lon="6.172">
        <ele>1203.8</ele>
        <time>2021-04-17T15:01:02Z</time>
      </trkpt>
      <trkpt lat="46.11961" lon="6.172">
        <ele>1204</ele>
        <time>2021-04-17T15:01:03Z</time>
      </trkpt>
      <trkpt lat="46.11961" lon="6.172">
        <ele>1203.8</ele>
        <time>2021-04-17T15:01:04Z</time>
      </trkpt>
      <trkpt lat="46.11961" lon="6.172">
        <ele>1203.8</ele>
        <time>2021-04-17T15:01:05Z</time>
      </trkpt>
      <trkpt lat="46.11961" lon="6.172">
        <ele>1203.8</ele>
        <time>2021-04-17T15:01:06Z</time>
      </trkpt>
      <trkpt lat="46.11961" lon="6.172">
        <ele>1204</ele>
        <time>2021-04-17T15:01:07Z</time>
      </trkpt>
      <trkpt lat="46.11961" lon="6.172">
        <ele>1203.8</ele>
        <time>2021-04-17T15:01:08Z</time>
      </trkpt>
      <trkpt lat="46.11961" lon="6.172">
        <ele>1203.8</ele>
        <time>2021-04-17T15:01:09Z</time>
      </trkpt>
      <trkpt lat="46.11961" lon="6.172">
        <ele>1203.8</ele>
        <time>2021-04-17T15:01:10Z</time>
      </trkpt>
      <trkpt lat="46.11961" lon="6.172">
        <ele>1203.8</ele>
        <time>2021-04-17T15:01:11Z</time>
      </trkpt>
      <trkpt lat="46.11961" lon="6.172">
        <ele>1203.8</ele>
        <time>2021-04-17T15:01:12Z</time>
      </trkpt>
      <trkpt lat="46.11961" lon="6.17199">
        <ele>1203.8</ele>
        <time>2021-04-17T15:01:13Z</time>
      </trkpt>
      <trkpt lat="46.11961" lon="6.17199">
        <ele>1203.8</ele>
        <time>2021-04-17T15:01:14Z</time>
      </trkpt>
      <trkpt lat="46.11962" lon="6.17198">
        <ele>1203.6</ele>
        <time>2021-04-17T15:01:15Z</time>
      </trkpt>
      <trkpt lat="46.11962" lon="6.17198">
        <ele>1203.6</ele>
        <time>2021-04-17T15:01:16Z</time>
      </trkpt>
      <trkpt lat="46.11962" lon="6.17197">
        <ele>1203.6</ele>
        <time>2021-04-17T15:01:17Z</time>
      </trkpt>
      <trkpt lat="46.11962" lon="6.17197">
        <ele>1203.6</ele>
        <time>2021-04-17T15:01:18Z</time>
      </trkpt>
      <trkpt lat="46.11962" lon="6.17197">
        <ele>1203.6</ele>
        <time>2021-04-17T15:01:19Z</time>
      </trkpt>
      <trkpt lat="46.11962" lon="6.17197">
        <ele>1203.6</ele>
        <time>2021-04-17T15:01:20Z</time>
      </trkpt>
      <trkpt lat="46.11962" lon="6.17197">
        <ele>1203.6</ele>
        <time>2021-04-17T15:01:21Z</time>
      </trkpt>
      <trkpt lat="46.11962" lon="6.17197">
        <ele>1203.6</ele>
        <time>2021-04-17T15:01:22Z</time>
      </trkpt>
      <trkpt lat="46.11963" lon="6.17197">
        <ele>1203.4</ele>
        <time>2021-04-17T15:01:23Z</time>
      </trkpt>
      <trkpt lat="46.11963" lon="6.17197">
        <ele>1203.4</ele>
        <time>2021-04-17T15:01:24Z</time>
      </trkpt>
      <trkpt lat="46.11964" lon="6.17197">
        <ele>1203.4</ele>
        <time>2021-04-17T15:01:25Z</time>
      </trkpt>
      <trkpt lat="46.11965" lon="6.17199">
        <ele>1203.4</ele>
        <time>2021-04-17T15:01:26Z</time>
      </trkpt>
      <trkpt lat="46.11965" lon="6.17202">
        <ele>1203.2</ele>
        <time>2021-04-17T15:01:27Z</time>
      </trkpt>
      <trkpt lat="46.11965" lon="6.17206">
        <ele>1203.2</ele>
        <time>2021-04-17T15:01:28Z</time>
      </trkpt>
      <trkpt lat="46.11965" lon="6.17211">
        <ele>1203.2</ele>
        <time>2021-04-17T15:01:29Z</time>
      </trkpt>
      <trkpt lat="46.11965" lon="6.17216">
        <ele>1203.2</ele>
        <time>2021-04-17T15:01:30Z</time>
      </trkpt>
      <trkpt lat="46.11964" lon="6.17221">
        <ele>1203.2</ele>
        <time>2021-04-17T15:01:31Z</time>
      </trkpt>
      <trkpt lat="46.11963" lon="6.17227">
        <ele>1203.2</ele>
        <time>2021-04-17T15:01:32Z</time>
      </trkpt>
      <trkpt lat="46.11963" lon="6.17234">
        <ele>1203.2</ele>
        <time>2021-04-17T15:01:33Z</time>
      </trkpt>
      <trkpt lat="46.11962" lon="6.17241">
        <ele>1203.2</ele>
        <time>2021-04-17T15:01:34Z</time>
      </trkpt>
      <trkpt lat="46.11962" lon="6.17249">
        <ele>1203.2</ele>
        <time>2021-04-17T15:01:35Z</time>
      </trkpt>
      <trkpt lat="46.11961" lon="6.17257">
        <ele>1203</ele>
        <time>2021-04-17T15:01:36Z</time>
      </trkpt>
      <trkpt lat="46.11961" lon="6.17266">
        <ele>1203</ele>
        <time>2021-04-17T15:01:37Z</time>
      </trkpt>
      <trkpt lat="46.11962" lon="6.17275">
        <ele>1203</ele>
        <time>2021-04-17T15:01:38Z</time>
      </trkpt>
      <trkpt lat="46.11963" lon="6.17285">
        <ele>1202.8</ele>
        <time>2021-04-17T15:01:39Z</time>
      </trkpt>
      <trkpt lat="46.11963" lon="6.17296">
        <ele>1202.8</ele>
        <time>2021-04-17T15:01:40Z</time>
      </trkpt>
      <trkpt lat="46.11965" lon="6.17307">
        <ele>1202.2</ele>
        <time>2021-04-17T15:01:41Z</time>
      </trkpt>
      <trkpt lat="46.11966" lon="6.17319">
        <ele>1201.8</ele>
        <time>2021-04-17T15:01:42Z</time>
      </trkpt>
      <trkpt lat="46.11967" lon="6.17332">
        <ele>1201.4</ele>
        <time>2021-04-17T15:01:43Z</time>
      </trkpt>
      <trkpt lat="46.11969" lon="6.17344">
        <ele>1201</ele>
        <time>2021-04-17T15:01:44Z</time>
      </trkpt>
      <trkpt lat="46.1197" lon="6.17357">
        <ele>1200.6</ele>
        <time>2021-04-17T15:01:45Z</time>
      </trkpt>
      <trkpt lat="46.11972" lon="6.1737">
        <ele>1200.2</ele>
        <time>2021-04-17T15:01:46Z</time>
      </trkpt>
      <trkpt lat="46.11974" lon="6.17383">
        <ele>1199.6</ele>
        <time>2021-04-17T15:01:47Z</time>
      </trkpt>
      <trkpt lat="46.11975" lon="6.17396">
        <ele>1198.8</ele>
        <time>2021-04-17T15:01:48Z</time>
      </trkpt>
      <trkpt lat="46.11977" lon="6.1741">
        <ele>1198</ele>
        <time>2021-04-17T15:01:49Z</time>
      </trkpt>
      <trkpt lat="46.11979" lon="6.17424">
        <ele>1197</ele>
        <time>2021-04-17T15:01:50Z</time>
      </trkpt>
      <trkpt lat="46.11981" lon="6.17438">
        <ele>1196</ele>
        <time>2021-04-17T15:01:51Z</time>
      </trkpt>
      <trkpt lat="46.11984" lon="6.17452">
        <ele>1194.8</ele>
        <time>2021-04-17T15:01:52Z</time>
      </trkpt>
      <trkpt lat="46.11987" lon="6.17466">
        <ele>1194</ele>
        <time>2021-04-17T15:01:53Z</time>
      </trkpt>
      <trkpt lat="46.11991" lon="6.1748">
        <ele>1193.2</ele>
        <time>2021-04-17T15:01:54Z</time>
      </trkpt>
      <trkpt lat="46.11994" lon="6.17494">
        <ele>1192.6</ele>
        <time>2021-04-17T15:01:55Z</time>
      </trkpt>
      <trkpt lat="46.11999" lon="6.17507">
        <ele>1191.4</ele>
        <time>2021-04-17T15:01:56Z</time>
      </trkpt>
      <trkpt lat="46.12005" lon="6.17517">
        <ele>1190.4</ele>
        <time>2021-04-17T15:01:57Z</time>
      </trkpt>
      <trkpt lat="46.12013" lon="6.17524">
        <ele>1189.2</ele>
        <time>2021-04-17T15:01:58Z</time>
      </trkpt>
      <trkpt lat="46.1202" lon="6.17528">
        <ele>1188.2</ele>
        <time>2021-04-17T15:01:59Z</time>
      </trkpt>
      <trkpt lat="46.12027" lon="6.17529">
        <ele>1187.2</ele>
        <time>2021-04-17T15:02:00Z</time>
      </trkpt>
      <trkpt lat="46.12034" lon="6.17531">
        <ele>1186.4</ele>
        <time>2021-04-17T15:02:01Z</time>
      </trkpt>
      <trkpt lat="46.12038" lon="6.17534">
        <ele>1185.4</ele>
        <time>2021-04-17T15:02:02Z</time>
      </trkpt>
      <trkpt lat="46.12042" lon="6.17539">
        <ele>1184.4</ele>
        <time>2021-04-17T15:02:03Z</time>
      </trkpt>
      <trkpt lat="46.12041" lon="6.17545">
        <ele>1183</ele>
        <time>2021-04-17T15:02:04Z</time>
      </trkpt>
      <trkpt lat="46.12036" lon="6.17548">
        <ele>1181.8</ele>
        <time>2021-04-17T15:02:05Z</time>
      </trkpt>
      <trkpt lat="46.1203" lon="6.17547">
        <ele>1180.8</ele>
        <time>2021-04-17T15:02:06Z</time>
      </trkpt>
      <trkpt lat="46.12023" lon="6.17545">
        <ele>1180</ele>
        <time>2021-04-17T15:02:07Z</time>
      </trkpt>
      <trkpt lat="46.12016" lon="6.17542">
        <ele>1179.6</ele>
        <time>2021-04-17T15:02:08Z</time>
      </trkpt>
      <trkpt lat="46.1201" lon="6.17538">
        <ele>1179.4</ele>
        <time>2021-04-17T15:02:09Z</time>
      </trkpt>
      <trkpt lat="46.12002" lon="6.17534">
        <ele>1179.2</ele>
        <time>2021-04-17T15:02:10Z</time>
      </trkpt>
      <trkpt lat="46.11995" lon="6.17529">
        <ele>1179</ele>
        <time>2021-04-17T15:02:11Z</time>
      </trkpt>
      <trkpt lat="46.11987" lon="6.17524">
        <ele>1178.8</ele>
        <time>2021-04-17T15:02:12Z</time>
      </trkpt>
      <trkpt lat="46.11978" lon="6.17519">
        <ele>1178.6</ele>
        <time>2021-04-17T15:02:13Z</time>
      </trkpt>
      <trkpt lat="46.11969" lon="6.17514">
        <ele>1178.2</ele>
        <time>2021-04-17T15:02:14Z</time>
      </trkpt>
      <trkpt lat="46.1196" lon="6.17508">
        <ele>1177.8</ele>
        <time>2021-04-17T15:02:15Z</time>
      </trkpt>
      <trkpt lat="46.11951" lon="6.17502">
        <ele>1177.4</ele>
        <time>2021-04-17T15:02:16Z</time>
      </trkpt>
      <trkpt lat="46.11941" lon="6.17496">
        <ele>1176.6</ele>
        <time>2021-04-17T15:02:17Z</time>
      </trkpt>
      <trkpt lat="46.11931" lon="6.1749">
        <ele>1175.8</ele>
        <time>2021-04-17T15:02:18Z</time>
      </trkpt>
      <trkpt lat="46.11922" lon="6.17482">
        <ele>1175.4</ele>
        <time>2021-04-17T15:02:19Z</time>
      </trkpt>
      <trkpt lat="46.11912" lon="6.17474">
        <ele>1174.2</ele>
        <time>2021-04-17T15:02:20Z</time>
      </trkpt>
      <trkpt lat="46.11902" lon="6.17465">
        <ele>1173.4</ele>
        <time>2021-04-17T15:02:21Z</time>
      </trkpt>
      <trkpt lat="46.11893" lon="6.17457">
        <ele>1172.2</ele>
        <time>2021-04-17T15:02:22Z</time>
      </trkpt>
      <trkpt lat="46.11874" lon="6.1744">
        <ele>1170.6</ele>
        <time>2021-04-17T15:02:24Z</time>
      </trkpt>
      <trkpt lat="46.11858" lon="6.17421">
        <ele>1168.6</ele>
        <time>2021-04-17T15:02:26Z</time>
      </trkpt>
      <trkpt lat="46.11848" lon="6.17403">
        <ele>1166</ele>
        <time>2021-04-17T15:02:28Z</time>
      </trkpt>
      <trkpt lat="46.11843" lon="6.17398">
        <ele>1165.2</ele>
        <time>2021-04-17T15:02:29Z</time>
      </trkpt>
      <trkpt lat="46.11836" lon="6.17399">
        <ele>1164.6</ele>
        <time>2021-04-17T15:02:30Z</time>
      </trkpt>
      <trkpt lat="46.11832" lon="6.17404">
        <ele>1163.6</ele>
        <time>2021-04-17T15:02:31Z</time>
      </trkpt>
      <trkpt lat="46.1183" lon="6.17414">
        <ele>1162.8</ele>
        <time>2021-04-17T15:02:32Z</time>
      </trkpt>
      <trkpt lat="46.11833" lon="6.17424">
        <ele>1162.4</ele>
        <time>2021-04-17T15:02:33Z</time>
      </trkpt>
      <trkpt lat="46.11838" lon="6.17434">
        <ele>1162</ele>
        <time>2021-04-17T15:02:34Z</time>
      </trkpt>
      <trkpt lat="46.11843" lon="6.17445">
        <ele>1161.8</ele>
        <time>2021-04-17T15:02:35Z</time>
      </trkpt>
      <trkpt lat="46.11847" lon="6.17458">
        <ele>1161.4</ele>
        <time>2021-04-17T15:02:36Z</time>
      </trkpt>
      <trkpt lat="46.11851" lon="6.17473">
        <ele>1161.4</ele>
        <time>2021-04-17T15:02:37Z</time>
      </trkpt>
      <trkpt lat="46.11854" lon="6.17487">
        <ele>1161.2</ele>
        <time>2021-04-17T15:02:38Z</time>
      </trkpt>
      <trkpt lat="46.11858" lon="6.17501">
        <ele>1160.6</ele>
        <time>2021-04-17T15:02:39Z</time>
      </trkpt>
      <trkpt lat="46.11861" lon="6.17516">
        <ele>1159.6</ele>
        <time>2021-04-17T15:02:40Z</time>
      </trkpt>
      <trkpt lat="46.11865" lon="6.17531">
        <ele>1158.8</ele>
        <time>2021-04-17T15:02:41Z</time>
      </trkpt>
      <trkpt lat="46.11868" lon="6.17546">
        <ele>1158</ele>
        <time>2021-04-17T15:02:42Z</time>
      </trkpt>
      <trkpt lat="46.11872" lon="6.17562">
        <ele>1157.2</ele>
        <time>2021-04-17T15:02:43Z</time>
      </trkpt>
      <trkpt lat="46.11876" lon="6.17578">
        <ele>1155.8</ele>
        <time>2021-04-17T15:02:44Z</time>
      </trkpt>
      <trkpt lat="46.1188" lon="6.17594">
        <ele>1154.4</ele>
        <time>2021-04-17T15:02:45Z</time>
      </trkpt>
      <trkpt lat="46.11884" lon="6.1761">
        <ele>1153</ele>
        <time>2021-04-17T15:02:46Z</time>
      </trkpt>
      <trkpt lat="46.1189" lon="6.17627">
        <ele>1151.6</ele>
        <time>2021-04-17T15:02:47Z</time>
      </trkpt>
      <trkpt lat="46.11896" lon="6.17642">
        <ele>1150.4</ele>
        <time>2021-04-17T15:02:48Z</time>
      </trkpt>
      <trkpt lat="46.11903" lon="6.17657">
        <ele>1148.6</ele>
        <time>2021-04-17T15:02:49Z</time>
      </trkpt>
      <trkpt lat="46.11911" lon="6.1767">
        <ele>1146.8</ele>
        <time>2021-04-17T15:02:50Z</time>
      </trkpt>
      <trkpt lat="46.1192" lon="6.17682">
        <ele>1145.8</ele>
        <time>2021-04-17T15:02:51Z</time>
      </trkpt>
      <trkpt lat="46.11927" lon="6.17696">
        <ele>1144.8</ele>
        <time>2021-04-17T15:02:52Z</time>
      </trkpt>
      <trkpt lat="46.11933" lon="6.17711">
        <ele>1143.6</ele>
        <time>2021-04-17T15:02:53Z</time>
      </trkpt>
      <trkpt lat="46.11939" lon="6.17725">
        <ele>1142.8</ele>
        <time>2021-04-17T15:02:54Z</time>
      </trkpt>
      <trkpt lat="46.11946" lon="6.17737">
        <ele>1141.8</ele>
        <time>2021-04-17T15:02:55Z</time>
      </trkpt>
      <trkpt lat="46.11955" lon="6.17748">
        <ele>1140.8</ele>
        <time>2021-04-17T15:02:56Z</time>
      </trkpt>
      <trkpt lat="46.11964" lon="6.17758">
        <ele>1139.6</ele>
        <time>2021-04-17T15:02:57Z</time>
      </trkpt>
      <trkpt lat="46.11974" lon="6.17769">
        <ele>1138.4</ele>
        <time>2021-04-17T15:02:58Z</time>
      </trkpt>
      <trkpt lat="46.11983" lon="6.17781">
        <ele>1137.2</ele>
        <time>2021-04-17T15:02:59Z</time>
      </trkpt>
      <trkpt lat="46.11993" lon="6.17793">
        <ele>1135.6</ele>
        <time>2021-04-17T15:03:00Z</time>
      </trkpt>
      <trkpt lat="46.12002" lon="6.17806">
        <ele>1134.6</ele>
        <time>2021-04-17T15:03:01Z</time>
      </trkpt>
      <trkpt lat="46.12013" lon="6.17819">
        <ele>1133.4</ele>
        <time>2021-04-17T15:03:02Z</time>
      </trkpt>
      <trkpt lat="46.12022" lon="6.17833">
        <ele>1132</ele>
        <time>2021-04-17T15:03:03Z</time>
      </trkpt>
      <trkpt lat="46.1203" lon="6.17848">
        <ele>1131.2</ele>
        <time>2021-04-17T15:03:04Z</time>
      </trkpt>
      <trkpt lat="46.12036" lon="6.17863">
        <ele>1130.2</ele>
        <time>2021-04-17T15:03:05Z</time>
      </trkpt>
      <trkpt lat="46.12041" lon="6.17877">
        <ele>1128.4</ele>
        <time>2021-04-17T15:03:06Z</time>
      </trkpt>
      <trkpt lat="46.12046" lon="6.1789">
        <ele>1126.6</ele>
        <time>2021-04-17T15:03:07Z</time>
      </trkpt>
      <trkpt lat="46.1205" lon="6.17902">
        <ele>1126.6</ele>
        <time>2021-04-17T15:03:08Z</time>
      </trkpt>
      <trkpt lat="46.12051" lon="6.17914">
        <ele>1125</ele>
        <time>2021-04-17T15:03:09Z</time>
      </trkpt>
      <trkpt lat="46.12049" lon="6.17925">
        <ele>1122.2</ele>
        <time>2021-04-17T15:03:10Z</time>
      </trkpt>
      <trkpt lat="46.12036" lon="6.17935">
        <ele>1119.8</ele>
        <time>2021-04-17T15:03:12Z</time>
      </trkpt>
      <trkpt lat="46.12028" lon="6.17932">
        <ele>1118.8</ele>
        <time>2021-04-17T15:03:13Z</time>
      </trkpt>
      <trkpt lat="46.12021" lon="6.17924">
        <ele>1118.4</ele>
        <time>2021-04-17T15:03:14Z</time>
      </trkpt>
      <trkpt lat="46.12015" lon="6.17913">
        <ele>1118</ele>
        <time>2021-04-17T15:03:15Z</time>
      </trkpt>
      <trkpt lat="46.12009" lon="6.17901">
        <ele>1117.8</ele>
        <time>2021-04-17T15:03:16Z</time>
      </trkpt>
      <trkpt lat="46.12002" lon="6.17888">
        <ele>1117.2</ele>
        <time>2021-04-17T15:03:17Z</time>
      </trkpt>
      <trkpt lat="46.11995" lon="6.17875">
        <ele>1117</ele>
        <time>2021-04-17T15:03:18Z</time>
      </trkpt>
      <trkpt lat="46.11985" lon="6.17863">
        <ele>1116.8</ele>
        <time>2021-04-17T15:03:19Z</time>
      </trkpt>
      <trkpt lat="46.11975" lon="6.17854">
        <ele>1116.6</ele>
        <time>2021-04-17T15:03:20Z</time>
      </trkpt>
      <trkpt lat="46.11962" lon="6.17846">
        <ele>1116</ele>
        <time>2021-04-17T15:03:21Z</time>
      </trkpt>
      <trkpt lat="46.11949" lon="6.17839">
        <ele>1114.6</ele>
        <time>2021-04-17T15:03:22Z</time>
      </trkpt>
      <trkpt lat="46.11936" lon="6.17832">
        <ele>1112.8</ele>
        <time>2021-04-17T15:03:23Z</time>
      </trkpt>
      <trkpt lat="46.11922" lon="6.17826">
        <ele>1111.4</ele>
        <time>2021-04-17T15:03:24Z</time>
      </trkpt>
      <trkpt lat="46.11909" lon="6.1782">
        <ele>1110.4</ele>
        <time>2021-04-17T15:03:25Z</time>
      </trkpt>
      <trkpt lat="46.11895" lon="6.17816">
        <ele>1108.8</ele>
        <time>2021-04-17T15:03:26Z</time>
      </trkpt>
      <trkpt lat="46.11882" lon="6.17813">
        <ele>1107.2</ele>
        <time>2021-04-17T15:03:27Z</time>
      </trkpt>
      <trkpt lat="46.11868" lon="6.17812">
        <ele>1105.6</ele>
        <time>2021-04-17T15:03:28Z</time>
      </trkpt>
      <trkpt lat="46.11855" lon="6.17817">
        <ele>1103.8</ele>
        <time>2021-04-17T15:03:29Z</time>
      </trkpt>
      <trkpt lat="46.11842" lon="6.17824">
        <ele>1102.4</ele>
        <time>2021-04-17T15:03:30Z</time>
      </trkpt>
      <trkpt lat="46.1183" lon="6.17832">
        <ele>1100.4</ele>
        <time>2021-04-17T15:03:31Z</time>
      </trkpt>
      <trkpt lat="46.11819" lon="6.17843">
        <ele>1098.8</ele>
        <time>2021-04-17T15:03:32Z</time>
      </trkpt>
      <trkpt lat="46.1181" lon="6.17855">
        <ele>1097</ele>
        <time>2021-04-17T15:03:33Z</time>
      </trkpt>
      <trkpt lat="46.11802" lon="6.17866">
        <ele>1095.2</ele>
        <time>2021-04-17T15:03:34Z</time>
      </trkpt>
      <trkpt lat="46.11793" lon="6.17875">
        <ele>1093.2</ele>
        <time>2021-04-17T15:03:35Z</time>
      </trkpt>
      <trkpt lat="46.11783" lon="6.1788">
        <ele>1091.4</ele>
        <time>2021-04-17T15:03:36Z</time>
      </trkpt>
      <trkpt lat="46.11772" lon="6.17882">
        <ele>1089.8</ele>
        <time>2021-04-17T15:03:37Z</time>
      </trkpt>
      <trkpt lat="46.11762" lon="6.17882">
        <ele>1088.6</ele>
        <time>2021-04-17T15:03:38Z</time>
      </trkpt>
      <trkpt lat="46.11753" lon="6.1788">
        <ele>1087.8</ele>
        <time>2021-04-17T15:03:39Z</time>
      </trkpt>
      <trkpt lat="46.11745" lon="6.17883">
        <ele>1086.8</ele>
        <time>2021-04-17T15:03:40Z</time>
      </trkpt>
      <trkpt lat="46.11739" lon="6.17889">
        <ele>1085.8</ele>
        <time>2021-04-17T15:03:41Z</time>
      </trkpt>
      <trkpt lat="46.11737" lon="6.17897">
        <ele>1085</ele>
        <time>2021-04-17T15:03:42Z</time>
      </trkpt>
      <trkpt lat="46.1174" lon="6.17905">
        <ele>1084.2</ele>
        <time>2021-04-17T15:03:43Z</time>
      </trkpt>
      <trkpt lat="46.11743" lon="6.17913">
        <ele>1082.8</ele>
        <time>2021-04-17T15:03:44Z</time>
      </trkpt>
      <trkpt lat="46.1175" lon="6.17918">
        <ele>1081.6</ele>
        <time>2021-04-17T15:03:45Z</time>
      </trkpt>
      <trkpt lat="46.11757" lon="6.17922">
        <ele>1080.6</ele>
        <time>2021-04-17T15:03:46Z</time>
      </trkpt>
      <trkpt lat="46.11764" lon="6.17925">
        <ele>1080</ele>
        <time>2021-04-17T15:03:47Z</time>
      </trkpt>
      <trkpt lat="46.11779" lon="6.17929">
        <ele>1079</ele>
        <time>2021-04-17T15:03:49Z</time>
      </trkpt>
      <trkpt lat="46.11788" lon="6.17928">
        <ele>1078.2</ele>
        <time>2021-04-17T15:03:50Z</time>
      </trkpt>
      <trkpt lat="46.11796" lon="6.17926">
        <ele>1077.6</ele>
        <time>2021-04-17T15:03:51Z</time>
      </trkpt>
      <trkpt lat="46.11806" lon="6.17922">
        <ele>1076.8</ele>
        <time>2021-04-17T15:03:52Z</time>
      </trkpt>
      <trkpt lat="46.11815" lon="6.17918">
        <ele>1075.8</ele>
        <time>2021-04-17T15:03:53Z</time>
      </trkpt>
      <trkpt lat="46.11826" lon="6.17914">
        <ele>1075.4</ele>
        <time>2021-04-17T15:03:54Z</time>
      </trkpt>
      <trkpt lat="46.11836" lon="6.17911">
        <ele>1074.6</ele>
        <time>2021-04-17T15:03:55Z</time>
      </trkpt>
      <trkpt lat="46.11847" lon="6.17912">
        <ele>1074.2</ele>
        <time>2021-04-17T15:03:56Z</time>
      </trkpt>
      <trkpt lat="46.11858" lon="6.17917">
        <ele>1073.6</ele>
        <time>2021-04-17T15:03:57Z</time>
      </trkpt>
      <trkpt lat="46.11868" lon="6.17926">
        <ele>1072.8</ele>
        <time>2021-04-17T15:03:58Z</time>
      </trkpt>
      <trkpt lat="46.11875" lon="6.17937">
        <ele>1072.2</ele>
        <time>2021-04-17T15:03:59Z</time>
      </trkpt>
      <trkpt lat="46.11882" lon="6.1795">
        <ele>1071.6</ele>
        <time>2021-04-17T15:04:00Z</time>
      </trkpt>
      <trkpt lat="46.11889" lon="6.17965">
        <ele>1070.4</ele>
        <time>2021-04-17T15:04:01Z</time>
      </trkpt>
      <trkpt lat="46.11893" lon="6.17982">
        <ele>1068.8</ele>
        <time>2021-04-17T15:04:02Z</time>
      </trkpt>
      <trkpt lat="46.11897" lon="6.17999">
        <ele>1067.2</ele>
        <time>2021-04-17T15:04:03Z</time>
      </trkpt>
      <trkpt lat="46.11901" lon="6.18017">
        <ele>1066</ele>
        <time>2021-04-17T15:04:04Z</time>
      </trkpt>
      <trkpt lat="46.11905" lon="6.18034">
        <ele>1064.6</ele>
        <time>2021-04-17T15:04:05Z</time>
      </trkpt>
      <trkpt lat="46.11909" lon="6.18053">
        <ele>1063.4</ele>
        <time>2021-04-17T15:04:06Z</time>
      </trkpt>
      <trkpt lat="46.11912" lon="6.18071">
        <ele>1062.2</ele>
        <time>2021-04-17T15:04:07Z</time>
      </trkpt>
      <trkpt lat="46.11924" lon="6.1812">
        <ele>1057</ele>
        <time>2021-04-17T15:04:10Z</time>
      </trkpt>
      <trkpt lat="46.11932" lon="6.18133">
        <ele>1055.4</ele>
        <time>2021-04-17T15:04:11Z</time>
      </trkpt>
      <trkpt lat="46.1194" lon="6.18145">
        <ele>1054.2</ele>
        <time>2021-04-17T15:04:12Z</time>
      </trkpt>
      <trkpt lat="46.1195" lon="6.18157">
        <ele>1052.6</ele>
        <time>2021-04-17T15:04:13Z</time>
      </trkpt>
      <trkpt lat="46.1196" lon="6.18166">
        <ele>1051.4</ele>
        <time>2021-04-17T15:04:14Z</time>
      </trkpt>
      <trkpt lat="46.1197" lon="6.18175">
        <ele>1049.4</ele>
        <time>2021-04-17T15:04:15Z</time>
      </trkpt>
      <trkpt lat="46.11982" lon="6.18181">
        <ele>1047.8</ele>
        <time>2021-04-17T15:04:16Z</time>
      </trkpt>
      <trkpt lat="46.11994" lon="6.18187">
        <ele>1046.8</ele>
        <time>2021-04-17T15:04:17Z</time>
      </trkpt>
      <trkpt lat="46.12006" lon="6.18192">
        <ele>1046.2</ele>
        <time>2021-04-17T15:04:18Z</time>
      </trkpt>
      <trkpt lat="46.12016" lon="6.18198">
        <ele>1045</ele>
        <time>2021-04-17T15:04:19Z</time>
      </trkpt>
      <trkpt lat="46.12026" lon="6.18203">
        <ele>1043</ele>
        <time>2021-04-17T15:04:20Z</time>
      </trkpt>
      <trkpt lat="46.12047" lon="6.18216">
        <ele>1039.8</ele>
        <time>2021-04-17T15:04:22Z</time>
      </trkpt>
      <trkpt lat="46.12057" lon="6.18223">
        <ele>1038.8</ele>
        <time>2021-04-17T15:04:23Z</time>
      </trkpt>
      <trkpt lat="46.12068" lon="6.18229">
        <ele>1037.6</ele>
        <time>2021-04-17T15:04:24Z</time>
      </trkpt>
      <trkpt lat="46.12079" lon="6.18233">
        <ele>1035.8</ele>
        <time>2021-04-17T15:04:25Z</time>
      </trkpt>
      <trkpt lat="46.12091" lon="6.18237">
        <ele>1034.6</ele>
        <time>2021-04-17T15:04:26Z</time>
      </trkpt>
      <trkpt lat="46.12102" lon="6.18239">
        <ele>1033.2</ele>
        <time>2021-04-17T15:04:27Z</time>
      </trkpt>
      <trkpt lat="46.1212" lon="6.18239">
        <ele>1031.2</ele>
        <time>2021-04-17T15:04:29Z</time>
      </trkpt>
      <trkpt lat="46.12126" lon="6.1824">
        <ele>1030.2</ele>
        <time>2021-04-17T15:04:30Z</time>
      </trkpt>
      <trkpt lat="46.1213" lon="6.18244">
        <ele>1029.2</ele>
        <time>2021-04-17T15:04:31Z</time>
      </trkpt>
      <trkpt lat="46.12131" lon="6.18251">
        <ele>1028.6</ele>
        <time>2021-04-17T15:04:32Z</time>
      </trkpt>
      <trkpt lat="46.12129" lon="6.18257">
        <ele>1027.4</ele>
        <time>2021-04-17T15:04:33Z</time>
      </trkpt>
      <trkpt lat="46.12123" lon="6.18262">
        <ele>1026.2</ele>
        <time>2021-04-17T15:04:34Z</time>
      </trkpt>
      <trkpt lat="46.12117" lon="6.18265">
        <ele>1024.8</ele>
        <time>2021-04-17T15:04:35Z</time>
      </trkpt>
      <trkpt lat="46.1211" lon="6.18266">
        <ele>1023.8</ele>
        <time>2021-04-17T15:04:36Z</time>
      </trkpt>
      <trkpt lat="46.12102" lon="6.18267">
        <ele>1023.2</ele>
        <time>2021-04-17T15:04:37Z</time>
      </trkpt>
      <trkpt lat="46.12094" lon="6.18268">
        <ele>1022.8</ele>
        <time>2021-04-17T15:04:38Z</time>
      </trkpt>
      <trkpt lat="46.12085" lon="6.1827">
        <ele>1022.2</ele>
        <time>2021-04-17T15:04:39Z</time>
      </trkpt>
      <trkpt lat="46.12075" lon="6.18271">
        <ele>1022.2</ele>
        <time>2021-04-17T15:04:40Z</time>
      </trkpt>
      <trkpt lat="46.12066" lon="6.18272">
        <ele>1021.8</ele>
        <time>2021-04-17T15:04:41Z</time>
      </trkpt>
      <trkpt lat="46.12056" lon="6.18274">
        <ele>1021.4</ele>
        <time>2021-04-17T15:04:42Z</time>
      </trkpt>
      <trkpt lat="46.12045" lon="6.18275">
        <ele>1020.8</ele>
        <time>2021-04-17T15:04:43Z</time>
      </trkpt>
      <trkpt lat="46.12035" lon="6.18275">
        <ele>1020.2</ele>
        <time>2021-04-17T15:04:44Z</time>
      </trkpt>
      <trkpt lat="46.12024" lon="6.18275">
        <ele>1019.8</ele>
        <time>2021-04-17T15:04:45Z</time>
      </trkpt>
      <trkpt lat="46.12013" lon="6.18276">
        <ele>1019.4</ele>
        <time>2021-04-17T15:04:46Z</time>
      </trkpt>
      <trkpt lat="46.12003" lon="6.18277">
        <ele>1018.6</ele>
        <time>2021-04-17T15:04:47Z</time>
      </trkpt>
      <trkpt lat="46.11992" lon="6.18278">
        <ele>1017.8</ele>
        <time>2021-04-17T15:04:48Z</time>
      </trkpt>
      <trkpt lat="46.11981" lon="6.1828">
        <ele>1016.8</ele>
        <time>2021-04-17T15:04:49Z</time>
      </trkpt>
      <trkpt lat="46.1197" lon="6.18283">
        <ele>1015.8</ele>
        <time>2021-04-17T15:04:50Z</time>
      </trkpt>
      <trkpt lat="46.11958" lon="6.18286">
        <ele>1014.8</ele>
        <time>2021-04-17T15:04:51Z</time>
      </trkpt>
      <trkpt lat="46.11945" lon="6.18289">
        <ele>1014</ele>
        <time>2021-04-17T15:04:52Z</time>
      </trkpt>
      <trkpt lat="46.11933" lon="6.18293">
        <ele>1012.8</ele>
        <time>2021-04-17T15:04:53Z</time>
      </trkpt>
      <trkpt lat="46.11919" lon="6.18297">
        <ele>1011.2</ele>
        <time>2021-04-17T15:04:54Z</time>
      </trkpt>
      <trkpt lat="46.11905" lon="6.18301">
        <ele>1010.4</ele>
        <time>2021-04-17T15:04:55Z</time>
      </trkpt>
      <trkpt lat="46.11892" lon="6.18305">
        <ele>1009.4</ele>
        <time>2021-04-17T15:04:56Z</time>
      </trkpt>
      <trkpt lat="46.11878" lon="6.18311">
        <ele>1008</ele>
        <time>2021-04-17T15:04:57Z</time>
      </trkpt>
      <trkpt lat="46.11864" lon="6.18316">
        <ele>1006.6</ele>
        <time>2021-04-17T15:04:58Z</time>
      </trkpt>
      <trkpt lat="46.11851" lon="6.18323">
        <ele>1005</ele>
        <time>2021-04-17T15:04:59Z</time>
      </trkpt>
      <trkpt lat="46.11837" lon="6.18329">
        <ele>1004.2</ele>
        <time>2021-04-17T15:05:00Z</time>
      </trkpt>
      <trkpt lat="46.11823" lon="6.18335">
        <ele>1003</ele>
        <time>2021-04-17T15:05:01Z</time>
      </trkpt>
      <trkpt lat="46.11809" lon="6.1834">
        <ele>1001.4</ele>
        <time>2021-04-17T15:05:02Z</time>
      </trkpt>
      <trkpt lat="46.11796" lon="6.18345">
        <ele>999.6</ele>
        <time>2021-04-17T15:05:03Z</time>
      </trkpt>
      <trkpt lat="46.11782" lon="6.1835">
        <ele>998.2</ele>
        <time>2021-04-17T15:05:04Z</time>
      </trkpt>
      <trkpt lat="46.11768" lon="6.18354">
        <ele>997</ele>
        <time>2021-04-17T15:05:05Z</time>
      </trkpt>
      <trkpt lat="46.11756" lon="6.18357">
        <ele>995.8</ele>
        <time>2021-04-17T15:05:06Z</time>
      </trkpt>
      <trkpt lat="46.11743" lon="6.18358">
        <ele>994.6</ele>
        <time>2021-04-17T15:05:07Z</time>
      </trkpt>
      <trkpt lat="46.11731" lon="6.18357">
        <ele>993.4</ele>
        <time>2021-04-17T15:05:08Z</time>
      </trkpt>
      <trkpt lat="46.11719" lon="6.18353">
        <ele>992.4</ele>
        <time>2021-04-17T15:05:09Z</time>
      </trkpt>
      <trkpt lat="46.11707" lon="6.18348">
        <ele>991.4</ele>
        <time>2021-04-17T15:05:10Z</time>
      </trkpt>
      <trkpt lat="46.11695" lon="6.18341">
        <ele>990</ele>
        <time>2021-04-17T15:05:11Z</time>
      </trkpt>
      <trkpt lat="46.11683" lon="6.18333">
        <ele>989</ele>
        <time>2021-04-17T15:05:12Z</time>
      </trkpt>
      <trkpt lat="46.11672" lon="6.18325">
        <ele>987.8</ele>
        <time>2021-04-17T15:05:13Z</time>
      </trkpt>
      <trkpt lat="46.11662" lon="6.18315">
        <ele>986.2</ele>
        <time>2021-04-17T15:05:14Z</time>
      </trkpt>
      <trkpt lat="46.11654" lon="6.18306">
        <ele>985</ele>
        <time>2021-04-17T15:05:15Z</time>
      </trkpt>
      <trkpt lat="46.11645" lon="6.183">
        <ele>984.6</ele>
        <time>2021-04-17T15:05:16Z</time>
      </trkpt>
      <trkpt lat="46.11635" lon="6.18297">
        <ele>984</ele>
        <time>2021-04-17T15:05:17Z</time>
      </trkpt>
      <trkpt lat="46.11624" lon="6.18299">
        <ele>983.4</ele>
        <time>2021-04-17T15:05:18Z</time>
      </trkpt>
      <trkpt lat="46.11613" lon="6.183">
        <ele>982</ele>
        <time>2021-04-17T15:05:19Z</time>
      </trkpt>
      <trkpt lat="46.11602" lon="6.18301">
        <ele>980.4</ele>
        <time>2021-04-17T15:05:20Z</time>
      </trkpt>
      <trkpt lat="46.11592" lon="6.18301">
        <ele>978.8</ele>
        <time>2021-04-17T15:05:21Z</time>
      </trkpt>
      <trkpt lat="46.11572" lon="6.18298">
        <ele>977.2</ele>
        <time>2021-04-17T15:05:23Z</time>
      </trkpt>
      <trkpt lat="46.11564" lon="6.18301">
        <ele>976.6</ele>
        <time>2021-04-17T15:05:24Z</time>
      </trkpt>
      <trkpt lat="46.11558" lon="6.18306">
        <ele>975.6</ele>
        <time>2021-04-17T15:05:25Z</time>
      </trkpt>
      <trkpt lat="46.11554" lon="6.18316">
        <ele>974</ele>
        <time>2021-04-17T15:05:26Z</time>
      </trkpt>
      <trkpt lat="46.11553" lon="6.18327">
        <ele>972.4</ele>
        <time>2021-04-17T15:05:27Z</time>
      </trkpt>
      <trkpt lat="46.11557" lon="6.18336">
        <ele>971.6</ele>
        <time>2021-04-17T15:05:28Z</time>
      </trkpt>
      <trkpt lat="46.11562" lon="6.18343">
        <ele>970.8</ele>
        <time>2021-04-17T15:05:29Z</time>
      </trkpt>
      <trkpt lat="46.11568" lon="6.18349">
        <ele>970.2</ele>
        <time>2021-04-17T15:05:30Z</time>
      </trkpt>
      <trkpt lat="46.11576" lon="6.18353">
        <ele>969.8</ele>
        <time>2021-04-17T15:05:31Z</time>
      </trkpt>
      <trkpt lat="46.11592" lon="6.18357">
        <ele>969.2</ele>
        <time>2021-04-17T15:05:33Z</time>
      </trkpt>
      <trkpt lat="46.116" lon="6.1836">
        <ele>969</ele>
        <time>2021-04-17T15:05:34Z</time>
      </trkpt>
      <trkpt lat="46.11616" lon="6.18374">
        <ele>967.6</ele>
        <time>2021-04-17T15:05:36Z</time>
      </trkpt>
      <trkpt lat="46.11622" lon="6.18385">
        <ele>967</ele>
        <time>2021-04-17T15:05:37Z</time>
      </trkpt>
      <trkpt lat="46.11626" lon="6.18398">
        <ele>965.8</ele>
        <time>2021-04-17T15:05:38Z</time>
      </trkpt>
      <trkpt lat="46.11629" lon="6.18427">
        <ele>964.4</ele>
        <time>2021-04-17T15:05:40Z</time>
      </trkpt>
      <trkpt lat="46.11628" lon="6.18442">
        <ele>963.8</ele>
        <time>2021-04-17T15:05:41Z</time>
      </trkpt>
      <trkpt lat="46.11626" lon="6.18457">
        <ele>963.2</ele>
        <time>2021-04-17T15:05:42Z</time>
      </trkpt>
      <trkpt lat="46.11625" lon="6.18472">
        <ele>962</ele>
        <time>2021-04-17T15:05:43Z</time>
      </trkpt>
      <trkpt lat="46.11623" lon="6.18487">
        <ele>961.2</ele>
        <time>2021-04-17T15:05:44Z</time>
      </trkpt>
      <trkpt lat="46.11622" lon="6.18502">
        <ele>960.6</ele>
        <time>2021-04-17T15:05:45Z</time>
      </trkpt>
      <trkpt lat="46.11622" lon="6.18516">
        <ele>960</ele>
        <time>2021-04-17T15:05:46Z</time>
      </trkpt>
      <trkpt lat="46.11623" lon="6.18531">
        <ele>959.2</ele>
        <time>2021-04-17T15:05:47Z</time>
      </trkpt>
      <trkpt lat="46.11625" lon="6.18544">
        <ele>958.4</ele>
        <time>2021-04-17T15:05:48Z</time>
      </trkpt>
      <trkpt lat="46.11629" lon="6.18557">
        <ele>957.6</ele>
        <time>2021-04-17T15:05:49Z</time>
      </trkpt>
      <trkpt lat="46.11633" lon="6.18569">
        <ele>956.8</ele>
        <time>2021-04-17T15:05:50Z</time>
      </trkpt>
      <trkpt lat="46.11639" lon="6.18581">
        <ele>956.4</ele>
        <time>2021-04-17T15:05:51Z</time>
      </trkpt>
      <trkpt lat="46.11644" lon="6.18592">
        <ele>956</ele>
        <time>2021-04-17T15:05:52Z</time>
      </trkpt>
      <trkpt lat="46.11651" lon="6.18603">
        <ele>955.8</ele>
        <time>2021-04-17T15:05:53Z</time>
      </trkpt>
      <trkpt lat="46.11657" lon="6.18613">
        <ele>955.6</ele>
        <time>2021-04-17T15:05:54Z</time>
      </trkpt>
      <trkpt lat="46.11663" lon="6.18624">
        <ele>955.2</ele>
        <time>2021-04-17T15:05:55Z</time>
      </trkpt>
      <trkpt lat="46.11669" lon="6.18635">
        <ele>955</ele>
        <time>2021-04-17T15:05:56Z</time>
      </trkpt>
      <trkpt lat="46.11674" lon="6.18646">
        <ele>955</ele>
        <time>2021-04-17T15:05:57Z</time>
      </trkpt>
      <trkpt lat="46.11678" lon="6.18658">
        <ele>954.8</ele>
        <time>2021-04-17T15:05:58Z</time>
      </trkpt>
      <trkpt lat="46.11682" lon="6.1867">
        <ele>954.6</ele>
        <time>2021-04-17T15:05:59Z</time>
      </trkpt>
      <trkpt lat="46.11685" lon="6.18682">
        <ele>954.4</ele>
        <time>2021-04-17T15:06:00Z</time>
      </trkpt>
      <trkpt lat="46.11687" lon="6.18695">
        <ele>954.4</ele>
        <time>2021-04-17T15:06:01Z</time>
      </trkpt>
      <trkpt lat="46.11688" lon="6.18708">
        <ele>954.2</ele>
        <time>2021-04-17T15:06:02Z</time>
      </trkpt>
      <trkpt lat="46.11687" lon="6.18722">
        <ele>954.2</ele>
        <time>2021-04-17T15:06:03Z</time>
      </trkpt>
      <trkpt lat="46.11687" lon="6.18736">
        <ele>954</ele>
        <time>2021-04-17T15:06:04Z</time>
      </trkpt>
      <trkpt lat="46.11686" lon="6.1875">
        <ele>954</ele>
        <time>2021-04-17T15:06:05Z</time>
      </trkpt>
      <trkpt lat="46.11685" lon="6.18765">
        <ele>953.8</ele>
        <time>2021-04-17T15:06:06Z</time>
      </trkpt>
      <trkpt lat="46.11684" lon="6.1878">
        <ele>953.6</ele>
        <time>2021-04-17T15:06:07Z</time>
      </trkpt>
      <trkpt lat="46.11682" lon="6.18795">
        <ele>953.4</ele>
        <time>2021-04-17T15:06:08Z</time>
      </trkpt>
      <trkpt lat="46.11678" lon="6.18809">
        <ele>953</ele>
        <time>2021-04-17T15:06:09Z</time>
      </trkpt>
      <trkpt lat="46.11673" lon="6.18824">
        <ele>952.4</ele>
        <time>2021-04-17T15:06:10Z</time>
      </trkpt>
      <trkpt lat="46.11667" lon="6.18838">
        <ele>952.4</ele>
        <time>2021-04-17T15:06:11Z</time>
      </trkpt>
      <trkpt lat="46.1166" lon="6.18851">
        <ele>952.2</ele>
        <time>2021-04-17T15:06:12Z</time>
      </trkpt>
      <trkpt lat="46.11652" lon="6.18863">
        <ele>951.6</ele>
        <time>2021-04-17T15:06:13Z</time>
      </trkpt>
      <trkpt lat="46.11643" lon="6.18876">
        <ele>950.8</ele>
        <time>2021-04-17T15:06:14Z</time>
      </trkpt>
      <trkpt lat="46.11634" lon="6.18888">
        <ele>950.2</ele>
        <time>2021-04-17T15:06:15Z</time>
      </trkpt>
      <trkpt lat="46.11625" lon="6.189">
        <ele>949.2</ele>
        <time>2021-04-17T15:06:16Z</time>
      </trkpt>
      <trkpt lat="46.11617" lon="6.18913">
        <ele>948.8</ele>
        <time>2021-04-17T15:06:17Z</time>
      </trkpt>
      <trkpt lat="46.11608" lon="6.18926">
        <ele>947.6</ele>
        <time>2021-04-17T15:06:18Z</time>
      </trkpt>
      <trkpt lat="46.11598" lon="6.18939">
        <ele>946.8</ele>
        <time>2021-04-17T15:06:19Z</time>
      </trkpt>
      <trkpt lat="46.11589" lon="6.18953">
        <ele>945.4</ele>
        <time>2021-04-17T15:06:20Z</time>
      </trkpt>
      <trkpt lat="46.1158" lon="6.18966">
        <ele>944.4</ele>
        <time>2021-04-17T15:06:21Z</time>
      </trkpt>
      <trkpt lat="46.1157" lon="6.1898">
        <ele>943.4</ele>
        <time>2021-04-17T15:06:22Z</time>
      </trkpt>
      <trkpt lat="46.1156" lon="6.18993">
        <ele>942.6</ele>
        <time>2021-04-17T15:06:23Z</time>
      </trkpt>
      <trkpt lat="46.11549" lon="6.19006">
        <ele>941.4</ele>
        <time>2021-04-17T15:06:24Z</time>
      </trkpt>
      <trkpt lat="46.11538" lon="6.19019">
        <ele>940.4</ele>
        <time>2021-04-17T15:06:25Z</time>
      </trkpt>
      <trkpt lat="46.11527" lon="6.19031">
        <ele>939.2</ele>
        <time>2021-04-17T15:06:26Z</time>
      </trkpt>
      <trkpt lat="46.11516" lon="6.19044">
        <ele>938.4</ele>
        <time>2021-04-17T15:06:27Z</time>
      </trkpt>
      <trkpt lat="46.11505" lon="6.19055">
        <ele>937.6</ele>
        <time>2021-04-17T15:06:28Z</time>
      </trkpt>
      <trkpt lat="46.11494" lon="6.19066">
        <ele>936.2</ele>
        <time>2021-04-17T15:06:29Z</time>
      </trkpt>
      <trkpt lat="46.11484" lon="6.19077">
        <ele>935</ele>
        <time>2021-04-17T15:06:30Z</time>
      </trkpt>
      <trkpt lat="46.11475" lon="6.19086">
        <ele>933.6</ele>
        <time>2021-04-17T15:06:31Z</time>
      </trkpt>
      <trkpt lat="46.11467" lon="6.19094">
        <ele>932.6</ele>
        <time>2021-04-17T15:06:32Z</time>
      </trkpt>
      <trkpt lat="46.11459" lon="6.19102">
        <ele>931.4</ele>
        <time>2021-04-17T15:06:33Z</time>
      </trkpt>
      <trkpt lat="46.11451" lon="6.19109">
        <ele>930</ele>
        <time>2021-04-17T15:06:34Z</time>
      </trkpt>
      <trkpt lat="46.11443" lon="6.19115">
        <ele>928.4</ele>
        <time>2021-04-17T15:06:35Z</time>
      </trkpt>
      <trkpt lat="46.11435" lon="6.1912">
        <ele>927.2</ele>
        <time>2021-04-17T15:06:36Z</time>
      </trkpt>
      <trkpt lat="46.11426" lon="6.19125">
        <ele>926</ele>
        <time>2021-04-17T15:06:37Z</time>
      </trkpt>
      <trkpt lat="46.11418" lon="6.19129">
        <ele>925.8</ele>
        <time>2021-04-17T15:06:38Z</time>
      </trkpt>
      <trkpt lat="46.11409" lon="6.19132">
        <ele>925</ele>
        <time>2021-04-17T15:06:39Z</time>
      </trkpt>
      <trkpt lat="46.114" lon="6.19136">
        <ele>924.6</ele>
        <time>2021-04-17T15:06:40Z</time>
      </trkpt>
      <trkpt lat="46.11391" lon="6.1914">
        <ele>924.2</ele>
        <time>2021-04-17T15:06:41Z</time>
      </trkpt>
      <trkpt lat="46.11382" lon="6.19145">
        <ele>923.6</ele>
        <time>2021-04-17T15:06:42Z</time>
      </trkpt>
      <trkpt lat="46.11374" lon="6.19149">
        <ele>922.8</ele>
        <time>2021-04-17T15:06:43Z</time>
      </trkpt>
      <trkpt lat="46.11365" lon="6.19153">
        <ele>922.4</ele>
        <time>2021-04-17T15:06:44Z</time>
      </trkpt>
      <trkpt lat="46.11356" lon="6.19157">
        <ele>921.8</ele>
        <time>2021-04-17T15:06:45Z</time>
      </trkpt>
      <trkpt lat="46.11347" lon="6.19161">
        <ele>921.4</ele>
        <time>2021-04-17T15:06:46Z</time>
      </trkpt>
      <trkpt lat="46.11339" lon="6.19166">
        <ele>921</ele>
        <time>2021-04-17T15:06:47Z</time>
      </trkpt>
      <trkpt lat="46.11331" lon="6.19173">
        <ele>920.6</ele>
        <time>2021-04-17T15:06:48Z</time>
      </trkpt>
      <trkpt lat="46.11324" lon="6.19181">
        <ele>920.2</ele>
        <time>2021-04-17T15:06:49Z</time>
      </trkpt>
      <trkpt lat="46.11319" lon="6.19192">
        <ele>920</ele>
        <time>2021-04-17T15:06:50Z</time>
      </trkpt>
      <trkpt lat="46.11316" lon="6.19204">
        <ele>920</ele>
        <time>2021-04-17T15:06:51Z</time>
      </trkpt>
      <trkpt lat="46.11317" lon="6.19216">
        <ele>919.6</ele>
        <time>2021-04-17T15:06:52Z</time>
      </trkpt>
      <trkpt lat="46.11319" lon="6.19229">
        <ele>919.6</ele>
        <time>2021-04-17T15:06:53Z</time>
      </trkpt>
      <trkpt lat="46.11323" lon="6.19239">
        <ele>919.4</ele>
        <time>2021-04-17T15:06:54Z</time>
      </trkpt>
      <trkpt lat="46.11329" lon="6.19248">
        <ele>919.4</ele>
        <time>2021-04-17T15:06:55Z</time>
      </trkpt>
      <trkpt lat="46.11344" lon="6.19258">
        <ele>919</ele>
        <time>2021-04-17T15:06:57Z</time>
      </trkpt>
      <trkpt lat="46.11352" lon="6.19257">
        <ele>918.8</ele>
        <time>2021-04-17T15:06:58Z</time>
      </trkpt>
      <trkpt lat="46.1136" lon="6.19254">
        <ele>918.4</ele>
        <time>2021-04-17T15:06:59Z</time>
      </trkpt>
      <trkpt lat="46.11368" lon="6.19248">
        <ele>918.6</ele>
        <time>2021-04-17T15:07:00Z</time>
      </trkpt>
      <trkpt lat="46.11375" lon="6.19241">
        <ele>918.4</ele>
        <time>2021-04-17T15:07:01Z</time>
      </trkpt>
      <trkpt lat="46.11382" lon="6.19234">
        <ele>917.8</ele>
        <time>2021-04-17T15:07:02Z</time>
      </trkpt>
      <trkpt lat="46.11391" lon="6.19227">
        <ele>916.4</ele>
        <time>2021-04-17T15:07:03Z</time>
      </trkpt>
      <trkpt lat="46.11399" lon="6.19221">
        <ele>915.6</ele>
        <time>2021-04-17T15:07:04Z</time>
      </trkpt>
      <trkpt lat="46.11409" lon="6.19216">
        <ele>914.8</ele>
        <time>2021-04-17T15:07:05Z</time>
      </trkpt>
      <trkpt lat="46.11419" lon="6.19213">
        <ele>913.4</ele>
        <time>2021-04-17T15:07:06Z</time>
      </trkpt>
      <trkpt lat="46.11429" lon="6.19211">
        <ele>911.2</ele>
        <time>2021-04-17T15:07:07Z</time>
      </trkpt>
      <trkpt lat="46.11439" lon="6.1921">
        <ele>909.6</ele>
        <time>2021-04-17T15:07:08Z</time>
      </trkpt>
      <trkpt lat="46.1145" lon="6.1921">
        <ele>907.6</ele>
        <time>2021-04-17T15:07:09Z</time>
      </trkpt>
      <trkpt lat="46.11461" lon="6.19211">
        <ele>906.4</ele>
        <time>2021-04-17T15:07:10Z</time>
      </trkpt>
      <trkpt lat="46.11472" lon="6.19213">
        <ele>905.8</ele>
        <time>2021-04-17T15:07:11Z</time>
      </trkpt>
      <trkpt lat="46.11483" lon="6.19217">
        <ele>905.4</ele>
        <time>2021-04-17T15:07:12Z</time>
      </trkpt>
      <trkpt lat="46.11494" lon="6.1922">
        <ele>905</ele>
        <time>2021-04-17T15:07:13Z</time>
      </trkpt>
      <trkpt lat="46.11505" lon="6.19224">
        <ele>904.6</ele>
        <time>2021-04-17T15:07:14Z</time>
      </trkpt>
      <trkpt lat="46.11516" lon="6.19227">
        <ele>904.4</ele>
        <time>2021-04-17T15:07:15Z</time>
      </trkpt>
      <trkpt lat="46.11538" lon="6.19232">
        <ele>904</ele>
        <time>2021-04-17T15:07:17Z</time>
      </trkpt>
      <trkpt lat="46.11548" lon="6.19233">
        <ele>901.8</ele>
        <time>2021-04-17T15:07:18Z</time>
      </trkpt>
      <trkpt lat="46.11558" lon="6.19234">
        <ele>899.8</ele>
        <time>2021-04-17T15:07:19Z</time>
      </trkpt>
      <trkpt lat="46.11576" lon="6.19237">
        <ele>898</ele>
        <time>2021-04-17T15:07:21Z</time>
      </trkpt>
      <trkpt lat="46.11585" lon="6.19252">
        <ele>897.2</ele>
        <time>2021-04-17T15:07:23Z</time>
      </trkpt>
      <trkpt lat="46.11579" lon="6.19271">
        <ele>895.4</ele>
        <time>2021-04-17T15:07:25Z</time>
      </trkpt>
      <trkpt lat="46.11571" lon="6.19275">
        <ele>895.2</ele>
        <time>2021-04-17T15:07:26Z</time>
      </trkpt>
      <trkpt lat="46.11562" lon="6.19274">
        <ele>895</ele>
        <time>2021-04-17T15:07:27Z</time>
      </trkpt>
      <trkpt lat="46.11553" lon="6.19273">
        <ele>895</ele>
        <time>2021-04-17T15:07:28Z</time>
      </trkpt>
      <trkpt lat="46.11543" lon="6.19271">
        <ele>894.8</ele>
        <time>2021-04-17T15:07:29Z</time>
      </trkpt>
      <trkpt lat="46.11533" lon="6.19271">
        <ele>894.8</ele>
        <time>2021-04-17T15:07:30Z</time>
      </trkpt>
      <trkpt lat="46.11523" lon="6.19272">
        <ele>894.2</ele>
        <time>2021-04-17T15:07:31Z</time>
      </trkpt>
      <trkpt lat="46.11513" lon="6.19277">
        <ele>893.8</ele>
        <time>2021-04-17T15:07:32Z</time>
      </trkpt>
      <trkpt lat="46.11504" lon="6.19285">
        <ele>893</ele>
        <time>2021-04-17T15:07:33Z</time>
      </trkpt>
      <trkpt lat="46.11494" lon="6.19294">
        <ele>892.2</ele>
        <time>2021-04-17T15:07:34Z</time>
      </trkpt>
      <trkpt lat="46.11485" lon="6.19303">
        <ele>891.2</ele>
        <time>2021-04-17T15:07:35Z</time>
      </trkpt>
      <trkpt lat="46.11475" lon="6.19313">
        <ele>890.4</ele>
        <time>2021-04-17T15:07:36Z</time>
      </trkpt>
      <trkpt lat="46.11465" lon="6.19321">
        <ele>889.8</ele>
        <time>2021-04-17T15:07:37Z</time>
      </trkpt>
      <trkpt lat="46.11455" lon="6.19329">
        <ele>889.2</ele>
        <time>2021-04-17T15:07:38Z</time>
      </trkpt>
      <trkpt lat="46.11444" lon="6.19335">
        <ele>887.8</ele>
        <time>2021-04-17T15:07:39Z</time>
      </trkpt>
      <trkpt lat="46.11434" lon="6.1934">
        <ele>887.2</ele>
        <time>2021-04-17T15:07:40Z</time>
      </trkpt>
      <trkpt lat="46.11417" lon="6.1935">
        <ele>885.2</ele>
        <time>2021-04-17T15:07:42Z</time>
      </trkpt>
      <trkpt lat="46.1141" lon="6.19359">
        <ele>884.6</ele>
        <time>2021-04-17T15:07:43Z</time>
      </trkpt>
      <trkpt lat="46.11409" lon="6.19369">
        <ele>883.6</ele>
        <time>2021-04-17T15:07:44Z</time>
      </trkpt>
      <trkpt lat="46.11408" lon="6.19378">
        <ele>882.2</ele>
        <time>2021-04-17T15:07:45Z</time>
      </trkpt>
      <trkpt lat="46.11418" lon="6.19385">
        <ele>881</ele>
        <time>2021-04-17T15:07:46Z</time>
      </trkpt>
      <trkpt lat="46.11426" lon="6.19386">
        <ele>880</ele>
        <time>2021-04-17T15:07:47Z</time>
      </trkpt>
      <trkpt lat="46.11434" lon="6.19384">
        <ele>879</ele>
        <time>2021-04-17T15:07:48Z</time>
      </trkpt>
      <trkpt lat="46.11443" lon="6.19379">
        <ele>878.4</ele>
        <time>2021-04-17T15:07:49Z</time>
      </trkpt>
      <trkpt lat="46.11452" lon="6.19374">
        <ele>877.8</ele>
        <time>2021-04-17T15:07:50Z</time>
      </trkpt>
      <trkpt lat="46.11462" lon="6.19369">
        <ele>877.6</ele>
        <time>2021-04-17T15:07:51Z</time>
      </trkpt>
      <trkpt lat="46.11472" lon="6.19366">
        <ele>876.8</ele>
        <time>2021-04-17T15:07:52Z</time>
      </trkpt>
      <trkpt lat="46.11482" lon="6.19365">
        <ele>876.6</ele>
        <time>2021-04-17T15:07:53Z</time>
      </trkpt>
      <trkpt lat="46.11492" lon="6.19366">
        <ele>876</ele>
        <time>2021-04-17T15:07:54Z</time>
      </trkpt>
      <trkpt lat="46.11504" lon="6.1937">
        <ele>875</ele>
        <time>2021-04-17T15:07:55Z</time>
      </trkpt>
      <trkpt lat="46.11515" lon="6.19375">
        <ele>873.8</ele>
        <time>2021-04-17T15:07:56Z</time>
      </trkpt>
      <trkpt lat="46.11526" lon="6.19379">
        <ele>871.2</ele>
        <time>2021-04-17T15:07:57Z</time>
      </trkpt>
      <trkpt lat="46.11537" lon="6.19384">
        <ele>869.4</ele>
        <time>2021-04-17T15:07:58Z</time>
      </trkpt>
      <trkpt lat="46.11547" lon="6.19389">
        <ele>868.2</ele>
        <time>2021-04-17T15:07:59Z</time>
      </trkpt>
      <trkpt lat="46.11558" lon="6.19395">
        <ele>867</ele>
        <time>2021-04-17T15:08:00Z</time>
      </trkpt>
      <trkpt lat="46.11569" lon="6.194">
        <ele>865.8</ele>
        <time>2021-04-17T15:08:01Z</time>
      </trkpt>
      <trkpt lat="46.1158" lon="6.19406">
        <ele>865</ele>
        <time>2021-04-17T15:08:02Z</time>
      </trkpt>
      <trkpt lat="46.1159" lon="6.19413">
        <ele>864.8</ele>
        <time>2021-04-17T15:08:03Z</time>
      </trkpt>
      <trkpt lat="46.116" lon="6.19421">
        <ele>864</ele>
        <time>2021-04-17T15:08:04Z</time>
      </trkpt>
      <trkpt lat="46.1161" lon="6.19431">
        <ele>863</ele>
        <time>2021-04-17T15:08:05Z</time>
      </trkpt>
      <trkpt lat="46.11619" lon="6.19442">
        <ele>861.8</ele>
        <time>2021-04-17T15:08:06Z</time>
      </trkpt>
      <trkpt lat="46.11628" lon="6.19453">
        <ele>860.8</ele>
        <time>2021-04-17T15:08:07Z</time>
      </trkpt>
      <trkpt lat="46.11637" lon="6.19465">
        <ele>859.8</ele>
        <time>2021-04-17T15:08:08Z</time>
      </trkpt>
      <trkpt lat="46.11645" lon="6.19477">
        <ele>859.2</ele>
        <time>2021-04-17T15:08:09Z</time>
      </trkpt>
      <trkpt lat="46.11654" lon="6.19489">
        <ele>858.4</ele>
        <time>2021-04-17T15:08:10Z</time>
      </trkpt>
      <trkpt lat="46.11663" lon="6.19501">
        <ele>857.6</ele>
        <time>2021-04-17T15:08:11Z</time>
      </trkpt>
      <trkpt lat="46.11672" lon="6.19513">
        <ele>856.6</ele>
        <time>2021-04-17T15:08:12Z</time>
      </trkpt>
      <trkpt lat="46.11681" lon="6.19525">
        <ele>855.4</ele>
        <time>2021-04-17T15:08:13Z</time>
      </trkpt>
      <trkpt lat="46.11689" lon="6.19535">
        <ele>854.2</ele>
        <time>2021-04-17T15:08:14Z</time>
      </trkpt>
      <trkpt lat="46.11698" lon="6.19544">
        <ele>852.8</ele>
        <time>2021-04-17T15:08:15Z</time>
      </trkpt>
      <trkpt lat="46.11708" lon="6.1955">
        <ele>852.2</ele>
        <time>2021-04-17T15:08:16Z</time>
      </trkpt>
      <trkpt lat="46.11717" lon="6.19556">
        <ele>851.4</ele>
        <time>2021-04-17T15:08:17Z</time>
      </trkpt>
      <trkpt lat="46.11727" lon="6.19561">
        <ele>850.4</ele>
        <time>2021-04-17T15:08:18Z</time>
      </trkpt>
      <trkpt lat="46.11737" lon="6.19565">
        <ele>849.2</ele>
        <time>2021-04-17T15:08:19Z</time>
      </trkpt>
      <trkpt lat="46.11747" lon="6.19569">
        <ele>848.4</ele>
        <time>2021-04-17T15:08:20Z</time>
      </trkpt>
      <trkpt lat="46.11757" lon="6.19573">
        <ele>847.6</ele>
        <time>2021-04-17T15:08:21Z</time>
      </trkpt>
      <trkpt lat="46.11767" lon="6.19578">
        <ele>847.2</ele>
        <time>2021-04-17T15:08:22Z</time>
      </trkpt>
      <trkpt lat="46.11777" lon="6.19582">
        <ele>846.4</ele>
        <time>2021-04-17T15:08:23Z</time>
      </trkpt>
      <trkpt lat="46.11786" lon="6.19586">
        <ele>845.6</ele>
        <time>2021-04-17T15:08:24Z</time>
      </trkpt>
      <trkpt lat="46.11796" lon="6.19591">
        <ele>845</ele>
        <time>2021-04-17T15:08:25Z</time>
      </trkpt>
      <trkpt lat="46.11806" lon="6.19595">
        <ele>844.6</ele>
        <time>2021-04-17T15:08:26Z</time>
      </trkpt>
      <trkpt lat="46.11816" lon="6.19599">
        <ele>844.2</ele>
        <time>2021-04-17T15:08:27Z</time>
      </trkpt>
      <trkpt lat="46.11826" lon="6.19604">
        <ele>844</ele>
        <time>2021-04-17T15:08:28Z</time>
      </trkpt>
      <trkpt lat="46.11836" lon="6.19608">
        <ele>843.8</ele>
        <time>2021-04-17T15:08:29Z</time>
      </trkpt>
      <trkpt lat="46.11846" lon="6.19611">
        <ele>843.6</ele>
        <time>2021-04-17T15:08:30Z</time>
      </trkpt>
      <trkpt lat="46.11856" lon="6.19614">
        <ele>843.2</ele>
        <time>2021-04-17T15:08:31Z</time>
      </trkpt>
      <trkpt lat="46.11866" lon="6.19616">
        <ele>843</ele>
        <time>2021-04-17T15:08:32Z</time>
      </trkpt>
      <trkpt lat="46.11876" lon="6.19614">
        <ele>842</ele>
        <time>2021-04-17T15:08:33Z</time>
      </trkpt>
      <trkpt lat="46.11885" lon="6.19611">
        <ele>841.4</ele>
        <time>2021-04-17T15:08:34Z</time>
      </trkpt>
      <trkpt lat="46.11894" lon="6.19606">
        <ele>841</ele>
        <time>2021-04-17T15:08:35Z</time>
      </trkpt>
      <trkpt lat="46.11902" lon="6.19599">
        <ele>840.6</ele>
        <time>2021-04-17T15:08:36Z</time>
      </trkpt>
      <trkpt lat="46.11909" lon="6.19591">
        <ele>840</ele>
        <time>2021-04-17T15:08:37Z</time>
      </trkpt>
      <trkpt lat="46.11915" lon="6.19581">
        <ele>839.6</ele>
        <time>2021-04-17T15:08:38Z</time>
      </trkpt>
      <trkpt lat="46.11927" lon="6.19561">
        <ele>838.4</ele>
        <time>2021-04-17T15:08:40Z</time>
      </trkpt>
      <trkpt lat="46.11938" lon="6.1954">
        <ele>837.2</ele>
        <time>2021-04-17T15:08:42Z</time>
      </trkpt>
      <trkpt lat="46.1195" lon="6.1952">
        <ele>835</ele>
        <time>2021-04-17T15:08:44Z</time>
      </trkpt>
      <trkpt lat="46.11962" lon="6.195">
        <ele>832.2</ele>
        <time>2021-04-17T15:08:46Z</time>
      </trkpt>
      <trkpt lat="46.11969" lon="6.1949">
        <ele>831.2</ele>
        <time>2021-04-17T15:08:47Z</time>
      </trkpt>
      <trkpt lat="46.11977" lon="6.19482">
        <ele>830.4</ele>
        <time>2021-04-17T15:08:48Z</time>
      </trkpt>
      <trkpt lat="46.11986" lon="6.19475">
        <ele>829.6</ele>
        <time>2021-04-17T15:08:49Z</time>
      </trkpt>
      <trkpt lat="46.11995" lon="6.19471">
        <ele>829.2</ele>
        <time>2021-04-17T15:08:50Z</time>
      </trkpt>
      <trkpt lat="46.12005" lon="6.1947">
        <ele>829</ele>
        <time>2021-04-17T15:08:51Z</time>
      </trkpt>
      <trkpt lat="46.12015" lon="6.19472">
        <ele>828.8</ele>
        <time>2021-04-17T15:08:52Z</time>
      </trkpt>
      <trkpt lat="46.12024" lon="6.19477">
        <ele>828.8</ele>
        <time>2021-04-17T15:08:53Z</time>
      </trkpt>
      <trkpt lat="46.12042" lon="6.19491">
        <ele>828.2</ele>
        <time>2021-04-17T15:08:55Z</time>
      </trkpt>
      <trkpt lat="46.12051" lon="6.19498">
        <ele>828</ele>
        <time>2021-04-17T15:08:56Z</time>
      </trkpt>
      <trkpt lat="46.1206" lon="6.19504">
        <ele>828</ele>
        <time>2021-04-17T15:08:57Z</time>
      </trkpt>
      <trkpt lat="46.1208" lon="6.19513">
        <ele>827.4</ele>
        <time>2021-04-17T15:08:59Z</time>
      </trkpt>
      <trkpt lat="46.1209" lon="6.19517">
        <ele>827.4</ele>
        <time>2021-04-17T15:09:00Z</time>
      </trkpt>
      <trkpt lat="46.12101" lon="6.1952">
        <ele>827.2</ele>
        <time>2021-04-17T15:09:01Z</time>
      </trkpt>
      <trkpt lat="46.12111" lon="6.19523">
        <ele>827</ele>
        <time>2021-04-17T15:09:02Z</time>
      </trkpt>
      <trkpt lat="46.12121" lon="6.19523">
        <ele>826.4</ele>
        <time>2021-04-17T15:09:03Z</time>
      </trkpt>
      <trkpt lat="46.1213" lon="6.19519">
        <ele>825.8</ele>
        <time>2021-04-17T15:09:04Z</time>
      </trkpt>
      <trkpt lat="46.12138" lon="6.19511">
        <ele>825</ele>
        <time>2021-04-17T15:09:05Z</time>
      </trkpt>
      <trkpt lat="46.12143" lon="6.195">
        <ele>824.6</ele>
        <time>2021-04-17T15:09:06Z</time>
      </trkpt>
      <trkpt lat="46.12146" lon="6.19487">
        <ele>824.2</ele>
        <time>2021-04-17T15:09:07Z</time>
      </trkpt>
      <trkpt lat="46.12148" lon="6.19473">
        <ele>823.6</ele>
        <time>2021-04-17T15:09:08Z</time>
      </trkpt>
      <trkpt lat="46.1215" lon="6.19459">
        <ele>823.4</ele>
        <time>2021-04-17T15:09:09Z</time>
      </trkpt>
      <trkpt lat="46.12151" lon="6.19429">
        <ele>822.4</ele>
        <time>2021-04-17T15:09:11Z</time>
      </trkpt>
      <trkpt lat="46.12152" lon="6.19398">
        <ele>821.6</ele>
        <time>2021-04-17T15:09:13Z</time>
      </trkpt>
      <trkpt lat="46.12153" lon="6.19383">
        <ele>821</ele>
        <time>2021-04-17T15:09:14Z</time>
      </trkpt>
      <trkpt lat="46.12154" lon="6.19369">
        <ele>820.4</ele>
        <time>2021-04-17T15:09:15Z</time>
      </trkpt>
      <trkpt lat="46.12156" lon="6.19356">
        <ele>819.4</ele>
        <time>2021-04-17T15:09:16Z</time>
      </trkpt>
      <trkpt lat="46.12161" lon="6.19346">
        <ele>818</ele>
        <time>2021-04-17T15:09:17Z</time>
      </trkpt>
      <trkpt lat="46.12168" lon="6.19341">
        <ele>816.6</ele>
        <time>2021-04-17T15:09:18Z</time>
      </trkpt>
      <trkpt lat="46.12176" lon="6.19339">
        <ele>815.4</ele>
        <time>2021-04-17T15:09:19Z</time>
      </trkpt>
      <trkpt lat="46.12185" lon="6.19339">
        <ele>814.6</ele>
        <time>2021-04-17T15:09:20Z</time>
      </trkpt>
      <trkpt lat="46.12194" lon="6.19338">
        <ele>813.6</ele>
        <time>2021-04-17T15:09:21Z</time>
      </trkpt>
      <trkpt lat="46.12203" lon="6.19335">
        <ele>812.8</ele>
        <time>2021-04-17T15:09:22Z</time>
      </trkpt>
      <trkpt lat="46.12211" lon="6.19329">
        <ele>811.8</ele>
        <time>2021-04-17T15:09:23Z</time>
      </trkpt>
      <trkpt lat="46.12227" lon="6.1931">
        <ele>811.2</ele>
        <time>2021-04-17T15:09:25Z</time>
      </trkpt>
      <trkpt lat="46.12235" lon="6.193">
        <ele>811</ele>
        <time>2021-04-17T15:09:26Z</time>
      </trkpt>
      <trkpt lat="46.12243" lon="6.19289">
        <ele>810.4</ele>
        <time>2021-04-17T15:09:27Z</time>
      </trkpt>
      <trkpt lat="46.12268" lon="6.19255">
        <ele>808.8</ele>
        <time>2021-04-17T15:09:30Z</time>
      </trkpt>
      <trkpt lat="46.12276" lon="6.19243">
        <ele>807.8</ele>
        <time>2021-04-17T15:09:31Z</time>
      </trkpt>
      <trkpt lat="46.12285" lon="6.19232">
        <ele>807.2</ele>
        <time>2021-04-17T15:09:32Z</time>
      </trkpt>
      <trkpt lat="46.12296" lon="6.19223">
        <ele>806.6</ele>
        <time>2021-04-17T15:09:33Z</time>
      </trkpt>
      <trkpt lat="46.12307" lon="6.19216">
        <ele>804.8</ele>
        <time>2021-04-17T15:09:34Z</time>
      </trkpt>
      <trkpt lat="46.12318" lon="6.19214">
        <ele>803.2</ele>
        <time>2021-04-17T15:09:35Z</time>
      </trkpt>
      <trkpt lat="46.12329" lon="6.19217">
        <ele>802.2</ele>
        <time>2021-04-17T15:09:36Z</time>
      </trkpt>
      <trkpt lat="46.12338" lon="6.19224">
        <ele>801.4</ele>
        <time>2021-04-17T15:09:37Z</time>
      </trkpt>
      <trkpt lat="46.12344" lon="6.19237">
        <ele>801</ele>
        <time>2021-04-17T15:09:38Z</time>
      </trkpt>
      <trkpt lat="46.12348" lon="6.1925">
        <ele>800.8</ele>
        <time>2021-04-17T15:09:39Z</time>
      </trkpt>
      <trkpt lat="46.12352" lon="6.19275">
        <ele>799.4</ele>
        <time>2021-04-17T15:09:41Z</time>
      </trkpt>
      <trkpt lat="46.12361" lon="6.19293">
        <ele>798.2</ele>
        <time>2021-04-17T15:09:43Z</time>
      </trkpt>
      <trkpt lat="46.12367" lon="6.19299">
        <ele>797.6</ele>
        <time>2021-04-17T15:09:44Z</time>
      </trkpt>
      <trkpt lat="46.12381" lon="6.19312">
        <ele>796.8</ele>
        <time>2021-04-17T15:09:46Z</time>
      </trkpt>
      <trkpt lat="46.12389" lon="6.19319">
        <ele>796.4</ele>
        <time>2021-04-17T15:09:47Z</time>
      </trkpt>
      <trkpt lat="46.12395" lon="6.19328">
        <ele>796</ele>
        <time>2021-04-17T15:09:48Z</time>
      </trkpt>
      <trkpt lat="46.12399" lon="6.19337">
        <ele>795.8</ele>
        <time>2021-04-17T15:09:49Z</time>
      </trkpt>
      <trkpt lat="46.12403" lon="6.19344">
        <ele>795.4</ele>
        <time>2021-04-17T15:09:50Z</time>
      </trkpt>
      <trkpt lat="46.12406" lon="6.19351">
        <ele>795.4</ele>
        <time>2021-04-17T15:09:51Z</time>
      </trkpt>
      <trkpt lat="46.12412" lon="6.19366">
        <ele>794.4</ele>
        <time>2021-04-17T15:09:53Z</time>
      </trkpt>
      <trkpt lat="46.12418" lon="6.1938">
        <ele>793.2</ele>
        <time>2021-04-17T15:09:55Z</time>
      </trkpt>
      <trkpt lat="46.1242" lon="6.19386">
        <ele>792.4</ele>
        <time>2021-04-17T15:09:56Z</time>
      </trkpt>
      <trkpt lat="46.12423" lon="6.19392">
        <ele>791.6</ele>
        <time>2021-04-17T15:09:57Z</time>
      </trkpt>
      <trkpt lat="46.12433" lon="6.19411">
        <ele>790.2</ele>
        <time>2021-04-17T15:10:01Z</time>
      </trkpt>
      <trkpt lat="46.12436" lon="6.19416">
        <ele>789.6</ele>
        <time>2021-04-17T15:10:02Z</time>
      </trkpt>
      <trkpt lat="46.12442" lon="6.19426">
        <ele>788.6</ele>
        <time>2021-04-17T15:10:04Z</time>
      </trkpt>
      <trkpt lat="46.12445" lon="6.19432">
        <ele>788.6</ele>
        <time>2021-04-17T15:10:05Z</time>
      </trkpt>
      <trkpt lat="46.12447" lon="6.19437">
        <ele>788.2</ele>
        <time>2021-04-17T15:10:06Z</time>
      </trkpt>
      <trkpt lat="46.12448" lon="6.19443">
        <ele>787.6</ele>
        <time>2021-04-17T15:10:07Z</time>
      </trkpt>
      <trkpt lat="46.12449" lon="6.19448">
        <ele>787.4</ele>
        <time>2021-04-17T15:10:08Z</time>
      </trkpt>
      <trkpt lat="46.12447" lon="6.1946">
        <ele>786.8</ele>
        <time>2021-04-17T15:10:10Z</time>
      </trkpt>
      <trkpt lat="46.12444" lon="6.19466">
        <ele>786.4</ele>
        <time>2021-04-17T15:10:11Z</time>
      </trkpt>
      <trkpt lat="46.12438" lon="6.1947">
        <ele>786</ele>
        <time>2021-04-17T15:10:12Z</time>
      </trkpt>
      <trkpt lat="46.12432" lon="6.19471">
        <ele>786</ele>
        <time>2021-04-17T15:10:13Z</time>
      </trkpt>
      <trkpt lat="46.12425" lon="6.19469">
        <ele>785.8</ele>
        <time>2021-04-17T15:10:14Z</time>
      </trkpt>
      <trkpt lat="46.12418" lon="6.19463">
        <ele>785.4</ele>
        <time>2021-04-17T15:10:15Z</time>
      </trkpt>
      <trkpt lat="46.12412" lon="6.19456">
        <ele>785</ele>
        <time>2021-04-17T15:10:16Z</time>
      </trkpt>
      <trkpt lat="46.12401" lon="6.19439">
        <ele>784</ele>
        <time>2021-04-17T15:10:18Z</time>
      </trkpt>
      <trkpt lat="46.12393" lon="6.19435">
        <ele>783.8</ele>
        <time>2021-04-17T15:10:19Z</time>
      </trkpt>
      <trkpt lat="46.12385" lon="6.19436">
        <ele>783</ele>
        <time>2021-04-17T15:10:20Z</time>
      </trkpt>
      <trkpt lat="46.12377" lon="6.19442">
        <ele>782.4</ele>
        <time>2021-04-17T15:10:21Z</time>
      </trkpt>
      <trkpt lat="46.12372" lon="6.19452">
        <ele>781.4</ele>
        <time>2021-04-17T15:10:22Z</time>
      </trkpt>
      <trkpt lat="46.12371" lon="6.19464">
        <ele>781</ele>
        <time>2021-04-17T15:10:23Z</time>
      </trkpt>
      <trkpt lat="46.12374" lon="6.19476">
        <ele>780</ele>
        <time>2021-04-17T15:10:24Z</time>
      </trkpt>
      <trkpt lat="46.12379" lon="6.19486">
        <ele>779.8</ele>
        <time>2021-04-17T15:10:25Z</time>
      </trkpt>
      <trkpt lat="46.12388" lon="6.19494">
        <ele>779.2</ele>
        <time>2021-04-17T15:10:26Z</time>
      </trkpt>
      <trkpt lat="46.12398" lon="6.195">
        <ele>778.4</ele>
        <time>2021-04-17T15:10:27Z</time>
      </trkpt>
      <trkpt lat="46.12408" lon="6.19506">
        <ele>777.2</ele>
        <time>2021-04-17T15:10:28Z</time>
      </trkpt>
      <trkpt lat="46.1243" lon="6.19516">
        <ele>775</ele>
        <time>2021-04-17T15:10:30Z</time>
      </trkpt>
      <trkpt lat="46.1244" lon="6.19522">
        <ele>775</ele>
        <time>2021-04-17T15:10:31Z</time>
      </trkpt>
      <trkpt lat="46.12451" lon="6.1953">
        <ele>774</ele>
        <time>2021-04-17T15:10:32Z</time>
      </trkpt>
      <trkpt lat="46.12461" lon="6.1954">
        <ele>773.2</ele>
        <time>2021-04-17T15:10:33Z</time>
      </trkpt>
      <trkpt lat="46.12471" lon="6.19551">
        <ele>772</ele>
        <time>2021-04-17T15:10:34Z</time>
      </trkpt>
      <trkpt lat="46.12479" lon="6.19565">
        <ele>770</ele>
        <time>2021-04-17T15:10:35Z</time>
      </trkpt>
      <trkpt lat="46.12486" lon="6.19581">
        <ele>768.8</ele>
        <time>2021-04-17T15:10:36Z</time>
      </trkpt>
      <trkpt lat="46.12491" lon="6.19598">
        <ele>767.4</ele>
        <time>2021-04-17T15:10:37Z</time>
      </trkpt>
      <trkpt lat="46.12495" lon="6.19615">
        <ele>766</ele>
        <time>2021-04-17T15:10:38Z</time>
      </trkpt>
      <trkpt lat="46.12501" lon="6.19632">
        <ele>765.2</ele>
        <time>2021-04-17T15:10:39Z</time>
      </trkpt>
      <trkpt lat="46.12507" lon="6.19648">
        <ele>764.6</ele>
        <time>2021-04-17T15:10:40Z</time>
      </trkpt>
      <trkpt lat="46.12514" lon="6.19664">
        <ele>764.4</ele>
        <time>2021-04-17T15:10:41Z</time>
      </trkpt>
      <trkpt lat="46.12522" lon="6.19679">
        <ele>764.2</ele>
        <time>2021-04-17T15:10:42Z</time>
      </trkpt>
      <trkpt lat="46.12532" lon="6.19693">
        <ele>762.8</ele>
        <time>2021-04-17T15:10:43Z</time>
      </trkpt>
      <trkpt lat="46.12541" lon="6.19706">
        <ele>761.2</ele>
        <time>2021-04-17T15:10:44Z</time>
      </trkpt>
      <trkpt lat="46.12551" lon="6.19719">
        <ele>760</ele>
        <time>2021-04-17T15:10:45Z</time>
      </trkpt>
      <trkpt lat="46.12562" lon="6.19731">
        <ele>759.2</ele>
        <time>2021-04-17T15:10:46Z</time>
      </trkpt>
      <trkpt lat="46.12586" lon="6.19752">
        <ele>756.6</ele>
        <time>2021-04-17T15:10:48Z</time>
      </trkpt>
      <trkpt lat="46.12599" lon="6.19761">
        <ele>755.6</ele>
        <time>2021-04-17T15:10:49Z</time>
      </trkpt>
      <trkpt lat="46.12611" lon="6.1977">
        <ele>755</ele>
        <time>2021-04-17T15:10:50Z</time>
      </trkpt>
      <trkpt lat="46.12622" lon="6.1978">
        <ele>754.8</ele>
        <time>2021-04-17T15:10:51Z</time>
      </trkpt>
      <trkpt lat="46.1263" lon="6.19794">
        <ele>754.2</ele>
        <time>2021-04-17T15:10:52Z</time>
      </trkpt>
      <trkpt lat="46.12635" lon="6.19809">
        <ele>753</ele>
        <time>2021-04-17T15:10:53Z</time>
      </trkpt>
      <trkpt lat="46.12636" lon="6.19826">
        <ele>752</ele>
        <time>2021-04-17T15:10:54Z</time>
      </trkpt>
      <trkpt lat="46.12634" lon="6.19844">
        <ele>750.6</ele>
        <time>2021-04-17T15:10:55Z</time>
      </trkpt>
      <trkpt lat="46.12628" lon="6.19878">
        <ele>748.6</ele>
        <time>2021-04-17T15:10:57Z</time>
      </trkpt>
      <trkpt lat="46.12622" lon="6.19912">
        <ele>746.6</ele>
        <time>2021-04-17T15:10:59Z</time>
      </trkpt>
      <trkpt lat="46.12616" lon="6.19941">
        <ele>745.2</ele>
        <time>2021-04-17T15:11:01Z</time>
      </trkpt>
      <trkpt lat="46.12611" lon="6.19952">
        <ele>743.2</ele>
        <time>2021-04-17T15:11:02Z</time>
      </trkpt>
      <trkpt lat="46.12605" lon="6.19962">
        <ele>741.6</ele>
        <time>2021-04-17T15:11:03Z</time>
      </trkpt>
      <trkpt lat="46.12597" lon="6.19966">
        <ele>740.2</ele>
        <time>2021-04-17T15:11:04Z</time>
      </trkpt>
      <trkpt lat="46.12588" lon="6.19963">
        <ele>739</ele>
        <time>2021-04-17T15:11:05Z</time>
      </trkpt>
      <trkpt lat="46.12571" lon="6.19963">
        <ele>738</ele>
        <time>2021-04-17T15:11:07Z</time>
      </trkpt>
      <trkpt lat="46.12565" lon="6.19969">
        <ele>737.6</ele>
        <time>2021-04-17T15:11:08Z</time>
      </trkpt>
      <trkpt lat="46.1256" lon="6.19979">
        <ele>737.2</ele>
        <time>2021-04-17T15:11:09Z</time>
      </trkpt>
      <trkpt lat="46.12557" lon="6.1999">
        <ele>736.8</ele>
        <time>2021-04-17T15:11:10Z</time>
      </trkpt>
      <trkpt lat="46.12553" lon="6.20001">
        <ele>736.8</ele>
        <time>2021-04-17T15:11:11Z</time>
      </trkpt>
      <trkpt lat="46.1255" lon="6.20013">
        <ele>736.2</ele>
        <time>2021-04-17T15:11:12Z</time>
      </trkpt>
      <trkpt lat="46.12547" lon="6.20026">
        <ele>735.6</ele>
        <time>2021-04-17T15:11:13Z</time>
      </trkpt>
      <trkpt lat="46.12545" lon="6.2004">
        <ele>735</ele>
        <time>2021-04-17T15:11:14Z</time>
      </trkpt>
      <trkpt lat="46.12544" lon="6.20054">
        <ele>734.8</ele>
        <time>2021-04-17T15:11:15Z</time>
      </trkpt>
      <trkpt lat="46.12546" lon="6.20068">
        <ele>734.4</ele>
        <time>2021-04-17T15:11:16Z</time>
      </trkpt>
      <trkpt lat="46.1255" lon="6.20082">
        <ele>734.2</ele>
        <time>2021-04-17T15:11:17Z</time>
      </trkpt>
      <trkpt lat="46.12555" lon="6.20095">
        <ele>733.8</ele>
        <time>2021-04-17T15:11:18Z</time>
      </trkpt>
      <trkpt lat="46.12562" lon="6.20108">
        <ele>733.4</ele>
        <time>2021-04-17T15:11:19Z</time>
      </trkpt>
      <trkpt lat="46.12569" lon="6.2012">
        <ele>732.6</ele>
        <time>2021-04-17T15:11:20Z</time>
      </trkpt>
      <trkpt lat="46.12576" lon="6.20133">
        <ele>731.8</ele>
        <time>2021-04-17T15:11:21Z</time>
      </trkpt>
      <trkpt lat="46.12582" lon="6.20146">
        <ele>730.8</ele>
        <time>2021-04-17T15:11:22Z</time>
      </trkpt>
      <trkpt lat="46.1259" lon="6.20158">
        <ele>729.6</ele>
        <time>2021-04-17T15:11:23Z</time>
      </trkpt>
      <trkpt lat="46.12598" lon="6.2017">
        <ele>728.8</ele>
        <time>2021-04-17T15:11:24Z</time>
      </trkpt>
      <trkpt lat="46.12608" lon="6.20179">
        <ele>727.4</ele>
        <time>2021-04-17T15:11:25Z</time>
      </trkpt>
      <trkpt lat="46.12618" lon="6.20186">
        <ele>726</ele>
        <time>2021-04-17T15:11:26Z</time>
      </trkpt>
      <trkpt lat="46.12629" lon="6.20193">
        <ele>725</ele>
        <time>2021-04-17T15:11:27Z</time>
      </trkpt>
      <trkpt lat="46.12637" lon="6.20198">
        <ele>724</ele>
        <time>2021-04-17T15:11:28Z</time>
      </trkpt>
      <trkpt lat="46.12644" lon="6.20206">
        <ele>723.4</ele>
        <time>2021-04-17T15:11:29Z</time>
      </trkpt>
      <trkpt lat="46.12647" lon="6.20215">
        <ele>722.4</ele>
        <time>2021-04-17T15:11:30Z</time>
      </trkpt>
      <trkpt lat="46.12648" lon="6.20226">
        <ele>721.4</ele>
        <time>2021-04-17T15:11:31Z</time>
      </trkpt>
      <trkpt lat="46.12645" lon="6.20237">
        <ele>719.8</ele>
        <time>2021-04-17T15:11:32Z</time>
      </trkpt>
      <trkpt lat="46.1264" lon="6.20246">
        <ele>718.6</ele>
        <time>2021-04-17T15:11:33Z</time>
      </trkpt>
      <trkpt lat="46.12632" lon="6.20252">
        <ele>717.6</ele>
        <time>2021-04-17T15:11:34Z</time>
      </trkpt>
      <trkpt lat="46.12624" lon="6.20257">
        <ele>717</ele>
        <time>2021-04-17T15:11:35Z</time>
      </trkpt>
      <trkpt lat="46.12615" lon="6.20262">
        <ele>716.4</ele>
        <time>2021-04-17T15:11:36Z</time>
      </trkpt>
      <trkpt lat="46.12605" lon="6.20267">
        <ele>716</ele>
        <time>2021-04-17T15:11:37Z</time>
      </trkpt>
      <trkpt lat="46.12595" lon="6.20272">
        <ele>716</ele>
        <time>2021-04-17T15:11:38Z</time>
      </trkpt>
      <trkpt lat="46.12584" lon="6.20274">
        <ele>715.8</ele>
        <time>2021-04-17T15:11:39Z</time>
      </trkpt>
      <trkpt lat="46.12573" lon="6.20274">
        <ele>715.4</ele>
        <time>2021-04-17T15:11:40Z</time>
      </trkpt>
      <trkpt lat="46.12562" lon="6.2027">
        <ele>714.8</ele>
        <time>2021-04-17T15:11:41Z</time>
      </trkpt>
      <trkpt lat="46.12551" lon="6.20263">
        <ele>714.2</ele>
        <time>2021-04-17T15:11:42Z</time>
      </trkpt>
      <trkpt lat="46.12541" lon="6.20253">
        <ele>713.8</ele>
        <time>2021-04-17T15:11:43Z</time>
      </trkpt>
      <trkpt lat="46.12532" lon="6.20242">
        <ele>713.4</ele>
        <time>2021-04-17T15:11:44Z</time>
      </trkpt>
      <trkpt lat="46.12522" lon="6.2023">
        <ele>712.8</ele>
        <time>2021-04-17T15:11:45Z</time>
      </trkpt>
      <trkpt lat="46.12513" lon="6.20218">
        <ele>711.8</ele>
        <time>2021-04-17T15:11:46Z</time>
      </trkpt>
      <trkpt lat="46.12503" lon="6.20206">
        <ele>710.8</ele>
        <time>2021-04-17T15:11:47Z</time>
      </trkpt>
      <trkpt lat="46.12494" lon="6.20193">
        <ele>709.8</ele>
        <time>2021-04-17T15:11:48Z</time>
      </trkpt>
      <trkpt lat="46.12486" lon="6.2018">
        <ele>709</ele>
        <time>2021-04-17T15:11:49Z</time>
      </trkpt>
      <trkpt lat="46.12478" lon="6.20166">
        <ele>708</ele>
        <time>2021-04-17T15:11:50Z</time>
      </trkpt>
      <trkpt lat="46.12471" lon="6.20151">
        <ele>707</ele>
        <time>2021-04-17T15:11:51Z</time>
      </trkpt>
      <trkpt lat="46.12465" lon="6.20135">
        <ele>705.2</ele>
        <time>2021-04-17T15:11:52Z</time>
      </trkpt>
      <trkpt lat="46.1246" lon="6.20118">
        <ele>704.2</ele>
        <time>2021-04-17T15:11:53Z</time>
      </trkpt>
      <trkpt lat="46.12454" lon="6.20103">
        <ele>703</ele>
        <time>2021-04-17T15:11:54Z</time>
      </trkpt>
      <trkpt lat="46.12447" lon="6.20089">
        <ele>701.6</ele>
        <time>2021-04-17T15:11:55Z</time>
      </trkpt>
      <trkpt lat="46.12438" lon="6.20077">
        <ele>700.8</ele>
        <time>2021-04-17T15:11:56Z</time>
      </trkpt>
      <trkpt lat="46.12429" lon="6.20069">
        <ele>700.2</ele>
        <time>2021-04-17T15:11:57Z</time>
      </trkpt>
      <trkpt lat="46.12419" lon="6.20063">
        <ele>699.6</ele>
        <time>2021-04-17T15:11:58Z</time>
      </trkpt>
      <trkpt lat="46.12409" lon="6.20062">
        <ele>698.2</ele>
        <time>2021-04-17T15:11:59Z</time>
      </trkpt>
      <trkpt lat="46.12398" lon="6.20065">
        <ele>698.2</ele>
        <time>2021-04-17T15:12:00Z</time>
      </trkpt>
      <trkpt lat="46.1239" lon="6.20073">
        <ele>697</ele>
        <time>2021-04-17T15:12:01Z</time>
      </trkpt>
      <trkpt lat="46.12384" lon="6.20085">
        <ele>696.4</ele>
        <time>2021-04-17T15:12:02Z</time>
      </trkpt>
      <trkpt lat="46.1238" lon="6.20098">
        <ele>696</ele>
        <time>2021-04-17T15:12:03Z</time>
      </trkpt>
      <trkpt lat="46.12377" lon="6.20112">
        <ele>695.2</ele>
        <time>2021-04-17T15:12:04Z</time>
      </trkpt>
      <trkpt lat="46.12376" lon="6.20128">
        <ele>694.6</ele>
        <time>2021-04-17T15:12:05Z</time>
      </trkpt>
      <trkpt lat="46.12378" lon="6.20144">
        <ele>694.2</ele>
        <time>2021-04-17T15:12:06Z</time>
      </trkpt>
      <trkpt lat="46.12385" lon="6.20156">
        <ele>693.8</ele>
        <time>2021-04-17T15:12:07Z</time>
      </trkpt>
      <trkpt lat="46.12393" lon="6.20168">
        <ele>693.2</ele>
        <time>2021-04-17T15:12:08Z</time>
      </trkpt>
      <trkpt lat="46.12398" lon="6.20183">
        <ele>692</ele>
        <time>2021-04-17T15:12:09Z</time>
      </trkpt>
      <trkpt lat="46.124" lon="6.202">
        <ele>691.2</ele>
        <time>2021-04-17T15:12:10Z</time>
      </trkpt>
      <trkpt lat="46.12401" lon="6.20217">
        <ele>690</ele>
        <time>2021-04-17T15:12:11Z</time>
      </trkpt>
      <trkpt lat="46.12401" lon="6.20234">
        <ele>689</ele>
        <time>2021-04-17T15:12:12Z</time>
      </trkpt>
      <trkpt lat="46.124" lon="6.2025">
        <ele>688.2</ele>
        <time>2021-04-17T15:12:13Z</time>
      </trkpt>
      <trkpt lat="46.12398" lon="6.20265">
        <ele>687.4</ele>
        <time>2021-04-17T15:12:14Z</time>
      </trkpt>
      <trkpt lat="46.12395" lon="6.2028">
        <ele>686.6</ele>
        <time>2021-04-17T15:12:15Z</time>
      </trkpt>
      <trkpt lat="46.12389" lon="6.20293">
        <ele>685.6</ele>
        <time>2021-04-17T15:12:16Z</time>
      </trkpt>
      <trkpt lat="46.12382" lon="6.20306">
        <ele>684.8</ele>
        <time>2021-04-17T15:12:17Z</time>
      </trkpt>
      <trkpt lat="46.12375" lon="6.20319">
        <ele>683.4</ele>
        <time>2021-04-17T15:12:18Z</time>
      </trkpt>
      <trkpt lat="46.12368" lon="6.20332">
        <ele>682.4</ele>
        <time>2021-04-17T15:12:19Z</time>
      </trkpt>
      <trkpt lat="46.1236" lon="6.20344">
        <ele>681</ele>
        <time>2021-04-17T15:12:20Z</time>
      </trkpt>
      <trkpt lat="46.12352" lon="6.20356">
        <ele>680</ele>
        <time>2021-04-17T15:12:21Z</time>
      </trkpt>
      <trkpt lat="46.12345" lon="6.20368">
        <ele>678.8</ele>
        <time>2021-04-17T15:12:22Z</time>
      </trkpt>
      <trkpt lat="46.12338" lon="6.20381">
        <ele>678</ele>
        <time>2021-04-17T15:12:23Z</time>
      </trkpt>
      <trkpt lat="46.12332" lon="6.20393">
        <ele>676.6</ele>
        <time>2021-04-17T15:12:24Z</time>
      </trkpt>
      <trkpt lat="46.12327" lon="6.20407">
        <ele>675.8</ele>
        <time>2021-04-17T15:12:25Z</time>
      </trkpt>
      <trkpt lat="46.12324" lon="6.20421">
        <ele>674.8</ele>
        <time>2021-04-17T15:12:26Z</time>
      </trkpt>
      <trkpt lat="46.12321" lon="6.20435">
        <ele>674.2</ele>
        <time>2021-04-17T15:12:27Z</time>
      </trkpt>
      <trkpt lat="46.12319" lon="6.2045">
        <ele>673.6</ele>
        <time>2021-04-17T15:12:28Z</time>
      </trkpt>
      <trkpt lat="46.12317" lon="6.20464">
        <ele>673.2</ele>
        <time>2021-04-17T15:12:29Z</time>
      </trkpt>
      <trkpt lat="46.12315" lon="6.20478">
        <ele>672.6</ele>
        <time>2021-04-17T15:12:30Z</time>
      </trkpt>
      <trkpt lat="46.12313" lon="6.20491">
        <ele>671.8</ele>
        <time>2021-04-17T15:12:31Z</time>
      </trkpt>
      <trkpt lat="46.12311" lon="6.20505">
        <ele>671.2</ele>
        <time>2021-04-17T15:12:32Z</time>
      </trkpt>
      <trkpt lat="46.1231" lon="6.20518">
        <ele>670.4</ele>
        <time>2021-04-17T15:12:33Z</time>
      </trkpt>
      <trkpt lat="46.12309" lon="6.20531">
        <ele>669.8</ele>
        <time>2021-04-17T15:12:34Z</time>
      </trkpt>
      <trkpt lat="46.12308" lon="6.20543">
        <ele>669.8</ele>
        <time>2021-04-17T15:12:35Z</time>
      </trkpt>
      <trkpt lat="46.12308" lon="6.20553">
        <ele>669.6</ele>
        <time>2021-04-17T15:12:36Z</time>
      </trkpt>
      <trkpt lat="46.12309" lon="6.20562">
        <ele>669.4</ele>
        <time>2021-04-17T15:12:37Z</time>
      </trkpt>
      <trkpt lat="46.12308" lon="6.20571">
        <ele>669.2</ele>
        <time>2021-04-17T15:12:38Z</time>
      </trkpt>
      <trkpt lat="46.12309" lon="6.20578">
        <ele>669.2</ele>
        <time>2021-04-17T15:12:39Z</time>
      </trkpt>
      <trkpt lat="46.1231" lon="6.20583">
        <ele>669</ele>
        <time>2021-04-17T15:12:40Z</time>
      </trkpt>
      <trkpt lat="46.12313" lon="6.20588">
        <ele>668.4</ele>
        <time>2021-04-17T15:12:41Z</time>
      </trkpt>
      <trkpt lat="46.12314" lon="6.20592">
        <ele>667.6</ele>
        <time>2021-04-17T15:12:42Z</time>
      </trkpt>
      <trkpt lat="46.12316" lon="6.20594">
        <ele>667</ele>
        <time>2021-04-17T15:12:43Z</time>
      </trkpt>
      <trkpt lat="46.12319" lon="6.20596">
        <ele>666.8</ele>
        <time>2021-04-17T15:12:44Z</time>
      </trkpt>
      <trkpt lat="46.12322" lon="6.20597">
        <ele>666.4</ele>
        <time>2021-04-17T15:12:45Z</time>
      </trkpt>
      <trkpt lat="46.12325" lon="6.20597">
        <ele>666.2</ele>
        <time>2021-04-17T15:12:46Z</time>
      </trkpt>
      <trkpt lat="46.12328" lon="6.20596">
        <ele>666.2</ele>
        <time>2021-04-17T15:12:47Z</time>
      </trkpt>
      <trkpt lat="46.12333" lon="6.20594">
        <ele>666.2</ele>
        <time>2021-04-17T15:12:48Z</time>
      </trkpt>
      <trkpt lat="46.12337" lon="6.20593">
        <ele>666</ele>
        <time>2021-04-17T15:12:49Z</time>
      </trkpt>
      <trkpt lat="46.12341" lon="6.20591">
        <ele>666</ele>
        <time>2021-04-17T15:12:50Z</time>
      </trkpt>
      <trkpt lat="46.12346" lon="6.20588">
        <ele>665.6</ele>
        <time>2021-04-17T15:12:51Z</time>
      </trkpt>
      <trkpt lat="46.12351" lon="6.20585">
        <ele>665.6</ele>
        <time>2021-04-17T15:12:52Z</time>
      </trkpt>
      <trkpt lat="46.12357" lon="6.20582">
        <ele>665.4</ele>
        <time>2021-04-17T15:12:53Z</time>
      </trkpt>
      <trkpt lat="46.12363" lon="6.20579">
        <ele>665.4</ele>
        <time>2021-04-17T15:12:54Z</time>
      </trkpt>
      <trkpt lat="46.12369" lon="6.20578">
        <ele>665.4</ele>
        <time>2021-04-17T15:12:55Z</time>
      </trkpt>
      <trkpt lat="46.12376" lon="6.20577">
        <ele>665.2</ele>
        <time>2021-04-17T15:12:56Z</time>
      </trkpt>
      <trkpt lat="46.12382" lon="6.20575">
        <ele>664.8</ele>
        <time>2021-04-17T15:12:57Z</time>
      </trkpt>
      <trkpt lat="46.12388" lon="6.20571">
        <ele>664.2</ele>
        <time>2021-04-17T15:12:58Z</time>
      </trkpt>
      <trkpt lat="46.12394" lon="6.20567">
        <ele>663.4</ele>
        <time>2021-04-17T15:12:59Z</time>
      </trkpt>
      <trkpt lat="46.12399" lon="6.20562">
        <ele>663</ele>
        <time>2021-04-17T15:13:00Z</time>
      </trkpt>
      <trkpt lat="46.12405" lon="6.20558">
        <ele>662.8</ele>
        <time>2021-04-17T15:13:01Z</time>
      </trkpt>
      <trkpt lat="46.12411" lon="6.20554">
        <ele>662.2</ele>
        <time>2021-04-17T15:13:02Z</time>
      </trkpt>
      <trkpt lat="46.12416" lon="6.20551">
        <ele>662</ele>
        <time>2021-04-17T15:13:03Z</time>
      </trkpt>
      <trkpt lat="46.12421" lon="6.2055">
        <ele>661.8</ele>
        <time>2021-04-17T15:13:04Z</time>
      </trkpt>
      <trkpt lat="46.12425" lon="6.20552">
        <ele>661.8</ele>
        <time>2021-04-17T15:13:05Z</time>
      </trkpt>
      <trkpt lat="46.12426" lon="6.20557">
        <ele>661.6</ele>
        <time>2021-04-17T15:13:06Z</time>
      </trkpt>
      <trkpt lat="46.12425" lon="6.20563">
        <ele>661.4</ele>
        <time>2021-04-17T15:13:07Z</time>
      </trkpt>
      <trkpt lat="46.12422" lon="6.20567">
        <ele>661.4</ele>
        <time>2021-04-17T15:13:08Z</time>
      </trkpt>
      <trkpt lat="46.12418" lon="6.2057">
        <ele>661.4</ele>
        <time>2021-04-17T15:13:09Z</time>
      </trkpt>
      <trkpt lat="46.12414" lon="6.20572">
        <ele>661.2</ele>
        <time>2021-04-17T15:13:10Z</time>
      </trkpt>
      <trkpt lat="46.1241" lon="6.20574">
        <ele>661</ele>
        <time>2021-04-17T15:13:11Z</time>
      </trkpt>
      <trkpt lat="46.12408" lon="6.20575">
        <ele>661</ele>
        <time>2021-04-17T15:13:12Z</time>
      </trkpt>
      <trkpt lat="46.12406" lon="6.20577">
        <ele>661</ele>
        <time>2021-04-17T15:13:13Z</time>
      </trkpt>
      <trkpt lat="46.12405" lon="6.20577">
        <ele>660.6</ele>
        <time>2021-04-17T15:13:14Z</time>
      </trkpt>
      <trkpt lat="46.12405" lon="6.20577">
        <ele>660</ele>
        <time>2021-04-17T15:13:15Z</time>
      </trkpt>
      <trkpt lat="46.12405" lon="6.20577">
        <ele>659.6</ele>
        <time>2021-04-17T15:13:16Z</time>
      </trkpt>
      <trkpt lat="46.12405" lon="6.20577">
        <ele>659.6</ele>
        <time>2021-04-17T15:13:17Z</time>
      </trkpt>
      <trkpt lat="46.12405" lon="6.20577">
        <ele>659.2</ele>
        <time>2021-04-17T15:13:18Z</time>
      </trkpt>
      <trkpt lat="46.12405" lon="6.20578">
        <ele>658.6</ele>
        <time>2021-04-17T15:13:19Z</time>
      </trkpt>
      <trkpt lat="46.12405" lon="6.20577">
        <ele>658.6</ele>
        <time>2021-04-17T15:13:20Z</time>
      </trkpt>
      <trkpt lat="46.12405" lon="6.20577">
        <ele>658.4</ele>
        <time>2021-04-17T15:13:21Z</time>
      </trkpt>
      <trkpt lat="46.12405" lon="6.20577">
        <ele>658.4</ele>
        <time>2021-04-17T15:13:22Z</time>
      </trkpt>
      <trkpt lat="46.12405" lon="6.20577">
        <ele>658.2</ele>
        <time>2021-04-17T15:13:23Z</time>
      </trkpt>
      <trkpt lat="46.12405" lon="6.20577">
        <ele>658.2</ele>
        <time>2021-04-17T15:13:24Z</time>
      </trkpt>
      <trkpt lat="46.12405" lon="6.20577">
        <ele>658.4</ele>
        <time>2021-04-17T15:13:25Z</time>
      </trkpt>
      <trkpt lat="46.12405" lon="6.20577">
        <ele>658.4</ele>
        <time>2021-04-17T15:13:26Z</time>
      </trkpt>
      <trkpt lat="46.12405" lon="6.20577">
        <ele>658.2</ele>
        <time>2021-04-17T15:13:27Z</time>
      </trkpt>
      <trkpt lat="46.12405" lon="6.20577">
        <ele>658.4</ele>
        <time>2021-04-17T15:13:28Z</time>
      </trkpt>
      <trkpt lat="46.12405" lon="6.20577">
        <ele>658.2</ele>
        <time>2021-04-17T15:13:29Z</time>
      </trkpt>
      <trkpt lat="46.12405" lon="6.20577">
        <ele>658.2</ele>
        <time>2021-04-17T15:13:30Z</time>
      </trkpt>
      <trkpt lat="46.12405" lon="6.20577">
        <ele>658.4</ele>
        <time>2021-04-17T15:13:31Z</time>
      </trkpt>
      <trkpt lat="46.12405" lon="6.20577">
        <ele>658.2</ele>
        <time>2021-04-17T15:13:32Z</time>
      </trkpt>
      <trkpt lat="46.12405" lon="6.20577">
        <ele>658.2</ele>
        <time>2021-04-17T15:13:33Z</time>
      </trkpt>
      <trkpt lat="46.12405" lon="6.20577">
        <ele>658.2</ele>
        <time>2021-04-17T15:13:34Z</time>
      </trkpt>
      <trkpt lat="46.12405" lon="6.20577">
        <ele>658.2</ele>
        <time>2021-04-17T15:13:35Z</time>
      </trkpt>
      <trkpt lat="46.12405" lon="6.20577">
        <ele>658.2</ele>
        <time>2021-04-17T15:13:36Z</time>
      </trkpt>
      <trkpt lat="46.12405" lon="6.20577">
        <ele>658</ele>
        <time>2021-04-17T15:13:37Z</time>
      </trkpt>
      <trkpt lat="46.12405" lon="6.20577">
        <ele>658</ele>
        <time>2021-04-17T15:13:38Z</time>
      </trkpt>
      <trkpt lat="46.12405" lon="6.20577">
        <ele>658</ele>
        <time>2021-04-17T15:13:39Z</time>
      </trkpt>
      <trkpt lat="46.12405" lon="6.20577">
        <ele>657.8</ele>
        <time>2021-04-17T15:13:40Z</time>
      </trkpt>
      <trkpt lat="46.12405" lon="6.20577">
        <ele>658</ele>
        <time>2021-04-17T15:13:41Z</time>
      </trkpt>
      <trkpt lat="46.12405" lon="6.20577">
        <ele>658</ele>
        <time>2021-04-17T15:13:42Z</time>
      </trkpt>
      <trkpt lat="46.12405" lon="6.20577">
        <ele>658</ele>
        <time>2021-04-17T15:13:43Z</time>
      </trkpt>
      <trkpt lat="46.12405" lon="6.20577">
        <ele>658</ele>
        <time>2021-04-17T15:13:44Z</time>
      </trkpt>
      <trkpt lat="46.12405" lon="6.20577">
        <ele>658</ele>
        <time>2021-04-17T15:13:45Z</time>
      </trkpt>
      <trkpt lat="46.12405" lon="6.20577">
        <ele>658</ele>
        <time>2021-04-17T15:13:46Z</time>
      </trkpt>
      <trkpt lat="46.12405" lon="6.20578">
        <ele>658</ele>
        <time>2021-04-17T15:13:47Z</time>
      </trkpt>
      <trkpt lat="46.12405" lon="6.20579">
        <ele>658</ele>
        <time>2021-04-17T15:13:48Z</time>
      </trkpt>
      <trkpt lat="46.12405" lon="6.20581">
        <ele>658</ele>
        <time>2021-04-17T15:13:49Z</time>
      </trkpt>
      <trkpt lat="46.12405" lon="6.20584">
        <ele>657.8</ele>
        <time>2021-04-17T15:13:50Z</time>
      </trkpt>
      <trkpt lat="46.12404" lon="6.20588">
        <ele>657.8</ele>
        <time>2021-04-17T15:13:51Z</time>
      </trkpt>
      <trkpt lat="46.12404" lon="6.20593">
        <ele>658</ele>
        <time>2021-04-17T15:13:52Z</time>
      </trkpt>
      <trkpt lat="46.12404" lon="6.206">
        <ele>657.8</ele>
        <time>2021-04-17T15:13:53Z</time>
      </trkpt>
      <trkpt lat="46.12404" lon="6.20607">
        <ele>657.8</ele>
        <time>2021-04-17T15:13:54Z</time>
      </trkpt>
      <trkpt lat="46.12404" lon="6.20615">
        <ele>657.8</ele>
        <time>2021-04-17T15:13:55Z</time>
      </trkpt>
      <trkpt lat="46.12405" lon="6.20635">
        <ele>657.8</ele>
        <time>2021-04-17T15:13:57Z</time>
      </trkpt>
      <trkpt lat="46.12405" lon="6.20647">
        <ele>657.6</ele>
        <time>2021-04-17T15:13:58Z</time>
      </trkpt>
      <trkpt lat="46.12406" lon="6.20659">
        <ele>657.6</ele>
        <time>2021-04-17T15:13:59Z</time>
      </trkpt>
      <trkpt lat="46.12408" lon="6.20671">
        <ele>657.4</ele>
        <time>2021-04-17T15:14:00Z</time>
      </trkpt>
      <trkpt lat="46.12412" lon="6.20683">
        <ele>657.4</ele>
        <time>2021-04-17T15:14:01Z</time>
      </trkpt>
      <trkpt lat="46.12418" lon="6.20693">
        <ele>656.6</ele>
        <time>2021-04-17T15:14:02Z</time>
      </trkpt>
      <trkpt lat="46.12424" lon="6.20703">
        <ele>655.4</ele>
        <time>2021-04-17T15:14:03Z</time>
      </trkpt>
      <trkpt lat="46.12431" lon="6.20711">
        <ele>654.2</ele>
        <time>2021-04-17T15:14:04Z</time>
      </trkpt>
      <trkpt lat="46.12436" lon="6.2072">
        <ele>653.2</ele>
        <time>2021-04-17T15:14:05Z</time>
      </trkpt>
      <trkpt lat="46.12438" lon="6.2073">
        <ele>652.2</ele>
        <time>2021-04-17T15:14:06Z</time>
      </trkpt>
      <trkpt lat="46.12436" lon="6.20739">
        <ele>651.6</ele>
        <time>2021-04-17T15:14:07Z</time>
      </trkpt>
      <trkpt lat="46.1243" lon="6.20746">
        <ele>650.6</ele>
        <time>2021-04-17T15:14:08Z</time>
      </trkpt>
      <trkpt lat="46.12422" lon="6.20751">
        <ele>649.2</ele>
        <time>2021-04-17T15:14:09Z</time>
      </trkpt>
      <trkpt lat="46.12405" lon="6.20759">
        <ele>646</ele>
        <time>2021-04-17T15:14:11Z</time>
      </trkpt>
      <trkpt lat="46.12398" lon="6.20764">
        <ele>645</ele>
        <time>2021-04-17T15:14:12Z</time>
      </trkpt>
      <trkpt lat="46.12393" lon="6.20772">
        <ele>644.4</ele>
        <time>2021-04-17T15:14:13Z</time>
      </trkpt>
      <trkpt lat="46.12392" lon="6.20781">
        <ele>644.2</ele>
        <time>2021-04-17T15:14:14Z</time>
      </trkpt>
      <trkpt lat="46.12393" lon="6.2079">
        <ele>643.2</ele>
        <time>2021-04-17T15:14:15Z</time>
      </trkpt>
      <trkpt lat="46.12398" lon="6.20795">
        <ele>642</ele>
        <time>2021-04-17T15:14:16Z</time>
      </trkpt>
      <trkpt lat="46.12406" lon="6.20797">
        <ele>641</ele>
        <time>2021-04-17T15:14:17Z</time>
      </trkpt>
      <trkpt lat="46.12414" lon="6.20798">
        <ele>640.2</ele>
        <time>2021-04-17T15:14:18Z</time>
      </trkpt>
      <trkpt lat="46.12423" lon="6.20799">
        <ele>639.4</ele>
        <time>2021-04-17T15:14:19Z</time>
      </trkpt>
      <trkpt lat="46.12433" lon="6.20799">
        <ele>638.8</ele>
        <time>2021-04-17T15:14:20Z</time>
      </trkpt>
      <trkpt lat="46.12443" lon="6.20799">
        <ele>638.6</ele>
        <time>2021-04-17T15:14:21Z</time>
      </trkpt>
      <trkpt lat="46.12453" lon="6.208">
        <ele>638.2</ele>
        <time>2021-04-17T15:14:22Z</time>
      </trkpt>
      <trkpt lat="46.12463" lon="6.20801">
        <ele>637.8</ele>
        <time>2021-04-17T15:14:23Z</time>
      </trkpt>
      <trkpt lat="46.12473" lon="6.20804">
        <ele>637.2</ele>
        <time>2021-04-17T15:14:24Z</time>
      </trkpt>
      <trkpt lat="46.12482" lon="6.20809">
        <ele>635.8</ele>
        <time>2021-04-17T15:14:25Z</time>
      </trkpt>
      <trkpt lat="46.1249" lon="6.20815">
        <ele>633.6</ele>
        <time>2021-04-17T15:14:26Z</time>
      </trkpt>
      <trkpt lat="46.12499" lon="6.20821">
        <ele>631.8</ele>
        <time>2021-04-17T15:14:27Z</time>
      </trkpt>
      <trkpt lat="46.12506" lon="6.20829">
        <ele>630.2</ele>
        <time>2021-04-17T15:14:28Z</time>
      </trkpt>
      <trkpt lat="46.12513" lon="6.20836">
        <ele>629.4</ele>
        <time>2021-04-17T15:14:29Z</time>
      </trkpt>
      <trkpt lat="46.1252" lon="6.20843">
        <ele>628.8</ele>
        <time>2021-04-17T15:14:30Z</time>
      </trkpt>
      <trkpt lat="46.12527" lon="6.2085">
        <ele>628.4</ele>
        <time>2021-04-17T15:14:31Z</time>
      </trkpt>
      <trkpt lat="46.12533" lon="6.20858">
        <ele>628.4</ele>
        <time>2021-04-17T15:14:32Z</time>
      </trkpt>
      <trkpt lat="46.12539" lon="6.20866">
        <ele>628.4</ele>
        <time>2021-04-17T15:14:33Z</time>
      </trkpt>
      <trkpt lat="46.12545" lon="6.20874">
        <ele>628.2</ele>
        <time>2021-04-17T15:14:34Z</time>
      </trkpt>
      <trkpt lat="46.12552" lon="6.20883">
        <ele>628</ele>
        <time>2021-04-17T15:14:35Z</time>
      </trkpt>
      <trkpt lat="46.12558" lon="6.20892">
        <ele>627.8</ele>
        <time>2021-04-17T15:14:36Z</time>
      </trkpt>
      <trkpt lat="46.12565" lon="6.20901">
        <ele>627.6</ele>
        <time>2021-04-17T15:14:37Z</time>
      </trkpt>
      <trkpt lat="46.12572" lon="6.2091">
        <ele>627.6</ele>
        <time>2021-04-17T15:14:38Z</time>
      </trkpt>
      <trkpt lat="46.12578" lon="6.20919">
        <ele>627.4</ele>
        <time>2021-04-17T15:14:39Z</time>
      </trkpt>
      <trkpt lat="46.12585" lon="6.20928">
        <ele>627.4</ele>
        <time>2021-04-17T15:14:40Z</time>
      </trkpt>
      <trkpt lat="46.12592" lon="6.20938">
        <ele>627.4</ele>
        <time>2021-04-17T15:14:41Z</time>
      </trkpt>
      <trkpt lat="46.126" lon="6.20947">
        <ele>627.4</ele>
        <time>2021-04-17T15:14:42Z</time>
      </trkpt>
      <trkpt lat="46.12607" lon="6.20956">
        <ele>627.2</ele>
        <time>2021-04-17T15:14:43Z</time>
      </trkpt>
      <trkpt lat="46.12614" lon="6.20963">
        <ele>627.4</ele>
        <time>2021-04-17T15:14:44Z</time>
      </trkpt>
      <trkpt lat="46.1262" lon="6.2097">
        <ele>627.2</ele>
        <time>2021-04-17T15:14:45Z</time>
      </trkpt>
      <trkpt lat="46.12627" lon="6.20975">
        <ele>627</ele>
        <time>2021-04-17T15:14:46Z</time>
      </trkpt>
      <trkpt lat="46.12635" lon="6.2098">
        <ele>626.6</ele>
        <time>2021-04-17T15:14:47Z</time>
      </trkpt>
      <trkpt lat="46.12642" lon="6.20985">
        <ele>626.6</ele>
        <time>2021-04-17T15:14:48Z</time>
      </trkpt>
      <trkpt lat="46.12649" lon="6.20989">
        <ele>626</ele>
        <time>2021-04-17T15:14:49Z</time>
      </trkpt>
      <trkpt lat="46.12655" lon="6.20993">
        <ele>625.8</ele>
        <time>2021-04-17T15:14:50Z</time>
      </trkpt>
      <trkpt lat="46.12662" lon="6.20997">
        <ele>625.6</ele>
        <time>2021-04-17T15:14:51Z</time>
      </trkpt>
      <trkpt lat="46.12668" lon="6.21001">
        <ele>625.6</ele>
        <time>2021-04-17T15:14:52Z</time>
      </trkpt>
      <trkpt lat="46.12674" lon="6.21005">
        <ele>625.6</ele>
        <time>2021-04-17T15:14:53Z</time>
      </trkpt>
      <trkpt lat="46.1268" lon="6.21009">
        <ele>625.6</ele>
        <time>2021-04-17T15:14:54Z</time>
      </trkpt>
      <trkpt lat="46.12686" lon="6.21013">
        <ele>625.6</ele>
        <time>2021-04-17T15:14:55Z</time>
      </trkpt>
      <trkpt lat="46.12691" lon="6.21018">
        <ele>625.6</ele>
        <time>2021-04-17T15:14:56Z</time>
      </trkpt>
      <trkpt lat="46.12695" lon="6.21022">
        <ele>625.8</ele>
        <time>2021-04-17T15:14:57Z</time>
      </trkpt>
      <trkpt lat="46.127" lon="6.21027">
        <ele>625.6</ele>
        <time>2021-04-17T15:14:58Z</time>
      </trkpt>
      <trkpt lat="46.12704" lon="6.21032">
        <ele>625.8</ele>
        <time>2021-04-17T15:14:59Z</time>
      </trkpt>
      <trkpt lat="46.12707" lon="6.21037">
        <ele>626.2</ele>
        <time>2021-04-17T15:15:00Z</time>
      </trkpt>
      <trkpt lat="46.1271" lon="6.21041">
        <ele>626.2</ele>
        <time>2021-04-17T15:15:01Z</time>
      </trkpt>
      <trkpt lat="46.12713" lon="6.21045">
        <ele>626.2</ele>
        <time>2021-04-17T15:15:02Z</time>
      </trkpt>
      <trkpt lat="46.12716" lon="6.21049">
        <ele>626.4</ele>
        <time>2021-04-17T15:15:03Z</time>
      </trkpt>
      <trkpt lat="46.12719" lon="6.21053">
        <ele>626.6</ele>
        <time>2021-04-17T15:15:04Z</time>
      </trkpt>
      <trkpt lat="46.12721" lon="6.21058">
        <ele>626.6</ele>
        <time>2021-04-17T15:15:05Z</time>
      </trkpt>
      <trkpt lat="46.12723" lon="6.21063">
        <ele>626.8</ele>
        <time>2021-04-17T15:15:06Z</time>
      </trkpt>
      <trkpt lat="46.12725" lon="6.21068">
        <ele>627</ele>
        <time>2021-04-17T15:15:07Z</time>
      </trkpt>
      <trkpt lat="46.12728" lon="6.21073">
        <ele>627.2</ele>
        <time>2021-04-17T15:15:08Z</time>
      </trkpt>
      <trkpt lat="46.1273" lon="6.21078">
        <ele>627.8</ele>
        <time>2021-04-17T15:15:09Z</time>
      </trkpt>
      <trkpt lat="46.12732" lon="6.21083">
        <ele>628.4</ele>
        <time>2021-04-17T15:15:10Z</time>
      </trkpt>
      <trkpt lat="46.12735" lon="6.21087">
        <ele>628.6</ele>
        <time>2021-04-17T15:15:11Z</time>
      </trkpt>
      <trkpt lat="46.12737" lon="6.21091">
        <ele>628.8</ele>
        <time>2021-04-17T15:15:12Z</time>
      </trkpt>
      <trkpt lat="46.1274" lon="6.21095">
        <ele>629.2</ele>
        <time>2021-04-17T15:15:13Z</time>
      </trkpt>
      <trkpt lat="46.12743" lon="6.21099">
        <ele>629.2</ele>
        <time>2021-04-17T15:15:14Z</time>
      </trkpt>
      <trkpt lat="46.12745" lon="6.21103">
        <ele>629.4</ele>
        <time>2021-04-17T15:15:15Z</time>
      </trkpt>
      <trkpt lat="46.12748" lon="6.21106">
        <ele>629.6</ele>
        <time>2021-04-17T15:15:16Z</time>
      </trkpt>
      <trkpt lat="46.1275" lon="6.21109">
        <ele>629.8</ele>
        <time>2021-04-17T15:15:17Z</time>
      </trkpt>
      <trkpt lat="46.12753" lon="6.21112">
        <ele>629.8</ele>
        <time>2021-04-17T15:15:18Z</time>
      </trkpt>
      <trkpt lat="46.12755" lon="6.21115">
        <ele>630</ele>
        <time>2021-04-17T15:15:19Z</time>
      </trkpt>
      <trkpt lat="46.12758" lon="6.21117">
        <ele>630</ele>
        <time>2021-04-17T15:15:20Z</time>
      </trkpt>
      <trkpt lat="46.12761" lon="6.2112">
        <ele>630.2</ele>
        <time>2021-04-17T15:15:21Z</time>
      </trkpt>
      <trkpt lat="46.12764" lon="6.21123">
        <ele>630.2</ele>
        <time>2021-04-17T15:15:22Z</time>
      </trkpt>
      <trkpt lat="46.12766" lon="6.21126">
        <ele>630.2</ele>
        <time>2021-04-17T15:15:23Z</time>
      </trkpt>
      <trkpt lat="46.12769" lon="6.21129">
        <ele>630.2</ele>
        <time>2021-04-17T15:15:24Z</time>
      </trkpt>
      <trkpt lat="46.12771" lon="6.21131">
        <ele>630.2</ele>
        <time>2021-04-17T15:15:25Z</time>
      </trkpt>
      <trkpt lat="46.12774" lon="6.21134">
        <ele>630.4</ele>
        <time>2021-04-17T15:15:26Z</time>
      </trkpt>
      <trkpt lat="46.12776" lon="6.21137">
        <ele>630.4</ele>
        <time>2021-04-17T15:15:27Z</time>
      </trkpt>
      <trkpt lat="46.12779" lon="6.2114">
        <ele>630.8</ele>
        <time>2021-04-17T15:15:28Z</time>
      </trkpt>
      <trkpt lat="46.12781" lon="6.21144">
        <ele>631.2</ele>
        <time>2021-04-17T15:15:29Z</time>
      </trkpt>
      <trkpt lat="46.12783" lon="6.21147">
        <ele>631.6</ele>
        <time>2021-04-17T15:15:30Z</time>
      </trkpt>
      <trkpt lat="46.12784" lon="6.21151">
        <ele>631.8</ele>
        <time>2021-04-17T15:15:31Z</time>
      </trkpt>
      <trkpt lat="46.12786" lon="6.21154">
        <ele>632.2</ele>
        <time>2021-04-17T15:15:32Z</time>
      </trkpt>
      <trkpt lat="46.12787" lon="6.21158">
        <ele>632.4</ele>
        <time>2021-04-17T15:15:33Z</time>
      </trkpt>
      <trkpt lat="46.12788" lon="6.21162">
        <ele>632.8</ele>
        <time>2021-04-17T15:15:34Z</time>
      </trkpt>
      <trkpt lat="46.1279" lon="6.21166">
        <ele>633.4</ele>
        <time>2021-04-17T15:15:35Z</time>
      </trkpt>
      <trkpt lat="46.12791" lon="6.21169">
        <ele>634</ele>
        <time>2021-04-17T15:15:36Z</time>
      </trkpt>
      <trkpt lat="46.12791" lon="6.21173">
        <ele>634.2</ele>
        <time>2021-04-17T15:15:37Z</time>
      </trkpt>
      <trkpt lat="46.12792" lon="6.21177">
        <ele>634.4</ele>
        <time>2021-04-17T15:15:38Z</time>
      </trkpt>
      <trkpt lat="46.12793" lon="6.21181">
        <ele>634.8</ele>
        <time>2021-04-17T15:15:39Z</time>
      </trkpt>
      <trkpt lat="46.12794" lon="6.21185">
        <ele>635.2</ele>
        <time>2021-04-17T15:15:40Z</time>
      </trkpt>
      <trkpt lat="46.12794" lon="6.21189">
        <ele>635.4</ele>
        <time>2021-04-17T15:15:41Z</time>
      </trkpt>
      <trkpt lat="46.12796" lon="6.21194">
        <ele>635.6</ele>
        <time>2021-04-17T15:15:42Z</time>
      </trkpt>
      <trkpt lat="46.12797" lon="6.21197">
        <ele>636</ele>
        <time>2021-04-17T15:15:43Z</time>
      </trkpt>
      <trkpt lat="46.12798" lon="6.21201">
        <ele>636.4</ele>
        <time>2021-04-17T15:15:44Z</time>
      </trkpt>
      <trkpt lat="46.128" lon="6.21205">
        <ele>636.8</ele>
        <time>2021-04-17T15:15:45Z</time>
      </trkpt>
      <trkpt lat="46.12801" lon="6.21208">
        <ele>637.4</ele>
        <time>2021-04-17T15:15:46Z</time>
      </trkpt>
      <trkpt lat="46.12803" lon="6.21211">
        <ele>638</ele>
        <time>2021-04-17T15:15:47Z</time>
      </trkpt>
      <trkpt lat="46.12805" lon="6.21215">
        <ele>638.2</ele>
        <time>2021-04-17T15:15:48Z</time>
      </trkpt>
      <trkpt lat="46.12806" lon="6.21218">
        <ele>638.4</ele>
        <time>2021-04-17T15:15:49Z</time>
      </trkpt>
      <trkpt lat="46.12808" lon="6.21221">
        <ele>638.4</ele>
        <time>2021-04-17T15:15:50Z</time>
      </trkpt>
      <trkpt lat="46.1281" lon="6.21224">
        <ele>638.4</ele>
        <time>2021-04-17T15:15:51Z</time>
      </trkpt>
      <trkpt lat="46.12812" lon="6.21227">
        <ele>638.6</ele>
        <time>2021-04-17T15:15:52Z</time>
      </trkpt>
      <trkpt lat="46.12814" lon="6.2123">
        <ele>638.8</ele>
        <time>2021-04-17T15:15:53Z</time>
      </trkpt>
      <trkpt lat="46.12815" lon="6.21233">
        <ele>638.8</ele>
        <time>2021-04-17T15:15:54Z</time>
      </trkpt>
      <trkpt lat="46.12817" lon="6.21236">
        <ele>639</ele>
        <time>2021-04-17T15:15:55Z</time>
      </trkpt>
      <trkpt lat="46.1282" lon="6.21239">
        <ele>639.2</ele>
        <time>2021-04-17T15:15:56Z</time>
      </trkpt>
      <trkpt lat="46.12822" lon="6.21241">
        <ele>639.8</ele>
        <time>2021-04-17T15:15:57Z</time>
      </trkpt>
      <trkpt lat="46.12824" lon="6.21244">
        <ele>640</ele>
        <time>2021-04-17T15:15:58Z</time>
      </trkpt>
      <trkpt lat="46.12826" lon="6.21247">
        <ele>640.4</ele>
        <time>2021-04-17T15:15:59Z</time>
      </trkpt>
      <trkpt lat="46.12829" lon="6.2125">
        <ele>640.8</ele>
        <time>2021-04-17T15:16:00Z</time>
      </trkpt>
      <trkpt lat="46.12831" lon="6.21253">
        <ele>641</ele>
        <time>2021-04-17T15:16:01Z</time>
      </trkpt>
      <trkpt lat="46.12833" lon="6.21256">
        <ele>641.4</ele>
        <time>2021-04-17T15:16:02Z</time>
      </trkpt>
      <trkpt lat="46.12835" lon="6.21259">
        <ele>641.2</ele>
        <time>2021-04-17T15:16:03Z</time>
      </trkpt>
      <trkpt lat="46.12837" lon="6.21262">
        <ele>641.4</ele>
        <time>2021-04-17T15:16:04Z</time>
      </trkpt>
      <trkpt lat="46.1284" lon="6.21265">
        <ele>642</ele>
        <time>2021-04-17T15:16:05Z</time>
      </trkpt>
      <trkpt lat="46.12842" lon="6.21268">
        <ele>642</ele>
        <time>2021-04-17T15:16:06Z</time>
      </trkpt>
      <trkpt lat="46.12844" lon="6.21271">
        <ele>642.2</ele>
        <time>2021-04-17T15:16:07Z</time>
      </trkpt>
      <trkpt lat="46.12846" lon="6.21274">
        <ele>642.2</ele>
        <time>2021-04-17T15:16:08Z</time>
      </trkpt>
      <trkpt lat="46.12848" lon="6.21277">
        <ele>642.4</ele>
        <time>2021-04-17T15:16:09Z</time>
      </trkpt>
      <trkpt lat="46.1285" lon="6.2128">
        <ele>642.6</ele>
        <time>2021-04-17T15:16:10Z</time>
      </trkpt>
      <trkpt lat="46.12853" lon="6.21284">
        <ele>643</ele>
        <time>2021-04-17T15:16:11Z</time>
      </trkpt>
      <trkpt lat="46.12855" lon="6.21287">
        <ele>643.4</ele>
        <time>2021-04-17T15:16:12Z</time>
      </trkpt>
      <trkpt lat="46.12857" lon="6.2129">
        <ele>643.6</ele>
        <time>2021-04-17T15:16:13Z</time>
      </trkpt>
      <trkpt lat="46.1286" lon="6.21293">
        <ele>643.8</ele>
        <time>2021-04-17T15:16:14Z</time>
      </trkpt>
      <trkpt lat="46.12862" lon="6.21296">
        <ele>643.8</ele>
        <time>2021-04-17T15:16:15Z</time>
      </trkpt>
      <trkpt lat="46.12865" lon="6.21299">
        <ele>644.2</ele>
        <time>2021-04-17T15:16:16Z</time>
      </trkpt>
      <trkpt lat="46.12867" lon="6.21302">
        <ele>644.6</ele>
        <time>2021-04-17T15:16:17Z</time>
      </trkpt>
      <trkpt lat="46.1287" lon="6.21306">
        <ele>645</ele>
        <time>2021-04-17T15:16:18Z</time>
      </trkpt>
      <trkpt lat="46.12872" lon="6.21309">
        <ele>645</ele>
        <time>2021-04-17T15:16:19Z</time>
      </trkpt>
      <trkpt lat="46.12875" lon="6.21312">
        <ele>645.2</ele>
        <time>2021-04-17T15:16:20Z</time>
      </trkpt>
      <trkpt lat="46.12877" lon="6.21315">
        <ele>645.2</ele>
        <time>2021-04-17T15:16:21Z</time>
      </trkpt>
      <trkpt lat="46.1288" lon="6.21318">
        <ele>645.4</ele>
        <time>2021-04-17T15:16:22Z</time>
      </trkpt>
      <trkpt lat="46.12883" lon="6.21321">
        <ele>645.6</ele>
        <time>2021-04-17T15:16:23Z</time>
      </trkpt>
      <trkpt lat="46.12886" lon="6.21324">
        <ele>645.8</ele>
        <time>2021-04-17T15:16:24Z</time>
      </trkpt>
      <trkpt lat="46.12889" lon="6.21327">
        <ele>646</ele>
        <time>2021-04-17T15:16:25Z</time>
      </trkpt>
      <trkpt lat="46.12892" lon="6.2133">
        <ele>646</ele>
        <time>2021-04-17T15:16:26Z</time>
      </trkpt>
      <trkpt lat="46.12895" lon="6.21332">
        <ele>646</ele>
        <time>2021-04-17T15:16:27Z</time>
      </trkpt>
      <trkpt lat="46.12898" lon="6.21335">
        <ele>646.2</ele>
        <time>2021-04-17T15:16:28Z</time>
      </trkpt>
      <trkpt lat="46.12902" lon="6.21338">
        <ele>646.2</ele>
        <time>2021-04-17T15:16:29Z</time>
      </trkpt>
      <trkpt lat="46.12905" lon="6.21341">
        <ele>646.6</ele>
        <time>2021-04-17T15:16:30Z</time>
      </trkpt>
      <trkpt lat="46.12908" lon="6.21345">
        <ele>646.8</ele>
        <time>2021-04-17T15:16:31Z</time>
      </trkpt>
      <trkpt lat="46.1291" lon="6.21348">
        <ele>646.8</ele>
        <time>2021-04-17T15:16:32Z</time>
      </trkpt>
      <trkpt lat="46.12914" lon="6.21352">
        <ele>647</ele>
        <time>2021-04-17T15:16:33Z</time>
      </trkpt>
      <trkpt lat="46.12917" lon="6.21355">
        <ele>647</ele>
        <time>2021-04-17T15:16:34Z</time>
      </trkpt>
      <trkpt lat="46.1292" lon="6.21358">
        <ele>647.2</ele>
        <time>2021-04-17T15:16:35Z</time>
      </trkpt>
      <trkpt lat="46.12923" lon="6.21362">
        <ele>647.2</ele>
        <time>2021-04-17T15:16:36Z</time>
      </trkpt>
      <trkpt lat="46.12926" lon="6.21367">
        <ele>647.2</ele>
        <time>2021-04-17T15:16:37Z</time>
      </trkpt>
      <trkpt lat="46.12929" lon="6.21371">
        <ele>647.2</ele>
        <time>2021-04-17T15:16:38Z</time>
      </trkpt>
      <trkpt lat="46.12932" lon="6.21376">
        <ele>647.2</ele>
        <time>2021-04-17T15:16:39Z</time>
      </trkpt>
      <trkpt lat="46.12935" lon="6.21381">
        <ele>647.2</ele>
        <time>2021-04-17T15:16:40Z</time>
      </trkpt>
      <trkpt lat="46.12938" lon="6.21387">
        <ele>647.2</ele>
        <time>2021-04-17T15:16:41Z</time>
      </trkpt>
      <trkpt lat="46.12942" lon="6.21392">
        <ele>647.4</ele>
        <time>2021-04-17T15:16:42Z</time>
      </trkpt>
      <trkpt lat="46.12945" lon="6.21398">
        <ele>647.4</ele>
        <time>2021-04-17T15:16:43Z</time>
      </trkpt>
      <trkpt lat="46.12948" lon="6.21404">
        <ele>647.4</ele>
        <time>2021-04-17T15:16:44Z</time>
      </trkpt>
      <trkpt lat="46.12952" lon="6.21409">
        <ele>647.4</ele>
        <time>2021-04-17T15:16:45Z</time>
      </trkpt>
      <trkpt lat="46.12955" lon="6.21414">
        <ele>647.4</ele>
        <time>2021-04-17T15:16:46Z</time>
      </trkpt>
      <trkpt lat="46.12959" lon="6.21419">
        <ele>647.4</ele>
        <time>2021-04-17T15:16:47Z</time>
      </trkpt>
      <trkpt lat="46.12962" lon="6.21425">
        <ele>647.2</ele>
        <time>2021-04-17T15:16:48Z</time>
      </trkpt>
      <trkpt lat="46.12966" lon="6.21429">
        <ele>647.2</ele>
        <time>2021-04-17T15:16:49Z</time>
      </trkpt>
      <trkpt lat="46.12969" lon="6.21435">
        <ele>647</ele>
        <time>2021-04-17T15:16:50Z</time>
      </trkpt>
      <trkpt lat="46.12973" lon="6.2144">
        <ele>646.8</ele>
        <time>2021-04-17T15:16:51Z</time>
      </trkpt>
      <trkpt lat="46.12976" lon="6.21446">
        <ele>646.8</ele>
        <time>2021-04-17T15:16:52Z</time>
      </trkpt>
      <trkpt lat="46.12979" lon="6.21451">
        <ele>646.8</ele>
        <time>2021-04-17T15:16:53Z</time>
      </trkpt>
      <trkpt lat="46.12983" lon="6.21457">
        <ele>646.8</ele>
        <time>2021-04-17T15:16:54Z</time>
      </trkpt>
      <trkpt lat="46.12986" lon="6.21462">
        <ele>646.8</ele>
        <time>2021-04-17T15:16:55Z</time>
      </trkpt>
      <trkpt lat="46.12989" lon="6.21467">
        <ele>646.8</ele>
        <time>2021-04-17T15:16:56Z</time>
      </trkpt>
      <trkpt lat="46.12992" lon="6.21473">
        <ele>646.8</ele>
        <time>2021-04-17T15:16:57Z</time>
      </trkpt>
      <trkpt lat="46.12995" lon="6.21479">
        <ele>646.8</ele>
        <time>2021-04-17T15:16:58Z</time>
      </trkpt>
      <trkpt lat="46.12997" lon="6.21485">
        <ele>646.6</ele>
        <time>2021-04-17T15:16:59Z</time>
      </trkpt>
      <trkpt lat="46.13" lon="6.21491">
        <ele>646.6</ele>
        <time>2021-04-17T15:17:00Z</time>
      </trkpt>
      <trkpt lat="46.13001" lon="6.21497">
        <ele>646.6</ele>
        <time>2021-04-17T15:17:01Z</time>
      </trkpt>
      <trkpt lat="46.13004" lon="6.21503">
        <ele>646.6</ele>
        <time>2021-04-17T15:17:02Z</time>
      </trkpt>
      <trkpt lat="46.13007" lon="6.21509">
        <ele>646.6</ele>
        <time>2021-04-17T15:17:03Z</time>
      </trkpt>
      <trkpt lat="46.13009" lon="6.21515">
        <ele>646.8</ele>
        <time>2021-04-17T15:17:04Z</time>
      </trkpt>
      <trkpt lat="46.13011" lon="6.21522">
        <ele>647</ele>
        <time>2021-04-17T15:17:05Z</time>
      </trkpt>
      <trkpt lat="46.13014" lon="6.21528">
        <ele>646.8</ele>
        <time>2021-04-17T15:17:06Z</time>
      </trkpt>
      <trkpt lat="46.13016" lon="6.21534">
        <ele>647.2</ele>
        <time>2021-04-17T15:17:07Z</time>
      </trkpt>
      <trkpt lat="46.13019" lon="6.21541">
        <ele>648</ele>
        <time>2021-04-17T15:17:08Z</time>
      </trkpt>
      <trkpt lat="46.13022" lon="6.21547">
        <ele>648.4</ele>
        <time>2021-04-17T15:17:09Z</time>
      </trkpt>
      <trkpt lat="46.13024" lon="6.21554">
        <ele>648.6</ele>
        <time>2021-04-17T15:17:10Z</time>
      </trkpt>
      <trkpt lat="46.13027" lon="6.2156">
        <ele>648.8</ele>
        <time>2021-04-17T15:17:11Z</time>
      </trkpt>
      <trkpt lat="46.1303" lon="6.21567">
        <ele>648.8</ele>
        <time>2021-04-17T15:17:12Z</time>
      </trkpt>
      <trkpt lat="46.13033" lon="6.21574">
        <ele>648.8</ele>
        <time>2021-04-17T15:17:13Z</time>
      </trkpt>
      <trkpt lat="46.13035" lon="6.21582">
        <ele>648.8</ele>
        <time>2021-04-17T15:17:14Z</time>
      </trkpt>
      <trkpt lat="46.13038" lon="6.2159">
        <ele>649</ele>
        <time>2021-04-17T15:17:15Z</time>
      </trkpt>
      <trkpt lat="46.13041" lon="6.21598">
        <ele>648.8</ele>
        <time>2021-04-17T15:17:16Z</time>
      </trkpt>
      <trkpt lat="46.13045" lon="6.21607">
        <ele>648.8</ele>
        <time>2021-04-17T15:17:17Z</time>
      </trkpt>
      <trkpt lat="46.13049" lon="6.21616">
        <ele>648.8</ele>
        <time>2021-04-17T15:17:18Z</time>
      </trkpt>
      <trkpt lat="46.13053" lon="6.21626">
        <ele>649</ele>
        <time>2021-04-17T15:17:19Z</time>
      </trkpt>
      <trkpt lat="46.13058" lon="6.21635">
        <ele>648.4</ele>
        <time>2021-04-17T15:17:20Z</time>
      </trkpt>
      <trkpt lat="46.13063" lon="6.21644">
        <ele>648.2</ele>
        <time>2021-04-17T15:17:21Z</time>
      </trkpt>
      <trkpt lat="46.13069" lon="6.21653">
        <ele>648</ele>
        <time>2021-04-17T15:17:22Z</time>
      </trkpt>
      <trkpt lat="46.13075" lon="6.21661">
        <ele>647.8</ele>
        <time>2021-04-17T15:17:23Z</time>
      </trkpt>
      <trkpt lat="46.13082" lon="6.2167">
        <ele>647.6</ele>
        <time>2021-04-17T15:17:24Z</time>
      </trkpt>
      <trkpt lat="46.1309" lon="6.21678">
        <ele>647.6</ele>
        <time>2021-04-17T15:17:25Z</time>
      </trkpt>
      <trkpt lat="46.13098" lon="6.21686">
        <ele>646.6</ele>
        <time>2021-04-17T15:17:26Z</time>
      </trkpt>
      <trkpt lat="46.13106" lon="6.21693">
        <ele>645.6</ele>
        <time>2021-04-17T15:17:27Z</time>
      </trkpt>
      <trkpt lat="46.13114" lon="6.217">
        <ele>644.6</ele>
        <time>2021-04-17T15:17:28Z</time>
      </trkpt>
      <trkpt lat="46.13123" lon="6.21708">
        <ele>644</ele>
        <time>2021-04-17T15:17:29Z</time>
      </trkpt>
      <trkpt lat="46.13133" lon="6.21715">
        <ele>643.2</ele>
        <time>2021-04-17T15:17:30Z</time>
      </trkpt>
      <trkpt lat="46.13142" lon="6.21723">
        <ele>642.6</ele>
        <time>2021-04-17T15:17:31Z</time>
      </trkpt>
      <trkpt lat="46.13151" lon="6.2173">
        <ele>641.8</ele>
        <time>2021-04-17T15:17:32Z</time>
      </trkpt>
      <trkpt lat="46.13161" lon="6.21738">
        <ele>641.2</ele>
        <time>2021-04-17T15:17:33Z</time>
      </trkpt>
      <trkpt lat="46.13171" lon="6.21746">
        <ele>640.6</ele>
        <time>2021-04-17T15:17:34Z</time>
      </trkpt>
      <trkpt lat="46.13181" lon="6.21754">
        <ele>640</ele>
        <time>2021-04-17T15:17:35Z</time>
      </trkpt>
      <trkpt lat="46.13191" lon="6.21762">
        <ele>638.8</ele>
        <time>2021-04-17T15:17:36Z</time>
      </trkpt>
      <trkpt lat="46.13201" lon="6.21771">
        <ele>637.8</ele>
        <time>2021-04-17T15:17:37Z</time>
      </trkpt>
      <trkpt lat="46.13211" lon="6.21781">
        <ele>636.6</ele>
        <time>2021-04-17T15:17:38Z</time>
      </trkpt>
      <trkpt lat="46.1322" lon="6.21792">
        <ele>635.4</ele>
        <time>2021-04-17T15:17:39Z</time>
      </trkpt>
      <trkpt lat="46.13228" lon="6.21805">
        <ele>633.4</ele>
        <time>2021-04-17T15:17:40Z</time>
      </trkpt>
      <trkpt lat="46.13235" lon="6.21818">
        <ele>632</ele>
        <time>2021-04-17T15:17:41Z</time>
      </trkpt>
      <trkpt lat="46.13241" lon="6.21831">
        <ele>631</ele>
        <time>2021-04-17T15:17:42Z</time>
      </trkpt>
      <trkpt lat="46.13247" lon="6.21844">
        <ele>630</ele>
        <time>2021-04-17T15:17:43Z</time>
      </trkpt>
      <trkpt lat="46.13253" lon="6.21857">
        <ele>629.2</ele>
        <time>2021-04-17T15:17:44Z</time>
      </trkpt>
      <trkpt lat="46.13259" lon="6.2187">
        <ele>627.8</ele>
        <time>2021-04-17T15:17:45Z</time>
      </trkpt>
      <trkpt lat="46.13265" lon="6.21882">
        <ele>625.6</ele>
        <time>2021-04-17T15:17:46Z</time>
      </trkpt>
      <trkpt lat="46.1327" lon="6.21894">
        <ele>624.4</ele>
        <time>2021-04-17T15:17:47Z</time>
      </trkpt>
      <trkpt lat="46.13276" lon="6.21906">
        <ele>623.8</ele>
        <time>2021-04-17T15:17:48Z</time>
      </trkpt>
      <trkpt lat="46.13282" lon="6.21916">
        <ele>623.4</ele>
        <time>2021-04-17T15:17:49Z</time>
      </trkpt>
      <trkpt lat="46.13289" lon="6.21926">
        <ele>623</ele>
        <time>2021-04-17T15:17:50Z</time>
      </trkpt>
      <trkpt lat="46.13296" lon="6.21936">
        <ele>622.4</ele>
        <time>2021-04-17T15:17:51Z</time>
      </trkpt>
      <trkpt lat="46.13304" lon="6.21944">
        <ele>622.4</ele>
        <time>2021-04-17T15:17:52Z</time>
      </trkpt>
      <trkpt lat="46.13311" lon="6.21952">
        <ele>622</ele>
        <time>2021-04-17T15:17:53Z</time>
      </trkpt>
      <trkpt lat="46.13318" lon="6.2196">
        <ele>621.4</ele>
        <time>2021-04-17T15:17:54Z</time>
      </trkpt>
      <trkpt lat="46.13325" lon="6.21968">
        <ele>621</ele>
        <time>2021-04-17T15:17:55Z</time>
      </trkpt>
      <trkpt lat="46.13332" lon="6.21976">
        <ele>621</ele>
        <time>2021-04-17T15:17:56Z</time>
      </trkpt>
      <trkpt lat="46.13338" lon="6.21983">
        <ele>620.8</ele>
        <time>2021-04-17T15:17:57Z</time>
      </trkpt>
      <trkpt lat="46.13344" lon="6.21991">
        <ele>620.8</ele>
        <time>2021-04-17T15:17:58Z</time>
      </trkpt>
      <trkpt lat="46.1335" lon="6.21998">
        <ele>620.8</ele>
        <time>2021-04-17T15:17:59Z</time>
      </trkpt>
      <trkpt lat="46.13356" lon="6.22006">
        <ele>620.8</ele>
        <time>2021-04-17T15:18:00Z</time>
      </trkpt>
      <trkpt lat="46.13362" lon="6.22014">
        <ele>620.8</ele>
        <time>2021-04-17T15:18:01Z</time>
      </trkpt>
      <trkpt lat="46.13369" lon="6.22022">
        <ele>620.8</ele>
        <time>2021-04-17T15:18:02Z</time>
      </trkpt>
      <trkpt lat="46.13375" lon="6.2203">
        <ele>620.8</ele>
        <time>2021-04-17T15:18:03Z</time>
      </trkpt>
      <trkpt lat="46.13381" lon="6.22039">
        <ele>620.6</ele>
        <time>2021-04-17T15:18:04Z</time>
      </trkpt>
      <trkpt lat="46.13388" lon="6.22047">
        <ele>620.4</ele>
        <time>2021-04-17T15:18:05Z</time>
      </trkpt>
      <trkpt lat="46.13394" lon="6.22056">
        <ele>620.2</ele>
        <time>2021-04-17T15:18:06Z</time>
      </trkpt>
      <trkpt lat="46.134" lon="6.22065">
        <ele>620</ele>
        <time>2021-04-17T15:18:07Z</time>
      </trkpt>
      <trkpt lat="46.13406" lon="6.22074">
        <ele>620</ele>
        <time>2021-04-17T15:18:08Z</time>
      </trkpt>
      <trkpt lat="46.13412" lon="6.22083">
        <ele>619.8</ele>
        <time>2021-04-17T15:18:09Z</time>
      </trkpt>
      <trkpt lat="46.13418" lon="6.22091">
        <ele>619.8</ele>
        <time>2021-04-17T15:18:10Z</time>
      </trkpt>
      <trkpt lat="46.13424" lon="6.22099">
        <ele>619.6</ele>
        <time>2021-04-17T15:18:11Z</time>
      </trkpt>
      <trkpt lat="46.13431" lon="6.22106">
        <ele>619.6</ele>
        <time>2021-04-17T15:18:12Z</time>
      </trkpt>
      <trkpt lat="46.13437" lon="6.22112">
        <ele>619.4</ele>
        <time>2021-04-17T15:18:13Z</time>
      </trkpt>
      <trkpt lat="46.13443" lon="6.22118">
        <ele>619.6</ele>
        <time>2021-04-17T15:18:14Z</time>
      </trkpt>
      <trkpt lat="46.1345" lon="6.22124">
        <ele>619.6</ele>
        <time>2021-04-17T15:18:15Z</time>
      </trkpt>
      <trkpt lat="46.13456" lon="6.2213">
        <ele>619.4</ele>
        <time>2021-04-17T15:18:16Z</time>
      </trkpt>
      <trkpt lat="46.13462" lon="6.22135">
        <ele>619.4</ele>
        <time>2021-04-17T15:18:17Z</time>
      </trkpt>
      <trkpt lat="46.13468" lon="6.22141">
        <ele>619.4</ele>
        <time>2021-04-17T15:18:18Z</time>
      </trkpt>
      <trkpt lat="46.13473" lon="6.22147">
        <ele>619.2</ele>
        <time>2021-04-17T15:18:19Z</time>
      </trkpt>
      <trkpt lat="46.13479" lon="6.22152">
        <ele>619.2</ele>
        <time>2021-04-17T15:18:20Z</time>
      </trkpt>
      <trkpt lat="46.13485" lon="6.22158">
        <ele>619.2</ele>
        <time>2021-04-17T15:18:21Z</time>
      </trkpt>
      <trkpt lat="46.1349" lon="6.22164">
        <ele>619.2</ele>
        <time>2021-04-17T15:18:22Z</time>
      </trkpt>
      <trkpt lat="46.13496" lon="6.2217">
        <ele>619.2</ele>
        <time>2021-04-17T15:18:23Z</time>
      </trkpt>
      <trkpt lat="46.13503" lon="6.22176">
        <ele>619.4</ele>
        <time>2021-04-17T15:18:24Z</time>
      </trkpt>
      <trkpt lat="46.13509" lon="6.22182">
        <ele>619.2</ele>
        <time>2021-04-17T15:18:25Z</time>
      </trkpt>
      <trkpt lat="46.13515" lon="6.22188">
        <ele>619.4</ele>
        <time>2021-04-17T15:18:26Z</time>
      </trkpt>
      <trkpt lat="46.13521" lon="6.22195">
        <ele>619.2</ele>
        <time>2021-04-17T15:18:27Z</time>
      </trkpt>
      <trkpt lat="46.13528" lon="6.22201">
        <ele>619.4</ele>
        <time>2021-04-17T15:18:28Z</time>
      </trkpt>
      <trkpt lat="46.13535" lon="6.22207">
        <ele>619.4</ele>
        <time>2021-04-17T15:18:29Z</time>
      </trkpt>
      <trkpt lat="46.13542" lon="6.22212">
        <ele>619.4</ele>
        <time>2021-04-17T15:18:30Z</time>
      </trkpt>
      <trkpt lat="46.13549" lon="6.22218">
        <ele>619.4</ele>
        <time>2021-04-17T15:18:31Z</time>
      </trkpt>
      <trkpt lat="46.13557" lon="6.22223">
        <ele>619.2</ele>
        <time>2021-04-17T15:18:32Z</time>
      </trkpt>
      <trkpt lat="46.13565" lon="6.22228">
        <ele>619</ele>
        <time>2021-04-17T15:18:33Z</time>
      </trkpt>
      <trkpt lat="46.13573" lon="6.22233">
        <ele>619</ele>
        <time>2021-04-17T15:18:34Z</time>
      </trkpt>
      <trkpt lat="46.13581" lon="6.22238">
        <ele>619</ele>
        <time>2021-04-17T15:18:35Z</time>
      </trkpt>
      <trkpt lat="46.13589" lon="6.22243">
        <ele>618.4</ele>
        <time>2021-04-17T15:18:36Z</time>
      </trkpt>
      <trkpt lat="46.13597" lon="6.22248">
        <ele>617.8</ele>
        <time>2021-04-17T15:18:37Z</time>
      </trkpt>
      <trkpt lat="46.13606" lon="6.22253">
        <ele>617.6</ele>
        <time>2021-04-17T15:18:38Z</time>
      </trkpt>
      <trkpt lat="46.13614" lon="6.22259">
        <ele>617</ele>
        <time>2021-04-17T15:18:39Z</time>
      </trkpt>
      <trkpt lat="46.13623" lon="6.22265">
        <ele>616.6</ele>
        <time>2021-04-17T15:18:40Z</time>
      </trkpt>
      <trkpt lat="46.13631" lon="6.22272">
        <ele>616</ele>
        <time>2021-04-17T15:18:41Z</time>
      </trkpt>
      <trkpt lat="46.13639" lon="6.22278">
        <ele>615.2</ele>
        <time>2021-04-17T15:18:42Z</time>
      </trkpt>
      <trkpt lat="46.13647" lon="6.22286">
        <ele>614.6</ele>
        <time>2021-04-17T15:18:43Z</time>
      </trkpt>
      <trkpt lat="46.13654" lon="6.22294">
        <ele>614.4</ele>
        <time>2021-04-17T15:18:44Z</time>
      </trkpt>
      <trkpt lat="46.13661" lon="6.22302">
        <ele>614</ele>
        <time>2021-04-17T15:18:45Z</time>
      </trkpt>
      <trkpt lat="46.13667" lon="6.22312">
        <ele>613.8</ele>
        <time>2021-04-17T15:18:46Z</time>
      </trkpt>
      <trkpt lat="46.13673" lon="6.22321">
        <ele>613.2</ele>
        <time>2021-04-17T15:18:47Z</time>
      </trkpt>
      <trkpt lat="46.13679" lon="6.2233">
        <ele>612.6</ele>
        <time>2021-04-17T15:18:48Z</time>
      </trkpt>
      <trkpt lat="46.1369" lon="6.22346">
        <ele>611.8</ele>
        <time>2021-04-17T15:18:50Z</time>
      </trkpt>
      <trkpt lat="46.13696" lon="6.22354">
        <ele>611.6</ele>
        <time>2021-04-17T15:18:51Z</time>
      </trkpt>
      <trkpt lat="46.13703" lon="6.22361">
        <ele>611.4</ele>
        <time>2021-04-17T15:18:52Z</time>
      </trkpt>
      <trkpt lat="46.13709" lon="6.22368">
        <ele>611.4</ele>
        <time>2021-04-17T15:18:53Z</time>
      </trkpt>
      <trkpt lat="46.13715" lon="6.22375">
        <ele>611</ele>
        <time>2021-04-17T15:18:54Z</time>
      </trkpt>
      <trkpt lat="46.13722" lon="6.22381">
        <ele>611</ele>
        <time>2021-04-17T15:18:55Z</time>
      </trkpt>
      <trkpt lat="46.13728" lon="6.22388">
        <ele>611</ele>
        <time>2021-04-17T15:18:56Z</time>
      </trkpt>
      <trkpt lat="46.13735" lon="6.22394">
        <ele>610.8</ele>
        <time>2021-04-17T15:18:57Z</time>
      </trkpt>
      <trkpt lat="46.13742" lon="6.224">
        <ele>610.8</ele>
        <time>2021-04-17T15:18:58Z</time>
      </trkpt>
      <trkpt lat="46.13748" lon="6.22406">
        <ele>610.8</ele>
        <time>2021-04-17T15:18:59Z</time>
      </trkpt>
      <trkpt lat="46.13754" lon="6.22412">
        <ele>610.6</ele>
        <time>2021-04-17T15:19:00Z</time>
      </trkpt>
      <trkpt lat="46.1376" lon="6.22418">
        <ele>610.6</ele>
        <time>2021-04-17T15:19:01Z</time>
      </trkpt>
      <trkpt lat="46.13766" lon="6.22424">
        <ele>610.6</ele>
        <time>2021-04-17T15:19:02Z</time>
      </trkpt>
      <trkpt lat="46.13772" lon="6.22429">
        <ele>610.6</ele>
        <time>2021-04-17T15:19:03Z</time>
      </trkpt>
      <trkpt lat="46.13778" lon="6.22435">
        <ele>610.8</ele>
        <time>2021-04-17T15:19:04Z</time>
      </trkpt>
      <trkpt lat="46.13784" lon="6.2244">
        <ele>610.8</ele>
        <time>2021-04-17T15:19:05Z</time>
      </trkpt>
      <trkpt lat="46.1379" lon="6.22445">
        <ele>610.8</ele>
        <time>2021-04-17T15:19:06Z</time>
      </trkpt>
      <trkpt lat="46.13796" lon="6.22451">
        <ele>610.8</ele>
        <time>2021-04-17T15:19:07Z</time>
      </trkpt>
      <trkpt lat="46.13802" lon="6.22457">
        <ele>610.6</ele>
        <time>2021-04-17T15:19:08Z</time>
      </trkpt>
      <trkpt lat="46.13807" lon="6.22462">
        <ele>610.6</ele>
        <time>2021-04-17T15:19:09Z</time>
      </trkpt>
      <trkpt lat="46.13813" lon="6.22469">
        <ele>610.4</ele>
        <time>2021-04-17T15:19:10Z</time>
      </trkpt>
      <trkpt lat="46.13818" lon="6.22474">
        <ele>610.4</ele>
        <time>2021-04-17T15:19:11Z</time>
      </trkpt>
      <trkpt lat="46.13824" lon="6.22481">
        <ele>610.2</ele>
        <time>2021-04-17T15:19:12Z</time>
      </trkpt>
      <trkpt lat="46.13829" lon="6.22487">
        <ele>610.2</ele>
        <time>2021-04-17T15:19:13Z</time>
      </trkpt>
      <trkpt lat="46.13833" lon="6.22493">
        <ele>610.4</ele>
        <time>2021-04-17T15:19:14Z</time>
      </trkpt>
      <trkpt lat="46.13838" lon="6.225">
        <ele>610.4</ele>
        <time>2021-04-17T15:19:15Z</time>
      </trkpt>
      <trkpt lat="46.13842" lon="6.22507">
        <ele>610.4</ele>
        <time>2021-04-17T15:19:16Z</time>
      </trkpt>
      <trkpt lat="46.13846" lon="6.22514">
        <ele>610.4</ele>
        <time>2021-04-17T15:19:17Z</time>
      </trkpt>
      <trkpt lat="46.1385" lon="6.22521">
        <ele>610.2</ele>
        <time>2021-04-17T15:19:18Z</time>
      </trkpt>
      <trkpt lat="46.13854" lon="6.22528">
        <ele>610.4</ele>
        <time>2021-04-17T15:19:19Z</time>
      </trkpt>
      <trkpt lat="46.13856" lon="6.22534">
        <ele>610.6</ele>
        <time>2021-04-17T15:19:20Z</time>
      </trkpt>
      <trkpt lat="46.13859" lon="6.22541">
        <ele>610.4</ele>
        <time>2021-04-17T15:19:21Z</time>
      </trkpt>
      <trkpt lat="46.13862" lon="6.22547">
        <ele>610.4</ele>
        <time>2021-04-17T15:19:22Z</time>
      </trkpt>
      <trkpt lat="46.13865" lon="6.22552">
        <ele>610.4</ele>
        <time>2021-04-17T15:19:23Z</time>
      </trkpt>
      <trkpt lat="46.13868" lon="6.22558">
        <ele>610.4</ele>
        <time>2021-04-17T15:19:24Z</time>
      </trkpt>
      <trkpt lat="46.1387" lon="6.22564">
        <ele>610.6</ele>
        <time>2021-04-17T15:19:25Z</time>
      </trkpt>
      <trkpt lat="46.13872" lon="6.22569">
        <ele>610.6</ele>
        <time>2021-04-17T15:19:26Z</time>
      </trkpt>
      <trkpt lat="46.13875" lon="6.22575">
        <ele>610.8</ele>
        <time>2021-04-17T15:19:27Z</time>
      </trkpt>
      <trkpt lat="46.13877" lon="6.2258">
        <ele>611</ele>
        <time>2021-04-17T15:19:28Z</time>
      </trkpt>
      <trkpt lat="46.13879" lon="6.22585">
        <ele>611</ele>
        <time>2021-04-17T15:19:29Z</time>
      </trkpt>
      <trkpt lat="46.13881" lon="6.22591">
        <ele>611</ele>
        <time>2021-04-17T15:19:30Z</time>
      </trkpt>
      <trkpt lat="46.13884" lon="6.22596">
        <ele>611.2</ele>
        <time>2021-04-17T15:19:31Z</time>
      </trkpt>
      <trkpt lat="46.13887" lon="6.22602">
        <ele>611.4</ele>
        <time>2021-04-17T15:19:32Z</time>
      </trkpt>
      <trkpt lat="46.13889" lon="6.22607">
        <ele>611.6</ele>
        <time>2021-04-17T15:19:33Z</time>
      </trkpt>
      <trkpt lat="46.13892" lon="6.22613">
        <ele>612.2</ele>
        <time>2021-04-17T15:19:34Z</time>
      </trkpt>
      <trkpt lat="46.13894" lon="6.22618">
        <ele>612.8</ele>
        <time>2021-04-17T15:19:35Z</time>
      </trkpt>
      <trkpt lat="46.13897" lon="6.22624">
        <ele>613</ele>
        <time>2021-04-17T15:19:36Z</time>
      </trkpt>
      <trkpt lat="46.13899" lon="6.22629">
        <ele>613.2</ele>
        <time>2021-04-17T15:19:37Z</time>
      </trkpt>
      <trkpt lat="46.13902" lon="6.22635">
        <ele>613.4</ele>
        <time>2021-04-17T15:19:38Z</time>
      </trkpt>
      <trkpt lat="46.13905" lon="6.2264">
        <ele>613.6</ele>
        <time>2021-04-17T15:19:39Z</time>
      </trkpt>
      <trkpt lat="46.13907" lon="6.22646">
        <ele>613.8</ele>
        <time>2021-04-17T15:19:40Z</time>
      </trkpt>
      <trkpt lat="46.1391" lon="6.22652">
        <ele>613.8</ele>
        <time>2021-04-17T15:19:41Z</time>
      </trkpt>
      <trkpt lat="46.13913" lon="6.22658">
        <ele>614.2</ele>
        <time>2021-04-17T15:19:42Z</time>
      </trkpt>
      <trkpt lat="46.13916" lon="6.22664">
        <ele>614.4</ele>
        <time>2021-04-17T15:19:43Z</time>
      </trkpt>
      <trkpt lat="46.13919" lon="6.2267">
        <ele>614.8</ele>
        <time>2021-04-17T15:19:44Z</time>
      </trkpt>
      <trkpt lat="46.13922" lon="6.22676">
        <ele>615</ele>
        <time>2021-04-17T15:19:45Z</time>
      </trkpt>
      <trkpt lat="46.13925" lon="6.22682">
        <ele>615.6</ele>
        <time>2021-04-17T15:19:46Z</time>
      </trkpt>
      <trkpt lat="46.13928" lon="6.22687">
        <ele>615.8</ele>
        <time>2021-04-17T15:19:47Z</time>
      </trkpt>
      <trkpt lat="46.13931" lon="6.22693">
        <ele>616</ele>
        <time>2021-04-17T15:19:48Z</time>
      </trkpt>
      <trkpt lat="46.13933" lon="6.22699">
        <ele>616.4</ele>
        <time>2021-04-17T15:19:49Z</time>
      </trkpt>
      <trkpt lat="46.13936" lon="6.22704">
        <ele>616.4</ele>
        <time>2021-04-17T15:19:50Z</time>
      </trkpt>
      <trkpt lat="46.13939" lon="6.2271">
        <ele>616.6</ele>
        <time>2021-04-17T15:19:51Z</time>
      </trkpt>
      <trkpt lat="46.13942" lon="6.22715">
        <ele>616.6</ele>
        <time>2021-04-17T15:19:52Z</time>
      </trkpt>
      <trkpt lat="46.13944" lon="6.22721">
        <ele>616.6</ele>
        <time>2021-04-17T15:19:53Z</time>
      </trkpt>
      <trkpt lat="46.13947" lon="6.22727">
        <ele>616.6</ele>
        <time>2021-04-17T15:19:54Z</time>
      </trkpt>
      <trkpt lat="46.1395" lon="6.22733">
        <ele>616.8</ele>
        <time>2021-04-17T15:19:55Z</time>
      </trkpt>
      <trkpt lat="46.13953" lon="6.22738">
        <ele>616.8</ele>
        <time>2021-04-17T15:19:56Z</time>
      </trkpt>
      <trkpt lat="46.13956" lon="6.22744">
        <ele>616.8</ele>
        <time>2021-04-17T15:19:57Z</time>
      </trkpt>
      <trkpt lat="46.13958" lon="6.22748">
        <ele>616.8</ele>
        <time>2021-04-17T15:19:58Z</time>
      </trkpt>
      <trkpt lat="46.13961" lon="6.22753">
        <ele>617</ele>
        <time>2021-04-17T15:19:59Z</time>
      </trkpt>
      <trkpt lat="46.13963" lon="6.22758">
        <ele>617</ele>
        <time>2021-04-17T15:20:00Z</time>
      </trkpt>
      <trkpt lat="46.13965" lon="6.22763">
        <ele>617</ele>
        <time>2021-04-17T15:20:01Z</time>
      </trkpt>
      <trkpt lat="46.13967" lon="6.22768">
        <ele>617</ele>
        <time>2021-04-17T15:20:02Z</time>
      </trkpt>
      <trkpt lat="46.13969" lon="6.22772">
        <ele>617.2</ele>
        <time>2021-04-17T15:20:03Z</time>
      </trkpt>
      <trkpt lat="46.13971" lon="6.22776">
        <ele>617</ele>
        <time>2021-04-17T15:20:04Z</time>
      </trkpt>
      <trkpt lat="46.13972" lon="6.22781">
        <ele>617.4</ele>
        <time>2021-04-17T15:20:05Z</time>
      </trkpt>
      <trkpt lat="46.13974" lon="6.22785">
        <ele>617.4</ele>
        <time>2021-04-17T15:20:06Z</time>
      </trkpt>
      <trkpt lat="46.13976" lon="6.22789">
        <ele>617.6</ele>
        <time>2021-04-17T15:20:07Z</time>
      </trkpt>
      <trkpt lat="46.13977" lon="6.22792">
        <ele>617.8</ele>
        <time>2021-04-17T15:20:08Z</time>
      </trkpt>
      <trkpt lat="46.13979" lon="6.22797">
        <ele>618.2</ele>
        <time>2021-04-17T15:20:09Z</time>
      </trkpt>
      <trkpt lat="46.1398" lon="6.22801">
        <ele>618.6</ele>
        <time>2021-04-17T15:20:10Z</time>
      </trkpt>
      <trkpt lat="46.13981" lon="6.22805">
        <ele>618.8</ele>
        <time>2021-04-17T15:20:11Z</time>
      </trkpt>
      <trkpt lat="46.13983" lon="6.2281">
        <ele>619</ele>
        <time>2021-04-17T15:20:12Z</time>
      </trkpt>
      <trkpt lat="46.13984" lon="6.22814">
        <ele>619.4</ele>
        <time>2021-04-17T15:20:13Z</time>
      </trkpt>
      <trkpt lat="46.13986" lon="6.22818">
        <ele>619.8</ele>
        <time>2021-04-17T15:20:14Z</time>
      </trkpt>
      <trkpt lat="46.13987" lon="6.22822">
        <ele>620.2</ele>
        <time>2021-04-17T15:20:15Z</time>
      </trkpt>
      <trkpt lat="46.13989" lon="6.22827">
        <ele>620.4</ele>
        <time>2021-04-17T15:20:16Z</time>
      </trkpt>
      <trkpt lat="46.1399" lon="6.2283">
        <ele>621.2</ele>
        <time>2021-04-17T15:20:17Z</time>
      </trkpt>
      <trkpt lat="46.13992" lon="6.22834">
        <ele>621.4</ele>
        <time>2021-04-17T15:20:18Z</time>
      </trkpt>
      <trkpt lat="46.13993" lon="6.22838">
        <ele>621.8</ele>
        <time>2021-04-17T15:20:19Z</time>
      </trkpt>
      <trkpt lat="46.13995" lon="6.22842">
        <ele>622</ele>
        <time>2021-04-17T15:20:20Z</time>
      </trkpt>
      <trkpt lat="46.13997" lon="6.22845">
        <ele>622.4</ele>
        <time>2021-04-17T15:20:21Z</time>
      </trkpt>
      <trkpt lat="46.13998" lon="6.22849">
        <ele>622.6</ele>
        <time>2021-04-17T15:20:22Z</time>
      </trkpt>
      <trkpt lat="46.14" lon="6.22852">
        <ele>623</ele>
        <time>2021-04-17T15:20:23Z</time>
      </trkpt>
      <trkpt lat="46.14002" lon="6.22856">
        <ele>623.4</ele>
        <time>2021-04-17T15:20:24Z</time>
      </trkpt>
      <trkpt lat="46.14004" lon="6.22859">
        <ele>623.8</ele>
        <time>2021-04-17T15:20:25Z</time>
      </trkpt>
      <trkpt lat="46.14006" lon="6.22863">
        <ele>624</ele>
        <time>2021-04-17T15:20:26Z</time>
      </trkpt>
      <trkpt lat="46.14008" lon="6.22866">
        <ele>624.6</ele>
        <time>2021-04-17T15:20:27Z</time>
      </trkpt>
      <trkpt lat="46.14009" lon="6.22869">
        <ele>624.8</ele>
        <time>2021-04-17T15:20:28Z</time>
      </trkpt>
      <trkpt lat="46.14011" lon="6.22872">
        <ele>625</ele>
        <time>2021-04-17T15:20:29Z</time>
      </trkpt>
      <trkpt lat="46.14013" lon="6.22876">
        <ele>625.4</ele>
        <time>2021-04-17T15:20:30Z</time>
      </trkpt>
      <trkpt lat="46.14015" lon="6.22879">
        <ele>625.6</ele>
        <time>2021-04-17T15:20:31Z</time>
      </trkpt>
      <trkpt lat="46.14016" lon="6.22882">
        <ele>626</ele>
        <time>2021-04-17T15:20:32Z</time>
      </trkpt>
      <trkpt lat="46.14017" lon="6.22885">
        <ele>626.4</ele>
        <time>2021-04-17T15:20:33Z</time>
      </trkpt>
      <trkpt lat="46.14019" lon="6.22888">
        <ele>626.4</ele>
        <time>2021-04-17T15:20:34Z</time>
      </trkpt>
      <trkpt lat="46.14022" lon="6.22892">
        <ele>626.6</ele>
        <time>2021-04-17T15:20:35Z</time>
      </trkpt>
      <trkpt lat="46.14024" lon="6.22895">
        <ele>626.8</ele>
        <time>2021-04-17T15:20:36Z</time>
      </trkpt>
      <trkpt lat="46.14026" lon="6.22897">
        <ele>627</ele>
        <time>2021-04-17T15:20:37Z</time>
      </trkpt>
      <trkpt lat="46.14029" lon="6.229">
        <ele>627.2</ele>
        <time>2021-04-17T15:20:38Z</time>
      </trkpt>
      <trkpt lat="46.14031" lon="6.22903">
        <ele>627.2</ele>
        <time>2021-04-17T15:20:39Z</time>
      </trkpt>
      <trkpt lat="46.14033" lon="6.22906">
        <ele>627.2</ele>
        <time>2021-04-17T15:20:40Z</time>
      </trkpt>
      <trkpt lat="46.14035" lon="6.22909">
        <ele>627.4</ele>
        <time>2021-04-17T15:20:41Z</time>
      </trkpt>
      <trkpt lat="46.14037" lon="6.22911">
        <ele>627.6</ele>
        <time>2021-04-17T15:20:42Z</time>
      </trkpt>
      <trkpt lat="46.14039" lon="6.22913">
        <ele>627.6</ele>
        <time>2021-04-17T15:20:43Z</time>
      </trkpt>
      <trkpt lat="46.14041" lon="6.22915">
        <ele>627.8</ele>
        <time>2021-04-17T15:20:44Z</time>
      </trkpt>
      <trkpt lat="46.14042" lon="6.22918">
        <ele>628.4</ele>
        <time>2021-04-17T15:20:45Z</time>
      </trkpt>
      <trkpt lat="46.14045" lon="6.22921">
        <ele>628.4</ele>
        <time>2021-04-17T15:20:46Z</time>
      </trkpt>
      <trkpt lat="46.14046" lon="6.22923">
        <ele>629</ele>
        <time>2021-04-17T15:20:47Z</time>
      </trkpt>
      <trkpt lat="46.14049" lon="6.22926">
        <ele>629.2</ele>
        <time>2021-04-17T15:20:48Z</time>
      </trkpt>
      <trkpt lat="46.14051" lon="6.22927">
        <ele>629.6</ele>
        <time>2021-04-17T15:20:49Z</time>
      </trkpt>
      <trkpt lat="46.14053" lon="6.22929">
        <ele>630</ele>
        <time>2021-04-17T15:20:50Z</time>
      </trkpt>
      <trkpt lat="46.14055" lon="6.22931">
        <ele>630.2</ele>
        <time>2021-04-17T15:20:51Z</time>
      </trkpt>
      <trkpt lat="46.14057" lon="6.22933">
        <ele>630.6</ele>
        <time>2021-04-17T15:20:52Z</time>
      </trkpt>
      <trkpt lat="46.1406" lon="6.22935">
        <ele>630.8</ele>
        <time>2021-04-17T15:20:53Z</time>
      </trkpt>
      <trkpt lat="46.14062" lon="6.22936">
        <ele>630.8</ele>
        <time>2021-04-17T15:20:54Z</time>
      </trkpt>
      <trkpt lat="46.14065" lon="6.22938">
        <ele>631.2</ele>
        <time>2021-04-17T15:20:55Z</time>
      </trkpt>
      <trkpt lat="46.14067" lon="6.2294">
        <ele>631.4</ele>
        <time>2021-04-17T15:20:56Z</time>
      </trkpt>
      <trkpt lat="46.14069" lon="6.22942">
        <ele>631.6</ele>
        <time>2021-04-17T15:20:57Z</time>
      </trkpt>
      <trkpt lat="46.14071" lon="6.22943">
        <ele>631.6</ele>
        <time>2021-04-17T15:20:58Z</time>
      </trkpt>
      <trkpt lat="46.14074" lon="6.22945">
        <ele>631.8</ele>
        <time>2021-04-17T15:20:59Z</time>
      </trkpt>
      <trkpt lat="46.14076" lon="6.22946">
        <ele>632.2</ele>
        <time>2021-04-17T15:21:00Z</time>
      </trkpt>
      <trkpt lat="46.14079" lon="6.22948">
        <ele>632.4</ele>
        <time>2021-04-17T15:21:01Z</time>
      </trkpt>
      <trkpt lat="46.14082" lon="6.2295">
        <ele>632.8</ele>
        <time>2021-04-17T15:21:02Z</time>
      </trkpt>
      <trkpt lat="46.14084" lon="6.22951">
        <ele>633</ele>
        <time>2021-04-17T15:21:03Z</time>
      </trkpt>
      <trkpt lat="46.14087" lon="6.22953">
        <ele>633.2</ele>
        <time>2021-04-17T15:21:04Z</time>
      </trkpt>
      <trkpt lat="46.1409" lon="6.22955">
        <ele>633.6</ele>
        <time>2021-04-17T15:21:05Z</time>
      </trkpt>
      <trkpt lat="46.14093" lon="6.22957">
        <ele>633.6</ele>
        <time>2021-04-17T15:21:06Z</time>
      </trkpt>
      <trkpt lat="46.14095" lon="6.22959">
        <ele>633.8</ele>
        <time>2021-04-17T15:21:07Z</time>
      </trkpt>
      <trkpt lat="46.14098" lon="6.2296">
        <ele>634</ele>
        <time>2021-04-17T15:21:08Z</time>
      </trkpt>
      <trkpt lat="46.14101" lon="6.22961">
        <ele>634.2</ele>
        <time>2021-04-17T15:21:09Z</time>
      </trkpt>
      <trkpt lat="46.14103" lon="6.22963">
        <ele>634.6</ele>
        <time>2021-04-17T15:21:10Z</time>
      </trkpt>
      <trkpt lat="46.14105" lon="6.22965">
        <ele>634.8</ele>
        <time>2021-04-17T15:21:11Z</time>
      </trkpt>
      <trkpt lat="46.14108" lon="6.22967">
        <ele>635</ele>
        <time>2021-04-17T15:21:12Z</time>
      </trkpt>
      <trkpt lat="46.14111" lon="6.22969">
        <ele>635</ele>
        <time>2021-04-17T15:21:13Z</time>
      </trkpt>
      <trkpt lat="46.14113" lon="6.2297">
        <ele>635.4</ele>
        <time>2021-04-17T15:21:14Z</time>
      </trkpt>
      <trkpt lat="46.14116" lon="6.22972">
        <ele>635.6</ele>
        <time>2021-04-17T15:21:15Z</time>
      </trkpt>
      <trkpt lat="46.14118" lon="6.22973">
        <ele>635.8</ele>
        <time>2021-04-17T15:21:16Z</time>
      </trkpt>
      <trkpt lat="46.14121" lon="6.22975">
        <ele>636</ele>
        <time>2021-04-17T15:21:17Z</time>
      </trkpt>
      <trkpt lat="46.14123" lon="6.22976">
        <ele>636.4</ele>
        <time>2021-04-17T15:21:18Z</time>
      </trkpt>
      <trkpt lat="46.14125" lon="6.22978">
        <ele>636.6</ele>
        <time>2021-04-17T15:21:19Z</time>
      </trkpt>
      <trkpt lat="46.14128" lon="6.22979">
        <ele>636.6</ele>
        <time>2021-04-17T15:21:20Z</time>
      </trkpt>
      <trkpt lat="46.14131" lon="6.22981">
        <ele>636.6</ele>
        <time>2021-04-17T15:21:21Z</time>
      </trkpt>
      <trkpt lat="46.14134" lon="6.22982">
        <ele>636.8</ele>
        <time>2021-04-17T15:21:22Z</time>
      </trkpt>
      <trkpt lat="46.14137" lon="6.22984">
        <ele>637</ele>
        <time>2021-04-17T15:21:23Z</time>
      </trkpt>
      <trkpt lat="46.1414" lon="6.22985">
        <ele>637</ele>
        <time>2021-04-17T15:21:24Z</time>
      </trkpt>
      <trkpt lat="46.14142" lon="6.22987">
        <ele>637.2</ele>
        <time>2021-04-17T15:21:25Z</time>
      </trkpt>
      <trkpt lat="46.14145" lon="6.22988">
        <ele>637.4</ele>
        <time>2021-04-17T15:21:26Z</time>
      </trkpt>
      <trkpt lat="46.14148" lon="6.22989">
        <ele>637.8</ele>
        <time>2021-04-17T15:21:27Z</time>
      </trkpt>
      <trkpt lat="46.1415" lon="6.22991">
        <ele>638</ele>
        <time>2021-04-17T15:21:28Z</time>
      </trkpt>
      <trkpt lat="46.14153" lon="6.22992">
        <ele>638.4</ele>
        <time>2021-04-17T15:21:29Z</time>
      </trkpt>
      <trkpt lat="46.14156" lon="6.22993">
        <ele>638.6</ele>
        <time>2021-04-17T15:21:30Z</time>
      </trkpt>
      <trkpt lat="46.14159" lon="6.22995">
        <ele>639</ele>
        <time>2021-04-17T15:21:31Z</time>
      </trkpt>
      <trkpt lat="46.14162" lon="6.22996">
        <ele>639.2</ele>
        <time>2021-04-17T15:21:32Z</time>
      </trkpt>
      <trkpt lat="46.14165" lon="6.22998">
        <ele>639.4</ele>
        <time>2021-04-17T15:21:33Z</time>
      </trkpt>
      <trkpt lat="46.14168" lon="6.22999">
        <ele>639.6</ele>
        <time>2021-04-17T15:21:34Z</time>
      </trkpt>
      <trkpt lat="46.1417" lon="6.23002">
        <ele>639.8</ele>
        <time>2021-04-17T15:21:35Z</time>
      </trkpt>
      <trkpt lat="46.14173" lon="6.23004">
        <ele>640</ele>
        <time>2021-04-17T15:21:36Z</time>
      </trkpt>
      <trkpt lat="46.14176" lon="6.23006">
        <ele>640.2</ele>
        <time>2021-04-17T15:21:37Z</time>
      </trkpt>
      <trkpt lat="46.14179" lon="6.23008">
        <ele>640.2</ele>
        <time>2021-04-17T15:21:38Z</time>
      </trkpt>
      <trkpt lat="46.14182" lon="6.2301">
        <ele>640.6</ele>
        <time>2021-04-17T15:21:39Z</time>
      </trkpt>
      <trkpt lat="46.14184" lon="6.23013">
        <ele>640.6</ele>
        <time>2021-04-17T15:21:40Z</time>
      </trkpt>
      <trkpt lat="46.14187" lon="6.23015">
        <ele>640.8</ele>
        <time>2021-04-17T15:21:41Z</time>
      </trkpt>
      <trkpt lat="46.1419" lon="6.23018">
        <ele>641</ele>
        <time>2021-04-17T15:21:42Z</time>
      </trkpt>
      <trkpt lat="46.14192" lon="6.23021">
        <ele>641.4</ele>
        <time>2021-04-17T15:21:43Z</time>
      </trkpt>
      <trkpt lat="46.14195" lon="6.23024">
        <ele>641.8</ele>
        <time>2021-04-17T15:21:44Z</time>
      </trkpt>
      <trkpt lat="46.14197" lon="6.23028">
        <ele>641.8</ele>
        <time>2021-04-17T15:21:45Z</time>
      </trkpt>
      <trkpt lat="46.14199" lon="6.23032">
        <ele>642</ele>
        <time>2021-04-17T15:21:46Z</time>
      </trkpt>
      <trkpt lat="46.14201" lon="6.23036">
        <ele>642</ele>
        <time>2021-04-17T15:21:47Z</time>
      </trkpt>
      <trkpt lat="46.14204" lon="6.2304">
        <ele>642.2</ele>
        <time>2021-04-17T15:21:48Z</time>
      </trkpt>
      <trkpt lat="46.14206" lon="6.23044">
        <ele>642</ele>
        <time>2021-04-17T15:21:49Z</time>
      </trkpt>
      <trkpt lat="46.14209" lon="6.23048">
        <ele>642.4</ele>
        <time>2021-04-17T15:21:50Z</time>
      </trkpt>
      <trkpt lat="46.14211" lon="6.23052">
        <ele>642.2</ele>
        <time>2021-04-17T15:21:51Z</time>
      </trkpt>
      <trkpt lat="46.14214" lon="6.23056">
        <ele>642.6</ele>
        <time>2021-04-17T15:21:52Z</time>
      </trkpt>
      <trkpt lat="46.14216" lon="6.23061">
        <ele>643</ele>
        <time>2021-04-17T15:21:53Z</time>
      </trkpt>
      <trkpt lat="46.14218" lon="6.23065">
        <ele>643.2</ele>
        <time>2021-04-17T15:21:54Z</time>
      </trkpt>
      <trkpt lat="46.14221" lon="6.2307">
        <ele>643</ele>
        <time>2021-04-17T15:21:55Z</time>
      </trkpt>
      <trkpt lat="46.14224" lon="6.23074">
        <ele>643.2</ele>
        <time>2021-04-17T15:21:56Z</time>
      </trkpt>
      <trkpt lat="46.14226" lon="6.23078">
        <ele>643.2</ele>
        <time>2021-04-17T15:21:57Z</time>
      </trkpt>
      <trkpt lat="46.1423" lon="6.23083">
        <ele>643.2</ele>
        <time>2021-04-17T15:21:58Z</time>
      </trkpt>
      <trkpt lat="46.14233" lon="6.23087">
        <ele>643.2</ele>
        <time>2021-04-17T15:21:59Z</time>
      </trkpt>
      <trkpt lat="46.14236" lon="6.23092">
        <ele>643.4</ele>
        <time>2021-04-17T15:22:00Z</time>
      </trkpt>
      <trkpt lat="46.14239" lon="6.23097">
        <ele>643.4</ele>
        <time>2021-04-17T15:22:01Z</time>
      </trkpt>
      <trkpt lat="46.14243" lon="6.23102">
        <ele>643.2</ele>
        <time>2021-04-17T15:22:02Z</time>
      </trkpt>
      <trkpt lat="46.14247" lon="6.23107">
        <ele>643.4</ele>
        <time>2021-04-17T15:22:03Z</time>
      </trkpt>
      <trkpt lat="46.1425" lon="6.23112">
        <ele>643.4</ele>
        <time>2021-04-17T15:22:04Z</time>
      </trkpt>
      <trkpt lat="46.14255" lon="6.23117">
        <ele>643.2</ele>
        <time>2021-04-17T15:22:05Z</time>
      </trkpt>
      <trkpt lat="46.14259" lon="6.23121">
        <ele>643.2</ele>
        <time>2021-04-17T15:22:06Z</time>
      </trkpt>
      <trkpt lat="46.14264" lon="6.23126">
        <ele>643</ele>
        <time>2021-04-17T15:22:07Z</time>
      </trkpt>
      <trkpt lat="46.14269" lon="6.23131">
        <ele>642.8</ele>
        <time>2021-04-17T15:22:08Z</time>
      </trkpt>
      <trkpt lat="46.14274" lon="6.23136">
        <ele>642.6</ele>
        <time>2021-04-17T15:22:09Z</time>
      </trkpt>
      <trkpt lat="46.14279" lon="6.23141">
        <ele>642.8</ele>
        <time>2021-04-17T15:22:10Z</time>
      </trkpt>
      <trkpt lat="46.14284" lon="6.23146">
        <ele>642.4</ele>
        <time>2021-04-17T15:22:11Z</time>
      </trkpt>
      <trkpt lat="46.14289" lon="6.2315">
        <ele>642.4</ele>
        <time>2021-04-17T15:22:12Z</time>
      </trkpt>
      <trkpt lat="46.14295" lon="6.23153">
        <ele>642.4</ele>
        <time>2021-04-17T15:22:13Z</time>
      </trkpt>
      <trkpt lat="46.143" lon="6.23157">
        <ele>642.4</ele>
        <time>2021-04-17T15:22:14Z</time>
      </trkpt>
      <trkpt lat="46.14305" lon="6.23161">
        <ele>642.2</ele>
        <time>2021-04-17T15:22:15Z</time>
      </trkpt>
      <trkpt lat="46.14311" lon="6.23165">
        <ele>642.2</ele>
        <time>2021-04-17T15:22:16Z</time>
      </trkpt>
      <trkpt lat="46.14316" lon="6.23169">
        <ele>642.2</ele>
        <time>2021-04-17T15:22:17Z</time>
      </trkpt>
      <trkpt lat="46.14322" lon="6.23172">
        <ele>642</ele>
        <time>2021-04-17T15:22:18Z</time>
      </trkpt>
      <trkpt lat="46.14328" lon="6.23176">
        <ele>641.4</ele>
        <time>2021-04-17T15:22:19Z</time>
      </trkpt>
      <trkpt lat="46.14333" lon="6.23179">
        <ele>641.2</ele>
        <time>2021-04-17T15:22:20Z</time>
      </trkpt>
      <trkpt lat="46.14339" lon="6.23183">
        <ele>641</ele>
        <time>2021-04-17T15:22:21Z</time>
      </trkpt>
      <trkpt lat="46.14345" lon="6.23186">
        <ele>640.8</ele>
        <time>2021-04-17T15:22:22Z</time>
      </trkpt>
      <trkpt lat="46.14351" lon="6.2319">
        <ele>640.6</ele>
        <time>2021-04-17T15:22:23Z</time>
      </trkpt>
      <trkpt lat="46.14357" lon="6.23194">
        <ele>640.4</ele>
        <time>2021-04-17T15:22:24Z</time>
      </trkpt>
      <trkpt lat="46.14364" lon="6.23198">
        <ele>640</ele>
        <time>2021-04-17T15:22:25Z</time>
      </trkpt>
      <trkpt lat="46.1437" lon="6.23202">
        <ele>640</ele>
        <time>2021-04-17T15:22:26Z</time>
      </trkpt>
      <trkpt lat="46.14376" lon="6.23206">
        <ele>639.4</ele>
        <time>2021-04-17T15:22:27Z</time>
      </trkpt>
      <trkpt lat="46.14382" lon="6.2321">
        <ele>639.2</ele>
        <time>2021-04-17T15:22:28Z</time>
      </trkpt>
      <trkpt lat="46.14389" lon="6.23214">
        <ele>638.8</ele>
        <time>2021-04-17T15:22:29Z</time>
      </trkpt>
      <trkpt lat="46.14395" lon="6.23218">
        <ele>638.4</ele>
        <time>2021-04-17T15:22:30Z</time>
      </trkpt>
      <trkpt lat="46.14401" lon="6.23222">
        <ele>638.4</ele>
        <time>2021-04-17T15:22:31Z</time>
      </trkpt>
      <trkpt lat="46.14407" lon="6.23227">
        <ele>638.2</ele>
        <time>2021-04-17T15:22:32Z</time>
      </trkpt>
      <trkpt lat="46.14413" lon="6.2323">
        <ele>638</ele>
        <time>2021-04-17T15:22:33Z</time>
      </trkpt>
      <trkpt lat="46.14418" lon="6.23234">
        <ele>638</ele>
        <time>2021-04-17T15:22:34Z</time>
      </trkpt>
      <trkpt lat="46.14423" lon="6.23238">
        <ele>638</ele>
        <time>2021-04-17T15:22:35Z</time>
      </trkpt>
      <trkpt lat="46.14429" lon="6.23241">
        <ele>637.8</ele>
        <time>2021-04-17T15:22:36Z</time>
      </trkpt>
      <trkpt lat="46.14434" lon="6.23244">
        <ele>637.8</ele>
        <time>2021-04-17T15:22:37Z</time>
      </trkpt>
      <trkpt lat="46.14438" lon="6.23249">
        <ele>637.6</ele>
        <time>2021-04-17T15:22:38Z</time>
      </trkpt>
      <trkpt lat="46.14442" lon="6.23254">
        <ele>637.8</ele>
        <time>2021-04-17T15:22:39Z</time>
      </trkpt>
      <trkpt lat="46.14444" lon="6.2326">
        <ele>637.8</ele>
        <time>2021-04-17T15:22:40Z</time>
      </trkpt>
      <trkpt lat="46.14444" lon="6.23267">
        <ele>637.6</ele>
        <time>2021-04-17T15:22:41Z</time>
      </trkpt>
      <trkpt lat="46.14444" lon="6.23273">
        <ele>637.8</ele>
        <time>2021-04-17T15:22:42Z</time>
      </trkpt>
      <trkpt lat="46.14444" lon="6.2328">
        <ele>637.8</ele>
        <time>2021-04-17T15:22:43Z</time>
      </trkpt>
      <trkpt lat="46.14444" lon="6.23286">
        <ele>637.6</ele>
        <time>2021-04-17T15:22:44Z</time>
      </trkpt>
      <trkpt lat="46.14443" lon="6.23292">
        <ele>637.8</ele>
        <time>2021-04-17T15:22:45Z</time>
      </trkpt>
      <trkpt lat="46.14443" lon="6.23298">
        <ele>637.8</ele>
        <time>2021-04-17T15:22:46Z</time>
      </trkpt>
      <trkpt lat="46.14442" lon="6.23305">
        <ele>638</ele>
        <time>2021-04-17T15:22:47Z</time>
      </trkpt>
      <trkpt lat="46.14442" lon="6.23311">
        <ele>638.6</ele>
        <time>2021-04-17T15:22:48Z</time>
      </trkpt>
      <trkpt lat="46.14442" lon="6.23317">
        <ele>639.4</ele>
        <time>2021-04-17T15:22:49Z</time>
      </trkpt>
      <trkpt lat="46.14442" lon="6.23323">
        <ele>640</ele>
        <time>2021-04-17T15:22:50Z</time>
      </trkpt>
      <trkpt lat="46.14442" lon="6.23329">
        <ele>640.8</ele>
        <time>2021-04-17T15:22:51Z</time>
      </trkpt>
      <trkpt lat="46.14442" lon="6.23336">
        <ele>641.4</ele>
        <time>2021-04-17T15:22:52Z</time>
      </trkpt>
      <trkpt lat="46.14442" lon="6.23342">
        <ele>641.8</ele>
        <time>2021-04-17T15:22:53Z</time>
      </trkpt>
      <trkpt lat="46.14442" lon="6.23348">
        <ele>642.4</ele>
        <time>2021-04-17T15:22:54Z</time>
      </trkpt>
      <trkpt lat="46.14441" lon="6.23354">
        <ele>643</ele>
        <time>2021-04-17T15:22:55Z</time>
      </trkpt>
      <trkpt lat="46.14441" lon="6.2336">
        <ele>643.6</ele>
        <time>2021-04-17T15:22:56Z</time>
      </trkpt>
      <trkpt lat="46.1444" lon="6.23366">
        <ele>644</ele>
        <time>2021-04-17T15:22:57Z</time>
      </trkpt>
      <trkpt lat="46.14439" lon="6.23371">
        <ele>644.6</ele>
        <time>2021-04-17T15:22:58Z</time>
      </trkpt>
      <trkpt lat="46.14439" lon="6.23377">
        <ele>645</ele>
        <time>2021-04-17T15:22:59Z</time>
      </trkpt>
      <trkpt lat="46.14439" lon="6.23382">
        <ele>645.4</ele>
        <time>2021-04-17T15:23:00Z</time>
      </trkpt>
      <trkpt lat="46.14439" lon="6.23389">
        <ele>645.8</ele>
        <time>2021-04-17T15:23:01Z</time>
      </trkpt>
      <trkpt lat="46.14439" lon="6.23395">
        <ele>646</ele>
        <time>2021-04-17T15:23:02Z</time>
      </trkpt>
      <trkpt lat="46.14439" lon="6.23402">
        <ele>646.2</ele>
        <time>2021-04-17T15:23:03Z</time>
      </trkpt>
      <trkpt lat="46.14439" lon="6.2341">
        <ele>646.4</ele>
        <time>2021-04-17T15:23:04Z</time>
      </trkpt>
      <trkpt lat="46.14438" lon="6.23418">
        <ele>646.6</ele>
        <time>2021-04-17T15:23:05Z</time>
      </trkpt>
      <trkpt lat="46.14438" lon="6.23425">
        <ele>646.8</ele>
        <time>2021-04-17T15:23:06Z</time>
      </trkpt>
      <trkpt lat="46.14437" lon="6.23434">
        <ele>646.8</ele>
        <time>2021-04-17T15:23:07Z</time>
      </trkpt>
      <trkpt lat="46.14437" lon="6.23442">
        <ele>646.8</ele>
        <time>2021-04-17T15:23:08Z</time>
      </trkpt>
      <trkpt lat="46.14435" lon="6.23452">
        <ele>646.8</ele>
        <time>2021-04-17T15:23:09Z</time>
      </trkpt>
      <trkpt lat="46.14434" lon="6.23461">
        <ele>646.8</ele>
        <time>2021-04-17T15:23:10Z</time>
      </trkpt>
      <trkpt lat="46.14432" lon="6.2347">
        <ele>646.8</ele>
        <time>2021-04-17T15:23:11Z</time>
      </trkpt>
      <trkpt lat="46.14429" lon="6.2348">
        <ele>646.8</ele>
        <time>2021-04-17T15:23:12Z</time>
      </trkpt>
      <trkpt lat="46.14425" lon="6.23489">
        <ele>646.6</ele>
        <time>2021-04-17T15:23:13Z</time>
      </trkpt>
      <trkpt lat="46.14419" lon="6.23498">
        <ele>646.8</ele>
        <time>2021-04-17T15:23:14Z</time>
      </trkpt>
      <trkpt lat="46.14414" lon="6.23508">
        <ele>646.6</ele>
        <time>2021-04-17T15:23:15Z</time>
      </trkpt>
      <trkpt lat="46.14409" lon="6.23519">
        <ele>646.4</ele>
        <time>2021-04-17T15:23:16Z</time>
      </trkpt>
      <trkpt lat="46.14404" lon="6.23531">
        <ele>645.8</ele>
        <time>2021-04-17T15:23:17Z</time>
      </trkpt>
      <trkpt lat="46.144" lon="6.23544">
        <ele>645.6</ele>
        <time>2021-04-17T15:23:18Z</time>
      </trkpt>
      <trkpt lat="46.14397" lon="6.23558">
        <ele>645</ele>
        <time>2021-04-17T15:23:19Z</time>
      </trkpt>
      <trkpt lat="46.14395" lon="6.23573">
        <ele>644.6</ele>
        <time>2021-04-17T15:23:20Z</time>
      </trkpt>
      <trkpt lat="46.14394" lon="6.23588">
        <ele>643.8</ele>
        <time>2021-04-17T15:23:21Z</time>
      </trkpt>
      <trkpt lat="46.14395" lon="6.23604">
        <ele>642.8</ele>
        <time>2021-04-17T15:23:22Z</time>
      </trkpt>
      <trkpt lat="46.14396" lon="6.2362">
        <ele>642</ele>
        <time>2021-04-17T15:23:23Z</time>
      </trkpt>
      <trkpt lat="46.14398" lon="6.23635">
        <ele>641</ele>
        <time>2021-04-17T15:23:24Z</time>
      </trkpt>
      <trkpt lat="46.144" lon="6.2365">
        <ele>639.8</ele>
        <time>2021-04-17T15:23:25Z</time>
      </trkpt>
      <trkpt lat="46.14403" lon="6.23664">
        <ele>639.2</ele>
        <time>2021-04-17T15:23:26Z</time>
      </trkpt>
      <trkpt lat="46.14405" lon="6.23676">
        <ele>638</ele>
        <time>2021-04-17T15:23:27Z</time>
      </trkpt>
      <trkpt lat="46.14408" lon="6.23688">
        <ele>636.8</ele>
        <time>2021-04-17T15:23:28Z</time>
      </trkpt>
      <trkpt lat="46.1441" lon="6.23699">
        <ele>636</ele>
        <time>2021-04-17T15:23:29Z</time>
      </trkpt>
      <trkpt lat="46.14413" lon="6.23711">
        <ele>634.8</ele>
        <time>2021-04-17T15:23:30Z</time>
      </trkpt>
      <trkpt lat="46.14414" lon="6.23723">
        <ele>633.2</ele>
        <time>2021-04-17T15:23:31Z</time>
      </trkpt>
      <trkpt lat="46.14414" lon="6.23734">
        <ele>632.2</ele>
        <time>2021-04-17T15:23:32Z</time>
      </trkpt>
      <trkpt lat="46.14413" lon="6.23746">
        <ele>631.4</ele>
        <time>2021-04-17T15:23:33Z</time>
      </trkpt>
      <trkpt lat="46.14409" lon="6.23757">
        <ele>630.4</ele>
        <time>2021-04-17T15:23:34Z</time>
      </trkpt>
      <trkpt lat="46.14403" lon="6.23766">
        <ele>629.4</ele>
        <time>2021-04-17T15:23:35Z</time>
      </trkpt>
      <trkpt lat="46.14397" lon="6.23774">
        <ele>628.6</ele>
        <time>2021-04-17T15:23:36Z</time>
      </trkpt>
      <trkpt lat="46.14391" lon="6.23782">
        <ele>628.2</ele>
        <time>2021-04-17T15:23:37Z</time>
      </trkpt>
      <trkpt lat="46.14384" lon="6.23788">
        <ele>628.2</ele>
        <time>2021-04-17T15:23:38Z</time>
      </trkpt>
      <trkpt lat="46.14377" lon="6.23794">
        <ele>628</ele>
        <time>2021-04-17T15:23:39Z</time>
      </trkpt>
      <trkpt lat="46.14369" lon="6.238">
        <ele>627.6</ele>
        <time>2021-04-17T15:23:40Z</time>
      </trkpt>
      <trkpt lat="46.14361" lon="6.23806">
        <ele>627.4</ele>
        <time>2021-04-17T15:23:41Z</time>
      </trkpt>
      <trkpt lat="46.14353" lon="6.23812">
        <ele>626.8</ele>
        <time>2021-04-17T15:23:42Z</time>
      </trkpt>
      <trkpt lat="46.14346" lon="6.23818">
        <ele>626.6</ele>
        <time>2021-04-17T15:23:43Z</time>
      </trkpt>
      <trkpt lat="46.14338" lon="6.23824">
        <ele>626.4</ele>
        <time>2021-04-17T15:23:44Z</time>
      </trkpt>
      <trkpt lat="46.14331" lon="6.23829">
        <ele>626</ele>
        <time>2021-04-17T15:23:45Z</time>
      </trkpt>
      <trkpt lat="46.14323" lon="6.23835">
        <ele>625.6</ele>
        <time>2021-04-17T15:23:46Z</time>
      </trkpt>
      <trkpt lat="46.14316" lon="6.2384">
        <ele>625.4</ele>
        <time>2021-04-17T15:23:47Z</time>
      </trkpt>
      <trkpt lat="46.14308" lon="6.23846">
        <ele>625.4</ele>
        <time>2021-04-17T15:23:48Z</time>
      </trkpt>
      <trkpt lat="46.143" lon="6.23852">
        <ele>625.2</ele>
        <time>2021-04-17T15:23:49Z</time>
      </trkpt>
      <trkpt lat="46.14292" lon="6.23857">
        <ele>625.2</ele>
        <time>2021-04-17T15:23:50Z</time>
      </trkpt>
      <trkpt lat="46.14284" lon="6.23862">
        <ele>625.2</ele>
        <time>2021-04-17T15:23:51Z</time>
      </trkpt>
      <trkpt lat="46.14276" lon="6.23863">
        <ele>625</ele>
        <time>2021-04-17T15:23:52Z</time>
      </trkpt>
      <trkpt lat="46.14268" lon="6.23861">
        <ele>625</ele>
        <time>2021-04-17T15:23:53Z</time>
      </trkpt>
      <trkpt lat="46.14261" lon="6.23857">
        <ele>625</ele>
        <time>2021-04-17T15:23:54Z</time>
      </trkpt>
      <trkpt lat="46.14255" lon="6.23852">
        <ele>625</ele>
        <time>2021-04-17T15:23:55Z</time>
      </trkpt>
      <trkpt lat="46.14248" lon="6.23848">
        <ele>625</ele>
        <time>2021-04-17T15:23:56Z</time>
      </trkpt>
      <trkpt lat="46.14241" lon="6.23842">
        <ele>625</ele>
        <time>2021-04-17T15:23:57Z</time>
      </trkpt>
      <trkpt lat="46.14234" lon="6.23838">
        <ele>625</ele>
        <time>2021-04-17T15:23:58Z</time>
      </trkpt>
      <trkpt lat="46.14227" lon="6.23834">
        <ele>625</ele>
        <time>2021-04-17T15:23:59Z</time>
      </trkpt>
      <trkpt lat="46.1422" lon="6.23832">
        <ele>625.2</ele>
        <time>2021-04-17T15:24:00Z</time>
      </trkpt>
      <trkpt lat="46.14213" lon="6.2383">
        <ele>625.2</ele>
        <time>2021-04-17T15:24:01Z</time>
      </trkpt>
      <trkpt lat="46.14207" lon="6.23828">
        <ele>625.2</ele>
        <time>2021-04-17T15:24:02Z</time>
      </trkpt>
      <trkpt lat="46.142" lon="6.23827">
        <ele>625.2</ele>
        <time>2021-04-17T15:24:03Z</time>
      </trkpt>
      <trkpt lat="46.14194" lon="6.23827">
        <ele>625.8</ele>
        <time>2021-04-17T15:24:04Z</time>
      </trkpt>
      <trkpt lat="46.14188" lon="6.23826">
        <ele>625.8</ele>
        <time>2021-04-17T15:24:05Z</time>
      </trkpt>
      <trkpt lat="46.14182" lon="6.23825">
        <ele>626.4</ele>
        <time>2021-04-17T15:24:06Z</time>
      </trkpt>
      <trkpt lat="46.14176" lon="6.23824">
        <ele>626.8</ele>
        <time>2021-04-17T15:24:07Z</time>
      </trkpt>
      <trkpt lat="46.1417" lon="6.23824">
        <ele>627</ele>
        <time>2021-04-17T15:24:08Z</time>
      </trkpt>
      <trkpt lat="46.14164" lon="6.23823">
        <ele>627.6</ele>
        <time>2021-04-17T15:24:09Z</time>
      </trkpt>
      <trkpt lat="46.14152" lon="6.2382">
        <ele>628</ele>
        <time>2021-04-17T15:24:11Z</time>
      </trkpt>
      <trkpt lat="46.14145" lon="6.23819">
        <ele>628.4</ele>
        <time>2021-04-17T15:24:12Z</time>
      </trkpt>
      <trkpt lat="46.14137" lon="6.23817">
        <ele>629</ele>
        <time>2021-04-17T15:24:13Z</time>
      </trkpt>
      <trkpt lat="46.14129" lon="6.23816">
        <ele>629.2</ele>
        <time>2021-04-17T15:24:14Z</time>
      </trkpt>
      <trkpt lat="46.14121" lon="6.23814">
        <ele>629.2</ele>
        <time>2021-04-17T15:24:15Z</time>
      </trkpt>
      <trkpt lat="46.14112" lon="6.23812">
        <ele>629.2</ele>
        <time>2021-04-17T15:24:16Z</time>
      </trkpt>
      <trkpt lat="46.14102" lon="6.23809">
        <ele>629.4</ele>
        <time>2021-04-17T15:24:17Z</time>
      </trkpt>
      <trkpt lat="46.14092" lon="6.23807">
        <ele>629.4</ele>
        <time>2021-04-17T15:24:18Z</time>
      </trkpt>
      <trkpt lat="46.14082" lon="6.23804">
        <ele>629.4</ele>
        <time>2021-04-17T15:24:19Z</time>
      </trkpt>
      <trkpt lat="46.14072" lon="6.23802">
        <ele>629.4</ele>
        <time>2021-04-17T15:24:20Z</time>
      </trkpt>
      <trkpt lat="46.14062" lon="6.23799">
        <ele>629.4</ele>
        <time>2021-04-17T15:24:21Z</time>
      </trkpt>
      <trkpt lat="46.14052" lon="6.23797">
        <ele>629.4</ele>
        <time>2021-04-17T15:24:22Z</time>
      </trkpt>
      <trkpt lat="46.14041" lon="6.23794">
        <ele>629</ele>
        <time>2021-04-17T15:24:23Z</time>
      </trkpt>
      <trkpt lat="46.14031" lon="6.23792">
        <ele>628.2</ele>
        <time>2021-04-17T15:24:24Z</time>
      </trkpt>
      <trkpt lat="46.14022" lon="6.2379">
        <ele>627.8</ele>
        <time>2021-04-17T15:24:25Z</time>
      </trkpt>
      <trkpt lat="46.14012" lon="6.23789">
        <ele>627.2</ele>
        <time>2021-04-17T15:24:26Z</time>
      </trkpt>
      <trkpt lat="46.14002" lon="6.23788">
        <ele>626.6</ele>
        <time>2021-04-17T15:24:27Z</time>
      </trkpt>
      <trkpt lat="46.13993" lon="6.23789">
        <ele>626</ele>
        <time>2021-04-17T15:24:28Z</time>
      </trkpt>
      <trkpt lat="46.13983" lon="6.23792">
        <ele>625.6</ele>
        <time>2021-04-17T15:24:29Z</time>
      </trkpt>
      <trkpt lat="46.13974" lon="6.23795">
        <ele>625.4</ele>
        <time>2021-04-17T15:24:30Z</time>
      </trkpt>
      <trkpt lat="46.13966" lon="6.23798">
        <ele>625.4</ele>
        <time>2021-04-17T15:24:31Z</time>
      </trkpt>
      <trkpt lat="46.13957" lon="6.23801">
        <ele>625.4</ele>
        <time>2021-04-17T15:24:32Z</time>
      </trkpt>
      <trkpt lat="46.13948" lon="6.23803">
        <ele>625.4</ele>
        <time>2021-04-17T15:24:33Z</time>
      </trkpt>
      <trkpt lat="46.13939" lon="6.23804">
        <ele>625.4</ele>
        <time>2021-04-17T15:24:34Z</time>
      </trkpt>
      <trkpt lat="46.13929" lon="6.23806">
        <ele>625.4</ele>
        <time>2021-04-17T15:24:35Z</time>
      </trkpt>
      <trkpt lat="46.1392" lon="6.23807">
        <ele>625.2</ele>
        <time>2021-04-17T15:24:36Z</time>
      </trkpt>
      <trkpt lat="46.1391" lon="6.23807">
        <ele>625.4</ele>
        <time>2021-04-17T15:24:37Z</time>
      </trkpt>
      <trkpt lat="46.139" lon="6.23807">
        <ele>625.4</ele>
        <time>2021-04-17T15:24:38Z</time>
      </trkpt>
      <trkpt lat="46.13891" lon="6.23807">
        <ele>625.4</ele>
        <time>2021-04-17T15:24:39Z</time>
      </trkpt>
      <trkpt lat="46.13881" lon="6.23807">
        <ele>625.4</ele>
        <time>2021-04-17T15:24:40Z</time>
      </trkpt>
      <trkpt lat="46.13872" lon="6.23806">
        <ele>625.4</ele>
        <time>2021-04-17T15:24:41Z</time>
      </trkpt>
      <trkpt lat="46.13862" lon="6.23805">
        <ele>625.6</ele>
        <time>2021-04-17T15:24:42Z</time>
      </trkpt>
      <trkpt lat="46.13853" lon="6.23805">
        <ele>625.8</ele>
        <time>2021-04-17T15:24:43Z</time>
      </trkpt>
      <trkpt lat="46.13843" lon="6.23805">
        <ele>625.6</ele>
        <time>2021-04-17T15:24:44Z</time>
      </trkpt>
      <trkpt lat="46.13833" lon="6.23806">
        <ele>625.8</ele>
        <time>2021-04-17T15:24:45Z</time>
      </trkpt>
      <trkpt lat="46.13823" lon="6.23808">
        <ele>625.8</ele>
        <time>2021-04-17T15:24:46Z</time>
      </trkpt>
      <trkpt lat="46.13813" lon="6.23811">
        <ele>625.8</ele>
        <time>2021-04-17T15:24:47Z</time>
      </trkpt>
      <trkpt lat="46.13803" lon="6.23814">
        <ele>625.8</ele>
        <time>2021-04-17T15:24:48Z</time>
      </trkpt>
      <trkpt lat="46.13792" lon="6.23817">
        <ele>625.8</ele>
        <time>2021-04-17T15:24:49Z</time>
      </trkpt>
      <trkpt lat="46.13782" lon="6.23819">
        <ele>625.8</ele>
        <time>2021-04-17T15:24:50Z</time>
      </trkpt>
      <trkpt lat="46.13772" lon="6.23822">
        <ele>625.6</ele>
        <time>2021-04-17T15:24:51Z</time>
      </trkpt>
      <trkpt lat="46.13762" lon="6.23824">
        <ele>625.6</ele>
        <time>2021-04-17T15:24:52Z</time>
      </trkpt>
      <trkpt lat="46.13752" lon="6.23825">
        <ele>625.4</ele>
        <time>2021-04-17T15:24:53Z</time>
      </trkpt>
      <trkpt lat="46.13742" lon="6.23826">
        <ele>625.4</ele>
        <time>2021-04-17T15:24:54Z</time>
      </trkpt>
      <trkpt lat="46.13733" lon="6.23825">
        <ele>625.2</ele>
        <time>2021-04-17T15:24:55Z</time>
      </trkpt>
      <trkpt lat="46.13723" lon="6.23825">
        <ele>625</ele>
        <time>2021-04-17T15:24:56Z</time>
      </trkpt>
      <trkpt lat="46.13714" lon="6.23824">
        <ele>625</ele>
        <time>2021-04-17T15:24:57Z</time>
      </trkpt>
      <trkpt lat="46.13705" lon="6.23823">
        <ele>625</ele>
        <time>2021-04-17T15:24:58Z</time>
      </trkpt>
      <trkpt lat="46.13696" lon="6.23822">
        <ele>625</ele>
        <time>2021-04-17T15:24:59Z</time>
      </trkpt>
      <trkpt lat="46.13688" lon="6.2382">
        <ele>625</ele>
        <time>2021-04-17T15:25:00Z</time>
      </trkpt>
      <trkpt lat="46.13679" lon="6.23818">
        <ele>625</ele>
        <time>2021-04-17T15:25:01Z</time>
      </trkpt>
      <trkpt lat="46.13671" lon="6.23815">
        <ele>625</ele>
        <time>2021-04-17T15:25:02Z</time>
      </trkpt>
      <trkpt lat="46.13662" lon="6.23812">
        <ele>625</ele>
        <time>2021-04-17T15:25:03Z</time>
      </trkpt>
      <trkpt lat="46.13654" lon="6.2381">
        <ele>625</ele>
        <time>2021-04-17T15:25:04Z</time>
      </trkpt>
      <trkpt lat="46.13645" lon="6.23807">
        <ele>625.2</ele>
        <time>2021-04-17T15:25:05Z</time>
      </trkpt>
      <trkpt lat="46.13637" lon="6.23805">
        <ele>625.6</ele>
        <time>2021-04-17T15:25:06Z</time>
      </trkpt>
      <trkpt lat="46.13629" lon="6.23802">
        <ele>626</ele>
        <time>2021-04-17T15:25:07Z</time>
      </trkpt>
      <trkpt lat="46.1362" lon="6.238">
        <ele>626.2</ele>
        <time>2021-04-17T15:25:08Z</time>
      </trkpt>
      <trkpt lat="46.13612" lon="6.23798">
        <ele>626.2</ele>
        <time>2021-04-17T15:25:09Z</time>
      </trkpt>
      <trkpt lat="46.13604" lon="6.23795">
        <ele>626.2</ele>
        <time>2021-04-17T15:25:10Z</time>
      </trkpt>
      <trkpt lat="46.13595" lon="6.23793">
        <ele>626.2</ele>
        <time>2021-04-17T15:25:11Z</time>
      </trkpt>
      <trkpt lat="46.13587" lon="6.2379">
        <ele>626.2</ele>
        <time>2021-04-17T15:25:12Z</time>
      </trkpt>
      <trkpt lat="46.13579" lon="6.23787">
        <ele>626.4</ele>
        <time>2021-04-17T15:25:13Z</time>
      </trkpt>
      <trkpt lat="46.13571" lon="6.23783">
        <ele>626.6</ele>
        <time>2021-04-17T15:25:14Z</time>
      </trkpt>
      <trkpt lat="46.13564" lon="6.23779">
        <ele>626.6</ele>
        <time>2021-04-17T15:25:15Z</time>
      </trkpt>
      <trkpt lat="46.13557" lon="6.23774">
        <ele>626.6</ele>
        <time>2021-04-17T15:25:16Z</time>
      </trkpt>
      <trkpt lat="46.1355" lon="6.2377">
        <ele>626.8</ele>
        <time>2021-04-17T15:25:17Z</time>
      </trkpt>
      <trkpt lat="46.13543" lon="6.23765">
        <ele>626.8</ele>
        <time>2021-04-17T15:25:18Z</time>
      </trkpt>
      <trkpt lat="46.13537" lon="6.2376">
        <ele>626.8</ele>
        <time>2021-04-17T15:25:19Z</time>
      </trkpt>
      <trkpt lat="46.1353" lon="6.23756">
        <ele>626.8</ele>
        <time>2021-04-17T15:25:20Z</time>
      </trkpt>
      <trkpt lat="46.13524" lon="6.23752">
        <ele>627.2</ele>
        <time>2021-04-17T15:25:21Z</time>
      </trkpt>
      <trkpt lat="46.13519" lon="6.23747">
        <ele>627.2</ele>
        <time>2021-04-17T15:25:22Z</time>
      </trkpt>
      <trkpt lat="46.13513" lon="6.23743">
        <ele>627.4</ele>
        <time>2021-04-17T15:25:23Z</time>
      </trkpt>
      <trkpt lat="46.13508" lon="6.23739">
        <ele>627.6</ele>
        <time>2021-04-17T15:25:24Z</time>
      </trkpt>
      <trkpt lat="46.13502" lon="6.23736">
        <ele>627.6</ele>
        <time>2021-04-17T15:25:25Z</time>
      </trkpt>
      <trkpt lat="46.13497" lon="6.23733">
        <ele>628.2</ele>
        <time>2021-04-17T15:25:26Z</time>
      </trkpt>
      <trkpt lat="46.13492" lon="6.2373">
        <ele>628.8</ele>
        <time>2021-04-17T15:25:27Z</time>
      </trkpt>
      <trkpt lat="46.13487" lon="6.23727">
        <ele>629</ele>
        <time>2021-04-17T15:25:28Z</time>
      </trkpt>
      <trkpt lat="46.13482" lon="6.23724">
        <ele>629.4</ele>
        <time>2021-04-17T15:25:29Z</time>
      </trkpt>
      <trkpt lat="46.13477" lon="6.23722">
        <ele>629.6</ele>
        <time>2021-04-17T15:25:30Z</time>
      </trkpt>
      <trkpt lat="46.13472" lon="6.2372">
        <ele>630.4</ele>
        <time>2021-04-17T15:25:31Z</time>
      </trkpt>
      <trkpt lat="46.13468" lon="6.23719">
        <ele>630.6</ele>
        <time>2021-04-17T15:25:32Z</time>
      </trkpt>
      <trkpt lat="46.13464" lon="6.23718">
        <ele>631</ele>
        <time>2021-04-17T15:25:33Z</time>
      </trkpt>
      <trkpt lat="46.13459" lon="6.23718">
        <ele>631.4</ele>
        <time>2021-04-17T15:25:34Z</time>
      </trkpt>
      <trkpt lat="46.13455" lon="6.23718">
        <ele>631.6</ele>
        <time>2021-04-17T15:25:35Z</time>
      </trkpt>
      <trkpt lat="46.13451" lon="6.23717">
        <ele>631.8</ele>
        <time>2021-04-17T15:25:36Z</time>
      </trkpt>
      <trkpt lat="46.13446" lon="6.23717">
        <ele>632.2</ele>
        <time>2021-04-17T15:25:37Z</time>
      </trkpt>
      <trkpt lat="46.13442" lon="6.23717">
        <ele>632.6</ele>
        <time>2021-04-17T15:25:38Z</time>
      </trkpt>
      <trkpt lat="46.13438" lon="6.23716">
        <ele>633.4</ele>
        <time>2021-04-17T15:25:39Z</time>
      </trkpt>
      <trkpt lat="46.13433" lon="6.23716">
        <ele>633.6</ele>
        <time>2021-04-17T15:25:40Z</time>
      </trkpt>
      <trkpt lat="46.13429" lon="6.23715">
        <ele>634.2</ele>
        <time>2021-04-17T15:25:41Z</time>
      </trkpt>
      <trkpt lat="46.13425" lon="6.23715">
        <ele>634.6</ele>
        <time>2021-04-17T15:25:42Z</time>
      </trkpt>
      <trkpt lat="46.1342" lon="6.23714">
        <ele>634.8</ele>
        <time>2021-04-17T15:25:43Z</time>
      </trkpt>
      <trkpt lat="46.13416" lon="6.23713">
        <ele>635</ele>
        <time>2021-04-17T15:25:44Z</time>
      </trkpt>
      <trkpt lat="46.13411" lon="6.23712">
        <ele>635.4</ele>
        <time>2021-04-17T15:25:45Z</time>
      </trkpt>
      <trkpt lat="46.13407" lon="6.23712">
        <ele>635.8</ele>
        <time>2021-04-17T15:25:46Z</time>
      </trkpt>
      <trkpt lat="46.13402" lon="6.23711">
        <ele>636.4</ele>
        <time>2021-04-17T15:25:47Z</time>
      </trkpt>
      <trkpt lat="46.13397" lon="6.2371">
        <ele>636.6</ele>
        <time>2021-04-17T15:25:48Z</time>
      </trkpt>
      <trkpt lat="46.13392" lon="6.2371">
        <ele>636.8</ele>
        <time>2021-04-17T15:25:49Z</time>
      </trkpt>
      <trkpt lat="46.13388" lon="6.23709">
        <ele>636.8</ele>
        <time>2021-04-17T15:25:50Z</time>
      </trkpt>
      <trkpt lat="46.13383" lon="6.23708">
        <ele>637.2</ele>
        <time>2021-04-17T15:25:51Z</time>
      </trkpt>
      <trkpt lat="46.13378" lon="6.23708">
        <ele>637.6</ele>
        <time>2021-04-17T15:25:52Z</time>
      </trkpt>
      <trkpt lat="46.13373" lon="6.23707">
        <ele>637.6</ele>
        <time>2021-04-17T15:25:53Z</time>
      </trkpt>
      <trkpt lat="46.13368" lon="6.23707">
        <ele>637.8</ele>
        <time>2021-04-17T15:25:54Z</time>
      </trkpt>
      <trkpt lat="46.13363" lon="6.23707">
        <ele>638.2</ele>
        <time>2021-04-17T15:25:55Z</time>
      </trkpt>
      <trkpt lat="46.13359" lon="6.23707">
        <ele>638.4</ele>
        <time>2021-04-17T15:25:56Z</time>
      </trkpt>
      <trkpt lat="46.13354" lon="6.23707">
        <ele>638.4</ele>
        <time>2021-04-17T15:25:57Z</time>
      </trkpt>
      <trkpt lat="46.13348" lon="6.23708">
        <ele>638.6</ele>
        <time>2021-04-17T15:25:58Z</time>
      </trkpt>
      <trkpt lat="46.13343" lon="6.23708">
        <ele>638.8</ele>
        <time>2021-04-17T15:25:59Z</time>
      </trkpt>
      <trkpt lat="46.13338" lon="6.23708">
        <ele>639</ele>
        <time>2021-04-17T15:26:00Z</time>
      </trkpt>
      <trkpt lat="46.13333" lon="6.23708">
        <ele>639.2</ele>
        <time>2021-04-17T15:26:01Z</time>
      </trkpt>
      <trkpt lat="46.13328" lon="6.23709">
        <ele>639.4</ele>
        <time>2021-04-17T15:26:02Z</time>
      </trkpt>
      <trkpt lat="46.13323" lon="6.23709">
        <ele>639.6</ele>
        <time>2021-04-17T15:26:03Z</time>
      </trkpt>
      <trkpt lat="46.13319" lon="6.23709">
        <ele>639.8</ele>
        <time>2021-04-17T15:26:04Z</time>
      </trkpt>
      <trkpt lat="46.13314" lon="6.23709">
        <ele>640</ele>
        <time>2021-04-17T15:26:05Z</time>
      </trkpt>
      <trkpt lat="46.13309" lon="6.2371">
        <ele>640.4</ele>
        <time>2021-04-17T15:26:06Z</time>
      </trkpt>
      <trkpt lat="46.13303" lon="6.23709">
        <ele>640.4</ele>
        <time>2021-04-17T15:26:07Z</time>
      </trkpt>
      <trkpt lat="46.13298" lon="6.23709">
        <ele>640.4</ele>
        <time>2021-04-17T15:26:08Z</time>
      </trkpt>
      <trkpt lat="46.13294" lon="6.23708">
        <ele>640.6</ele>
        <time>2021-04-17T15:26:09Z</time>
      </trkpt>
      <trkpt lat="46.13289" lon="6.23708">
        <ele>640.6</ele>
        <time>2021-04-17T15:26:10Z</time>
      </trkpt>
      <trkpt lat="46.13284" lon="6.23707">
        <ele>640.8</ele>
        <time>2021-04-17T15:26:11Z</time>
      </trkpt>
      <trkpt lat="46.1328" lon="6.23705">
        <ele>641.2</ele>
        <time>2021-04-17T15:26:12Z</time>
      </trkpt>
      <trkpt lat="46.13276" lon="6.23704">
        <ele>641.2</ele>
        <time>2021-04-17T15:26:13Z</time>
      </trkpt>
      <trkpt lat="46.13272" lon="6.23703">
        <ele>641.4</ele>
        <time>2021-04-17T15:26:14Z</time>
      </trkpt>
      <trkpt lat="46.13268" lon="6.23702">
        <ele>641.6</ele>
        <time>2021-04-17T15:26:15Z</time>
      </trkpt>
      <trkpt lat="46.13264" lon="6.23701">
        <ele>641.6</ele>
        <time>2021-04-17T15:26:16Z</time>
      </trkpt>
      <trkpt lat="46.1326" lon="6.23699">
        <ele>641.8</ele>
        <time>2021-04-17T15:26:17Z</time>
      </trkpt>
      <trkpt lat="46.13256" lon="6.23698">
        <ele>642</ele>
        <time>2021-04-17T15:26:18Z</time>
      </trkpt>
      <trkpt lat="46.13252" lon="6.23696">
        <ele>642.2</ele>
        <time>2021-04-17T15:26:19Z</time>
      </trkpt>
      <trkpt lat="46.13248" lon="6.23694">
        <ele>642.6</ele>
        <time>2021-04-17T15:26:20Z</time>
      </trkpt>
      <trkpt lat="46.13244" lon="6.23693">
        <ele>643</ele>
        <time>2021-04-17T15:26:21Z</time>
      </trkpt>
      <trkpt lat="46.1324" lon="6.23691">
        <ele>643.2</ele>
        <time>2021-04-17T15:26:22Z</time>
      </trkpt>
      <trkpt lat="46.13236" lon="6.2369">
        <ele>643.6</ele>
        <time>2021-04-17T15:26:23Z</time>
      </trkpt>
      <trkpt lat="46.13232" lon="6.23689">
        <ele>643.8</ele>
        <time>2021-04-17T15:26:24Z</time>
      </trkpt>
      <trkpt lat="46.13227" lon="6.23687">
        <ele>644.4</ele>
        <time>2021-04-17T15:26:25Z</time>
      </trkpt>
      <trkpt lat="46.13223" lon="6.23686">
        <ele>644.8</ele>
        <time>2021-04-17T15:26:26Z</time>
      </trkpt>
      <trkpt lat="46.13219" lon="6.23684">
        <ele>645</ele>
        <time>2021-04-17T15:26:27Z</time>
      </trkpt>
      <trkpt lat="46.13215" lon="6.23684">
        <ele>645.2</ele>
        <time>2021-04-17T15:26:28Z</time>
      </trkpt>
      <trkpt lat="46.13211" lon="6.23683">
        <ele>645.6</ele>
        <time>2021-04-17T15:26:29Z</time>
      </trkpt>
      <trkpt lat="46.13207" lon="6.23681">
        <ele>646.4</ele>
        <time>2021-04-17T15:26:30Z</time>
      </trkpt>
      <trkpt lat="46.13204" lon="6.2368">
        <ele>646.8</ele>
        <time>2021-04-17T15:26:31Z</time>
      </trkpt>
      <trkpt lat="46.132" lon="6.23679">
        <ele>647.2</ele>
        <time>2021-04-17T15:26:32Z</time>
      </trkpt>
      <trkpt lat="46.13196" lon="6.23678">
        <ele>647.6</ele>
        <time>2021-04-17T15:26:33Z</time>
      </trkpt>
      <trkpt lat="46.13191" lon="6.23677">
        <ele>647.8</ele>
        <time>2021-04-17T15:26:34Z</time>
      </trkpt>
      <trkpt lat="46.13187" lon="6.23676">
        <ele>648.2</ele>
        <time>2021-04-17T15:26:35Z</time>
      </trkpt>
      <trkpt lat="46.13183" lon="6.23676">
        <ele>648</ele>
        <time>2021-04-17T15:26:36Z</time>
      </trkpt>
      <trkpt lat="46.13178" lon="6.23677">
        <ele>648.2</ele>
        <time>2021-04-17T15:26:37Z</time>
      </trkpt>
      <trkpt lat="46.13174" lon="6.23677">
        <ele>648.4</ele>
        <time>2021-04-17T15:26:38Z</time>
      </trkpt>
      <trkpt lat="46.1317" lon="6.23677">
        <ele>648.6</ele>
        <time>2021-04-17T15:26:39Z</time>
      </trkpt>
      <trkpt lat="46.13166" lon="6.23678">
        <ele>649</ele>
        <time>2021-04-17T15:26:40Z</time>
      </trkpt>
      <trkpt lat="46.13163" lon="6.23679">
        <ele>649.2</ele>
        <time>2021-04-17T15:26:41Z</time>
      </trkpt>
      <trkpt lat="46.13159" lon="6.23679">
        <ele>649.2</ele>
        <time>2021-04-17T15:26:42Z</time>
      </trkpt>
      <trkpt lat="46.13155" lon="6.23679">
        <ele>649.2</ele>
        <time>2021-04-17T15:26:43Z</time>
      </trkpt>
      <trkpt lat="46.13152" lon="6.23679">
        <ele>649.4</ele>
        <time>2021-04-17T15:26:44Z</time>
      </trkpt>
      <trkpt lat="46.13149" lon="6.23679">
        <ele>649.6</ele>
        <time>2021-04-17T15:26:45Z</time>
      </trkpt>
      <trkpt lat="46.13145" lon="6.23679">
        <ele>649.8</ele>
        <time>2021-04-17T15:26:46Z</time>
      </trkpt>
      <trkpt lat="46.13142" lon="6.23678">
        <ele>650</ele>
        <time>2021-04-17T15:26:47Z</time>
      </trkpt>
      <trkpt lat="46.13139" lon="6.23678">
        <ele>650</ele>
        <time>2021-04-17T15:26:48Z</time>
      </trkpt>
      <trkpt lat="46.13135" lon="6.23677">
        <ele>650.2</ele>
        <time>2021-04-17T15:26:49Z</time>
      </trkpt>
      <trkpt lat="46.13132" lon="6.23677">
        <ele>650.6</ele>
        <time>2021-04-17T15:26:50Z</time>
      </trkpt>
      <trkpt lat="46.13129" lon="6.23676">
        <ele>650.6</ele>
        <time>2021-04-17T15:26:51Z</time>
      </trkpt>
      <trkpt lat="46.13125" lon="6.23675">
        <ele>651</ele>
        <time>2021-04-17T15:26:52Z</time>
      </trkpt>
      <trkpt lat="46.13122" lon="6.23674">
        <ele>651.4</ele>
        <time>2021-04-17T15:26:53Z</time>
      </trkpt>
      <trkpt lat="46.13119" lon="6.23672">
        <ele>651.8</ele>
        <time>2021-04-17T15:26:54Z</time>
      </trkpt>
      <trkpt lat="46.13116" lon="6.23671">
        <ele>652.2</ele>
        <time>2021-04-17T15:26:55Z</time>
      </trkpt>
      <trkpt lat="46.13112" lon="6.2367">
        <ele>652.4</ele>
        <time>2021-04-17T15:26:56Z</time>
      </trkpt>
      <trkpt lat="46.13109" lon="6.23669">
        <ele>652.8</ele>
        <time>2021-04-17T15:26:57Z</time>
      </trkpt>
      <trkpt lat="46.13106" lon="6.23669">
        <ele>653</ele>
        <time>2021-04-17T15:26:58Z</time>
      </trkpt>
      <trkpt lat="46.13102" lon="6.23668">
        <ele>653.4</ele>
        <time>2021-04-17T15:26:59Z</time>
      </trkpt>
      <trkpt lat="46.13099" lon="6.23668">
        <ele>653.6</ele>
        <time>2021-04-17T15:27:00Z</time>
      </trkpt>
      <trkpt lat="46.13095" lon="6.23667">
        <ele>654</ele>
        <time>2021-04-17T15:27:01Z</time>
      </trkpt>
      <trkpt lat="46.13092" lon="6.23667">
        <ele>654.2</ele>
        <time>2021-04-17T15:27:02Z</time>
      </trkpt>
      <trkpt lat="46.13089" lon="6.23666">
        <ele>654.6</ele>
        <time>2021-04-17T15:27:03Z</time>
      </trkpt>
      <trkpt lat="46.13085" lon="6.23666">
        <ele>654.8</ele>
        <time>2021-04-17T15:27:04Z</time>
      </trkpt>
      <trkpt lat="46.13082" lon="6.23666">
        <ele>655.2</ele>
        <time>2021-04-17T15:27:05Z</time>
      </trkpt>
      <trkpt lat="46.13079" lon="6.23666">
        <ele>655.4</ele>
        <time>2021-04-17T15:27:06Z</time>
      </trkpt>
      <trkpt lat="46.13075" lon="6.23666">
        <ele>655.8</ele>
        <time>2021-04-17T15:27:07Z</time>
      </trkpt>
      <trkpt lat="46.13072" lon="6.23666">
        <ele>655.8</ele>
        <time>2021-04-17T15:27:08Z</time>
      </trkpt>
      <trkpt lat="46.13068" lon="6.23665">
        <ele>656.2</ele>
        <time>2021-04-17T15:27:09Z</time>
      </trkpt>
      <trkpt lat="46.13065" lon="6.23665">
        <ele>656.6</ele>
        <time>2021-04-17T15:27:10Z</time>
      </trkpt>
      <trkpt lat="46.13062" lon="6.23665">
        <ele>656.8</ele>
        <time>2021-04-17T15:27:11Z</time>
      </trkpt>
      <trkpt lat="46.13058" lon="6.23665">
        <ele>657</ele>
        <time>2021-04-17T15:27:12Z</time>
      </trkpt>
      <trkpt lat="46.13055" lon="6.23664">
        <ele>657.4</ele>
        <time>2021-04-17T15:27:13Z</time>
      </trkpt>
      <trkpt lat="46.13051" lon="6.23664">
        <ele>657.6</ele>
        <time>2021-04-17T15:27:14Z</time>
      </trkpt>
      <trkpt lat="46.13048" lon="6.23663">
        <ele>658</ele>
        <time>2021-04-17T15:27:15Z</time>
      </trkpt>
      <trkpt lat="46.13045" lon="6.23664">
        <ele>658.2</ele>
        <time>2021-04-17T15:27:16Z</time>
      </trkpt>
      <trkpt lat="46.13041" lon="6.23665">
        <ele>658.4</ele>
        <time>2021-04-17T15:27:17Z</time>
      </trkpt>
      <trkpt lat="46.13038" lon="6.23666">
        <ele>658.6</ele>
        <time>2021-04-17T15:27:18Z</time>
      </trkpt>
      <trkpt lat="46.13034" lon="6.23668">
        <ele>659</ele>
        <time>2021-04-17T15:27:19Z</time>
      </trkpt>
      <trkpt lat="46.1303" lon="6.2367">
        <ele>659.4</ele>
        <time>2021-04-17T15:27:20Z</time>
      </trkpt>
      <trkpt lat="46.13026" lon="6.23671">
        <ele>659.8</ele>
        <time>2021-04-17T15:27:21Z</time>
      </trkpt>
      <trkpt lat="46.13022" lon="6.23671">
        <ele>660</ele>
        <time>2021-04-17T15:27:22Z</time>
      </trkpt>
      <trkpt lat="46.13017" lon="6.23671">
        <ele>660</ele>
        <time>2021-04-17T15:27:23Z</time>
      </trkpt>
      <trkpt lat="46.13013" lon="6.23672">
        <ele>660.2</ele>
        <time>2021-04-17T15:27:24Z</time>
      </trkpt>
      <trkpt lat="46.13009" lon="6.23672">
        <ele>660.2</ele>
        <time>2021-04-17T15:27:25Z</time>
      </trkpt>
      <trkpt lat="46.13005" lon="6.23671">
        <ele>660.2</ele>
        <time>2021-04-17T15:27:26Z</time>
      </trkpt>
      <trkpt lat="46.13" lon="6.23671">
        <ele>660.2</ele>
        <time>2021-04-17T15:27:27Z</time>
      </trkpt>
      <trkpt lat="46.12996" lon="6.2367">
        <ele>660.2</ele>
        <time>2021-04-17T15:27:28Z</time>
      </trkpt>
      <trkpt lat="46.12991" lon="6.2367">
        <ele>660.2</ele>
        <time>2021-04-17T15:27:29Z</time>
      </trkpt>
      <trkpt lat="46.12986" lon="6.2367">
        <ele>660.2</ele>
        <time>2021-04-17T15:27:30Z</time>
      </trkpt>
      <trkpt lat="46.12982" lon="6.23669">
        <ele>660.2</ele>
        <time>2021-04-17T15:27:31Z</time>
      </trkpt>
      <trkpt lat="46.12978" lon="6.23667">
        <ele>660.4</ele>
        <time>2021-04-17T15:27:32Z</time>
      </trkpt>
      <trkpt lat="46.12973" lon="6.23666">
        <ele>660.2</ele>
        <time>2021-04-17T15:27:33Z</time>
      </trkpt>
      <trkpt lat="46.12968" lon="6.23665">
        <ele>660.2</ele>
        <time>2021-04-17T15:27:34Z</time>
      </trkpt>
      <trkpt lat="46.12964" lon="6.23664">
        <ele>660.2</ele>
        <time>2021-04-17T15:27:35Z</time>
      </trkpt>
      <trkpt lat="46.12959" lon="6.23663">
        <ele>660.2</ele>
        <time>2021-04-17T15:27:36Z</time>
      </trkpt>
      <trkpt lat="46.12954" lon="6.23661">
        <ele>660.2</ele>
        <time>2021-04-17T15:27:37Z</time>
      </trkpt>
      <trkpt lat="46.12949" lon="6.2366">
        <ele>660</ele>
        <time>2021-04-17T15:27:38Z</time>
      </trkpt>
      <trkpt lat="46.12945" lon="6.23659">
        <ele>660</ele>
        <time>2021-04-17T15:27:39Z</time>
      </trkpt>
      <trkpt lat="46.1294" lon="6.23659">
        <ele>660.2</ele>
        <time>2021-04-17T15:27:40Z</time>
      </trkpt>
      <trkpt lat="46.12935" lon="6.23658">
        <ele>660</ele>
        <time>2021-04-17T15:27:41Z</time>
      </trkpt>
      <trkpt lat="46.12931" lon="6.23657">
        <ele>660.2</ele>
        <time>2021-04-17T15:27:42Z</time>
      </trkpt>
      <trkpt lat="46.12926" lon="6.23657">
        <ele>660.2</ele>
        <time>2021-04-17T15:27:43Z</time>
      </trkpt>
      <trkpt lat="46.12921" lon="6.23657">
        <ele>660.2</ele>
        <time>2021-04-17T15:27:44Z</time>
      </trkpt>
      <trkpt lat="46.12917" lon="6.23657">
        <ele>660.2</ele>
        <time>2021-04-17T15:27:45Z</time>
      </trkpt>
      <trkpt lat="46.12912" lon="6.23658">
        <ele>660.2</ele>
        <time>2021-04-17T15:27:46Z</time>
      </trkpt>
      <trkpt lat="46.12907" lon="6.23659">
        <ele>660.2</ele>
        <time>2021-04-17T15:27:47Z</time>
      </trkpt>
      <trkpt lat="46.12902" lon="6.23661">
        <ele>660.4</ele>
        <time>2021-04-17T15:27:48Z</time>
      </trkpt>
      <trkpt lat="46.12897" lon="6.23663">
        <ele>660.6</ele>
        <time>2021-04-17T15:27:49Z</time>
      </trkpt>
      <trkpt lat="46.12892" lon="6.23665">
        <ele>660.8</ele>
        <time>2021-04-17T15:27:50Z</time>
      </trkpt>
      <trkpt lat="46.12886" lon="6.23668">
        <ele>661</ele>
        <time>2021-04-17T15:27:51Z</time>
      </trkpt>
      <trkpt lat="46.1288" lon="6.2367">
        <ele>661.4</ele>
        <time>2021-04-17T15:27:52Z</time>
      </trkpt>
      <trkpt lat="46.12874" lon="6.23672">
        <ele>661.4</ele>
        <time>2021-04-17T15:27:53Z</time>
      </trkpt>
      <trkpt lat="46.12868" lon="6.23674">
        <ele>661.6</ele>
        <time>2021-04-17T15:27:54Z</time>
      </trkpt>
      <trkpt lat="46.12861" lon="6.23674">
        <ele>661.4</ele>
        <time>2021-04-17T15:27:55Z</time>
      </trkpt>
      <trkpt lat="46.12854" lon="6.23674">
        <ele>661.6</ele>
        <time>2021-04-17T15:27:56Z</time>
      </trkpt>
      <trkpt lat="46.12848" lon="6.23673">
        <ele>661.6</ele>
        <time>2021-04-17T15:27:57Z</time>
      </trkpt>
      <trkpt lat="46.12841" lon="6.23671">
        <ele>661.6</ele>
        <time>2021-04-17T15:27:58Z</time>
      </trkpt>
      <trkpt lat="46.12835" lon="6.2367">
        <ele>661.4</ele>
        <time>2021-04-17T15:27:59Z</time>
      </trkpt>
      <trkpt lat="46.12829" lon="6.2367">
        <ele>661.6</ele>
        <time>2021-04-17T15:28:00Z</time>
      </trkpt>
      <trkpt lat="46.12823" lon="6.23669">
        <ele>661.6</ele>
        <time>2021-04-17T15:28:01Z</time>
      </trkpt>
      <trkpt lat="46.12817" lon="6.23668">
        <ele>661.4</ele>
        <time>2021-04-17T15:28:02Z</time>
      </trkpt>
      <trkpt lat="46.12811" lon="6.23667">
        <ele>661.4</ele>
        <time>2021-04-17T15:28:03Z</time>
      </trkpt>
      <trkpt lat="46.12805" lon="6.23665">
        <ele>661.2</ele>
        <time>2021-04-17T15:28:04Z</time>
      </trkpt>
      <trkpt lat="46.12799" lon="6.23663">
        <ele>661</ele>
        <time>2021-04-17T15:28:05Z</time>
      </trkpt>
      <trkpt lat="46.12793" lon="6.23661">
        <ele>660.8</ele>
        <time>2021-04-17T15:28:06Z</time>
      </trkpt>
      <trkpt lat="46.12787" lon="6.23658">
        <ele>660.8</ele>
        <time>2021-04-17T15:28:07Z</time>
      </trkpt>
      <trkpt lat="46.12781" lon="6.23656">
        <ele>660.8</ele>
        <time>2021-04-17T15:28:08Z</time>
      </trkpt>
      <trkpt lat="46.12776" lon="6.23654">
        <ele>660.8</ele>
        <time>2021-04-17T15:28:09Z</time>
      </trkpt>
      <trkpt lat="46.1277" lon="6.23652">
        <ele>660.8</ele>
        <time>2021-04-17T15:28:10Z</time>
      </trkpt>
      <trkpt lat="46.12764" lon="6.23649">
        <ele>660.8</ele>
        <time>2021-04-17T15:28:11Z</time>
      </trkpt>
      <trkpt lat="46.12758" lon="6.23647">
        <ele>660.8</ele>
        <time>2021-04-17T15:28:12Z</time>
      </trkpt>
      <trkpt lat="46.12752" lon="6.23645">
        <ele>660.8</ele>
        <time>2021-04-17T15:28:13Z</time>
      </trkpt>
      <trkpt lat="46.12745" lon="6.23643">
        <ele>660.8</ele>
        <time>2021-04-17T15:28:14Z</time>
      </trkpt>
      <trkpt lat="46.12739" lon="6.2364">
        <ele>661</ele>
        <time>2021-04-17T15:28:15Z</time>
      </trkpt>
      <trkpt lat="46.12733" lon="6.23638">
        <ele>660.8</ele>
        <time>2021-04-17T15:28:16Z</time>
      </trkpt>
      <trkpt lat="46.12726" lon="6.23636">
        <ele>661</ele>
        <time>2021-04-17T15:28:17Z</time>
      </trkpt>
      <trkpt lat="46.12719" lon="6.23634">
        <ele>661</ele>
        <time>2021-04-17T15:28:18Z</time>
      </trkpt>
      <trkpt lat="46.12712" lon="6.23633">
        <ele>661</ele>
        <time>2021-04-17T15:28:19Z</time>
      </trkpt>
      <trkpt lat="46.12705" lon="6.23634">
        <ele>661</ele>
        <time>2021-04-17T15:28:20Z</time>
      </trkpt>
      <trkpt lat="46.12699" lon="6.23637">
        <ele>661</ele>
        <time>2021-04-17T15:28:21Z</time>
      </trkpt>
      <trkpt lat="46.12694" lon="6.23642">
        <ele>661</ele>
        <time>2021-04-17T15:28:22Z</time>
      </trkpt>
      <trkpt lat="46.1269" lon="6.23648">
        <ele>661</ele>
        <time>2021-04-17T15:28:23Z</time>
      </trkpt>
      <trkpt lat="46.12686" lon="6.23655">
        <ele>661</ele>
        <time>2021-04-17T15:28:24Z</time>
      </trkpt>
      <trkpt lat="46.12683" lon="6.23662">
        <ele>661.2</ele>
        <time>2021-04-17T15:28:25Z</time>
      </trkpt>
      <trkpt lat="46.12681" lon="6.23669">
        <ele>661.2</ele>
        <time>2021-04-17T15:28:26Z</time>
      </trkpt>
      <trkpt lat="46.12678" lon="6.23675">
        <ele>661.4</ele>
        <time>2021-04-17T15:28:27Z</time>
      </trkpt>
      <trkpt lat="46.12674" lon="6.23681">
        <ele>661.4</ele>
        <time>2021-04-17T15:28:28Z</time>
      </trkpt>
      <trkpt lat="46.1267" lon="6.23686">
        <ele>661.4</ele>
        <time>2021-04-17T15:28:29Z</time>
      </trkpt>
      <trkpt lat="46.12665" lon="6.23691">
        <ele>661.2</ele>
        <time>2021-04-17T15:28:30Z</time>
      </trkpt>
      <trkpt lat="46.12659" lon="6.23696">
        <ele>661.2</ele>
        <time>2021-04-17T15:28:31Z</time>
      </trkpt>
      <trkpt lat="46.12653" lon="6.23701">
        <ele>661.2</ele>
        <time>2021-04-17T15:28:32Z</time>
      </trkpt>
      <trkpt lat="46.12648" lon="6.23707">
        <ele>661.2</ele>
        <time>2021-04-17T15:28:33Z</time>
      </trkpt>
      <trkpt lat="46.12643" lon="6.23713">
        <ele>661</ele>
        <time>2021-04-17T15:28:34Z</time>
      </trkpt>
      <trkpt lat="46.12639" lon="6.2372">
        <ele>661</ele>
        <time>2021-04-17T15:28:35Z</time>
      </trkpt>
      <trkpt lat="46.12635" lon="6.23727">
        <ele>661.2</ele>
        <time>2021-04-17T15:28:36Z</time>
      </trkpt>
      <trkpt lat="46.12631" lon="6.23733">
        <ele>661.2</ele>
        <time>2021-04-17T15:28:37Z</time>
      </trkpt>
      <trkpt lat="46.12628" lon="6.23738">
        <ele>661.2</ele>
        <time>2021-04-17T15:28:38Z</time>
      </trkpt>
      <trkpt lat="46.12625" lon="6.23743">
        <ele>661.4</ele>
        <time>2021-04-17T15:28:39Z</time>
      </trkpt>
      <trkpt lat="46.12623" lon="6.23748">
        <ele>661.6</ele>
        <time>2021-04-17T15:28:40Z</time>
      </trkpt>
      <trkpt lat="46.12621" lon="6.23751">
        <ele>661.6</ele>
        <time>2021-04-17T15:28:41Z</time>
      </trkpt>
      <trkpt lat="46.12618" lon="6.23755">
        <ele>661.8</ele>
        <time>2021-04-17T15:28:42Z</time>
      </trkpt>
      <trkpt lat="46.12616" lon="6.23759">
        <ele>661.8</ele>
        <time>2021-04-17T15:28:43Z</time>
      </trkpt>
      <trkpt lat="46.12614" lon="6.23762">
        <ele>662</ele>
        <time>2021-04-17T15:28:44Z</time>
      </trkpt>
      <trkpt lat="46.12611" lon="6.23765">
        <ele>662</ele>
        <time>2021-04-17T15:28:45Z</time>
      </trkpt>
      <trkpt lat="46.12609" lon="6.23769">
        <ele>662.2</ele>
        <time>2021-04-17T15:28:46Z</time>
      </trkpt>
      <trkpt lat="46.12607" lon="6.23772">
        <ele>662.4</ele>
        <time>2021-04-17T15:28:47Z</time>
      </trkpt>
      <trkpt lat="46.12604" lon="6.23775">
        <ele>663</ele>
        <time>2021-04-17T15:28:48Z</time>
      </trkpt>
      <trkpt lat="46.12601" lon="6.23779">
        <ele>663.4</ele>
        <time>2021-04-17T15:28:49Z</time>
      </trkpt>
      <trkpt lat="46.12598" lon="6.23783">
        <ele>664</ele>
        <time>2021-04-17T15:28:50Z</time>
      </trkpt>
      <trkpt lat="46.12594" lon="6.23787">
        <ele>664.4</ele>
        <time>2021-04-17T15:28:51Z</time>
      </trkpt>
      <trkpt lat="46.12591" lon="6.23789">
        <ele>665.2</ele>
        <time>2021-04-17T15:28:52Z</time>
      </trkpt>
      <trkpt lat="46.12588" lon="6.23792">
        <ele>665.8</ele>
        <time>2021-04-17T15:28:53Z</time>
      </trkpt>
      <trkpt lat="46.12585" lon="6.23794">
        <ele>666</ele>
        <time>2021-04-17T15:28:54Z</time>
      </trkpt>
      <trkpt lat="46.12582" lon="6.23797">
        <ele>666.4</ele>
        <time>2021-04-17T15:28:55Z</time>
      </trkpt>
      <trkpt lat="46.12578" lon="6.238">
        <ele>666.6</ele>
        <time>2021-04-17T15:28:56Z</time>
      </trkpt>
      <trkpt lat="46.12575" lon="6.23803">
        <ele>667</ele>
        <time>2021-04-17T15:28:57Z</time>
      </trkpt>
      <trkpt lat="46.12573" lon="6.23806">
        <ele>667.2</ele>
        <time>2021-04-17T15:28:58Z</time>
      </trkpt>
      <trkpt lat="46.1257" lon="6.23809">
        <ele>667.6</ele>
        <time>2021-04-17T15:28:59Z</time>
      </trkpt>
      <trkpt lat="46.12567" lon="6.23812">
        <ele>667.8</ele>
        <time>2021-04-17T15:29:00Z</time>
      </trkpt>
      <trkpt lat="46.12565" lon="6.23816">
        <ele>668</ele>
        <time>2021-04-17T15:29:01Z</time>
      </trkpt>
      <trkpt lat="46.12563" lon="6.2382">
        <ele>668.4</ele>
        <time>2021-04-17T15:29:02Z</time>
      </trkpt>
      <trkpt lat="46.12561" lon="6.23824">
        <ele>668.6</ele>
        <time>2021-04-17T15:29:03Z</time>
      </trkpt>
      <trkpt lat="46.12559" lon="6.23828">
        <ele>668.6</ele>
        <time>2021-04-17T15:29:04Z</time>
      </trkpt>
      <trkpt lat="46.12557" lon="6.23832">
        <ele>669.2</ele>
        <time>2021-04-17T15:29:05Z</time>
      </trkpt>
      <trkpt lat="46.12555" lon="6.23836">
        <ele>669.6</ele>
        <time>2021-04-17T15:29:06Z</time>
      </trkpt>
      <trkpt lat="46.12553" lon="6.2384">
        <ele>669.8</ele>
        <time>2021-04-17T15:29:07Z</time>
      </trkpt>
      <trkpt lat="46.12551" lon="6.23844">
        <ele>670.2</ele>
        <time>2021-04-17T15:29:08Z</time>
      </trkpt>
      <trkpt lat="46.12548" lon="6.23848">
        <ele>670.4</ele>
        <time>2021-04-17T15:29:09Z</time>
      </trkpt>
      <trkpt lat="46.12546" lon="6.23852">
        <ele>670.6</ele>
        <time>2021-04-17T15:29:10Z</time>
      </trkpt>
      <trkpt lat="46.12544" lon="6.23855">
        <ele>670.8</ele>
        <time>2021-04-17T15:29:11Z</time>
      </trkpt>
      <trkpt lat="46.12542" lon="6.23858">
        <ele>671.4</ele>
        <time>2021-04-17T15:29:12Z</time>
      </trkpt>
      <trkpt lat="46.1254" lon="6.23861">
        <ele>671.6</ele>
        <time>2021-04-17T15:29:13Z</time>
      </trkpt>
      <trkpt lat="46.12538" lon="6.23864">
        <ele>671.6</ele>
        <time>2021-04-17T15:29:14Z</time>
      </trkpt>
      <trkpt lat="46.12536" lon="6.23867">
        <ele>672</ele>
        <time>2021-04-17T15:29:15Z</time>
      </trkpt>
      <trkpt lat="46.12534" lon="6.2387">
        <ele>672.4</ele>
        <time>2021-04-17T15:29:16Z</time>
      </trkpt>
      <trkpt lat="46.12532" lon="6.23872">
        <ele>672.8</ele>
        <time>2021-04-17T15:29:17Z</time>
      </trkpt>
      <trkpt lat="46.1253" lon="6.23875">
        <ele>673.2</ele>
        <time>2021-04-17T15:29:18Z</time>
      </trkpt>
      <trkpt lat="46.12527" lon="6.23878">
        <ele>673.4</ele>
        <time>2021-04-17T15:29:19Z</time>
      </trkpt>
      <trkpt lat="46.12525" lon="6.2388">
        <ele>673.8</ele>
        <time>2021-04-17T15:29:20Z</time>
      </trkpt>
      <trkpt lat="46.12523" lon="6.23882">
        <ele>674</ele>
        <time>2021-04-17T15:29:21Z</time>
      </trkpt>
      <trkpt lat="46.12521" lon="6.23884">
        <ele>674.2</ele>
        <time>2021-04-17T15:29:22Z</time>
      </trkpt>
      <trkpt lat="46.12519" lon="6.23887">
        <ele>674.6</ele>
        <time>2021-04-17T15:29:23Z</time>
      </trkpt>
      <trkpt lat="46.12518" lon="6.23889">
        <ele>675</ele>
        <time>2021-04-17T15:29:24Z</time>
      </trkpt>
      <trkpt lat="46.12516" lon="6.23891">
        <ele>675.2</ele>
        <time>2021-04-17T15:29:25Z</time>
      </trkpt>
      <trkpt lat="46.12514" lon="6.23893">
        <ele>675.6</ele>
        <time>2021-04-17T15:29:26Z</time>
      </trkpt>
      <trkpt lat="46.12512" lon="6.23895">
        <ele>676</ele>
        <time>2021-04-17T15:29:27Z</time>
      </trkpt>
      <trkpt lat="46.12511" lon="6.23896">
        <ele>676.4</ele>
        <time>2021-04-17T15:29:28Z</time>
      </trkpt>
      <trkpt lat="46.12509" lon="6.23898">
        <ele>677</ele>
        <time>2021-04-17T15:29:29Z</time>
      </trkpt>
      <trkpt lat="46.12508" lon="6.239">
        <ele>677.2</ele>
        <time>2021-04-17T15:29:30Z</time>
      </trkpt>
      <trkpt lat="46.12506" lon="6.23903">
        <ele>677.6</ele>
        <time>2021-04-17T15:29:31Z</time>
      </trkpt>
      <trkpt lat="46.12505" lon="6.23905">
        <ele>677.6</ele>
        <time>2021-04-17T15:29:32Z</time>
      </trkpt>
      <trkpt lat="46.12503" lon="6.23907">
        <ele>678.2</ele>
        <time>2021-04-17T15:29:33Z</time>
      </trkpt>
      <trkpt lat="46.12502" lon="6.23909">
        <ele>678.4</ele>
        <time>2021-04-17T15:29:34Z</time>
      </trkpt>
      <trkpt lat="46.125" lon="6.23911">
        <ele>678.6</ele>
        <time>2021-04-17T15:29:35Z</time>
      </trkpt>
      <trkpt lat="46.12498" lon="6.23912">
        <ele>679</ele>
        <time>2021-04-17T15:29:36Z</time>
      </trkpt>
      <trkpt lat="46.12497" lon="6.23914">
        <ele>679.4</ele>
        <time>2021-04-17T15:29:37Z</time>
      </trkpt>
      <trkpt lat="46.12496" lon="6.23916">
        <ele>679.8</ele>
        <time>2021-04-17T15:29:38Z</time>
      </trkpt>
      <trkpt lat="46.12494" lon="6.23918">
        <ele>680</ele>
        <time>2021-04-17T15:29:39Z</time>
      </trkpt>
      <trkpt lat="46.12493" lon="6.23921">
        <ele>680.4</ele>
        <time>2021-04-17T15:29:40Z</time>
      </trkpt>
      <trkpt lat="46.12491" lon="6.23922">
        <ele>680.8</ele>
        <time>2021-04-17T15:29:41Z</time>
      </trkpt>
      <trkpt lat="46.12489" lon="6.23924">
        <ele>681</ele>
        <time>2021-04-17T15:29:42Z</time>
      </trkpt>
      <trkpt lat="46.12488" lon="6.23926">
        <ele>681.4</ele>
        <time>2021-04-17T15:29:43Z</time>
      </trkpt>
      <trkpt lat="46.12486" lon="6.23928">
        <ele>681.6</ele>
        <time>2021-04-17T15:29:44Z</time>
      </trkpt>
      <trkpt lat="46.12485" lon="6.23929">
        <ele>681.8</ele>
        <time>2021-04-17T15:29:45Z</time>
      </trkpt>
      <trkpt lat="46.12483" lon="6.23931">
        <ele>682</ele>
        <time>2021-04-17T15:29:46Z</time>
      </trkpt>
      <trkpt lat="46.12481" lon="6.23932">
        <ele>682.4</ele>
        <time>2021-04-17T15:29:47Z</time>
      </trkpt>
      <trkpt lat="46.1248" lon="6.23934">
        <ele>682.6</ele>
        <time>2021-04-17T15:29:48Z</time>
      </trkpt>
      <trkpt lat="46.12478" lon="6.23935">
        <ele>683</ele>
        <time>2021-04-17T15:29:49Z</time>
      </trkpt>
      <trkpt lat="46.12476" lon="6.23936">
        <ele>683</ele>
        <time>2021-04-17T15:29:50Z</time>
      </trkpt>
      <trkpt lat="46.12474" lon="6.23938">
        <ele>683.4</ele>
        <time>2021-04-17T15:29:51Z</time>
      </trkpt>
      <trkpt lat="46.12472" lon="6.23939">
        <ele>683.6</ele>
        <time>2021-04-17T15:29:52Z</time>
      </trkpt>
      <trkpt lat="46.12471" lon="6.2394">
        <ele>684.2</ele>
        <time>2021-04-17T15:29:53Z</time>
      </trkpt>
      <trkpt lat="46.12469" lon="6.23941">
        <ele>684.2</ele>
        <time>2021-04-17T15:29:54Z</time>
      </trkpt>
      <trkpt lat="46.12467" lon="6.23942">
        <ele>684.6</ele>
        <time>2021-04-17T15:29:55Z</time>
      </trkpt>
      <trkpt lat="46.12465" lon="6.23943">
        <ele>685</ele>
        <time>2021-04-17T15:29:56Z</time>
      </trkpt>
      <trkpt lat="46.12463" lon="6.23945">
        <ele>685.4</ele>
        <time>2021-04-17T15:29:57Z</time>
      </trkpt>
      <trkpt lat="46.12462" lon="6.23946">
        <ele>685.8</ele>
        <time>2021-04-17T15:29:58Z</time>
      </trkpt>
      <trkpt lat="46.1246" lon="6.23947">
        <ele>686</ele>
        <time>2021-04-17T15:29:59Z</time>
      </trkpt>
      <trkpt lat="46.12458" lon="6.23948">
        <ele>686.4</ele>
        <time>2021-04-17T15:30:00Z</time>
      </trkpt>
      <trkpt lat="46.12456" lon="6.23949">
        <ele>686.8</ele>
        <time>2021-04-17T15:30:01Z</time>
      </trkpt>
      <trkpt lat="46.12454" lon="6.23951">
        <ele>687</ele>
        <time>2021-04-17T15:30:02Z</time>
      </trkpt>
      <trkpt lat="46.12453" lon="6.23952">
        <ele>687.2</ele>
        <time>2021-04-17T15:30:03Z</time>
      </trkpt>
      <trkpt lat="46.12451" lon="6.23953">
        <ele>687.4</ele>
        <time>2021-04-17T15:30:04Z</time>
      </trkpt>
      <trkpt lat="46.12449" lon="6.23955">
        <ele>687.8</ele>
        <time>2021-04-17T15:30:05Z</time>
      </trkpt>
      <trkpt lat="46.12447" lon="6.23956">
        <ele>688.2</ele>
        <time>2021-04-17T15:30:06Z</time>
      </trkpt>
      <trkpt lat="46.12446" lon="6.23957">
        <ele>688.8</ele>
        <time>2021-04-17T15:30:07Z</time>
      </trkpt>
      <trkpt lat="46.12444" lon="6.23959">
        <ele>689</ele>
        <time>2021-04-17T15:30:08Z</time>
      </trkpt>
      <trkpt lat="46.12442" lon="6.2396">
        <ele>689.2</ele>
        <time>2021-04-17T15:30:09Z</time>
      </trkpt>
      <trkpt lat="46.12441" lon="6.23962">
        <ele>689.4</ele>
        <time>2021-04-17T15:30:10Z</time>
      </trkpt>
      <trkpt lat="46.12439" lon="6.23963">
        <ele>689.8</ele>
        <time>2021-04-17T15:30:11Z</time>
      </trkpt>
      <trkpt lat="46.12437" lon="6.23965">
        <ele>690</ele>
        <time>2021-04-17T15:30:12Z</time>
      </trkpt>
      <trkpt lat="46.12435" lon="6.23966">
        <ele>690.2</ele>
        <time>2021-04-17T15:30:13Z</time>
      </trkpt>
      <trkpt lat="46.12434" lon="6.23968">
        <ele>690.4</ele>
        <time>2021-04-17T15:30:14Z</time>
      </trkpt>
      <trkpt lat="46.12432" lon="6.2397">
        <ele>690.8</ele>
        <time>2021-04-17T15:30:15Z</time>
      </trkpt>
      <trkpt lat="46.1243" lon="6.23971">
        <ele>691</ele>
        <time>2021-04-17T15:30:16Z</time>
      </trkpt>
      <trkpt lat="46.12428" lon="6.23973">
        <ele>691.4</ele>
        <time>2021-04-17T15:30:17Z</time>
      </trkpt>
      <trkpt lat="46.12426" lon="6.23974">
        <ele>692</ele>
        <time>2021-04-17T15:30:18Z</time>
      </trkpt>
      <trkpt lat="46.12424" lon="6.23976">
        <ele>692.2</ele>
        <time>2021-04-17T15:30:19Z</time>
      </trkpt>
      <trkpt lat="46.12421" lon="6.23977">
        <ele>692.6</ele>
        <time>2021-04-17T15:30:20Z</time>
      </trkpt>
      <trkpt lat="46.12419" lon="6.23978">
        <ele>692.8</ele>
        <time>2021-04-17T15:30:21Z</time>
      </trkpt>
      <trkpt lat="46.12417" lon="6.23978">
        <ele>693</ele>
        <time>2021-04-17T15:30:22Z</time>
      </trkpt>
      <trkpt lat="46.12414" lon="6.23979">
        <ele>693.2</ele>
        <time>2021-04-17T15:30:23Z</time>
      </trkpt>
      <trkpt lat="46.12412" lon="6.2398">
        <ele>693.4</ele>
        <time>2021-04-17T15:30:24Z</time>
      </trkpt>
      <trkpt lat="46.1241" lon="6.23982">
        <ele>693.8</ele>
        <time>2021-04-17T15:30:25Z</time>
      </trkpt>
      <trkpt lat="46.12408" lon="6.23983">
        <ele>694</ele>
        <time>2021-04-17T15:30:26Z</time>
      </trkpt>
      <trkpt lat="46.12405" lon="6.23984">
        <ele>694.2</ele>
        <time>2021-04-17T15:30:27Z</time>
      </trkpt>
      <trkpt lat="46.12403" lon="6.23985">
        <ele>694.6</ele>
        <time>2021-04-17T15:30:28Z</time>
      </trkpt>
      <trkpt lat="46.12401" lon="6.23986">
        <ele>695</ele>
        <time>2021-04-17T15:30:29Z</time>
      </trkpt>
      <trkpt lat="46.12399" lon="6.23987">
        <ele>695.2</ele>
        <time>2021-04-17T15:30:30Z</time>
      </trkpt>
      <trkpt lat="46.12397" lon="6.23988">
        <ele>695.6</ele>
        <time>2021-04-17T15:30:31Z</time>
      </trkpt>
      <trkpt lat="46.12395" lon="6.2399">
        <ele>696</ele>
        <time>2021-04-17T15:30:32Z</time>
      </trkpt>
      <trkpt lat="46.12394" lon="6.23992">
        <ele>696</ele>
        <time>2021-04-17T15:30:33Z</time>
      </trkpt>
      <trkpt lat="46.12393" lon="6.23994">
        <ele>696.4</ele>
        <time>2021-04-17T15:30:34Z</time>
      </trkpt>
      <trkpt lat="46.12393" lon="6.23997">
        <ele>696.8</ele>
        <time>2021-04-17T15:30:35Z</time>
      </trkpt>
      <trkpt lat="46.12393" lon="6.24001">
        <ele>697.2</ele>
        <time>2021-04-17T15:30:36Z</time>
      </trkpt>
      <trkpt lat="46.12393" lon="6.24004">
        <ele>697.4</ele>
        <time>2021-04-17T15:30:37Z</time>
      </trkpt>
      <trkpt lat="46.12392" lon="6.24009">
        <ele>697.6</ele>
        <time>2021-04-17T15:30:38Z</time>
      </trkpt>
      <trkpt lat="46.12392" lon="6.24013">
        <ele>697.8</ele>
        <time>2021-04-17T15:30:39Z</time>
      </trkpt>
      <trkpt lat="46.12392" lon="6.24017">
        <ele>697.8</ele>
        <time>2021-04-17T15:30:40Z</time>
      </trkpt>
      <trkpt lat="46.12393" lon="6.24022">
        <ele>697.8</ele>
        <time>2021-04-17T15:30:41Z</time>
      </trkpt>
      <trkpt lat="46.12394" lon="6.24027">
        <ele>697.8</ele>
        <time>2021-04-17T15:30:42Z</time>
      </trkpt>
      <trkpt lat="46.12394" lon="6.24033">
        <ele>697.8</ele>
        <time>2021-04-17T15:30:43Z</time>
      </trkpt>
      <trkpt lat="46.12396" lon="6.24039">
        <ele>697.8</ele>
        <time>2021-04-17T15:30:44Z</time>
      </trkpt>
      <trkpt lat="46.12396" lon="6.24045">
        <ele>698</ele>
        <time>2021-04-17T15:30:45Z</time>
      </trkpt>
      <trkpt lat="46.12395" lon="6.24051">
        <ele>697.8</ele>
        <time>2021-04-17T15:30:46Z</time>
      </trkpt>
      <trkpt lat="46.12392" lon="6.24056">
        <ele>698</ele>
        <time>2021-04-17T15:30:47Z</time>
      </trkpt>
      <trkpt lat="46.12388" lon="6.24059">
        <ele>698</ele>
        <time>2021-04-17T15:30:48Z</time>
      </trkpt>
      <trkpt lat="46.12384" lon="6.2406">
        <ele>697.8</ele>
        <time>2021-04-17T15:30:49Z</time>
      </trkpt>
      <trkpt lat="46.12379" lon="6.2406">
        <ele>697.8</ele>
        <time>2021-04-17T15:30:50Z</time>
      </trkpt>
      <trkpt lat="46.12375" lon="6.24058">
        <ele>697.2</ele>
        <time>2021-04-17T15:30:51Z</time>
      </trkpt>
      <trkpt lat="46.12371" lon="6.24055">
        <ele>697</ele>
        <time>2021-04-17T15:30:52Z</time>
      </trkpt>
      <trkpt lat="46.12367" lon="6.24053">
        <ele>696.6</ele>
        <time>2021-04-17T15:30:53Z</time>
      </trkpt>
      <trkpt lat="46.12363" lon="6.24051">
        <ele>696.6</ele>
        <time>2021-04-17T15:30:54Z</time>
      </trkpt>
      <trkpt lat="46.12359" lon="6.2405">
        <ele>696.4</ele>
        <time>2021-04-17T15:30:55Z</time>
      </trkpt>
      <trkpt lat="46.12354" lon="6.24051">
        <ele>696.2</ele>
        <time>2021-04-17T15:30:56Z</time>
      </trkpt>
      <trkpt lat="46.1235" lon="6.24053">
        <ele>696</ele>
        <time>2021-04-17T15:30:57Z</time>
      </trkpt>
      <trkpt lat="46.12345" lon="6.24057">
        <ele>696</ele>
        <time>2021-04-17T15:30:58Z</time>
      </trkpt>
      <trkpt lat="46.1234" lon="6.24063">
        <ele>695.8</ele>
        <time>2021-04-17T15:30:59Z</time>
      </trkpt>
      <trkpt lat="46.12335" lon="6.2407">
        <ele>695.8</ele>
        <time>2021-04-17T15:31:00Z</time>
      </trkpt>
      <trkpt lat="46.12329" lon="6.24078">
        <ele>695.8</ele>
        <time>2021-04-17T15:31:01Z</time>
      </trkpt>
      <trkpt lat="46.12324" lon="6.24085">
        <ele>695.4</ele>
        <time>2021-04-17T15:31:02Z</time>
      </trkpt>
      <trkpt lat="46.12318" lon="6.24091">
        <ele>695.4</ele>
        <time>2021-04-17T15:31:03Z</time>
      </trkpt>
      <trkpt lat="46.12311" lon="6.24095">
        <ele>695.4</ele>
        <time>2021-04-17T15:31:04Z</time>
      </trkpt>
      <trkpt lat="46.12303" lon="6.24096">
        <ele>695.2</ele>
        <time>2021-04-17T15:31:05Z</time>
      </trkpt>
      <trkpt lat="46.12295" lon="6.24095">
        <ele>694.6</ele>
        <time>2021-04-17T15:31:06Z</time>
      </trkpt>
      <trkpt lat="46.12286" lon="6.24091">
        <ele>693.6</ele>
        <time>2021-04-17T15:31:07Z</time>
      </trkpt>
      <trkpt lat="46.12278" lon="6.24087">
        <ele>692.6</ele>
        <time>2021-04-17T15:31:08Z</time>
      </trkpt>
      <trkpt lat="46.1227" lon="6.24082">
        <ele>691.8</ele>
        <time>2021-04-17T15:31:09Z</time>
      </trkpt>
      <trkpt lat="46.12261" lon="6.24077">
        <ele>690.6</ele>
        <time>2021-04-17T15:31:10Z</time>
      </trkpt>
      <trkpt lat="46.12252" lon="6.24072">
        <ele>689.6</ele>
        <time>2021-04-17T15:31:11Z</time>
      </trkpt>
      <trkpt lat="46.12243" lon="6.24066">
        <ele>688.8</ele>
        <time>2021-04-17T15:31:12Z</time>
      </trkpt>
      <trkpt lat="46.12233" lon="6.2406">
        <ele>688.2</ele>
        <time>2021-04-17T15:31:13Z</time>
      </trkpt>
      <trkpt lat="46.12223" lon="6.24054">
        <ele>688</ele>
        <time>2021-04-17T15:31:14Z</time>
      </trkpt>
      <trkpt lat="46.12212" lon="6.24047">
        <ele>687.6</ele>
        <time>2021-04-17T15:31:15Z</time>
      </trkpt>
      <trkpt lat="46.12201" lon="6.2404">
        <ele>687</ele>
        <time>2021-04-17T15:31:16Z</time>
      </trkpt>
      <trkpt lat="46.1219" lon="6.24033">
        <ele>686.4</ele>
        <time>2021-04-17T15:31:17Z</time>
      </trkpt>
      <trkpt lat="46.12179" lon="6.24026">
        <ele>686.4</ele>
        <time>2021-04-17T15:31:18Z</time>
      </trkpt>
      <trkpt lat="46.12168" lon="6.24018">
        <ele>686.2</ele>
        <time>2021-04-17T15:31:19Z</time>
      </trkpt>
      <trkpt lat="46.12158" lon="6.2401">
        <ele>685.4</ele>
        <time>2021-04-17T15:31:20Z</time>
      </trkpt>
      <trkpt lat="46.12148" lon="6.24003">
        <ele>684.6</ele>
        <time>2021-04-17T15:31:21Z</time>
      </trkpt>
      <trkpt lat="46.12137" lon="6.23997">
        <ele>683.4</ele>
        <time>2021-04-17T15:31:22Z</time>
      </trkpt>
      <trkpt lat="46.12128" lon="6.2399">
        <ele>682</ele>
        <time>2021-04-17T15:31:23Z</time>
      </trkpt>
      <trkpt lat="46.12118" lon="6.23983">
        <ele>680</ele>
        <time>2021-04-17T15:31:24Z</time>
      </trkpt>
      <trkpt lat="46.12109" lon="6.23977">
        <ele>678.8</ele>
        <time>2021-04-17T15:31:25Z</time>
      </trkpt>
      <trkpt lat="46.12101" lon="6.23971">
        <ele>678</ele>
        <time>2021-04-17T15:31:26Z</time>
      </trkpt>
      <trkpt lat="46.12092" lon="6.23965">
        <ele>677.4</ele>
        <time>2021-04-17T15:31:27Z</time>
      </trkpt>
      <trkpt lat="46.12084" lon="6.23959">
        <ele>677.2</ele>
        <time>2021-04-17T15:31:28Z</time>
      </trkpt>
      <trkpt lat="46.12077" lon="6.23953">
        <ele>677.2</ele>
        <time>2021-04-17T15:31:29Z</time>
      </trkpt>
      <trkpt lat="46.12069" lon="6.23948">
        <ele>677</ele>
        <time>2021-04-17T15:31:30Z</time>
      </trkpt>
      <trkpt lat="46.12062" lon="6.23943">
        <ele>677.2</ele>
        <time>2021-04-17T15:31:31Z</time>
      </trkpt>
      <trkpt lat="46.12055" lon="6.23937">
        <ele>677</ele>
        <time>2021-04-17T15:31:32Z</time>
      </trkpt>
      <trkpt lat="46.12048" lon="6.23932">
        <ele>677</ele>
        <time>2021-04-17T15:31:33Z</time>
      </trkpt>
      <trkpt lat="46.12042" lon="6.23928">
        <ele>677</ele>
        <time>2021-04-17T15:31:34Z</time>
      </trkpt>
      <trkpt lat="46.12035" lon="6.23923">
        <ele>677</ele>
        <time>2021-04-17T15:31:35Z</time>
      </trkpt>
      <trkpt lat="46.12029" lon="6.2392">
        <ele>677.2</ele>
        <time>2021-04-17T15:31:36Z</time>
      </trkpt>
      <trkpt lat="46.12023" lon="6.23916">
        <ele>677.6</ele>
        <time>2021-04-17T15:31:37Z</time>
      </trkpt>
      <trkpt lat="46.12017" lon="6.23913">
        <ele>678.2</ele>
        <time>2021-04-17T15:31:38Z</time>
      </trkpt>
      <trkpt lat="46.12011" lon="6.2391">
        <ele>678.8</ele>
        <time>2021-04-17T15:31:39Z</time>
      </trkpt>
      <trkpt lat="46.12005" lon="6.23908">
        <ele>679.2</ele>
        <time>2021-04-17T15:31:40Z</time>
      </trkpt>
      <trkpt lat="46.11998" lon="6.23907">
        <ele>679.4</ele>
        <time>2021-04-17T15:31:41Z</time>
      </trkpt>
      <trkpt lat="46.11992" lon="6.23905">
        <ele>679.6</ele>
        <time>2021-04-17T15:31:42Z</time>
      </trkpt>
      <trkpt lat="46.11986" lon="6.23903">
        <ele>680.2</ele>
        <time>2021-04-17T15:31:43Z</time>
      </trkpt>
      <trkpt lat="46.1198" lon="6.23902">
        <ele>680.6</ele>
        <time>2021-04-17T15:31:44Z</time>
      </trkpt>
      <trkpt lat="46.11973" lon="6.239">
        <ele>680.8</ele>
        <time>2021-04-17T15:31:45Z</time>
      </trkpt>
      <trkpt lat="46.11967" lon="6.23898">
        <ele>681.2</ele>
        <time>2021-04-17T15:31:46Z</time>
      </trkpt>
      <trkpt lat="46.11961" lon="6.23897">
        <ele>681.8</ele>
        <time>2021-04-17T15:31:47Z</time>
      </trkpt>
      <trkpt lat="46.11954" lon="6.23895">
        <ele>682</ele>
        <time>2021-04-17T15:31:48Z</time>
      </trkpt>
      <trkpt lat="46.11948" lon="6.23895">
        <ele>682.2</ele>
        <time>2021-04-17T15:31:49Z</time>
      </trkpt>
      <trkpt lat="46.11941" lon="6.23894">
        <ele>682.4</ele>
        <time>2021-04-17T15:31:50Z</time>
      </trkpt>
      <trkpt lat="46.11934" lon="6.23895">
        <ele>682.4</ele>
        <time>2021-04-17T15:31:51Z</time>
      </trkpt>
      <trkpt lat="46.11927" lon="6.23896">
        <ele>682.6</ele>
        <time>2021-04-17T15:31:52Z</time>
      </trkpt>
      <trkpt lat="46.1192" lon="6.23897">
        <ele>682.8</ele>
        <time>2021-04-17T15:31:53Z</time>
      </trkpt>
      <trkpt lat="46.11913" lon="6.23897">
        <ele>682.8</ele>
        <time>2021-04-17T15:31:54Z</time>
      </trkpt>
      <trkpt lat="46.11906" lon="6.23896">
        <ele>683</ele>
        <time>2021-04-17T15:31:55Z</time>
      </trkpt>
      <trkpt lat="46.11899" lon="6.23895">
        <ele>683</ele>
        <time>2021-04-17T15:31:56Z</time>
      </trkpt>
      <trkpt lat="46.11892" lon="6.23894">
        <ele>683</ele>
        <time>2021-04-17T15:31:57Z</time>
      </trkpt>
      <trkpt lat="46.11886" lon="6.23892">
        <ele>683</ele>
        <time>2021-04-17T15:31:58Z</time>
      </trkpt>
      <trkpt lat="46.11879" lon="6.23891">
        <ele>683.2</ele>
        <time>2021-04-17T15:31:59Z</time>
      </trkpt>
      <trkpt lat="46.11873" lon="6.23889">
        <ele>683.2</ele>
        <time>2021-04-17T15:32:00Z</time>
      </trkpt>
      <trkpt lat="46.11867" lon="6.23887">
        <ele>683.2</ele>
        <time>2021-04-17T15:32:01Z</time>
      </trkpt>
      <trkpt lat="46.11862" lon="6.23885">
        <ele>683.4</ele>
        <time>2021-04-17T15:32:02Z</time>
      </trkpt>
      <trkpt lat="46.11856" lon="6.23883">
        <ele>683.4</ele>
        <time>2021-04-17T15:32:03Z</time>
      </trkpt>
      <trkpt lat="46.1185" lon="6.23882">
        <ele>683.6</ele>
        <time>2021-04-17T15:32:04Z</time>
      </trkpt>
      <trkpt lat="46.11844" lon="6.23882">
        <ele>683.6</ele>
        <time>2021-04-17T15:32:05Z</time>
      </trkpt>
      <trkpt lat="46.11837" lon="6.23884">
        <ele>684</ele>
        <time>2021-04-17T15:32:06Z</time>
      </trkpt>
      <trkpt lat="46.11831" lon="6.23888">
        <ele>684.2</ele>
        <time>2021-04-17T15:32:07Z</time>
      </trkpt>
      <trkpt lat="46.11825" lon="6.23893">
        <ele>684.2</ele>
        <time>2021-04-17T15:32:08Z</time>
      </trkpt>
      <trkpt lat="46.11819" lon="6.23898">
        <ele>684.2</ele>
        <time>2021-04-17T15:32:09Z</time>
      </trkpt>
      <trkpt lat="46.11812" lon="6.23903">
        <ele>684.4</ele>
        <time>2021-04-17T15:32:10Z</time>
      </trkpt>
      <trkpt lat="46.11805" lon="6.23907">
        <ele>684.4</ele>
        <time>2021-04-17T15:32:11Z</time>
      </trkpt>
      <trkpt lat="46.11798" lon="6.23912">
        <ele>684.4</ele>
        <time>2021-04-17T15:32:12Z</time>
      </trkpt>
      <trkpt lat="46.11791" lon="6.23916">
        <ele>684.4</ele>
        <time>2021-04-17T15:32:13Z</time>
      </trkpt>
      <trkpt lat="46.11784" lon="6.2392">
        <ele>684.4</ele>
        <time>2021-04-17T15:32:14Z</time>
      </trkpt>
      <trkpt lat="46.11778" lon="6.23924">
        <ele>684.4</ele>
        <time>2021-04-17T15:32:15Z</time>
      </trkpt>
      <trkpt lat="46.11771" lon="6.23927">
        <ele>684.6</ele>
        <time>2021-04-17T15:32:16Z</time>
      </trkpt>
      <trkpt lat="46.11764" lon="6.2393">
        <ele>684.2</ele>
        <time>2021-04-17T15:32:17Z</time>
      </trkpt>
      <trkpt lat="46.11758" lon="6.23932">
        <ele>684.4</ele>
        <time>2021-04-17T15:32:18Z</time>
      </trkpt>
      <trkpt lat="46.11751" lon="6.23933">
        <ele>684.2</ele>
        <time>2021-04-17T15:32:19Z</time>
      </trkpt>
      <trkpt lat="46.11744" lon="6.23934">
        <ele>684</ele>
        <time>2021-04-17T15:32:20Z</time>
      </trkpt>
      <trkpt lat="46.11738" lon="6.23933">
        <ele>684</ele>
        <time>2021-04-17T15:32:21Z</time>
      </trkpt>
      <trkpt lat="46.11732" lon="6.23933">
        <ele>684</ele>
        <time>2021-04-17T15:32:22Z</time>
      </trkpt>
      <trkpt lat="46.11726" lon="6.23933">
        <ele>684</ele>
        <time>2021-04-17T15:32:23Z</time>
      </trkpt>
      <trkpt lat="46.11721" lon="6.23935">
        <ele>684</ele>
        <time>2021-04-17T15:32:24Z</time>
      </trkpt>
      <trkpt lat="46.11717" lon="6.23939">
        <ele>683.8</ele>
        <time>2021-04-17T15:32:25Z</time>
      </trkpt>
      <trkpt lat="46.11713" lon="6.23945">
        <ele>683.8</ele>
        <time>2021-04-17T15:32:26Z</time>
      </trkpt>
      <trkpt lat="46.11709" lon="6.23951">
        <ele>683.8</ele>
        <time>2021-04-17T15:32:27Z</time>
      </trkpt>
      <trkpt lat="46.11704" lon="6.23958">
        <ele>683.8</ele>
        <time>2021-04-17T15:32:28Z</time>
      </trkpt>
      <trkpt lat="46.11699" lon="6.23964">
        <ele>683.6</ele>
        <time>2021-04-17T15:32:29Z</time>
      </trkpt>
      <trkpt lat="46.11693" lon="6.2397">
        <ele>683.6</ele>
        <time>2021-04-17T15:32:30Z</time>
      </trkpt>
      <trkpt lat="46.11687" lon="6.23974">
        <ele>683.6</ele>
        <time>2021-04-17T15:32:31Z</time>
      </trkpt>
      <trkpt lat="46.11679" lon="6.23978">
        <ele>683.6</ele>
        <time>2021-04-17T15:32:32Z</time>
      </trkpt>
      <trkpt lat="46.11671" lon="6.23979">
        <ele>683.8</ele>
        <time>2021-04-17T15:32:33Z</time>
      </trkpt>
      <trkpt lat="46.11662" lon="6.23979">
        <ele>683.8</ele>
        <time>2021-04-17T15:32:34Z</time>
      </trkpt>
      <trkpt lat="46.11655" lon="6.23974">
        <ele>683.8</ele>
        <time>2021-04-17T15:32:35Z</time>
      </trkpt>
      <trkpt lat="46.11647" lon="6.23967">
        <ele>683.8</ele>
        <time>2021-04-17T15:32:36Z</time>
      </trkpt>
      <trkpt lat="46.11639" lon="6.23959">
        <ele>683.8</ele>
        <time>2021-04-17T15:32:37Z</time>
      </trkpt>
      <trkpt lat="46.11632" lon="6.23951">
        <ele>683.8</ele>
        <time>2021-04-17T15:32:38Z</time>
      </trkpt>
      <trkpt lat="46.11623" lon="6.23943">
        <ele>683.4</ele>
        <time>2021-04-17T15:32:39Z</time>
      </trkpt>
      <trkpt lat="46.11613" lon="6.23936">
        <ele>683</ele>
        <time>2021-04-17T15:32:40Z</time>
      </trkpt>
      <trkpt lat="46.11603" lon="6.23931">
        <ele>682.2</ele>
        <time>2021-04-17T15:32:41Z</time>
      </trkpt>
      <trkpt lat="46.11592" lon="6.23927">
        <ele>681.4</ele>
        <time>2021-04-17T15:32:42Z</time>
      </trkpt>
      <trkpt lat="46.11582" lon="6.23923">
        <ele>680.8</ele>
        <time>2021-04-17T15:32:43Z</time>
      </trkpt>
      <trkpt lat="46.11561" lon="6.23917">
        <ele>679.2</ele>
        <time>2021-04-17T15:32:45Z</time>
      </trkpt>
      <trkpt lat="46.11551" lon="6.23912">
        <ele>677.8</ele>
        <time>2021-04-17T15:32:46Z</time>
      </trkpt>
      <trkpt lat="46.11541" lon="6.23908">
        <ele>676.2</ele>
        <time>2021-04-17T15:32:47Z</time>
      </trkpt>
      <trkpt lat="46.1153" lon="6.23903">
        <ele>675.2</ele>
        <time>2021-04-17T15:32:48Z</time>
      </trkpt>
      <trkpt lat="46.11511" lon="6.23894">
        <ele>673.6</ele>
        <time>2021-04-17T15:32:50Z</time>
      </trkpt>
      <trkpt lat="46.11501" lon="6.23892">
        <ele>673</ele>
        <time>2021-04-17T15:32:51Z</time>
      </trkpt>
      <trkpt lat="46.11493" lon="6.23892">
        <ele>672.6</ele>
        <time>2021-04-17T15:32:52Z</time>
      </trkpt>
      <trkpt lat="46.11485" lon="6.23894">
        <ele>672.4</ele>
        <time>2021-04-17T15:32:53Z</time>
      </trkpt>
      <trkpt lat="46.11478" lon="6.23899">
        <ele>672.2</ele>
        <time>2021-04-17T15:32:54Z</time>
      </trkpt>
      <trkpt lat="46.11474" lon="6.23907">
        <ele>672</ele>
        <time>2021-04-17T15:32:55Z</time>
      </trkpt>
      <trkpt lat="46.11471" lon="6.23918">
        <ele>671.8</ele>
        <time>2021-04-17T15:32:56Z</time>
      </trkpt>
      <trkpt lat="46.11471" lon="6.23929">
        <ele>671.6</ele>
        <time>2021-04-17T15:32:57Z</time>
      </trkpt>
      <trkpt lat="46.11474" lon="6.23941">
        <ele>671.2</ele>
        <time>2021-04-17T15:32:58Z</time>
      </trkpt>
      <trkpt lat="46.1148" lon="6.23951">
        <ele>671</ele>
        <time>2021-04-17T15:32:59Z</time>
      </trkpt>
      <trkpt lat="46.11486" lon="6.2396">
        <ele>670.4</ele>
        <time>2021-04-17T15:33:00Z</time>
      </trkpt>
      <trkpt lat="46.11494" lon="6.23969">
        <ele>670.2</ele>
        <time>2021-04-17T15:33:01Z</time>
      </trkpt>
      <trkpt lat="46.11503" lon="6.23976">
        <ele>669.8</ele>
        <time>2021-04-17T15:33:02Z</time>
      </trkpt>
      <trkpt lat="46.11511" lon="6.23984">
        <ele>669.2</ele>
        <time>2021-04-17T15:33:03Z</time>
      </trkpt>
      <trkpt lat="46.11518" lon="6.23992">
        <ele>668.4</ele>
        <time>2021-04-17T15:33:04Z</time>
      </trkpt>
      <trkpt lat="46.11527" lon="6.24001">
        <ele>667.4</ele>
        <time>2021-04-17T15:33:05Z</time>
      </trkpt>
      <trkpt lat="46.11535" lon="6.2401">
        <ele>666.4</ele>
        <time>2021-04-17T15:33:06Z</time>
      </trkpt>
      <trkpt lat="46.11543" lon="6.2402">
        <ele>665.6</ele>
        <time>2021-04-17T15:33:07Z</time>
      </trkpt>
      <trkpt lat="46.11552" lon="6.24029">
        <ele>665</ele>
        <time>2021-04-17T15:33:08Z</time>
      </trkpt>
      <trkpt lat="46.1156" lon="6.2404">
        <ele>664.4</ele>
        <time>2021-04-17T15:33:09Z</time>
      </trkpt>
      <trkpt lat="46.11568" lon="6.24051">
        <ele>663.6</ele>
        <time>2021-04-17T15:33:10Z</time>
      </trkpt>
      <trkpt lat="46.11575" lon="6.24061">
        <ele>662.8</ele>
        <time>2021-04-17T15:33:11Z</time>
      </trkpt>
      <trkpt lat="46.11581" lon="6.24073">
        <ele>662</ele>
        <time>2021-04-17T15:33:12Z</time>
      </trkpt>
      <trkpt lat="46.11587" lon="6.24085">
        <ele>660.8</ele>
        <time>2021-04-17T15:33:13Z</time>
      </trkpt>
      <trkpt lat="46.11591" lon="6.24098">
        <ele>659.8</ele>
        <time>2021-04-17T15:33:14Z</time>
      </trkpt>
      <trkpt lat="46.11595" lon="6.24112">
        <ele>659</ele>
        <time>2021-04-17T15:33:15Z</time>
      </trkpt>
      <trkpt lat="46.11598" lon="6.24127">
        <ele>658.2</ele>
        <time>2021-04-17T15:33:16Z</time>
      </trkpt>
      <trkpt lat="46.11601" lon="6.24143">
        <ele>656.8</ele>
        <time>2021-04-17T15:33:17Z</time>
      </trkpt>
      <trkpt lat="46.11603" lon="6.24157">
        <ele>654.8</ele>
        <time>2021-04-17T15:33:18Z</time>
      </trkpt>
      <trkpt lat="46.11606" lon="6.24172">
        <ele>653.4</ele>
        <time>2021-04-17T15:33:19Z</time>
      </trkpt>
      <trkpt lat="46.11608" lon="6.24185">
        <ele>652.4</ele>
        <time>2021-04-17T15:33:20Z</time>
      </trkpt>
      <trkpt lat="46.11611" lon="6.24198">
        <ele>651.6</ele>
        <time>2021-04-17T15:33:21Z</time>
      </trkpt>
      <trkpt lat="46.11615" lon="6.24211">
        <ele>651</ele>
        <time>2021-04-17T15:33:22Z</time>
      </trkpt>
      <trkpt lat="46.1162" lon="6.24222">
        <ele>650.8</ele>
        <time>2021-04-17T15:33:23Z</time>
      </trkpt>
      <trkpt lat="46.11627" lon="6.24231">
        <ele>650.4</ele>
        <time>2021-04-17T15:33:24Z</time>
      </trkpt>
      <trkpt lat="46.11636" lon="6.24238">
        <ele>649.8</ele>
        <time>2021-04-17T15:33:25Z</time>
      </trkpt>
      <trkpt lat="46.11644" lon="6.24242">
        <ele>649</ele>
        <time>2021-04-17T15:33:26Z</time>
      </trkpt>
      <trkpt lat="46.11654" lon="6.24244">
        <ele>648.6</ele>
        <time>2021-04-17T15:33:27Z</time>
      </trkpt>
      <trkpt lat="46.11663" lon="6.24245">
        <ele>648.2</ele>
        <time>2021-04-17T15:33:28Z</time>
      </trkpt>
      <trkpt lat="46.11673" lon="6.24247">
        <ele>647.2</ele>
        <time>2021-04-17T15:33:29Z</time>
      </trkpt>
      <trkpt lat="46.11682" lon="6.24248">
        <ele>646.6</ele>
        <time>2021-04-17T15:33:30Z</time>
      </trkpt>
      <trkpt lat="46.11692" lon="6.24251">
        <ele>645.4</ele>
        <time>2021-04-17T15:33:31Z</time>
      </trkpt>
      <trkpt lat="46.11701" lon="6.24254">
        <ele>644.8</ele>
        <time>2021-04-17T15:33:32Z</time>
      </trkpt>
      <trkpt lat="46.11711" lon="6.24258">
        <ele>643</ele>
        <time>2021-04-17T15:33:33Z</time>
      </trkpt>
      <trkpt lat="46.11721" lon="6.24263">
        <ele>641.4</ele>
        <time>2021-04-17T15:33:34Z</time>
      </trkpt>
      <trkpt lat="46.1173" lon="6.24269">
        <ele>640.2</ele>
        <time>2021-04-17T15:33:35Z</time>
      </trkpt>
      <trkpt lat="46.11739" lon="6.24276">
        <ele>639.8</ele>
        <time>2021-04-17T15:33:36Z</time>
      </trkpt>
      <trkpt lat="46.11757" lon="6.24294">
        <ele>638.4</ele>
        <time>2021-04-17T15:33:38Z</time>
      </trkpt>
      <trkpt lat="46.11765" lon="6.24303">
        <ele>637.6</ele>
        <time>2021-04-17T15:33:39Z</time>
      </trkpt>
      <trkpt lat="46.11772" lon="6.24313">
        <ele>636.4</ele>
        <time>2021-04-17T15:33:40Z</time>
      </trkpt>
      <trkpt lat="46.1178" lon="6.24321">
        <ele>635.8</ele>
        <time>2021-04-17T15:33:41Z</time>
      </trkpt>
      <trkpt lat="46.11789" lon="6.24328">
        <ele>635.4</ele>
        <time>2021-04-17T15:33:42Z</time>
      </trkpt>
      <trkpt lat="46.11797" lon="6.24333">
        <ele>634</ele>
        <time>2021-04-17T15:33:43Z</time>
      </trkpt>
      <trkpt lat="46.11805" lon="6.24336">
        <ele>632.8</ele>
        <time>2021-04-17T15:33:44Z</time>
      </trkpt>
      <trkpt lat="46.1181" lon="6.24341">
        <ele>631.8</ele>
        <time>2021-04-17T15:33:45Z</time>
      </trkpt>
      <trkpt lat="46.11814" lon="6.24347">
        <ele>631.6</ele>
        <time>2021-04-17T15:33:46Z</time>
      </trkpt>
      <trkpt lat="46.11815" lon="6.24355">
        <ele>631.2</ele>
        <time>2021-04-17T15:33:47Z</time>
      </trkpt>
      <trkpt lat="46.11813" lon="6.24362">
        <ele>631</ele>
        <time>2021-04-17T15:33:48Z</time>
      </trkpt>
      <trkpt lat="46.11808" lon="6.24367">
        <ele>630</ele>
        <time>2021-04-17T15:33:49Z</time>
      </trkpt>
      <trkpt lat="46.11801" lon="6.24369">
        <ele>629</ele>
        <time>2021-04-17T15:33:50Z</time>
      </trkpt>
      <trkpt lat="46.11794" lon="6.24368">
        <ele>628.4</ele>
        <time>2021-04-17T15:33:51Z</time>
      </trkpt>
      <trkpt lat="46.11786" lon="6.24367">
        <ele>628.2</ele>
        <time>2021-04-17T15:33:52Z</time>
      </trkpt>
      <trkpt lat="46.11778" lon="6.24366">
        <ele>627.8</ele>
        <time>2021-04-17T15:33:53Z</time>
      </trkpt>
      <trkpt lat="46.11769" lon="6.24364">
        <ele>627.4</ele>
        <time>2021-04-17T15:33:54Z</time>
      </trkpt>
      <trkpt lat="46.11759" lon="6.24363">
        <ele>627</ele>
        <time>2021-04-17T15:33:55Z</time>
      </trkpt>
      <trkpt lat="46.1175" lon="6.24363">
        <ele>626.2</ele>
        <time>2021-04-17T15:33:56Z</time>
      </trkpt>
      <trkpt lat="46.1174" lon="6.24365">
        <ele>625.2</ele>
        <time>2021-04-17T15:33:57Z</time>
      </trkpt>
      <trkpt lat="46.1173" lon="6.24368">
        <ele>624.6</ele>
        <time>2021-04-17T15:33:58Z</time>
      </trkpt>
      <trkpt lat="46.11721" lon="6.24372">
        <ele>624</ele>
        <time>2021-04-17T15:33:59Z</time>
      </trkpt>
      <trkpt lat="46.11712" lon="6.24377">
        <ele>623.6</ele>
        <time>2021-04-17T15:34:00Z</time>
      </trkpt>
      <trkpt lat="46.11703" lon="6.24384">
        <ele>623</ele>
        <time>2021-04-17T15:34:01Z</time>
      </trkpt>
      <trkpt lat="46.11695" lon="6.24394">
        <ele>623</ele>
        <time>2021-04-17T15:34:02Z</time>
      </trkpt>
      <trkpt lat="46.11687" lon="6.24405">
        <ele>622.4</ele>
        <time>2021-04-17T15:34:03Z</time>
      </trkpt>
      <trkpt lat="46.1168" lon="6.24417">
        <ele>621.8</ele>
        <time>2021-04-17T15:34:04Z</time>
      </trkpt>
      <trkpt lat="46.11674" lon="6.24429">
        <ele>620.4</ele>
        <time>2021-04-17T15:34:05Z</time>
      </trkpt>
      <trkpt lat="46.11667" lon="6.24441">
        <ele>619.8</ele>
        <time>2021-04-17T15:34:06Z</time>
      </trkpt>
      <trkpt lat="46.11661" lon="6.24452">
        <ele>618.6</ele>
        <time>2021-04-17T15:34:07Z</time>
      </trkpt>
      <trkpt lat="46.11656" lon="6.24464">
        <ele>617.8</ele>
        <time>2021-04-17T15:34:08Z</time>
      </trkpt>
      <trkpt lat="46.11652" lon="6.24476">
        <ele>616.8</ele>
        <time>2021-04-17T15:34:09Z</time>
      </trkpt>
      <trkpt lat="46.1165" lon="6.24489">
        <ele>616</ele>
        <time>2021-04-17T15:34:10Z</time>
      </trkpt>
      <trkpt lat="46.11648" lon="6.24503">
        <ele>614.6</ele>
        <time>2021-04-17T15:34:11Z</time>
      </trkpt>
      <trkpt lat="46.11646" lon="6.24531">
        <ele>612.2</ele>
        <time>2021-04-17T15:34:13Z</time>
      </trkpt>
      <trkpt lat="46.11645" lon="6.24544">
        <ele>611.4</ele>
        <time>2021-04-17T15:34:14Z</time>
      </trkpt>
      <trkpt lat="46.11645" lon="6.24555">
        <ele>610.8</ele>
        <time>2021-04-17T15:34:15Z</time>
      </trkpt>
      <trkpt lat="46.11644" lon="6.24565">
        <ele>609.2</ele>
        <time>2021-04-17T15:34:16Z</time>
      </trkpt>
      <trkpt lat="46.11644" lon="6.2458">
        <ele>608</ele>
        <time>2021-04-17T15:34:18Z</time>
      </trkpt>
      <trkpt lat="46.11643" lon="6.24584">
        <ele>607.4</ele>
        <time>2021-04-17T15:34:19Z</time>
      </trkpt>
      <trkpt lat="46.11641" lon="6.24586">
        <ele>607</ele>
        <time>2021-04-17T15:34:20Z</time>
      </trkpt>
      <trkpt lat="46.1164" lon="6.24589">
        <ele>606.6</ele>
        <time>2021-04-17T15:34:21Z</time>
      </trkpt>
      <trkpt lat="46.11637" lon="6.2459">
        <ele>605.6</ele>
        <time>2021-04-17T15:34:22Z</time>
      </trkpt>
      <trkpt lat="46.11633" lon="6.24592">
        <ele>605.2</ele>
        <time>2021-04-17T15:34:23Z</time>
      </trkpt>
      <trkpt lat="46.11629" lon="6.24593">
        <ele>604.8</ele>
        <time>2021-04-17T15:34:24Z</time>
      </trkpt>
      <trkpt lat="46.11619" lon="6.24595">
        <ele>604.6</ele>
        <time>2021-04-17T15:34:26Z</time>
      </trkpt>
      <trkpt lat="46.11615" lon="6.24597">
        <ele>604.4</ele>
        <time>2021-04-17T15:34:27Z</time>
      </trkpt>
      <trkpt lat="46.11613" lon="6.24602">
        <ele>604.4</ele>
        <time>2021-04-17T15:34:28Z</time>
      </trkpt>
      <trkpt lat="46.11613" lon="6.24608">
        <ele>604.2</ele>
        <time>2021-04-17T15:34:29Z</time>
      </trkpt>
      <trkpt lat="46.11613" lon="6.24623">
        <ele>603.4</ele>
        <time>2021-04-17T15:34:31Z</time>
      </trkpt>
      <trkpt lat="46.11613" lon="6.2463">
        <ele>603</ele>
        <time>2021-04-17T15:34:32Z</time>
      </trkpt>
      <trkpt lat="46.11615" lon="6.24637">
        <ele>603</ele>
        <time>2021-04-17T15:34:33Z</time>
      </trkpt>
      <trkpt lat="46.11617" lon="6.24642">
        <ele>602.8</ele>
        <time>2021-04-17T15:34:34Z</time>
      </trkpt>
      <trkpt lat="46.1162" lon="6.24647">
        <ele>602.8</ele>
        <time>2021-04-17T15:34:35Z</time>
      </trkpt>
      <trkpt lat="46.11622" lon="6.24651">
        <ele>602.8</ele>
        <time>2021-04-17T15:34:36Z</time>
      </trkpt>
      <trkpt lat="46.11625" lon="6.24655">
        <ele>602.6</ele>
        <time>2021-04-17T15:34:37Z</time>
      </trkpt>
      <trkpt lat="46.11628" lon="6.24658">
        <ele>602.6</ele>
        <time>2021-04-17T15:34:38Z</time>
      </trkpt>
      <trkpt lat="46.11631" lon="6.24662">
        <ele>602.6</ele>
        <time>2021-04-17T15:34:39Z</time>
      </trkpt>
      <trkpt lat="46.11634" lon="6.24665">
        <ele>602.6</ele>
        <time>2021-04-17T15:34:40Z</time>
      </trkpt>
      <trkpt lat="46.11636" lon="6.24668">
        <ele>602.8</ele>
        <time>2021-04-17T15:34:41Z</time>
      </trkpt>
      <trkpt lat="46.11638" lon="6.24671">
        <ele>603</ele>
        <time>2021-04-17T15:34:42Z</time>
      </trkpt>
      <trkpt lat="46.11641" lon="6.24674">
        <ele>603.2</ele>
        <time>2021-04-17T15:34:43Z</time>
      </trkpt>
      <trkpt lat="46.11643" lon="6.24677">
        <ele>603.4</ele>
        <time>2021-04-17T15:34:44Z</time>
      </trkpt>
      <trkpt lat="46.11646" lon="6.24679">
        <ele>603.8</ele>
        <time>2021-04-17T15:34:45Z</time>
      </trkpt>
      <trkpt lat="46.11649" lon="6.24681">
        <ele>604.2</ele>
        <time>2021-04-17T15:34:46Z</time>
      </trkpt>
      <trkpt lat="46.11651" lon="6.24684">
        <ele>604.8</ele>
        <time>2021-04-17T15:34:47Z</time>
      </trkpt>
      <trkpt lat="46.11653" lon="6.24686">
        <ele>605</ele>
        <time>2021-04-17T15:34:48Z</time>
      </trkpt>
      <trkpt lat="46.11655" lon="6.24688">
        <ele>605.4</ele>
        <time>2021-04-17T15:34:49Z</time>
      </trkpt>
      <trkpt lat="46.11657" lon="6.2469">
        <ele>606</ele>
        <time>2021-04-17T15:34:50Z</time>
      </trkpt>
      <trkpt lat="46.1166" lon="6.24692">
        <ele>606.4</ele>
        <time>2021-04-17T15:34:51Z</time>
      </trkpt>
      <trkpt lat="46.11663" lon="6.24694">
        <ele>606.8</ele>
        <time>2021-04-17T15:34:52Z</time>
      </trkpt>
      <trkpt lat="46.11665" lon="6.24696">
        <ele>607.2</ele>
        <time>2021-04-17T15:34:53Z</time>
      </trkpt>
      <trkpt lat="46.11668" lon="6.24699">
        <ele>607.6</ele>
        <time>2021-04-17T15:34:54Z</time>
      </trkpt>
      <trkpt lat="46.1167" lon="6.247">
        <ele>608</ele>
        <time>2021-04-17T15:34:55Z</time>
      </trkpt>
      <trkpt lat="46.11672" lon="6.24702">
        <ele>608.4</ele>
        <time>2021-04-17T15:34:56Z</time>
      </trkpt>
      <trkpt lat="46.11674" lon="6.24705">
        <ele>608.8</ele>
        <time>2021-04-17T15:34:57Z</time>
      </trkpt>
      <trkpt lat="46.11676" lon="6.24707">
        <ele>609</ele>
        <time>2021-04-17T15:34:58Z</time>
      </trkpt>
      <trkpt lat="46.11678" lon="6.24709">
        <ele>609.4</ele>
        <time>2021-04-17T15:34:59Z</time>
      </trkpt>
      <trkpt lat="46.11681" lon="6.2471">
        <ele>609.6</ele>
        <time>2021-04-17T15:35:00Z</time>
      </trkpt>
      <trkpt lat="46.11683" lon="6.24712">
        <ele>610</ele>
        <time>2021-04-17T15:35:01Z</time>
      </trkpt>
      <trkpt lat="46.11684" lon="6.24713">
        <ele>610.2</ele>
        <time>2021-04-17T15:35:02Z</time>
      </trkpt>
      <trkpt lat="46.11686" lon="6.24714">
        <ele>610.6</ele>
        <time>2021-04-17T15:35:03Z</time>
      </trkpt>
      <trkpt lat="46.11688" lon="6.24716">
        <ele>611</ele>
        <time>2021-04-17T15:35:04Z</time>
      </trkpt>
      <trkpt lat="46.1169" lon="6.24717">
        <ele>611.4</ele>
        <time>2021-04-17T15:35:05Z</time>
      </trkpt>
      <trkpt lat="46.11692" lon="6.24718">
        <ele>611.6</ele>
        <time>2021-04-17T15:35:06Z</time>
      </trkpt>
      <trkpt lat="46.11694" lon="6.24718">
        <ele>612.2</ele>
        <time>2021-04-17T15:35:07Z</time>
      </trkpt>
      <trkpt lat="46.11696" lon="6.24718">
        <ele>612.4</ele>
        <time>2021-04-17T15:35:08Z</time>
      </trkpt>
      <trkpt lat="46.11698" lon="6.24719">
        <ele>613</ele>
        <time>2021-04-17T15:35:09Z</time>
      </trkpt>
      <trkpt lat="46.117" lon="6.24719">
        <ele>613.2</ele>
        <time>2021-04-17T15:35:10Z</time>
      </trkpt>
      <trkpt lat="46.11703" lon="6.24719">
        <ele>613.6</ele>
        <time>2021-04-17T15:35:11Z</time>
      </trkpt>
      <trkpt lat="46.11705" lon="6.2472">
        <ele>614</ele>
        <time>2021-04-17T15:35:12Z</time>
      </trkpt>
      <trkpt lat="46.11707" lon="6.2472">
        <ele>614.2</ele>
        <time>2021-04-17T15:35:13Z</time>
      </trkpt>
      <trkpt lat="46.1171" lon="6.2472">
        <ele>614.4</ele>
        <time>2021-04-17T15:35:14Z</time>
      </trkpt>
      <trkpt lat="46.11712" lon="6.24721">
        <ele>614.6</ele>
        <time>2021-04-17T15:35:15Z</time>
      </trkpt>
      <trkpt lat="46.11715" lon="6.24722">
        <ele>615</ele>
        <time>2021-04-17T15:35:16Z</time>
      </trkpt>
      <trkpt lat="46.11717" lon="6.24723">
        <ele>615.2</ele>
        <time>2021-04-17T15:35:17Z</time>
      </trkpt>
      <trkpt lat="46.1172" lon="6.24723">
        <ele>615.6</ele>
        <time>2021-04-17T15:35:18Z</time>
      </trkpt>
      <trkpt lat="46.11722" lon="6.24725">
        <ele>616</ele>
        <time>2021-04-17T15:35:19Z</time>
      </trkpt>
      <trkpt lat="46.11725" lon="6.24727">
        <ele>616.2</ele>
        <time>2021-04-17T15:35:20Z</time>
      </trkpt>
      <trkpt lat="46.11727" lon="6.24729">
        <ele>616.4</ele>
        <time>2021-04-17T15:35:21Z</time>
      </trkpt>
      <trkpt lat="46.1173" lon="6.24731">
        <ele>616.6</ele>
        <time>2021-04-17T15:35:22Z</time>
      </trkpt>
      <trkpt lat="46.11732" lon="6.24733">
        <ele>617</ele>
        <time>2021-04-17T15:35:23Z</time>
      </trkpt>
      <trkpt lat="46.11734" lon="6.24736">
        <ele>617.2</ele>
        <time>2021-04-17T15:35:24Z</time>
      </trkpt>
      <trkpt lat="46.11736" lon="6.24738">
        <ele>617.4</ele>
        <time>2021-04-17T15:35:25Z</time>
      </trkpt>
      <trkpt lat="46.11737" lon="6.24741">
        <ele>617.8</ele>
        <time>2021-04-17T15:35:26Z</time>
      </trkpt>
      <trkpt lat="46.11738" lon="6.24744">
        <ele>618.2</ele>
        <time>2021-04-17T15:35:27Z</time>
      </trkpt>
      <trkpt lat="46.11739" lon="6.24747">
        <ele>618.4</ele>
        <time>2021-04-17T15:35:28Z</time>
      </trkpt>
      <trkpt lat="46.1174" lon="6.24749">
        <ele>618.8</ele>
        <time>2021-04-17T15:35:29Z</time>
      </trkpt>
      <trkpt lat="46.1174" lon="6.24751">
        <ele>619.2</ele>
        <time>2021-04-17T15:35:30Z</time>
      </trkpt>
      <trkpt lat="46.1174" lon="6.24754">
        <ele>619.4</ele>
        <time>2021-04-17T15:35:31Z</time>
      </trkpt>
      <trkpt lat="46.1174" lon="6.24756">
        <ele>619.4</ele>
        <time>2021-04-17T15:35:32Z</time>
      </trkpt>
      <trkpt lat="46.11739" lon="6.24759">
        <ele>619.8</ele>
        <time>2021-04-17T15:35:33Z</time>
      </trkpt>
      <trkpt lat="46.11738" lon="6.24762">
        <ele>620.2</ele>
        <time>2021-04-17T15:35:34Z</time>
      </trkpt>
      <trkpt lat="46.11736" lon="6.24764">
        <ele>620.6</ele>
        <time>2021-04-17T15:35:35Z</time>
      </trkpt>
      <trkpt lat="46.11734" lon="6.24766">
        <ele>620.8</ele>
        <time>2021-04-17T15:35:36Z</time>
      </trkpt>
      <trkpt lat="46.11732" lon="6.24768">
        <ele>621</ele>
        <time>2021-04-17T15:35:37Z</time>
      </trkpt>
      <trkpt lat="46.1173" lon="6.2477">
        <ele>621.2</ele>
        <time>2021-04-17T15:35:38Z</time>
      </trkpt>
      <trkpt lat="46.11727" lon="6.24771">
        <ele>621.6</ele>
        <time>2021-04-17T15:35:39Z</time>
      </trkpt>
      <trkpt lat="46.11725" lon="6.24772">
        <ele>621.6</ele>
        <time>2021-04-17T15:35:40Z</time>
      </trkpt>
      <trkpt lat="46.11722" lon="6.24773">
        <ele>621.8</ele>
        <time>2021-04-17T15:35:41Z</time>
      </trkpt>
      <trkpt lat="46.1172" lon="6.24774">
        <ele>622.2</ele>
        <time>2021-04-17T15:35:42Z</time>
      </trkpt>
      <trkpt lat="46.11717" lon="6.24774">
        <ele>622.4</ele>
        <time>2021-04-17T15:35:43Z</time>
      </trkpt>
      <trkpt lat="46.11714" lon="6.24774">
        <ele>622.4</ele>
        <time>2021-04-17T15:35:44Z</time>
      </trkpt>
      <trkpt lat="46.11712" lon="6.24775">
        <ele>622.8</ele>
        <time>2021-04-17T15:35:45Z</time>
      </trkpt>
      <trkpt lat="46.11709" lon="6.24775">
        <ele>622.6</ele>
        <time>2021-04-17T15:35:46Z</time>
      </trkpt>
      <trkpt lat="46.11707" lon="6.24775">
        <ele>622.8</ele>
        <time>2021-04-17T15:35:47Z</time>
      </trkpt>
      <trkpt lat="46.11705" lon="6.24776">
        <ele>623</ele>
        <time>2021-04-17T15:35:48Z</time>
      </trkpt>
      <trkpt lat="46.11702" lon="6.24777">
        <ele>623.2</ele>
        <time>2021-04-17T15:35:49Z</time>
      </trkpt>
      <trkpt lat="46.117" lon="6.24778">
        <ele>623.6</ele>
        <time>2021-04-17T15:35:50Z</time>
      </trkpt>
      <trkpt lat="46.11698" lon="6.24779">
        <ele>623.8</ele>
        <time>2021-04-17T15:35:51Z</time>
      </trkpt>
      <trkpt lat="46.11696" lon="6.24781">
        <ele>623.8</ele>
        <time>2021-04-17T15:35:52Z</time>
      </trkpt>
      <trkpt lat="46.11694" lon="6.24784">
        <ele>624.2</ele>
        <time>2021-04-17T15:35:53Z</time>
      </trkpt>
      <trkpt lat="46.11693" lon="6.24786">
        <ele>624.2</ele>
        <time>2021-04-17T15:35:54Z</time>
      </trkpt>
      <trkpt lat="46.11692" lon="6.24789">
        <ele>624.6</ele>
        <time>2021-04-17T15:35:55Z</time>
      </trkpt>
      <trkpt lat="46.11692" lon="6.24792">
        <ele>624.8</ele>
        <time>2021-04-17T15:35:56Z</time>
      </trkpt>
      <trkpt lat="46.11691" lon="6.24796">
        <ele>625</ele>
        <time>2021-04-17T15:35:57Z</time>
      </trkpt>
      <trkpt lat="46.11691" lon="6.24799">
        <ele>625.2</ele>
        <time>2021-04-17T15:35:58Z</time>
      </trkpt>
      <trkpt lat="46.11691" lon="6.24801">
        <ele>625.6</ele>
        <time>2021-04-17T15:35:59Z</time>
      </trkpt>
      <trkpt lat="46.11691" lon="6.24804">
        <ele>625.6</ele>
        <time>2021-04-17T15:36:00Z</time>
      </trkpt>
      <trkpt lat="46.11692" lon="6.24806">
        <ele>625.6</ele>
        <time>2021-04-17T15:36:01Z</time>
      </trkpt>
      <trkpt lat="46.11692" lon="6.24809">
        <ele>625.8</ele>
        <time>2021-04-17T15:36:02Z</time>
      </trkpt>
      <trkpt lat="46.11693" lon="6.24812">
        <ele>626.2</ele>
        <time>2021-04-17T15:36:03Z</time>
      </trkpt>
      <trkpt lat="46.11694" lon="6.24814">
        <ele>626.4</ele>
        <time>2021-04-17T15:36:04Z</time>
      </trkpt>
      <trkpt lat="46.11696" lon="6.24817">
        <ele>626.6</ele>
        <time>2021-04-17T15:36:05Z</time>
      </trkpt>
      <trkpt lat="46.11697" lon="6.24819">
        <ele>627</ele>
        <time>2021-04-17T15:36:06Z</time>
      </trkpt>
      <trkpt lat="46.11698" lon="6.24821">
        <ele>627.2</ele>
        <time>2021-04-17T15:36:07Z</time>
      </trkpt>
      <trkpt lat="46.11699" lon="6.24823">
        <ele>627.8</ele>
        <time>2021-04-17T15:36:08Z</time>
      </trkpt>
      <trkpt lat="46.11702" lon="6.24824">
        <ele>627.8</ele>
        <time>2021-04-17T15:36:09Z</time>
      </trkpt>
      <trkpt lat="46.11704" lon="6.24825">
        <ele>628</ele>
        <time>2021-04-17T15:36:10Z</time>
      </trkpt>
      <trkpt lat="46.11705" lon="6.24826">
        <ele>628.6</ele>
        <time>2021-04-17T15:36:11Z</time>
      </trkpt>
      <trkpt lat="46.11707" lon="6.24827">
        <ele>628.8</ele>
        <time>2021-04-17T15:36:12Z</time>
      </trkpt>
      <trkpt lat="46.11709" lon="6.24827">
        <ele>629</ele>
        <time>2021-04-17T15:36:13Z</time>
      </trkpt>
      <trkpt lat="46.11711" lon="6.24828">
        <ele>629.2</ele>
        <time>2021-04-17T15:36:14Z</time>
      </trkpt>
      <trkpt lat="46.11712" lon="6.24828">
        <ele>629.6</ele>
        <time>2021-04-17T15:36:15Z</time>
      </trkpt>
      <trkpt lat="46.11713" lon="6.24828">
        <ele>629.8</ele>
        <time>2021-04-17T15:36:16Z</time>
      </trkpt>
      <trkpt lat="46.11715" lon="6.24828">
        <ele>630</ele>
        <time>2021-04-17T15:36:17Z</time>
      </trkpt>
      <trkpt lat="46.11717" lon="6.24828">
        <ele>630.4</ele>
        <time>2021-04-17T15:36:18Z</time>
      </trkpt>
      <trkpt lat="46.11719" lon="6.24828">
        <ele>630.6</ele>
        <time>2021-04-17T15:36:19Z</time>
      </trkpt>
      <trkpt lat="46.11722" lon="6.24828">
        <ele>630.8</ele>
        <time>2021-04-17T15:36:20Z</time>
      </trkpt>
      <trkpt lat="46.11724" lon="6.24827">
        <ele>631</ele>
        <time>2021-04-17T15:36:21Z</time>
      </trkpt>
      <trkpt lat="46.11726" lon="6.24827">
        <ele>631.2</ele>
        <time>2021-04-17T15:36:22Z</time>
      </trkpt>
      <trkpt lat="46.11729" lon="6.24827">
        <ele>631.4</ele>
        <time>2021-04-17T15:36:23Z</time>
      </trkpt>
      <trkpt lat="46.11731" lon="6.24827">
        <ele>631.6</ele>
        <time>2021-04-17T15:36:24Z</time>
      </trkpt>
      <trkpt lat="46.11734" lon="6.24827">
        <ele>631.6</ele>
        <time>2021-04-17T15:36:25Z</time>
      </trkpt>
      <trkpt lat="46.11736" lon="6.24827">
        <ele>631.8</ele>
        <time>2021-04-17T15:36:26Z</time>
      </trkpt>
      <trkpt lat="46.11739" lon="6.24826">
        <ele>631.8</ele>
        <time>2021-04-17T15:36:27Z</time>
      </trkpt>
      <trkpt lat="46.11742" lon="6.24827">
        <ele>631.8</ele>
        <time>2021-04-17T15:36:28Z</time>
      </trkpt>
      <trkpt lat="46.11745" lon="6.24827">
        <ele>631.8</ele>
        <time>2021-04-17T15:36:29Z</time>
      </trkpt>
      <trkpt lat="46.11747" lon="6.24827">
        <ele>631.8</ele>
        <time>2021-04-17T15:36:30Z</time>
      </trkpt>
      <trkpt lat="46.1175" lon="6.24828">
        <ele>632</ele>
        <time>2021-04-17T15:36:31Z</time>
      </trkpt>
      <trkpt lat="46.11753" lon="6.24828">
        <ele>632.2</ele>
        <time>2021-04-17T15:36:32Z</time>
      </trkpt>
      <trkpt lat="46.11756" lon="6.24829">
        <ele>632.6</ele>
        <time>2021-04-17T15:36:33Z</time>
      </trkpt>
      <trkpt lat="46.11759" lon="6.24831">
        <ele>632.8</ele>
        <time>2021-04-17T15:36:34Z</time>
      </trkpt>
      <trkpt lat="46.11761" lon="6.24833">
        <ele>633.2</ele>
        <time>2021-04-17T15:36:35Z</time>
      </trkpt>
      <trkpt lat="46.11764" lon="6.24835">
        <ele>633.4</ele>
        <time>2021-04-17T15:36:36Z</time>
      </trkpt>
      <trkpt lat="46.11766" lon="6.24838">
        <ele>633.6</ele>
        <time>2021-04-17T15:36:37Z</time>
      </trkpt>
      <trkpt lat="46.11768" lon="6.24841">
        <ele>633.8</ele>
        <time>2021-04-17T15:36:38Z</time>
      </trkpt>
      <trkpt lat="46.1177" lon="6.24844">
        <ele>633.8</ele>
        <time>2021-04-17T15:36:39Z</time>
      </trkpt>
      <trkpt lat="46.11771" lon="6.24847">
        <ele>634.4</ele>
        <time>2021-04-17T15:36:40Z</time>
      </trkpt>
      <trkpt lat="46.11772" lon="6.2485">
        <ele>634.6</ele>
        <time>2021-04-17T15:36:41Z</time>
      </trkpt>
      <trkpt lat="46.11773" lon="6.24853">
        <ele>634.6</ele>
        <time>2021-04-17T15:36:42Z</time>
      </trkpt>
      <trkpt lat="46.11773" lon="6.24857">
        <ele>634.8</ele>
        <time>2021-04-17T15:36:43Z</time>
      </trkpt>
      <trkpt lat="46.11774" lon="6.2486">
        <ele>635</ele>
        <time>2021-04-17T15:36:44Z</time>
      </trkpt>
      <trkpt lat="46.11774" lon="6.24864">
        <ele>635.2</ele>
        <time>2021-04-17T15:36:45Z</time>
      </trkpt>
      <trkpt lat="46.11773" lon="6.24868">
        <ele>635.6</ele>
        <time>2021-04-17T15:36:46Z</time>
      </trkpt>
      <trkpt lat="46.11773" lon="6.24872">
        <ele>636</ele>
        <time>2021-04-17T15:36:47Z</time>
      </trkpt>
      <trkpt lat="46.11773" lon="6.24876">
        <ele>636.2</ele>
        <time>2021-04-17T15:36:48Z</time>
      </trkpt>
      <trkpt lat="46.11773" lon="6.2488">
        <ele>636.6</ele>
        <time>2021-04-17T15:36:49Z</time>
      </trkpt>
      <trkpt lat="46.11772" lon="6.24885">
        <ele>636.8</ele>
        <time>2021-04-17T15:36:50Z</time>
      </trkpt>
      <trkpt lat="46.11772" lon="6.24889">
        <ele>637</ele>
        <time>2021-04-17T15:36:51Z</time>
      </trkpt>
      <trkpt lat="46.11771" lon="6.24893">
        <ele>637.4</ele>
        <time>2021-04-17T15:36:52Z</time>
      </trkpt>
      <trkpt lat="46.11771" lon="6.24897">
        <ele>637.4</ele>
        <time>2021-04-17T15:36:53Z</time>
      </trkpt>
      <trkpt lat="46.11771" lon="6.24901">
        <ele>637.8</ele>
        <time>2021-04-17T15:36:54Z</time>
      </trkpt>
      <trkpt lat="46.11771" lon="6.24906">
        <ele>638</ele>
        <time>2021-04-17T15:36:55Z</time>
      </trkpt>
      <trkpt lat="46.11771" lon="6.2491">
        <ele>637.8</ele>
        <time>2021-04-17T15:36:56Z</time>
      </trkpt>
      <trkpt lat="46.11771" lon="6.24914">
        <ele>637.8</ele>
        <time>2021-04-17T15:36:57Z</time>
      </trkpt>
      <trkpt lat="46.11771" lon="6.24919">
        <ele>638.2</ele>
        <time>2021-04-17T15:36:58Z</time>
      </trkpt>
      <trkpt lat="46.11771" lon="6.24923">
        <ele>638.2</ele>
        <time>2021-04-17T15:36:59Z</time>
      </trkpt>
      <trkpt lat="46.11771" lon="6.24927">
        <ele>638.4</ele>
        <time>2021-04-17T15:37:00Z</time>
      </trkpt>
      <trkpt lat="46.11771" lon="6.24932">
        <ele>638.8</ele>
        <time>2021-04-17T15:37:01Z</time>
      </trkpt>
      <trkpt lat="46.1177" lon="6.24936">
        <ele>638.8</ele>
        <time>2021-04-17T15:37:02Z</time>
      </trkpt>
      <trkpt lat="46.1177" lon="6.24941">
        <ele>638.8</ele>
        <time>2021-04-17T15:37:03Z</time>
      </trkpt>
      <trkpt lat="46.11771" lon="6.24946">
        <ele>639</ele>
        <time>2021-04-17T15:37:04Z</time>
      </trkpt>
      <trkpt lat="46.11772" lon="6.24951">
        <ele>639.2</ele>
        <time>2021-04-17T15:37:05Z</time>
      </trkpt>
      <trkpt lat="46.11774" lon="6.24956">
        <ele>639.2</ele>
        <time>2021-04-17T15:37:06Z</time>
      </trkpt>
      <trkpt lat="46.11776" lon="6.24963">
        <ele>639.2</ele>
        <time>2021-04-17T15:37:07Z</time>
      </trkpt>
      <trkpt lat="46.11778" lon="6.24969">
        <ele>639.2</ele>
        <time>2021-04-17T15:37:08Z</time>
      </trkpt>
      <trkpt lat="46.1178" lon="6.24977">
        <ele>639.2</ele>
        <time>2021-04-17T15:37:09Z</time>
      </trkpt>
      <trkpt lat="46.11783" lon="6.24985">
        <ele>639.2</ele>
        <time>2021-04-17T15:37:10Z</time>
      </trkpt>
      <trkpt lat="46.11785" lon="6.24993">
        <ele>639.2</ele>
        <time>2021-04-17T15:37:11Z</time>
      </trkpt>
      <trkpt lat="46.11787" lon="6.25003">
        <ele>639.4</ele>
        <time>2021-04-17T15:37:12Z</time>
      </trkpt>
      <trkpt lat="46.11789" lon="6.25013">
        <ele>639.2</ele>
        <time>2021-04-17T15:37:13Z</time>
      </trkpt>
      <trkpt lat="46.11789" lon="6.25024">
        <ele>639.2</ele>
        <time>2021-04-17T15:37:14Z</time>
      </trkpt>
      <trkpt lat="46.11788" lon="6.25035">
        <ele>639</ele>
        <time>2021-04-17T15:37:15Z</time>
      </trkpt>
      <trkpt lat="46.11786" lon="6.25046">
        <ele>638.6</ele>
        <time>2021-04-17T15:37:16Z</time>
      </trkpt>
      <trkpt lat="46.11784" lon="6.25058">
        <ele>638.2</ele>
        <time>2021-04-17T15:37:17Z</time>
      </trkpt>
      <trkpt lat="46.11782" lon="6.25071">
        <ele>637.6</ele>
        <time>2021-04-17T15:37:18Z</time>
      </trkpt>
      <trkpt lat="46.1178" lon="6.25084">
        <ele>637.2</ele>
        <time>2021-04-17T15:37:19Z</time>
      </trkpt>
      <trkpt lat="46.11778" lon="6.25097">
        <ele>636.8</ele>
        <time>2021-04-17T15:37:20Z</time>
      </trkpt>
      <trkpt lat="46.11776" lon="6.25111">
        <ele>636</ele>
        <time>2021-04-17T15:37:21Z</time>
      </trkpt>
      <trkpt lat="46.11773" lon="6.25125">
        <ele>635.2</ele>
        <time>2021-04-17T15:37:22Z</time>
      </trkpt>
      <trkpt lat="46.11771" lon="6.2514">
        <ele>634.6</ele>
        <time>2021-04-17T15:37:23Z</time>
      </trkpt>
      <trkpt lat="46.11769" lon="6.25155">
        <ele>633.8</ele>
        <time>2021-04-17T15:37:24Z</time>
      </trkpt>
      <trkpt lat="46.11766" lon="6.2517">
        <ele>633</ele>
        <time>2021-04-17T15:37:25Z</time>
      </trkpt>
      <trkpt lat="46.11764" lon="6.25185">
        <ele>632</ele>
        <time>2021-04-17T15:37:26Z</time>
      </trkpt>
      <trkpt lat="46.11762" lon="6.25201">
        <ele>631.2</ele>
        <time>2021-04-17T15:37:27Z</time>
      </trkpt>
      <trkpt lat="46.11762" lon="6.25218">
        <ele>630.2</ele>
        <time>2021-04-17T15:37:28Z</time>
      </trkpt>
      <trkpt lat="46.11763" lon="6.25235">
        <ele>629.6</ele>
        <time>2021-04-17T15:37:29Z</time>
      </trkpt>
      <trkpt lat="46.11765" lon="6.25251">
        <ele>628.8</ele>
        <time>2021-04-17T15:37:30Z</time>
      </trkpt>
      <trkpt lat="46.11771" lon="6.25267">
        <ele>627.6</ele>
        <time>2021-04-17T15:37:31Z</time>
      </trkpt>
      <trkpt lat="46.11779" lon="6.25279">
        <ele>626.6</ele>
        <time>2021-04-17T15:37:32Z</time>
      </trkpt>
      <trkpt lat="46.11789" lon="6.25287">
        <ele>625.8</ele>
        <time>2021-04-17T15:37:33Z</time>
      </trkpt>
      <trkpt lat="46.11799" lon="6.25291">
        <ele>624.6</ele>
        <time>2021-04-17T15:37:34Z</time>
      </trkpt>
      <trkpt lat="46.11809" lon="6.25295">
        <ele>622.6</ele>
        <time>2021-04-17T15:37:35Z</time>
      </trkpt>
      <trkpt lat="46.11818" lon="6.25301">
        <ele>621.2</ele>
        <time>2021-04-17T15:37:36Z</time>
      </trkpt>
      <trkpt lat="46.11825" lon="6.25309">
        <ele>620.4</ele>
        <time>2021-04-17T15:37:37Z</time>
      </trkpt>
      <trkpt lat="46.11831" lon="6.25322">
        <ele>620.2</ele>
        <time>2021-04-17T15:37:38Z</time>
      </trkpt>
      <trkpt lat="46.11833" lon="6.25337">
        <ele>619.4</ele>
        <time>2021-04-17T15:37:39Z</time>
      </trkpt>
      <trkpt lat="46.11832" lon="6.25353">
        <ele>617.6</ele>
        <time>2021-04-17T15:37:40Z</time>
      </trkpt>
      <trkpt lat="46.11828" lon="6.25367">
        <ele>616.6</ele>
        <time>2021-04-17T15:37:41Z</time>
      </trkpt>
      <trkpt lat="46.11821" lon="6.25381">
        <ele>615.8</ele>
        <time>2021-04-17T15:37:42Z</time>
      </trkpt>
      <trkpt lat="46.11814" lon="6.25395">
        <ele>615.4</ele>
        <time>2021-04-17T15:37:43Z</time>
      </trkpt>
      <trkpt lat="46.11808" lon="6.2541">
        <ele>615</ele>
        <time>2021-04-17T15:37:44Z</time>
      </trkpt>
      <trkpt lat="46.11802" lon="6.25425">
        <ele>614.4</ele>
        <time>2021-04-17T15:37:45Z</time>
      </trkpt>
      <trkpt lat="46.11795" lon="6.2544">
        <ele>613.6</ele>
        <time>2021-04-17T15:37:46Z</time>
      </trkpt>
      <trkpt lat="46.11788" lon="6.25455">
        <ele>612</ele>
        <time>2021-04-17T15:37:47Z</time>
      </trkpt>
      <trkpt lat="46.1178" lon="6.2547">
        <ele>611.4</ele>
        <time>2021-04-17T15:37:48Z</time>
      </trkpt>
      <trkpt lat="46.11774" lon="6.25485">
        <ele>610</ele>
        <time>2021-04-17T15:37:49Z</time>
      </trkpt>
      <trkpt lat="46.11767" lon="6.255">
        <ele>608.6</ele>
        <time>2021-04-17T15:37:50Z</time>
      </trkpt>
      <trkpt lat="46.1176" lon="6.25516">
        <ele>606.8</ele>
        <time>2021-04-17T15:37:51Z</time>
      </trkpt>
      <trkpt lat="46.11754" lon="6.25531">
        <ele>605.4</ele>
        <time>2021-04-17T15:37:52Z</time>
      </trkpt>
      <trkpt lat="46.11748" lon="6.25546">
        <ele>604.2</ele>
        <time>2021-04-17T15:37:53Z</time>
      </trkpt>
      <trkpt lat="46.11742" lon="6.25561">
        <ele>602.4</ele>
        <time>2021-04-17T15:37:54Z</time>
      </trkpt>
      <trkpt lat="46.11738" lon="6.25576">
        <ele>601.2</ele>
        <time>2021-04-17T15:37:55Z</time>
      </trkpt>
      <trkpt lat="46.11737" lon="6.25593">
        <ele>600.4</ele>
        <time>2021-04-17T15:37:56Z</time>
      </trkpt>
      <trkpt lat="46.11738" lon="6.25609">
        <ele>599.6</ele>
        <time>2021-04-17T15:37:57Z</time>
      </trkpt>
      <trkpt lat="46.11738" lon="6.25625">
        <ele>598.8</ele>
        <time>2021-04-17T15:37:58Z</time>
      </trkpt>
      <trkpt lat="46.11738" lon="6.25641">
        <ele>597.8</ele>
        <time>2021-04-17T15:37:59Z</time>
      </trkpt>
      <trkpt lat="46.11735" lon="6.25656">
        <ele>597</ele>
        <time>2021-04-17T15:38:00Z</time>
      </trkpt>
      <trkpt lat="46.1173" lon="6.2567">
        <ele>596</ele>
        <time>2021-04-17T15:38:01Z</time>
      </trkpt>
      <trkpt lat="46.11724" lon="6.25683">
        <ele>595.8</ele>
        <time>2021-04-17T15:38:02Z</time>
      </trkpt>
      <trkpt lat="46.11717" lon="6.25697">
        <ele>595.2</ele>
        <time>2021-04-17T15:38:03Z</time>
      </trkpt>
      <trkpt lat="46.1171" lon="6.2571">
        <ele>594.4</ele>
        <time>2021-04-17T15:38:04Z</time>
      </trkpt>
      <trkpt lat="46.11703" lon="6.25724">
        <ele>593</ele>
        <time>2021-04-17T15:38:05Z</time>
      </trkpt>
      <trkpt lat="46.11697" lon="6.25737">
        <ele>591.6</ele>
        <time>2021-04-17T15:38:06Z</time>
      </trkpt>
      <trkpt lat="46.1169" lon="6.2575">
        <ele>590.6</ele>
        <time>2021-04-17T15:38:07Z</time>
      </trkpt>
      <trkpt lat="46.11684" lon="6.25763">
        <ele>589.8</ele>
        <time>2021-04-17T15:38:08Z</time>
      </trkpt>
      <trkpt lat="46.11678" lon="6.25774">
        <ele>589.4</ele>
        <time>2021-04-17T15:38:09Z</time>
      </trkpt>
      <trkpt lat="46.11673" lon="6.25783">
        <ele>589</ele>
        <time>2021-04-17T15:38:10Z</time>
      </trkpt>
      <trkpt lat="46.11669" lon="6.25792">
        <ele>588.8</ele>
        <time>2021-04-17T15:38:11Z</time>
      </trkpt>
      <trkpt lat="46.11666" lon="6.258">
        <ele>588.2</ele>
        <time>2021-04-17T15:38:12Z</time>
      </trkpt>
      <trkpt lat="46.11663" lon="6.25808">
        <ele>587.6</ele>
        <time>2021-04-17T15:38:13Z</time>
      </trkpt>
      <trkpt lat="46.11659" lon="6.25816">
        <ele>586.4</ele>
        <time>2021-04-17T15:38:14Z</time>
      </trkpt>
      <trkpt lat="46.11656" lon="6.25825">
        <ele>585.6</ele>
        <time>2021-04-17T15:38:15Z</time>
      </trkpt>
      <trkpt lat="46.11652" lon="6.25835">
        <ele>585.2</ele>
        <time>2021-04-17T15:38:16Z</time>
      </trkpt>
      <trkpt lat="46.11648" lon="6.25844">
        <ele>584.4</ele>
        <time>2021-04-17T15:38:17Z</time>
      </trkpt>
      <trkpt lat="46.11644" lon="6.25855">
        <ele>583.8</ele>
        <time>2021-04-17T15:38:18Z</time>
      </trkpt>
      <trkpt lat="46.1164" lon="6.25865">
        <ele>583.6</ele>
        <time>2021-04-17T15:38:19Z</time>
      </trkpt>
      <trkpt lat="46.11636" lon="6.25876">
        <ele>583.2</ele>
        <time>2021-04-17T15:38:20Z</time>
      </trkpt>
      <trkpt lat="46.11631" lon="6.25887">
        <ele>583</ele>
        <time>2021-04-17T15:38:21Z</time>
      </trkpt>
      <trkpt lat="46.11627" lon="6.25897">
        <ele>582.6</ele>
        <time>2021-04-17T15:38:22Z</time>
      </trkpt>
      <trkpt lat="46.11624" lon="6.25907">
        <ele>582.2</ele>
        <time>2021-04-17T15:38:23Z</time>
      </trkpt>
      <trkpt lat="46.1162" lon="6.25916">
        <ele>581.6</ele>
        <time>2021-04-17T15:38:24Z</time>
      </trkpt>
      <trkpt lat="46.11617" lon="6.25924">
        <ele>581.4</ele>
        <time>2021-04-17T15:38:25Z</time>
      </trkpt>
      <trkpt lat="46.11615" lon="6.2593">
        <ele>580.6</ele>
        <time>2021-04-17T15:38:26Z</time>
      </trkpt>
      <trkpt lat="46.11613" lon="6.25935">
        <ele>580</ele>
        <time>2021-04-17T15:38:27Z</time>
      </trkpt>
      <trkpt lat="46.11612" lon="6.25939">
        <ele>579.6</ele>
        <time>2021-04-17T15:38:28Z</time>
      </trkpt>
      <trkpt lat="46.11612" lon="6.25943">
        <ele>578.8</ele>
        <time>2021-04-17T15:38:29Z</time>
      </trkpt>
      <trkpt lat="46.11611" lon="6.25947">
        <ele>578.2</ele>
        <time>2021-04-17T15:38:30Z</time>
      </trkpt>
      <trkpt lat="46.11612" lon="6.2595">
        <ele>577.8</ele>
        <time>2021-04-17T15:38:31Z</time>
      </trkpt>
      <trkpt lat="46.11613" lon="6.25952">
        <ele>577.8</ele>
        <time>2021-04-17T15:38:32Z</time>
      </trkpt>
      <trkpt lat="46.11616" lon="6.25955">
        <ele>577.2</ele>
        <time>2021-04-17T15:38:33Z</time>
      </trkpt>
      <trkpt lat="46.1162" lon="6.25956">
        <ele>577.2</ele>
        <time>2021-04-17T15:38:34Z</time>
      </trkpt>
      <trkpt lat="46.11625" lon="6.25957">
        <ele>577.2</ele>
        <time>2021-04-17T15:38:35Z</time>
      </trkpt>
      <trkpt lat="46.1163" lon="6.25958">
        <ele>576.6</ele>
        <time>2021-04-17T15:38:36Z</time>
      </trkpt>
      <trkpt lat="46.11636" lon="6.25961">
        <ele>576.6</ele>
        <time>2021-04-17T15:38:37Z</time>
      </trkpt>
      <trkpt lat="46.11642" lon="6.25964">
        <ele>576.2</ele>
        <time>2021-04-17T15:38:38Z</time>
      </trkpt>
      <trkpt lat="46.11648" lon="6.25968">
        <ele>576.2</ele>
        <time>2021-04-17T15:38:39Z</time>
      </trkpt>
      <trkpt lat="46.11654" lon="6.25974">
        <ele>576.2</ele>
        <time>2021-04-17T15:38:40Z</time>
      </trkpt>
      <trkpt lat="46.1166" lon="6.25981">
        <ele>576</ele>
        <time>2021-04-17T15:38:41Z</time>
      </trkpt>
      <trkpt lat="46.11665" lon="6.2599">
        <ele>575.8</ele>
        <time>2021-04-17T15:38:42Z</time>
      </trkpt>
      <trkpt lat="46.1167" lon="6.26">
        <ele>575.4</ele>
        <time>2021-04-17T15:38:43Z</time>
      </trkpt>
      <trkpt lat="46.11673" lon="6.26011">
        <ele>574.8</ele>
        <time>2021-04-17T15:38:44Z</time>
      </trkpt>
      <trkpt lat="46.11676" lon="6.26023">
        <ele>574.4</ele>
        <time>2021-04-17T15:38:45Z</time>
      </trkpt>
      <trkpt lat="46.11678" lon="6.26036">
        <ele>573.6</ele>
        <time>2021-04-17T15:38:46Z</time>
      </trkpt>
      <trkpt lat="46.1168" lon="6.26049">
        <ele>572.8</ele>
        <time>2021-04-17T15:38:47Z</time>
      </trkpt>
      <trkpt lat="46.11681" lon="6.26062">
        <ele>572.2</ele>
        <time>2021-04-17T15:38:48Z</time>
      </trkpt>
      <trkpt lat="46.11683" lon="6.26075">
        <ele>571.6</ele>
        <time>2021-04-17T15:38:49Z</time>
      </trkpt>
      <trkpt lat="46.11685" lon="6.26089">
        <ele>570.6</ele>
        <time>2021-04-17T15:38:50Z</time>
      </trkpt>
      <trkpt lat="46.11687" lon="6.26103">
        <ele>569.6</ele>
        <time>2021-04-17T15:38:51Z</time>
      </trkpt>
      <trkpt lat="46.11689" lon="6.26116">
        <ele>568.8</ele>
        <time>2021-04-17T15:38:52Z</time>
      </trkpt>
      <trkpt lat="46.11691" lon="6.2613">
        <ele>568.2</ele>
        <time>2021-04-17T15:38:53Z</time>
      </trkpt>
      <trkpt lat="46.11693" lon="6.26143">
        <ele>568</ele>
        <time>2021-04-17T15:38:54Z</time>
      </trkpt>
      <trkpt lat="46.11697" lon="6.26157">
        <ele>567.6</ele>
        <time>2021-04-17T15:38:55Z</time>
      </trkpt>
      <trkpt lat="46.11701" lon="6.2617">
        <ele>567.4</ele>
        <time>2021-04-17T15:38:56Z</time>
      </trkpt>
      <trkpt lat="46.11706" lon="6.26183">
        <ele>566.8</ele>
        <time>2021-04-17T15:38:57Z</time>
      </trkpt>
      <trkpt lat="46.11711" lon="6.26196">
        <ele>566.4</ele>
        <time>2021-04-17T15:38:58Z</time>
      </trkpt>
      <trkpt lat="46.11716" lon="6.26209">
        <ele>566</ele>
        <time>2021-04-17T15:38:59Z</time>
      </trkpt>
      <trkpt lat="46.11721" lon="6.26223">
        <ele>565</ele>
        <time>2021-04-17T15:39:00Z</time>
      </trkpt>
      <trkpt lat="46.11724" lon="6.26237">
        <ele>564.2</ele>
        <time>2021-04-17T15:39:01Z</time>
      </trkpt>
      <trkpt lat="46.11727" lon="6.26251">
        <ele>563.6</ele>
        <time>2021-04-17T15:39:02Z</time>
      </trkpt>
      <trkpt lat="46.1173" lon="6.26266">
        <ele>563.2</ele>
        <time>2021-04-17T15:39:03Z</time>
      </trkpt>
      <trkpt lat="46.11732" lon="6.2628">
        <ele>562.8</ele>
        <time>2021-04-17T15:39:04Z</time>
      </trkpt>
      <trkpt lat="46.11734" lon="6.26294">
        <ele>562</ele>
        <time>2021-04-17T15:39:05Z</time>
      </trkpt>
      <trkpt lat="46.11736" lon="6.26309">
        <ele>561.6</ele>
        <time>2021-04-17T15:39:06Z</time>
      </trkpt>
      <trkpt lat="46.11738" lon="6.26323">
        <ele>560.6</ele>
        <time>2021-04-17T15:39:07Z</time>
      </trkpt>
      <trkpt lat="46.1174" lon="6.26337">
        <ele>560</ele>
        <time>2021-04-17T15:39:08Z</time>
      </trkpt>
      <trkpt lat="46.11742" lon="6.2635">
        <ele>559.6</ele>
        <time>2021-04-17T15:39:09Z</time>
      </trkpt>
      <trkpt lat="46.11744" lon="6.26364">
        <ele>559.2</ele>
        <time>2021-04-17T15:39:10Z</time>
      </trkpt>
      <trkpt lat="46.11746" lon="6.26378">
        <ele>559.2</ele>
        <time>2021-04-17T15:39:11Z</time>
      </trkpt>
      <trkpt lat="46.11748" lon="6.26391">
        <ele>558.8</ele>
        <time>2021-04-17T15:39:12Z</time>
      </trkpt>
      <trkpt lat="46.1175" lon="6.26405">
        <ele>558.8</ele>
        <time>2021-04-17T15:39:13Z</time>
      </trkpt>
      <trkpt lat="46.11752" lon="6.26419">
        <ele>558.6</ele>
        <time>2021-04-17T15:39:14Z</time>
      </trkpt>
      <trkpt lat="46.11754" lon="6.26433">
        <ele>558.2</ele>
        <time>2021-04-17T15:39:15Z</time>
      </trkpt>
      <trkpt lat="46.11756" lon="6.26447">
        <ele>557.8</ele>
        <time>2021-04-17T15:39:16Z</time>
      </trkpt>
      <trkpt lat="46.11758" lon="6.26461">
        <ele>557.8</ele>
        <time>2021-04-17T15:39:17Z</time>
      </trkpt>
      <trkpt lat="46.1176" lon="6.26475">
        <ele>557.6</ele>
        <time>2021-04-17T15:39:18Z</time>
      </trkpt>
      <trkpt lat="46.11762" lon="6.26488">
        <ele>557.4</ele>
        <time>2021-04-17T15:39:19Z</time>
      </trkpt>
      <trkpt lat="46.11764" lon="6.26502">
        <ele>557</ele>
        <time>2021-04-17T15:39:20Z</time>
      </trkpt>
      <trkpt lat="46.11766" lon="6.26516">
        <ele>556.4</ele>
        <time>2021-04-17T15:39:21Z</time>
      </trkpt>
      <trkpt lat="46.11768" lon="6.2653">
        <ele>556</ele>
        <time>2021-04-17T15:39:22Z</time>
      </trkpt>
      <trkpt lat="46.1177" lon="6.26544">
        <ele>555.8</ele>
        <time>2021-04-17T15:39:23Z</time>
      </trkpt>
      <trkpt lat="46.11772" lon="6.26558">
        <ele>555.2</ele>
        <time>2021-04-17T15:39:24Z</time>
      </trkpt>
      <trkpt lat="46.11775" lon="6.26571">
        <ele>554.8</ele>
        <time>2021-04-17T15:39:25Z</time>
      </trkpt>
      <trkpt lat="46.11777" lon="6.26585">
        <ele>554.8</ele>
        <time>2021-04-17T15:39:26Z</time>
      </trkpt>
      <trkpt lat="46.11779" lon="6.26598">
        <ele>554.6</ele>
        <time>2021-04-17T15:39:27Z</time>
      </trkpt>
      <trkpt lat="46.11782" lon="6.26611">
        <ele>554.2</ele>
        <time>2021-04-17T15:39:28Z</time>
      </trkpt>
      <trkpt lat="46.11786" lon="6.26624">
        <ele>553.6</ele>
        <time>2021-04-17T15:39:29Z</time>
      </trkpt>
      <trkpt lat="46.11791" lon="6.26636">
        <ele>553.4</ele>
        <time>2021-04-17T15:39:30Z</time>
      </trkpt>
      <trkpt lat="46.11797" lon="6.26646">
        <ele>552.8</ele>
        <time>2021-04-17T15:39:31Z</time>
      </trkpt>
      <trkpt lat="46.11803" lon="6.26656">
        <ele>552.4</ele>
        <time>2021-04-17T15:39:32Z</time>
      </trkpt>
      <trkpt lat="46.1181" lon="6.26664">
        <ele>552</ele>
        <time>2021-04-17T15:39:33Z</time>
      </trkpt>
      <trkpt lat="46.11818" lon="6.26672">
        <ele>551.8</ele>
        <time>2021-04-17T15:39:34Z</time>
      </trkpt>
      <trkpt lat="46.11825" lon="6.2668">
        <ele>551.8</ele>
        <time>2021-04-17T15:39:35Z</time>
      </trkpt>
      <trkpt lat="46.11833" lon="6.26687">
        <ele>551.8</ele>
        <time>2021-04-17T15:39:36Z</time>
      </trkpt>
      <trkpt lat="46.11841" lon="6.26695">
        <ele>551.2</ele>
        <time>2021-04-17T15:39:37Z</time>
      </trkpt>
      <trkpt lat="46.11848" lon="6.26702">
        <ele>550.4</ele>
        <time>2021-04-17T15:39:38Z</time>
      </trkpt>
      <trkpt lat="46.11856" lon="6.2671">
        <ele>549.4</ele>
        <time>2021-04-17T15:39:39Z</time>
      </trkpt>
      <trkpt lat="46.11864" lon="6.26718">
        <ele>549</ele>
        <time>2021-04-17T15:39:40Z</time>
      </trkpt>
      <trkpt lat="46.11872" lon="6.26725">
        <ele>548.4</ele>
        <time>2021-04-17T15:39:41Z</time>
      </trkpt>
      <trkpt lat="46.11879" lon="6.26732">
        <ele>547.8</ele>
        <time>2021-04-17T15:39:42Z</time>
      </trkpt>
      <trkpt lat="46.11887" lon="6.2674">
        <ele>547.4</ele>
        <time>2021-04-17T15:39:43Z</time>
      </trkpt>
      <trkpt lat="46.11895" lon="6.26748">
        <ele>547.2</ele>
        <time>2021-04-17T15:39:44Z</time>
      </trkpt>
      <trkpt lat="46.11902" lon="6.26756">
        <ele>547.2</ele>
        <time>2021-04-17T15:39:45Z</time>
      </trkpt>
      <trkpt lat="46.1191" lon="6.26763">
        <ele>547.2</ele>
        <time>2021-04-17T15:39:46Z</time>
      </trkpt>
      <trkpt lat="46.11917" lon="6.2677">
        <ele>546.8</ele>
        <time>2021-04-17T15:39:47Z</time>
      </trkpt>
      <trkpt lat="46.11924" lon="6.26778">
        <ele>546.8</ele>
        <time>2021-04-17T15:39:48Z</time>
      </trkpt>
      <trkpt lat="46.11931" lon="6.26785">
        <ele>546.4</ele>
        <time>2021-04-17T15:39:49Z</time>
      </trkpt>
      <trkpt lat="46.11938" lon="6.26792">
        <ele>546</ele>
        <time>2021-04-17T15:39:50Z</time>
      </trkpt>
      <trkpt lat="46.11945" lon="6.26799">
        <ele>545.8</ele>
        <time>2021-04-17T15:39:51Z</time>
      </trkpt>
      <trkpt lat="46.11952" lon="6.26806">
        <ele>545.8</ele>
        <time>2021-04-17T15:39:52Z</time>
      </trkpt>
      <trkpt lat="46.11959" lon="6.26813">
        <ele>545.6</ele>
        <time>2021-04-17T15:39:53Z</time>
      </trkpt>
      <trkpt lat="46.11965" lon="6.2682">
        <ele>545.6</ele>
        <time>2021-04-17T15:39:54Z</time>
      </trkpt>
      <trkpt lat="46.11972" lon="6.26826">
        <ele>545</ele>
        <time>2021-04-17T15:39:55Z</time>
      </trkpt>
      <trkpt lat="46.11978" lon="6.26833">
        <ele>545</ele>
        <time>2021-04-17T15:39:56Z</time>
      </trkpt>
      <trkpt lat="46.11984" lon="6.26839">
        <ele>545</ele>
        <time>2021-04-17T15:39:57Z</time>
      </trkpt>
      <trkpt lat="46.1199" lon="6.26845">
        <ele>544.8</ele>
        <time>2021-04-17T15:39:58Z</time>
      </trkpt>
      <trkpt lat="46.11996" lon="6.26851">
        <ele>544.8</ele>
        <time>2021-04-17T15:39:59Z</time>
      </trkpt>
      <trkpt lat="46.12002" lon="6.26856">
        <ele>544.8</ele>
        <time>2021-04-17T15:40:00Z</time>
      </trkpt>
      <trkpt lat="46.12007" lon="6.26862">
        <ele>544.8</ele>
        <time>2021-04-17T15:40:01Z</time>
      </trkpt>
      <trkpt lat="46.12013" lon="6.26868">
        <ele>544.8</ele>
        <time>2021-04-17T15:40:02Z</time>
      </trkpt>
      <trkpt lat="46.12018" lon="6.26873">
        <ele>544.8</ele>
        <time>2021-04-17T15:40:03Z</time>
      </trkpt>
      <trkpt lat="46.12023" lon="6.26878">
        <ele>544.8</ele>
        <time>2021-04-17T15:40:04Z</time>
      </trkpt>
      <trkpt lat="46.12028" lon="6.26883">
        <ele>544.8</ele>
        <time>2021-04-17T15:40:05Z</time>
      </trkpt>
      <trkpt lat="46.12033" lon="6.26888">
        <ele>544.8</ele>
        <time>2021-04-17T15:40:06Z</time>
      </trkpt>
      <trkpt lat="46.12038" lon="6.26892">
        <ele>544.8</ele>
        <time>2021-04-17T15:40:07Z</time>
      </trkpt>
      <trkpt lat="46.12042" lon="6.26896">
        <ele>544.8</ele>
        <time>2021-04-17T15:40:08Z</time>
      </trkpt>
      <trkpt lat="46.12047" lon="6.269">
        <ele>545</ele>
        <time>2021-04-17T15:40:09Z</time>
      </trkpt>
      <trkpt lat="46.12051" lon="6.26902">
        <ele>545</ele>
        <time>2021-04-17T15:40:10Z</time>
      </trkpt>
      <trkpt lat="46.12056" lon="6.26905">
        <ele>545.2</ele>
        <time>2021-04-17T15:40:11Z</time>
      </trkpt>
      <trkpt lat="46.1206" lon="6.26907">
        <ele>545.4</ele>
        <time>2021-04-17T15:40:12Z</time>
      </trkpt>
      <trkpt lat="46.12065" lon="6.2691">
        <ele>545.4</ele>
        <time>2021-04-17T15:40:13Z</time>
      </trkpt>
      <trkpt lat="46.12068" lon="6.26914">
        <ele>545.4</ele>
        <time>2021-04-17T15:40:14Z</time>
      </trkpt>
      <trkpt lat="46.12071" lon="6.26919">
        <ele>545.4</ele>
        <time>2021-04-17T15:40:15Z</time>
      </trkpt>
      <trkpt lat="46.12073" lon="6.26925">
        <ele>545.8</ele>
        <time>2021-04-17T15:40:16Z</time>
      </trkpt>
      <trkpt lat="46.12074" lon="6.26931">
        <ele>546</ele>
        <time>2021-04-17T15:40:17Z</time>
      </trkpt>
      <trkpt lat="46.12075" lon="6.26937">
        <ele>546.4</ele>
        <time>2021-04-17T15:40:18Z</time>
      </trkpt>
      <trkpt lat="46.12076" lon="6.26944">
        <ele>547.2</ele>
        <time>2021-04-17T15:40:19Z</time>
      </trkpt>
      <trkpt lat="46.12078" lon="6.2695">
        <ele>547.6</ele>
        <time>2021-04-17T15:40:20Z</time>
      </trkpt>
      <trkpt lat="46.1208" lon="6.26956">
        <ele>547.8</ele>
        <time>2021-04-17T15:40:21Z</time>
      </trkpt>
      <trkpt lat="46.12083" lon="6.26961">
        <ele>548.4</ele>
        <time>2021-04-17T15:40:22Z</time>
      </trkpt>
      <trkpt lat="46.12086" lon="6.26966">
        <ele>548.8</ele>
        <time>2021-04-17T15:40:23Z</time>
      </trkpt>
      <trkpt lat="46.12091" lon="6.26969">
        <ele>549.4</ele>
        <time>2021-04-17T15:40:24Z</time>
      </trkpt>
      <trkpt lat="46.12096" lon="6.2697">
        <ele>549.8</ele>
        <time>2021-04-17T15:40:25Z</time>
      </trkpt>
      <trkpt lat="46.12101" lon="6.26969">
        <ele>549.8</ele>
        <time>2021-04-17T15:40:26Z</time>
      </trkpt>
      <trkpt lat="46.12107" lon="6.26967">
        <ele>550</ele>
        <time>2021-04-17T15:40:27Z</time>
      </trkpt>
      <trkpt lat="46.12111" lon="6.26963">
        <ele>550.2</ele>
        <time>2021-04-17T15:40:28Z</time>
      </trkpt>
      <trkpt lat="46.12115" lon="6.26958">
        <ele>550.2</ele>
        <time>2021-04-17T15:40:29Z</time>
      </trkpt>
      <trkpt lat="46.12119" lon="6.26951">
        <ele>550.2</ele>
        <time>2021-04-17T15:40:30Z</time>
      </trkpt>
      <trkpt lat="46.12123" lon="6.26945">
        <ele>550.2</ele>
        <time>2021-04-17T15:40:31Z</time>
      </trkpt>
      <trkpt lat="46.12127" lon="6.26939">
        <ele>550</ele>
        <time>2021-04-17T15:40:32Z</time>
      </trkpt>
      <trkpt lat="46.12132" lon="6.26934">
        <ele>550</ele>
        <time>2021-04-17T15:40:33Z</time>
      </trkpt>
      <trkpt lat="46.12136" lon="6.26929">
        <ele>549.8</ele>
        <time>2021-04-17T15:40:34Z</time>
      </trkpt>
      <trkpt lat="46.12141" lon="6.26925">
        <ele>549.8</ele>
        <time>2021-04-17T15:40:35Z</time>
      </trkpt>
      <trkpt lat="46.12146" lon="6.2692">
        <ele>549.4</ele>
        <time>2021-04-17T15:40:36Z</time>
      </trkpt>
      <trkpt lat="46.12152" lon="6.26916">
        <ele>549.4</ele>
        <time>2021-04-17T15:40:37Z</time>
      </trkpt>
      <trkpt lat="46.12157" lon="6.26912">
        <ele>549.2</ele>
        <time>2021-04-17T15:40:38Z</time>
      </trkpt>
      <trkpt lat="46.12162" lon="6.26908">
        <ele>549</ele>
        <time>2021-04-17T15:40:39Z</time>
      </trkpt>
      <trkpt lat="46.12168" lon="6.26904">
        <ele>548.8</ele>
        <time>2021-04-17T15:40:40Z</time>
      </trkpt>
      <trkpt lat="46.12173" lon="6.269">
        <ele>548.6</ele>
        <time>2021-04-17T15:40:41Z</time>
      </trkpt>
      <trkpt lat="46.12179" lon="6.26895">
        <ele>548.8</ele>
        <time>2021-04-17T15:40:42Z</time>
      </trkpt>
      <trkpt lat="46.12185" lon="6.26891">
        <ele>548.6</ele>
        <time>2021-04-17T15:40:43Z</time>
      </trkpt>
      <trkpt lat="46.12191" lon="6.26887">
        <ele>548.6</ele>
        <time>2021-04-17T15:40:44Z</time>
      </trkpt>
      <trkpt lat="46.12197" lon="6.26883">
        <ele>548.2</ele>
        <time>2021-04-17T15:40:45Z</time>
      </trkpt>
      <trkpt lat="46.12203" lon="6.26879">
        <ele>547.8</ele>
        <time>2021-04-17T15:40:46Z</time>
      </trkpt>
      <trkpt lat="46.12209" lon="6.26875">
        <ele>547.6</ele>
        <time>2021-04-17T15:40:47Z</time>
      </trkpt>
      <trkpt lat="46.12216" lon="6.26872">
        <ele>547.4</ele>
        <time>2021-04-17T15:40:48Z</time>
      </trkpt>
      <trkpt lat="46.12222" lon="6.26869">
        <ele>547.4</ele>
        <time>2021-04-17T15:40:49Z</time>
      </trkpt>
      <trkpt lat="46.12229" lon="6.26866">
        <ele>547.2</ele>
        <time>2021-04-17T15:40:50Z</time>
      </trkpt>
      <trkpt lat="46.12236" lon="6.26863">
        <ele>547</ele>
        <time>2021-04-17T15:40:51Z</time>
      </trkpt>
      <trkpt lat="46.12243" lon="6.26861">
        <ele>546.6</ele>
        <time>2021-04-17T15:40:52Z</time>
      </trkpt>
      <trkpt lat="46.1225" lon="6.26859">
        <ele>546.4</ele>
        <time>2021-04-17T15:40:53Z</time>
      </trkpt>
      <trkpt lat="46.12258" lon="6.26857">
        <ele>546.2</ele>
        <time>2021-04-17T15:40:54Z</time>
      </trkpt>
      <trkpt lat="46.12265" lon="6.26856">
        <ele>545.8</ele>
        <time>2021-04-17T15:40:55Z</time>
      </trkpt>
      <trkpt lat="46.12273" lon="6.26854">
        <ele>545.4</ele>
        <time>2021-04-17T15:40:56Z</time>
      </trkpt>
      <trkpt lat="46.12281" lon="6.26853">
        <ele>545.2</ele>
        <time>2021-04-17T15:40:57Z</time>
      </trkpt>
      <trkpt lat="46.12289" lon="6.26853">
        <ele>545</ele>
        <time>2021-04-17T15:40:58Z</time>
      </trkpt>
      <trkpt lat="46.12297" lon="6.26852">
        <ele>544.8</ele>
        <time>2021-04-17T15:40:59Z</time>
      </trkpt>
      <trkpt lat="46.12305" lon="6.26851">
        <ele>544.6</ele>
        <time>2021-04-17T15:41:00Z</time>
      </trkpt>
      <trkpt lat="46.12313" lon="6.2685">
        <ele>544.2</ele>
        <time>2021-04-17T15:41:01Z</time>
      </trkpt>
      <trkpt lat="46.12322" lon="6.26849">
        <ele>543.8</ele>
        <time>2021-04-17T15:41:02Z</time>
      </trkpt>
      <trkpt lat="46.1233" lon="6.26848">
        <ele>543.6</ele>
        <time>2021-04-17T15:41:03Z</time>
      </trkpt>
      <trkpt lat="46.12338" lon="6.26846">
        <ele>543.2</ele>
        <time>2021-04-17T15:41:04Z</time>
      </trkpt>
      <trkpt lat="46.12347" lon="6.26844">
        <ele>542.8</ele>
        <time>2021-04-17T15:41:05Z</time>
      </trkpt>
      <trkpt lat="46.12355" lon="6.26841">
        <ele>542.6</ele>
        <time>2021-04-17T15:41:06Z</time>
      </trkpt>
      <trkpt lat="46.12363" lon="6.26836">
        <ele>542.4</ele>
        <time>2021-04-17T15:41:07Z</time>
      </trkpt>
      <trkpt lat="46.12371" lon="6.26832">
        <ele>542</ele>
        <time>2021-04-17T15:41:08Z</time>
      </trkpt>
      <trkpt lat="46.12379" lon="6.26826">
        <ele>541.2</ele>
        <time>2021-04-17T15:41:09Z</time>
      </trkpt>
      <trkpt lat="46.12386" lon="6.2682">
        <ele>540.6</ele>
        <time>2021-04-17T15:41:10Z</time>
      </trkpt>
      <trkpt lat="46.12393" lon="6.26813">
        <ele>540</ele>
        <time>2021-04-17T15:41:11Z</time>
      </trkpt>
      <trkpt lat="46.124" lon="6.26805">
        <ele>539.6</ele>
        <time>2021-04-17T15:41:12Z</time>
      </trkpt>
      <trkpt lat="46.12407" lon="6.26798">
        <ele>539</ele>
        <time>2021-04-17T15:41:13Z</time>
      </trkpt>
      <trkpt lat="46.12414" lon="6.26791">
        <ele>538.6</ele>
        <time>2021-04-17T15:41:14Z</time>
      </trkpt>
      <trkpt lat="46.12421" lon="6.26783">
        <ele>538.2</ele>
        <time>2021-04-17T15:41:15Z</time>
      </trkpt>
      <trkpt lat="46.12428" lon="6.26776">
        <ele>537.8</ele>
        <time>2021-04-17T15:41:16Z</time>
      </trkpt>
      <trkpt lat="46.12435" lon="6.26769">
        <ele>537.4</ele>
        <time>2021-04-17T15:41:17Z</time>
      </trkpt>
      <trkpt lat="46.12442" lon="6.26761">
        <ele>537</ele>
        <time>2021-04-17T15:41:18Z</time>
      </trkpt>
      <trkpt lat="46.12448" lon="6.26754">
        <ele>536.8</ele>
        <time>2021-04-17T15:41:19Z</time>
      </trkpt>
      <trkpt lat="46.12455" lon="6.26747">
        <ele>536.6</ele>
        <time>2021-04-17T15:41:20Z</time>
      </trkpt>
      <trkpt lat="46.12462" lon="6.26739">
        <ele>536.4</ele>
        <time>2021-04-17T15:41:21Z</time>
      </trkpt>
      <trkpt lat="46.12469" lon="6.26732">
        <ele>536.4</ele>
        <time>2021-04-17T15:41:22Z</time>
      </trkpt>
      <trkpt lat="46.12476" lon="6.26725">
        <ele>536.4</ele>
        <time>2021-04-17T15:41:23Z</time>
      </trkpt>
      <trkpt lat="46.12482" lon="6.26718">
        <ele>536.2</ele>
        <time>2021-04-17T15:41:24Z</time>
      </trkpt>
      <trkpt lat="46.12489" lon="6.26711">
        <ele>536.4</ele>
        <time>2021-04-17T15:41:25Z</time>
      </trkpt>
      <trkpt lat="46.12496" lon="6.26704">
        <ele>536.2</ele>
        <time>2021-04-17T15:41:26Z</time>
      </trkpt>
      <trkpt lat="46.12502" lon="6.26697">
        <ele>536</ele>
        <time>2021-04-17T15:41:27Z</time>
      </trkpt>
      <trkpt lat="46.12509" lon="6.2669">
        <ele>536</ele>
        <time>2021-04-17T15:41:28Z</time>
      </trkpt>
      <trkpt lat="46.12516" lon="6.26682">
        <ele>536</ele>
        <time>2021-04-17T15:41:29Z</time>
      </trkpt>
      <trkpt lat="46.12523" lon="6.26675">
        <ele>536</ele>
        <time>2021-04-17T15:41:30Z</time>
      </trkpt>
      <trkpt lat="46.12529" lon="6.26668">
        <ele>536</ele>
        <time>2021-04-17T15:41:31Z</time>
      </trkpt>
      <trkpt lat="46.12536" lon="6.26661">
        <ele>536</ele>
        <time>2021-04-17T15:41:32Z</time>
      </trkpt>
      <trkpt lat="46.12543" lon="6.26654">
        <ele>535.8</ele>
        <time>2021-04-17T15:41:33Z</time>
      </trkpt>
      <trkpt lat="46.1255" lon="6.26648">
        <ele>535.6</ele>
        <time>2021-04-17T15:41:34Z</time>
      </trkpt>
      <trkpt lat="46.12558" lon="6.26642">
        <ele>535.6</ele>
        <time>2021-04-17T15:41:35Z</time>
      </trkpt>
      <trkpt lat="46.12566" lon="6.26636">
        <ele>535.4</ele>
        <time>2021-04-17T15:41:36Z</time>
      </trkpt>
      <trkpt lat="46.12575" lon="6.26631">
        <ele>535.4</ele>
        <time>2021-04-17T15:41:37Z</time>
      </trkpt>
      <trkpt lat="46.12583" lon="6.26627">
        <ele>535.2</ele>
        <time>2021-04-17T15:41:38Z</time>
      </trkpt>
      <trkpt lat="46.12592" lon="6.26622">
        <ele>534.8</ele>
        <time>2021-04-17T15:41:39Z</time>
      </trkpt>
      <trkpt lat="46.12601" lon="6.2662">
        <ele>534.2</ele>
        <time>2021-04-17T15:41:40Z</time>
      </trkpt>
      <trkpt lat="46.1261" lon="6.26619">
        <ele>534</ele>
        <time>2021-04-17T15:41:41Z</time>
      </trkpt>
      <trkpt lat="46.12619" lon="6.26618">
        <ele>533.6</ele>
        <time>2021-04-17T15:41:42Z</time>
      </trkpt>
      <trkpt lat="46.12628" lon="6.26619">
        <ele>533.6</ele>
        <time>2021-04-17T15:41:43Z</time>
      </trkpt>
      <trkpt lat="46.12637" lon="6.26619">
        <ele>533.2</ele>
        <time>2021-04-17T15:41:44Z</time>
      </trkpt>
      <trkpt lat="46.12646" lon="6.26619">
        <ele>532.8</ele>
        <time>2021-04-17T15:41:45Z</time>
      </trkpt>
      <trkpt lat="46.12655" lon="6.26619">
        <ele>532.6</ele>
        <time>2021-04-17T15:41:46Z</time>
      </trkpt>
      <trkpt lat="46.12664" lon="6.2662">
        <ele>532.2</ele>
        <time>2021-04-17T15:41:47Z</time>
      </trkpt>
      <trkpt lat="46.12673" lon="6.26621">
        <ele>531.6</ele>
        <time>2021-04-17T15:41:48Z</time>
      </trkpt>
      <trkpt lat="46.12682" lon="6.26622">
        <ele>531.4</ele>
        <time>2021-04-17T15:41:49Z</time>
      </trkpt>
      <trkpt lat="46.12691" lon="6.26623">
        <ele>531</ele>
        <time>2021-04-17T15:41:50Z</time>
      </trkpt>
      <trkpt lat="46.12701" lon="6.26625">
        <ele>530.6</ele>
        <time>2021-04-17T15:41:51Z</time>
      </trkpt>
      <trkpt lat="46.12711" lon="6.26627">
        <ele>530.2</ele>
        <time>2021-04-17T15:41:52Z</time>
      </trkpt>
      <trkpt lat="46.12721" lon="6.2663">
        <ele>530</ele>
        <time>2021-04-17T15:41:53Z</time>
      </trkpt>
      <trkpt lat="46.12731" lon="6.26633">
        <ele>529.4</ele>
        <time>2021-04-17T15:41:54Z</time>
      </trkpt>
      <trkpt lat="46.12741" lon="6.26637">
        <ele>529</ele>
        <time>2021-04-17T15:41:55Z</time>
      </trkpt>
      <trkpt lat="46.12751" lon="6.26641">
        <ele>528.4</ele>
        <time>2021-04-17T15:41:56Z</time>
      </trkpt>
      <trkpt lat="46.1276" lon="6.26645">
        <ele>527.4</ele>
        <time>2021-04-17T15:41:57Z</time>
      </trkpt>
      <trkpt lat="46.1277" lon="6.26649">
        <ele>526.8</ele>
        <time>2021-04-17T15:41:58Z</time>
      </trkpt>
      <trkpt lat="46.1278" lon="6.26654">
        <ele>526.6</ele>
        <time>2021-04-17T15:41:59Z</time>
      </trkpt>
      <trkpt lat="46.12789" lon="6.26658">
        <ele>526.2</ele>
        <time>2021-04-17T15:42:00Z</time>
      </trkpt>
      <trkpt lat="46.12799" lon="6.26662">
        <ele>526</ele>
        <time>2021-04-17T15:42:01Z</time>
      </trkpt>
      <trkpt lat="46.12809" lon="6.26665">
        <ele>525.4</ele>
        <time>2021-04-17T15:42:02Z</time>
      </trkpt>
      <trkpt lat="46.12818" lon="6.26669">
        <ele>524.6</ele>
        <time>2021-04-17T15:42:03Z</time>
      </trkpt>
      <trkpt lat="46.12828" lon="6.26671">
        <ele>523.8</ele>
        <time>2021-04-17T15:42:04Z</time>
      </trkpt>
      <trkpt lat="46.12837" lon="6.26672">
        <ele>523.8</ele>
        <time>2021-04-17T15:42:05Z</time>
      </trkpt>
      <trkpt lat="46.12847" lon="6.26672">
        <ele>523.4</ele>
        <time>2021-04-17T15:42:06Z</time>
      </trkpt>
      <trkpt lat="46.12856" lon="6.26671">
        <ele>523</ele>
        <time>2021-04-17T15:42:07Z</time>
      </trkpt>
      <trkpt lat="46.12866" lon="6.2667">
        <ele>522.8</ele>
        <time>2021-04-17T15:42:08Z</time>
      </trkpt>
      <trkpt lat="46.12877" lon="6.26669">
        <ele>522.6</ele>
        <time>2021-04-17T15:42:09Z</time>
      </trkpt>
      <trkpt lat="46.12887" lon="6.26668">
        <ele>522.2</ele>
        <time>2021-04-17T15:42:10Z</time>
      </trkpt>
      <trkpt lat="46.12897" lon="6.26667">
        <ele>521.6</ele>
        <time>2021-04-17T15:42:11Z</time>
      </trkpt>
      <trkpt lat="46.12907" lon="6.26667">
        <ele>521</ele>
        <time>2021-04-17T15:42:12Z</time>
      </trkpt>
      <trkpt lat="46.12918" lon="6.26667">
        <ele>520.6</ele>
        <time>2021-04-17T15:42:13Z</time>
      </trkpt>
      <trkpt lat="46.12928" lon="6.26669">
        <ele>520.4</ele>
        <time>2021-04-17T15:42:14Z</time>
      </trkpt>
      <trkpt lat="46.12939" lon="6.26671">
        <ele>519.8</ele>
        <time>2021-04-17T15:42:15Z</time>
      </trkpt>
      <trkpt lat="46.12949" lon="6.26674">
        <ele>519.6</ele>
        <time>2021-04-17T15:42:16Z</time>
      </trkpt>
      <trkpt lat="46.12959" lon="6.26678">
        <ele>519</ele>
        <time>2021-04-17T15:42:17Z</time>
      </trkpt>
      <trkpt lat="46.1297" lon="6.26682">
        <ele>518.4</ele>
        <time>2021-04-17T15:42:18Z</time>
      </trkpt>
      <trkpt lat="46.1298" lon="6.26688">
        <ele>517.8</ele>
        <time>2021-04-17T15:42:19Z</time>
      </trkpt>
      <trkpt lat="46.1299" lon="6.26694">
        <ele>516.8</ele>
        <time>2021-04-17T15:42:20Z</time>
      </trkpt>
      <trkpt lat="46.12999" lon="6.267">
        <ele>516.4</ele>
        <time>2021-04-17T15:42:21Z</time>
      </trkpt>
      <trkpt lat="46.13009" lon="6.26706">
        <ele>515.2</ele>
        <time>2021-04-17T15:42:22Z</time>
      </trkpt>
      <trkpt lat="46.13018" lon="6.26713">
        <ele>514.4</ele>
        <time>2021-04-17T15:42:23Z</time>
      </trkpt>
      <trkpt lat="46.13026" lon="6.2672">
        <ele>513.8</ele>
        <time>2021-04-17T15:42:24Z</time>
      </trkpt>
      <trkpt lat="46.13035" lon="6.26727">
        <ele>513</ele>
        <time>2021-04-17T15:42:25Z</time>
      </trkpt>
      <trkpt lat="46.13043" lon="6.26734">
        <ele>512.6</ele>
        <time>2021-04-17T15:42:26Z</time>
      </trkpt>
      <trkpt lat="46.13051" lon="6.26742">
        <ele>512</ele>
        <time>2021-04-17T15:42:27Z</time>
      </trkpt>
      <trkpt lat="46.13059" lon="6.26749">
        <ele>511.8</ele>
        <time>2021-04-17T15:42:28Z</time>
      </trkpt>
      <trkpt lat="46.13067" lon="6.26755">
        <ele>511.2</ele>
        <time>2021-04-17T15:42:29Z</time>
      </trkpt>
      <trkpt lat="46.13074" lon="6.26761">
        <ele>510.8</ele>
        <time>2021-04-17T15:42:30Z</time>
      </trkpt>
      <trkpt lat="46.13083" lon="6.26767">
        <ele>510.4</ele>
        <time>2021-04-17T15:42:31Z</time>
      </trkpt>
      <trkpt lat="46.13091" lon="6.26772">
        <ele>510.2</ele>
        <time>2021-04-17T15:42:32Z</time>
      </trkpt>
      <trkpt lat="46.13099" lon="6.26776">
        <ele>510.2</ele>
        <time>2021-04-17T15:42:33Z</time>
      </trkpt>
      <trkpt lat="46.13107" lon="6.26779">
        <ele>510</ele>
        <time>2021-04-17T15:42:34Z</time>
      </trkpt>
      <trkpt lat="46.13116" lon="6.26782">
        <ele>509</ele>
        <time>2021-04-17T15:42:35Z</time>
      </trkpt>
      <trkpt lat="46.13124" lon="6.26784">
        <ele>508.4</ele>
        <time>2021-04-17T15:42:36Z</time>
      </trkpt>
      <trkpt lat="46.13133" lon="6.26785">
        <ele>508.2</ele>
        <time>2021-04-17T15:42:37Z</time>
      </trkpt>
      <trkpt lat="46.13142" lon="6.26786">
        <ele>508</ele>
        <time>2021-04-17T15:42:38Z</time>
      </trkpt>
      <trkpt lat="46.13151" lon="6.26786">
        <ele>507.6</ele>
        <time>2021-04-17T15:42:39Z</time>
      </trkpt>
      <trkpt lat="46.1316" lon="6.26787">
        <ele>507.6</ele>
        <time>2021-04-17T15:42:40Z</time>
      </trkpt>
      <trkpt lat="46.13169" lon="6.26786">
        <ele>507.6</ele>
        <time>2021-04-17T15:42:41Z</time>
      </trkpt>
      <trkpt lat="46.13178" lon="6.26786">
        <ele>507.6</ele>
        <time>2021-04-17T15:42:42Z</time>
      </trkpt>
      <trkpt lat="46.13187" lon="6.26786">
        <ele>507.4</ele>
        <time>2021-04-17T15:42:43Z</time>
      </trkpt>
      <trkpt lat="46.13196" lon="6.26785">
        <ele>507.2</ele>
        <time>2021-04-17T15:42:44Z</time>
      </trkpt>
      <trkpt lat="46.13204" lon="6.26785">
        <ele>506.8</ele>
        <time>2021-04-17T15:42:45Z</time>
      </trkpt>
      <trkpt lat="46.13212" lon="6.26784">
        <ele>506.2</ele>
        <time>2021-04-17T15:42:46Z</time>
      </trkpt>
      <trkpt lat="46.13221" lon="6.26785">
        <ele>505.6</ele>
        <time>2021-04-17T15:42:47Z</time>
      </trkpt>
      <trkpt lat="46.13229" lon="6.26785">
        <ele>505.2</ele>
        <time>2021-04-17T15:42:48Z</time>
      </trkpt>
      <trkpt lat="46.13238" lon="6.26787">
        <ele>504.8</ele>
        <time>2021-04-17T15:42:49Z</time>
      </trkpt>
      <trkpt lat="46.13246" lon="6.26789">
        <ele>504.6</ele>
        <time>2021-04-17T15:42:50Z</time>
      </trkpt>
      <trkpt lat="46.13254" lon="6.26791">
        <ele>504.8</ele>
        <time>2021-04-17T15:42:51Z</time>
      </trkpt>
      <trkpt lat="46.13262" lon="6.26794">
        <ele>504.4</ele>
        <time>2021-04-17T15:42:52Z</time>
      </trkpt>
      <trkpt lat="46.1327" lon="6.26797">
        <ele>504.6</ele>
        <time>2021-04-17T15:42:53Z</time>
      </trkpt>
      <trkpt lat="46.13278" lon="6.268">
        <ele>504.2</ele>
        <time>2021-04-17T15:42:54Z</time>
      </trkpt>
      <trkpt lat="46.13285" lon="6.26802">
        <ele>504</ele>
        <time>2021-04-17T15:42:55Z</time>
      </trkpt>
      <trkpt lat="46.13292" lon="6.26804">
        <ele>504</ele>
        <time>2021-04-17T15:42:56Z</time>
      </trkpt>
      <trkpt lat="46.13299" lon="6.26807">
        <ele>503.8</ele>
        <time>2021-04-17T15:42:57Z</time>
      </trkpt>
      <trkpt lat="46.13305" lon="6.2681">
        <ele>503.8</ele>
        <time>2021-04-17T15:42:58Z</time>
      </trkpt>
      <trkpt lat="46.13312" lon="6.26813">
        <ele>503.8</ele>
        <time>2021-04-17T15:42:59Z</time>
      </trkpt>
      <trkpt lat="46.13319" lon="6.26815">
        <ele>503.8</ele>
        <time>2021-04-17T15:43:00Z</time>
      </trkpt>
      <trkpt lat="46.13326" lon="6.26816">
        <ele>503.8</ele>
        <time>2021-04-17T15:43:01Z</time>
      </trkpt>
      <trkpt lat="46.13333" lon="6.26819">
        <ele>503.6</ele>
        <time>2021-04-17T15:43:02Z</time>
      </trkpt>
      <trkpt lat="46.13341" lon="6.26821">
        <ele>503.8</ele>
        <time>2021-04-17T15:43:03Z</time>
      </trkpt>
      <trkpt lat="46.13348" lon="6.26824">
        <ele>503.8</ele>
        <time>2021-04-17T15:43:04Z</time>
      </trkpt>
      <trkpt lat="46.13356" lon="6.26826">
        <ele>503.4</ele>
        <time>2021-04-17T15:43:05Z</time>
      </trkpt>
      <trkpt lat="46.13364" lon="6.26829">
        <ele>503.4</ele>
        <time>2021-04-17T15:43:06Z</time>
      </trkpt>
      <trkpt lat="46.13372" lon="6.26831">
        <ele>503.4</ele>
        <time>2021-04-17T15:43:07Z</time>
      </trkpt>
      <trkpt lat="46.13381" lon="6.26833">
        <ele>503.4</ele>
        <time>2021-04-17T15:43:08Z</time>
      </trkpt>
      <trkpt lat="46.13389" lon="6.26835">
        <ele>503.4</ele>
        <time>2021-04-17T15:43:09Z</time>
      </trkpt>
      <trkpt lat="46.13398" lon="6.26837">
        <ele>503.2</ele>
        <time>2021-04-17T15:43:10Z</time>
      </trkpt>
      <trkpt lat="46.13406" lon="6.26839">
        <ele>503</ele>
        <time>2021-04-17T15:43:11Z</time>
      </trkpt>
      <trkpt lat="46.13415" lon="6.26842">
        <ele>503</ele>
        <time>2021-04-17T15:43:12Z</time>
      </trkpt>
      <trkpt lat="46.13423" lon="6.26845">
        <ele>502.8</ele>
        <time>2021-04-17T15:43:13Z</time>
      </trkpt>
      <trkpt lat="46.13432" lon="6.26847">
        <ele>503</ele>
        <time>2021-04-17T15:43:14Z</time>
      </trkpt>
      <trkpt lat="46.1344" lon="6.26851">
        <ele>502.8</ele>
        <time>2021-04-17T15:43:15Z</time>
      </trkpt>
      <trkpt lat="46.13448" lon="6.26854">
        <ele>502.4</ele>
        <time>2021-04-17T15:43:16Z</time>
      </trkpt>
      <trkpt lat="46.13455" lon="6.26858">
        <ele>502</ele>
        <time>2021-04-17T15:43:17Z</time>
      </trkpt>
      <trkpt lat="46.13463" lon="6.26863">
        <ele>501.4</ele>
        <time>2021-04-17T15:43:18Z</time>
      </trkpt>
      <trkpt lat="46.13471" lon="6.26867">
        <ele>501.2</ele>
        <time>2021-04-17T15:43:19Z</time>
      </trkpt>
      <trkpt lat="46.13479" lon="6.26871">
        <ele>500.8</ele>
        <time>2021-04-17T15:43:20Z</time>
      </trkpt>
      <trkpt lat="46.13487" lon="6.26874">
        <ele>500.4</ele>
        <time>2021-04-17T15:43:21Z</time>
      </trkpt>
      <trkpt lat="46.13494" lon="6.26878">
        <ele>500.2</ele>
        <time>2021-04-17T15:43:22Z</time>
      </trkpt>
      <trkpt lat="46.13502" lon="6.26882">
        <ele>500</ele>
        <time>2021-04-17T15:43:23Z</time>
      </trkpt>
      <trkpt lat="46.13511" lon="6.26885">
        <ele>500</ele>
        <time>2021-04-17T15:43:24Z</time>
      </trkpt>
      <trkpt lat="46.13519" lon="6.26889">
        <ele>499.8</ele>
        <time>2021-04-17T15:43:25Z</time>
      </trkpt>
      <trkpt lat="46.13527" lon="6.26892">
        <ele>499.8</ele>
        <time>2021-04-17T15:43:26Z</time>
      </trkpt>
      <trkpt lat="46.13536" lon="6.26895">
        <ele>499.6</ele>
        <time>2021-04-17T15:43:27Z</time>
      </trkpt>
      <trkpt lat="46.13544" lon="6.26899">
        <ele>499.8</ele>
        <time>2021-04-17T15:43:28Z</time>
      </trkpt>
      <trkpt lat="46.13552" lon="6.26902">
        <ele>499.6</ele>
        <time>2021-04-17T15:43:29Z</time>
      </trkpt>
      <trkpt lat="46.13559" lon="6.26906">
        <ele>499.4</ele>
        <time>2021-04-17T15:43:30Z</time>
      </trkpt>
      <trkpt lat="46.13567" lon="6.26911">
        <ele>499.4</ele>
        <time>2021-04-17T15:43:31Z</time>
      </trkpt>
      <trkpt lat="46.13574" lon="6.26915">
        <ele>499.2</ele>
        <time>2021-04-17T15:43:32Z</time>
      </trkpt>
      <trkpt lat="46.13581" lon="6.26919">
        <ele>499.2</ele>
        <time>2021-04-17T15:43:33Z</time>
      </trkpt>
      <trkpt lat="46.13587" lon="6.26923">
        <ele>499.4</ele>
        <time>2021-04-17T15:43:34Z</time>
      </trkpt>
      <trkpt lat="46.13594" lon="6.26928">
        <ele>499.2</ele>
        <time>2021-04-17T15:43:35Z</time>
      </trkpt>
      <trkpt lat="46.13601" lon="6.26932">
        <ele>499.2</ele>
        <time>2021-04-17T15:43:36Z</time>
      </trkpt>
      <trkpt lat="46.13608" lon="6.26937">
        <ele>499</ele>
        <time>2021-04-17T15:43:37Z</time>
      </trkpt>
      <trkpt lat="46.13614" lon="6.26941">
        <ele>498.8</ele>
        <time>2021-04-17T15:43:38Z</time>
      </trkpt>
      <trkpt lat="46.13621" lon="6.26946">
        <ele>498.6</ele>
        <time>2021-04-17T15:43:39Z</time>
      </trkpt>
      <trkpt lat="46.13629" lon="6.26951">
        <ele>498.6</ele>
        <time>2021-04-17T15:43:40Z</time>
      </trkpt>
      <trkpt lat="46.13636" lon="6.26955">
        <ele>498.2</ele>
        <time>2021-04-17T15:43:41Z</time>
      </trkpt>
      <trkpt lat="46.13643" lon="6.26959">
        <ele>498.2</ele>
        <time>2021-04-17T15:43:42Z</time>
      </trkpt>
      <trkpt lat="46.1365" lon="6.26964">
        <ele>498.2</ele>
        <time>2021-04-17T15:43:43Z</time>
      </trkpt>
      <trkpt lat="46.13658" lon="6.26969">
        <ele>498</ele>
        <time>2021-04-17T15:43:44Z</time>
      </trkpt>
      <trkpt lat="46.13665" lon="6.26973">
        <ele>497.8</ele>
        <time>2021-04-17T15:43:45Z</time>
      </trkpt>
      <trkpt lat="46.13672" lon="6.26978">
        <ele>497.4</ele>
        <time>2021-04-17T15:43:46Z</time>
      </trkpt>
      <trkpt lat="46.13679" lon="6.26983">
        <ele>497.2</ele>
        <time>2021-04-17T15:43:47Z</time>
      </trkpt>
      <trkpt lat="46.13686" lon="6.26988">
        <ele>497</ele>
        <time>2021-04-17T15:43:48Z</time>
      </trkpt>
      <trkpt lat="46.13693" lon="6.26992">
        <ele>497.2</ele>
        <time>2021-04-17T15:43:49Z</time>
      </trkpt>
      <trkpt lat="46.13701" lon="6.26997">
        <ele>497</ele>
        <time>2021-04-17T15:43:50Z</time>
      </trkpt>
      <trkpt lat="46.13708" lon="6.27001">
        <ele>496.8</ele>
        <time>2021-04-17T15:43:51Z</time>
      </trkpt>
      <trkpt lat="46.13716" lon="6.27006">
        <ele>496.8</ele>
        <time>2021-04-17T15:43:52Z</time>
      </trkpt>
      <trkpt lat="46.13724" lon="6.27011">
        <ele>496.8</ele>
        <time>2021-04-17T15:43:53Z</time>
      </trkpt>
      <trkpt lat="46.13731" lon="6.27016">
        <ele>497</ele>
        <time>2021-04-17T15:43:54Z</time>
      </trkpt>
      <trkpt lat="46.13739" lon="6.27021">
        <ele>496.8</ele>
        <time>2021-04-17T15:43:55Z</time>
      </trkpt>
      <trkpt lat="46.13746" lon="6.27025">
        <ele>496.8</ele>
        <time>2021-04-17T15:43:56Z</time>
      </trkpt>
      <trkpt lat="46.13754" lon="6.27029">
        <ele>496.4</ele>
        <time>2021-04-17T15:43:57Z</time>
      </trkpt>
      <trkpt lat="46.13762" lon="6.27033">
        <ele>496.4</ele>
        <time>2021-04-17T15:43:58Z</time>
      </trkpt>
      <trkpt lat="46.13769" lon="6.27037">
        <ele>496.4</ele>
        <time>2021-04-17T15:43:59Z</time>
      </trkpt>
      <trkpt lat="46.13776" lon="6.2704">
        <ele>496.2</ele>
        <time>2021-04-17T15:44:00Z</time>
      </trkpt>
      <trkpt lat="46.13783" lon="6.27043">
        <ele>496.2</ele>
        <time>2021-04-17T15:44:01Z</time>
      </trkpt>
      <trkpt lat="46.1379" lon="6.27045">
        <ele>496.2</ele>
        <time>2021-04-17T15:44:02Z</time>
      </trkpt>
      <trkpt lat="46.13797" lon="6.27047">
        <ele>495.8</ele>
        <time>2021-04-17T15:44:03Z</time>
      </trkpt>
      <trkpt lat="46.13805" lon="6.2705">
        <ele>495.6</ele>
        <time>2021-04-17T15:44:04Z</time>
      </trkpt>
      <trkpt lat="46.13811" lon="6.27052">
        <ele>495.2</ele>
        <time>2021-04-17T15:44:05Z</time>
      </trkpt>
      <trkpt lat="46.13818" lon="6.27055">
        <ele>495</ele>
        <time>2021-04-17T15:44:06Z</time>
      </trkpt>
      <trkpt lat="46.13825" lon="6.27057">
        <ele>494.8</ele>
        <time>2021-04-17T15:44:07Z</time>
      </trkpt>
      <trkpt lat="46.13832" lon="6.27058">
        <ele>494.4</ele>
        <time>2021-04-17T15:44:08Z</time>
      </trkpt>
      <trkpt lat="46.1384" lon="6.27059">
        <ele>494.6</ele>
        <time>2021-04-17T15:44:09Z</time>
      </trkpt>
      <trkpt lat="46.13847" lon="6.27059">
        <ele>494.4</ele>
        <time>2021-04-17T15:44:10Z</time>
      </trkpt>
      <trkpt lat="46.13854" lon="6.27058">
        <ele>494.4</ele>
        <time>2021-04-17T15:44:11Z</time>
      </trkpt>
      <trkpt lat="46.13868" lon="6.27057">
        <ele>494.2</ele>
        <time>2021-04-17T15:44:13Z</time>
      </trkpt>
      <trkpt lat="46.13875" lon="6.27058">
        <ele>494.2</ele>
        <time>2021-04-17T15:44:14Z</time>
      </trkpt>
      <trkpt lat="46.13881" lon="6.2706">
        <ele>494.2</ele>
        <time>2021-04-17T15:44:15Z</time>
      </trkpt>
      <trkpt lat="46.13886" lon="6.27062">
        <ele>494.4</ele>
        <time>2021-04-17T15:44:16Z</time>
      </trkpt>
      <trkpt lat="46.13892" lon="6.27063">
        <ele>494.2</ele>
        <time>2021-04-17T15:44:17Z</time>
      </trkpt>
      <trkpt lat="46.13897" lon="6.27061">
        <ele>494.2</ele>
        <time>2021-04-17T15:44:18Z</time>
      </trkpt>
      <trkpt lat="46.13902" lon="6.27057">
        <ele>494</ele>
        <time>2021-04-17T15:44:19Z</time>
      </trkpt>
      <trkpt lat="46.13905" lon="6.27049">
        <ele>494.2</ele>
        <time>2021-04-17T15:44:20Z</time>
      </trkpt>
      <trkpt lat="46.13908" lon="6.27041">
        <ele>494.2</ele>
        <time>2021-04-17T15:44:21Z</time>
      </trkpt>
      <trkpt lat="46.1391" lon="6.27031">
        <ele>494.2</ele>
        <time>2021-04-17T15:44:22Z</time>
      </trkpt>
      <trkpt lat="46.13913" lon="6.27023">
        <ele>494</ele>
        <time>2021-04-17T15:44:23Z</time>
      </trkpt>
      <trkpt lat="46.13917" lon="6.27014">
        <ele>494.2</ele>
        <time>2021-04-17T15:44:24Z</time>
      </trkpt>
      <trkpt lat="46.1392" lon="6.27004">
        <ele>494.2</ele>
        <time>2021-04-17T15:44:25Z</time>
      </trkpt>
      <trkpt lat="46.13923" lon="6.26994">
        <ele>493.8</ele>
        <time>2021-04-17T15:44:26Z</time>
      </trkpt>
      <trkpt lat="46.13925" lon="6.26983">
        <ele>493.4</ele>
        <time>2021-04-17T15:44:27Z</time>
      </trkpt>
      <trkpt lat="46.13926" lon="6.26972">
        <ele>493.4</ele>
        <time>2021-04-17T15:44:28Z</time>
      </trkpt>
      <trkpt lat="46.13925" lon="6.26959">
        <ele>493.2</ele>
        <time>2021-04-17T15:44:29Z</time>
      </trkpt>
      <trkpt lat="46.13924" lon="6.26947">
        <ele>493.2</ele>
        <time>2021-04-17T15:44:30Z</time>
      </trkpt>
      <trkpt lat="46.13921" lon="6.26934">
        <ele>493</ele>
        <time>2021-04-17T15:44:31Z</time>
      </trkpt>
      <trkpt lat="46.13918" lon="6.26921">
        <ele>492.8</ele>
        <time>2021-04-17T15:44:32Z</time>
      </trkpt>
      <trkpt lat="46.13916" lon="6.26907">
        <ele>492.8</ele>
        <time>2021-04-17T15:44:33Z</time>
      </trkpt>
      <trkpt lat="46.13916" lon="6.26893">
        <ele>492.6</ele>
        <time>2021-04-17T15:44:34Z</time>
      </trkpt>
      <trkpt lat="46.13918" lon="6.26879">
        <ele>492.2</ele>
        <time>2021-04-17T15:44:35Z</time>
      </trkpt>
      <trkpt lat="46.13923" lon="6.26865">
        <ele>490.6</ele>
        <time>2021-04-17T15:44:36Z</time>
      </trkpt>
      <trkpt lat="46.13931" lon="6.26855">
        <ele>489.8</ele>
        <time>2021-04-17T15:44:37Z</time>
      </trkpt>
      <trkpt lat="46.13941" lon="6.26849">
        <ele>489.4</ele>
        <time>2021-04-17T15:44:38Z</time>
      </trkpt>
      <trkpt lat="46.13952" lon="6.26847">
        <ele>489.2</ele>
        <time>2021-04-17T15:44:39Z</time>
      </trkpt>
      <trkpt lat="46.13963" lon="6.26849">
        <ele>488.8</ele>
        <time>2021-04-17T15:44:40Z</time>
      </trkpt>
      <trkpt lat="46.13973" lon="6.26853">
        <ele>488.8</ele>
        <time>2021-04-17T15:44:41Z</time>
      </trkpt>
      <trkpt lat="46.13983" lon="6.26859">
        <ele>488.4</ele>
        <time>2021-04-17T15:44:42Z</time>
      </trkpt>
      <trkpt lat="46.13993" lon="6.26865">
        <ele>488</ele>
        <time>2021-04-17T15:44:43Z</time>
      </trkpt>
      <trkpt lat="46.14003" lon="6.26871">
        <ele>487.4</ele>
        <time>2021-04-17T15:44:44Z</time>
      </trkpt>
      <trkpt lat="46.14014" lon="6.26877">
        <ele>486.8</ele>
        <time>2021-04-17T15:44:45Z</time>
      </trkpt>
      <trkpt lat="46.14024" lon="6.26884">
        <ele>485</ele>
        <time>2021-04-17T15:44:46Z</time>
      </trkpt>
      <trkpt lat="46.14035" lon="6.2689">
        <ele>483.4</ele>
        <time>2021-04-17T15:44:47Z</time>
      </trkpt>
      <trkpt lat="46.14045" lon="6.26897">
        <ele>482.4</ele>
        <time>2021-04-17T15:44:48Z</time>
      </trkpt>
      <trkpt lat="46.14055" lon="6.26903">
        <ele>481.8</ele>
        <time>2021-04-17T15:44:49Z</time>
      </trkpt>
      <trkpt lat="46.14066" lon="6.26909">
        <ele>481.2</ele>
        <time>2021-04-17T15:44:50Z</time>
      </trkpt>
      <trkpt lat="46.14076" lon="6.26916">
        <ele>480.6</ele>
        <time>2021-04-17T15:44:51Z</time>
      </trkpt>
      <trkpt lat="46.14086" lon="6.26922">
        <ele>480.4</ele>
        <time>2021-04-17T15:44:52Z</time>
      </trkpt>
      <trkpt lat="46.14097" lon="6.26928">
        <ele>479.6</ele>
        <time>2021-04-17T15:44:53Z</time>
      </trkpt>
      <trkpt lat="46.14106" lon="6.26934">
        <ele>478.6</ele>
        <time>2021-04-17T15:44:54Z</time>
      </trkpt>
      <trkpt lat="46.14116" lon="6.2694">
        <ele>477.6</ele>
        <time>2021-04-17T15:44:55Z</time>
      </trkpt>
      <trkpt lat="46.14126" lon="6.26946">
        <ele>477.2</ele>
        <time>2021-04-17T15:44:56Z</time>
      </trkpt>
      <trkpt lat="46.14136" lon="6.26952">
        <ele>476.8</ele>
        <time>2021-04-17T15:44:57Z</time>
      </trkpt>
      <trkpt lat="46.14146" lon="6.26959">
        <ele>476.4</ele>
        <time>2021-04-17T15:44:58Z</time>
      </trkpt>
      <trkpt lat="46.14155" lon="6.26965">
        <ele>475</ele>
        <time>2021-04-17T15:44:59Z</time>
      </trkpt>
      <trkpt lat="46.14165" lon="6.2697">
        <ele>473.6</ele>
        <time>2021-04-17T15:45:00Z</time>
      </trkpt>
      <trkpt lat="46.14174" lon="6.26975">
        <ele>473</ele>
        <time>2021-04-17T15:45:01Z</time>
      </trkpt>
      <trkpt lat="46.14184" lon="6.2698">
        <ele>472.4</ele>
        <time>2021-04-17T15:45:02Z</time>
      </trkpt>
      <trkpt lat="46.14194" lon="6.26983">
        <ele>471.8</ele>
        <time>2021-04-17T15:45:03Z</time>
      </trkpt>
      <trkpt lat="46.14204" lon="6.26984">
        <ele>471.2</ele>
        <time>2021-04-17T15:45:04Z</time>
      </trkpt>
      <trkpt lat="46.14214" lon="6.26985">
        <ele>470.4</ele>
        <time>2021-04-17T15:45:05Z</time>
      </trkpt>
      <trkpt lat="46.14225" lon="6.26984">
        <ele>469.6</ele>
        <time>2021-04-17T15:45:06Z</time>
      </trkpt>
      <trkpt lat="46.14236" lon="6.26982">
        <ele>469.2</ele>
        <time>2021-04-17T15:45:07Z</time>
      </trkpt>
      <trkpt lat="46.14246" lon="6.26978">
        <ele>468.6</ele>
        <time>2021-04-17T15:45:08Z</time>
      </trkpt>
      <trkpt lat="46.14256" lon="6.26974">
        <ele>468.4</ele>
        <time>2021-04-17T15:45:09Z</time>
      </trkpt>
      <trkpt lat="46.14267" lon="6.2697">
        <ele>468</ele>
        <time>2021-04-17T15:45:10Z</time>
      </trkpt>
      <trkpt lat="46.14277" lon="6.26966">
        <ele>467.8</ele>
        <time>2021-04-17T15:45:11Z</time>
      </trkpt>
      <trkpt lat="46.14288" lon="6.26962">
        <ele>467</ele>
        <time>2021-04-17T15:45:12Z</time>
      </trkpt>
      <trkpt lat="46.14298" lon="6.26958">
        <ele>466.6</ele>
        <time>2021-04-17T15:45:13Z</time>
      </trkpt>
      <trkpt lat="46.14308" lon="6.26954">
        <ele>465.8</ele>
        <time>2021-04-17T15:45:14Z</time>
      </trkpt>
      <trkpt lat="46.14318" lon="6.2695">
        <ele>465.4</ele>
        <time>2021-04-17T15:45:15Z</time>
      </trkpt>
      <trkpt lat="46.14328" lon="6.26948">
        <ele>464.2</ele>
        <time>2021-04-17T15:45:16Z</time>
      </trkpt>
      <trkpt lat="46.14338" lon="6.26947">
        <ele>463.4</ele>
        <time>2021-04-17T15:45:17Z</time>
      </trkpt>
      <trkpt lat="46.14349" lon="6.26948">
        <ele>462.8</ele>
        <time>2021-04-17T15:45:18Z</time>
      </trkpt>
      <trkpt lat="46.14359" lon="6.2695">
        <ele>462.4</ele>
        <time>2021-04-17T15:45:19Z</time>
      </trkpt>
      <trkpt lat="46.1437" lon="6.26953">
        <ele>461.8</ele>
        <time>2021-04-17T15:45:20Z</time>
      </trkpt>
      <trkpt lat="46.1438" lon="6.26955">
        <ele>460.6</ele>
        <time>2021-04-17T15:45:21Z</time>
      </trkpt>
      <trkpt lat="46.14391" lon="6.26957">
        <ele>459.6</ele>
        <time>2021-04-17T15:45:22Z</time>
      </trkpt>
      <trkpt lat="46.14402" lon="6.26959">
        <ele>458.8</ele>
        <time>2021-04-17T15:45:23Z</time>
      </trkpt>
      <trkpt lat="46.14412" lon="6.26959">
        <ele>458.4</ele>
        <time>2021-04-17T15:45:24Z</time>
      </trkpt>
      <trkpt lat="46.14422" lon="6.26957">
        <ele>458.4</ele>
        <time>2021-04-17T15:45:25Z</time>
      </trkpt>
      <trkpt lat="46.14432" lon="6.26953">
        <ele>458.2</ele>
        <time>2021-04-17T15:45:26Z</time>
      </trkpt>
      <trkpt lat="46.14442" lon="6.26948">
        <ele>458</ele>
        <time>2021-04-17T15:45:27Z</time>
      </trkpt>
      <trkpt lat="46.14451" lon="6.26942">
        <ele>457.4</ele>
        <time>2021-04-17T15:45:28Z</time>
      </trkpt>
      <trkpt lat="46.1446" lon="6.26935">
        <ele>456.4</ele>
        <time>2021-04-17T15:45:29Z</time>
      </trkpt>
      <trkpt lat="46.14469" lon="6.26927">
        <ele>455.8</ele>
        <time>2021-04-17T15:45:30Z</time>
      </trkpt>
      <trkpt lat="46.14477" lon="6.26918">
        <ele>455</ele>
        <time>2021-04-17T15:45:31Z</time>
      </trkpt>
      <trkpt lat="46.14485" lon="6.2691">
        <ele>454.4</ele>
        <time>2021-04-17T15:45:32Z</time>
      </trkpt>
      <trkpt lat="46.14493" lon="6.26902">
        <ele>454</ele>
        <time>2021-04-17T15:45:33Z</time>
      </trkpt>
      <trkpt lat="46.14501" lon="6.26893">
        <ele>453.2</ele>
        <time>2021-04-17T15:45:34Z</time>
      </trkpt>
      <trkpt lat="46.14509" lon="6.26885">
        <ele>452.4</ele>
        <time>2021-04-17T15:45:35Z</time>
      </trkpt>
      <trkpt lat="46.14525" lon="6.26867">
        <ele>451</ele>
        <time>2021-04-17T15:45:37Z</time>
      </trkpt>
      <trkpt lat="46.14533" lon="6.26859">
        <ele>450.4</ele>
        <time>2021-04-17T15:45:38Z</time>
      </trkpt>
      <trkpt lat="46.14541" lon="6.26852">
        <ele>450.2</ele>
        <time>2021-04-17T15:45:39Z</time>
      </trkpt>
      <trkpt lat="46.1455" lon="6.26848">
        <ele>449.8</ele>
        <time>2021-04-17T15:45:40Z</time>
      </trkpt>
      <trkpt lat="46.14559" lon="6.26845">
        <ele>449.2</ele>
        <time>2021-04-17T15:45:41Z</time>
      </trkpt>
      <trkpt lat="46.14568" lon="6.26844">
        <ele>447.8</ele>
        <time>2021-04-17T15:45:42Z</time>
      </trkpt>
      <trkpt lat="46.14576" lon="6.26845">
        <ele>446.4</ele>
        <time>2021-04-17T15:45:43Z</time>
      </trkpt>
      <trkpt lat="46.14585" lon="6.26849">
        <ele>445.6</ele>
        <time>2021-04-17T15:45:44Z</time>
      </trkpt>
      <trkpt lat="46.14593" lon="6.26855">
        <ele>445</ele>
        <time>2021-04-17T15:45:45Z</time>
      </trkpt>
      <trkpt lat="46.14601" lon="6.26862">
        <ele>444.8</ele>
        <time>2021-04-17T15:45:46Z</time>
      </trkpt>
      <trkpt lat="46.14608" lon="6.2687">
        <ele>444.2</ele>
        <time>2021-04-17T15:45:47Z</time>
      </trkpt>
      <trkpt lat="46.14615" lon="6.26877">
        <ele>443.8</ele>
        <time>2021-04-17T15:45:48Z</time>
      </trkpt>
      <trkpt lat="46.14623" lon="6.26885">
        <ele>443.4</ele>
        <time>2021-04-17T15:45:49Z</time>
      </trkpt>
      <trkpt lat="46.1463" lon="6.26893">
        <ele>443.2</ele>
        <time>2021-04-17T15:45:50Z</time>
      </trkpt>
      <trkpt lat="46.14637" lon="6.26902">
        <ele>443</ele>
        <time>2021-04-17T15:45:51Z</time>
      </trkpt>
      <trkpt lat="46.14643" lon="6.2691">
        <ele>442.8</ele>
        <time>2021-04-17T15:45:52Z</time>
      </trkpt>
      <trkpt lat="46.1465" lon="6.26919">
        <ele>442.6</ele>
        <time>2021-04-17T15:45:53Z</time>
      </trkpt>
      <trkpt lat="46.14656" lon="6.26929">
        <ele>442.2</ele>
        <time>2021-04-17T15:45:54Z</time>
      </trkpt>
      <trkpt lat="46.14662" lon="6.26938">
        <ele>442.2</ele>
        <time>2021-04-17T15:45:55Z</time>
      </trkpt>
      <trkpt lat="46.14669" lon="6.26946">
        <ele>441.4</ele>
        <time>2021-04-17T15:45:56Z</time>
      </trkpt>
      <trkpt lat="46.14675" lon="6.26955">
        <ele>440.8</ele>
        <time>2021-04-17T15:45:57Z</time>
      </trkpt>
      <trkpt lat="46.14681" lon="6.26963">
        <ele>440.4</ele>
        <time>2021-04-17T15:45:58Z</time>
      </trkpt>
      <trkpt lat="46.14686" lon="6.26971">
        <ele>440</ele>
        <time>2021-04-17T15:45:59Z</time>
      </trkpt>
      <trkpt lat="46.14692" lon="6.26979">
        <ele>439.6</ele>
        <time>2021-04-17T15:46:00Z</time>
      </trkpt>
      <trkpt lat="46.14698" lon="6.26986">
        <ele>439.4</ele>
        <time>2021-04-17T15:46:01Z</time>
      </trkpt>
      <trkpt lat="46.14704" lon="6.26993">
        <ele>439.2</ele>
        <time>2021-04-17T15:46:02Z</time>
      </trkpt>
      <trkpt lat="46.1471" lon="6.27">
        <ele>439.2</ele>
        <time>2021-04-17T15:46:03Z</time>
      </trkpt>
      <trkpt lat="46.14716" lon="6.27007">
        <ele>439</ele>
        <time>2021-04-17T15:46:04Z</time>
      </trkpt>
      <trkpt lat="46.14722" lon="6.27013">
        <ele>439</ele>
        <time>2021-04-17T15:46:05Z</time>
      </trkpt>
      <trkpt lat="46.14728" lon="6.27019">
        <ele>439</ele>
        <time>2021-04-17T15:46:06Z</time>
      </trkpt>
      <trkpt lat="46.14735" lon="6.27025">
        <ele>438.8</ele>
        <time>2021-04-17T15:46:07Z</time>
      </trkpt>
      <trkpt lat="46.14741" lon="6.27031">
        <ele>438.6</ele>
        <time>2021-04-17T15:46:08Z</time>
      </trkpt>
      <trkpt lat="46.14747" lon="6.27037">
        <ele>438.4</ele>
        <time>2021-04-17T15:46:09Z</time>
      </trkpt>
      <trkpt lat="46.14754" lon="6.27042">
        <ele>438.4</ele>
        <time>2021-04-17T15:46:10Z</time>
      </trkpt>
      <trkpt lat="46.1476" lon="6.27047">
        <ele>438.2</ele>
        <time>2021-04-17T15:46:11Z</time>
      </trkpt>
      <trkpt lat="46.14766" lon="6.27051">
        <ele>438.2</ele>
        <time>2021-04-17T15:46:12Z</time>
      </trkpt>
      <trkpt lat="46.14773" lon="6.27056">
        <ele>438.2</ele>
        <time>2021-04-17T15:46:13Z</time>
      </trkpt>
      <trkpt lat="46.1478" lon="6.2706">
        <ele>438.2</ele>
        <time>2021-04-17T15:46:14Z</time>
      </trkpt>
      <trkpt lat="46.14787" lon="6.27064">
        <ele>438.4</ele>
        <time>2021-04-17T15:46:15Z</time>
      </trkpt>
      <trkpt lat="46.14793" lon="6.27068">
        <ele>438.2</ele>
        <time>2021-04-17T15:46:16Z</time>
      </trkpt>
      <trkpt lat="46.148" lon="6.27072">
        <ele>438.2</ele>
        <time>2021-04-17T15:46:17Z</time>
      </trkpt>
      <trkpt lat="46.14807" lon="6.27075">
        <ele>438.2</ele>
        <time>2021-04-17T15:46:18Z</time>
      </trkpt>
      <trkpt lat="46.14814" lon="6.27078">
        <ele>438.2</ele>
        <time>2021-04-17T15:46:19Z</time>
      </trkpt>
      <trkpt lat="46.14821" lon="6.27082">
        <ele>438</ele>
        <time>2021-04-17T15:46:20Z</time>
      </trkpt>
      <trkpt lat="46.14828" lon="6.27085">
        <ele>438</ele>
        <time>2021-04-17T15:46:21Z</time>
      </trkpt>
      <trkpt lat="46.14835" lon="6.27088">
        <ele>438</ele>
        <time>2021-04-17T15:46:22Z</time>
      </trkpt>
      <trkpt lat="46.14842" lon="6.27091">
        <ele>438</ele>
        <time>2021-04-17T15:46:23Z</time>
      </trkpt>
      <trkpt lat="46.14848" lon="6.27094">
        <ele>437.8</ele>
        <time>2021-04-17T15:46:24Z</time>
      </trkpt>
      <trkpt lat="46.14855" lon="6.27097">
        <ele>437.8</ele>
        <time>2021-04-17T15:46:25Z</time>
      </trkpt>
      <trkpt lat="46.14862" lon="6.271">
        <ele>437.8</ele>
        <time>2021-04-17T15:46:26Z</time>
      </trkpt>
      <trkpt lat="46.14869" lon="6.27103">
        <ele>437.8</ele>
        <time>2021-04-17T15:46:27Z</time>
      </trkpt>
      <trkpt lat="46.14875" lon="6.27106">
        <ele>437.8</ele>
        <time>2021-04-17T15:46:28Z</time>
      </trkpt>
      <trkpt lat="46.14888" lon="6.27112">
        <ele>437.6</ele>
        <time>2021-04-17T15:46:30Z</time>
      </trkpt>
      <trkpt lat="46.14895" lon="6.27115">
        <ele>437.8</ele>
        <time>2021-04-17T15:46:31Z</time>
      </trkpt>
      <trkpt lat="46.14901" lon="6.27118">
        <ele>437.8</ele>
        <time>2021-04-17T15:46:32Z</time>
      </trkpt>
      <trkpt lat="46.14908" lon="6.27121">
        <ele>437.8</ele>
        <time>2021-04-17T15:46:33Z</time>
      </trkpt>
      <trkpt lat="46.14914" lon="6.27124">
        <ele>437.8</ele>
        <time>2021-04-17T15:46:34Z</time>
      </trkpt>
      <trkpt lat="46.14921" lon="6.27127">
        <ele>437.8</ele>
        <time>2021-04-17T15:46:35Z</time>
      </trkpt>
      <trkpt lat="46.14928" lon="6.2713">
        <ele>437.8</ele>
        <time>2021-04-17T15:46:36Z</time>
      </trkpt>
      <trkpt lat="46.14935" lon="6.27133">
        <ele>437.8</ele>
        <time>2021-04-17T15:46:37Z</time>
      </trkpt>
      <trkpt lat="46.14942" lon="6.27136">
        <ele>437.8</ele>
        <time>2021-04-17T15:46:38Z</time>
      </trkpt>
      <trkpt lat="46.14948" lon="6.27139">
        <ele>438</ele>
        <time>2021-04-17T15:46:39Z</time>
      </trkpt>
      <trkpt lat="46.14954" lon="6.27142">
        <ele>438.2</ele>
        <time>2021-04-17T15:46:40Z</time>
      </trkpt>
      <trkpt lat="46.14961" lon="6.27145">
        <ele>438.4</ele>
        <time>2021-04-17T15:46:41Z</time>
      </trkpt>
      <trkpt lat="46.14967" lon="6.27147">
        <ele>438.6</ele>
        <time>2021-04-17T15:46:42Z</time>
      </trkpt>
      <trkpt lat="46.14973" lon="6.27149">
        <ele>438.8</ele>
        <time>2021-04-17T15:46:43Z</time>
      </trkpt>
      <trkpt lat="46.14979" lon="6.2715">
        <ele>438.8</ele>
        <time>2021-04-17T15:46:44Z</time>
      </trkpt>
      <trkpt lat="46.14984" lon="6.2715">
        <ele>439</ele>
        <time>2021-04-17T15:46:45Z</time>
      </trkpt>
      <trkpt lat="46.14989" lon="6.2715">
        <ele>439.2</ele>
        <time>2021-04-17T15:46:46Z</time>
      </trkpt>
      <trkpt lat="46.14995" lon="6.2715">
        <ele>439.4</ele>
        <time>2021-04-17T15:46:47Z</time>
      </trkpt>
      <trkpt lat="46.15" lon="6.27149">
        <ele>439.4</ele>
        <time>2021-04-17T15:46:48Z</time>
      </trkpt>
      <trkpt lat="46.15005" lon="6.27148">
        <ele>439.6</ele>
        <time>2021-04-17T15:46:49Z</time>
      </trkpt>
      <trkpt lat="46.15009" lon="6.27146">
        <ele>439.8</ele>
        <time>2021-04-17T15:46:50Z</time>
      </trkpt>
      <trkpt lat="46.15014" lon="6.27143">
        <ele>440.2</ele>
        <time>2021-04-17T15:46:51Z</time>
      </trkpt>
      <trkpt lat="46.15018" lon="6.2714">
        <ele>440.4</ele>
        <time>2021-04-17T15:46:52Z</time>
      </trkpt>
      <trkpt lat="46.15022" lon="6.27135">
        <ele>440.8</ele>
        <time>2021-04-17T15:46:53Z</time>
      </trkpt>
      <trkpt lat="46.15026" lon="6.2713">
        <ele>440.8</ele>
        <time>2021-04-17T15:46:54Z</time>
      </trkpt>
      <trkpt lat="46.15029" lon="6.27124">
        <ele>441</ele>
        <time>2021-04-17T15:46:55Z</time>
      </trkpt>
      <trkpt lat="46.15032" lon="6.27119">
        <ele>441.2</ele>
        <time>2021-04-17T15:46:56Z</time>
      </trkpt>
      <trkpt lat="46.15035" lon="6.27112">
        <ele>441.4</ele>
        <time>2021-04-17T15:46:57Z</time>
      </trkpt>
      <trkpt lat="46.15038" lon="6.27106">
        <ele>441.8</ele>
        <time>2021-04-17T15:46:58Z</time>
      </trkpt>
      <trkpt lat="46.15041" lon="6.271">
        <ele>441.6</ele>
        <time>2021-04-17T15:46:59Z</time>
      </trkpt>
      <trkpt lat="46.15044" lon="6.27094">
        <ele>441.8</ele>
        <time>2021-04-17T15:47:00Z</time>
      </trkpt>
      <trkpt lat="46.15048" lon="6.27087">
        <ele>441.8</ele>
        <time>2021-04-17T15:47:01Z</time>
      </trkpt>
      <trkpt lat="46.15051" lon="6.27081">
        <ele>441.8</ele>
        <time>2021-04-17T15:47:02Z</time>
      </trkpt>
      <trkpt lat="46.15054" lon="6.27075">
        <ele>442.2</ele>
        <time>2021-04-17T15:47:03Z</time>
      </trkpt>
      <trkpt lat="46.15057" lon="6.27069">
        <ele>442</ele>
        <time>2021-04-17T15:47:04Z</time>
      </trkpt>
      <trkpt lat="46.15061" lon="6.27062">
        <ele>442.2</ele>
        <time>2021-04-17T15:47:05Z</time>
      </trkpt>
      <trkpt lat="46.15064" lon="6.27056">
        <ele>442.2</ele>
        <time>2021-04-17T15:47:06Z</time>
      </trkpt>
      <trkpt lat="46.15067" lon="6.2705">
        <ele>442.2</ele>
        <time>2021-04-17T15:47:07Z</time>
      </trkpt>
      <trkpt lat="46.15071" lon="6.27043">
        <ele>442.2</ele>
        <time>2021-04-17T15:47:08Z</time>
      </trkpt>
      <trkpt lat="46.15074" lon="6.27037">
        <ele>442.4</ele>
        <time>2021-04-17T15:47:09Z</time>
      </trkpt>
      <trkpt lat="46.15077" lon="6.27031">
        <ele>442.4</ele>
        <time>2021-04-17T15:47:10Z</time>
      </trkpt>
      <trkpt lat="46.15081" lon="6.27025">
        <ele>442.4</ele>
        <time>2021-04-17T15:47:11Z</time>
      </trkpt>
      <trkpt lat="46.15086" lon="6.27022">
        <ele>442.4</ele>
        <time>2021-04-17T15:47:12Z</time>
      </trkpt>
      <trkpt lat="46.15091" lon="6.27021">
        <ele>442.4</ele>
        <time>2021-04-17T15:47:13Z</time>
      </trkpt>
      <trkpt lat="46.15096" lon="6.27022">
        <ele>442.4</ele>
        <time>2021-04-17T15:47:14Z</time>
      </trkpt>
      <trkpt lat="46.15101" lon="6.27026">
        <ele>442.4</ele>
        <time>2021-04-17T15:47:15Z</time>
      </trkpt>
      <trkpt lat="46.15106" lon="6.2703">
        <ele>442.4</ele>
        <time>2021-04-17T15:47:16Z</time>
      </trkpt>
      <trkpt lat="46.15111" lon="6.27035">
        <ele>442.4</ele>
        <time>2021-04-17T15:47:17Z</time>
      </trkpt>
      <trkpt lat="46.15116" lon="6.2704">
        <ele>442.4</ele>
        <time>2021-04-17T15:47:18Z</time>
      </trkpt>
      <trkpt lat="46.15122" lon="6.27045">
        <ele>442.4</ele>
        <time>2021-04-17T15:47:19Z</time>
      </trkpt>
      <trkpt lat="46.15127" lon="6.2705">
        <ele>442.4</ele>
        <time>2021-04-17T15:47:20Z</time>
      </trkpt>
      <trkpt lat="46.15133" lon="6.27055">
        <ele>442.4</ele>
        <time>2021-04-17T15:47:21Z</time>
      </trkpt>
      <trkpt lat="46.15139" lon="6.27059">
        <ele>442.4</ele>
        <time>2021-04-17T15:47:22Z</time>
      </trkpt>
      <trkpt lat="46.15145" lon="6.27062">
        <ele>442.4</ele>
        <time>2021-04-17T15:47:23Z</time>
      </trkpt>
      <trkpt lat="46.1515" lon="6.27066">
        <ele>442.2</ele>
        <time>2021-04-17T15:47:24Z</time>
      </trkpt>
      <trkpt lat="46.15156" lon="6.27069">
        <ele>442.2</ele>
        <time>2021-04-17T15:47:25Z</time>
      </trkpt>
      <trkpt lat="46.15161" lon="6.27072">
        <ele>442.4</ele>
        <time>2021-04-17T15:47:26Z</time>
      </trkpt>
      <trkpt lat="46.15167" lon="6.27075">
        <ele>442.2</ele>
        <time>2021-04-17T15:47:27Z</time>
      </trkpt>
      <trkpt lat="46.15172" lon="6.27078">
        <ele>442.2</ele>
        <time>2021-04-17T15:47:28Z</time>
      </trkpt>
      <trkpt lat="46.15177" lon="6.27081">
        <ele>442</ele>
        <time>2021-04-17T15:47:29Z</time>
      </trkpt>
      <trkpt lat="46.15181" lon="6.27084">
        <ele>442</ele>
        <time>2021-04-17T15:47:30Z</time>
      </trkpt>
      <trkpt lat="46.15186" lon="6.27087">
        <ele>442</ele>
        <time>2021-04-17T15:47:31Z</time>
      </trkpt>
      <trkpt lat="46.1519" lon="6.2709">
        <ele>442.2</ele>
        <time>2021-04-17T15:47:32Z</time>
      </trkpt>
      <trkpt lat="46.15194" lon="6.27092">
        <ele>442</ele>
        <time>2021-04-17T15:47:33Z</time>
      </trkpt>
      <trkpt lat="46.15198" lon="6.27094">
        <ele>442</ele>
        <time>2021-04-17T15:47:34Z</time>
      </trkpt>
      <trkpt lat="46.15202" lon="6.27097">
        <ele>442.2</ele>
        <time>2021-04-17T15:47:35Z</time>
      </trkpt>
      <trkpt lat="46.15206" lon="6.27099">
        <ele>442</ele>
        <time>2021-04-17T15:47:36Z</time>
      </trkpt>
      <trkpt lat="46.15209" lon="6.27101">
        <ele>442.6</ele>
        <time>2021-04-17T15:47:37Z</time>
      </trkpt>
      <trkpt lat="46.15213" lon="6.27102">
        <ele>442.8</ele>
        <time>2021-04-17T15:47:38Z</time>
      </trkpt>
      <trkpt lat="46.15216" lon="6.27104">
        <ele>443.2</ele>
        <time>2021-04-17T15:47:39Z</time>
      </trkpt>
      <trkpt lat="46.15219" lon="6.27106">
        <ele>443.4</ele>
        <time>2021-04-17T15:47:40Z</time>
      </trkpt>
      <trkpt lat="46.15222" lon="6.27108">
        <ele>443.6</ele>
        <time>2021-04-17T15:47:41Z</time>
      </trkpt>
      <trkpt lat="46.15225" lon="6.2711">
        <ele>444</ele>
        <time>2021-04-17T15:47:42Z</time>
      </trkpt>
      <trkpt lat="46.15228" lon="6.27112">
        <ele>444.2</ele>
        <time>2021-04-17T15:47:43Z</time>
      </trkpt>
      <trkpt lat="46.15231" lon="6.27113">
        <ele>444.8</ele>
        <time>2021-04-17T15:47:44Z</time>
      </trkpt>
      <trkpt lat="46.15234" lon="6.27115">
        <ele>445</ele>
        <time>2021-04-17T15:47:45Z</time>
      </trkpt>
      <trkpt lat="46.15237" lon="6.27117">
        <ele>445.4</ele>
        <time>2021-04-17T15:47:46Z</time>
      </trkpt>
      <trkpt lat="46.1524" lon="6.27118">
        <ele>445.6</ele>
        <time>2021-04-17T15:47:47Z</time>
      </trkpt>
      <trkpt lat="46.15243" lon="6.2712">
        <ele>446</ele>
        <time>2021-04-17T15:47:48Z</time>
      </trkpt>
      <trkpt lat="46.15246" lon="6.27122">
        <ele>446.2</ele>
        <time>2021-04-17T15:47:49Z</time>
      </trkpt>
      <trkpt lat="46.15249" lon="6.27124">
        <ele>446.8</ele>
        <time>2021-04-17T15:47:50Z</time>
      </trkpt>
      <trkpt lat="46.15252" lon="6.27125">
        <ele>447.4</ele>
        <time>2021-04-17T15:47:51Z</time>
      </trkpt>
      <trkpt lat="46.15255" lon="6.27127">
        <ele>447.6</ele>
        <time>2021-04-17T15:47:52Z</time>
      </trkpt>
      <trkpt lat="46.15257" lon="6.27128">
        <ele>448</ele>
        <time>2021-04-17T15:47:53Z</time>
      </trkpt>
      <trkpt lat="46.1526" lon="6.2713">
        <ele>448.2</ele>
        <time>2021-04-17T15:47:54Z</time>
      </trkpt>
      <trkpt lat="46.15263" lon="6.27132">
        <ele>448.4</ele>
        <time>2021-04-17T15:47:55Z</time>
      </trkpt>
      <trkpt lat="46.15265" lon="6.27133">
        <ele>448.2</ele>
        <time>2021-04-17T15:47:56Z</time>
      </trkpt>
      <trkpt lat="46.15268" lon="6.27135">
        <ele>448.6</ele>
        <time>2021-04-17T15:47:57Z</time>
      </trkpt>
      <trkpt lat="46.1527" lon="6.27136">
        <ele>449</ele>
        <time>2021-04-17T15:47:58Z</time>
      </trkpt>
      <trkpt lat="46.15273" lon="6.27138">
        <ele>449.6</ele>
        <time>2021-04-17T15:47:59Z</time>
      </trkpt>
      <trkpt lat="46.15276" lon="6.27139">
        <ele>450.2</ele>
        <time>2021-04-17T15:48:00Z</time>
      </trkpt>
      <trkpt lat="46.15278" lon="6.2714">
        <ele>450.4</ele>
        <time>2021-04-17T15:48:01Z</time>
      </trkpt>
      <trkpt lat="46.15281" lon="6.27142">
        <ele>450.8</ele>
        <time>2021-04-17T15:48:02Z</time>
      </trkpt>
      <trkpt lat="46.15283" lon="6.27143">
        <ele>451.2</ele>
        <time>2021-04-17T15:48:03Z</time>
      </trkpt>
      <trkpt lat="46.15286" lon="6.27145">
        <ele>451.4</ele>
        <time>2021-04-17T15:48:04Z</time>
      </trkpt>
      <trkpt lat="46.15288" lon="6.27146">
        <ele>452</ele>
        <time>2021-04-17T15:48:05Z</time>
      </trkpt>
      <trkpt lat="46.15291" lon="6.27148">
        <ele>452.2</ele>
        <time>2021-04-17T15:48:06Z</time>
      </trkpt>
      <trkpt lat="46.15293" lon="6.27149">
        <ele>452.6</ele>
        <time>2021-04-17T15:48:07Z</time>
      </trkpt>
      <trkpt lat="46.15296" lon="6.2715">
        <ele>453</ele>
        <time>2021-04-17T15:48:08Z</time>
      </trkpt>
      <trkpt lat="46.15299" lon="6.27151">
        <ele>453.2</ele>
        <time>2021-04-17T15:48:09Z</time>
      </trkpt>
      <trkpt lat="46.15301" lon="6.27152">
        <ele>453.6</ele>
        <time>2021-04-17T15:48:10Z</time>
      </trkpt>
      <trkpt lat="46.15304" lon="6.27153">
        <ele>454</ele>
        <time>2021-04-17T15:48:11Z</time>
      </trkpt>
      <trkpt lat="46.15306" lon="6.27154">
        <ele>454.6</ele>
        <time>2021-04-17T15:48:12Z</time>
      </trkpt>
      <trkpt lat="46.15309" lon="6.27156">
        <ele>454.8</ele>
        <time>2021-04-17T15:48:13Z</time>
      </trkpt>
      <trkpt lat="46.15311" lon="6.27156">
        <ele>455.2</ele>
        <time>2021-04-17T15:48:14Z</time>
      </trkpt>
      <trkpt lat="46.15314" lon="6.27157">
        <ele>455.4</ele>
        <time>2021-04-17T15:48:15Z</time>
      </trkpt>
      <trkpt lat="46.15317" lon="6.27158">
        <ele>455.8</ele>
        <time>2021-04-17T15:48:16Z</time>
      </trkpt>
      <trkpt lat="46.15319" lon="6.27159">
        <ele>456</ele>
        <time>2021-04-17T15:48:17Z</time>
      </trkpt>
      <trkpt lat="46.15322" lon="6.27159">
        <ele>456.2</ele>
        <time>2021-04-17T15:48:18Z</time>
      </trkpt>
      <trkpt lat="46.15325" lon="6.2716">
        <ele>456.4</ele>
        <time>2021-04-17T15:48:19Z</time>
      </trkpt>
      <trkpt lat="46.15327" lon="6.2716">
        <ele>456.4</ele>
        <time>2021-04-17T15:48:20Z</time>
      </trkpt>
      <trkpt lat="46.1533" lon="6.27161">
        <ele>456.6</ele>
        <time>2021-04-17T15:48:21Z</time>
      </trkpt>
      <trkpt lat="46.15333" lon="6.27161">
        <ele>456.6</ele>
        <time>2021-04-17T15:48:22Z</time>
      </trkpt>
      <trkpt lat="46.15335" lon="6.27162">
        <ele>456.8</ele>
        <time>2021-04-17T15:48:23Z</time>
      </trkpt>
      <trkpt lat="46.15338" lon="6.27162">
        <ele>457.2</ele>
        <time>2021-04-17T15:48:24Z</time>
      </trkpt>
      <trkpt lat="46.1534" lon="6.27162">
        <ele>457.6</ele>
        <time>2021-04-17T15:48:25Z</time>
      </trkpt>
      <trkpt lat="46.15343" lon="6.27162">
        <ele>458</ele>
        <time>2021-04-17T15:48:26Z</time>
      </trkpt>
      <trkpt lat="46.15345" lon="6.27162">
        <ele>458.4</ele>
        <time>2021-04-17T15:48:27Z</time>
      </trkpt>
      <trkpt lat="46.15348" lon="6.27162">
        <ele>459</ele>
        <time>2021-04-17T15:48:28Z</time>
      </trkpt>
      <trkpt lat="46.15351" lon="6.27161">
        <ele>459.6</ele>
        <time>2021-04-17T15:48:29Z</time>
      </trkpt>
      <trkpt lat="46.15353" lon="6.27161">
        <ele>460.2</ele>
        <time>2021-04-17T15:48:30Z</time>
      </trkpt>
      <trkpt lat="46.15356" lon="6.2716">
        <ele>460.4</ele>
        <time>2021-04-17T15:48:31Z</time>
      </trkpt>
      <trkpt lat="46.15359" lon="6.2716">
        <ele>460.6</ele>
        <time>2021-04-17T15:48:32Z</time>
      </trkpt>
      <trkpt lat="46.15361" lon="6.27159">
        <ele>461</ele>
        <time>2021-04-17T15:48:33Z</time>
      </trkpt>
      <trkpt lat="46.15364" lon="6.27159">
        <ele>461.4</ele>
        <time>2021-04-17T15:48:34Z</time>
      </trkpt>
      <trkpt lat="46.15366" lon="6.27158">
        <ele>461.8</ele>
        <time>2021-04-17T15:48:35Z</time>
      </trkpt>
      <trkpt lat="46.15369" lon="6.27157">
        <ele>462</ele>
        <time>2021-04-17T15:48:36Z</time>
      </trkpt>
      <trkpt lat="46.15371" lon="6.27156">
        <ele>462.4</ele>
        <time>2021-04-17T15:48:37Z</time>
      </trkpt>
      <trkpt lat="46.15374" lon="6.27155">
        <ele>462.6</ele>
        <time>2021-04-17T15:48:38Z</time>
      </trkpt>
      <trkpt lat="46.15376" lon="6.27154">
        <ele>462.8</ele>
        <time>2021-04-17T15:48:39Z</time>
      </trkpt>
      <trkpt lat="46.15379" lon="6.27153">
        <ele>463</ele>
        <time>2021-04-17T15:48:40Z</time>
      </trkpt>
      <trkpt lat="46.15381" lon="6.27152">
        <ele>463.2</ele>
        <time>2021-04-17T15:48:41Z</time>
      </trkpt>
      <trkpt lat="46.15384" lon="6.27151">
        <ele>463.4</ele>
        <time>2021-04-17T15:48:42Z</time>
      </trkpt>
      <trkpt lat="46.15386" lon="6.27151">
        <ele>463.6</ele>
        <time>2021-04-17T15:48:43Z</time>
      </trkpt>
      <trkpt lat="46.15389" lon="6.2715">
        <ele>463.8</ele>
        <time>2021-04-17T15:48:44Z</time>
      </trkpt>
      <trkpt lat="46.15392" lon="6.2715">
        <ele>463.8</ele>
        <time>2021-04-17T15:48:45Z</time>
      </trkpt>
      <trkpt lat="46.15394" lon="6.27149">
        <ele>464</ele>
        <time>2021-04-17T15:48:46Z</time>
      </trkpt>
      <trkpt lat="46.15397" lon="6.27148">
        <ele>464.6</ele>
        <time>2021-04-17T15:48:47Z</time>
      </trkpt>
      <trkpt lat="46.154" lon="6.27147">
        <ele>465</ele>
        <time>2021-04-17T15:48:48Z</time>
      </trkpt>
      <trkpt lat="46.15402" lon="6.27146">
        <ele>465</ele>
        <time>2021-04-17T15:48:49Z</time>
      </trkpt>
      <trkpt lat="46.15404" lon="6.27145">
        <ele>465</ele>
        <time>2021-04-17T15:48:50Z</time>
      </trkpt>
      <trkpt lat="46.15407" lon="6.27144">
        <ele>465.2</ele>
        <time>2021-04-17T15:48:51Z</time>
      </trkpt>
      <trkpt lat="46.15409" lon="6.27143">
        <ele>465.4</ele>
        <time>2021-04-17T15:48:52Z</time>
      </trkpt>
      <trkpt lat="46.15412" lon="6.27141">
        <ele>465.4</ele>
        <time>2021-04-17T15:48:53Z</time>
      </trkpt>
      <trkpt lat="46.15415" lon="6.2714">
        <ele>465.6</ele>
        <time>2021-04-17T15:48:54Z</time>
      </trkpt>
      <trkpt lat="46.15417" lon="6.27139">
        <ele>465.8</ele>
        <time>2021-04-17T15:48:55Z</time>
      </trkpt>
      <trkpt lat="46.1542" lon="6.27138">
        <ele>466.2</ele>
        <time>2021-04-17T15:48:56Z</time>
      </trkpt>
      <trkpt lat="46.15422" lon="6.27137">
        <ele>466.4</ele>
        <time>2021-04-17T15:48:57Z</time>
      </trkpt>
      <trkpt lat="46.15424" lon="6.27136">
        <ele>466.8</ele>
        <time>2021-04-17T15:48:58Z</time>
      </trkpt>
      <trkpt lat="46.15427" lon="6.27135">
        <ele>466.8</ele>
        <time>2021-04-17T15:48:59Z</time>
      </trkpt>
      <trkpt lat="46.1543" lon="6.27134">
        <ele>467.2</ele>
        <time>2021-04-17T15:49:00Z</time>
      </trkpt>
      <trkpt lat="46.15432" lon="6.27132">
        <ele>467.4</ele>
        <time>2021-04-17T15:49:01Z</time>
      </trkpt>
      <trkpt lat="46.15435" lon="6.27131">
        <ele>468</ele>
        <time>2021-04-17T15:49:02Z</time>
      </trkpt>
      <trkpt lat="46.15437" lon="6.2713">
        <ele>468.2</ele>
        <time>2021-04-17T15:49:03Z</time>
      </trkpt>
      <trkpt lat="46.1544" lon="6.27129">
        <ele>468.8</ele>
        <time>2021-04-17T15:49:04Z</time>
      </trkpt>
      <trkpt lat="46.15442" lon="6.27127">
        <ele>469.2</ele>
        <time>2021-04-17T15:49:05Z</time>
      </trkpt>
      <trkpt lat="46.15445" lon="6.27126">
        <ele>469.4</ele>
        <time>2021-04-17T15:49:06Z</time>
      </trkpt>
      <trkpt lat="46.15447" lon="6.27124">
        <ele>469.6</ele>
        <time>2021-04-17T15:49:07Z</time>
      </trkpt>
      <trkpt lat="46.15449" lon="6.27123">
        <ele>469.6</ele>
        <time>2021-04-17T15:49:08Z</time>
      </trkpt>
      <trkpt lat="46.15452" lon="6.27121">
        <ele>470</ele>
        <time>2021-04-17T15:49:09Z</time>
      </trkpt>
      <trkpt lat="46.15454" lon="6.27119">
        <ele>470.2</ele>
        <time>2021-04-17T15:49:10Z</time>
      </trkpt>
      <trkpt lat="46.15457" lon="6.27118">
        <ele>470.2</ele>
        <time>2021-04-17T15:49:11Z</time>
      </trkpt>
      <trkpt lat="46.15459" lon="6.27116">
        <ele>470.4</ele>
        <time>2021-04-17T15:49:12Z</time>
      </trkpt>
      <trkpt lat="46.15462" lon="6.27114">
        <ele>470.6</ele>
        <time>2021-04-17T15:49:13Z</time>
      </trkpt>
      <trkpt lat="46.15464" lon="6.27113">
        <ele>471</ele>
        <time>2021-04-17T15:49:14Z</time>
      </trkpt>
      <trkpt lat="46.15466" lon="6.27111">
        <ele>471.4</ele>
        <time>2021-04-17T15:49:15Z</time>
      </trkpt>
      <trkpt lat="46.15469" lon="6.27109">
        <ele>471.6</ele>
        <time>2021-04-17T15:49:16Z</time>
      </trkpt>
      <trkpt lat="46.15471" lon="6.27107">
        <ele>471.8</ele>
        <time>2021-04-17T15:49:17Z</time>
      </trkpt>
      <trkpt lat="46.15473" lon="6.27105">
        <ele>472.2</ele>
        <time>2021-04-17T15:49:18Z</time>
      </trkpt>
      <trkpt lat="46.15475" lon="6.27103">
        <ele>472.4</ele>
        <time>2021-04-17T15:49:19Z</time>
      </trkpt>
      <trkpt lat="46.15477" lon="6.27102">
        <ele>472.6</ele>
        <time>2021-04-17T15:49:20Z</time>
      </trkpt>
      <trkpt lat="46.1548" lon="6.271">
        <ele>473.2</ele>
        <time>2021-04-17T15:49:21Z</time>
      </trkpt>
      <trkpt lat="46.15482" lon="6.27098">
        <ele>473.4</ele>
        <time>2021-04-17T15:49:22Z</time>
      </trkpt>
      <trkpt lat="46.15484" lon="6.27096">
        <ele>473.6</ele>
        <time>2021-04-17T15:49:23Z</time>
      </trkpt>
      <trkpt lat="46.15487" lon="6.27094">
        <ele>473.6</ele>
        <time>2021-04-17T15:49:24Z</time>
      </trkpt>
      <trkpt lat="46.15489" lon="6.27093">
        <ele>473.8</ele>
        <time>2021-04-17T15:49:25Z</time>
      </trkpt>
      <trkpt lat="46.15491" lon="6.27091">
        <ele>473.8</ele>
        <time>2021-04-17T15:49:26Z</time>
      </trkpt>
      <trkpt lat="46.15493" lon="6.27089">
        <ele>473.8</ele>
        <time>2021-04-17T15:49:27Z</time>
      </trkpt>
      <trkpt lat="46.15496" lon="6.27087">
        <ele>474</ele>
        <time>2021-04-17T15:49:28Z</time>
      </trkpt>
      <trkpt lat="46.15498" lon="6.27085">
        <ele>474.2</ele>
        <time>2021-04-17T15:49:29Z</time>
      </trkpt>
      <trkpt lat="46.15501" lon="6.27084">
        <ele>474.6</ele>
        <time>2021-04-17T15:49:30Z</time>
      </trkpt>
      <trkpt lat="46.15503" lon="6.27082">
        <ele>474.8</ele>
        <time>2021-04-17T15:49:31Z</time>
      </trkpt>
      <trkpt lat="46.15505" lon="6.2708">
        <ele>475</ele>
        <time>2021-04-17T15:49:32Z</time>
      </trkpt>
      <trkpt lat="46.15507" lon="6.27079">
        <ele>475.2</ele>
        <time>2021-04-17T15:49:33Z</time>
      </trkpt>
      <trkpt lat="46.1551" lon="6.27077">
        <ele>475.8</ele>
        <time>2021-04-17T15:49:34Z</time>
      </trkpt>
      <trkpt lat="46.15512" lon="6.27075">
        <ele>476</ele>
        <time>2021-04-17T15:49:35Z</time>
      </trkpt>
      <trkpt lat="46.15514" lon="6.27073">
        <ele>476</ele>
        <time>2021-04-17T15:49:36Z</time>
      </trkpt>
      <trkpt lat="46.15517" lon="6.27072">
        <ele>476.2</ele>
        <time>2021-04-17T15:49:37Z</time>
      </trkpt>
      <trkpt lat="46.15519" lon="6.2707">
        <ele>476.6</ele>
        <time>2021-04-17T15:49:38Z</time>
      </trkpt>
      <trkpt lat="46.15521" lon="6.27068">
        <ele>476.8</ele>
        <time>2021-04-17T15:49:39Z</time>
      </trkpt>
      <trkpt lat="46.15523" lon="6.27066">
        <ele>477.4</ele>
        <time>2021-04-17T15:49:40Z</time>
      </trkpt>
      <trkpt lat="46.15526" lon="6.27064">
        <ele>477.4</ele>
        <time>2021-04-17T15:49:41Z</time>
      </trkpt>
      <trkpt lat="46.15528" lon="6.27062">
        <ele>478</ele>
        <time>2021-04-17T15:49:42Z</time>
      </trkpt>
      <trkpt lat="46.1553" lon="6.2706">
        <ele>478</ele>
        <time>2021-04-17T15:49:43Z</time>
      </trkpt>
      <trkpt lat="46.15532" lon="6.27058">
        <ele>478.4</ele>
        <time>2021-04-17T15:49:44Z</time>
      </trkpt>
      <trkpt lat="46.15535" lon="6.27057">
        <ele>478.8</ele>
        <time>2021-04-17T15:49:45Z</time>
      </trkpt>
      <trkpt lat="46.15537" lon="6.27055">
        <ele>479.2</ele>
        <time>2021-04-17T15:49:46Z</time>
      </trkpt>
      <trkpt lat="46.1554" lon="6.27053">
        <ele>479.6</ele>
        <time>2021-04-17T15:49:47Z</time>
      </trkpt>
      <trkpt lat="46.15542" lon="6.27052">
        <ele>480</ele>
        <time>2021-04-17T15:49:48Z</time>
      </trkpt>
      <trkpt lat="46.15545" lon="6.2705">
        <ele>480</ele>
        <time>2021-04-17T15:49:49Z</time>
      </trkpt>
      <trkpt lat="46.15547" lon="6.27049">
        <ele>480</ele>
        <time>2021-04-17T15:49:50Z</time>
      </trkpt>
      <trkpt lat="46.15549" lon="6.27047">
        <ele>480.2</ele>
        <time>2021-04-17T15:49:51Z</time>
      </trkpt>
      <trkpt lat="46.15552" lon="6.27045">
        <ele>480.2</ele>
        <time>2021-04-17T15:49:52Z</time>
      </trkpt>
      <trkpt lat="46.15554" lon="6.27043">
        <ele>481</ele>
        <time>2021-04-17T15:49:53Z</time>
      </trkpt>
      <trkpt lat="46.15557" lon="6.27042">
        <ele>481.4</ele>
        <time>2021-04-17T15:49:54Z</time>
      </trkpt>
      <trkpt lat="46.15559" lon="6.2704">
        <ele>481.8</ele>
        <time>2021-04-17T15:49:55Z</time>
      </trkpt>
      <trkpt lat="46.15562" lon="6.27039">
        <ele>482.4</ele>
        <time>2021-04-17T15:49:56Z</time>
      </trkpt>
      <trkpt lat="46.15564" lon="6.27037">
        <ele>482.6</ele>
        <time>2021-04-17T15:49:57Z</time>
      </trkpt>
      <trkpt lat="46.15566" lon="6.27036">
        <ele>483</ele>
        <time>2021-04-17T15:49:58Z</time>
      </trkpt>
      <trkpt lat="46.15569" lon="6.27034">
        <ele>483.2</ele>
        <time>2021-04-17T15:49:59Z</time>
      </trkpt>
      <trkpt lat="46.15571" lon="6.27033">
        <ele>483.4</ele>
        <time>2021-04-17T15:50:00Z</time>
      </trkpt>
      <trkpt lat="46.15574" lon="6.27031">
        <ele>483.6</ele>
        <time>2021-04-17T15:50:01Z</time>
      </trkpt>
      <trkpt lat="46.15576" lon="6.2703">
        <ele>484.2</ele>
        <time>2021-04-17T15:50:02Z</time>
      </trkpt>
      <trkpt lat="46.15579" lon="6.27029">
        <ele>484.6</ele>
        <time>2021-04-17T15:50:03Z</time>
      </trkpt>
      <trkpt lat="46.15581" lon="6.27028">
        <ele>484.8</ele>
        <time>2021-04-17T15:50:04Z</time>
      </trkpt>
      <trkpt lat="46.15583" lon="6.27026">
        <ele>485.2</ele>
        <time>2021-04-17T15:50:05Z</time>
      </trkpt>
      <trkpt lat="46.15586" lon="6.27025">
        <ele>485.2</ele>
        <time>2021-04-17T15:50:06Z</time>
      </trkpt>
      <trkpt lat="46.15588" lon="6.27024">
        <ele>485.4</ele>
        <time>2021-04-17T15:50:07Z</time>
      </trkpt>
      <trkpt lat="46.1559" lon="6.27022">
        <ele>485.8</ele>
        <time>2021-04-17T15:50:08Z</time>
      </trkpt>
      <trkpt lat="46.15593" lon="6.27021">
        <ele>485.8</ele>
        <time>2021-04-17T15:50:09Z</time>
      </trkpt>
      <trkpt lat="46.15595" lon="6.2702">
        <ele>486</ele>
        <time>2021-04-17T15:50:10Z</time>
      </trkpt>
      <trkpt lat="46.15597" lon="6.27019">
        <ele>486</ele>
        <time>2021-04-17T15:50:11Z</time>
      </trkpt>
      <trkpt lat="46.156" lon="6.27017">
        <ele>486.4</ele>
        <time>2021-04-17T15:50:12Z</time>
      </trkpt>
      <trkpt lat="46.15602" lon="6.27016">
        <ele>487</ele>
        <time>2021-04-17T15:50:13Z</time>
      </trkpt>
      <trkpt lat="46.15605" lon="6.27015">
        <ele>487.2</ele>
        <time>2021-04-17T15:50:14Z</time>
      </trkpt>
      <trkpt lat="46.15607" lon="6.27014">
        <ele>487.8</ele>
        <time>2021-04-17T15:50:15Z</time>
      </trkpt>
      <trkpt lat="46.15609" lon="6.27013">
        <ele>488</ele>
        <time>2021-04-17T15:50:16Z</time>
      </trkpt>
      <trkpt lat="46.15612" lon="6.27012">
        <ele>488</ele>
        <time>2021-04-17T15:50:17Z</time>
      </trkpt>
      <trkpt lat="46.15614" lon="6.27011">
        <ele>488</ele>
        <time>2021-04-17T15:50:18Z</time>
      </trkpt>
      <trkpt lat="46.15617" lon="6.2701">
        <ele>488.2</ele>
        <time>2021-04-17T15:50:19Z</time>
      </trkpt>
      <trkpt lat="46.15619" lon="6.27009">
        <ele>488.4</ele>
        <time>2021-04-17T15:50:20Z</time>
      </trkpt>
      <trkpt lat="46.15622" lon="6.27009">
        <ele>488.8</ele>
        <time>2021-04-17T15:50:21Z</time>
      </trkpt>
      <trkpt lat="46.15624" lon="6.27008">
        <ele>489</ele>
        <time>2021-04-17T15:50:22Z</time>
      </trkpt>
      <trkpt lat="46.15627" lon="6.27007">
        <ele>489</ele>
        <time>2021-04-17T15:50:23Z</time>
      </trkpt>
      <trkpt lat="46.15629" lon="6.27006">
        <ele>489.2</ele>
        <time>2021-04-17T15:50:24Z</time>
      </trkpt>
      <trkpt lat="46.15632" lon="6.27005">
        <ele>489.4</ele>
        <time>2021-04-17T15:50:25Z</time>
      </trkpt>
      <trkpt lat="46.15634" lon="6.27004">
        <ele>489.6</ele>
        <time>2021-04-17T15:50:26Z</time>
      </trkpt>
      <trkpt lat="46.15637" lon="6.27003">
        <ele>489.8</ele>
        <time>2021-04-17T15:50:27Z</time>
      </trkpt>
      <trkpt lat="46.15639" lon="6.27002">
        <ele>490</ele>
        <time>2021-04-17T15:50:28Z</time>
      </trkpt>
      <trkpt lat="46.15642" lon="6.27001">
        <ele>490.2</ele>
        <time>2021-04-17T15:50:29Z</time>
      </trkpt>
      <trkpt lat="46.15645" lon="6.27">
        <ele>490.8</ele>
        <time>2021-04-17T15:50:30Z</time>
      </trkpt>
      <trkpt lat="46.15647" lon="6.26999">
        <ele>491.2</ele>
        <time>2021-04-17T15:50:31Z</time>
      </trkpt>
      <trkpt lat="46.1565" lon="6.26998">
        <ele>491.6</ele>
        <time>2021-04-17T15:50:32Z</time>
      </trkpt>
      <trkpt lat="46.15652" lon="6.26997">
        <ele>492.2</ele>
        <time>2021-04-17T15:50:33Z</time>
      </trkpt>
      <trkpt lat="46.15655" lon="6.26996">
        <ele>492.6</ele>
        <time>2021-04-17T15:50:34Z</time>
      </trkpt>
      <trkpt lat="46.15658" lon="6.26995">
        <ele>493</ele>
        <time>2021-04-17T15:50:35Z</time>
      </trkpt>
      <trkpt lat="46.1566" lon="6.26994">
        <ele>493.4</ele>
        <time>2021-04-17T15:50:36Z</time>
      </trkpt>
      <trkpt lat="46.15663" lon="6.26993">
        <ele>493.4</ele>
        <time>2021-04-17T15:50:37Z</time>
      </trkpt>
      <trkpt lat="46.15666" lon="6.26992">
        <ele>494</ele>
        <time>2021-04-17T15:50:38Z</time>
      </trkpt>
      <trkpt lat="46.15669" lon="6.26991">
        <ele>494.4</ele>
        <time>2021-04-17T15:50:39Z</time>
      </trkpt>
      <trkpt lat="46.15671" lon="6.2699">
        <ele>494.4</ele>
        <time>2021-04-17T15:50:40Z</time>
      </trkpt>
      <trkpt lat="46.15674" lon="6.26989">
        <ele>494.6</ele>
        <time>2021-04-17T15:50:41Z</time>
      </trkpt>
      <trkpt lat="46.15677" lon="6.26988">
        <ele>494.8</ele>
        <time>2021-04-17T15:50:42Z</time>
      </trkpt>
      <trkpt lat="46.1568" lon="6.26987">
        <ele>494.8</ele>
        <time>2021-04-17T15:50:43Z</time>
      </trkpt>
      <trkpt lat="46.15682" lon="6.26987">
        <ele>495.2</ele>
        <time>2021-04-17T15:50:44Z</time>
      </trkpt>
      <trkpt lat="46.15685" lon="6.26986">
        <ele>495.4</ele>
        <time>2021-04-17T15:50:45Z</time>
      </trkpt>
      <trkpt lat="46.15688" lon="6.26985">
        <ele>495.4</ele>
        <time>2021-04-17T15:50:46Z</time>
      </trkpt>
      <trkpt lat="46.15691" lon="6.26984">
        <ele>495.4</ele>
        <time>2021-04-17T15:50:47Z</time>
      </trkpt>
      <trkpt lat="46.15694" lon="6.26983">
        <ele>495.6</ele>
        <time>2021-04-17T15:50:48Z</time>
      </trkpt>
      <trkpt lat="46.15697" lon="6.26982">
        <ele>495.8</ele>
        <time>2021-04-17T15:50:49Z</time>
      </trkpt>
      <trkpt lat="46.157" lon="6.26981">
        <ele>496</ele>
        <time>2021-04-17T15:50:50Z</time>
      </trkpt>
      <trkpt lat="46.15703" lon="6.2698">
        <ele>496.2</ele>
        <time>2021-04-17T15:50:51Z</time>
      </trkpt>
      <trkpt lat="46.15706" lon="6.26979">
        <ele>496.2</ele>
        <time>2021-04-17T15:50:52Z</time>
      </trkpt>
      <trkpt lat="46.15709" lon="6.26978">
        <ele>496.2</ele>
        <time>2021-04-17T15:50:53Z</time>
      </trkpt>
      <trkpt lat="46.15712" lon="6.26978">
        <ele>496.2</ele>
        <time>2021-04-17T15:50:54Z</time>
      </trkpt>
      <trkpt lat="46.15715" lon="6.26978">
        <ele>496.4</ele>
        <time>2021-04-17T15:50:55Z</time>
      </trkpt>
      <trkpt lat="46.15718" lon="6.26978">
        <ele>496.6</ele>
        <time>2021-04-17T15:50:56Z</time>
      </trkpt>
      <trkpt lat="46.15722" lon="6.26978">
        <ele>496.8</ele>
        <time>2021-04-17T15:50:57Z</time>
      </trkpt>
      <trkpt lat="46.15725" lon="6.26979">
        <ele>497.4</ele>
        <time>2021-04-17T15:50:58Z</time>
      </trkpt>
      <trkpt lat="46.15729" lon="6.2698">
        <ele>498</ele>
        <time>2021-04-17T15:50:59Z</time>
      </trkpt>
      <trkpt lat="46.15732" lon="6.26982">
        <ele>498.4</ele>
        <time>2021-04-17T15:51:00Z</time>
      </trkpt>
      <trkpt lat="46.15736" lon="6.26984">
        <ele>498.4</ele>
        <time>2021-04-17T15:51:01Z</time>
      </trkpt>
      <trkpt lat="46.15739" lon="6.26987">
        <ele>498.6</ele>
        <time>2021-04-17T15:51:02Z</time>
      </trkpt>
      <trkpt lat="46.15742" lon="6.2699">
        <ele>498.6</ele>
        <time>2021-04-17T15:51:03Z</time>
      </trkpt>
      <trkpt lat="46.15746" lon="6.26993">
        <ele>498.6</ele>
        <time>2021-04-17T15:51:04Z</time>
      </trkpt>
      <trkpt lat="46.15749" lon="6.26997">
        <ele>498.8</ele>
        <time>2021-04-17T15:51:05Z</time>
      </trkpt>
      <trkpt lat="46.15753" lon="6.27">
        <ele>499</ele>
        <time>2021-04-17T15:51:06Z</time>
      </trkpt>
      <trkpt lat="46.15756" lon="6.27004">
        <ele>499.2</ele>
        <time>2021-04-17T15:51:07Z</time>
      </trkpt>
      <trkpt lat="46.15759" lon="6.27008">
        <ele>499.2</ele>
        <time>2021-04-17T15:51:08Z</time>
      </trkpt>
      <trkpt lat="46.15763" lon="6.27012">
        <ele>499.4</ele>
        <time>2021-04-17T15:51:09Z</time>
      </trkpt>
      <trkpt lat="46.15766" lon="6.27015">
        <ele>499.4</ele>
        <time>2021-04-17T15:51:10Z</time>
      </trkpt>
      <trkpt lat="46.1577" lon="6.27019">
        <ele>499.4</ele>
        <time>2021-04-17T15:51:11Z</time>
      </trkpt>
      <trkpt lat="46.15774" lon="6.27023">
        <ele>499.6</ele>
        <time>2021-04-17T15:51:12Z</time>
      </trkpt>
      <trkpt lat="46.15777" lon="6.27027">
        <ele>499.4</ele>
        <time>2021-04-17T15:51:13Z</time>
      </trkpt>
      <trkpt lat="46.15781" lon="6.27031">
        <ele>499.4</ele>
        <time>2021-04-17T15:51:14Z</time>
      </trkpt>
      <trkpt lat="46.15785" lon="6.27034">
        <ele>499.4</ele>
        <time>2021-04-17T15:51:15Z</time>
      </trkpt>
      <trkpt lat="46.15788" lon="6.27038">
        <ele>499.4</ele>
        <time>2021-04-17T15:51:16Z</time>
      </trkpt>
      <trkpt lat="46.15792" lon="6.27043">
        <ele>499.4</ele>
        <time>2021-04-17T15:51:17Z</time>
      </trkpt>
      <trkpt lat="46.15796" lon="6.27047">
        <ele>499.4</ele>
        <time>2021-04-17T15:51:18Z</time>
      </trkpt>
      <trkpt lat="46.158" lon="6.27051">
        <ele>499.6</ele>
        <time>2021-04-17T15:51:19Z</time>
      </trkpt>
      <trkpt lat="46.15804" lon="6.27055">
        <ele>499.4</ele>
        <time>2021-04-17T15:51:20Z</time>
      </trkpt>
      <trkpt lat="46.15809" lon="6.2706">
        <ele>499.4</ele>
        <time>2021-04-17T15:51:21Z</time>
      </trkpt>
      <trkpt lat="46.15813" lon="6.27064">
        <ele>499.4</ele>
        <time>2021-04-17T15:51:22Z</time>
      </trkpt>
      <trkpt lat="46.15817" lon="6.27069">
        <ele>499.4</ele>
        <time>2021-04-17T15:51:23Z</time>
      </trkpt>
      <trkpt lat="46.15822" lon="6.27073">
        <ele>499.4</ele>
        <time>2021-04-17T15:51:24Z</time>
      </trkpt>
      <trkpt lat="46.15826" lon="6.27078">
        <ele>499.2</ele>
        <time>2021-04-17T15:51:25Z</time>
      </trkpt>
      <trkpt lat="46.15831" lon="6.27083">
        <ele>499.4</ele>
        <time>2021-04-17T15:51:26Z</time>
      </trkpt>
      <trkpt lat="46.15835" lon="6.27087">
        <ele>499.2</ele>
        <time>2021-04-17T15:51:27Z</time>
      </trkpt>
      <trkpt lat="46.15839" lon="6.27092">
        <ele>499.2</ele>
        <time>2021-04-17T15:51:28Z</time>
      </trkpt>
      <trkpt lat="46.15844" lon="6.27097">
        <ele>499.4</ele>
        <time>2021-04-17T15:51:29Z</time>
      </trkpt>
      <trkpt lat="46.15848" lon="6.27101">
        <ele>499.2</ele>
        <time>2021-04-17T15:51:30Z</time>
      </trkpt>
      <trkpt lat="46.15852" lon="6.27106">
        <ele>499.2</ele>
        <time>2021-04-17T15:51:31Z</time>
      </trkpt>
      <trkpt lat="46.15857" lon="6.27111">
        <ele>498.8</ele>
        <time>2021-04-17T15:51:32Z</time>
      </trkpt>
      <trkpt lat="46.15861" lon="6.27116">
        <ele>498.8</ele>
        <time>2021-04-17T15:51:33Z</time>
      </trkpt>
      <trkpt lat="46.15866" lon="6.27121">
        <ele>498.6</ele>
        <time>2021-04-17T15:51:34Z</time>
      </trkpt>
      <trkpt lat="46.15871" lon="6.27126">
        <ele>498.4</ele>
        <time>2021-04-17T15:51:35Z</time>
      </trkpt>
      <trkpt lat="46.15875" lon="6.2713">
        <ele>498.2</ele>
        <time>2021-04-17T15:51:36Z</time>
      </trkpt>
      <trkpt lat="46.1588" lon="6.27135">
        <ele>498.4</ele>
        <time>2021-04-17T15:51:37Z</time>
      </trkpt>
      <trkpt lat="46.15884" lon="6.2714">
        <ele>498.2</ele>
        <time>2021-04-17T15:51:38Z</time>
      </trkpt>
      <trkpt lat="46.15888" lon="6.27145">
        <ele>498.2</ele>
        <time>2021-04-17T15:51:39Z</time>
      </trkpt>
      <trkpt lat="46.15892" lon="6.2715">
        <ele>498.2</ele>
        <time>2021-04-17T15:51:40Z</time>
      </trkpt>
      <trkpt lat="46.15896" lon="6.27156">
        <ele>498.2</ele>
        <time>2021-04-17T15:51:41Z</time>
      </trkpt>
      <trkpt lat="46.159" lon="6.27162">
        <ele>498.2</ele>
        <time>2021-04-17T15:51:42Z</time>
      </trkpt>
      <trkpt lat="46.15903" lon="6.27168">
        <ele>498.2</ele>
        <time>2021-04-17T15:51:43Z</time>
      </trkpt>
      <trkpt lat="46.15907" lon="6.27175">
        <ele>498.2</ele>
        <time>2021-04-17T15:51:44Z</time>
      </trkpt>
      <trkpt lat="46.1591" lon="6.27181">
        <ele>498.2</ele>
        <time>2021-04-17T15:51:45Z</time>
      </trkpt>
      <trkpt lat="46.15912" lon="6.27188">
        <ele>498.2</ele>
        <time>2021-04-17T15:51:46Z</time>
      </trkpt>
      <trkpt lat="46.15915" lon="6.27194">
        <ele>498.2</ele>
        <time>2021-04-17T15:51:47Z</time>
      </trkpt>
      <trkpt lat="46.15918" lon="6.27201">
        <ele>498.4</ele>
        <time>2021-04-17T15:51:48Z</time>
      </trkpt>
      <trkpt lat="46.15921" lon="6.27208">
        <ele>498.2</ele>
        <time>2021-04-17T15:51:49Z</time>
      </trkpt>
      <trkpt lat="46.15924" lon="6.27216">
        <ele>498.4</ele>
        <time>2021-04-17T15:51:50Z</time>
      </trkpt>
      <trkpt lat="46.15927" lon="6.27224">
        <ele>498.2</ele>
        <time>2021-04-17T15:51:51Z</time>
      </trkpt>
      <trkpt lat="46.15931" lon="6.27231">
        <ele>498.2</ele>
        <time>2021-04-17T15:51:52Z</time>
      </trkpt>
      <trkpt lat="46.15934" lon="6.27239">
        <ele>498.4</ele>
        <time>2021-04-17T15:51:53Z</time>
      </trkpt>
      <trkpt lat="46.15937" lon="6.27247">
        <ele>498.4</ele>
        <time>2021-04-17T15:51:54Z</time>
      </trkpt>
      <trkpt lat="46.1594" lon="6.27256">
        <ele>498.2</ele>
        <time>2021-04-17T15:51:55Z</time>
      </trkpt>
      <trkpt lat="46.15944" lon="6.27265">
        <ele>498.4</ele>
        <time>2021-04-17T15:51:56Z</time>
      </trkpt>
      <trkpt lat="46.15947" lon="6.27274">
        <ele>498.2</ele>
        <time>2021-04-17T15:51:57Z</time>
      </trkpt>
      <trkpt lat="46.1595" lon="6.27283">
        <ele>498.2</ele>
        <time>2021-04-17T15:51:58Z</time>
      </trkpt>
      <trkpt lat="46.15954" lon="6.27291">
        <ele>498.2</ele>
        <time>2021-04-17T15:51:59Z</time>
      </trkpt>
      <trkpt lat="46.15957" lon="6.27295">
        <ele>498</ele>
        <time>2021-04-17T15:52:00Z</time>
      </trkpt>
      <trkpt lat="46.1596" lon="6.273">
        <ele>497.4</ele>
        <time>2021-04-17T15:52:01Z</time>
      </trkpt>
      <trkpt lat="46.15962" lon="6.27305">
        <ele>496.6</ele>
        <time>2021-04-17T15:52:02Z</time>
      </trkpt>
      <trkpt lat="46.15964" lon="6.27312">
        <ele>496</ele>
        <time>2021-04-17T15:52:03Z</time>
      </trkpt>
      <trkpt lat="46.15965" lon="6.27317">
        <ele>495.8</ele>
        <time>2021-04-17T15:52:04Z</time>
      </trkpt>
      <trkpt lat="46.15967" lon="6.27323">
        <ele>495.8</ele>
        <time>2021-04-17T15:52:05Z</time>
      </trkpt>
      <trkpt lat="46.15969" lon="6.27328">
        <ele>495.8</ele>
        <time>2021-04-17T15:52:06Z</time>
      </trkpt>
      <trkpt lat="46.15971" lon="6.27334">
        <ele>495.8</ele>
        <time>2021-04-17T15:52:07Z</time>
      </trkpt>
      <trkpt lat="46.15973" lon="6.27339">
        <ele>495.6</ele>
        <time>2021-04-17T15:52:08Z</time>
      </trkpt>
      <trkpt lat="46.15975" lon="6.27344">
        <ele>495.8</ele>
        <time>2021-04-17T15:52:09Z</time>
      </trkpt>
      <trkpt lat="46.15977" lon="6.27349">
        <ele>495.6</ele>
        <time>2021-04-17T15:52:10Z</time>
      </trkpt>
      <trkpt lat="46.15979" lon="6.27354">
        <ele>495.8</ele>
        <time>2021-04-17T15:52:11Z</time>
      </trkpt>
      <trkpt lat="46.15981" lon="6.27359">
        <ele>495.6</ele>
        <time>2021-04-17T15:52:12Z</time>
      </trkpt>
      <trkpt lat="46.15983" lon="6.27364">
        <ele>496</ele>
        <time>2021-04-17T15:52:13Z</time>
      </trkpt>
      <trkpt lat="46.15985" lon="6.27369">
        <ele>496</ele>
        <time>2021-04-17T15:52:14Z</time>
      </trkpt>
      <trkpt lat="46.15987" lon="6.27373">
        <ele>496</ele>
        <time>2021-04-17T15:52:15Z</time>
      </trkpt>
      <trkpt lat="46.15989" lon="6.27378">
        <ele>496.6</ele>
        <time>2021-04-17T15:52:16Z</time>
      </trkpt>
      <trkpt lat="46.15991" lon="6.27383">
        <ele>497.2</ele>
        <time>2021-04-17T15:52:17Z</time>
      </trkpt>
      <trkpt lat="46.15994" lon="6.27388">
        <ele>497.8</ele>
        <time>2021-04-17T15:52:18Z</time>
      </trkpt>
      <trkpt lat="46.15996" lon="6.27393">
        <ele>498</ele>
        <time>2021-04-17T15:52:19Z</time>
      </trkpt>
      <trkpt lat="46.15998" lon="6.27398">
        <ele>498.2</ele>
        <time>2021-04-17T15:52:20Z</time>
      </trkpt>
      <trkpt lat="46.16001" lon="6.27403">
        <ele>498.4</ele>
        <time>2021-04-17T15:52:21Z</time>
      </trkpt>
      <trkpt lat="46.16004" lon="6.27409">
        <ele>498.4</ele>
        <time>2021-04-17T15:52:22Z</time>
      </trkpt>
      <trkpt lat="46.16007" lon="6.27413">
        <ele>498.6</ele>
        <time>2021-04-17T15:52:23Z</time>
      </trkpt>
      <trkpt lat="46.1601" lon="6.27418">
        <ele>498.8</ele>
        <time>2021-04-17T15:52:24Z</time>
      </trkpt>
      <trkpt lat="46.16013" lon="6.27422">
        <ele>499</ele>
        <time>2021-04-17T15:52:25Z</time>
      </trkpt>
      <trkpt lat="46.16017" lon="6.27426">
        <ele>499.2</ele>
        <time>2021-04-17T15:52:26Z</time>
      </trkpt>
      <trkpt lat="46.16021" lon="6.2743">
        <ele>499.4</ele>
        <time>2021-04-17T15:52:27Z</time>
      </trkpt>
      <trkpt lat="46.16025" lon="6.27435">
        <ele>499.6</ele>
        <time>2021-04-17T15:52:28Z</time>
      </trkpt>
      <trkpt lat="46.1603" lon="6.27439">
        <ele>499.6</ele>
        <time>2021-04-17T15:52:29Z</time>
      </trkpt>
      <trkpt lat="46.16034" lon="6.27443">
        <ele>499.8</ele>
        <time>2021-04-17T15:52:30Z</time>
      </trkpt>
      <trkpt lat="46.16038" lon="6.27447">
        <ele>500.2</ele>
        <time>2021-04-17T15:52:31Z</time>
      </trkpt>
      <trkpt lat="46.16043" lon="6.27451">
        <ele>500.4</ele>
        <time>2021-04-17T15:52:32Z</time>
      </trkpt>
      <trkpt lat="46.16047" lon="6.27455">
        <ele>500.6</ele>
        <time>2021-04-17T15:52:33Z</time>
      </trkpt>
      <trkpt lat="46.16052" lon="6.27459">
        <ele>500.8</ele>
        <time>2021-04-17T15:52:34Z</time>
      </trkpt>
      <trkpt lat="46.16056" lon="6.27463">
        <ele>501</ele>
        <time>2021-04-17T15:52:35Z</time>
      </trkpt>
      <trkpt lat="46.16061" lon="6.27466">
        <ele>500.8</ele>
        <time>2021-04-17T15:52:36Z</time>
      </trkpt>
      <trkpt lat="46.16065" lon="6.2747">
        <ele>501</ele>
        <time>2021-04-17T15:52:37Z</time>
      </trkpt>
      <trkpt lat="46.1607" lon="6.27473">
        <ele>501</ele>
        <time>2021-04-17T15:52:38Z</time>
      </trkpt>
      <trkpt lat="46.16075" lon="6.27477">
        <ele>501</ele>
        <time>2021-04-17T15:52:39Z</time>
      </trkpt>
      <trkpt lat="46.1608" lon="6.2748">
        <ele>500.8</ele>
        <time>2021-04-17T15:52:40Z</time>
      </trkpt>
      <trkpt lat="46.16085" lon="6.27483">
        <ele>501</ele>
        <time>2021-04-17T15:52:41Z</time>
      </trkpt>
      <trkpt lat="46.16089" lon="6.27487">
        <ele>500.8</ele>
        <time>2021-04-17T15:52:42Z</time>
      </trkpt>
      <trkpt lat="46.16094" lon="6.2749">
        <ele>500.8</ele>
        <time>2021-04-17T15:52:43Z</time>
      </trkpt>
      <trkpt lat="46.16099" lon="6.27494">
        <ele>500.8</ele>
        <time>2021-04-17T15:52:44Z</time>
      </trkpt>
      <trkpt lat="46.16104" lon="6.27498">
        <ele>500.8</ele>
        <time>2021-04-17T15:52:45Z</time>
      </trkpt>
      <trkpt lat="46.16109" lon="6.27501">
        <ele>500.6</ele>
        <time>2021-04-17T15:52:46Z</time>
      </trkpt>
      <trkpt lat="46.16114" lon="6.27505">
        <ele>500.6</ele>
        <time>2021-04-17T15:52:47Z</time>
      </trkpt>
      <trkpt lat="46.16119" lon="6.27509">
        <ele>500.8</ele>
        <time>2021-04-17T15:52:48Z</time>
      </trkpt>
      <trkpt lat="46.16124" lon="6.27512">
        <ele>500.6</ele>
        <time>2021-04-17T15:52:49Z</time>
      </trkpt>
      <trkpt lat="46.16129" lon="6.27516">
        <ele>500.6</ele>
        <time>2021-04-17T15:52:50Z</time>
      </trkpt>
      <trkpt lat="46.16134" lon="6.2752">
        <ele>500.6</ele>
        <time>2021-04-17T15:52:51Z</time>
      </trkpt>
      <trkpt lat="46.16139" lon="6.27524">
        <ele>500.6</ele>
        <time>2021-04-17T15:52:52Z</time>
      </trkpt>
      <trkpt lat="46.16144" lon="6.27527">
        <ele>500.6</ele>
        <time>2021-04-17T15:52:53Z</time>
      </trkpt>
      <trkpt lat="46.16149" lon="6.27531">
        <ele>500.6</ele>
        <time>2021-04-17T15:52:54Z</time>
      </trkpt>
      <trkpt lat="46.16154" lon="6.27535">
        <ele>500.6</ele>
        <time>2021-04-17T15:52:55Z</time>
      </trkpt>
      <trkpt lat="46.16159" lon="6.27539">
        <ele>500.6</ele>
        <time>2021-04-17T15:52:56Z</time>
      </trkpt>
      <trkpt lat="46.16164" lon="6.27543">
        <ele>500.6</ele>
        <time>2021-04-17T15:52:57Z</time>
      </trkpt>
      <trkpt lat="46.16169" lon="6.27548">
        <ele>500.6</ele>
        <time>2021-04-17T15:52:58Z</time>
      </trkpt>
      <trkpt lat="46.16174" lon="6.27553">
        <ele>501</ele>
        <time>2021-04-17T15:52:59Z</time>
      </trkpt>
      <trkpt lat="46.16179" lon="6.27558">
        <ele>501</ele>
        <time>2021-04-17T15:53:00Z</time>
      </trkpt>
      <trkpt lat="46.16183" lon="6.27564">
        <ele>501.2</ele>
        <time>2021-04-17T15:53:01Z</time>
      </trkpt>
      <trkpt lat="46.16188" lon="6.2757">
        <ele>501.2</ele>
        <time>2021-04-17T15:53:02Z</time>
      </trkpt>
      <trkpt lat="46.16192" lon="6.27576">
        <ele>501.2</ele>
        <time>2021-04-17T15:53:03Z</time>
      </trkpt>
      <trkpt lat="46.16197" lon="6.27582">
        <ele>501.4</ele>
        <time>2021-04-17T15:53:04Z</time>
      </trkpt>
      <trkpt lat="46.16201" lon="6.27589">
        <ele>501.2</ele>
        <time>2021-04-17T15:53:05Z</time>
      </trkpt>
      <trkpt lat="46.16205" lon="6.27596">
        <ele>501.2</ele>
        <time>2021-04-17T15:53:06Z</time>
      </trkpt>
      <trkpt lat="46.16208" lon="6.27603">
        <ele>501.4</ele>
        <time>2021-04-17T15:53:07Z</time>
      </trkpt>
      <trkpt lat="46.1621" lon="6.27611">
        <ele>501.4</ele>
        <time>2021-04-17T15:53:08Z</time>
      </trkpt>
      <trkpt lat="46.16212" lon="6.27619">
        <ele>501.4</ele>
        <time>2021-04-17T15:53:09Z</time>
      </trkpt>
      <trkpt lat="46.16215" lon="6.27626">
        <ele>501.4</ele>
        <time>2021-04-17T15:53:10Z</time>
      </trkpt>
      <trkpt lat="46.16219" lon="6.27632">
        <ele>501.6</ele>
        <time>2021-04-17T15:53:11Z</time>
      </trkpt>
      <trkpt lat="46.16223" lon="6.27636">
        <ele>501.4</ele>
        <time>2021-04-17T15:53:12Z</time>
      </trkpt>
      <trkpt lat="46.16229" lon="6.27636">
        <ele>501.6</ele>
        <time>2021-04-17T15:53:13Z</time>
      </trkpt>
      <trkpt lat="46.16233" lon="6.27634">
        <ele>501.4</ele>
        <time>2021-04-17T15:53:14Z</time>
      </trkpt>
      <trkpt lat="46.16237" lon="6.27629">
        <ele>501.6</ele>
        <time>2021-04-17T15:53:15Z</time>
      </trkpt>
      <trkpt lat="46.16239" lon="6.27623">
        <ele>501.4</ele>
        <time>2021-04-17T15:53:16Z</time>
      </trkpt>
      <trkpt lat="46.16241" lon="6.27616">
        <ele>501.6</ele>
        <time>2021-04-17T15:53:17Z</time>
      </trkpt>
      <trkpt lat="46.16241" lon="6.27608">
        <ele>501.6</ele>
        <time>2021-04-17T15:53:18Z</time>
      </trkpt>
      <trkpt lat="46.16241" lon="6.27601">
        <ele>501.6</ele>
        <time>2021-04-17T15:53:19Z</time>
      </trkpt>
      <trkpt lat="46.16242" lon="6.27592">
        <ele>501.6</ele>
        <time>2021-04-17T15:53:20Z</time>
      </trkpt>
      <trkpt lat="46.16244" lon="6.27584">
        <ele>501.6</ele>
        <time>2021-04-17T15:53:21Z</time>
      </trkpt>
      <trkpt lat="46.16246" lon="6.27576">
        <ele>501.6</ele>
        <time>2021-04-17T15:53:22Z</time>
      </trkpt>
      <trkpt lat="46.16249" lon="6.27568">
        <ele>501.6</ele>
        <time>2021-04-17T15:53:23Z</time>
      </trkpt>
      <trkpt lat="46.16251" lon="6.2756">
        <ele>501.8</ele>
        <time>2021-04-17T15:53:24Z</time>
      </trkpt>
      <trkpt lat="46.16254" lon="6.27552">
        <ele>501.8</ele>
        <time>2021-04-17T15:53:25Z</time>
      </trkpt>
      <trkpt lat="46.16257" lon="6.27545">
        <ele>502</ele>
        <time>2021-04-17T15:53:26Z</time>
      </trkpt>
      <trkpt lat="46.1626" lon="6.27537">
        <ele>502.2</ele>
        <time>2021-04-17T15:53:27Z</time>
      </trkpt>
      <trkpt lat="46.16263" lon="6.27529">
        <ele>502.2</ele>
        <time>2021-04-17T15:53:28Z</time>
      </trkpt>
      <trkpt lat="46.16267" lon="6.27521">
        <ele>502</ele>
        <time>2021-04-17T15:53:29Z</time>
      </trkpt>
      <trkpt lat="46.1627" lon="6.27513">
        <ele>501.8</ele>
        <time>2021-04-17T15:53:30Z</time>
      </trkpt>
      <trkpt lat="46.16273" lon="6.27505">
        <ele>501.8</ele>
        <time>2021-04-17T15:53:31Z</time>
      </trkpt>
      <trkpt lat="46.16276" lon="6.27496">
        <ele>501.8</ele>
        <time>2021-04-17T15:53:32Z</time>
      </trkpt>
      <trkpt lat="46.16279" lon="6.27488">
        <ele>501.8</ele>
        <time>2021-04-17T15:53:33Z</time>
      </trkpt>
      <trkpt lat="46.16282" lon="6.2748">
        <ele>501.8</ele>
        <time>2021-04-17T15:53:34Z</time>
      </trkpt>
      <trkpt lat="46.16285" lon="6.27472">
        <ele>502</ele>
        <time>2021-04-17T15:53:35Z</time>
      </trkpt>
      <trkpt lat="46.16288" lon="6.27464">
        <ele>502</ele>
        <time>2021-04-17T15:53:36Z</time>
      </trkpt>
      <trkpt lat="46.16291" lon="6.27456">
        <ele>502</ele>
        <time>2021-04-17T15:53:37Z</time>
      </trkpt>
      <trkpt lat="46.16294" lon="6.27448">
        <ele>501.8</ele>
        <time>2021-04-17T15:53:38Z</time>
      </trkpt>
      <trkpt lat="46.16297" lon="6.27439">
        <ele>502</ele>
        <time>2021-04-17T15:53:39Z</time>
      </trkpt>
      <trkpt lat="46.163" lon="6.27432">
        <ele>502</ele>
        <time>2021-04-17T15:53:40Z</time>
      </trkpt>
      <trkpt lat="46.16303" lon="6.27424">
        <ele>502</ele>
        <time>2021-04-17T15:53:41Z</time>
      </trkpt>
      <trkpt lat="46.16306" lon="6.27416">
        <ele>502</ele>
        <time>2021-04-17T15:53:42Z</time>
      </trkpt>
      <trkpt lat="46.16309" lon="6.27409">
        <ele>502</ele>
        <time>2021-04-17T15:53:43Z</time>
      </trkpt>
      <trkpt lat="46.16311" lon="6.27401">
        <ele>502</ele>
        <time>2021-04-17T15:53:44Z</time>
      </trkpt>
      <trkpt lat="46.16314" lon="6.27393">
        <ele>501.8</ele>
        <time>2021-04-17T15:53:45Z</time>
      </trkpt>
      <trkpt lat="46.16317" lon="6.27385">
        <ele>501.8</ele>
        <time>2021-04-17T15:53:46Z</time>
      </trkpt>
      <trkpt lat="46.1632" lon="6.27377">
        <ele>502</ele>
        <time>2021-04-17T15:53:47Z</time>
      </trkpt>
      <trkpt lat="46.16324" lon="6.27369">
        <ele>501.8</ele>
        <time>2021-04-17T15:53:48Z</time>
      </trkpt>
      <trkpt lat="46.16327" lon="6.27361">
        <ele>502</ele>
        <time>2021-04-17T15:53:49Z</time>
      </trkpt>
      <trkpt lat="46.1633" lon="6.27354">
        <ele>502</ele>
        <time>2021-04-17T15:53:50Z</time>
      </trkpt>
      <trkpt lat="46.16332" lon="6.27346">
        <ele>502</ele>
        <time>2021-04-17T15:53:51Z</time>
      </trkpt>
      <trkpt lat="46.16335" lon="6.27339">
        <ele>502</ele>
        <time>2021-04-17T15:53:52Z</time>
      </trkpt>
      <trkpt lat="46.16338" lon="6.27331">
        <ele>502</ele>
        <time>2021-04-17T15:53:53Z</time>
      </trkpt>
      <trkpt lat="46.16341" lon="6.27324">
        <ele>502</ele>
        <time>2021-04-17T15:53:54Z</time>
      </trkpt>
      <trkpt lat="46.16344" lon="6.27316">
        <ele>502</ele>
        <time>2021-04-17T15:53:55Z</time>
      </trkpt>
      <trkpt lat="46.16348" lon="6.27308">
        <ele>502</ele>
        <time>2021-04-17T15:53:56Z</time>
      </trkpt>
      <trkpt lat="46.16351" lon="6.273">
        <ele>502</ele>
        <time>2021-04-17T15:53:57Z</time>
      </trkpt>
      <trkpt lat="46.16354" lon="6.27293">
        <ele>502.2</ele>
        <time>2021-04-17T15:53:58Z</time>
      </trkpt>
      <trkpt lat="46.16357" lon="6.27285">
        <ele>502</ele>
        <time>2021-04-17T15:53:59Z</time>
      </trkpt>
      <trkpt lat="46.16361" lon="6.27278">
        <ele>502.2</ele>
        <time>2021-04-17T15:54:00Z</time>
      </trkpt>
      <trkpt lat="46.16365" lon="6.27271">
        <ele>502.2</ele>
        <time>2021-04-17T15:54:01Z</time>
      </trkpt>
      <trkpt lat="46.16369" lon="6.27264">
        <ele>502</ele>
        <time>2021-04-17T15:54:02Z</time>
      </trkpt>
      <trkpt lat="46.16374" lon="6.27258">
        <ele>502</ele>
        <time>2021-04-17T15:54:03Z</time>
      </trkpt>
      <trkpt lat="46.1638" lon="6.27253">
        <ele>502</ele>
        <time>2021-04-17T15:54:04Z</time>
      </trkpt>
      <trkpt lat="46.16385" lon="6.27247">
        <ele>501.8</ele>
        <time>2021-04-17T15:54:05Z</time>
      </trkpt>
      <trkpt lat="46.16391" lon="6.27242">
        <ele>501.6</ele>
        <time>2021-04-17T15:54:06Z</time>
      </trkpt>
      <trkpt lat="46.16397" lon="6.27238">
        <ele>501.8</ele>
        <time>2021-04-17T15:54:07Z</time>
      </trkpt>
      <trkpt lat="46.16404" lon="6.27234">
        <ele>501.6</ele>
        <time>2021-04-17T15:54:08Z</time>
      </trkpt>
      <trkpt lat="46.1641" lon="6.27232">
        <ele>501.4</ele>
        <time>2021-04-17T15:54:09Z</time>
      </trkpt>
      <trkpt lat="46.16417" lon="6.2723">
        <ele>501</ele>
        <time>2021-04-17T15:54:10Z</time>
      </trkpt>
      <trkpt lat="46.16425" lon="6.2723">
        <ele>501.2</ele>
        <time>2021-04-17T15:54:11Z</time>
      </trkpt>
      <trkpt lat="46.16431" lon="6.2723">
        <ele>500.4</ele>
        <time>2021-04-17T15:54:12Z</time>
      </trkpt>
      <trkpt lat="46.16438" lon="6.2723">
        <ele>500.2</ele>
        <time>2021-04-17T15:54:13Z</time>
      </trkpt>
      <trkpt lat="46.16445" lon="6.27232">
        <ele>499.6</ele>
        <time>2021-04-17T15:54:14Z</time>
      </trkpt>
      <trkpt lat="46.16451" lon="6.27233">
        <ele>499</ele>
        <time>2021-04-17T15:54:15Z</time>
      </trkpt>
      <trkpt lat="46.16458" lon="6.27235">
        <ele>498.6</ele>
        <time>2021-04-17T15:54:16Z</time>
      </trkpt>
      <trkpt lat="46.16465" lon="6.27237">
        <ele>498.4</ele>
        <time>2021-04-17T15:54:17Z</time>
      </trkpt>
      <trkpt lat="46.16472" lon="6.27239">
        <ele>498.2</ele>
        <time>2021-04-17T15:54:18Z</time>
      </trkpt>
      <trkpt lat="46.16479" lon="6.27242">
        <ele>497.6</ele>
        <time>2021-04-17T15:54:19Z</time>
      </trkpt>
      <trkpt lat="46.16486" lon="6.27244">
        <ele>497.4</ele>
        <time>2021-04-17T15:54:20Z</time>
      </trkpt>
      <trkpt lat="46.16494" lon="6.27247">
        <ele>497</ele>
        <time>2021-04-17T15:54:21Z</time>
      </trkpt>
      <trkpt lat="46.16501" lon="6.27249">
        <ele>497</ele>
        <time>2021-04-17T15:54:22Z</time>
      </trkpt>
      <trkpt lat="46.16508" lon="6.27252">
        <ele>496.4</ele>
        <time>2021-04-17T15:54:23Z</time>
      </trkpt>
      <trkpt lat="46.16516" lon="6.27255">
        <ele>496.2</ele>
        <time>2021-04-17T15:54:24Z</time>
      </trkpt>
      <trkpt lat="46.16524" lon="6.27258">
        <ele>495.8</ele>
        <time>2021-04-17T15:54:25Z</time>
      </trkpt>
      <trkpt lat="46.16532" lon="6.2726">
        <ele>495.6</ele>
        <time>2021-04-17T15:54:26Z</time>
      </trkpt>
      <trkpt lat="46.1654" lon="6.27263">
        <ele>495</ele>
        <time>2021-04-17T15:54:27Z</time>
      </trkpt>
      <trkpt lat="46.16547" lon="6.27266">
        <ele>494.6</ele>
        <time>2021-04-17T15:54:28Z</time>
      </trkpt>
      <trkpt lat="46.16555" lon="6.27269">
        <ele>494.4</ele>
        <time>2021-04-17T15:54:29Z</time>
      </trkpt>
      <trkpt lat="46.16563" lon="6.27272">
        <ele>494.2</ele>
        <time>2021-04-17T15:54:30Z</time>
      </trkpt>
      <trkpt lat="46.16571" lon="6.27277">
        <ele>493.8</ele>
        <time>2021-04-17T15:54:31Z</time>
      </trkpt>
      <trkpt lat="46.16579" lon="6.27282">
        <ele>493.4</ele>
        <time>2021-04-17T15:54:32Z</time>
      </trkpt>
      <trkpt lat="46.16587" lon="6.27289">
        <ele>493.2</ele>
        <time>2021-04-17T15:54:33Z</time>
      </trkpt>
      <trkpt lat="46.16594" lon="6.27296">
        <ele>492.6</ele>
        <time>2021-04-17T15:54:34Z</time>
      </trkpt>
      <trkpt lat="46.16602" lon="6.27304">
        <ele>492</ele>
        <time>2021-04-17T15:54:35Z</time>
      </trkpt>
      <trkpt lat="46.1661" lon="6.27312">
        <ele>491.6</ele>
        <time>2021-04-17T15:54:36Z</time>
      </trkpt>
      <trkpt lat="46.16617" lon="6.2732">
        <ele>491.2</ele>
        <time>2021-04-17T15:54:37Z</time>
      </trkpt>
      <trkpt lat="46.16624" lon="6.27328">
        <ele>491.2</ele>
        <time>2021-04-17T15:54:38Z</time>
      </trkpt>
      <trkpt lat="46.16632" lon="6.27334">
        <ele>491</ele>
        <time>2021-04-17T15:54:39Z</time>
      </trkpt>
      <trkpt lat="46.1664" lon="6.2734">
        <ele>490.4</ele>
        <time>2021-04-17T15:54:40Z</time>
      </trkpt>
      <trkpt lat="46.16648" lon="6.27345">
        <ele>489.8</ele>
        <time>2021-04-17T15:54:41Z</time>
      </trkpt>
      <trkpt lat="46.16657" lon="6.27348">
        <ele>489.2</ele>
        <time>2021-04-17T15:54:42Z</time>
      </trkpt>
      <trkpt lat="46.16666" lon="6.27351">
        <ele>489</ele>
        <time>2021-04-17T15:54:43Z</time>
      </trkpt>
      <trkpt lat="46.16675" lon="6.27353">
        <ele>488.6</ele>
        <time>2021-04-17T15:54:44Z</time>
      </trkpt>
      <trkpt lat="46.16684" lon="6.27355">
        <ele>488.2</ele>
        <time>2021-04-17T15:54:45Z</time>
      </trkpt>
      <trkpt lat="46.16693" lon="6.27356">
        <ele>487.8</ele>
        <time>2021-04-17T15:54:46Z</time>
      </trkpt>
      <trkpt lat="46.16702" lon="6.27357">
        <ele>487.6</ele>
        <time>2021-04-17T15:54:47Z</time>
      </trkpt>
      <trkpt lat="46.16711" lon="6.27359">
        <ele>486.8</ele>
        <time>2021-04-17T15:54:48Z</time>
      </trkpt>
      <trkpt lat="46.16721" lon="6.27361">
        <ele>486.4</ele>
        <time>2021-04-17T15:54:49Z</time>
      </trkpt>
      <trkpt lat="46.16731" lon="6.27363">
        <ele>486.2</ele>
        <time>2021-04-17T15:54:50Z</time>
      </trkpt>
      <trkpt lat="46.16741" lon="6.27365">
        <ele>485.8</ele>
        <time>2021-04-17T15:54:51Z</time>
      </trkpt>
      <trkpt lat="46.16751" lon="6.27367">
        <ele>485.4</ele>
        <time>2021-04-17T15:54:52Z</time>
      </trkpt>
      <trkpt lat="46.16761" lon="6.27369">
        <ele>485.4</ele>
        <time>2021-04-17T15:54:53Z</time>
      </trkpt>
      <trkpt lat="46.16771" lon="6.27371">
        <ele>484.6</ele>
        <time>2021-04-17T15:54:54Z</time>
      </trkpt>
      <trkpt lat="46.16791" lon="6.27372">
        <ele>483</ele>
        <time>2021-04-17T15:54:56Z</time>
      </trkpt>
      <trkpt lat="46.168" lon="6.2737">
        <ele>482.4</ele>
        <time>2021-04-17T15:54:57Z</time>
      </trkpt>
      <trkpt lat="46.16809" lon="6.27365">
        <ele>481.8</ele>
        <time>2021-04-17T15:54:58Z</time>
      </trkpt>
      <trkpt lat="46.16818" lon="6.27358">
        <ele>481.4</ele>
        <time>2021-04-17T15:54:59Z</time>
      </trkpt>
      <trkpt lat="46.16825" lon="6.27349">
        <ele>481</ele>
        <time>2021-04-17T15:55:00Z</time>
      </trkpt>
      <trkpt lat="46.16832" lon="6.27339">
        <ele>481</ele>
        <time>2021-04-17T15:55:01Z</time>
      </trkpt>
      <trkpt lat="46.16838" lon="6.27326">
        <ele>480.6</ele>
        <time>2021-04-17T15:55:02Z</time>
      </trkpt>
      <trkpt lat="46.16842" lon="6.27313">
        <ele>480.4</ele>
        <time>2021-04-17T15:55:03Z</time>
      </trkpt>
      <trkpt lat="46.16845" lon="6.273">
        <ele>480.4</ele>
        <time>2021-04-17T15:55:04Z</time>
      </trkpt>
      <trkpt lat="46.16847" lon="6.27286">
        <ele>480</ele>
        <time>2021-04-17T15:55:05Z</time>
      </trkpt>
      <trkpt lat="46.16851" lon="6.27259">
        <ele>478.8</ele>
        <time>2021-04-17T15:55:07Z</time>
      </trkpt>
      <trkpt lat="46.16854" lon="6.27232">
        <ele>478.4</ele>
        <time>2021-04-17T15:55:09Z</time>
      </trkpt>
      <trkpt lat="46.16857" lon="6.27206">
        <ele>477.6</ele>
        <time>2021-04-17T15:55:11Z</time>
      </trkpt>
      <trkpt lat="46.16858" lon="6.27194">
        <ele>477.6</ele>
        <time>2021-04-17T15:55:12Z</time>
      </trkpt>
      <trkpt lat="46.16859" lon="6.27181">
        <ele>477.4</ele>
        <time>2021-04-17T15:55:13Z</time>
      </trkpt>
      <trkpt lat="46.16859" lon="6.27169">
        <ele>477.4</ele>
        <time>2021-04-17T15:55:14Z</time>
      </trkpt>
      <trkpt lat="46.16855" lon="6.27158">
        <ele>477.2</ele>
        <time>2021-04-17T15:55:15Z</time>
      </trkpt>
      <trkpt lat="46.1685" lon="6.2715">
        <ele>477.2</ele>
        <time>2021-04-17T15:55:16Z</time>
      </trkpt>
      <trkpt lat="46.16845" lon="6.27143">
        <ele>477.2</ele>
        <time>2021-04-17T15:55:17Z</time>
      </trkpt>
      <trkpt lat="46.16838" lon="6.27137">
        <ele>477.2</ele>
        <time>2021-04-17T15:55:18Z</time>
      </trkpt>
      <trkpt lat="46.16831" lon="6.27133">
        <ele>477.4</ele>
        <time>2021-04-17T15:55:19Z</time>
      </trkpt>
      <trkpt lat="46.16824" lon="6.2713">
        <ele>477.2</ele>
        <time>2021-04-17T15:55:20Z</time>
      </trkpt>
      <trkpt lat="46.16816" lon="6.27127">
        <ele>477.2</ele>
        <time>2021-04-17T15:55:21Z</time>
      </trkpt>
      <trkpt lat="46.16809" lon="6.27124">
        <ele>477.4</ele>
        <time>2021-04-17T15:55:22Z</time>
      </trkpt>
      <trkpt lat="46.16801" lon="6.27122">
        <ele>477.4</ele>
        <time>2021-04-17T15:55:23Z</time>
      </trkpt>
      <trkpt lat="46.16794" lon="6.2712">
        <ele>477.4</ele>
        <time>2021-04-17T15:55:24Z</time>
      </trkpt>
      <trkpt lat="46.16788" lon="6.27117">
        <ele>477.6</ele>
        <time>2021-04-17T15:55:25Z</time>
      </trkpt>
      <trkpt lat="46.16782" lon="6.27114">
        <ele>477.8</ele>
        <time>2021-04-17T15:55:26Z</time>
      </trkpt>
      <trkpt lat="46.16776" lon="6.27111">
        <ele>477.8</ele>
        <time>2021-04-17T15:55:27Z</time>
      </trkpt>
      <trkpt lat="46.16771" lon="6.27107">
        <ele>477.8</ele>
        <time>2021-04-17T15:55:28Z</time>
      </trkpt>
      <trkpt lat="46.16767" lon="6.27103">
        <ele>478</ele>
        <time>2021-04-17T15:55:29Z</time>
      </trkpt>
      <trkpt lat="46.16764" lon="6.27099">
        <ele>478</ele>
        <time>2021-04-17T15:55:30Z</time>
      </trkpt>
      <trkpt lat="46.16762" lon="6.27094">
        <ele>478.2</ele>
        <time>2021-04-17T15:55:31Z</time>
      </trkpt>
      <trkpt lat="46.16759" lon="6.2709">
        <ele>478.2</ele>
        <time>2021-04-17T15:55:32Z</time>
      </trkpt>
      <trkpt lat="46.16757" lon="6.27086">
        <ele>478.8</ele>
        <time>2021-04-17T15:55:33Z</time>
      </trkpt>
      <trkpt lat="46.16756" lon="6.27082">
        <ele>479.2</ele>
        <time>2021-04-17T15:55:34Z</time>
      </trkpt>
      <trkpt lat="46.16754" lon="6.27078">
        <ele>480</ele>
        <time>2021-04-17T15:55:35Z</time>
      </trkpt>
      <trkpt lat="46.16752" lon="6.27074">
        <ele>480.6</ele>
        <time>2021-04-17T15:55:36Z</time>
      </trkpt>
      <trkpt lat="46.1675" lon="6.27071">
        <ele>481.2</ele>
        <time>2021-04-17T15:55:37Z</time>
      </trkpt>
      <trkpt lat="46.16748" lon="6.27067">
        <ele>481.4</ele>
        <time>2021-04-17T15:55:38Z</time>
      </trkpt>
      <trkpt lat="46.16745" lon="6.27064">
        <ele>482.2</ele>
        <time>2021-04-17T15:55:39Z</time>
      </trkpt>
      <trkpt lat="46.16743" lon="6.27061">
        <ele>482.8</ele>
        <time>2021-04-17T15:55:40Z</time>
      </trkpt>
      <trkpt lat="46.16741" lon="6.27058">
        <ele>483.2</ele>
        <time>2021-04-17T15:55:41Z</time>
      </trkpt>
      <trkpt lat="46.16738" lon="6.27055">
        <ele>483.6</ele>
        <time>2021-04-17T15:55:42Z</time>
      </trkpt>
      <trkpt lat="46.16736" lon="6.27052">
        <ele>484</ele>
        <time>2021-04-17T15:55:43Z</time>
      </trkpt>
      <trkpt lat="46.16734" lon="6.2705">
        <ele>484.4</ele>
        <time>2021-04-17T15:55:44Z</time>
      </trkpt>
      <trkpt lat="46.16732" lon="6.27047">
        <ele>484.6</ele>
        <time>2021-04-17T15:55:45Z</time>
      </trkpt>
      <trkpt lat="46.1673" lon="6.27044">
        <ele>485</ele>
        <time>2021-04-17T15:55:46Z</time>
      </trkpt>
      <trkpt lat="46.16729" lon="6.27041">
        <ele>485.2</ele>
        <time>2021-04-17T15:55:47Z</time>
      </trkpt>
      <trkpt lat="46.16728" lon="6.27038">
        <ele>485.6</ele>
        <time>2021-04-17T15:55:48Z</time>
      </trkpt>
      <trkpt lat="46.16728" lon="6.27036">
        <ele>485.8</ele>
        <time>2021-04-17T15:55:49Z</time>
      </trkpt>
      <trkpt lat="46.16727" lon="6.27032">
        <ele>486.2</ele>
        <time>2021-04-17T15:55:50Z</time>
      </trkpt>
      <trkpt lat="46.16727" lon="6.27028">
        <ele>486.6</ele>
        <time>2021-04-17T15:55:51Z</time>
      </trkpt>
      <trkpt lat="46.16728" lon="6.27024">
        <ele>486.8</ele>
        <time>2021-04-17T15:55:52Z</time>
      </trkpt>
      <trkpt lat="46.16729" lon="6.2702">
        <ele>487.2</ele>
        <time>2021-04-17T15:55:53Z</time>
      </trkpt>
      <trkpt lat="46.1673" lon="6.27016">
        <ele>487.4</ele>
        <time>2021-04-17T15:55:54Z</time>
      </trkpt>
      <trkpt lat="46.16731" lon="6.27011">
        <ele>487.6</ele>
        <time>2021-04-17T15:55:55Z</time>
      </trkpt>
      <trkpt lat="46.16732" lon="6.27008">
        <ele>488</ele>
        <time>2021-04-17T15:55:56Z</time>
      </trkpt>
      <trkpt lat="46.16734" lon="6.27004">
        <ele>488.2</ele>
        <time>2021-04-17T15:55:57Z</time>
      </trkpt>
      <trkpt lat="46.16736" lon="6.27">
        <ele>488.4</ele>
        <time>2021-04-17T15:55:58Z</time>
      </trkpt>
      <trkpt lat="46.16738" lon="6.26997">
        <ele>488.6</ele>
        <time>2021-04-17T15:55:59Z</time>
      </trkpt>
      <trkpt lat="46.1674" lon="6.26994">
        <ele>489.2</ele>
        <time>2021-04-17T15:56:00Z</time>
      </trkpt>
      <trkpt lat="46.16742" lon="6.2699">
        <ele>489.4</ele>
        <time>2021-04-17T15:56:01Z</time>
      </trkpt>
      <trkpt lat="46.16744" lon="6.26987">
        <ele>489.8</ele>
        <time>2021-04-17T15:56:02Z</time>
      </trkpt>
      <trkpt lat="46.16747" lon="6.26985">
        <ele>490.2</ele>
        <time>2021-04-17T15:56:03Z</time>
      </trkpt>
      <trkpt lat="46.16749" lon="6.26982">
        <ele>490.4</ele>
        <time>2021-04-17T15:56:04Z</time>
      </trkpt>
      <trkpt lat="46.16752" lon="6.26979">
        <ele>490.6</ele>
        <time>2021-04-17T15:56:05Z</time>
      </trkpt>
      <trkpt lat="46.16754" lon="6.26977">
        <ele>490.6</ele>
        <time>2021-04-17T15:56:06Z</time>
      </trkpt>
      <trkpt lat="46.16757" lon="6.26974">
        <ele>490.8</ele>
        <time>2021-04-17T15:56:07Z</time>
      </trkpt>
      <trkpt lat="46.1676" lon="6.26972">
        <ele>491.2</ele>
        <time>2021-04-17T15:56:08Z</time>
      </trkpt>
      <trkpt lat="46.16762" lon="6.26969">
        <ele>491.4</ele>
        <time>2021-04-17T15:56:09Z</time>
      </trkpt>
      <trkpt lat="46.16764" lon="6.26967">
        <ele>491.8</ele>
        <time>2021-04-17T15:56:10Z</time>
      </trkpt>
      <trkpt lat="46.16767" lon="6.26964">
        <ele>492</ele>
        <time>2021-04-17T15:56:11Z</time>
      </trkpt>
      <trkpt lat="46.1677" lon="6.26962">
        <ele>492.2</ele>
        <time>2021-04-17T15:56:12Z</time>
      </trkpt>
      <trkpt lat="46.16772" lon="6.26959">
        <ele>492.4</ele>
        <time>2021-04-17T15:56:13Z</time>
      </trkpt>
      <trkpt lat="46.16774" lon="6.26956">
        <ele>492.6</ele>
        <time>2021-04-17T15:56:14Z</time>
      </trkpt>
      <trkpt lat="46.16776" lon="6.26953">
        <ele>492.6</ele>
        <time>2021-04-17T15:56:15Z</time>
      </trkpt>
      <trkpt lat="46.16779" lon="6.2695">
        <ele>492.6</ele>
        <time>2021-04-17T15:56:16Z</time>
      </trkpt>
      <trkpt lat="46.16781" lon="6.26947">
        <ele>492.8</ele>
        <time>2021-04-17T15:56:17Z</time>
      </trkpt>
      <trkpt lat="46.16783" lon="6.26945">
        <ele>493</ele>
        <time>2021-04-17T15:56:18Z</time>
      </trkpt>
      <trkpt lat="46.16786" lon="6.26942">
        <ele>493</ele>
        <time>2021-04-17T15:56:19Z</time>
      </trkpt>
      <trkpt lat="46.16788" lon="6.2694">
        <ele>493</ele>
        <time>2021-04-17T15:56:20Z</time>
      </trkpt>
      <trkpt lat="46.16791" lon="6.26937">
        <ele>493.2</ele>
        <time>2021-04-17T15:56:21Z</time>
      </trkpt>
      <trkpt lat="46.16793" lon="6.26935">
        <ele>493.2</ele>
        <time>2021-04-17T15:56:22Z</time>
      </trkpt>
      <trkpt lat="46.16796" lon="6.26933">
        <ele>493.6</ele>
        <time>2021-04-17T15:56:23Z</time>
      </trkpt>
      <trkpt lat="46.16798" lon="6.26931">
        <ele>493.8</ele>
        <time>2021-04-17T15:56:24Z</time>
      </trkpt>
      <trkpt lat="46.16801" lon="6.26928">
        <ele>494</ele>
        <time>2021-04-17T15:56:25Z</time>
      </trkpt>
      <trkpt lat="46.16803" lon="6.26926">
        <ele>494.2</ele>
        <time>2021-04-17T15:56:26Z</time>
      </trkpt>
      <trkpt lat="46.16806" lon="6.26924">
        <ele>494.4</ele>
        <time>2021-04-17T15:56:27Z</time>
      </trkpt>
      <trkpt lat="46.16808" lon="6.26922">
        <ele>494.8</ele>
        <time>2021-04-17T15:56:28Z</time>
      </trkpt>
      <trkpt lat="46.16811" lon="6.2692">
        <ele>495</ele>
        <time>2021-04-17T15:56:29Z</time>
      </trkpt>
      <trkpt lat="46.16813" lon="6.26918">
        <ele>495.2</ele>
        <time>2021-04-17T15:56:30Z</time>
      </trkpt>
      <trkpt lat="46.16816" lon="6.26917">
        <ele>495.6</ele>
        <time>2021-04-17T15:56:31Z</time>
      </trkpt>
      <trkpt lat="46.16818" lon="6.26915">
        <ele>496</ele>
        <time>2021-04-17T15:56:32Z</time>
      </trkpt>
      <trkpt lat="46.16821" lon="6.26913">
        <ele>496</ele>
        <time>2021-04-17T15:56:33Z</time>
      </trkpt>
      <trkpt lat="46.16824" lon="6.26911">
        <ele>496.2</ele>
        <time>2021-04-17T15:56:34Z</time>
      </trkpt>
      <trkpt lat="46.16826" lon="6.26908">
        <ele>496.2</ele>
        <time>2021-04-17T15:56:35Z</time>
      </trkpt>
      <trkpt lat="46.16829" lon="6.26906">
        <ele>496.4</ele>
        <time>2021-04-17T15:56:36Z</time>
      </trkpt>
      <trkpt lat="46.16832" lon="6.26904">
        <ele>496.8</ele>
        <time>2021-04-17T15:56:37Z</time>
      </trkpt>
      <trkpt lat="46.16835" lon="6.26902">
        <ele>497.2</ele>
        <time>2021-04-17T15:56:38Z</time>
      </trkpt>
      <trkpt lat="46.16838" lon="6.269">
        <ele>497.4</ele>
        <time>2021-04-17T15:56:39Z</time>
      </trkpt>
      <trkpt lat="46.1684" lon="6.26898">
        <ele>497.8</ele>
        <time>2021-04-17T15:56:40Z</time>
      </trkpt>
      <trkpt lat="46.16843" lon="6.26896">
        <ele>498.2</ele>
        <time>2021-04-17T15:56:41Z</time>
      </trkpt>
      <trkpt lat="46.16846" lon="6.26894">
        <ele>498.4</ele>
        <time>2021-04-17T15:56:42Z</time>
      </trkpt>
      <trkpt lat="46.16848" lon="6.26891">
        <ele>498.8</ele>
        <time>2021-04-17T15:56:43Z</time>
      </trkpt>
      <trkpt lat="46.16851" lon="6.26889">
        <ele>499</ele>
        <time>2021-04-17T15:56:44Z</time>
      </trkpt>
      <trkpt lat="46.16854" lon="6.26886">
        <ele>499.2</ele>
        <time>2021-04-17T15:56:45Z</time>
      </trkpt>
      <trkpt lat="46.16856" lon="6.26883">
        <ele>499.4</ele>
        <time>2021-04-17T15:56:46Z</time>
      </trkpt>
      <trkpt lat="46.16859" lon="6.2688">
        <ele>499.4</ele>
        <time>2021-04-17T15:56:47Z</time>
      </trkpt>
      <trkpt lat="46.16861" lon="6.26878">
        <ele>499.8</ele>
        <time>2021-04-17T15:56:48Z</time>
      </trkpt>
      <trkpt lat="46.16864" lon="6.26875">
        <ele>500.2</ele>
        <time>2021-04-17T15:56:49Z</time>
      </trkpt>
      <trkpt lat="46.16866" lon="6.26872">
        <ele>500.4</ele>
        <time>2021-04-17T15:56:50Z</time>
      </trkpt>
      <trkpt lat="46.16869" lon="6.26869">
        <ele>500.6</ele>
        <time>2021-04-17T15:56:51Z</time>
      </trkpt>
      <trkpt lat="46.16871" lon="6.26865">
        <ele>500.8</ele>
        <time>2021-04-17T15:56:52Z</time>
      </trkpt>
      <trkpt lat="46.16874" lon="6.26862">
        <ele>500.8</ele>
        <time>2021-04-17T15:56:53Z</time>
      </trkpt>
      <trkpt lat="46.16876" lon="6.26859">
        <ele>501</ele>
        <time>2021-04-17T15:56:54Z</time>
      </trkpt>
      <trkpt lat="46.16879" lon="6.26856">
        <ele>501</ele>
        <time>2021-04-17T15:56:55Z</time>
      </trkpt>
      <trkpt lat="46.16881" lon="6.26853">
        <ele>501.2</ele>
        <time>2021-04-17T15:56:56Z</time>
      </trkpt>
      <trkpt lat="46.16884" lon="6.26849">
        <ele>501.4</ele>
        <time>2021-04-17T15:56:57Z</time>
      </trkpt>
      <trkpt lat="46.16886" lon="6.26846">
        <ele>501.4</ele>
        <time>2021-04-17T15:56:58Z</time>
      </trkpt>
      <trkpt lat="46.16888" lon="6.26842">
        <ele>501.4</ele>
        <time>2021-04-17T15:56:59Z</time>
      </trkpt>
      <trkpt lat="46.1689" lon="6.26838">
        <ele>501.8</ele>
        <time>2021-04-17T15:57:00Z</time>
      </trkpt>
      <trkpt lat="46.16892" lon="6.26833">
        <ele>502</ele>
        <time>2021-04-17T15:57:01Z</time>
      </trkpt>
      <trkpt lat="46.16895" lon="6.26829">
        <ele>502.2</ele>
        <time>2021-04-17T15:57:02Z</time>
      </trkpt>
      <trkpt lat="46.16897" lon="6.26825">
        <ele>502.4</ele>
        <time>2021-04-17T15:57:03Z</time>
      </trkpt>
      <trkpt lat="46.16899" lon="6.2682">
        <ele>502.4</ele>
        <time>2021-04-17T15:57:04Z</time>
      </trkpt>
      <trkpt lat="46.16901" lon="6.26816">
        <ele>502.6</ele>
        <time>2021-04-17T15:57:05Z</time>
      </trkpt>
      <trkpt lat="46.16903" lon="6.26811">
        <ele>502.8</ele>
        <time>2021-04-17T15:57:06Z</time>
      </trkpt>
      <trkpt lat="46.16904" lon="6.26806">
        <ele>502.8</ele>
        <time>2021-04-17T15:57:07Z</time>
      </trkpt>
      <trkpt lat="46.16906" lon="6.268">
        <ele>503</ele>
        <time>2021-04-17T15:57:08Z</time>
      </trkpt>
      <trkpt lat="46.16907" lon="6.26795">
        <ele>503.4</ele>
        <time>2021-04-17T15:57:09Z</time>
      </trkpt>
      <trkpt lat="46.16908" lon="6.2679">
        <ele>503.4</ele>
        <time>2021-04-17T15:57:10Z</time>
      </trkpt>
      <trkpt lat="46.16909" lon="6.26785">
        <ele>503.6</ele>
        <time>2021-04-17T15:57:11Z</time>
      </trkpt>
      <trkpt lat="46.1691" lon="6.26779">
        <ele>503.8</ele>
        <time>2021-04-17T15:57:12Z</time>
      </trkpt>
      <trkpt lat="46.16911" lon="6.26773">
        <ele>503.8</ele>
        <time>2021-04-17T15:57:13Z</time>
      </trkpt>
      <trkpt lat="46.16911" lon="6.26767">
        <ele>503.8</ele>
        <time>2021-04-17T15:57:14Z</time>
      </trkpt>
      <trkpt lat="46.16911" lon="6.26761">
        <ele>503.8</ele>
        <time>2021-04-17T15:57:15Z</time>
      </trkpt>
      <trkpt lat="46.16911" lon="6.26754">
        <ele>503.8</ele>
        <time>2021-04-17T15:57:16Z</time>
      </trkpt>
      <trkpt lat="46.16912" lon="6.26748">
        <ele>504</ele>
        <time>2021-04-17T15:57:17Z</time>
      </trkpt>
      <trkpt lat="46.16912" lon="6.26742">
        <ele>504</ele>
        <time>2021-04-17T15:57:18Z</time>
      </trkpt>
      <trkpt lat="46.16913" lon="6.26737">
        <ele>504.2</ele>
        <time>2021-04-17T15:57:19Z</time>
      </trkpt>
      <trkpt lat="46.16914" lon="6.26732">
        <ele>504</ele>
        <time>2021-04-17T15:57:20Z</time>
      </trkpt>
      <trkpt lat="46.16915" lon="6.26727">
        <ele>504.2</ele>
        <time>2021-04-17T15:57:21Z</time>
      </trkpt>
      <trkpt lat="46.16917" lon="6.26721">
        <ele>504.2</ele>
        <time>2021-04-17T15:57:22Z</time>
      </trkpt>
      <trkpt lat="46.16919" lon="6.26715">
        <ele>504.2</ele>
        <time>2021-04-17T15:57:23Z</time>
      </trkpt>
      <trkpt lat="46.1692" lon="6.26708">
        <ele>504.4</ele>
        <time>2021-04-17T15:57:24Z</time>
      </trkpt>
      <trkpt lat="46.16922" lon="6.26701">
        <ele>504.4</ele>
        <time>2021-04-17T15:57:25Z</time>
      </trkpt>
      <trkpt lat="46.16924" lon="6.26695">
        <ele>504.2</ele>
        <time>2021-04-17T15:57:26Z</time>
      </trkpt>
      <trkpt lat="46.16926" lon="6.26688">
        <ele>504.4</ele>
        <time>2021-04-17T15:57:27Z</time>
      </trkpt>
      <trkpt lat="46.16929" lon="6.26682">
        <ele>504.4</ele>
        <time>2021-04-17T15:57:28Z</time>
      </trkpt>
      <trkpt lat="46.16932" lon="6.26677">
        <ele>504.4</ele>
        <time>2021-04-17T15:57:29Z</time>
      </trkpt>
      <trkpt lat="46.16934" lon="6.26671">
        <ele>504.4</ele>
        <time>2021-04-17T15:57:30Z</time>
      </trkpt>
      <trkpt lat="46.16938" lon="6.26665">
        <ele>504.4</ele>
        <time>2021-04-17T15:57:31Z</time>
      </trkpt>
      <trkpt lat="46.16941" lon="6.2666">
        <ele>504.4</ele>
        <time>2021-04-17T15:57:32Z</time>
      </trkpt>
      <trkpt lat="46.16944" lon="6.26654">
        <ele>504.4</ele>
        <time>2021-04-17T15:57:33Z</time>
      </trkpt>
      <trkpt lat="46.16947" lon="6.26648">
        <ele>504.4</ele>
        <time>2021-04-17T15:57:34Z</time>
      </trkpt>
      <trkpt lat="46.16951" lon="6.26642">
        <ele>504.4</ele>
        <time>2021-04-17T15:57:35Z</time>
      </trkpt>
      <trkpt lat="46.16954" lon="6.26636">
        <ele>504.4</ele>
        <time>2021-04-17T15:57:36Z</time>
      </trkpt>
      <trkpt lat="46.16958" lon="6.2663">
        <ele>504.2</ele>
        <time>2021-04-17T15:57:37Z</time>
      </trkpt>
      <trkpt lat="46.16961" lon="6.26624">
        <ele>504</ele>
        <time>2021-04-17T15:57:38Z</time>
      </trkpt>
      <trkpt lat="46.16964" lon="6.26618">
        <ele>503.8</ele>
        <time>2021-04-17T15:57:39Z</time>
      </trkpt>
      <trkpt lat="46.16968" lon="6.26612">
        <ele>503.6</ele>
        <time>2021-04-17T15:57:40Z</time>
      </trkpt>
      <trkpt lat="46.16971" lon="6.26606">
        <ele>503.4</ele>
        <time>2021-04-17T15:57:41Z</time>
      </trkpt>
      <trkpt lat="46.16975" lon="6.26601">
        <ele>503.4</ele>
        <time>2021-04-17T15:57:42Z</time>
      </trkpt>
      <trkpt lat="46.16978" lon="6.26595">
        <ele>503.4</ele>
        <time>2021-04-17T15:57:43Z</time>
      </trkpt>
      <trkpt lat="46.16982" lon="6.26589">
        <ele>503.4</ele>
        <time>2021-04-17T15:57:44Z</time>
      </trkpt>
      <trkpt lat="46.16985" lon="6.26584">
        <ele>503.4</ele>
        <time>2021-04-17T15:57:45Z</time>
      </trkpt>
      <trkpt lat="46.16989" lon="6.26579">
        <ele>503.4</ele>
        <time>2021-04-17T15:57:46Z</time>
      </trkpt>
      <trkpt lat="46.16993" lon="6.26574">
        <ele>503.6</ele>
        <time>2021-04-17T15:57:47Z</time>
      </trkpt>
      <trkpt lat="46.16996" lon="6.26568">
        <ele>504</ele>
        <time>2021-04-17T15:57:48Z</time>
      </trkpt>
      <trkpt lat="46.17" lon="6.26563">
        <ele>504.2</ele>
        <time>2021-04-17T15:57:49Z</time>
      </trkpt>
      <trkpt lat="46.17003" lon="6.26557">
        <ele>504.2</ele>
        <time>2021-04-17T15:57:50Z</time>
      </trkpt>
      <trkpt lat="46.17006" lon="6.26552">
        <ele>504.6</ele>
        <time>2021-04-17T15:57:51Z</time>
      </trkpt>
      <trkpt lat="46.17009" lon="6.26547">
        <ele>504.8</ele>
        <time>2021-04-17T15:57:52Z</time>
      </trkpt>
      <trkpt lat="46.17012" lon="6.26542">
        <ele>505.4</ele>
        <time>2021-04-17T15:57:53Z</time>
      </trkpt>
      <trkpt lat="46.17015" lon="6.26538">
        <ele>506</ele>
        <time>2021-04-17T15:57:54Z</time>
      </trkpt>
      <trkpt lat="46.17017" lon="6.26533">
        <ele>506.4</ele>
        <time>2021-04-17T15:57:55Z</time>
      </trkpt>
      <trkpt lat="46.1702" lon="6.26529">
        <ele>506.6</ele>
        <time>2021-04-17T15:57:56Z</time>
      </trkpt>
      <trkpt lat="46.17022" lon="6.26525">
        <ele>506.8</ele>
        <time>2021-04-17T15:57:57Z</time>
      </trkpt>
      <trkpt lat="46.17025" lon="6.26522">
        <ele>507</ele>
        <time>2021-04-17T15:57:58Z</time>
      </trkpt>
      <trkpt lat="46.17027" lon="6.26518">
        <ele>507.2</ele>
        <time>2021-04-17T15:57:59Z</time>
      </trkpt>
      <trkpt lat="46.17029" lon="6.26514">
        <ele>507.4</ele>
        <time>2021-04-17T15:58:00Z</time>
      </trkpt>
      <trkpt lat="46.17031" lon="6.26511">
        <ele>507.6</ele>
        <time>2021-04-17T15:58:01Z</time>
      </trkpt>
      <trkpt lat="46.17033" lon="6.26507">
        <ele>508.2</ele>
        <time>2021-04-17T15:58:02Z</time>
      </trkpt>
      <trkpt lat="46.17035" lon="6.26503">
        <ele>508.4</ele>
        <time>2021-04-17T15:58:03Z</time>
      </trkpt>
      <trkpt lat="46.17037" lon="6.265">
        <ele>508.8</ele>
        <time>2021-04-17T15:58:04Z</time>
      </trkpt>
      <trkpt lat="46.17039" lon="6.26496">
        <ele>509</ele>
        <time>2021-04-17T15:58:05Z</time>
      </trkpt>
      <trkpt lat="46.17041" lon="6.26493">
        <ele>509.6</ele>
        <time>2021-04-17T15:58:06Z</time>
      </trkpt>
      <trkpt lat="46.17043" lon="6.26489">
        <ele>510</ele>
        <time>2021-04-17T15:58:07Z</time>
      </trkpt>
      <trkpt lat="46.17046" lon="6.26485">
        <ele>510.4</ele>
        <time>2021-04-17T15:58:08Z</time>
      </trkpt>
      <trkpt lat="46.17048" lon="6.26482">
        <ele>510.8</ele>
        <time>2021-04-17T15:58:09Z</time>
      </trkpt>
      <trkpt lat="46.1705" lon="6.26478">
        <ele>511.2</ele>
        <time>2021-04-17T15:58:10Z</time>
      </trkpt>
      <trkpt lat="46.17052" lon="6.26474">
        <ele>511.8</ele>
        <time>2021-04-17T15:58:11Z</time>
      </trkpt>
      <trkpt lat="46.17054" lon="6.2647">
        <ele>512.2</ele>
        <time>2021-04-17T15:58:12Z</time>
      </trkpt>
      <trkpt lat="46.17056" lon="6.26466">
        <ele>512.4</ele>
        <time>2021-04-17T15:58:13Z</time>
      </trkpt>
      <trkpt lat="46.17058" lon="6.26463">
        <ele>512.6</ele>
        <time>2021-04-17T15:58:14Z</time>
      </trkpt>
      <trkpt lat="46.17061" lon="6.26459">
        <ele>512.8</ele>
        <time>2021-04-17T15:58:15Z</time>
      </trkpt>
      <trkpt lat="46.17063" lon="6.26456">
        <ele>513</ele>
        <time>2021-04-17T15:58:16Z</time>
      </trkpt>
      <trkpt lat="46.17066" lon="6.26453">
        <ele>513.2</ele>
        <time>2021-04-17T15:58:17Z</time>
      </trkpt>
      <trkpt lat="46.17068" lon="6.26449">
        <ele>513.6</ele>
        <time>2021-04-17T15:58:18Z</time>
      </trkpt>
      <trkpt lat="46.1707" lon="6.26446">
        <ele>513.8</ele>
        <time>2021-04-17T15:58:19Z</time>
      </trkpt>
      <trkpt lat="46.17073" lon="6.26442">
        <ele>513.8</ele>
        <time>2021-04-17T15:58:20Z</time>
      </trkpt>
      <trkpt lat="46.17075" lon="6.26438">
        <ele>514</ele>
        <time>2021-04-17T15:58:21Z</time>
      </trkpt>
      <trkpt lat="46.17077" lon="6.26434">
        <ele>514.2</ele>
        <time>2021-04-17T15:58:22Z</time>
      </trkpt>
      <trkpt lat="46.1708" lon="6.2643">
        <ele>514.4</ele>
        <time>2021-04-17T15:58:23Z</time>
      </trkpt>
      <trkpt lat="46.17082" lon="6.26425">
        <ele>514.8</ele>
        <time>2021-04-17T15:58:24Z</time>
      </trkpt>
      <trkpt lat="46.17084" lon="6.26422">
        <ele>514.8</ele>
        <time>2021-04-17T15:58:25Z</time>
      </trkpt>
      <trkpt lat="46.17086" lon="6.26418">
        <ele>515</ele>
        <time>2021-04-17T15:58:26Z</time>
      </trkpt>
      <trkpt lat="46.17088" lon="6.26414">
        <ele>515</ele>
        <time>2021-04-17T15:58:27Z</time>
      </trkpt>
      <trkpt lat="46.1709" lon="6.2641">
        <ele>515.2</ele>
        <time>2021-04-17T15:58:28Z</time>
      </trkpt>
      <trkpt lat="46.17093" lon="6.26406">
        <ele>515</ele>
        <time>2021-04-17T15:58:29Z</time>
      </trkpt>
      <trkpt lat="46.17095" lon="6.26403">
        <ele>515.2</ele>
        <time>2021-04-17T15:58:30Z</time>
      </trkpt>
      <trkpt lat="46.17097" lon="6.26399">
        <ele>515.4</ele>
        <time>2021-04-17T15:58:31Z</time>
      </trkpt>
      <trkpt lat="46.171" lon="6.26395">
        <ele>515.4</ele>
        <time>2021-04-17T15:58:32Z</time>
      </trkpt>
      <trkpt lat="46.17103" lon="6.26391">
        <ele>515.6</ele>
        <time>2021-04-17T15:58:33Z</time>
      </trkpt>
      <trkpt lat="46.17105" lon="6.26386">
        <ele>515.6</ele>
        <time>2021-04-17T15:58:34Z</time>
      </trkpt>
      <trkpt lat="46.17108" lon="6.26381">
        <ele>515.6</ele>
        <time>2021-04-17T15:58:35Z</time>
      </trkpt>
      <trkpt lat="46.17111" lon="6.26376">
        <ele>515.8</ele>
        <time>2021-04-17T15:58:36Z</time>
      </trkpt>
      <trkpt lat="46.17114" lon="6.26371">
        <ele>515.8</ele>
        <time>2021-04-17T15:58:37Z</time>
      </trkpt>
      <trkpt lat="46.17117" lon="6.26366">
        <ele>516.2</ele>
        <time>2021-04-17T15:58:38Z</time>
      </trkpt>
      <trkpt lat="46.1712" lon="6.26361">
        <ele>516.4</ele>
        <time>2021-04-17T15:58:39Z</time>
      </trkpt>
      <trkpt lat="46.17123" lon="6.26355">
        <ele>516.8</ele>
        <time>2021-04-17T15:58:40Z</time>
      </trkpt>
      <trkpt lat="46.17127" lon="6.2635">
        <ele>516.8</ele>
        <time>2021-04-17T15:58:41Z</time>
      </trkpt>
      <trkpt lat="46.1713" lon="6.26344">
        <ele>516.8</ele>
        <time>2021-04-17T15:58:42Z</time>
      </trkpt>
      <trkpt lat="46.17133" lon="6.26339">
        <ele>516.8</ele>
        <time>2021-04-17T15:58:43Z</time>
      </trkpt>
      <trkpt lat="46.17136" lon="6.26333">
        <ele>516.8</ele>
        <time>2021-04-17T15:58:44Z</time>
      </trkpt>
      <trkpt lat="46.17139" lon="6.26328">
        <ele>517</ele>
        <time>2021-04-17T15:58:45Z</time>
      </trkpt>
      <trkpt lat="46.17142" lon="6.26323">
        <ele>517</ele>
        <time>2021-04-17T15:58:46Z</time>
      </trkpt>
      <trkpt lat="46.17145" lon="6.26318">
        <ele>517.2</ele>
        <time>2021-04-17T15:58:47Z</time>
      </trkpt>
      <trkpt lat="46.17149" lon="6.26312">
        <ele>517.2</ele>
        <time>2021-04-17T15:58:48Z</time>
      </trkpt>
      <trkpt lat="46.17152" lon="6.26306">
        <ele>517.2</ele>
        <time>2021-04-17T15:58:49Z</time>
      </trkpt>
      <trkpt lat="46.17155" lon="6.263">
        <ele>517.2</ele>
        <time>2021-04-17T15:58:50Z</time>
      </trkpt>
      <trkpt lat="46.17158" lon="6.26294">
        <ele>517.2</ele>
        <time>2021-04-17T15:58:51Z</time>
      </trkpt>
      <trkpt lat="46.17162" lon="6.26288">
        <ele>517.2</ele>
        <time>2021-04-17T15:58:52Z</time>
      </trkpt>
      <trkpt lat="46.17165" lon="6.26282">
        <ele>517.2</ele>
        <time>2021-04-17T15:58:53Z</time>
      </trkpt>
      <trkpt lat="46.17169" lon="6.26276">
        <ele>517.2</ele>
        <time>2021-04-17T15:58:54Z</time>
      </trkpt>
      <trkpt lat="46.17173" lon="6.2627">
        <ele>517.2</ele>
        <time>2021-04-17T15:58:55Z</time>
      </trkpt>
      <trkpt lat="46.17176" lon="6.26264">
        <ele>517.2</ele>
        <time>2021-04-17T15:58:56Z</time>
      </trkpt>
      <trkpt lat="46.1718" lon="6.26258">
        <ele>517.2</ele>
        <time>2021-04-17T15:58:57Z</time>
      </trkpt>
      <trkpt lat="46.17183" lon="6.26252">
        <ele>517.4</ele>
        <time>2021-04-17T15:58:58Z</time>
      </trkpt>
      <trkpt lat="46.17187" lon="6.26247">
        <ele>517.4</ele>
        <time>2021-04-17T15:58:59Z</time>
      </trkpt>
      <trkpt lat="46.1719" lon="6.2624">
        <ele>517.4</ele>
        <time>2021-04-17T15:59:00Z</time>
      </trkpt>
      <trkpt lat="46.17194" lon="6.26234">
        <ele>517.6</ele>
        <time>2021-04-17T15:59:01Z</time>
      </trkpt>
      <trkpt lat="46.17197" lon="6.26228">
        <ele>517.6</ele>
        <time>2021-04-17T15:59:02Z</time>
      </trkpt>
      <trkpt lat="46.17201" lon="6.26221">
        <ele>517.6</ele>
        <time>2021-04-17T15:59:03Z</time>
      </trkpt>
      <trkpt lat="46.17204" lon="6.26215">
        <ele>517.6</ele>
        <time>2021-04-17T15:59:04Z</time>
      </trkpt>
      <trkpt lat="46.17208" lon="6.26209">
        <ele>517.6</ele>
        <time>2021-04-17T15:59:05Z</time>
      </trkpt>
      <trkpt lat="46.17211" lon="6.26203">
        <ele>517.6</ele>
        <time>2021-04-17T15:59:06Z</time>
      </trkpt>
      <trkpt lat="46.17214" lon="6.26198">
        <ele>517.6</ele>
        <time>2021-04-17T15:59:07Z</time>
      </trkpt>
      <trkpt lat="46.17218" lon="6.26192">
        <ele>517.8</ele>
        <time>2021-04-17T15:59:08Z</time>
      </trkpt>
      <trkpt lat="46.17221" lon="6.26187">
        <ele>517.6</ele>
        <time>2021-04-17T15:59:09Z</time>
      </trkpt>
      <trkpt lat="46.17225" lon="6.26182">
        <ele>517.8</ele>
        <time>2021-04-17T15:59:10Z</time>
      </trkpt>
      <trkpt lat="46.17228" lon="6.26176">
        <ele>517.8</ele>
        <time>2021-04-17T15:59:11Z</time>
      </trkpt>
      <trkpt lat="46.17231" lon="6.26171">
        <ele>517.6</ele>
        <time>2021-04-17T15:59:12Z</time>
      </trkpt>
      <trkpt lat="46.17235" lon="6.26165">
        <ele>517.6</ele>
        <time>2021-04-17T15:59:13Z</time>
      </trkpt>
      <trkpt lat="46.17238" lon="6.26159">
        <ele>517.6</ele>
        <time>2021-04-17T15:59:14Z</time>
      </trkpt>
      <trkpt lat="46.17242" lon="6.26153">
        <ele>517.6</ele>
        <time>2021-04-17T15:59:15Z</time>
      </trkpt>
      <trkpt lat="46.17245" lon="6.26147">
        <ele>517.8</ele>
        <time>2021-04-17T15:59:16Z</time>
      </trkpt>
      <trkpt lat="46.17249" lon="6.26141">
        <ele>517.8</ele>
        <time>2021-04-17T15:59:17Z</time>
      </trkpt>
      <trkpt lat="46.17253" lon="6.26135">
        <ele>517.8</ele>
        <time>2021-04-17T15:59:18Z</time>
      </trkpt>
      <trkpt lat="46.17256" lon="6.26129">
        <ele>517.6</ele>
        <time>2021-04-17T15:59:19Z</time>
      </trkpt>
      <trkpt lat="46.1726" lon="6.26122">
        <ele>517.6</ele>
        <time>2021-04-17T15:59:20Z</time>
      </trkpt>
      <trkpt lat="46.17262" lon="6.26115">
        <ele>517.6</ele>
        <time>2021-04-17T15:59:21Z</time>
      </trkpt>
      <trkpt lat="46.17265" lon="6.26107">
        <ele>517.4</ele>
        <time>2021-04-17T15:59:22Z</time>
      </trkpt>
      <trkpt lat="46.17267" lon="6.26101">
        <ele>517.4</ele>
        <time>2021-04-17T15:59:23Z</time>
      </trkpt>
      <trkpt lat="46.1727" lon="6.26097">
        <ele>517.2</ele>
        <time>2021-04-17T15:59:24Z</time>
      </trkpt>
      <trkpt lat="46.17272" lon="6.26095">
        <ele>517.4</ele>
        <time>2021-04-17T15:59:25Z</time>
      </trkpt>
      <trkpt lat="46.17275" lon="6.26092">
        <ele>517</ele>
        <time>2021-04-17T15:59:26Z</time>
      </trkpt>
      <trkpt lat="46.17278" lon="6.26088">
        <ele>517</ele>
        <time>2021-04-17T15:59:27Z</time>
      </trkpt>
      <trkpt lat="46.17281" lon="6.26083">
        <ele>516.6</ele>
        <time>2021-04-17T15:59:28Z</time>
      </trkpt>
      <trkpt lat="46.17283" lon="6.26076">
        <ele>516</ele>
        <time>2021-04-17T15:59:29Z</time>
      </trkpt>
      <trkpt lat="46.17286" lon="6.2607">
        <ele>515.2</ele>
        <time>2021-04-17T15:59:30Z</time>
      </trkpt>
      <trkpt lat="46.17291" lon="6.26063">
        <ele>514.6</ele>
        <time>2021-04-17T15:59:31Z</time>
      </trkpt>
      <trkpt lat="46.17296" lon="6.26056">
        <ele>514.2</ele>
        <time>2021-04-17T15:59:32Z</time>
      </trkpt>
      <trkpt lat="46.173" lon="6.26048">
        <ele>514</ele>
        <time>2021-04-17T15:59:33Z</time>
      </trkpt>
      <trkpt lat="46.17305" lon="6.2604">
        <ele>514</ele>
        <time>2021-04-17T15:59:34Z</time>
      </trkpt>
      <trkpt lat="46.1731" lon="6.26031">
        <ele>513.8</ele>
        <time>2021-04-17T15:59:35Z</time>
      </trkpt>
      <trkpt lat="46.17314" lon="6.26021">
        <ele>513.8</ele>
        <time>2021-04-17T15:59:36Z</time>
      </trkpt>
      <trkpt lat="46.17319" lon="6.26012">
        <ele>513</ele>
        <time>2021-04-17T15:59:37Z</time>
      </trkpt>
      <trkpt lat="46.17323" lon="6.26003">
        <ele>512.4</ele>
        <time>2021-04-17T15:59:38Z</time>
      </trkpt>
      <trkpt lat="46.17327" lon="6.25994">
        <ele>512</ele>
        <time>2021-04-17T15:59:39Z</time>
      </trkpt>
      <trkpt lat="46.17332" lon="6.25985">
        <ele>511.6</ele>
        <time>2021-04-17T15:59:40Z</time>
      </trkpt>
      <trkpt lat="46.17336" lon="6.25977">
        <ele>511.6</ele>
        <time>2021-04-17T15:59:41Z</time>
      </trkpt>
      <trkpt lat="46.17341" lon="6.25968">
        <ele>511.4</ele>
        <time>2021-04-17T15:59:42Z</time>
      </trkpt>
      <trkpt lat="46.17345" lon="6.2596">
        <ele>511.4</ele>
        <time>2021-04-17T15:59:43Z</time>
      </trkpt>
      <trkpt lat="46.17348" lon="6.25952">
        <ele>510.8</ele>
        <time>2021-04-17T15:59:44Z</time>
      </trkpt>
      <trkpt lat="46.17352" lon="6.25943">
        <ele>510.2</ele>
        <time>2021-04-17T15:59:45Z</time>
      </trkpt>
      <trkpt lat="46.17355" lon="6.25934">
        <ele>509.8</ele>
        <time>2021-04-17T15:59:46Z</time>
      </trkpt>
      <trkpt lat="46.17358" lon="6.25926">
        <ele>509.6</ele>
        <time>2021-04-17T15:59:47Z</time>
      </trkpt>
      <trkpt lat="46.17361" lon="6.25917">
        <ele>509.6</ele>
        <time>2021-04-17T15:59:48Z</time>
      </trkpt>
      <trkpt lat="46.17364" lon="6.25909">
        <ele>509.6</ele>
        <time>2021-04-17T15:59:49Z</time>
      </trkpt>
      <trkpt lat="46.17368" lon="6.25901">
        <ele>509.6</ele>
        <time>2021-04-17T15:59:50Z</time>
      </trkpt>
      <trkpt lat="46.17371" lon="6.25892">
        <ele>509.6</ele>
        <time>2021-04-17T15:59:51Z</time>
      </trkpt>
      <trkpt lat="46.17376" lon="6.25885">
        <ele>509.6</ele>
        <time>2021-04-17T15:59:52Z</time>
      </trkpt>
      <trkpt lat="46.1738" lon="6.25879">
        <ele>509.6</ele>
        <time>2021-04-17T15:59:53Z</time>
      </trkpt>
      <trkpt lat="46.17385" lon="6.25873">
        <ele>509.6</ele>
        <time>2021-04-17T15:59:54Z</time>
      </trkpt>
      <trkpt lat="46.17389" lon="6.25868">
        <ele>509.4</ele>
        <time>2021-04-17T15:59:55Z</time>
      </trkpt>
      <trkpt lat="46.17394" lon="6.25862">
        <ele>510.8</ele>
        <time>2021-04-17T15:59:56Z</time>
      </trkpt>
      <trkpt lat="46.17398" lon="6.25857">
        <ele>511.8</ele>
        <time>2021-04-17T15:59:57Z</time>
      </trkpt>
      <trkpt lat="46.17403" lon="6.25852">
        <ele>512.4</ele>
        <time>2021-04-17T15:59:58Z</time>
      </trkpt>
      <trkpt lat="46.17407" lon="6.25848">
        <ele>513</ele>
        <time>2021-04-17T15:59:59Z</time>
      </trkpt>
      <trkpt lat="46.17411" lon="6.25843">
        <ele>513.2</ele>
        <time>2021-04-17T16:00:00Z</time>
      </trkpt>
      <trkpt lat="46.17415" lon="6.25839">
        <ele>513.4</ele>
        <time>2021-04-17T16:00:01Z</time>
      </trkpt>
      <trkpt lat="46.17418" lon="6.25834">
        <ele>513.6</ele>
        <time>2021-04-17T16:00:02Z</time>
      </trkpt>
      <trkpt lat="46.17421" lon="6.25829">
        <ele>513.6</ele>
        <time>2021-04-17T16:00:03Z</time>
      </trkpt>
      <trkpt lat="46.17422" lon="6.25822">
        <ele>513.8</ele>
        <time>2021-04-17T16:00:04Z</time>
      </trkpt>
      <trkpt lat="46.17424" lon="6.25815">
        <ele>513.8</ele>
        <time>2021-04-17T16:00:05Z</time>
      </trkpt>
      <trkpt lat="46.17425" lon="6.25807">
        <ele>513.8</ele>
        <time>2021-04-17T16:00:06Z</time>
      </trkpt>
      <trkpt lat="46.17426" lon="6.25799">
        <ele>513.8</ele>
        <time>2021-04-17T16:00:07Z</time>
      </trkpt>
      <trkpt lat="46.17428" lon="6.25792">
        <ele>513.8</ele>
        <time>2021-04-17T16:00:08Z</time>
      </trkpt>
      <trkpt lat="46.17432" lon="6.25786">
        <ele>513.8</ele>
        <time>2021-04-17T16:00:09Z</time>
      </trkpt>
      <trkpt lat="46.17436" lon="6.25782">
        <ele>514.2</ele>
        <time>2021-04-17T16:00:10Z</time>
      </trkpt>
      <trkpt lat="46.17441" lon="6.25777">
        <ele>514.6</ele>
        <time>2021-04-17T16:00:11Z</time>
      </trkpt>
      <trkpt lat="46.17445" lon="6.25772">
        <ele>514.6</ele>
        <time>2021-04-17T16:00:12Z</time>
      </trkpt>
      <trkpt lat="46.17449" lon="6.25766">
        <ele>514.8</ele>
        <time>2021-04-17T16:00:13Z</time>
      </trkpt>
      <trkpt lat="46.17453" lon="6.2576">
        <ele>515</ele>
        <time>2021-04-17T16:00:14Z</time>
      </trkpt>
      <trkpt lat="46.17458" lon="6.25754">
        <ele>515</ele>
        <time>2021-04-17T16:00:15Z</time>
      </trkpt>
      <trkpt lat="46.17463" lon="6.25748">
        <ele>515</ele>
        <time>2021-04-17T16:00:16Z</time>
      </trkpt>
      <trkpt lat="46.17469" lon="6.25743">
        <ele>515</ele>
        <time>2021-04-17T16:00:17Z</time>
      </trkpt>
      <trkpt lat="46.17476" lon="6.25737">
        <ele>514.8</ele>
        <time>2021-04-17T16:00:18Z</time>
      </trkpt>
      <trkpt lat="46.17483" lon="6.25731">
        <ele>514.8</ele>
        <time>2021-04-17T16:00:19Z</time>
      </trkpt>
      <trkpt lat="46.17489" lon="6.25725">
        <ele>514.6</ele>
        <time>2021-04-17T16:00:20Z</time>
      </trkpt>
      <trkpt lat="46.17497" lon="6.25719">
        <ele>514.8</ele>
        <time>2021-04-17T16:00:21Z</time>
      </trkpt>
      <trkpt lat="46.17504" lon="6.25713">
        <ele>514.4</ele>
        <time>2021-04-17T16:00:22Z</time>
      </trkpt>
      <trkpt lat="46.17512" lon="6.25706">
        <ele>513.8</ele>
        <time>2021-04-17T16:00:23Z</time>
      </trkpt>
      <trkpt lat="46.1752" lon="6.257">
        <ele>513.4</ele>
        <time>2021-04-17T16:00:24Z</time>
      </trkpt>
      <trkpt lat="46.17527" lon="6.25693">
        <ele>513</ele>
        <time>2021-04-17T16:00:25Z</time>
      </trkpt>
      <trkpt lat="46.17535" lon="6.25686">
        <ele>512.4</ele>
        <time>2021-04-17T16:00:26Z</time>
      </trkpt>
      <trkpt lat="46.17543" lon="6.25679">
        <ele>511.6</ele>
        <time>2021-04-17T16:00:27Z</time>
      </trkpt>
      <trkpt lat="46.17551" lon="6.25672">
        <ele>511</ele>
        <time>2021-04-17T16:00:28Z</time>
      </trkpt>
      <trkpt lat="46.1756" lon="6.25666">
        <ele>511</ele>
        <time>2021-04-17T16:00:29Z</time>
      </trkpt>
      <trkpt lat="46.17569" lon="6.25659">
        <ele>510.2</ele>
        <time>2021-04-17T16:00:30Z</time>
      </trkpt>
      <trkpt lat="46.17578" lon="6.25654">
        <ele>509.6</ele>
        <time>2021-04-17T16:00:31Z</time>
      </trkpt>
      <trkpt lat="46.17587" lon="6.25649">
        <ele>509</ele>
        <time>2021-04-17T16:00:32Z</time>
      </trkpt>
      <trkpt lat="46.17596" lon="6.25645">
        <ele>508.6</ele>
        <time>2021-04-17T16:00:33Z</time>
      </trkpt>
      <trkpt lat="46.17604" lon="6.25641">
        <ele>508.4</ele>
        <time>2021-04-17T16:00:34Z</time>
      </trkpt>
      <trkpt lat="46.17613" lon="6.25636">
        <ele>508</ele>
        <time>2021-04-17T16:00:35Z</time>
      </trkpt>
      <trkpt lat="46.17622" lon="6.25632">
        <ele>507.4</ele>
        <time>2021-04-17T16:00:36Z</time>
      </trkpt>
      <trkpt lat="46.17631" lon="6.25627">
        <ele>507.2</ele>
        <time>2021-04-17T16:00:37Z</time>
      </trkpt>
      <trkpt lat="46.17639" lon="6.25623">
        <ele>506.6</ele>
        <time>2021-04-17T16:00:38Z</time>
      </trkpt>
      <trkpt lat="46.17648" lon="6.25618">
        <ele>505.8</ele>
        <time>2021-04-17T16:00:39Z</time>
      </trkpt>
      <trkpt lat="46.17656" lon="6.25614">
        <ele>505</ele>
        <time>2021-04-17T16:00:40Z</time>
      </trkpt>
      <trkpt lat="46.17664" lon="6.25609">
        <ele>504.6</ele>
        <time>2021-04-17T16:00:41Z</time>
      </trkpt>
      <trkpt lat="46.17672" lon="6.25605">
        <ele>504.2</ele>
        <time>2021-04-17T16:00:42Z</time>
      </trkpt>
      <trkpt lat="46.1768" lon="6.256">
        <ele>503.8</ele>
        <time>2021-04-17T16:00:43Z</time>
      </trkpt>
      <trkpt lat="46.17687" lon="6.25596">
        <ele>503.8</ele>
        <time>2021-04-17T16:00:44Z</time>
      </trkpt>
      <trkpt lat="46.17695" lon="6.25592">
        <ele>503.4</ele>
        <time>2021-04-17T16:00:45Z</time>
      </trkpt>
      <trkpt lat="46.17702" lon="6.25589">
        <ele>503.2</ele>
        <time>2021-04-17T16:00:46Z</time>
      </trkpt>
      <trkpt lat="46.17709" lon="6.25585">
        <ele>502.2</ele>
        <time>2021-04-17T16:00:47Z</time>
      </trkpt>
      <trkpt lat="46.17716" lon="6.25582">
        <ele>501.4</ele>
        <time>2021-04-17T16:00:48Z</time>
      </trkpt>
      <trkpt lat="46.17723" lon="6.25578">
        <ele>501.2</ele>
        <time>2021-04-17T16:00:49Z</time>
      </trkpt>
      <trkpt lat="46.1773" lon="6.25574">
        <ele>500.8</ele>
        <time>2021-04-17T16:00:50Z</time>
      </trkpt>
      <trkpt lat="46.17737" lon="6.2557">
        <ele>500.8</ele>
        <time>2021-04-17T16:00:51Z</time>
      </trkpt>
      <trkpt lat="46.17745" lon="6.25567">
        <ele>500.6</ele>
        <time>2021-04-17T16:00:52Z</time>
      </trkpt>
      <trkpt lat="46.17752" lon="6.25563">
        <ele>500.6</ele>
        <time>2021-04-17T16:00:53Z</time>
      </trkpt>
      <trkpt lat="46.1776" lon="6.2556">
        <ele>500.4</ele>
        <time>2021-04-17T16:00:54Z</time>
      </trkpt>
      <trkpt lat="46.17768" lon="6.25558">
        <ele>500.6</ele>
        <time>2021-04-17T16:00:55Z</time>
      </trkpt>
      <trkpt lat="46.17775" lon="6.25556">
        <ele>500.6</ele>
        <time>2021-04-17T16:00:56Z</time>
      </trkpt>
      <trkpt lat="46.17783" lon="6.25554">
        <ele>500.6</ele>
        <time>2021-04-17T16:00:57Z</time>
      </trkpt>
      <trkpt lat="46.17791" lon="6.25553">
        <ele>500.4</ele>
        <time>2021-04-17T16:00:58Z</time>
      </trkpt>
      <trkpt lat="46.17798" lon="6.25552">
        <ele>500.4</ele>
        <time>2021-04-17T16:00:59Z</time>
      </trkpt>
      <trkpt lat="46.17806" lon="6.25552">
        <ele>500.4</ele>
        <time>2021-04-17T16:01:00Z</time>
      </trkpt>
      <trkpt lat="46.17813" lon="6.25551">
        <ele>500.2</ele>
        <time>2021-04-17T16:01:01Z</time>
      </trkpt>
      <trkpt lat="46.1782" lon="6.25551">
        <ele>500.4</ele>
        <time>2021-04-17T16:01:02Z</time>
      </trkpt>
      <trkpt lat="46.17826" lon="6.25551">
        <ele>500.4</ele>
        <time>2021-04-17T16:01:03Z</time>
      </trkpt>
      <trkpt lat="46.17833" lon="6.25551">
        <ele>500.2</ele>
        <time>2021-04-17T16:01:04Z</time>
      </trkpt>
      <trkpt lat="46.17839" lon="6.25552">
        <ele>500.4</ele>
        <time>2021-04-17T16:01:05Z</time>
      </trkpt>
      <trkpt lat="46.17845" lon="6.25552">
        <ele>500.2</ele>
        <time>2021-04-17T16:01:06Z</time>
      </trkpt>
      <trkpt lat="46.17852" lon="6.25553">
        <ele>500.4</ele>
        <time>2021-04-17T16:01:07Z</time>
      </trkpt>
      <trkpt lat="46.17858" lon="6.25553">
        <ele>500.4</ele>
        <time>2021-04-17T16:01:08Z</time>
      </trkpt>
      <trkpt lat="46.17863" lon="6.25554">
        <ele>500.6</ele>
        <time>2021-04-17T16:01:09Z</time>
      </trkpt>
      <trkpt lat="46.17869" lon="6.25555">
        <ele>500.6</ele>
        <time>2021-04-17T16:01:10Z</time>
      </trkpt>
      <trkpt lat="46.17874" lon="6.25556">
        <ele>500.8</ele>
        <time>2021-04-17T16:01:11Z</time>
      </trkpt>
      <trkpt lat="46.17879" lon="6.25557">
        <ele>500.8</ele>
        <time>2021-04-17T16:01:12Z</time>
      </trkpt>
      <trkpt lat="46.17885" lon="6.25558">
        <ele>501</ele>
        <time>2021-04-17T16:01:13Z</time>
      </trkpt>
      <trkpt lat="46.1789" lon="6.25559">
        <ele>501.2</ele>
        <time>2021-04-17T16:01:14Z</time>
      </trkpt>
      <trkpt lat="46.17895" lon="6.25559">
        <ele>502</ele>
        <time>2021-04-17T16:01:15Z</time>
      </trkpt>
      <trkpt lat="46.179" lon="6.25558">
        <ele>502.2</ele>
        <time>2021-04-17T16:01:16Z</time>
      </trkpt>
      <trkpt lat="46.17905" lon="6.25558">
        <ele>502.4</ele>
        <time>2021-04-17T16:01:17Z</time>
      </trkpt>
      <trkpt lat="46.1791" lon="6.25558">
        <ele>502.8</ele>
        <time>2021-04-17T16:01:18Z</time>
      </trkpt>
      <trkpt lat="46.17915" lon="6.25557">
        <ele>503</ele>
        <time>2021-04-17T16:01:19Z</time>
      </trkpt>
      <trkpt lat="46.17919" lon="6.25557">
        <ele>503.2</ele>
        <time>2021-04-17T16:01:20Z</time>
      </trkpt>
      <trkpt lat="46.17924" lon="6.25556">
        <ele>503.4</ele>
        <time>2021-04-17T16:01:21Z</time>
      </trkpt>
      <trkpt lat="46.17929" lon="6.25556">
        <ele>503.8</ele>
        <time>2021-04-17T16:01:22Z</time>
      </trkpt>
      <trkpt lat="46.17934" lon="6.25554">
        <ele>504.2</ele>
        <time>2021-04-17T16:01:23Z</time>
      </trkpt>
      <trkpt lat="46.17938" lon="6.25553">
        <ele>504.6</ele>
        <time>2021-04-17T16:01:24Z</time>
      </trkpt>
      <trkpt lat="46.17943" lon="6.25552">
        <ele>505</ele>
        <time>2021-04-17T16:01:25Z</time>
      </trkpt>
      <trkpt lat="46.17947" lon="6.25551">
        <ele>505.6</ele>
        <time>2021-04-17T16:01:26Z</time>
      </trkpt>
      <trkpt lat="46.17952" lon="6.25549">
        <ele>506.2</ele>
        <time>2021-04-17T16:01:27Z</time>
      </trkpt>
      <trkpt lat="46.17957" lon="6.25548">
        <ele>506.6</ele>
        <time>2021-04-17T16:01:28Z</time>
      </trkpt>
      <trkpt lat="46.17962" lon="6.25546">
        <ele>507</ele>
        <time>2021-04-17T16:01:29Z</time>
      </trkpt>
      <trkpt lat="46.17966" lon="6.25545">
        <ele>507.2</ele>
        <time>2021-04-17T16:01:30Z</time>
      </trkpt>
      <trkpt lat="46.17971" lon="6.25543">
        <ele>507.4</ele>
        <time>2021-04-17T16:01:31Z</time>
      </trkpt>
      <trkpt lat="46.17976" lon="6.25541">
        <ele>507.6</ele>
        <time>2021-04-17T16:01:32Z</time>
      </trkpt>
      <trkpt lat="46.17981" lon="6.25538">
        <ele>507.6</ele>
        <time>2021-04-17T16:01:33Z</time>
      </trkpt>
      <trkpt lat="46.17986" lon="6.25535">
        <ele>507.6</ele>
        <time>2021-04-17T16:01:34Z</time>
      </trkpt>
      <trkpt lat="46.17991" lon="6.25532">
        <ele>507.8</ele>
        <time>2021-04-17T16:01:35Z</time>
      </trkpt>
      <trkpt lat="46.17996" lon="6.25529">
        <ele>507.8</ele>
        <time>2021-04-17T16:01:36Z</time>
      </trkpt>
      <trkpt lat="46.18006" lon="6.25522">
        <ele>508</ele>
        <time>2021-04-17T16:01:38Z</time>
      </trkpt>
      <trkpt lat="46.18012" lon="6.25518">
        <ele>508</ele>
        <time>2021-04-17T16:01:39Z</time>
      </trkpt>
      <trkpt lat="46.18017" lon="6.25514">
        <ele>508.2</ele>
        <time>2021-04-17T16:01:40Z</time>
      </trkpt>
      <trkpt lat="46.18023" lon="6.25509">
        <ele>508</ele>
        <time>2021-04-17T16:01:41Z</time>
      </trkpt>
      <trkpt lat="46.18028" lon="6.25504">
        <ele>508.2</ele>
        <time>2021-04-17T16:01:42Z</time>
      </trkpt>
      <trkpt lat="46.18034" lon="6.25499">
        <ele>508.2</ele>
        <time>2021-04-17T16:01:43Z</time>
      </trkpt>
      <trkpt lat="46.18039" lon="6.25492">
        <ele>508.2</ele>
        <time>2021-04-17T16:01:44Z</time>
      </trkpt>
      <trkpt lat="46.18044" lon="6.25485">
        <ele>508.2</ele>
        <time>2021-04-17T16:01:45Z</time>
      </trkpt>
      <trkpt lat="46.18049" lon="6.25477">
        <ele>508.2</ele>
        <time>2021-04-17T16:01:46Z</time>
      </trkpt>
      <trkpt lat="46.18054" lon="6.25468">
        <ele>508</ele>
        <time>2021-04-17T16:01:47Z</time>
      </trkpt>
      <trkpt lat="46.18059" lon="6.2546">
        <ele>508</ele>
        <time>2021-04-17T16:01:48Z</time>
      </trkpt>
      <trkpt lat="46.18065" lon="6.25452">
        <ele>507.8</ele>
        <time>2021-04-17T16:01:49Z</time>
      </trkpt>
      <trkpt lat="46.1807" lon="6.25444">
        <ele>507.6</ele>
        <time>2021-04-17T16:01:50Z</time>
      </trkpt>
      <trkpt lat="46.18077" lon="6.25435">
        <ele>507.4</ele>
        <time>2021-04-17T16:01:51Z</time>
      </trkpt>
      <trkpt lat="46.18084" lon="6.25427">
        <ele>507</ele>
        <time>2021-04-17T16:01:52Z</time>
      </trkpt>
      <trkpt lat="46.18091" lon="6.2542">
        <ele>506.8</ele>
        <time>2021-04-17T16:01:53Z</time>
      </trkpt>
      <trkpt lat="46.18099" lon="6.25414">
        <ele>506.2</ele>
        <time>2021-04-17T16:01:54Z</time>
      </trkpt>
      <trkpt lat="46.18107" lon="6.25408">
        <ele>505.8</ele>
        <time>2021-04-17T16:01:55Z</time>
      </trkpt>
      <trkpt lat="46.18114" lon="6.25403">
        <ele>505.4</ele>
        <time>2021-04-17T16:01:56Z</time>
      </trkpt>
      <trkpt lat="46.18122" lon="6.25398">
        <ele>504.8</ele>
        <time>2021-04-17T16:01:57Z</time>
      </trkpt>
      <trkpt lat="46.1813" lon="6.25393">
        <ele>504.6</ele>
        <time>2021-04-17T16:01:58Z</time>
      </trkpt>
      <trkpt lat="46.18137" lon="6.25389">
        <ele>504.6</ele>
        <time>2021-04-17T16:01:59Z</time>
      </trkpt>
      <trkpt lat="46.18144" lon="6.25384">
        <ele>504</ele>
        <time>2021-04-17T16:02:00Z</time>
      </trkpt>
      <trkpt lat="46.18151" lon="6.25379">
        <ele>503.2</ele>
        <time>2021-04-17T16:02:01Z</time>
      </trkpt>
      <trkpt lat="46.18158" lon="6.25374">
        <ele>502.4</ele>
        <time>2021-04-17T16:02:02Z</time>
      </trkpt>
      <trkpt lat="46.18166" lon="6.25369">
        <ele>501.8</ele>
        <time>2021-04-17T16:02:03Z</time>
      </trkpt>
      <trkpt lat="46.18173" lon="6.25365">
        <ele>501.4</ele>
        <time>2021-04-17T16:02:04Z</time>
      </trkpt>
      <trkpt lat="46.18181" lon="6.25361">
        <ele>501.4</ele>
        <time>2021-04-17T16:02:05Z</time>
      </trkpt>
      <trkpt lat="46.18189" lon="6.25357">
        <ele>501</ele>
        <time>2021-04-17T16:02:06Z</time>
      </trkpt>
      <trkpt lat="46.18196" lon="6.25352">
        <ele>500.8</ele>
        <time>2021-04-17T16:02:07Z</time>
      </trkpt>
      <trkpt lat="46.18204" lon="6.25347">
        <ele>500.4</ele>
        <time>2021-04-17T16:02:08Z</time>
      </trkpt>
      <trkpt lat="46.18212" lon="6.25342">
        <ele>500.2</ele>
        <time>2021-04-17T16:02:09Z</time>
      </trkpt>
      <trkpt lat="46.1822" lon="6.25336">
        <ele>500</ele>
        <time>2021-04-17T16:02:10Z</time>
      </trkpt>
      <trkpt lat="46.18228" lon="6.25331">
        <ele>499.8</ele>
        <time>2021-04-17T16:02:11Z</time>
      </trkpt>
      <trkpt lat="46.18236" lon="6.25326">
        <ele>499.8</ele>
        <time>2021-04-17T16:02:12Z</time>
      </trkpt>
      <trkpt lat="46.18244" lon="6.25321">
        <ele>499.6</ele>
        <time>2021-04-17T16:02:13Z</time>
      </trkpt>
      <trkpt lat="46.18251" lon="6.25315">
        <ele>499.6</ele>
        <time>2021-04-17T16:02:14Z</time>
      </trkpt>
      <trkpt lat="46.18258" lon="6.25309">
        <ele>499.4</ele>
        <time>2021-04-17T16:02:15Z</time>
      </trkpt>
      <trkpt lat="46.18266" lon="6.25304">
        <ele>499.2</ele>
        <time>2021-04-17T16:02:16Z</time>
      </trkpt>
      <trkpt lat="46.18273" lon="6.253">
        <ele>499.2</ele>
        <time>2021-04-17T16:02:17Z</time>
      </trkpt>
      <trkpt lat="46.1828" lon="6.25295">
        <ele>499.4</ele>
        <time>2021-04-17T16:02:18Z</time>
      </trkpt>
      <trkpt lat="46.18287" lon="6.25291">
        <ele>499.4</ele>
        <time>2021-04-17T16:02:19Z</time>
      </trkpt>
      <trkpt lat="46.18294" lon="6.25286">
        <ele>499</ele>
        <time>2021-04-17T16:02:20Z</time>
      </trkpt>
      <trkpt lat="46.18302" lon="6.25282">
        <ele>498.8</ele>
        <time>2021-04-17T16:02:21Z</time>
      </trkpt>
      <trkpt lat="46.18309" lon="6.25277">
        <ele>498.4</ele>
        <time>2021-04-17T16:02:22Z</time>
      </trkpt>
      <trkpt lat="46.18317" lon="6.25273">
        <ele>498</ele>
        <time>2021-04-17T16:02:23Z</time>
      </trkpt>
      <trkpt lat="46.18324" lon="6.25268">
        <ele>497.8</ele>
        <time>2021-04-17T16:02:24Z</time>
      </trkpt>
      <trkpt lat="46.18332" lon="6.25264">
        <ele>497.8</ele>
        <time>2021-04-17T16:02:25Z</time>
      </trkpt>
      <trkpt lat="46.1834" lon="6.25258">
        <ele>496.8</ele>
        <time>2021-04-17T16:02:26Z</time>
      </trkpt>
      <trkpt lat="46.18347" lon="6.25253">
        <ele>496</ele>
        <time>2021-04-17T16:02:27Z</time>
      </trkpt>
      <trkpt lat="46.18355" lon="6.25248">
        <ele>495.6</ele>
        <time>2021-04-17T16:02:28Z</time>
      </trkpt>
      <trkpt lat="46.18363" lon="6.25242">
        <ele>495.4</ele>
        <time>2021-04-17T16:02:29Z</time>
      </trkpt>
      <trkpt lat="46.18372" lon="6.25236">
        <ele>495.2</ele>
        <time>2021-04-17T16:02:30Z</time>
      </trkpt>
      <trkpt lat="46.18379" lon="6.2523">
        <ele>495.2</ele>
        <time>2021-04-17T16:02:31Z</time>
      </trkpt>
      <trkpt lat="46.18387" lon="6.25224">
        <ele>495</ele>
        <time>2021-04-17T16:02:32Z</time>
      </trkpt>
      <trkpt lat="46.18396" lon="6.25219">
        <ele>494.8</ele>
        <time>2021-04-17T16:02:33Z</time>
      </trkpt>
      <trkpt lat="46.18405" lon="6.25214">
        <ele>494.4</ele>
        <time>2021-04-17T16:02:34Z</time>
      </trkpt>
      <trkpt lat="46.18413" lon="6.25209">
        <ele>494</ele>
        <time>2021-04-17T16:02:35Z</time>
      </trkpt>
      <trkpt lat="46.18422" lon="6.25204">
        <ele>493.4</ele>
        <time>2021-04-17T16:02:36Z</time>
      </trkpt>
      <trkpt lat="46.18431" lon="6.252">
        <ele>493.4</ele>
        <time>2021-04-17T16:02:37Z</time>
      </trkpt>
      <trkpt lat="46.1844" lon="6.25196">
        <ele>493</ele>
        <time>2021-04-17T16:02:38Z</time>
      </trkpt>
      <trkpt lat="46.18449" lon="6.25192">
        <ele>492.6</ele>
        <time>2021-04-17T16:02:39Z</time>
      </trkpt>
      <trkpt lat="46.18458" lon="6.25189">
        <ele>492.2</ele>
        <time>2021-04-17T16:02:40Z</time>
      </trkpt>
      <trkpt lat="46.18467" lon="6.25186">
        <ele>492</ele>
        <time>2021-04-17T16:02:41Z</time>
      </trkpt>
      <trkpt lat="46.18476" lon="6.25184">
        <ele>492</ele>
        <time>2021-04-17T16:02:42Z</time>
      </trkpt>
      <trkpt lat="46.18485" lon="6.25181">
        <ele>491.8</ele>
        <time>2021-04-17T16:02:43Z</time>
      </trkpt>
      <trkpt lat="46.18495" lon="6.25179">
        <ele>491.8</ele>
        <time>2021-04-17T16:02:44Z</time>
      </trkpt>
      <trkpt lat="46.18504" lon="6.25177">
        <ele>491.4</ele>
        <time>2021-04-17T16:02:45Z</time>
      </trkpt>
      <trkpt lat="46.18513" lon="6.25175">
        <ele>491.4</ele>
        <time>2021-04-17T16:02:46Z</time>
      </trkpt>
      <trkpt lat="46.18522" lon="6.25173">
        <ele>490.8</ele>
        <time>2021-04-17T16:02:47Z</time>
      </trkpt>
      <trkpt lat="46.18531" lon="6.25171">
        <ele>490.4</ele>
        <time>2021-04-17T16:02:48Z</time>
      </trkpt>
      <trkpt lat="46.1854" lon="6.25169">
        <ele>490.2</ele>
        <time>2021-04-17T16:02:49Z</time>
      </trkpt>
      <trkpt lat="46.18548" lon="6.25167">
        <ele>490.2</ele>
        <time>2021-04-17T16:02:50Z</time>
      </trkpt>
      <trkpt lat="46.18557" lon="6.25166">
        <ele>490</ele>
        <time>2021-04-17T16:02:51Z</time>
      </trkpt>
      <trkpt lat="46.18565" lon="6.25165">
        <ele>489.4</ele>
        <time>2021-04-17T16:02:52Z</time>
      </trkpt>
      <trkpt lat="46.18573" lon="6.25163">
        <ele>489.2</ele>
        <time>2021-04-17T16:02:53Z</time>
      </trkpt>
      <trkpt lat="46.18581" lon="6.25162">
        <ele>489</ele>
        <time>2021-04-17T16:02:54Z</time>
      </trkpt>
      <trkpt lat="46.18589" lon="6.2516">
        <ele>488.6</ele>
        <time>2021-04-17T16:02:55Z</time>
      </trkpt>
      <trkpt lat="46.18597" lon="6.25158">
        <ele>488.6</ele>
        <time>2021-04-17T16:02:56Z</time>
      </trkpt>
      <trkpt lat="46.18605" lon="6.25156">
        <ele>488.4</ele>
        <time>2021-04-17T16:02:57Z</time>
      </trkpt>
      <trkpt lat="46.18612" lon="6.25154">
        <ele>488.4</ele>
        <time>2021-04-17T16:02:58Z</time>
      </trkpt>
      <trkpt lat="46.1862" lon="6.25151">
        <ele>488.2</ele>
        <time>2021-04-17T16:02:59Z</time>
      </trkpt>
      <trkpt lat="46.18628" lon="6.25148">
        <ele>488.2</ele>
        <time>2021-04-17T16:03:00Z</time>
      </trkpt>
      <trkpt lat="46.18635" lon="6.25145">
        <ele>488.2</ele>
        <time>2021-04-17T16:03:01Z</time>
      </trkpt>
      <trkpt lat="46.18643" lon="6.25142">
        <ele>488</ele>
        <time>2021-04-17T16:03:02Z</time>
      </trkpt>
      <trkpt lat="46.18651" lon="6.25139">
        <ele>488</ele>
        <time>2021-04-17T16:03:03Z</time>
      </trkpt>
      <trkpt lat="46.18659" lon="6.25136">
        <ele>487.8</ele>
        <time>2021-04-17T16:03:04Z</time>
      </trkpt>
      <trkpt lat="46.18667" lon="6.25132">
        <ele>487.6</ele>
        <time>2021-04-17T16:03:05Z</time>
      </trkpt>
      <trkpt lat="46.18676" lon="6.25129">
        <ele>487.4</ele>
        <time>2021-04-17T16:03:06Z</time>
      </trkpt>
      <trkpt lat="46.18683" lon="6.25126">
        <ele>487.2</ele>
        <time>2021-04-17T16:03:07Z</time>
      </trkpt>
      <trkpt lat="46.18691" lon="6.25122">
        <ele>487</ele>
        <time>2021-04-17T16:03:08Z</time>
      </trkpt>
      <trkpt lat="46.18698" lon="6.25118">
        <ele>486.8</ele>
        <time>2021-04-17T16:03:09Z</time>
      </trkpt>
      <trkpt lat="46.18705" lon="6.25115">
        <ele>486.6</ele>
        <time>2021-04-17T16:03:10Z</time>
      </trkpt>
      <trkpt lat="46.18713" lon="6.25111">
        <ele>486.4</ele>
        <time>2021-04-17T16:03:11Z</time>
      </trkpt>
      <trkpt lat="46.1872" lon="6.25108">
        <ele>486.2</ele>
        <time>2021-04-17T16:03:12Z</time>
      </trkpt>
      <trkpt lat="46.18728" lon="6.25105">
        <ele>486.4</ele>
        <time>2021-04-17T16:03:13Z</time>
      </trkpt>
      <trkpt lat="46.18736" lon="6.25101">
        <ele>485.4</ele>
        <time>2021-04-17T16:03:14Z</time>
      </trkpt>
      <trkpt lat="46.18744" lon="6.25098">
        <ele>485</ele>
        <time>2021-04-17T16:03:15Z</time>
      </trkpt>
      <trkpt lat="46.18752" lon="6.25095">
        <ele>484.4</ele>
        <time>2021-04-17T16:03:16Z</time>
      </trkpt>
      <trkpt lat="46.18761" lon="6.25092">
        <ele>484.2</ele>
        <time>2021-04-17T16:03:17Z</time>
      </trkpt>
      <trkpt lat="46.18769" lon="6.25089">
        <ele>483.8</ele>
        <time>2021-04-17T16:03:18Z</time>
      </trkpt>
      <trkpt lat="46.18777" lon="6.25088">
        <ele>483.4</ele>
        <time>2021-04-17T16:03:19Z</time>
      </trkpt>
      <trkpt lat="46.18786" lon="6.25086">
        <ele>483.2</ele>
        <time>2021-04-17T16:03:20Z</time>
      </trkpt>
      <trkpt lat="46.18795" lon="6.25085">
        <ele>483.2</ele>
        <time>2021-04-17T16:03:21Z</time>
      </trkpt>
      <trkpt lat="46.18803" lon="6.25084">
        <ele>483</ele>
        <time>2021-04-17T16:03:22Z</time>
      </trkpt>
      <trkpt lat="46.18812" lon="6.25083">
        <ele>482.8</ele>
        <time>2021-04-17T16:03:23Z</time>
      </trkpt>
      <trkpt lat="46.18821" lon="6.25083">
        <ele>482.4</ele>
        <time>2021-04-17T16:03:24Z</time>
      </trkpt>
      <trkpt lat="46.1883" lon="6.25084">
        <ele>482.2</ele>
        <time>2021-04-17T16:03:25Z</time>
      </trkpt>
      <trkpt lat="46.18839" lon="6.25084">
        <ele>482</ele>
        <time>2021-04-17T16:03:26Z</time>
      </trkpt>
      <trkpt lat="46.18848" lon="6.25084">
        <ele>482</ele>
        <time>2021-04-17T16:03:27Z</time>
      </trkpt>
      <trkpt lat="46.18856" lon="6.25084">
        <ele>482</ele>
        <time>2021-04-17T16:03:28Z</time>
      </trkpt>
      <trkpt lat="46.18865" lon="6.25084">
        <ele>481.8</ele>
        <time>2021-04-17T16:03:29Z</time>
      </trkpt>
      <trkpt lat="46.18873" lon="6.25085">
        <ele>481.6</ele>
        <time>2021-04-17T16:03:30Z</time>
      </trkpt>
      <trkpt lat="46.18882" lon="6.25085">
        <ele>481.6</ele>
        <time>2021-04-17T16:03:31Z</time>
      </trkpt>
      <trkpt lat="46.1889" lon="6.25084">
        <ele>481.2</ele>
        <time>2021-04-17T16:03:32Z</time>
      </trkpt>
      <trkpt lat="46.18898" lon="6.25084">
        <ele>481.2</ele>
        <time>2021-04-17T16:03:33Z</time>
      </trkpt>
      <trkpt lat="46.18907" lon="6.25083">
        <ele>481</ele>
        <time>2021-04-17T16:03:34Z</time>
      </trkpt>
      <trkpt lat="46.18915" lon="6.25083">
        <ele>480.6</ele>
        <time>2021-04-17T16:03:35Z</time>
      </trkpt>
      <trkpt lat="46.18923" lon="6.25082">
        <ele>480.4</ele>
        <time>2021-04-17T16:03:36Z</time>
      </trkpt>
      <trkpt lat="46.18932" lon="6.25081">
        <ele>480</ele>
        <time>2021-04-17T16:03:37Z</time>
      </trkpt>
      <trkpt lat="46.1894" lon="6.25079">
        <ele>480</ele>
        <time>2021-04-17T16:03:38Z</time>
      </trkpt>
      <trkpt lat="46.18948" lon="6.25078">
        <ele>479.8</ele>
        <time>2021-04-17T16:03:39Z</time>
      </trkpt>
      <trkpt lat="46.18956" lon="6.25076">
        <ele>479.6</ele>
        <time>2021-04-17T16:03:40Z</time>
      </trkpt>
      <trkpt lat="46.18964" lon="6.25075">
        <ele>479.6</ele>
        <time>2021-04-17T16:03:41Z</time>
      </trkpt>
      <trkpt lat="46.18972" lon="6.25075">
        <ele>479.4</ele>
        <time>2021-04-17T16:03:42Z</time>
      </trkpt>
      <trkpt lat="46.18981" lon="6.25076">
        <ele>479.2</ele>
        <time>2021-04-17T16:03:43Z</time>
      </trkpt>
      <trkpt lat="46.18989" lon="6.25078">
        <ele>479.4</ele>
        <time>2021-04-17T16:03:44Z</time>
      </trkpt>
      <trkpt lat="46.18996" lon="6.2508">
        <ele>479.2</ele>
        <time>2021-04-17T16:03:45Z</time>
      </trkpt>
      <trkpt lat="46.19003" lon="6.25083">
        <ele>479.2</ele>
        <time>2021-04-17T16:03:46Z</time>
      </trkpt>
      <trkpt lat="46.19016" lon="6.25089">
        <ele>477.8</ele>
        <time>2021-04-17T16:03:48Z</time>
      </trkpt>
      <trkpt lat="46.19021" lon="6.25092">
        <ele>477.2</ele>
        <time>2021-04-17T16:03:49Z</time>
      </trkpt>
      <trkpt lat="46.19024" lon="6.25095">
        <ele>477</ele>
        <time>2021-04-17T16:03:50Z</time>
      </trkpt>
      <trkpt lat="46.19025" lon="6.25096">
        <ele>476.6</ele>
        <time>2021-04-17T16:03:51Z</time>
      </trkpt>
      <trkpt lat="46.19027" lon="6.25098">
        <ele>476.6</ele>
        <time>2021-04-17T16:03:52Z</time>
      </trkpt>
      <trkpt lat="46.19028" lon="6.251">
        <ele>476.4</ele>
        <time>2021-04-17T16:03:53Z</time>
      </trkpt>
      <trkpt lat="46.1903" lon="6.25104">
        <ele>476.2</ele>
        <time>2021-04-17T16:03:54Z</time>
      </trkpt>
      <trkpt lat="46.19033" lon="6.25107">
        <ele>476</ele>
        <time>2021-04-17T16:03:55Z</time>
      </trkpt>
      <trkpt lat="46.19037" lon="6.25108">
        <ele>476</ele>
        <time>2021-04-17T16:03:56Z</time>
      </trkpt>
      <trkpt lat="46.19041" lon="6.25108">
        <ele>475.8</ele>
        <time>2021-04-17T16:03:57Z</time>
      </trkpt>
      <trkpt lat="46.19045" lon="6.25109">
        <ele>475.8</ele>
        <time>2021-04-17T16:03:58Z</time>
      </trkpt>
      <trkpt lat="46.1905" lon="6.25111">
        <ele>475.6</ele>
        <time>2021-04-17T16:03:59Z</time>
      </trkpt>
      <trkpt lat="46.19055" lon="6.25114">
        <ele>475.4</ele>
        <time>2021-04-17T16:04:00Z</time>
      </trkpt>
      <trkpt lat="46.1906" lon="6.25117">
        <ele>475.2</ele>
        <time>2021-04-17T16:04:01Z</time>
      </trkpt>
      <trkpt lat="46.19065" lon="6.2512">
        <ele>474.8</ele>
        <time>2021-04-17T16:04:02Z</time>
      </trkpt>
      <trkpt lat="46.19071" lon="6.25122">
        <ele>474.8</ele>
        <time>2021-04-17T16:04:03Z</time>
      </trkpt>
      <trkpt lat="46.19077" lon="6.25123">
        <ele>474.8</ele>
        <time>2021-04-17T16:04:04Z</time>
      </trkpt>
      <trkpt lat="46.19083" lon="6.25124">
        <ele>474.6</ele>
        <time>2021-04-17T16:04:05Z</time>
      </trkpt>
      <trkpt lat="46.1909" lon="6.25124">
        <ele>474.6</ele>
        <time>2021-04-17T16:04:06Z</time>
      </trkpt>
      <trkpt lat="46.19095" lon="6.25123">
        <ele>474.6</ele>
        <time>2021-04-17T16:04:07Z</time>
      </trkpt>
      <trkpt lat="46.19101" lon="6.25121">
        <ele>474.6</ele>
        <time>2021-04-17T16:04:08Z</time>
      </trkpt>
      <trkpt lat="46.19106" lon="6.25119">
        <ele>474.8</ele>
        <time>2021-04-17T16:04:09Z</time>
      </trkpt>
      <trkpt lat="46.19111" lon="6.25116">
        <ele>474.8</ele>
        <time>2021-04-17T16:04:10Z</time>
      </trkpt>
      <trkpt lat="46.19115" lon="6.25114">
        <ele>474.6</ele>
        <time>2021-04-17T16:04:11Z</time>
      </trkpt>
      <trkpt lat="46.19118" lon="6.25111">
        <ele>474.6</ele>
        <time>2021-04-17T16:04:12Z</time>
      </trkpt>
      <trkpt lat="46.1912" lon="6.25109">
        <ele>474.8</ele>
        <time>2021-04-17T16:04:13Z</time>
      </trkpt>
      <trkpt lat="46.19123" lon="6.25107">
        <ele>474.8</ele>
        <time>2021-04-17T16:04:14Z</time>
      </trkpt>
      <trkpt lat="46.19125" lon="6.25106">
        <ele>474.8</ele>
        <time>2021-04-17T16:04:15Z</time>
      </trkpt>
      <trkpt lat="46.19129" lon="6.25106">
        <ele>475.4</ele>
        <time>2021-04-17T16:04:16Z</time>
      </trkpt>
      <trkpt lat="46.19132" lon="6.25107">
        <ele>475.8</ele>
        <time>2021-04-17T16:04:17Z</time>
      </trkpt>
      <trkpt lat="46.19137" lon="6.2511">
        <ele>476.2</ele>
        <time>2021-04-17T16:04:18Z</time>
      </trkpt>
      <trkpt lat="46.19142" lon="6.25112">
        <ele>476.4</ele>
        <time>2021-04-17T16:04:19Z</time>
      </trkpt>
      <trkpt lat="46.19147" lon="6.25115">
        <ele>476.8</ele>
        <time>2021-04-17T16:04:20Z</time>
      </trkpt>
      <trkpt lat="46.19153" lon="6.25115">
        <ele>477.2</ele>
        <time>2021-04-17T16:04:21Z</time>
      </trkpt>
      <trkpt lat="46.19158" lon="6.25113">
        <ele>477.2</ele>
        <time>2021-04-17T16:04:22Z</time>
      </trkpt>
      <trkpt lat="46.19163" lon="6.25109">
        <ele>477.4</ele>
        <time>2021-04-17T16:04:23Z</time>
      </trkpt>
      <trkpt lat="46.19166" lon="6.25105">
        <ele>477.4</ele>
        <time>2021-04-17T16:04:24Z</time>
      </trkpt>
      <trkpt lat="46.19169" lon="6.25101">
        <ele>477.6</ele>
        <time>2021-04-17T16:04:25Z</time>
      </trkpt>
      <trkpt lat="46.19171" lon="6.25096">
        <ele>477.4</ele>
        <time>2021-04-17T16:04:26Z</time>
      </trkpt>
      <trkpt lat="46.19174" lon="6.25092">
        <ele>477.6</ele>
        <time>2021-04-17T16:04:27Z</time>
      </trkpt>
      <trkpt lat="46.19178" lon="6.25088">
        <ele>477.6</ele>
        <time>2021-04-17T16:04:28Z</time>
      </trkpt>
      <trkpt lat="46.19183" lon="6.25087">
        <ele>477.4</ele>
        <time>2021-04-17T16:04:29Z</time>
      </trkpt>
      <trkpt lat="46.19189" lon="6.25088">
        <ele>477.6</ele>
        <time>2021-04-17T16:04:30Z</time>
      </trkpt>
      <trkpt lat="46.19194" lon="6.25093">
        <ele>477.6</ele>
        <time>2021-04-17T16:04:31Z</time>
      </trkpt>
      <trkpt lat="46.19198" lon="6.251">
        <ele>477.6</ele>
        <time>2021-04-17T16:04:32Z</time>
      </trkpt>
      <trkpt lat="46.19203" lon="6.25108">
        <ele>477.4</ele>
        <time>2021-04-17T16:04:33Z</time>
      </trkpt>
      <trkpt lat="46.19208" lon="6.25114">
        <ele>477.4</ele>
        <time>2021-04-17T16:04:34Z</time>
      </trkpt>
      <trkpt lat="46.19214" lon="6.25118">
        <ele>477.4</ele>
        <time>2021-04-17T16:04:35Z</time>
      </trkpt>
      <trkpt lat="46.19221" lon="6.2512">
        <ele>477</ele>
        <time>2021-04-17T16:04:36Z</time>
      </trkpt>
      <trkpt lat="46.19228" lon="6.25121">
        <ele>477</ele>
        <time>2021-04-17T16:04:37Z</time>
      </trkpt>
      <trkpt lat="46.19235" lon="6.25121">
        <ele>476.8</ele>
        <time>2021-04-17T16:04:38Z</time>
      </trkpt>
      <trkpt lat="46.19242" lon="6.2512">
        <ele>476.6</ele>
        <time>2021-04-17T16:04:39Z</time>
      </trkpt>
      <trkpt lat="46.19249" lon="6.25119">
        <ele>476.6</ele>
        <time>2021-04-17T16:04:40Z</time>
      </trkpt>
      <trkpt lat="46.19256" lon="6.25118">
        <ele>476.4</ele>
        <time>2021-04-17T16:04:41Z</time>
      </trkpt>
      <trkpt lat="46.19263" lon="6.25117">
        <ele>476.4</ele>
        <time>2021-04-17T16:04:42Z</time>
      </trkpt>
      <trkpt lat="46.19269" lon="6.25116">
        <ele>476.2</ele>
        <time>2021-04-17T16:04:43Z</time>
      </trkpt>
      <trkpt lat="46.19275" lon="6.25115">
        <ele>476.2</ele>
        <time>2021-04-17T16:04:44Z</time>
      </trkpt>
      <trkpt lat="46.19279" lon="6.25113">
        <ele>476.2</ele>
        <time>2021-04-17T16:04:45Z</time>
      </trkpt>
      <trkpt lat="46.19281" lon="6.2511">
        <ele>475.4</ele>
        <time>2021-04-17T16:04:46Z</time>
      </trkpt>
      <trkpt lat="46.19281" lon="6.25107">
        <ele>475</ele>
        <time>2021-04-17T16:04:47Z</time>
      </trkpt>
      <trkpt lat="46.19281" lon="6.25104">
        <ele>474.6</ele>
        <time>2021-04-17T16:04:48Z</time>
      </trkpt>
      <trkpt lat="46.19281" lon="6.25102">
        <ele>474.6</ele>
        <time>2021-04-17T16:04:49Z</time>
      </trkpt>
      <trkpt lat="46.19281" lon="6.25101">
        <ele>474.6</ele>
        <time>2021-04-17T16:04:50Z</time>
      </trkpt>
      <trkpt lat="46.19281" lon="6.25101">
        <ele>474.4</ele>
        <time>2021-04-17T16:04:51Z</time>
      </trkpt>
      <trkpt lat="46.19281" lon="6.25101">
        <ele>474.4</ele>
        <time>2021-04-17T16:04:52Z</time>
      </trkpt>
      <trkpt lat="46.1928" lon="6.25101">
        <ele>474.4</ele>
        <time>2021-04-17T16:04:53Z</time>
      </trkpt>
      <trkpt lat="46.19281" lon="6.25101">
        <ele>474.4</ele>
        <time>2021-04-17T16:04:54Z</time>
      </trkpt>
      <trkpt lat="46.19281" lon="6.25101">
        <ele>474.2</ele>
        <time>2021-04-17T16:04:55Z</time>
      </trkpt>
      <trkpt lat="46.19281" lon="6.25101">
        <ele>474.4</ele>
        <time>2021-04-17T16:04:56Z</time>
      </trkpt>
      <trkpt lat="46.19281" lon="6.25101">
        <ele>474.4</ele>
        <time>2021-04-17T16:04:57Z</time>
      </trkpt>
      <trkpt lat="46.19281" lon="6.25101">
        <ele>474.2</ele>
        <time>2021-04-17T16:04:58Z</time>
      </trkpt>
      <trkpt lat="46.19281" lon="6.25101">
        <ele>474.4</ele>
        <time>2021-04-17T16:04:59Z</time>
      </trkpt>
      <trkpt lat="46.19281" lon="6.251">
        <ele>474.4</ele>
        <time>2021-04-17T16:05:00Z</time>
      </trkpt>
      <trkpt lat="46.19281" lon="6.251">
        <ele>474.6</ele>
        <time>2021-04-17T16:05:01Z</time>
      </trkpt>
      <trkpt lat="46.19281" lon="6.25099">
        <ele>474.6</ele>
        <time>2021-04-17T16:05:02Z</time>
      </trkpt>
      <trkpt lat="46.19281" lon="6.25097">
        <ele>474.6</ele>
        <time>2021-04-17T16:05:03Z</time>
      </trkpt>
      <trkpt lat="46.19282" lon="6.25095">
        <ele>474.8</ele>
        <time>2021-04-17T16:05:04Z</time>
      </trkpt>
      <trkpt lat="46.19282" lon="6.25092">
        <ele>474.8</ele>
        <time>2021-04-17T16:05:05Z</time>
      </trkpt>
      <trkpt lat="46.19282" lon="6.25089">
        <ele>474.8</ele>
        <time>2021-04-17T16:05:06Z</time>
      </trkpt>
      <trkpt lat="46.19283" lon="6.25085">
        <ele>474.8</ele>
        <time>2021-04-17T16:05:07Z</time>
      </trkpt>
      <trkpt lat="46.19283" lon="6.2508">
        <ele>474.8</ele>
        <time>2021-04-17T16:05:08Z</time>
      </trkpt>
      <trkpt lat="46.19284" lon="6.25074">
        <ele>474.8</ele>
        <time>2021-04-17T16:05:09Z</time>
      </trkpt>
      <trkpt lat="46.19285" lon="6.25068">
        <ele>475</ele>
        <time>2021-04-17T16:05:10Z</time>
      </trkpt>
      <trkpt lat="46.19287" lon="6.25061">
        <ele>475</ele>
        <time>2021-04-17T16:05:11Z</time>
      </trkpt>
      <trkpt lat="46.19288" lon="6.25055">
        <ele>475</ele>
        <time>2021-04-17T16:05:12Z</time>
      </trkpt>
      <trkpt lat="46.19289" lon="6.25049">
        <ele>475</ele>
        <time>2021-04-17T16:05:13Z</time>
      </trkpt>
      <trkpt lat="46.19289" lon="6.25042">
        <ele>475</ele>
        <time>2021-04-17T16:05:14Z</time>
      </trkpt>
      <trkpt lat="46.1929" lon="6.25036">
        <ele>475.2</ele>
        <time>2021-04-17T16:05:15Z</time>
      </trkpt>
      <trkpt lat="46.19291" lon="6.2503">
        <ele>475.2</ele>
        <time>2021-04-17T16:05:16Z</time>
      </trkpt>
      <trkpt lat="46.19291" lon="6.25025">
        <ele>475</ele>
        <time>2021-04-17T16:05:17Z</time>
      </trkpt>
      <trkpt lat="46.19292" lon="6.25022">
        <ele>475.2</ele>
        <time>2021-04-17T16:05:18Z</time>
      </trkpt>
      <trkpt lat="46.19293" lon="6.2502">
        <ele>475</ele>
        <time>2021-04-17T16:05:19Z</time>
      </trkpt>
      <trkpt lat="46.19293" lon="6.25019">
        <ele>474.8</ele>
        <time>2021-04-17T16:05:20Z</time>
      </trkpt>
      <trkpt lat="46.19294" lon="6.25019">
        <ele>474.8</ele>
        <time>2021-04-17T16:05:21Z</time>
      </trkpt>
      <trkpt lat="46.19294" lon="6.25019">
        <ele>474.6</ele>
        <time>2021-04-17T16:05:22Z</time>
      </trkpt>
      <trkpt lat="46.19294" lon="6.25019">
        <ele>474.6</ele>
        <time>2021-04-17T16:05:23Z</time>
      </trkpt>
      <trkpt lat="46.19294" lon="6.25019">
        <ele>474.4</ele>
        <time>2021-04-17T16:05:24Z</time>
      </trkpt>
      <trkpt lat="46.19294" lon="6.25019">
        <ele>474.2</ele>
        <time>2021-04-17T16:05:25Z</time>
      </trkpt>
      <trkpt lat="46.19294" lon="6.25019">
        <ele>473.8</ele>
        <time>2021-04-17T16:05:26Z</time>
      </trkpt>
      <trkpt lat="46.19294" lon="6.25019">
        <ele>473.6</ele>
        <time>2021-04-17T16:05:27Z</time>
      </trkpt>
      <trkpt lat="46.19295" lon="6.2502">
        <ele>473.6</ele>
        <time>2021-04-17T16:05:28Z</time>
      </trkpt>
      <trkpt lat="46.19295" lon="6.2502">
        <ele>473.6</ele>
        <time>2021-04-17T16:05:29Z</time>
      </trkpt>
      <trkpt lat="46.19295" lon="6.2502">
        <ele>473.4</ele>
        <time>2021-04-17T16:05:30Z</time>
      </trkpt>
      <trkpt lat="46.19295" lon="6.2502">
        <ele>473.4</ele>
        <time>2021-04-17T16:05:31Z</time>
      </trkpt>
      <trkpt lat="46.19295" lon="6.2502">
        <ele>473.2</ele>
        <time>2021-04-17T16:05:32Z</time>
      </trkpt>
      <trkpt lat="46.19295" lon="6.2502">
        <ele>473.2</ele>
        <time>2021-04-17T16:05:33Z</time>
      </trkpt>
      <trkpt lat="46.19296" lon="6.2502">
        <ele>473.2</ele>
        <time>2021-04-17T16:05:34Z</time>
      </trkpt>
      <trkpt lat="46.19296" lon="6.2502">
        <ele>473.2</ele>
        <time>2021-04-17T16:05:35Z</time>
      </trkpt>
      <trkpt lat="46.19296" lon="6.2502">
        <ele>473</ele>
        <time>2021-04-17T16:05:36Z</time>
      </trkpt>
      <trkpt lat="46.19296" lon="6.2502">
        <ele>473</ele>
        <time>2021-04-17T16:05:37Z</time>
      </trkpt>
      <trkpt lat="46.19295" lon="6.25019">
        <ele>473.2</ele>
        <time>2021-04-17T16:05:38Z</time>
      </trkpt>
      <trkpt lat="46.19295" lon="6.25019">
        <ele>473</ele>
        <time>2021-04-17T16:05:39Z</time>
      </trkpt>
      <trkpt lat="46.19295" lon="6.25019">
        <ele>473.2</ele>
        <time>2021-04-17T16:05:40Z</time>
      </trkpt>
      <trkpt lat="46.19295" lon="6.25019">
        <ele>473.2</ele>
        <time>2021-04-17T16:05:41Z</time>
      </trkpt>
      <trkpt lat="46.19295" lon="6.25019">
        <ele>473.2</ele>
        <time>2021-04-17T16:05:42Z</time>
      </trkpt>
      <trkpt lat="46.19295" lon="6.25019">
        <ele>473</ele>
        <time>2021-04-17T16:05:43Z</time>
      </trkpt>
      <trkpt lat="46.19295" lon="6.25019">
        <ele>473</ele>
        <time>2021-04-17T16:05:44Z</time>
      </trkpt>
      <trkpt lat="46.19295" lon="6.25019">
        <ele>473</ele>
        <time>2021-04-17T16:05:45Z</time>
      </trkpt>
      <trkpt lat="46.19295" lon="6.25019">
        <ele>473</ele>
        <time>2021-04-17T16:05:46Z</time>
      </trkpt>
      <trkpt lat="46.19295" lon="6.25019">
        <ele>473</ele>
        <time>2021-04-17T16:05:47Z</time>
      </trkpt>
      <trkpt lat="46.19295" lon="6.25019">
        <ele>473</ele>
        <time>2021-04-17T16:05:48Z</time>
      </trkpt>
      <trkpt lat="46.19296" lon="6.25019">
        <ele>473</ele>
        <time>2021-04-17T16:05:49Z</time>
      </trkpt>
      <trkpt lat="46.19296" lon="6.25019">
        <ele>473</ele>
        <time>2021-04-17T16:05:50Z</time>
      </trkpt>
      <trkpt lat="46.19296" lon="6.2502">
        <ele>473</ele>
        <time>2021-04-17T16:05:51Z</time>
      </trkpt>
      <trkpt lat="46.19296" lon="6.2502">
        <ele>473</ele>
        <time>2021-04-17T16:05:52Z</time>
      </trkpt>
      <trkpt lat="46.19296" lon="6.2502">
        <ele>472.8</ele>
        <time>2021-04-17T16:05:53Z</time>
      </trkpt>
      <trkpt lat="46.19296" lon="6.2502">
        <ele>473</ele>
        <time>2021-04-17T16:05:54Z</time>
      </trkpt>
      <trkpt lat="46.19296" lon="6.2502">
        <ele>473</ele>
        <time>2021-04-17T16:05:55Z</time>
      </trkpt>
      <trkpt lat="46.19296" lon="6.2502">
        <ele>473</ele>
        <time>2021-04-17T16:05:56Z</time>
      </trkpt>
      <trkpt lat="46.19296" lon="6.2502">
        <ele>473</ele>
        <time>2021-04-17T16:05:57Z</time>
      </trkpt>
    </trkseg>
  </trk>
</gpx>